<?xml version="1.0" encoding="UTF-8"?>
<gpx xmlns="http://www.topografix.com/GPX/1/1" version="1.1" creator="Nokia Sports Tracker" xmlns:xsi="http://www.w3.org/2001/XMLSchema-instance" xsi:schemaLocation="http://www.topografix.com/GPX/1/1 http://www.topografix.com/GPX/1/1/gpx.xsd">
<metadata>
<name>28.08.2010 15:19</name>
<desc>Motor on Neue Route</desc>
<author><name>Alexander</name></author>
<time>2010-08-28T15:19:56.12</time>
</metadata>
<trk>
<name>28.08.2010 15:19</name>
<trkseg>
<trkpt lat="49.372615" lon="9.155685">
<ele>226.5</ele>
<speed>0.0</speed>
<course>207.9</course>
<desc>Speed 0.0 km/h Distance 0.00 km</desc>
<time>2010-08-28T15:20:00.96</time>
<name>1</name>
</trkpt>
<trkpt lat="49.372588" lon="9.155663">
<ele>216.0</ele>
<speed>0.0</speed>
<course>162.4</course>
<desc>Speed 0.0 km/h Distance 0.00 km</desc>
<time>2010-08-28T15:20:02.59</time>
<name>2</name>
</trkpt>
<trkpt lat="49.372397" lon="9.155757">
<ele>204.5</ele>
<speed>4.1</speed>
<course>107.1</course>
<desc>Speed 4.1 km/h Distance 0.03 km</desc>
<time>2010-08-28T15:20:06.63</time>
<name>3</name>
</trkpt>
<trkpt lat="49.372390" lon="9.155790">
<ele>206.0</ele>
<speed>4.1</speed>
<course>62.1</course>
<desc>Speed 4.1 km/h Distance 0.03 km</desc>
<time>2010-08-28T15:20:07.52</time>
<name>4</name>
</trkpt>
<trkpt lat="49.372425" lon="9.155892">
<ele>208.5</ele>
<speed>5.7</speed>
<course>42.9</course>
<desc>Speed 5.7 km/h Distance 0.04 km</desc>
<time>2010-08-28T15:20:09.53</time>
<name>5</name>
</trkpt>
<trkpt lat="49.372437" lon="9.155908">
<ele>206.0</ele>
<speed>1.9</speed>
<course>15.0</course>
<desc>Speed 1.9 km/h Distance 0.04 km</desc>
<time>2010-08-28T15:20:10.54</time>
<name>6</name>
</trkpt>
<trkpt lat="49.372493" lon="9.155932">
<ele>199.5</ele>
<speed>23.4</speed>
<course>84.8</course>
<desc>Speed 23.4 km/h Distance 0.04 km</desc>
<time>2010-08-28T15:20:13.53</time>
<name>7</name>
</trkpt>
<trkpt lat="49.372495" lon="9.155960">
<ele>200.0</ele>
<speed>1.7</speed>
<course>187.9</course>
<desc>Speed 1.7 km/h Distance 0.05 km</desc>
<time>2010-08-28T15:20:17.54</time>
<name>8</name>
</trkpt>
<trkpt lat="49.372440" lon="9.155948">
<ele>202.5</ele>
<speed>3.7</speed>
<course>208.3</course>
<desc>Speed 3.7 km/h Distance 0.05 km</desc>
<time>2010-08-28T15:20:19.55</time>
<name>9</name>
</trkpt>
<trkpt lat="49.372430" lon="9.155940">
<ele>204.0</ele>
<speed>3.7</speed>
<course>252.9</course>
<desc>Speed 3.7 km/h Distance 0.05 km</desc>
<time>2010-08-28T15:20:20.57</time>
<name>10</name>
</trkpt>
<trkpt lat="49.372427" lon="9.155923">
<ele>203.0</ele>
<speed>3.7</speed>
<course>322.4</course>
<desc>Speed 3.7 km/h Distance 0.06 km</desc>
<time>2010-08-28T15:20:21.56</time>
<name>11</name>
</trkpt>
<trkpt lat="49.372445" lon="9.155902">
<ele>204.0</ele>
<speed>8.1</speed>
<course>254.4</course>
<desc>Speed 8.1 km/h Distance 0.06 km</desc>
<time>2010-08-28T15:20:22.54</time>
<name>12</name>
</trkpt>
<trkpt lat="49.372442" lon="9.155883">
<ele>204.5</ele>
<speed>7.4</speed>
<course>205.9</course>
<desc>Speed 7.4 km/h Distance 0.06 km</desc>
<time>2010-08-28T15:20:23.61</time>
<name>13</name>
</trkpt>
<trkpt lat="49.372357" lon="9.155820">
<ele>207.0</ele>
<speed>17.4</speed>
<course>195.8</course>
<desc>Speed 17.4 km/h Distance 0.07 km</desc>
<time>2010-08-28T15:20:25.53</time>
<name>14</name>
</trkpt>
<trkpt lat="49.372318" lon="9.155803">
<ele>208.0</ele>
<speed>17.8</speed>
<course>199.0</course>
<desc>Speed 17.8 km/h Distance 0.07 km</desc>
<time>2010-08-28T15:20:26.53</time>
<name>15</name>
</trkpt>
<trkpt lat="49.372287" lon="9.155787">
<ele>208.5</ele>
<speed>17.8</speed>
<course>193.0</course>
<desc>Speed 17.8 km/h Distance 0.08 km</desc>
<time>2010-08-28T15:20:27.53</time>
<name>16</name>
</trkpt>
<trkpt lat="49.372258" lon="9.155777">
<ele>209.0</ele>
<speed>17.8</speed>
<course>188.5</course>
<desc>Speed 17.8 km/h Distance 0.08 km</desc>
<time>2010-08-28T15:20:28.53</time>
<name>17</name>
</trkpt>
<trkpt lat="49.372215" lon="9.155767">
<ele>210.0</ele>
<speed>17.8</speed>
<course>218.4</course>
<desc>Speed 17.8 km/h Distance 0.09 km</desc>
<time>2010-08-28T15:20:30.52</time>
<name>18</name>
</trkpt>
<trkpt lat="49.372177" lon="9.155720">
<ele>211.0</ele>
<speed>17.8</speed>
<course>256.2</course>
<desc>Speed 17.8 km/h Distance 0.09 km</desc>
<time>2010-08-28T15:20:32.61</time>
<name>19</name>
</trkpt>
<trkpt lat="49.372158" lon="9.155605">
<ele>212.0</ele>
<speed>18.8</speed>
<course>291.0</course>
<desc>Speed 18.8 km/h Distance 0.10 km</desc>
<time>2010-08-28T15:20:34.52</time>
<name>20</name>
</trkpt>
<trkpt lat="49.372182" lon="9.155512">
<ele>211.5</ele>
<speed>13.8</speed>
<course>302.6</course>
<desc>Speed 13.8 km/h Distance 0.11 km</desc>
<time>2010-08-28T15:20:36.51</time>
<name>21</name>
</trkpt>
<trkpt lat="49.372198" lon="9.155472">
<ele>211.0</ele>
<speed>13.8</speed>
<course>340.3</course>
<desc>Speed 13.8 km/h Distance 0.11 km</desc>
<time>2010-08-28T15:20:37.51</time>
<name>22</name>
</trkpt>
<trkpt lat="49.372862" lon="9.155107">
<ele>215.0</ele>
<speed>63.7</speed>
<course>337.9</course>
<desc>Speed 63.7 km/h Distance 0.19 km</desc>
<time>2010-08-28T15:20:43.50</time>
<name>23</name>
</trkpt>
<trkpt lat="49.373012" lon="9.155013">
<ele>215.0</ele>
<speed>65.4</speed>
<course>334.0</course>
<desc>Speed 65.4 km/h Distance 0.21 km</desc>
<time>2010-08-28T15:20:44.50</time>
<name>24</name>
</trkpt>
<trkpt lat="49.373172" lon="9.154893">
<ele>215.0</ele>
<speed>72.3</speed>
<course>333.5</course>
<desc>Speed 72.3 km/h Distance 0.23 km</desc>
<time>2010-08-28T15:20:45.51</time>
<name>25</name>
</trkpt>
<trkpt lat="49.373342" lon="9.154763">
<ele>215.5</ele>
<speed>77.3</speed>
<course>332.9</course>
<desc>Speed 77.3 km/h Distance 0.25 km</desc>
<time>2010-08-28T15:20:46.50</time>
<name>26</name>
</trkpt>
<trkpt lat="49.373822" lon="9.154387">
<ele>217.0</ele>
<speed>77.3</speed>
<course>336.2</course>
<desc>Speed 77.3 km/h Distance 0.31 km</desc>
<time>2010-08-28T15:20:51.50</time>
<name>27</name>
</trkpt>
<trkpt lat="49.374053" lon="9.154230">
<ele>216.5</ele>
<speed>77.3</speed>
<course>36.8</course>
<desc>Speed 77.3 km/h Distance 0.34 km</desc>
<time>2010-08-28T15:20:57.56</time>
<name>28</name>
</trkpt>
<trkpt lat="49.374323" lon="9.154540">
<ele>213.0</ele>
<speed>77.3</speed>
<course>42.1</course>
<desc>Speed 77.3 km/h Distance 0.37 km</desc>
<time>2010-08-28T15:21:00.50</time>
<name>29</name>
</trkpt>
<trkpt lat="49.374788" lon="9.155185">
<ele>212.0</ele>
<speed>77.3</speed>
<course>356.7</course>
<desc>Speed 77.3 km/h Distance 0.44 km</desc>
<time>2010-08-28T15:21:02.50</time>
<name>30</name>
</trkpt>
<trkpt lat="49.376500" lon="9.155032">
<ele>211.0</ele>
<speed>77.3</speed>
<course>1.0</course>
<desc>Speed 77.3 km/h Distance 0.63 km</desc>
<time>2010-08-28T15:21:06.49</time>
<name>31</name>
</trkpt>
<trkpt lat="49.376950" lon="9.155043">
<ele>210.5</ele>
<speed>77.3</speed>
<course>339.2</course>
<desc>Speed 77.3 km/h Distance 0.68 km</desc>
<time>2010-08-28T15:21:08.49</time>
<name>32</name>
</trkpt>
<trkpt lat="49.377147" lon="9.154928">
<ele>210.0</ele>
<speed>77.3</speed>
<course>317.9</course>
<desc>Speed 77.3 km/h Distance 0.71 km</desc>
<time>2010-08-28T15:21:09.49</time>
<name>33</name>
</trkpt>
<trkpt lat="49.377730" lon="9.154120">
<ele>209.0</ele>
<speed>77.3</speed>
<course>341.6</course>
<desc>Speed 77.3 km/h Distance 0.80 km</desc>
<time>2010-08-28T15:21:12.48</time>
<name>34</name>
</trkpt>
<trkpt lat="49.378450" lon="9.153752">
<ele>208.0</ele>
<speed>77.3</speed>
<course>344.2</course>
<desc>Speed 77.3 km/h Distance 0.88 km</desc>
<time>2010-08-28T15:21:18.48</time>
<name>35</name>
</trkpt>
<trkpt lat="49.379142" lon="9.153452">
<ele>208.0</ele>
<speed>77.3</speed>
<course>312.1</course>
<desc>Speed 77.3 km/h Distance 0.96 km</desc>
<time>2010-08-28T15:21:21.48</time>
<name>36</name>
</trkpt>
<trkpt lat="49.379270" lon="9.153233">
<ele>207.5</ele>
<speed>77.3</speed>
<course>295.1</course>
<desc>Speed 77.3 km/h Distance 0.98 km</desc>
<time>2010-08-28T15:21:22.47</time>
<name>37</name>
</trkpt>
<trkpt lat="49.379530" lon="9.152380">
<ele>207.5</ele>
<speed>77.3</speed>
<course>297.3</course>
<desc>Speed 77.3 km/h Distance 1.05 km</desc>
<time>2010-08-28T15:21:24.47</time>
<name>38</name>
</trkpt>
<trkpt lat="49.379780" lon="9.151637">
<ele>207.5</ele>
<speed>77.3</speed>
<course>340.7</course>
<desc>Speed 77.3 km/h Distance 1.11 km</desc>
<time>2010-08-28T15:21:27.47</time>
<name>39</name>
</trkpt>
<trkpt lat="49.380692" lon="9.151145">
<ele>207.0</ele>
<speed>77.3</speed>
<course>343.3</course>
<desc>Speed 77.3 km/h Distance 1.22 km</desc>
<time>2010-08-28T15:21:29.47</time>
<name>40</name>
</trkpt>
<trkpt lat="49.380880" lon="9.151058">
<ele>207.0</ele>
<speed>77.3</speed>
<course>338.1</course>
<desc>Speed 77.3 km/h Distance 1.24 km</desc>
<time>2010-08-28T15:21:30.47</time>
<name>41</name>
</trkpt>
<trkpt lat="49.381110" lon="9.150917">
<ele>207.0</ele>
<speed>77.3</speed>
<course>49.7</course>
<desc>Speed 77.3 km/h Distance 1.27 km</desc>
<time>2010-08-28T15:21:34.47</time>
<name>42</name>
</trkpt>
<trkpt lat="49.382087" lon="9.152685">
<ele>207.5</ele>
<speed>77.3</speed>
<course>313.3</course>
<desc>Speed 77.3 km/h Distance 1.44 km</desc>
<time>2010-08-28T15:21:37.46</time>
<name>43</name>
</trkpt>
<trkpt lat="49.382955" lon="9.151268">
<ele>207.5</ele>
<speed>77.3</speed>
<course>3.0</course>
<desc>Speed 77.3 km/h Distance 1.58 km</desc>
<time>2010-08-28T15:21:39.47</time>
<name>44</name>
</trkpt>
<trkpt lat="49.385170" lon="9.151448">
<ele>208.5</ele>
<speed>114</speed>
<course>351.8</course>
<desc>Speed 114 km/h Distance 1.82 km</desc>
<time>2010-08-28T15:21:41.47</time>
<name>45</name>
</trkpt>
<trkpt lat="49.386415" lon="9.151172">
<ele>208.5</ele>
<speed>114</speed>
<course>351.6</course>
<desc>Speed 114 km/h Distance 1.96 km</desc>
<time>2010-08-28T15:21:45.46</time>
<name>46</name>
</trkpt>
<trkpt lat="49.387120" lon="9.151012">
<ele>209.0</ele>
<speed>114</speed>
<course>349.4</course>
<desc>Speed 114 km/h Distance 2.04 km</desc>
<time>2010-08-28T15:21:51.46</time>
<name>47</name>
</trkpt>
<trkpt lat="49.388152" lon="9.150715">
<ele>209.0</ele>
<speed>114</speed>
<course>33.1</course>
<desc>Speed 114 km/h Distance 2.16 km</desc>
<time>2010-08-28T15:21:58.45</time>
<name>48</name>
</trkpt>
<trkpt lat="49.388677" lon="9.151242">
<ele>209.0</ele>
<speed>114</speed>
<course>333.4</course>
<desc>Speed 114 km/h Distance 2.23 km</desc>
<time>2010-08-28T15:22:02.44</time>
<name>49</name>
</trkpt>
<trkpt lat="49.389580" lon="9.150547">
<ele>209.0</ele>
<speed>114</speed>
<course>47.4</course>
<desc>Speed 114 km/h Distance 2.34 km</desc>
<time>2010-08-28T15:22:05.44</time>
<name>50</name>
</trkpt>
<trkpt lat="49.390495" lon="9.152077">
<ele>209.5</ele>
<speed>114</speed>
<course>19.4</course>
<desc>Speed 114 km/h Distance 2.49 km</desc>
<time>2010-08-28T15:22:09.45</time>
<name>51</name>
</trkpt>
<trkpt lat="49.392265" lon="9.153035">
<ele>209.0</ele>
<speed>114</speed>
<course>351.0</course>
<desc>Speed 114 km/h Distance 2.70 km</desc>
<time>2010-08-28T15:22:16.44</time>
<name>52</name>
</trkpt>
<trkpt lat="49.393245" lon="9.152797">
<ele>209.5</ele>
<speed>114</speed>
<course>31.3</course>
<desc>Speed 114 km/h Distance 2.81 km</desc>
<time>2010-08-28T15:22:19.44</time>
<name>53</name>
</trkpt>
<trkpt lat="49.394682" lon="9.154137">
<ele>209.5</ele>
<speed>114</speed>
<course>37.8</course>
<desc>Speed 114 km/h Distance 3.00 km</desc>
<time>2010-08-28T15:22:23.43</time>
<name>54</name>
</trkpt>
<trkpt lat="49.396698" lon="9.156540">
<ele>209.5</ele>
<speed>91.0</speed>
<course>17.5</course>
<desc>Speed 91.0 km/h Distance 3.28 km</desc>
<time>2010-08-28T15:22:29.43</time>
<name>55</name>
</trkpt>
<trkpt lat="49.397558" lon="9.156957">
<ele>210.0</ele>
<speed>107</speed>
<course>1.6</course>
<desc>Speed 107 km/h Distance 3.38 km</desc>
<time>2010-08-28T15:22:34.43</time>
<name>56</name>
</trkpt>
<trkpt lat="49.397832" lon="9.156968">
<ele>210.0</ele>
<speed>107</speed>
<course>355.2</course>
<desc>Speed 107 km/h Distance 3.41 km</desc>
<time>2010-08-28T15:22:35.42</time>
<name>57</name>
</trkpt>
<trkpt lat="49.398788" lon="9.156845">
<ele>210.5</ele>
<speed>107</speed>
<course>2.3</course>
<desc>Speed 107 km/h Distance 3.52 km</desc>
<time>2010-08-28T15:22:41.42</time>
<name>58</name>
</trkpt>
<trkpt lat="49.400818" lon="9.156972">
<ele>211.0</ele>
<speed>116</speed>
<course>339.2</course>
<desc>Speed 116 km/h Distance 3.75 km</desc>
<time>2010-08-28T15:22:47.42</time>
<name>59</name>
</trkpt>
<trkpt lat="49.401397" lon="9.156633">
<ele>211.5</ele>
<speed>116</speed>
<course>353.3</course>
<desc>Speed 116 km/h Distance 3.82 km</desc>
<time>2010-08-28T15:22:49.41</time>
<name>60</name>
</trkpt>
<trkpt lat="49.402278" lon="9.156475">
<ele>211.0</ele>
<speed>116</speed>
<course>31.8</course>
<desc>Speed 116 km/h Distance 3.91 km</desc>
<time>2010-08-28T15:22:54.42</time>
<name>61</name>
</trkpt>
<trkpt lat="49.404907" lon="9.158978">
<ele>215.5</ele>
<speed>69.9</speed>
<course>352.5</course>
<desc>Speed 69.9 km/h Distance 4.26 km</desc>
<time>2010-08-28T15:23:05.40</time>
<name>62</name>
</trkpt>
<trkpt lat="49.406133" lon="9.158730">
<ele>224.5</ele>
<speed>67.1</speed>
<course>354.1</course>
<desc>Speed 67.1 km/h Distance 4.40 km</desc>
<time>2010-08-28T15:23:08.41</time>
<name>63</name>
</trkpt>
<trkpt lat="49.407027" lon="9.158588">
<ele>234.0</ele>
<speed>61.7</speed>
<course>324.6</course>
<desc>Speed 61.7 km/h Distance 4.50 km</desc>
<time>2010-08-28T15:23:12.40</time>
<name>64</name>
</trkpt>
<trkpt lat="49.407247" lon="9.158348">
<ele>239.0</ele>
<speed>62.0</speed>
<course>340.2</course>
<desc>Speed 62.0 km/h Distance 4.53 km</desc>
<time>2010-08-28T15:23:14.39</time>
<name>65</name>
</trkpt>
<trkpt lat="49.407403" lon="9.158262">
<ele>239.5</ele>
<speed>61.6</speed>
<course>350.2</course>
<desc>Speed 61.6 km/h Distance 4.55 km</desc>
<time>2010-08-28T15:23:15.39</time>
<name>66</name>
</trkpt>
<trkpt lat="49.408543" lon="9.157958">
<ele>257.0</ele>
<speed>66.5</speed>
<course>345.5</course>
<desc>Speed 66.5 km/h Distance 4.67 km</desc>
<time>2010-08-28T15:23:20.38</time>
<name>67</name>
</trkpt>
<trkpt lat="49.408698" lon="9.157897">
<ele>257.5</ele>
<speed>67.4</speed>
<course>351.5</course>
<desc>Speed 67.4 km/h Distance 4.69 km</desc>
<time>2010-08-28T15:23:21.39</time>
<name>68</name>
</trkpt>
<trkpt lat="49.409075" lon="9.157810">
<ele>262.5</ele>
<speed>68.4</speed>
<course>350.4</course>
<desc>Speed 68.4 km/h Distance 4.73 km</desc>
<time>2010-08-28T15:23:23.39</time>
<name>69</name>
</trkpt>
<trkpt lat="49.409442" lon="9.157715">
<ele>267.5</ele>
<speed>72.9</speed>
<course>344.9</course>
<desc>Speed 72.9 km/h Distance 4.78 km</desc>
<time>2010-08-28T15:23:25.38</time>
<name>70</name>
</trkpt>
<trkpt lat="49.409610" lon="9.157645">
<ele>271.0</ele>
<speed>74.1</speed>
<course>347.2</course>
<desc>Speed 74.1 km/h Distance 4.80 km</desc>
<time>2010-08-28T15:23:26.37</time>
<name>71</name>
</trkpt>
<trkpt lat="49.409802" lon="9.157578">
<ele>273.5</ele>
<speed>74.7</speed>
<course>348.6</course>
<desc>Speed 74.7 km/h Distance 4.82 km</desc>
<time>2010-08-28T15:23:27.38</time>
<name>72</name>
</trkpt>
<trkpt lat="49.409995" lon="9.157518">
<ele>276.0</ele>
<speed>73.8</speed>
<course>353.6</course>
<desc>Speed 73.8 km/h Distance 4.84 km</desc>
<time>2010-08-28T15:23:28.37</time>
<name>73</name>
</trkpt>
<trkpt lat="49.410392" lon="9.157450">
<ele>278.0</ele>
<speed>79.9</speed>
<course>355.5</course>
<desc>Speed 79.9 km/h Distance 4.88 km</desc>
<time>2010-08-28T15:23:30.37</time>
<name>74</name>
</trkpt>
<trkpt lat="49.410803" lon="9.157400">
<ele>280.5</ele>
<speed>90.9</speed>
<course>349.3</course>
<desc>Speed 90.9 km/h Distance 4.93 km</desc>
<time>2010-08-28T15:23:32.38</time>
<name>75</name>
</trkpt>
<trkpt lat="49.411628" lon="9.157160">
<ele>295.0</ele>
<speed>78.3</speed>
<course>354.8</course>
<desc>Speed 78.3 km/h Distance 5.02 km</desc>
<time>2010-08-28T15:23:38.38</time>
<name>76</name>
</trkpt>
<trkpt lat="49.412068" lon="9.157098">
<ele>299.0</ele>
<speed>81.8</speed>
<course>9.5</course>
<desc>Speed 81.8 km/h Distance 5.07 km</desc>
<time>2010-08-28T15:23:40.37</time>
<name>77</name>
</trkpt>
<trkpt lat="49.412625" lon="9.157242">
<ele>299.5</ele>
<speed>78.8</speed>
<course>19.3</course>
<desc>Speed 78.8 km/h Distance 5.13 km</desc>
<time>2010-08-28T15:23:43.38</time>
<name>78</name>
</trkpt>
<trkpt lat="49.413058" lon="9.157475">
<ele>297.0</ele>
<speed>78.8</speed>
<course>31.0</course>
<desc>Speed 78.8 km/h Distance 5.19 km</desc>
<time>2010-08-28T15:23:45.37</time>
<name>79</name>
</trkpt>
<trkpt lat="49.413235" lon="9.157638">
<ele>297.0</ele>
<speed>78.8</speed>
<course>36.9</course>
<desc>Speed 78.8 km/h Distance 5.21 km</desc>
<time>2010-08-28T15:23:46.37</time>
<name>80</name>
</trkpt>
<trkpt lat="49.413813" lon="9.158305">
<ele>306.5</ele>
<speed>100</speed>
<course>43.3</course>
<desc>Speed 100 km/h Distance 5.29 km</desc>
<time>2010-08-28T15:23:49.37</time>
<name>81</name>
</trkpt>
<trkpt lat="49.414673" lon="9.159550">
<ele>331.0</ele>
<speed>76.8</speed>
<course>71.2</course>
<desc>Speed 76.8 km/h Distance 5.42 km</desc>
<time>2010-08-28T15:23:53.36</time>
<name>82</name>
</trkpt>
<trkpt lat="49.414733" lon="9.159822">
<ele>330.5</ele>
<speed>71.0</speed>
<course>66.0</course>
<desc>Speed 71.0 km/h Distance 5.44 km</desc>
<time>2010-08-28T15:23:54.36</time>
<name>83</name>
</trkpt>
<trkpt lat="49.414803" lon="9.160063">
<ele>331.5</ele>
<speed>68.6</speed>
<course>64.0</course>
<desc>Speed 68.6 km/h Distance 5.46 km</desc>
<time>2010-08-28T15:23:55.35</time>
<name>84</name>
</trkpt>
<trkpt lat="49.414878" lon="9.160300">
<ele>332.0</ele>
<speed>68.3</speed>
<course>62.9</course>
<desc>Speed 68.3 km/h Distance 5.48 km</desc>
<time>2010-08-28T15:23:56.36</time>
<name>85</name>
</trkpt>
<trkpt lat="49.415008" lon="9.160690">
<ele>334.0</ele>
<speed>59.4</speed>
<course>41.5</course>
<desc>Speed 59.4 km/h Distance 5.51 km</desc>
<time>2010-08-28T15:23:58.36</time>
<name>86</name>
</trkpt>
<trkpt lat="49.415282" lon="9.161062">
<ele>336.0</ele>
<speed>52.7</speed>
<course>36.0</course>
<desc>Speed 52.7 km/h Distance 5.55 km</desc>
<time>2010-08-28T15:24:01.35</time>
<name>87</name>
</trkpt>
<trkpt lat="49.415395" lon="9.161188">
<ele>337.5</ele>
<speed>54.8</speed>
<course>21.4</course>
<desc>Speed 54.8 km/h Distance 5.57 km</desc>
<time>2010-08-28T15:24:02.36</time>
<name>88</name>
</trkpt>
<trkpt lat="49.415597" lon="9.161310">
<ele>337.5</ele>
<speed>47.1</speed>
<course>343.5</course>
<desc>Speed 47.1 km/h Distance 5.59 km</desc>
<time>2010-08-28T15:24:04.35</time>
<name>89</name>
</trkpt>
<trkpt lat="49.415780" lon="9.161227">
<ele>337.0</ele>
<speed>47.1</speed>
<course>339.9</course>
<desc>Speed 47.1 km/h Distance 5.61 km</desc>
<time>2010-08-28T15:24:06.35</time>
<name>90</name>
</trkpt>
<trkpt lat="49.415887" lon="9.161167">
<ele>339.5</ele>
<speed>47.1</speed>
<course>16.9</course>
<desc>Speed 47.1 km/h Distance 5.63 km</desc>
<time>2010-08-28T15:24:07.35</time>
<name>91</name>
</trkpt>
<trkpt lat="49.415990" lon="9.161215">
<ele>345.0</ele>
<speed>47.1</speed>
<course>357.3</course>
<desc>Speed 47.1 km/h Distance 5.64 km</desc>
<time>2010-08-28T15:24:08.35</time>
<name>92</name>
</trkpt>
<trkpt lat="49.416943" lon="9.161147">
<ele>373.5</ele>
<speed>47.1</speed>
<course>341.2</course>
<desc>Speed 47.1 km/h Distance 5.74 km</desc>
<time>2010-08-28T15:24:13.34</time>
<name>93</name>
</trkpt>
<trkpt lat="49.418647" lon="9.160253">
<ele>386.0</ele>
<speed>110</speed>
<course>342.8</course>
<desc>Speed 110 km/h Distance 5.94 km</desc>
<time>2010-08-28T15:24:18.34</time>
<name>94</name>
</trkpt>
<trkpt lat="49.419227" lon="9.159977">
<ele>389.5</ele>
<speed>115</speed>
<course>341.4</course>
<desc>Speed 115 km/h Distance 6.01 km</desc>
<time>2010-08-28T15:24:20.34</time>
<name>95</name>
</trkpt>
<trkpt lat="49.419818" lon="9.159670">
<ele>391.5</ele>
<speed>117</speed>
<course>342.2</course>
<desc>Speed 117 km/h Distance 6.08 km</desc>
<time>2010-08-28T15:24:22.34</time>
<name>96</name>
</trkpt>
<trkpt lat="49.420098" lon="9.159532">
<ele>392.0</ele>
<speed>115</speed>
<course>341.7</course>
<desc>Speed 115 km/h Distance 6.11 km</desc>
<time>2010-08-28T15:24:23.34</time>
<name>97</name>
</trkpt>
<trkpt lat="49.420380" lon="9.159388">
<ele>392.0</ele>
<speed>114</speed>
<course>340.6</course>
<desc>Speed 114 km/h Distance 6.15 km</desc>
<time>2010-08-28T15:24:24.33</time>
<name>98</name>
</trkpt>
<trkpt lat="49.420887" lon="9.159113">
<ele>395.5</ele>
<speed>103</speed>
<course>340.5</course>
<desc>Speed 103 km/h Distance 6.21 km</desc>
<time>2010-08-28T15:24:26.33</time>
<name>99</name>
</trkpt>
<trkpt lat="49.421138" lon="9.158977">
<ele>396.0</ele>
<speed>105</speed>
<course>336.4</course>
<desc>Speed 105 km/h Distance 6.24 km</desc>
<time>2010-08-28T15:24:27.33</time>
<name>100</name>
</trkpt>
<trkpt lat="49.421660" lon="9.158627">
<ele>401.0</ele>
<speed>105</speed>
<course>335.8</course>
<desc>Speed 105 km/h Distance 6.30 km</desc>
<time>2010-08-28T15:24:29.33</time>
<name>101</name>
</trkpt>
<trkpt lat="49.422182" lon="9.158267">
<ele>400.5</ele>
<speed>109</speed>
<course>333.8</course>
<desc>Speed 109 km/h Distance 6.36 km</desc>
<time>2010-08-28T15:24:31.33</time>
<name>102</name>
</trkpt>
<trkpt lat="49.422435" lon="9.158075">
<ele>401.0</ele>
<speed>108</speed>
<course>333.7</course>
<desc>Speed 108 km/h Distance 6.40 km</desc>
<time>2010-08-28T15:24:32.33</time>
<name>103</name>
</trkpt>
<trkpt lat="49.422947" lon="9.157687">
<ele>402.0</ele>
<speed>101</speed>
<course>336.0</course>
<desc>Speed 101 km/h Distance 6.46 km</desc>
<time>2010-08-28T15:24:34.32</time>
<name>104</name>
</trkpt>
<trkpt lat="49.423440" lon="9.157348">
<ele>404.0</ele>
<speed>100</speed>
<course>336.8</course>
<desc>Speed 100 km/h Distance 6.52 km</desc>
<time>2010-08-28T15:24:36.33</time>
<name>105</name>
</trkpt>
<trkpt lat="49.423675" lon="9.157193">
<ele>404.0</ele>
<speed>98.5</speed>
<course>337.4</course>
<desc>Speed 98.5 km/h Distance 6.55 km</desc>
<time>2010-08-28T15:24:37.33</time>
<name>106</name>
</trkpt>
<trkpt lat="49.423907" lon="9.157045">
<ele>405.0</ele>
<speed>96.0</speed>
<course>337.0</course>
<desc>Speed 96.0 km/h Distance 6.58 km</desc>
<time>2010-08-28T15:24:38.32</time>
<name>107</name>
</trkpt>
<trkpt lat="49.424128" lon="9.156900">
<ele>406.0</ele>
<speed>93.7</speed>
<course>333.8</course>
<desc>Speed 93.7 km/h Distance 6.60 km</desc>
<time>2010-08-28T15:24:39.32</time>
<name>108</name>
</trkpt>
<trkpt lat="49.424347" lon="9.156735">
<ele>405.5</ele>
<speed>94.9</speed>
<course>334.6</course>
<desc>Speed 94.9 km/h Distance 6.63 km</desc>
<time>2010-08-28T15:24:40.33</time>
<name>109</name>
</trkpt>
<trkpt lat="49.424563" lon="9.156577">
<ele>406.0</ele>
<speed>94.9</speed>
<course>333.7</course>
<desc>Speed 94.9 km/h Distance 6.66 km</desc>
<time>2010-08-28T15:24:41.33</time>
<name>110</name>
</trkpt>
<trkpt lat="49.424785" lon="9.156408">
<ele>406.0</ele>
<speed>97.6</speed>
<course>332.2</course>
<desc>Speed 97.6 km/h Distance 6.68 km</desc>
<time>2010-08-28T15:24:42.32</time>
<name>111</name>
</trkpt>
<trkpt lat="49.425262" lon="9.156022">
<ele>404.0</ele>
<speed>103</speed>
<course>329.1</course>
<desc>Speed 103 km/h Distance 6.74 km</desc>
<time>2010-08-28T15:24:44.31</time>
<name>112</name>
</trkpt>
<trkpt lat="49.425470" lon="9.155830">
<ele>404.0</ele>
<speed>95.5</speed>
<course>329.0</course>
<desc>Speed 95.5 km/h Distance 6.77 km</desc>
<time>2010-08-28T15:24:45.31</time>
<name>113</name>
</trkpt>
<trkpt lat="49.425668" lon="9.155647">
<ele>403.5</ele>
<speed>90.9</speed>
<course>329.0</course>
<desc>Speed 90.9 km/h Distance 6.80 km</desc>
<time>2010-08-28T15:24:46.31</time>
<name>114</name>
</trkpt>
<trkpt lat="49.425862" lon="9.155468">
<ele>404.0</ele>
<speed>88.3</speed>
<course>324.8</course>
<desc>Speed 88.3 km/h Distance 6.82 km</desc>
<time>2010-08-28T15:24:47.32</time>
<name>115</name>
</trkpt>
<trkpt lat="49.426035" lon="9.155280">
<ele>404.0</ele>
<speed>84.1</speed>
<course>322.7</course>
<desc>Speed 84.1 km/h Distance 6.84 km</desc>
<time>2010-08-28T15:24:48.32</time>
<name>116</name>
</trkpt>
<trkpt lat="49.426202" lon="9.155085">
<ele>404.0</ele>
<speed>81.6</speed>
<course>321.4</course>
<desc>Speed 81.6 km/h Distance 6.87 km</desc>
<time>2010-08-28T15:24:49.32</time>
<name>117</name>
</trkpt>
<trkpt lat="49.426362" lon="9.154888">
<ele>403.5</ele>
<speed>80.4</speed>
<course>318.8</course>
<desc>Speed 80.4 km/h Distance 6.89 km</desc>
<time>2010-08-28T15:24:50.32</time>
<name>118</name>
</trkpt>
<trkpt lat="49.426515" lon="9.154682">
<ele>403.0</ele>
<speed>79.8</speed>
<course>317.9</course>
<desc>Speed 79.8 km/h Distance 6.91 km</desc>
<time>2010-08-28T15:24:51.32</time>
<name>119</name>
</trkpt>
<trkpt lat="49.426668" lon="9.154468">
<ele>402.0</ele>
<speed>80.2</speed>
<course>315.2</course>
<desc>Speed 80.2 km/h Distance 6.94 km</desc>
<time>2010-08-28T15:24:52.31</time>
<name>120</name>
</trkpt>
<trkpt lat="49.426813" lon="9.154247">
<ele>401.5</ele>
<speed>80.5</speed>
<course>307.6</course>
<desc>Speed 80.5 km/h Distance 6.96 km</desc>
<time>2010-08-28T15:24:53.31</time>
<name>121</name>
</trkpt>
<trkpt lat="49.426933" lon="9.154007">
<ele>401.5</ele>
<speed>77.1</speed>
<course>310.2</course>
<desc>Speed 77.1 km/h Distance 6.98 km</desc>
<time>2010-08-28T15:24:54.31</time>
<name>122</name>
</trkpt>
<trkpt lat="49.427062" lon="9.153773">
<ele>401.5</ele>
<speed>79.8</speed>
<course>308.5</course>
<desc>Speed 79.8 km/h Distance 7.00 km</desc>
<time>2010-08-28T15:24:55.31</time>
<name>123</name>
</trkpt>
<trkpt lat="49.427183" lon="9.153538">
<ele>401.0</ele>
<speed>78.0</speed>
<course>308.0</course>
<desc>Speed 78.0 km/h Distance 7.03 km</desc>
<time>2010-08-28T15:24:56.31</time>
<name>124</name>
</trkpt>
<trkpt lat="49.427298" lon="9.153312">
<ele>401.0</ele>
<speed>74.7</speed>
<course>304.1</course>
<desc>Speed 74.7 km/h Distance 7.05 km</desc>
<time>2010-08-28T15:24:57.30</time>
<name>125</name>
</trkpt>
<trkpt lat="49.427398" lon="9.153085">
<ele>400.5</ele>
<speed>70.9</speed>
<course>300.8</course>
<desc>Speed 70.9 km/h Distance 7.07 km</desc>
<time>2010-08-28T15:24:58.31</time>
<name>126</name>
</trkpt>
<trkpt lat="49.427485" lon="9.152862">
<ele>400.0</ele>
<speed>66.9</speed>
<course>296.6</course>
<desc>Speed 66.9 km/h Distance 7.08 km</desc>
<time>2010-08-28T15:24:59.30</time>
<name>127</name>
</trkpt>
<trkpt lat="49.427560" lon="9.152632">
<ele>398.5</ele>
<speed>66.2</speed>
<course>294.7</course>
<desc>Speed 66.2 km/h Distance 7.10 km</desc>
<time>2010-08-28T15:25:00.31</time>
<name>128</name>
</trkpt>
<trkpt lat="49.427628" lon="9.152403">
<ele>398.5</ele>
<speed>65.5</speed>
<course>295.2</course>
<desc>Speed 65.5 km/h Distance 7.12 km</desc>
<time>2010-08-28T15:25:01.31</time>
<name>129</name>
</trkpt>
<trkpt lat="49.427698" lon="9.152175">
<ele>398.5</ele>
<speed>65.4</speed>
<course>299.4</course>
<desc>Speed 65.4 km/h Distance 7.14 km</desc>
<time>2010-08-28T15:25:02.31</time>
<name>130</name>
</trkpt>
<trkpt lat="49.427778" lon="9.151957">
<ele>398.5</ele>
<speed>65.1</speed>
<course>301.2</course>
<desc>Speed 65.1 km/h Distance 7.16 km</desc>
<time>2010-08-28T15:25:03.30</time>
<name>131</name>
</trkpt>
<trkpt lat="49.427923" lon="9.151588">
<ele>398.5</ele>
<speed>58.9</speed>
<course>319.9</course>
<desc>Speed 58.9 km/h Distance 7.19 km</desc>
<time>2010-08-28T15:25:05.30</time>
<name>132</name>
</trkpt>
<trkpt lat="49.428155" lon="9.151288">
<ele>397.5</ele>
<speed>66.0</speed>
<course>324.8</course>
<desc>Speed 66.0 km/h Distance 7.22 km</desc>
<time>2010-08-28T15:25:07.30</time>
<name>133</name>
</trkpt>
<trkpt lat="49.428397" lon="9.151027">
<ele>395.5</ele>
<speed>70.6</speed>
<course>333.5</course>
<desc>Speed 70.6 km/h Distance 7.26 km</desc>
<time>2010-08-28T15:25:09.30</time>
<name>134</name>
</trkpt>
<trkpt lat="49.428747" lon="9.150758">
<ele>394.5</ele>
<speed>75.6</speed>
<course>334.5</course>
<desc>Speed 75.6 km/h Distance 7.30 km</desc>
<time>2010-08-28T15:25:11.29</time>
<name>135</name>
</trkpt>
<trkpt lat="49.429060" lon="9.150528">
<ele>394.0</ele>
<speed>71.5</speed>
<course>339.7</course>
<desc>Speed 71.5 km/h Distance 7.34 km</desc>
<time>2010-08-28T15:25:13.30</time>
<name>136</name>
</trkpt>
<trkpt lat="49.429397" lon="9.150337">
<ele>393.5</ele>
<speed>66.5</speed>
<course>335.0</course>
<desc>Speed 66.5 km/h Distance 7.38 km</desc>
<time>2010-08-28T15:25:15.31</time>
<name>137</name>
</trkpt>
<trkpt lat="49.429562" lon="9.150218">
<ele>393.0</ele>
<speed>66.9</speed>
<course>334.9</course>
<desc>Speed 66.9 km/h Distance 7.40 km</desc>
<time>2010-08-28T15:25:16.32</time>
<name>138</name>
</trkpt>
<trkpt lat="49.429722" lon="9.150103">
<ele>393.0</ele>
<speed>63.6</speed>
<course>335.7</course>
<desc>Speed 63.6 km/h Distance 7.42 km</desc>
<time>2010-08-28T15:25:17.31</time>
<name>139</name>
</trkpt>
<trkpt lat="49.429875" lon="9.149997">
<ele>394.0</ele>
<speed>60.6</speed>
<course>332.8</course>
<desc>Speed 60.6 km/h Distance 7.44 km</desc>
<time>2010-08-28T15:25:18.31</time>
<name>140</name>
</trkpt>
<trkpt lat="49.429995" lon="9.149902">
<ele>394.5</ele>
<speed>60.6</speed>
<course>337.9</course>
<desc>Speed 60.6 km/h Distance 7.45 km</desc>
<time>2010-08-28T15:25:19.31</time>
<name>141</name>
</trkpt>
<trkpt lat="49.430128" lon="9.149818">
<ele>395.0</ele>
<speed>55.4</speed>
<course>343.4</course>
<desc>Speed 55.4 km/h Distance 7.47 km</desc>
<time>2010-08-28T15:25:20.30</time>
<name>142</name>
</trkpt>
<trkpt lat="49.430252" lon="9.149762">
<ele>396.0</ele>
<speed>55.4</speed>
<course>348.2</course>
<desc>Speed 55.4 km/h Distance 7.48 km</desc>
<time>2010-08-28T15:25:21.30</time>
<name>143</name>
</trkpt>
<trkpt lat="49.430505" lon="9.149680">
<ele>395.0</ele>
<speed>55.4</speed>
<course>9.8</course>
<desc>Speed 55.4 km/h Distance 7.51 km</desc>
<time>2010-08-28T15:25:24.30</time>
<name>144</name>
</trkpt>
<trkpt lat="49.430782" lon="9.149753">
<ele>394.5</ele>
<speed>55.4</speed>
<course>20.5</course>
<desc>Speed 55.4 km/h Distance 7.54 km</desc>
<time>2010-08-28T15:25:30.30</time>
<name>145</name>
</trkpt>
<trkpt lat="49.431143" lon="9.149962">
<ele>393.5</ele>
<speed>60.3</speed>
<course>22.5</course>
<desc>Speed 60.3 km/h Distance 7.59 km</desc>
<time>2010-08-28T15:25:35.29</time>
<name>146</name>
</trkpt>
<trkpt lat="49.432535" lon="9.150848">
<ele>395.0</ele>
<speed>56.4</speed>
<course>39.0</course>
<desc>Speed 56.4 km/h Distance 7.75 km</desc>
<time>2010-08-28T15:25:41.30</time>
<name>147</name>
</trkpt>
<trkpt lat="49.432937" lon="9.151348">
<ele>393.5</ele>
<speed>60.7</speed>
<course>28.0</course>
<desc>Speed 60.7 km/h Distance 7.81 km</desc>
<time>2010-08-28T15:25:44.29</time>
<name>148</name>
</trkpt>
<trkpt lat="49.433455" lon="9.151772">
<ele>393.5</ele>
<speed>64.3</speed>
<course>29.1</course>
<desc>Speed 64.3 km/h Distance 7.88 km</desc>
<time>2010-08-28T15:25:47.29</time>
<name>149</name>
</trkpt>
<trkpt lat="49.433607" lon="9.151902">
<ele>393.5</ele>
<speed>64.7</speed>
<course>26.2</course>
<desc>Speed 64.7 km/h Distance 7.90 km</desc>
<time>2010-08-28T15:25:48.28</time>
<name>150</name>
</trkpt>
<trkpt lat="49.433765" lon="9.152022">
<ele>394.5</ele>
<speed>65.4</speed>
<course>21.7</course>
<desc>Speed 65.4 km/h Distance 7.91 km</desc>
<time>2010-08-28T15:25:49.29</time>
<name>151</name>
</trkpt>
<trkpt lat="49.434338" lon="9.152373">
<ele>396.0</ele>
<speed>69.3</speed>
<course>17.5</course>
<desc>Speed 69.3 km/h Distance 7.98 km</desc>
<time>2010-08-28T15:25:52.28</time>
<name>152</name>
</trkpt>
<trkpt lat="49.434720" lon="9.152558">
<ele>397.0</ele>
<speed>68.8</speed>
<course>17.5</course>
<desc>Speed 68.8 km/h Distance 8.03 km</desc>
<time>2010-08-28T15:25:54.29</time>
<name>153</name>
</trkpt>
<trkpt lat="49.434898" lon="9.152645">
<ele>397.5</ele>
<speed>70.3</speed>
<course>19.1</course>
<desc>Speed 70.3 km/h Distance 8.05 km</desc>
<time>2010-08-28T15:25:55.28</time>
<name>154</name>
</trkpt>
<trkpt lat="49.435248" lon="9.152832">
<ele>397.5</ele>
<speed>63.8</speed>
<course>19.2</course>
<desc>Speed 63.8 km/h Distance 8.09 km</desc>
<time>2010-08-28T15:25:57.28</time>
<name>155</name>
</trkpt>
<trkpt lat="49.435582" lon="9.153010">
<ele>399.0</ele>
<speed>64.3</speed>
<course>18.6</course>
<desc>Speed 64.3 km/h Distance 8.13 km</desc>
<time>2010-08-28T15:25:59.27</time>
<name>156</name>
</trkpt>
<trkpt lat="49.435723" lon="9.153083">
<ele>399.5</ele>
<speed>59.8</speed>
<course>35.1</course>
<desc>Speed 59.8 km/h Distance 8.15 km</desc>
<time>2010-08-28T15:26:00.27</time>
<name>157</name>
</trkpt>
<trkpt lat="49.436008" lon="9.153392">
<ele>402.5</ele>
<speed>38.8</speed>
<course>45.8</course>
<desc>Speed 38.8 km/h Distance 8.18 km</desc>
<time>2010-08-28T15:26:03.27</time>
<name>158</name>
</trkpt>
<trkpt lat="49.436580" lon="9.154295">
<ele>404.0</ele>
<speed>67.9</speed>
<course>46.2</course>
<desc>Speed 67.9 km/h Distance 8.28 km</desc>
<time>2010-08-28T15:26:08.26</time>
<name>159</name>
</trkpt>
<trkpt lat="49.436707" lon="9.154498">
<ele>403.5</ele>
<speed>69.1</speed>
<course>31.5</course>
<desc>Speed 69.1 km/h Distance 8.30 km</desc>
<time>2010-08-28T15:26:09.26</time>
<name>160</name>
</trkpt>
<trkpt lat="49.437213" lon="9.154977">
<ele>403.0</ele>
<speed>81.2</speed>
<course>34.1</course>
<desc>Speed 81.2 km/h Distance 8.36 km</desc>
<time>2010-08-28T15:26:12.26</time>
<name>161</name>
</trkpt>
<trkpt lat="49.437620" lon="9.155400">
<ele>402.5</ele>
<speed>81.2</speed>
<course>30.0</course>
<desc>Speed 81.2 km/h Distance 8.42 km</desc>
<time>2010-08-28T15:26:17.28</time>
<name>162</name>
</trkpt>
<trkpt lat="49.438140" lon="9.155862">
<ele>402.5</ele>
<speed>81.2</speed>
<course>355.8</course>
<desc>Speed 81.2 km/h Distance 8.48 km</desc>
<time>2010-08-28T15:26:21.26</time>
<name>163</name>
</trkpt>
<trkpt lat="49.438565" lon="9.155813">
<ele>402.0</ele>
<speed>81.2</speed>
<course>7.2</course>
<desc>Speed 81.2 km/h Distance 8.53 km</desc>
<time>2010-08-28T15:26:23.25</time>
<name>164</name>
</trkpt>
<trkpt lat="49.439225" lon="9.155942">
<ele>401.5</ele>
<speed>81.2</speed>
<course>8.4</course>
<desc>Speed 81.2 km/h Distance 8.61 km</desc>
<time>2010-08-28T15:26:27.25</time>
<name>165</name>
</trkpt>
<trkpt lat="49.440035" lon="9.156127">
<ele>401.0</ele>
<speed>81.2</speed>
<course>17.5</course>
<desc>Speed 81.2 km/h Distance 8.70 km</desc>
<time>2010-08-28T15:26:31.25</time>
<name>166</name>
</trkpt>
<trkpt lat="49.440533" lon="9.156368">
<ele>401.0</ele>
<speed>75.4</speed>
<course>12.7</course>
<desc>Speed 75.4 km/h Distance 8.75 km</desc>
<time>2010-08-28T15:26:34.25</time>
<name>167</name>
</trkpt>
<trkpt lat="49.440943" lon="9.156510">
<ele>401.5</ele>
<speed>75.4</speed>
<course>7.9</course>
<desc>Speed 75.4 km/h Distance 8.80 km</desc>
<time>2010-08-28T15:26:37.24</time>
<name>168</name>
</trkpt>
<trkpt lat="49.441280" lon="9.156582">
<ele>402.0</ele>
<speed>75.4</speed>
<course>34.1</course>
<desc>Speed 75.4 km/h Distance 8.84 km</desc>
<time>2010-08-28T15:26:39.24</time>
<name>169</name>
</trkpt>
<trkpt lat="49.441815" lon="9.157138">
<ele>401.5</ele>
<speed>61.5</speed>
<course>54.3</course>
<desc>Speed 61.5 km/h Distance 8.91 km</desc>
<time>2010-08-28T15:26:42.23</time>
<name>170</name>
</trkpt>
<trkpt lat="49.442443" lon="9.158483">
<ele>402.0</ele>
<speed>56.6</speed>
<course>43.8</course>
<desc>Speed 56.6 km/h Distance 9.03 km</desc>
<time>2010-08-28T15:26:47.23</time>
<name>171</name>
</trkpt>
<trkpt lat="49.442653" lon="9.158793">
<ele>402.0</ele>
<speed>56.1</speed>
<course>60.0</course>
<desc>Speed 56.1 km/h Distance 9.06 km</desc>
<time>2010-08-28T15:26:49.24</time>
<name>172</name>
</trkpt>
<trkpt lat="49.442817" lon="9.159228">
<ele>401.5</ele>
<speed>57.3</speed>
<course>69.8</course>
<desc>Speed 57.3 km/h Distance 9.10 km</desc>
<time>2010-08-28T15:26:51.24</time>
<name>173</name>
</trkpt>
<trkpt lat="49.442872" lon="9.159458">
<ele>401.5</ele>
<speed>60.7</speed>
<course>72.9</course>
<desc>Speed 60.7 km/h Distance 9.12 km</desc>
<time>2010-08-28T15:26:52.23</time>
<name>174</name>
</trkpt>
<trkpt lat="49.442920" lon="9.159700">
<ele>401.5</ele>
<speed>61.8</speed>
<course>83.8</course>
<desc>Speed 61.8 km/h Distance 9.14 km</desc>
<time>2010-08-28T15:26:53.23</time>
<name>175</name>
</trkpt>
<trkpt lat="49.442938" lon="9.159960">
<ele>401.5</ele>
<speed>65.5</speed>
<course>83.6</course>
<desc>Speed 65.5 km/h Distance 9.15 km</desc>
<time>2010-08-28T15:26:54.23</time>
<name>176</name>
</trkpt>
<trkpt lat="49.442957" lon="9.160213">
<ele>401.5</ele>
<speed>63.6</speed>
<course>90.6</course>
<desc>Speed 63.6 km/h Distance 9.17 km</desc>
<time>2010-08-28T15:26:55.22</time>
<name>177</name>
</trkpt>
<trkpt lat="49.442955" lon="9.160453">
<ele>401.5</ele>
<speed>60.7</speed>
<course>97.7</course>
<desc>Speed 60.7 km/h Distance 9.19 km</desc>
<time>2010-08-28T15:26:56.23</time>
<name>178</name>
</trkpt>
<trkpt lat="49.442935" lon="9.160682">
<ele>401.5</ele>
<speed>58.5</speed>
<course>98.7</course>
<desc>Speed 58.5 km/h Distance 9.21 km</desc>
<time>2010-08-28T15:26:57.22</time>
<name>179</name>
</trkpt>
<trkpt lat="49.442913" lon="9.160898">
<ele>401.5</ele>
<speed>56.1</speed>
<course>105.7</course>
<desc>Speed 56.1 km/h Distance 9.22 km</desc>
<time>2010-08-28T15:26:58.23</time>
<name>180</name>
</trkpt>
<trkpt lat="49.442873" lon="9.161117">
<ele>401.5</ele>
<speed>57.0</speed>
<course>104.9</course>
<desc>Speed 57.0 km/h Distance 9.24 km</desc>
<time>2010-08-28T15:26:59.23</time>
<name>181</name>
</trkpt>
<trkpt lat="49.442837" lon="9.161328">
<ele>400.5</ele>
<speed>54.6</speed>
<course>110.1</course>
<desc>Speed 54.6 km/h Distance 9.26 km</desc>
<time>2010-08-28T15:27:00.23</time>
<name>182</name>
</trkpt>
<trkpt lat="49.442785" lon="9.161545">
<ele>399.5</ele>
<speed>57.7</speed>
<course>115.1</course>
<desc>Speed 57.7 km/h Distance 9.27 km</desc>
<time>2010-08-28T15:27:01.22</time>
<name>183</name>
</trkpt>
<trkpt lat="49.442722" lon="9.161753">
<ele>399.5</ele>
<speed>58.6</speed>
<course>119.4</course>
<desc>Speed 58.6 km/h Distance 9.29 km</desc>
<time>2010-08-28T15:27:02.23</time>
<name>184</name>
</trkpt>
<trkpt lat="49.442647" lon="9.161958">
<ele>399.0</ele>
<speed>60.3</speed>
<course>126.8</course>
<desc>Speed 60.3 km/h Distance 9.31 km</desc>
<time>2010-08-28T15:27:03.22</time>
<name>185</name>
</trkpt>
<trkpt lat="49.442552" lon="9.162153">
<ele>399.0</ele>
<speed>63.1</speed>
<course>126.5</course>
<desc>Speed 63.1 km/h Distance 9.32 km</desc>
<time>2010-08-28T15:27:04.23</time>
<name>186</name>
</trkpt>
<trkpt lat="49.442463" lon="9.162337">
<ele>399.0</ele>
<speed>59.9</speed>
<course>134.8</course>
<desc>Speed 59.9 km/h Distance 9.34 km</desc>
<time>2010-08-28T15:27:05.22</time>
<name>187</name>
</trkpt>
<trkpt lat="49.442357" lon="9.162502">
<ele>398.5</ele>
<speed>62.8</speed>
<course>140.7</course>
<desc>Speed 62.8 km/h Distance 9.36 km</desc>
<time>2010-08-28T15:27:06.23</time>
<name>188</name>
</trkpt>
<trkpt lat="49.442158" lon="9.162752">
<ele>398.5</ele>
<speed>52.3</speed>
<course>148.6</course>
<desc>Speed 52.3 km/h Distance 9.39 km</desc>
<time>2010-08-28T15:27:08.22</time>
<name>189</name>
</trkpt>
<trkpt lat="49.442050" lon="9.162853">
<ele>399.0</ele>
<speed>51.9</speed>
<course>157.2</course>
<desc>Speed 51.9 km/h Distance 9.40 km</desc>
<time>2010-08-28T15:27:09.22</time>
<name>190</name>
</trkpt>
<trkpt lat="49.441942" lon="9.162923">
<ele>399.0</ele>
<speed>48.9</speed>
<course>159.0</course>
<desc>Speed 48.9 km/h Distance 9.41 km</desc>
<time>2010-08-28T15:27:10.22</time>
<name>191</name>
</trkpt>
<trkpt lat="49.441823" lon="9.162993">
<ele>398.5</ele>
<speed>54.1</speed>
<course>182.2</course>
<desc>Speed 54.1 km/h Distance 9.43 km</desc>
<time>2010-08-28T15:27:11.22</time>
<name>192</name>
</trkpt>
<trkpt lat="49.441537" lon="9.162977">
<ele>397.5</ele>
<speed>55.7</speed>
<course>176.6</course>
<desc>Speed 55.7 km/h Distance 9.46 km</desc>
<time>2010-08-28T15:27:15.22</time>
<name>193</name>
</trkpt>
<trkpt lat="49.441390" lon="9.162990">
<ele>397.5</ele>
<speed>55.7</speed>
<course>174.9</course>
<desc>Speed 55.7 km/h Distance 9.48 km</desc>
<time>2010-08-28T15:27:16.21</time>
<name>194</name>
</trkpt>
<trkpt lat="49.441257" lon="9.163008">
<ele>397.0</ele>
<speed>50.7</speed>
<course>179.4</course>
<desc>Speed 50.7 km/h Distance 9.49 km</desc>
<time>2010-08-28T15:27:17.22</time>
<name>195</name>
</trkpt>
<trkpt lat="49.441132" lon="9.163010">
<ele>396.5</ele>
<speed>50.7</speed>
<course>182.7</course>
<desc>Speed 50.7 km/h Distance 9.50 km</desc>
<time>2010-08-28T15:27:18.21</time>
<name>196</name>
</trkpt>
<trkpt lat="49.440995" lon="9.163000">
<ele>396.0</ele>
<speed>51.0</speed>
<course>175.9</course>
<desc>Speed 51.0 km/h Distance 9.52 km</desc>
<time>2010-08-28T15:27:19.22</time>
<name>197</name>
</trkpt>
<trkpt lat="49.440695" lon="9.163033">
<ele>395.0</ele>
<speed>56.5</speed>
<course>165.2</course>
<desc>Speed 56.5 km/h Distance 9.55 km</desc>
<time>2010-08-28T15:27:21.21</time>
<name>198</name>
</trkpt>
<trkpt lat="49.440445" lon="9.163135">
<ele>394.5</ele>
<speed>52.5</speed>
<course>151.5</course>
<desc>Speed 52.5 km/h Distance 9.58 km</desc>
<time>2010-08-28T15:27:23.20</time>
<name>199</name>
</trkpt>
<trkpt lat="49.440202" lon="9.163338">
<ele>394.5</ele>
<speed>59.7</speed>
<course>131.6</course>
<desc>Speed 59.7 km/h Distance 9.61 km</desc>
<time>2010-08-28T15:27:25.20</time>
<name>200</name>
</trkpt>
<trkpt lat="49.440015" lon="9.163662">
<ele>394.0</ele>
<speed>55.8</speed>
<course>138.4</course>
<desc>Speed 55.8 km/h Distance 9.64 km</desc>
<time>2010-08-28T15:27:27.21</time>
<name>201</name>
</trkpt>
<trkpt lat="49.439902" lon="9.163817">
<ele>393.5</ele>
<speed>54.6</speed>
<course>135.6</course>
<desc>Speed 54.6 km/h Distance 9.66 km</desc>
<time>2010-08-28T15:27:28.22</time>
<name>202</name>
</trkpt>
<trkpt lat="49.439797" lon="9.163975">
<ele>393.5</ele>
<speed>53.0</speed>
<course>129.5</course>
<desc>Speed 53.0 km/h Distance 9.68 km</desc>
<time>2010-08-28T15:27:29.20</time>
<name>203</name>
</trkpt>
<trkpt lat="49.439708" lon="9.164140">
<ele>393.5</ele>
<speed>48.5</speed>
<course>126.7</course>
<desc>Speed 48.5 km/h Distance 9.69 km</desc>
<time>2010-08-28T15:27:30.20</time>
<name>204</name>
</trkpt>
<trkpt lat="49.439630" lon="9.164302">
<ele>393.5</ele>
<speed>48.8</speed>
<course>120.9</course>
<desc>Speed 48.8 km/h Distance 9.71 km</desc>
<time>2010-08-28T15:27:31.20</time>
<name>205</name>
</trkpt>
<trkpt lat="49.439568" lon="9.164460">
<ele>393.0</ele>
<speed>47.4</speed>
<course>104.7</course>
<desc>Speed 47.4 km/h Distance 9.72 km</desc>
<time>2010-08-28T15:27:32.20</time>
<name>206</name>
</trkpt>
<trkpt lat="49.439540" lon="9.164627">
<ele>392.5</ele>
<speed>46.5</speed>
<course>87.5</course>
<desc>Speed 46.5 km/h Distance 9.73 km</desc>
<time>2010-08-28T15:27:33.20</time>
<name>207</name>
</trkpt>
<trkpt lat="49.439545" lon="9.164802">
<ele>391.5</ele>
<speed>47.3</speed>
<course>85.5</course>
<desc>Speed 47.3 km/h Distance 9.75 km</desc>
<time>2010-08-28T15:27:34.21</time>
<name>208</name>
</trkpt>
<trkpt lat="49.439555" lon="9.164997">
<ele>392.0</ele>
<speed>52.5</speed>
<course>75.7</course>
<desc>Speed 52.5 km/h Distance 9.76 km</desc>
<time>2010-08-28T15:27:35.20</time>
<name>209</name>
</trkpt>
<trkpt lat="49.439610" lon="9.165328">
<ele>389.5</ele>
<speed>47.2</speed>
<course>67.8</course>
<desc>Speed 47.2 km/h Distance 9.78 km</desc>
<time>2010-08-28T15:27:37.20</time>
<name>210</name>
</trkpt>
<trkpt lat="49.439655" lon="9.165498">
<ele>389.5</ele>
<speed>48.5</speed>
<course>63.9</course>
<desc>Speed 48.5 km/h Distance 9.80 km</desc>
<time>2010-08-28T15:27:38.20</time>
<name>211</name>
</trkpt>
<trkpt lat="49.439705" lon="9.165655">
<ele>389.0</ele>
<speed>47.6</speed>
<course>66.5</course>
<desc>Speed 47.6 km/h Distance 9.81 km</desc>
<time>2010-08-28T15:27:39.19</time>
<name>212</name>
</trkpt>
<trkpt lat="49.439748" lon="9.165808">
<ele>388.5</ele>
<speed>45.5</speed>
<course>70.0</course>
<desc>Speed 45.5 km/h Distance 9.82 km</desc>
<time>2010-08-28T15:27:40.19</time>
<name>213</name>
</trkpt>
<trkpt lat="49.439785" lon="9.165963">
<ele>388.0</ele>
<speed>44.1</speed>
<course>70.2</course>
<desc>Speed 44.1 km/h Distance 9.83 km</desc>
<time>2010-08-28T15:27:41.19</time>
<name>214</name>
</trkpt>
<trkpt lat="49.439822" lon="9.166120">
<ele>387.5</ele>
<speed>44.4</speed>
<course>72.9</course>
<desc>Speed 44.4 km/h Distance 9.85 km</desc>
<time>2010-08-28T15:27:42.19</time>
<name>215</name>
</trkpt>
<trkpt lat="49.439853" lon="9.166278">
<ele>387.5</ele>
<speed>44.4</speed>
<course>74.1</course>
<desc>Speed 44.4 km/h Distance 9.86 km</desc>
<time>2010-08-28T15:27:43.20</time>
<name>216</name>
</trkpt>
<trkpt lat="49.439883" lon="9.166440">
<ele>387.0</ele>
<speed>45.0</speed>
<course>77.1</course>
<desc>Speed 45.0 km/h Distance 9.87 km</desc>
<time>2010-08-28T15:27:44.19</time>
<name>217</name>
</trkpt>
<trkpt lat="49.439908" lon="9.166608">
<ele>387.0</ele>
<speed>45.3</speed>
<course>77.5</course>
<desc>Speed 45.3 km/h Distance 9.88 km</desc>
<time>2010-08-28T15:27:45.18</time>
<name>218</name>
</trkpt>
<trkpt lat="49.439932" lon="9.166770">
<ele>387.0</ele>
<speed>43.3</speed>
<course>78.7</course>
<desc>Speed 43.3 km/h Distance 9.90 km</desc>
<time>2010-08-28T15:27:46.19</time>
<name>219</name>
</trkpt>
<trkpt lat="49.439952" lon="9.166923">
<ele>387.0</ele>
<speed>41.2</speed>
<course>78.5</course>
<desc>Speed 41.2 km/h Distance 9.91 km</desc>
<time>2010-08-28T15:27:47.19</time>
<name>220</name>
</trkpt>
<trkpt lat="49.439972" lon="9.167075">
<ele>387.0</ele>
<speed>40.5</speed>
<course>78.7</course>
<desc>Speed 40.5 km/h Distance 9.92 km</desc>
<time>2010-08-28T15:27:48.19</time>
<name>221</name>
</trkpt>
<trkpt lat="49.439992" lon="9.167228">
<ele>387.0</ele>
<speed>41.3</speed>
<course>78.0</course>
<desc>Speed 41.3 km/h Distance 9.93 km</desc>
<time>2010-08-28T15:27:49.19</time>
<name>222</name>
</trkpt>
<trkpt lat="49.440013" lon="9.167385">
<ele>387.0</ele>
<speed>42.2</speed>
<course>77.1</course>
<desc>Speed 42.2 km/h Distance 9.94 km</desc>
<time>2010-08-28T15:27:50.18</time>
<name>223</name>
</trkpt>
<trkpt lat="49.440037" lon="9.167542">
<ele>387.0</ele>
<speed>42.1</speed>
<course>78.2</course>
<desc>Speed 42.1 km/h Distance 9.95 km</desc>
<time>2010-08-28T15:27:51.18</time>
<name>224</name>
</trkpt>
<trkpt lat="49.440058" lon="9.167702">
<ele>387.0</ele>
<speed>42.5</speed>
<course>77.1</course>
<desc>Speed 42.5 km/h Distance 9.96 km</desc>
<time>2010-08-28T15:27:52.19</time>
<name>225</name>
</trkpt>
<trkpt lat="49.440082" lon="9.167858">
<ele>387.0</ele>
<speed>42.0</speed>
<course>75.9</course>
<desc>Speed 42.0 km/h Distance 9.98 km</desc>
<time>2010-08-28T15:27:53.19</time>
<name>226</name>
</trkpt>
<trkpt lat="49.440107" lon="9.168012">
<ele>387.0</ele>
<speed>41.4</speed>
<course>79.8</course>
<desc>Speed 41.4 km/h Distance 9.99 km</desc>
<time>2010-08-28T15:27:54.19</time>
<name>227</name>
</trkpt>
<trkpt lat="49.440125" lon="9.168168">
<ele>387.0</ele>
<speed>41.3</speed>
<course>86.3</course>
<desc>Speed 41.3 km/h Distance 10.00 km</desc>
<time>2010-08-28T15:27:55.19</time>
<name>228</name>
</trkpt>
<trkpt lat="49.440132" lon="9.168328">
<ele>387.5</ele>
<speed>41.8</speed>
<course>97.2</course>
<desc>Speed 41.8 km/h Distance 10.01 km</desc>
<time>2010-08-28T15:27:56.19</time>
<name>229</name>
</trkpt>
<trkpt lat="49.440118" lon="9.168492">
<ele>387.5</ele>
<speed>43.0</speed>
<course>102.4</course>
<desc>Speed 43.0 km/h Distance 10.02 km</desc>
<time>2010-08-28T15:27:57.18</time>
<name>230</name>
</trkpt>
<trkpt lat="49.440095" lon="9.168655">
<ele>388.0</ele>
<speed>44.1</speed>
<course>104.8</course>
<desc>Speed 44.1 km/h Distance 10.03 km</desc>
<time>2010-08-28T15:27:58.18</time>
<name>231</name>
</trkpt>
<trkpt lat="49.440068" lon="9.168810">
<ele>388.5</ele>
<speed>41.7</speed>
<course>105.5</course>
<desc>Speed 41.7 km/h Distance 10.05 km</desc>
<time>2010-08-28T15:27:59.18</time>
<name>232</name>
</trkpt>
<trkpt lat="49.440042" lon="9.168958">
<ele>389.0</ele>
<speed>40.1</speed>
<course>105.4</course>
<desc>Speed 40.1 km/h Distance 10.06 km</desc>
<time>2010-08-28T15:28:00.18</time>
<name>233</name>
</trkpt>
<trkpt lat="49.440017" lon="9.169098">
<ele>388.5</ele>
<speed>38.0</speed>
<course>98.9</course>
<desc>Speed 38.0 km/h Distance 10.07 km</desc>
<time>2010-08-28T15:28:01.19</time>
<name>234</name>
</trkpt>
<trkpt lat="49.440002" lon="9.169245">
<ele>389.0</ele>
<speed>40.3</speed>
<course>88.0</course>
<desc>Speed 40.3 km/h Distance 10.08 km</desc>
<time>2010-08-28T15:28:02.19</time>
<name>235</name>
</trkpt>
<trkpt lat="49.440005" lon="9.169393">
<ele>389.0</ele>
<speed>38.7</speed>
<course>70.3</course>
<desc>Speed 38.7 km/h Distance 10.09 km</desc>
<time>2010-08-28T15:28:03.18</time>
<name>236</name>
</trkpt>
<trkpt lat="49.440098" lon="9.169793">
<ele>389.5</ele>
<speed>39.9</speed>
<course>61.6</course>
<desc>Speed 39.9 km/h Distance 10.12 km</desc>
<time>2010-08-28T15:28:06.18</time>
<name>237</name>
</trkpt>
<trkpt lat="49.440142" lon="9.169917">
<ele>389.5</ele>
<speed>35.1</speed>
<course>89.0</course>
<desc>Speed 35.1 km/h Distance 10.13 km</desc>
<time>2010-08-28T15:28:07.19</time>
<name>238</name>
</trkpt>
<trkpt lat="49.440143" lon="9.170057">
<ele>390.0</ele>
<speed>34.4</speed>
<course>83.7</course>
<desc>Speed 34.4 km/h Distance 10.14 km</desc>
<time>2010-08-28T15:28:08.18</time>
<name>239</name>
</trkpt>
<trkpt lat="49.440162" lon="9.170313">
<ele>390.0</ele>
<speed>31.2</speed>
<course>84.9</course>
<desc>Speed 31.2 km/h Distance 10.16 km</desc>
<time>2010-08-28T15:28:10.18</time>
<name>240</name>
</trkpt>
<trkpt lat="49.440177" lon="9.170573">
<ele>390.0</ele>
<speed>33.7</speed>
<course>95.3</course>
<desc>Speed 33.7 km/h Distance 10.18 km</desc>
<time>2010-08-28T15:28:12.18</time>
<name>241</name>
</trkpt>
<trkpt lat="49.440162" lon="9.170820">
<ele>391.0</ele>
<speed>32.1</speed>
<course>98.2</course>
<desc>Speed 32.1 km/h Distance 10.20 km</desc>
<time>2010-08-28T15:28:14.17</time>
<name>242</name>
</trkpt>
<trkpt lat="49.440143" lon="9.171017">
<ele>390.5</ele>
<speed>23.9</speed>
<course>92.0</course>
<desc>Speed 23.9 km/h Distance 10.21 km</desc>
<time>2010-08-28T15:28:16.16</time>
<name>243</name>
</trkpt>
<trkpt lat="49.440142" lon="9.171090">
<ele>389.0</ele>
<speed>19.9</speed>
<course>106.5</course>
<desc>Speed 19.9 km/h Distance 10.22 km</desc>
<time>2010-08-28T15:28:17.17</time>
<name>244</name>
</trkpt>
<trkpt lat="49.440125" lon="9.171177">
<ele>389.5</ele>
<speed>23.8</speed>
<course>101.9</course>
<desc>Speed 23.8 km/h Distance 10.22 km</desc>
<time>2010-08-28T15:28:18.17</time>
<name>245</name>
</trkpt>
<trkpt lat="49.440113" lon="9.171262">
<ele>389.5</ele>
<speed>22.9</speed>
<course>67.9</course>
<desc>Speed 22.9 km/h Distance 10.23 km</desc>
<time>2010-08-28T15:28:19.18</time>
<name>246</name>
</trkpt>
<trkpt lat="49.440152" lon="9.171407">
<ele>390.0</ele>
<speed>21.1</speed>
<course>27.7</course>
<desc>Speed 21.1 km/h Distance 10.24 km</desc>
<time>2010-08-28T15:28:21.17</time>
<name>247</name>
</trkpt>
<trkpt lat="49.440247" lon="9.171483">
<ele>390.5</ele>
<speed>25.5</speed>
<course>11.9</course>
<desc>Speed 25.5 km/h Distance 10.25 km</desc>
<time>2010-08-28T15:28:23.17</time>
<name>248</name>
</trkpt>
<trkpt lat="49.440303" lon="9.171502">
<ele>390.0</ele>
<speed>25.5</speed>
<course>357.5</course>
<desc>Speed 25.5 km/h Distance 10.26 km</desc>
<time>2010-08-28T15:28:24.17</time>
<name>249</name>
</trkpt>
<trkpt lat="49.440625" lon="9.171480">
<ele>389.0</ele>
<speed>40.3</speed>
<course>20.3</course>
<desc>Speed 40.3 km/h Distance 10.29 km</desc>
<time>2010-08-28T15:28:27.17</time>
<name>250</name>
</trkpt>
<trkpt lat="49.440818" lon="9.171590">
<ele>390.0</ele>
<speed>50.3</speed>
<course>31.5</course>
<desc>Speed 50.3 km/h Distance 10.32 km</desc>
<time>2010-08-28T15:28:29.17</time>
<name>251</name>
</trkpt>
<trkpt lat="49.440937" lon="9.171702">
<ele>392.0</ele>
<speed>50.8</speed>
<course>39.4</course>
<desc>Speed 50.8 km/h Distance 10.33 km</desc>
<time>2010-08-28T15:28:30.16</time>
<name>252</name>
</trkpt>
<trkpt lat="49.441165" lon="9.171990">
<ele>391.5</ele>
<speed>52.7</speed>
<course>38.0</course>
<desc>Speed 52.7 km/h Distance 10.36 km</desc>
<time>2010-08-28T15:28:32.16</time>
<name>253</name>
</trkpt>
<trkpt lat="49.441257" lon="9.172100">
<ele>388.0</ele>
<speed>51.7</speed>
<course>48.8</course>
<desc>Speed 51.7 km/h Distance 10.38 km</desc>
<time>2010-08-28T15:28:33.16</time>
<name>254</name>
</trkpt>
<trkpt lat="49.441345" lon="9.172255">
<ele>387.0</ele>
<speed>52.5</speed>
<course>53.8</course>
<desc>Speed 52.5 km/h Distance 10.39 km</desc>
<time>2010-08-28T15:28:34.16</time>
<name>255</name>
</trkpt>
<trkpt lat="49.441430" lon="9.172433">
<ele>389.0</ele>
<speed>55.3</speed>
<course>64.5</course>
<desc>Speed 55.3 km/h Distance 10.41 km</desc>
<time>2010-08-28T15:28:35.16</time>
<name>256</name>
</trkpt>
<trkpt lat="49.441490" lon="9.172627">
<ele>388.5</ele>
<speed>53.3</speed>
<course>70.9</course>
<desc>Speed 53.3 km/h Distance 10.42 km</desc>
<time>2010-08-28T15:28:36.16</time>
<name>257</name>
</trkpt>
<trkpt lat="49.441538" lon="9.172842">
<ele>388.5</ele>
<speed>56.8</speed>
<course>75.5</course>
<desc>Speed 56.8 km/h Distance 10.44 km</desc>
<time>2010-08-28T15:28:37.16</time>
<name>258</name>
</trkpt>
<trkpt lat="49.441622" lon="9.173338">
<ele>389.5</ele>
<speed>66.0</speed>
<course>77.5</course>
<desc>Speed 66.0 km/h Distance 10.48 km</desc>
<time>2010-08-28T15:28:39.16</time>
<name>259</name>
</trkpt>
<trkpt lat="49.441658" lon="9.173593">
<ele>391.0</ele>
<speed>68.5</speed>
<course>80.8</course>
<desc>Speed 68.5 km/h Distance 10.50 km</desc>
<time>2010-08-28T15:28:40.15</time>
<name>260</name>
</trkpt>
<trkpt lat="49.441685" lon="9.173847">
<ele>392.5</ele>
<speed>67.2</speed>
<course>77.3</course>
<desc>Speed 67.2 km/h Distance 10.52 km</desc>
<time>2010-08-28T15:28:41.15</time>
<name>261</name>
</trkpt>
<trkpt lat="49.441722" lon="9.174097">
<ele>393.5</ele>
<speed>67.4</speed>
<course>69.0</course>
<desc>Speed 67.4 km/h Distance 10.53 km</desc>
<time>2010-08-28T15:28:42.16</time>
<name>262</name>
</trkpt>
<trkpt lat="49.441845" lon="9.174592">
<ele>393.5</ele>
<speed>67.4</speed>
<course>78.0</course>
<desc>Speed 67.4 km/h Distance 10.57 km</desc>
<time>2010-08-28T15:28:44.15</time>
<name>263</name>
</trkpt>
<trkpt lat="49.441877" lon="9.174820">
<ele>394.5</ele>
<speed>67.4</speed>
<course>68.9</course>
<desc>Speed 67.4 km/h Distance 10.59 km</desc>
<time>2010-08-28T15:28:45.16</time>
<name>264</name>
</trkpt>
<trkpt lat="49.442492" lon="9.177275">
<ele>410.5</ele>
<speed>114</speed>
<course>68.7</course>
<desc>Speed 114 km/h Distance 10.78 km</desc>
<time>2010-08-28T15:28:51.14</time>
<name>265</name>
</trkpt>
<trkpt lat="49.442697" lon="9.178085">
<ele>410.0</ele>
<speed>113</speed>
<course>63.8</course>
<desc>Speed 113 km/h Distance 10.84 km</desc>
<time>2010-08-28T15:28:53.14</time>
<name>266</name>
</trkpt>
<trkpt lat="49.442928" lon="9.178810">
<ele>410.5</ele>
<speed>116</speed>
<course>59.7</course>
<desc>Speed 116 km/h Distance 10.90 km</desc>
<time>2010-08-28T15:28:55.15</time>
<name>267</name>
</trkpt>
<trkpt lat="49.443245" lon="9.179643">
<ele>411.5</ele>
<speed>126</speed>
<course>58.2</course>
<desc>Speed 126 km/h Distance 10.97 km</desc>
<time>2010-08-28T15:28:57.14</time>
<name>268</name>
</trkpt>
<trkpt lat="49.443413" lon="9.180062">
<ele>413.0</ele>
<speed>127</speed>
<course>53.5</course>
<desc>Speed 127 km/h Distance 11.01 km</desc>
<time>2010-08-28T15:28:58.14</time>
<name>269</name>
</trkpt>
<trkpt lat="49.443603" lon="9.180457">
<ele>413.5</ele>
<speed>127</speed>
<course>53.1</course>
<desc>Speed 127 km/h Distance 11.04 km</desc>
<time>2010-08-28T15:28:59.14</time>
<name>270</name>
</trkpt>
<trkpt lat="49.443802" lon="9.180863">
<ele>413.5</ele>
<speed>131</speed>
<course>56.6</course>
<desc>Speed 131 km/h Distance 11.08 km</desc>
<time>2010-08-28T15:29:00.14</time>
<name>271</name>
</trkpt>
<trkpt lat="49.444525" lon="9.182553">
<ele>423.0</ele>
<speed>127</speed>
<course>69.0</course>
<desc>Speed 127 km/h Distance 11.23 km</desc>
<time>2010-08-28T15:29:05.14</time>
<name>272</name>
</trkpt>
<trkpt lat="49.444922" lon="9.184140">
<ele>421.0</ele>
<speed>98.6</speed>
<course>73.0</course>
<desc>Speed 98.6 km/h Distance 11.35 km</desc>
<time>2010-08-28T15:29:09.13</time>
<name>273</name>
</trkpt>
<trkpt lat="49.445213" lon="9.185603">
<ele>417.0</ele>
<speed>103</speed>
<course>67.5</course>
<desc>Speed 103 km/h Distance 11.46 km</desc>
<time>2010-08-28T15:29:14.13</time>
<name>274</name>
</trkpt>
<trkpt lat="49.445412" lon="9.186338">
<ele>413.0</ele>
<speed>103</speed>
<course>49.2</course>
<desc>Speed 103 km/h Distance 11.52 km</desc>
<time>2010-08-28T15:29:16.12</time>
<name>275</name>
</trkpt>
<trkpt lat="49.445778" lon="9.186992">
<ele>419.0</ele>
<speed>101</speed>
<course>53.8</course>
<desc>Speed 101 km/h Distance 11.58 km</desc>
<time>2010-08-28T15:29:18.13</time>
<name>276</name>
</trkpt>
<trkpt lat="49.446772" lon="9.189077">
<ele>431.0</ele>
<speed>108</speed>
<course>52.4</course>
<desc>Speed 108 km/h Distance 11.77 km</desc>
<time>2010-08-28T15:29:23.12</time>
<name>277</name>
</trkpt>
<trkpt lat="49.447092" lon="9.189717">
<ele>432.0</ele>
<speed>94.5</speed>
<course>59.2</course>
<desc>Speed 94.5 km/h Distance 11.82 km</desc>
<time>2010-08-28T15:29:25.11</time>
<name>278</name>
</trkpt>
<trkpt lat="49.447523" lon="9.190832">
<ele>433.0</ele>
<speed>106</speed>
<course>63.5</course>
<desc>Speed 106 km/h Distance 11.92 km</desc>
<time>2010-08-28T15:29:28.12</time>
<name>279</name>
</trkpt>
<trkpt lat="49.447783" lon="9.191633">
<ele>433.0</ele>
<speed>115</speed>
<course>64.7</course>
<desc>Speed 115 km/h Distance 11.98 km</desc>
<time>2010-08-28T15:29:30.11</time>
<name>280</name>
</trkpt>
<trkpt lat="49.447902" lon="9.192018">
<ele>432.0</ele>
<speed>110</speed>
<course>60.1</course>
<desc>Speed 110 km/h Distance 12.01 km</desc>
<time>2010-08-28T15:29:31.12</time>
<name>281</name>
</trkpt>
<trkpt lat="49.448472" lon="9.193542">
<ele>433.5</ele>
<speed>89.4</speed>
<course>61.9</course>
<desc>Speed 89.4 km/h Distance 12.14 km</desc>
<time>2010-08-28T15:29:36.12</time>
<name>282</name>
</trkpt>
<trkpt lat="49.448812" lon="9.194520">
<ele>433.5</ele>
<speed>89.4</speed>
<course>48.7</course>
<desc>Speed 89.4 km/h Distance 12.22 km</desc>
<time>2010-08-28T15:29:42.11</time>
<name>283</name>
</trkpt>
<trkpt lat="49.449533" lon="9.195783">
<ele>430.5</ele>
<speed>89.4</speed>
<course>32.9</course>
<desc>Speed 89.4 km/h Distance 12.34 km</desc>
<time>2010-08-28T15:29:50.11</time>
<name>284</name>
</trkpt>
<trkpt lat="49.451533" lon="9.197772">
<ele>428.0</ele>
<speed>106</speed>
<course>41.4</course>
<desc>Speed 106 km/h Distance 12.61 km</desc>
<time>2010-08-28T15:29:56.09</time>
<name>285</name>
</trkpt>
<trkpt lat="49.451882" lon="9.198243">
<ele>428.5</ele>
<speed>106</speed>
<course>37.2</course>
<desc>Speed 106 km/h Distance 12.66 km</desc>
<time>2010-08-28T15:29:58.10</time>
<name>286</name>
</trkpt>
<trkpt lat="49.452430" lon="9.198883">
<ele>428.0</ele>
<speed>106</speed>
<course>43.6</course>
<desc>Speed 106 km/h Distance 12.74 km</desc>
<time>2010-08-28T15:30:01.09</time>
<name>287</name>
</trkpt>
<trkpt lat="49.452780" lon="9.199397">
<ele>427.5</ele>
<speed>104</speed>
<course>51.6</course>
<desc>Speed 104 km/h Distance 12.79 km</desc>
<time>2010-08-28T15:30:03.09</time>
<name>288</name>
</trkpt>
<trkpt lat="49.453323" lon="9.200452">
<ele>427.5</ele>
<speed>106</speed>
<course>37.6</course>
<desc>Speed 106 km/h Distance 12.89 km</desc>
<time>2010-08-28T15:30:06.09</time>
<name>289</name>
</trkpt>
<trkpt lat="49.453723" lon="9.200925">
<ele>429.0</ele>
<speed>106</speed>
<course>33.3</course>
<desc>Speed 106 km/h Distance 12.94 km</desc>
<time>2010-08-28T15:30:08.09</time>
<name>290</name>
</trkpt>
<trkpt lat="49.454145" lon="9.201352">
<ele>430.5</ele>
<speed>106</speed>
<course>67.7</course>
<desc>Speed 106 km/h Distance 13.00 km</desc>
<time>2010-08-28T15:30:10.09</time>
<name>291</name>
</trkpt>
<trkpt lat="49.454450" lon="9.202497">
<ele>430.5</ele>
<speed>101</speed>
<course>67.2</course>
<desc>Speed 101 km/h Distance 13.09 km</desc>
<time>2010-08-28T15:30:13.09</time>
<name>292</name>
</trkpt>
<trkpt lat="49.454635" lon="9.203175">
<ele>432.0</ele>
<speed>94.5</speed>
<course>31.8</course>
<desc>Speed 94.5 km/h Distance 13.14 km</desc>
<time>2010-08-28T15:30:14.89</time>
<name>293</name>
</trkpt>
<trkpt lat="49.456272" lon="9.204737">
<ele>427.0</ele>
<speed>88.1</speed>
<course>34.5</course>
<desc>Speed 88.1 km/h Distance 13.36 km</desc>
<time>2010-08-28T15:30:20.09</time>
<name>294</name>
</trkpt>
<trkpt lat="49.456648" lon="9.205135">
<ele>427.0</ele>
<speed>85.2</speed>
<course>27.8</course>
<desc>Speed 85.2 km/h Distance 13.41 km</desc>
<time>2010-08-28T15:30:22.08</time>
<name>295</name>
</trkpt>
<trkpt lat="49.457173" lon="9.205562">
<ele>425.5</ele>
<speed>71.4</speed>
<course>20.2</course>
<desc>Speed 71.4 km/h Distance 13.47 km</desc>
<time>2010-08-28T15:30:25.06</time>
<name>296</name>
</trkpt>
<trkpt lat="49.457350" lon="9.205662">
<ele>424.0</ele>
<speed>70.3</speed>
<course>25.7</course>
<desc>Speed 70.3 km/h Distance 13.50 km</desc>
<time>2010-08-28T15:30:26.07</time>
<name>297</name>
</trkpt>
<trkpt lat="49.457503" lon="9.205775">
<ele>423.5</ele>
<speed>64.7</speed>
<course>30.6</course>
<desc>Speed 64.7 km/h Distance 13.51 km</desc>
<time>2010-08-28T15:30:27.06</time>
<name>298</name>
</trkpt>
<trkpt lat="49.457633" lon="9.205893">
<ele>424.0</ele>
<speed>57.7</speed>
<course>27.3</course>
<desc>Speed 57.7 km/h Distance 13.53 km</desc>
<time>2010-08-28T15:30:28.07</time>
<name>299</name>
</trkpt>
<trkpt lat="49.457772" lon="9.206003">
<ele>423.5</ele>
<speed>59.1</speed>
<course>26.4</course>
<desc>Speed 59.1 km/h Distance 13.55 km</desc>
<time>2010-08-28T15:30:29.06</time>
<name>300</name>
</trkpt>
<trkpt lat="49.457905" lon="9.206105">
<ele>423.0</ele>
<speed>57.9</speed>
<course>26.4</course>
<desc>Speed 57.9 km/h Distance 13.57 km</desc>
<time>2010-08-28T15:30:30.07</time>
<name>301</name>
</trkpt>
<trkpt lat="49.458032" lon="9.206202">
<ele>422.5</ele>
<speed>55.9</speed>
<course>25.6</course>
<desc>Speed 55.9 km/h Distance 13.58 km</desc>
<time>2010-08-28T15:30:31.07</time>
<name>302</name>
</trkpt>
<trkpt lat="49.458158" lon="9.206295">
<ele>422.5</ele>
<speed>54.2</speed>
<course>25.8</course>
<desc>Speed 54.2 km/h Distance 13.60 km</desc>
<time>2010-08-28T15:30:32.07</time>
<name>303</name>
</trkpt>
<trkpt lat="49.458282" lon="9.206387">
<ele>421.5</ele>
<speed>51.8</speed>
<course>21.8</course>
<desc>Speed 51.8 km/h Distance 13.61 km</desc>
<time>2010-08-28T15:30:33.07</time>
<name>304</name>
</trkpt>
<trkpt lat="49.458412" lon="9.206467">
<ele>421.0</ele>
<speed>52.7</speed>
<course>19.7</course>
<desc>Speed 52.7 km/h Distance 13.63 km</desc>
<time>2010-08-28T15:30:34.07</time>
<name>305</name>
</trkpt>
<trkpt lat="49.458545" lon="9.206540">
<ele>420.5</ele>
<speed>54.7</speed>
<course>17.6</course>
<desc>Speed 54.7 km/h Distance 13.64 km</desc>
<time>2010-08-28T15:30:35.06</time>
<name>306</name>
</trkpt>
<trkpt lat="49.458682" lon="9.206607">
<ele>420.5</ele>
<speed>55.0</speed>
<course>18.8</course>
<desc>Speed 55.0 km/h Distance 13.66 km</desc>
<time>2010-08-28T15:30:36.06</time>
<name>307</name>
</trkpt>
<trkpt lat="49.458815" lon="9.206677">
<ele>419.5</ele>
<speed>52.6</speed>
<course>18.2</course>
<desc>Speed 52.6 km/h Distance 13.67 km</desc>
<time>2010-08-28T15:30:37.06</time>
<name>308</name>
</trkpt>
<trkpt lat="49.458953" lon="9.206747">
<ele>419.5</ele>
<speed>56.3</speed>
<course>21.3</course>
<desc>Speed 56.3 km/h Distance 13.69 km</desc>
<time>2010-08-28T15:30:38.06</time>
<name>309</name>
</trkpt>
<trkpt lat="49.459087" lon="9.206827">
<ele>419.5</ele>
<speed>58.3</speed>
<course>26.8</course>
<desc>Speed 58.3 km/h Distance 13.71 km</desc>
<time>2010-08-28T15:30:39.06</time>
<name>310</name>
</trkpt>
<trkpt lat="49.459213" lon="9.206925">
<ele>419.0</ele>
<speed>57.8</speed>
<course>26.8</course>
<desc>Speed 57.8 km/h Distance 13.72 km</desc>
<time>2010-08-28T15:30:40.06</time>
<name>311</name>
</trkpt>
<trkpt lat="49.459355" lon="9.207035">
<ele>418.5</ele>
<speed>63.3</speed>
<course>29.6</course>
<desc>Speed 63.3 km/h Distance 13.74 km</desc>
<time>2010-08-28T15:30:41.06</time>
<name>312</name>
</trkpt>
<trkpt lat="49.459488" lon="9.207152">
<ele>418.0</ele>
<speed>61.5</speed>
<course>26.7</course>
<desc>Speed 61.5 km/h Distance 13.76 km</desc>
<time>2010-08-28T15:30:42.06</time>
<name>313</name>
</trkpt>
<trkpt lat="49.459635" lon="9.207265">
<ele>417.5</ele>
<speed>61.7</speed>
<course>29.0</course>
<desc>Speed 61.7 km/h Distance 13.78 km</desc>
<time>2010-08-28T15:30:43.06</time>
<name>314</name>
</trkpt>
<trkpt lat="49.459760" lon="9.207372">
<ele>418.0</ele>
<speed>57.1</speed>
<course>29.0</course>
<desc>Speed 57.1 km/h Distance 13.79 km</desc>
<time>2010-08-28T15:30:44.06</time>
<name>315</name>
</trkpt>
<trkpt lat="49.459883" lon="9.207477">
<ele>417.5</ele>
<speed>55.6</speed>
<course>26.2</course>
<desc>Speed 55.6 km/h Distance 13.81 km</desc>
<time>2010-08-28T15:30:45.06</time>
<name>316</name>
</trkpt>
<trkpt lat="49.460007" lon="9.207570">
<ele>417.5</ele>
<speed>51.3</speed>
<course>26.7</course>
<desc>Speed 51.3 km/h Distance 13.82 km</desc>
<time>2010-08-28T15:30:46.05</time>
<name>317</name>
</trkpt>
<trkpt lat="49.460125" lon="9.207662">
<ele>417.0</ele>
<speed>48.4</speed>
<course>28.2</course>
<desc>Speed 48.4 km/h Distance 13.84 km</desc>
<time>2010-08-28T15:30:47.06</time>
<name>318</name>
</trkpt>
<trkpt lat="49.460230" lon="9.207748">
<ele>418.0</ele>
<speed>44.6</speed>
<course>19.2</course>
<desc>Speed 44.6 km/h Distance 13.85 km</desc>
<time>2010-08-28T15:30:48.05</time>
<name>319</name>
</trkpt>
<trkpt lat="49.460345" lon="9.207810">
<ele>418.0</ele>
<speed>41.4</speed>
<course>22.6</course>
<desc>Speed 41.4 km/h Distance 13.86 km</desc>
<time>2010-08-28T15:30:49.05</time>
<name>320</name>
</trkpt>
<trkpt lat="49.460428" lon="9.207863">
<ele>418.0</ele>
<speed>41.4</speed>
<course>22.8</course>
<desc>Speed 41.4 km/h Distance 13.87 km</desc>
<time>2010-08-28T15:30:50.04</time>
<name>321</name>
</trkpt>
<trkpt lat="49.460627" lon="9.207992">
<ele>419.5</ele>
<speed>29.2</speed>
<course>16.2</course>
<desc>Speed 29.2 km/h Distance 13.90 km</desc>
<time>2010-08-28T15:30:53.05</time>
<name>322</name>
</trkpt>
<trkpt lat="49.460690" lon="9.208020">
<ele>420.0</ele>
<speed>29.2</speed>
<course>34.8</course>
<desc>Speed 29.2 km/h Distance 13.91 km</desc>
<time>2010-08-28T15:30:54.05</time>
<name>323</name>
</trkpt>
<trkpt lat="49.460738" lon="9.208072">
<ele>422.0</ele>
<speed>9.3</speed>
<course>123.4</course>
<desc>Speed 9.3 km/h Distance 13.91 km</desc>
<time>2010-08-28T15:30:57.04</time>
<name>324</name>
</trkpt>
<trkpt lat="49.460733" lon="9.208083">
<ele>423.0</ele>
<speed>1.0</speed>
<course>68.7</course>
<desc>Speed 1.0 km/h Distance 13.91 km</desc>
<time>2010-08-28T15:30:59.04</time>
<name>325</name>
</trkpt>
<trkpt lat="49.460735" lon="9.208090">
<ele>423.5</ele>
<speed>0.5</speed>
<course>43.5</course>
<desc>Speed 0.5 km/h Distance 13.91 km</desc>
<time>2010-08-28T15:31:00.04</time>
<name>326</name>
</trkpt>
<trkpt lat="49.460738" lon="9.208095">
<ele>423.5</ele>
<speed>0.4</speed>
<course>47.8</course>
<desc>Speed 0.4 km/h Distance 13.91 km</desc>
<time>2010-08-28T15:31:01.04</time>
<name>327</name>
</trkpt>
<trkpt lat="49.460743" lon="9.208103">
<ele>424.5</ele>
<speed>0.4</speed>
<course>52.6</course>
<desc>Speed 0.4 km/h Distance 13.91 km</desc>
<time>2010-08-28T15:31:02.03</time>
<name>328</name>
</trkpt>
<trkpt lat="49.460748" lon="9.208113">
<ele>426.0</ele>
<speed>0.4</speed>
<course>58.4</course>
<desc>Speed 0.4 km/h Distance 13.92 km</desc>
<time>2010-08-28T15:31:03.03</time>
<name>329</name>
</trkpt>
<trkpt lat="49.460755" lon="9.208130">
<ele>428.0</ele>
<speed>0.8</speed>
<course>7.4</course>
<desc>Speed 0.8 km/h Distance 13.92 km</desc>
<time>2010-08-28T15:31:04.03</time>
<name>330</name>
</trkpt>
<trkpt lat="49.460762" lon="9.208132">
<ele>429.0</ele>
<speed>0.1</speed>
<course>0.0</course>
<desc>Speed 0.1 km/h Distance 13.92 km</desc>
<time>2010-08-28T15:31:05.04</time>
<name>331</name>
</trkpt>
<trkpt lat="49.460770" lon="9.208132">
<ele>429.5</ele>
<speed>0.4</speed>
<course>142.8</course>
<desc>Speed 0.4 km/h Distance 13.92 km</desc>
<time>2010-08-28T15:31:06.03</time>
<name>332</name>
</trkpt>
<trkpt lat="49.460768" lon="9.208133">
<ele>429.5</ele>
<speed>0.8</speed>
<course>167.4</course>
<desc>Speed 0.8 km/h Distance 13.92 km</desc>
<time>2010-08-28T15:31:07.03</time>
<name>333</name>
</trkpt>
<trkpt lat="49.460767" lon="9.208133">
<ele>429.0</ele>
<speed>0.8</speed>
<course>46.6</course>
<desc>Speed 0.8 km/h Distance 13.92 km</desc>
<time>2010-08-28T15:31:08.03</time>
<name>334</name>
</trkpt>
<trkpt lat="49.460780" lon="9.208155">
<ele>429.0</ele>
<speed>6.9</speed>
<course>50.1</course>
<desc>Speed 6.9 km/h Distance 13.92 km</desc>
<time>2010-08-28T15:31:09.03</time>
<name>335</name>
</trkpt>
<trkpt lat="49.460790" lon="9.208173">
<ele>429.0</ele>
<speed>6.9</speed>
<course>46.6</course>
<desc>Speed 6.9 km/h Distance 13.92 km</desc>
<time>2010-08-28T15:31:10.03</time>
<name>336</name>
</trkpt>
<trkpt lat="49.460803" lon="9.208195">
<ele>429.0</ele>
<speed>6.9</speed>
<course>43.6</course>
<desc>Speed 6.9 km/h Distance 13.93 km</desc>
<time>2010-08-28T15:31:11.03</time>
<name>337</name>
</trkpt>
<trkpt lat="49.460828" lon="9.208232">
<ele>429.0</ele>
<speed>6.9</speed>
<course>92.5</course>
<desc>Speed 6.9 km/h Distance 13.93 km</desc>
<time>2010-08-28T15:31:12.04</time>
<name>338</name>
</trkpt>
<trkpt lat="49.460790" lon="9.209578">
<ele>412.0</ele>
<speed>51.1</speed>
<course>57.5</course>
<desc>Speed 51.1 km/h Distance 14.03 km</desc>
<time>2010-08-28T15:31:18.02</time>
<name>339</name>
</trkpt>
<trkpt lat="49.460912" lon="9.209872">
<ele>412.0</ele>
<speed>41.4</speed>
<course>50.2</course>
<desc>Speed 41.4 km/h Distance 14.05 km</desc>
<time>2010-08-28T15:31:20.02</time>
<name>340</name>
</trkpt>
<trkpt lat="49.460987" lon="9.210010">
<ele>412.0</ele>
<speed>45.2</speed>
<course>62.4</course>
<desc>Speed 45.2 km/h Distance 14.06 km</desc>
<time>2010-08-28T15:31:21.02</time>
<name>341</name>
</trkpt>
<trkpt lat="49.461047" lon="9.210187">
<ele>413.5</ele>
<speed>41.0</speed>
<course>76.8</course>
<desc>Speed 41.0 km/h Distance 14.08 km</desc>
<time>2010-08-28T15:31:22.03</time>
<name>342</name>
</trkpt>
<trkpt lat="49.461073" lon="9.210362">
<ele>414.0</ele>
<speed>40.6</speed>
<course>82.0</course>
<desc>Speed 40.6 km/h Distance 14.09 km</desc>
<time>2010-08-28T15:31:23.04</time>
<name>343</name>
</trkpt>
<trkpt lat="49.461088" lon="9.210527">
<ele>415.0</ele>
<speed>40.6</speed>
<course>107.8</course>
<desc>Speed 40.6 km/h Distance 14.10 km</desc>
<time>2010-08-28T15:31:24.03</time>
<name>344</name>
</trkpt>
<trkpt lat="49.461015" lon="9.210878">
<ele>415.0</ele>
<speed>40.6</speed>
<course>97.4</course>
<desc>Speed 40.6 km/h Distance 14.13 km</desc>
<time>2010-08-28T15:31:26.01</time>
<name>345</name>
</trkpt>
<trkpt lat="49.461000" lon="9.211057">
<ele>415.0</ele>
<speed>37.0</speed>
<course>90.5</course>
<desc>Speed 37.0 km/h Distance 14.14 km</desc>
<time>2010-08-28T15:31:27.02</time>
<name>346</name>
</trkpt>
<trkpt lat="49.460998" lon="9.211375">
<ele>416.5</ele>
<speed>8.8</speed>
<course>28.4</course>
<desc>Speed 8.8 km/h Distance 14.17 km</desc>
<time>2010-08-28T15:31:31.02</time>
<name>347</name>
</trkpt>
<trkpt lat="49.461158" lon="9.211508">
<ele>416.5</ele>
<speed>22.4</speed>
<course>25.4</course>
<desc>Speed 22.4 km/h Distance 14.19 km</desc>
<time>2010-08-28T15:31:34.02</time>
<name>348</name>
</trkpt>
<trkpt lat="49.461202" lon="9.211540">
<ele>416.5</ele>
<speed>22.4</speed>
<course>30.7</course>
<desc>Speed 22.4 km/h Distance 14.19 km</desc>
<time>2010-08-28T15:31:35.02</time>
<name>349</name>
</trkpt>
<trkpt lat="49.461260" lon="9.211593">
<ele>417.0</ele>
<speed>22.4</speed>
<course>35.6</course>
<desc>Speed 22.4 km/h Distance 14.20 km</desc>
<time>2010-08-28T15:31:37.02</time>
<name>350</name>
</trkpt>
<trkpt lat="49.461327" lon="9.211667">
<ele>417.5</ele>
<speed>22.4</speed>
<course>86.1</course>
<desc>Speed 22.4 km/h Distance 14.21 km</desc>
<time>2010-08-28T15:31:39.01</time>
<name>351</name>
</trkpt>
<trkpt lat="49.461347" lon="9.212113">
<ele>418.5</ele>
<speed>39.0</speed>
<course>102.4</course>
<desc>Speed 39.0 km/h Distance 14.24 km</desc>
<time>2010-08-28T15:31:42.01</time>
<name>352</name>
</trkpt>
<trkpt lat="49.461323" lon="9.212277">
<ele>418.5</ele>
<speed>43.4</speed>
<course>109.2</course>
<desc>Speed 43.4 km/h Distance 14.25 km</desc>
<time>2010-08-28T15:31:43.01</time>
<name>353</name>
</trkpt>
<trkpt lat="49.461242" lon="9.212637">
<ele>418.5</ele>
<speed>47.1</speed>
<course>118.9</course>
<desc>Speed 47.1 km/h Distance 14.28 km</desc>
<time>2010-08-28T15:31:45.01</time>
<name>354</name>
</trkpt>
<trkpt lat="49.461178" lon="9.212813">
<ele>419.0</ele>
<speed>53.1</speed>
<course>113.3</course>
<desc>Speed 53.1 km/h Distance 14.30 km</desc>
<time>2010-08-28T15:31:46.02</time>
<name>355</name>
</trkpt>
<trkpt lat="49.461127" lon="9.212998">
<ele>419.5</ele>
<speed>52.2</speed>
<course>116.3</course>
<desc>Speed 52.2 km/h Distance 14.31 km</desc>
<time>2010-08-28T15:31:47.03</time>
<name>356</name>
</trkpt>
<trkpt lat="49.461070" lon="9.213175">
<ele>419.5</ele>
<speed>49.0</speed>
<course>108.1</course>
<desc>Speed 49.0 km/h Distance 14.32 km</desc>
<time>2010-08-28T15:31:48.01</time>
<name>357</name>
</trkpt>
<trkpt lat="49.461035" lon="9.213340">
<ele>419.5</ele>
<speed>42.7</speed>
<course>94.9</course>
<desc>Speed 42.7 km/h Distance 14.34 km</desc>
<time>2010-08-28T15:31:49.00</time>
<name>358</name>
</trkpt>
<trkpt lat="49.461020" lon="9.213612">
<ele>420.0</ele>
<speed>36.5</speed>
<course>73.1</course>
<desc>Speed 36.5 km/h Distance 14.36 km</desc>
<time>2010-08-28T15:31:51.00</time>
<name>359</name>
</trkpt>
<trkpt lat="49.461043" lon="9.213730">
<ele>418.5</ele>
<speed>31.8</speed>
<course>86.8</course>
<desc>Speed 31.8 km/h Distance 14.37 km</desc>
<time>2010-08-28T15:31:52.00</time>
<name>360</name>
</trkpt>
<trkpt lat="49.461048" lon="9.213867">
<ele>418.5</ele>
<speed>35.2</speed>
<course>31.4</course>
<desc>Speed 35.2 km/h Distance 14.38 km</desc>
<time>2010-08-28T15:31:53.01</time>
<name>361</name>
</trkpt>
<trkpt lat="49.461348" lon="9.214148">
<ele>419.0</ele>
<speed>42.2</speed>
<course>28.1</course>
<desc>Speed 42.2 km/h Distance 14.42 km</desc>
<time>2010-08-28T15:31:56.01</time>
<name>362</name>
</trkpt>
<trkpt lat="49.461432" lon="9.214217">
<ele>419.0</ele>
<speed>42.2</speed>
<course>27.7</course>
<desc>Speed 42.2 km/h Distance 14.43 km</desc>
<time>2010-08-28T15:31:57.00</time>
<name>363</name>
</trkpt>
<trkpt lat="49.461510" lon="9.214280">
<ele>419.0</ele>
<speed>42.2</speed>
<course>35.3</course>
<desc>Speed 42.2 km/h Distance 14.44 km</desc>
<time>2010-08-28T15:31:58.00</time>
<name>364</name>
</trkpt>
<trkpt lat="49.461660" lon="9.214443">
<ele>420.0</ele>
<speed>42.2</speed>
<course>20.0</course>
<desc>Speed 42.2 km/h Distance 14.46 km</desc>
<time>2010-08-28T15:32:01.00</time>
<name>365</name>
</trkpt>
<trkpt lat="49.462757" lon="9.215057">
<ele>423.0</ele>
<speed>64.8</speed>
<course>14.3</course>
<desc>Speed 64.8 km/h Distance 14.59 km</desc>
<time>2010-08-28T15:32:07.00</time>
<name>366</name>
</trkpt>
<trkpt lat="49.463350" lon="9.215290">
<ele>424.0</ele>
<speed>77.4</speed>
<course>23.3</course>
<desc>Speed 77.4 km/h Distance 14.65 km</desc>
<time>2010-08-28T15:32:09.99</time>
<name>367</name>
</trkpt>
<trkpt lat="49.463965" lon="9.215697">
<ele>433.5</ele>
<speed>73.7</speed>
<course>37.0</course>
<desc>Speed 73.7 km/h Distance 14.73 km</desc>
<time>2010-08-28T15:32:13.99</time>
<name>368</name>
</trkpt>
<trkpt lat="49.465028" lon="9.216928">
<ele>441.0</ele>
<speed>83.0</speed>
<course>48.8</course>
<desc>Speed 83.0 km/h Distance 14.88 km</desc>
<time>2010-08-28T15:32:18.99</time>
<name>369</name>
</trkpt>
<trkpt lat="49.465323" lon="9.217447">
<ele>434.5</ele>
<speed>83.1</speed>
<course>49.5</course>
<desc>Speed 83.1 km/h Distance 14.93 km</desc>
<time>2010-08-28T15:32:20.98</time>
<name>370</name>
</trkpt>
<trkpt lat="49.465465" lon="9.217702">
<ele>434.0</ele>
<speed>82.7</speed>
<course>49.5</course>
<desc>Speed 82.7 km/h Distance 14.95 km</desc>
<time>2010-08-28T15:32:21.98</time>
<name>371</name>
</trkpt>
<trkpt lat="49.465822" lon="9.218343">
<ele>429.5</ele>
<speed>82.7</speed>
<course>35.3</course>
<desc>Speed 82.7 km/h Distance 15.01 km</desc>
<time>2010-08-28T15:32:25.98</time>
<name>372</name>
</trkpt>
<trkpt lat="49.466382" lon="9.218953">
<ele>426.5</ele>
<speed>93.1</speed>
<course>26.4</course>
<desc>Speed 93.1 km/h Distance 15.09 km</desc>
<time>2010-08-28T15:32:30.97</time>
<name>373</name>
</trkpt>
<trkpt lat="49.467035" lon="9.219452">
<ele>421.5</ele>
<speed>93.1</speed>
<course>55.6</course>
<desc>Speed 93.1 km/h Distance 15.17 km</desc>
<time>2010-08-28T15:32:35.97</time>
<name>374</name>
</trkpt>
<trkpt lat="49.467373" lon="9.220212">
<ele>420.0</ele>
<speed>93.1</speed>
<course>59.8</course>
<desc>Speed 93.1 km/h Distance 15.24 km</desc>
<time>2010-08-28T15:32:38.97</time>
<name>375</name>
</trkpt>
<trkpt lat="49.467723" lon="9.221138">
<ele>420.0</ele>
<speed>93.1</speed>
<course>90.2</course>
<desc>Speed 93.1 km/h Distance 15.31 km</desc>
<time>2010-08-28T15:32:42.97</time>
<name>376</name>
</trkpt>
<trkpt lat="49.467720" lon="9.222415">
<ele>420.0</ele>
<speed>93.1</speed>
<course>112.5</course>
<desc>Speed 93.1 km/h Distance 15.41 km</desc>
<time>2010-08-28T15:32:45.96</time>
<name>377</name>
</trkpt>
<trkpt lat="49.467165" lon="9.224482">
<ele>419.0</ele>
<speed>88.2</speed>
<course>104.0</course>
<desc>Speed 88.2 km/h Distance 15.57 km</desc>
<time>2010-08-28T15:32:50.96</time>
<name>378</name>
</trkpt>
<trkpt lat="49.467055" lon="9.225162">
<ele>419.0</ele>
<speed>91.7</speed>
<course>98.8</course>
<desc>Speed 91.7 km/h Distance 15.62 km</desc>
<time>2010-08-28T15:32:52.95</time>
<name>379</name>
</trkpt>
<trkpt lat="49.467020" lon="9.225508">
<ele>419.0</ele>
<speed>94.9</speed>
<course>94.7</course>
<desc>Speed 94.9 km/h Distance 15.64 km</desc>
<time>2010-08-28T15:32:53.95</time>
<name>380</name>
</trkpt>
<trkpt lat="49.467002" lon="9.225852">
<ele>417.0</ele>
<speed>91.7</speed>
<course>119.0</course>
<desc>Speed 91.7 km/h Distance 15.67 km</desc>
<time>2010-08-28T15:32:54.95</time>
<name>381</name>
</trkpt>
<trkpt lat="49.466760" lon="9.226523">
<ele>417.0</ele>
<speed>101</speed>
<course>131.2</course>
<desc>Speed 101 km/h Distance 15.72 km</desc>
<time>2010-08-28T15:32:56.95</time>
<name>382</name>
</trkpt>
<trkpt lat="49.466590" lon="9.226822">
<ele>417.0</ele>
<speed>102</speed>
<course>128.5</course>
<desc>Speed 102 km/h Distance 15.75 km</desc>
<time>2010-08-28T15:32:57.95</time>
<name>383</name>
</trkpt>
<trkpt lat="49.466437" lon="9.227118">
<ele>415.5</ele>
<speed>96.0</speed>
<course>130.3</course>
<desc>Speed 96.0 km/h Distance 15.78 km</desc>
<time>2010-08-28T15:32:58.95</time>
<name>384</name>
</trkpt>
<trkpt lat="49.466275" lon="9.227412">
<ele>415.0</ele>
<speed>98.6</speed>
<course>131.2</course>
<desc>Speed 98.6 km/h Distance 15.81 km</desc>
<time>2010-08-28T15:32:59.95</time>
<name>385</name>
</trkpt>
<trkpt lat="49.466108" lon="9.227705">
<ele>415.0</ele>
<speed>102</speed>
<course>124.9</course>
<desc>Speed 102 km/h Distance 15.84 km</desc>
<time>2010-08-28T15:33:00.94</time>
<name>386</name>
</trkpt>
<trkpt lat="49.465857" lon="9.228260">
<ele>413.5</ele>
<speed>88.3</speed>
<course>120.9</course>
<desc>Speed 88.3 km/h Distance 15.89 km</desc>
<time>2010-08-28T15:33:02.95</time>
<name>387</name>
</trkpt>
<trkpt lat="49.465748" lon="9.228538">
<ele>413.5</ele>
<speed>89.5</speed>
<course>125.7</course>
<desc>Speed 89.5 km/h Distance 15.91 km</desc>
<time>2010-08-28T15:33:03.94</time>
<name>388</name>
</trkpt>
<trkpt lat="49.465622" lon="9.228810">
<ele>413.5</ele>
<speed>87.1</speed>
<course>118.1</course>
<desc>Speed 87.1 km/h Distance 15.93 km</desc>
<time>2010-08-28T15:33:04.94</time>
<name>389</name>
</trkpt>
<trkpt lat="49.465525" lon="9.229088">
<ele>412.5</ele>
<speed>83.5</speed>
<course>116.5</course>
<desc>Speed 83.5 km/h Distance 15.96 km</desc>
<time>2010-08-28T15:33:05.95</time>
<name>390</name>
</trkpt>
<trkpt lat="49.465432" lon="9.229377">
<ele>411.5</ele>
<speed>83.2</speed>
<course>109.9</course>
<desc>Speed 83.2 km/h Distance 15.98 km</desc>
<time>2010-08-28T15:33:06.95</time>
<name>391</name>
</trkpt>
<trkpt lat="49.465363" lon="9.229667">
<ele>411.5</ele>
<speed>80.9</speed>
<course>105.1</course>
<desc>Speed 80.9 km/h Distance 16.00 km</desc>
<time>2010-08-28T15:33:07.95</time>
<name>392</name>
</trkpt>
<trkpt lat="49.465313" lon="9.229952">
<ele>410.0</ele>
<speed>76.7</speed>
<course>96.0</course>
<desc>Speed 76.7 km/h Distance 16.02 km</desc>
<time>2010-08-28T15:33:08.94</time>
<name>393</name>
</trkpt>
<trkpt lat="49.465293" lon="9.230243">
<ele>409.5</ele>
<speed>74.6</speed>
<course>91.5</course>
<desc>Speed 74.6 km/h Distance 16.04 km</desc>
<time>2010-08-28T15:33:09.95</time>
<name>394</name>
</trkpt>
<trkpt lat="49.465288" lon="9.230538">
<ele>409.5</ele>
<speed>74.6</speed>
<course>89.5</course>
<desc>Speed 74.6 km/h Distance 16.07 km</desc>
<time>2010-08-28T15:33:10.94</time>
<name>395</name>
</trkpt>
<trkpt lat="49.465290" lon="9.230813">
<ele>407.5</ele>
<speed>70.2</speed>
<course>70.0</course>
<desc>Speed 70.2 km/h Distance 16.09 km</desc>
<time>2010-08-28T15:33:11.95</time>
<name>396</name>
</trkpt>
<trkpt lat="49.465420" lon="9.231362">
<ele>407.0</ele>
<speed>66.1</speed>
<course>62.8</course>
<desc>Speed 66.1 km/h Distance 16.13 km</desc>
<time>2010-08-28T15:33:13.95</time>
<name>397</name>
</trkpt>
<trkpt lat="49.465488" lon="9.231567">
<ele>406.5</ele>
<speed>66.1</speed>
<course>61.1</course>
<desc>Speed 66.1 km/h Distance 16.14 km</desc>
<time>2010-08-28T15:33:14.93</time>
<name>398</name>
</trkpt>
<trkpt lat="49.465938" lon="9.232820">
<ele>405.5</ele>
<speed>90.2</speed>
<course>63.6</course>
<desc>Speed 90.2 km/h Distance 16.25 km</desc>
<time>2010-08-28T15:33:18.94</time>
<name>399</name>
</trkpt>
<trkpt lat="49.466042" lon="9.233140">
<ele>405.5</ele>
<speed>90.9</speed>
<course>64.7</course>
<desc>Speed 90.9 km/h Distance 16.27 km</desc>
<time>2010-08-28T15:33:19.94</time>
<name>400</name>
</trkpt>
<trkpt lat="49.466138" lon="9.233455">
<ele>405.5</ele>
<speed>87.6</speed>
<course>64.5</course>
<desc>Speed 87.6 km/h Distance 16.30 km</desc>
<time>2010-08-28T15:33:20.94</time>
<name>401</name>
</trkpt>
<trkpt lat="49.466233" lon="9.233762">
<ele>405.5</ele>
<speed>85.2</speed>
<course>64.4</course>
<desc>Speed 85.2 km/h Distance 16.32 km</desc>
<time>2010-08-28T15:33:21.94</time>
<name>402</name>
</trkpt>
<trkpt lat="49.466327" lon="9.234062">
<ele>405.5</ele>
<speed>83.1</speed>
<course>65.7</course>
<desc>Speed 83.1 km/h Distance 16.35 km</desc>
<time>2010-08-28T15:33:22.93</time>
<name>403</name>
</trkpt>
<trkpt lat="49.466408" lon="9.234340">
<ele>405.0</ele>
<speed>78.5</speed>
<course>65.5</course>
<desc>Speed 78.5 km/h Distance 16.37 km</desc>
<time>2010-08-28T15:33:23.93</time>
<name>404</name>
</trkpt>
<trkpt lat="49.466488" lon="9.234610">
<ele>405.0</ele>
<speed>76.0</speed>
<course>66.5</course>
<desc>Speed 76.0 km/h Distance 16.39 km</desc>
<time>2010-08-28T15:33:24.93</time>
<name>405</name>
</trkpt>
<trkpt lat="49.466570" lon="9.234898">
<ele>405.5</ele>
<speed>80.2</speed>
<course>62.8</course>
<desc>Speed 80.2 km/h Distance 16.41 km</desc>
<time>2010-08-28T15:33:25.93</time>
<name>406</name>
</trkpt>
<trkpt lat="49.466772" lon="9.235503">
<ele>407.0</ele>
<speed>90.5</speed>
<course>69.6</course>
<desc>Speed 90.5 km/h Distance 16.46 km</desc>
<time>2010-08-28T15:33:27.93</time>
<name>407</name>
</trkpt>
<trkpt lat="49.466852" lon="9.235835">
<ele>408.5</ele>
<speed>92.9</speed>
<course>74.4</course>
<desc>Speed 92.9 km/h Distance 16.49 km</desc>
<time>2010-08-28T15:33:28.93</time>
<name>408</name>
</trkpt>
<trkpt lat="49.466915" lon="9.236183">
<ele>408.0</ele>
<speed>93.5</speed>
<course>74.8</course>
<desc>Speed 93.5 km/h Distance 16.51 km</desc>
<time>2010-08-28T15:33:29.93</time>
<name>409</name>
</trkpt>
<trkpt lat="49.466977" lon="9.236532">
<ele>407.5</ele>
<speed>93.3</speed>
<course>75.6</course>
<desc>Speed 93.3 km/h Distance 16.54 km</desc>
<time>2010-08-28T15:33:30.93</time>
<name>410</name>
</trkpt>
<trkpt lat="49.467035" lon="9.236882">
<ele>407.5</ele>
<speed>93.2</speed>
<course>73.8</course>
<desc>Speed 93.2 km/h Distance 16.57 km</desc>
<time>2010-08-28T15:33:31.93</time>
<name>411</name>
</trkpt>
<trkpt lat="49.467105" lon="9.237252">
<ele>408.5</ele>
<speed>99.8</speed>
<course>74.4</course>
<desc>Speed 99.8 km/h Distance 16.59 km</desc>
<time>2010-08-28T15:33:32.93</time>
<name>412</name>
</trkpt>
<trkpt lat="49.467173" lon="9.237628">
<ele>410.0</ele>
<speed>102</speed>
<course>76.5</course>
<desc>Speed 102 km/h Distance 16.62 km</desc>
<time>2010-08-28T15:33:33.93</time>
<name>413</name>
</trkpt>
<trkpt lat="49.467233" lon="9.238013">
<ele>411.5</ele>
<speed>103</speed>
<course>78.2</course>
<desc>Speed 103 km/h Distance 16.65 km</desc>
<time>2010-08-28T15:33:34.92</time>
<name>414</name>
</trkpt>
<trkpt lat="49.467287" lon="9.238407">
<ele>413.0</ele>
<speed>104</speed>
<course>81.7</course>
<desc>Speed 104 km/h Distance 16.68 km</desc>
<time>2010-08-28T15:33:35.92</time>
<name>415</name>
</trkpt>
<trkpt lat="49.467325" lon="9.238812">
<ele>412.5</ele>
<speed>106</speed>
<course>82.6</course>
<desc>Speed 106 km/h Distance 16.71 km</desc>
<time>2010-08-28T15:33:36.93</time>
<name>416</name>
</trkpt>
<trkpt lat="49.467360" lon="9.239228">
<ele>412.5</ele>
<speed>109</speed>
<course>80.4</course>
<desc>Speed 109 km/h Distance 16.74 km</desc>
<time>2010-08-28T15:33:37.93</time>
<name>417</name>
</trkpt>
<trkpt lat="49.467445" lon="9.240005">
<ele>413.0</ele>
<speed>116</speed>
<course>80.6</course>
<desc>Speed 116 km/h Distance 16.80 km</desc>
<time>2010-08-28T15:33:39.93</time>
<name>418</name>
</trkpt>
<trkpt lat="49.467623" lon="9.241662">
<ele>418.5</ele>
<speed>109</speed>
<course>92.2</course>
<desc>Speed 109 km/h Distance 16.92 km</desc>
<time>2010-08-28T15:33:44.93</time>
<name>419</name>
</trkpt>
<trkpt lat="49.467588" lon="9.243073">
<ele>428.5</ele>
<speed>100</speed>
<course>99.7</course>
<desc>Speed 100 km/h Distance 17.02 km</desc>
<time>2010-08-28T15:33:47.92</time>
<name>420</name>
</trkpt>
<trkpt lat="49.467543" lon="9.243480">
<ele>430.0</ele>
<speed>98.7</speed>
<course>92.7</course>
<desc>Speed 98.7 km/h Distance 17.05 km</desc>
<time>2010-08-28T15:33:48.92</time>
<name>421</name>
</trkpt>
<trkpt lat="49.467532" lon="9.243860">
<ele>429.5</ele>
<speed>99.7</speed>
<course>102.8</course>
<desc>Speed 99.7 km/h Distance 17.08 km</desc>
<time>2010-08-28T15:33:49.92</time>
<name>422</name>
</trkpt>
<trkpt lat="49.467475" lon="9.244243">
<ele>430.5</ele>
<speed>97.7</speed>
<course>101.9</course>
<desc>Speed 97.7 km/h Distance 17.11 km</desc>
<time>2010-08-28T15:33:50.91</time>
<name>423</name>
</trkpt>
<trkpt lat="49.467422" lon="9.244632">
<ele>430.5</ele>
<speed>99.3</speed>
<course>101.4</course>
<desc>Speed 99.3 km/h Distance 17.14 km</desc>
<time>2010-08-28T15:33:51.92</time>
<name>424</name>
</trkpt>
<trkpt lat="49.467315" lon="9.245445">
<ele>431.0</ele>
<speed>107</speed>
<course>102.3</course>
<desc>Speed 107 km/h Distance 17.20 km</desc>
<time>2010-08-28T15:33:53.91</time>
<name>425</name>
</trkpt>
<trkpt lat="49.467255" lon="9.245867">
<ele>431.0</ele>
<speed>109</speed>
<course>102.4</course>
<desc>Speed 109 km/h Distance 17.23 km</desc>
<time>2010-08-28T15:33:54.92</time>
<name>426</name>
</trkpt>
<trkpt lat="49.467195" lon="9.246287">
<ele>431.0</ele>
<speed>107</speed>
<course>99.0</course>
<desc>Speed 107 km/h Distance 17.26 km</desc>
<time>2010-08-28T15:33:55.91</time>
<name>427</name>
</trkpt>
<trkpt lat="49.467117" lon="9.247052">
<ele>429.0</ele>
<speed>100</speed>
<course>100.5</course>
<desc>Speed 100 km/h Distance 17.31 km</desc>
<time>2010-08-28T15:33:57.91</time>
<name>428</name>
</trkpt>
<trkpt lat="49.467072" lon="9.247425">
<ele>429.0</ele>
<speed>98.4</speed>
<course>96.1</course>
<desc>Speed 98.4 km/h Distance 17.34 km</desc>
<time>2010-08-28T15:33:58.91</time>
<name>429</name>
</trkpt>
<trkpt lat="49.467047" lon="9.247785">
<ele>429.5</ele>
<speed>93.2</speed>
<course>98.6</course>
<desc>Speed 93.2 km/h Distance 17.37 km</desc>
<time>2010-08-28T15:33:59.92</time>
<name>430</name>
</trkpt>
<trkpt lat="49.467012" lon="9.248140">
<ele>429.5</ele>
<speed>91.7</speed>
<course>93.9</course>
<desc>Speed 91.7 km/h Distance 17.39 km</desc>
<time>2010-08-28T15:34:00.92</time>
<name>431</name>
</trkpt>
<trkpt lat="49.466997" lon="9.248480">
<ele>429.5</ele>
<speed>88.1</speed>
<course>91.3</course>
<desc>Speed 88.1 km/h Distance 17.42 km</desc>
<time>2010-08-28T15:34:01.91</time>
<name>432</name>
</trkpt>
<trkpt lat="49.466992" lon="9.248815">
<ele>430.0</ele>
<speed>86.8</speed>
<course>89.6</course>
<desc>Speed 86.8 km/h Distance 17.44 km</desc>
<time>2010-08-28T15:34:02.91</time>
<name>433</name>
</trkpt>
<trkpt lat="49.466993" lon="9.249155">
<ele>430.5</ele>
<speed>87.2</speed>
<course>87.8</course>
<desc>Speed 87.2 km/h Distance 17.47 km</desc>
<time>2010-08-28T15:34:03.91</time>
<name>434</name>
</trkpt>
<trkpt lat="49.467002" lon="9.249495">
<ele>431.0</ele>
<speed>87.3</speed>
<course>86.0</course>
<desc>Speed 87.3 km/h Distance 17.49 km</desc>
<time>2010-08-28T15:34:04.92</time>
<name>435</name>
</trkpt>
<trkpt lat="49.467017" lon="9.249822">
<ele>430.0</ele>
<speed>84.5</speed>
<course>84.1</course>
<desc>Speed 84.5 km/h Distance 17.52 km</desc>
<time>2010-08-28T15:34:05.91</time>
<name>436</name>
</trkpt>
<trkpt lat="49.467038" lon="9.250145">
<ele>429.5</ele>
<speed>83.9</speed>
<course>79.4</course>
<desc>Speed 83.9 km/h Distance 17.54 km</desc>
<time>2010-08-28T15:34:06.91</time>
<name>437</name>
</trkpt>
<trkpt lat="49.467077" lon="9.250462">
<ele>429.5</ele>
<speed>82.2</speed>
<course>77.0</course>
<desc>Speed 82.2 km/h Distance 17.56 km</desc>
<time>2010-08-28T15:34:07.91</time>
<name>438</name>
</trkpt>
<trkpt lat="49.467122" lon="9.250762">
<ele>429.5</ele>
<speed>80.6</speed>
<course>78.5</course>
<desc>Speed 80.6 km/h Distance 17.59 km</desc>
<time>2010-08-28T15:34:08.90</time>
<name>439</name>
</trkpt>
<trkpt lat="49.467162" lon="9.251063">
<ele>429.5</ele>
<speed>80.2</speed>
<course>74.3</course>
<desc>Speed 80.2 km/h Distance 17.61 km</desc>
<time>2010-08-28T15:34:09.90</time>
<name>440</name>
</trkpt>
<trkpt lat="49.467260" lon="9.251602">
<ele>430.0</ele>
<speed>71.5</speed>
<course>78.4</course>
<desc>Speed 71.5 km/h Distance 17.65 km</desc>
<time>2010-08-28T15:34:11.91</time>
<name>441</name>
</trkpt>
<trkpt lat="49.467390" lon="9.252580">
<ele>433.0</ele>
<speed>24.8</speed>
<course>98.5</course>
<desc>Speed 24.8 km/h Distance 17.72 km</desc>
<time>2010-08-28T15:34:17.90</time>
<name>442</name>
</trkpt>
<trkpt lat="49.467378" lon="9.252700">
<ele>431.5</ele>
<speed>5.6</speed>
<course>150.8</course>
<desc>Speed 5.6 km/h Distance 17.73 km</desc>
<time>2010-08-28T15:34:20.89</time>
<name>443</name>
</trkpt>
<trkpt lat="49.467377" lon="9.252702">
<ele>431.5</ele>
<speed>0.5</speed>
<course>90.0</course>
<desc>Speed 0.5 km/h Distance 17.73 km</desc>
<time>2010-08-28T15:34:21.91</time>
<name>444</name>
</trkpt>
<trkpt lat="49.467377" lon="9.252703">
<ele>431.0</ele>
<speed>0.3</speed>
<course>150.8</course>
<desc>Speed 0.3 km/h Distance 17.73 km</desc>
<time>2010-08-28T15:34:22.89</time>
<name>445</name>
</trkpt>
<trkpt lat="49.467375" lon="9.252705">
<ele>431.0</ele>
<speed>0.5</speed>
<course>150.8</course>
<desc>Speed 0.5 km/h Distance 17.73 km</desc>
<time>2010-08-28T15:34:23.90</time>
<name>446</name>
</trkpt>
<trkpt lat="49.467375" lon="9.252707">
<ele>431.0</ele>
<speed>0.1</speed>
<course>167.4</course>
<desc>Speed 0.1 km/h Distance 17.73 km</desc>
<time>2010-08-28T15:34:24.90</time>
<name>447</name>
</trkpt>
<trkpt lat="49.467373" lon="9.252707">
<ele>431.0</ele>
<speed>0.2</speed>
<course>90.0</course>
<desc>Speed 0.2 km/h Distance 17.73 km</desc>
<time>2010-08-28T15:34:25.90</time>
<name>448</name>
</trkpt>
<trkpt lat="49.467373" lon="9.252708">
<ele>431.0</ele>
<speed>0.1</speed>
<course>90.0</course>
<desc>Speed 0.1 km/h Distance 17.73 km</desc>
<time>2010-08-28T15:34:26.90</time>
<name>449</name>
</trkpt>
<trkpt lat="49.467373" lon="9.252708">
<ele>431.0</ele>
<speed>0.3</speed>
<course>167.4</course>
<desc>Speed 0.3 km/h Distance 17.73 km</desc>
<time>2010-08-28T15:34:27.90</time>
<name>450</name>
</trkpt>
<trkpt lat="49.467372" lon="9.252708">
<ele>431.0</ele>
<speed>0.5</speed>
<course>90.0</course>
<desc>Speed 0.5 km/h Distance 17.73 km</desc>
<time>2010-08-28T15:34:28.89</time>
<name>451</name>
</trkpt>
<trkpt lat="49.467372" lon="9.252710">
<ele>431.0</ele>
<speed>0.2</speed>
<course>90.0</course>
<desc>Speed 0.2 km/h Distance 17.73 km</desc>
<time>2010-08-28T15:34:29.89</time>
<name>452</name>
</trkpt>
<trkpt lat="49.467372" lon="9.252720">
<ele>431.0</ele>
<speed>2.1</speed>
<course>30.4</course>
<desc>Speed 2.1 km/h Distance 17.73 km</desc>
<time>2010-08-28T15:34:30.89</time>
<name>453</name>
</trkpt>
<trkpt lat="49.467692" lon="9.253008">
<ele>431.5</ele>
<speed>70.6</speed>
<course>8.4</course>
<desc>Speed 70.6 km/h Distance 17.77 km</desc>
<time>2010-08-28T15:34:35.89</time>
<name>454</name>
</trkpt>
<trkpt lat="49.468502" lon="9.253192">
<ele>431.0</ele>
<speed>96.9</speed>
<course>7.7</course>
<desc>Speed 96.9 km/h Distance 17.86 km</desc>
<time>2010-08-28T15:34:39.89</time>
<name>455</name>
</trkpt>
<trkpt lat="49.471655" lon="9.253848">
<ele>430.0</ele>
<speed>124</speed>
<course>9.0</course>
<desc>Speed 124 km/h Distance 18.22 km</desc>
<time>2010-08-28T15:34:51.88</time>
<name>456</name>
</trkpt>
<trkpt lat="49.472200" lon="9.253982">
<ele>430.0</ele>
<speed>124</speed>
<course>4.1</course>
<desc>Speed 124 km/h Distance 18.28 km</desc>
<time>2010-08-28T15:34:53.88</time>
<name>457</name>
</trkpt>
<trkpt lat="49.473712" lon="9.254148">
<ele>430.5</ele>
<speed>122</speed>
<course>359.7</course>
<desc>Speed 122 km/h Distance 18.45 km</desc>
<time>2010-08-28T15:34:57.87</time>
<name>458</name>
</trkpt>
<trkpt lat="49.474728" lon="9.254140">
<ele>431.5</ele>
<speed>114</speed>
<course>1.3</course>
<desc>Speed 114 km/h Distance 18.56 km</desc>
<time>2010-08-28T15:35:00.87</time>
<name>459</name>
</trkpt>
<trkpt lat="49.475022" lon="9.254150">
<ele>432.5</ele>
<speed>113</speed>
<course>0.0</course>
<desc>Speed 113 km/h Distance 18.59 km</desc>
<time>2010-08-28T15:35:01.87</time>
<name>460</name>
</trkpt>
<trkpt lat="49.475302" lon="9.254150">
<ele>432.5</ele>
<speed>112</speed>
<course>0.9</course>
<desc>Speed 112 km/h Distance 18.62 km</desc>
<time>2010-08-28T15:35:02.87</time>
<name>461</name>
</trkpt>
<trkpt lat="49.476225" lon="9.254173">
<ele>432.0</ele>
<speed>112</speed>
<course>353.9</course>
<desc>Speed 112 km/h Distance 18.73 km</desc>
<time>2010-08-28T15:35:08.86</time>
<name>462</name>
</trkpt>
<trkpt lat="49.477323" lon="9.253992">
<ele>429.5</ele>
<speed>137</speed>
<course>10.6</course>
<desc>Speed 137 km/h Distance 18.85 km</desc>
<time>2010-08-28T15:35:13.86</time>
<name>463</name>
</trkpt>
<trkpt lat="49.478995" lon="9.254475">
<ele>431.0</ele>
<speed>137</speed>
<course>1.4</course>
<desc>Speed 137 km/h Distance 19.04 km</desc>
<time>2010-08-28T15:35:20.83</time>
<name>464</name>
</trkpt>
<trkpt lat="49.479680" lon="9.254500">
<ele>430.0</ele>
<speed>137</speed>
<course>15.5</course>
<desc>Speed 137 km/h Distance 19.12 km</desc>
<time>2010-08-28T15:35:22.85</time>
<name>465</name>
</trkpt>
<trkpt lat="49.480407" lon="9.254810">
<ele>430.5</ele>
<speed>137</speed>
<course>10.7</course>
<desc>Speed 137 km/h Distance 19.20 km</desc>
<time>2010-08-28T15:35:25.85</time>
<name>466</name>
</trkpt>
<trkpt lat="49.480613" lon="9.254870">
<ele>431.0</ele>
<speed>137</speed>
<course>22.2</course>
<desc>Speed 137 km/h Distance 19.22 km</desc>
<time>2010-08-28T15:35:27.84</time>
<name>467</name>
</trkpt>
<trkpt lat="49.481623" lon="9.255503">
<ele>431.0</ele>
<speed>137</speed>
<course>359.5</course>
<desc>Speed 137 km/h Distance 19.34 km</desc>
<time>2010-08-28T15:35:31.84</time>
<name>468</name>
</trkpt>
<trkpt lat="49.483608" lon="9.255477">
<ele>433.0</ele>
<speed>137</speed>
<course>318.4</course>
<desc>Speed 137 km/h Distance 19.57 km</desc>
<time>2010-08-28T15:35:33.84</time>
<name>469</name>
</trkpt>
<trkpt lat="49.484148" lon="9.254738">
<ele>432.0</ele>
<speed>137</speed>
<course>313.4</course>
<desc>Speed 137 km/h Distance 19.65 km</desc>
<time>2010-08-28T15:35:39.84</time>
<name>470</name>
</trkpt>
<trkpt lat="49.484778" lon="9.253713">
<ele>434.5</ele>
<speed>69.1</speed>
<course>279.0</course>
<desc>Speed 69.1 km/h Distance 19.75 km</desc>
<time>2010-08-28T15:35:44.84</time>
<name>471</name>
</trkpt>
<trkpt lat="49.484840" lon="9.253112">
<ele>435.5</ele>
<speed>59.8</speed>
<course>271.2</course>
<desc>Speed 59.8 km/h Distance 19.79 km</desc>
<time>2010-08-28T15:35:46.84</time>
<name>472</name>
</trkpt>
<trkpt lat="49.484843" lon="9.252873">
<ele>436.0</ele>
<speed>59.8</speed>
<course>257.0</course>
<desc>Speed 59.8 km/h Distance 19.81 km</desc>
<time>2010-08-28T15:35:47.84</time>
<name>473</name>
</trkpt>
<trkpt lat="49.484655" lon="9.251617">
<ele>438.5</ele>
<speed>78.4</speed>
<course>249.1</course>
<desc>Speed 78.4 km/h Distance 19.90 km</desc>
<time>2010-08-28T15:35:51.83</time>
<name>474</name>
</trkpt>
<trkpt lat="49.484492" lon="9.250957">
<ele>440.0</ele>
<speed>85.3</speed>
<course>244.7</course>
<desc>Speed 85.3 km/h Distance 19.95 km</desc>
<time>2010-08-28T15:35:53.83</time>
<name>475</name>
</trkpt>
<trkpt lat="49.484305" lon="9.250350">
<ele>442.0</ele>
<speed>81.6</speed>
<course>236.9</course>
<desc>Speed 81.6 km/h Distance 20.00 km</desc>
<time>2010-08-28T15:35:55.84</time>
<name>476</name>
</trkpt>
<trkpt lat="49.484108" lon="9.249885">
<ele>443.0</ele>
<speed>70.9</speed>
<course>234.7</course>
<desc>Speed 70.9 km/h Distance 20.04 km</desc>
<time>2010-08-28T15:35:57.83</time>
<name>477</name>
</trkpt>
<trkpt lat="49.484003" lon="9.249657">
<ele>443.5</ele>
<speed>71.1</speed>
<course>243.6</course>
<desc>Speed 71.1 km/h Distance 20.06 km</desc>
<time>2010-08-28T15:35:58.82</time>
<name>478</name>
</trkpt>
<trkpt lat="49.483923" lon="9.249408">
<ele>444.5</ele>
<speed>70.5</speed>
<course>248.8</course>
<desc>Speed 70.5 km/h Distance 20.08 km</desc>
<time>2010-08-28T15:35:59.82</time>
<name>479</name>
</trkpt>
<trkpt lat="49.483863" lon="9.249170">
<ele>446.0</ele>
<speed>64.8</speed>
<course>237.9</course>
<desc>Speed 64.8 km/h Distance 20.10 km</desc>
<time>2010-08-28T15:36:00.82</time>
<name>480</name>
</trkpt>
<trkpt lat="49.483680" lon="9.248720">
<ele>448.0</ele>
<speed>43.7</speed>
<course>250.1</course>
<desc>Speed 43.7 km/h Distance 20.14 km</desc>
<time>2010-08-28T15:36:03.82</time>
<name>481</name>
</trkpt>
<trkpt lat="49.483648" lon="9.248585">
<ele>448.5</ele>
<speed>43.7</speed>
<course>278.3</course>
<desc>Speed 43.7 km/h Distance 20.15 km</desc>
<time>2010-08-28T15:36:04.82</time>
<name>482</name>
</trkpt>
<trkpt lat="49.483688" lon="9.248165">
<ele>450.0</ele>
<speed>17.7</speed>
<course>287.5</course>
<desc>Speed 17.7 km/h Distance 20.18 km</desc>
<time>2010-08-28T15:36:08.82</time>
<name>483</name>
</trkpt>
<trkpt lat="49.483703" lon="9.248092">
<ele>450.5</ele>
<speed>17.7</speed>
<course>301.8</course>
<desc>Speed 17.7 km/h Distance 20.19 km</desc>
<time>2010-08-28T15:36:09.82</time>
<name>484</name>
</trkpt>
<trkpt lat="49.484128" lon="9.247037">
<ele>453.5</ele>
<speed>60.1</speed>
<course>303.0</course>
<desc>Speed 60.1 km/h Distance 20.28 km</desc>
<time>2010-08-28T15:36:15.81</time>
<name>485</name>
</trkpt>
<trkpt lat="49.484830" lon="9.245373">
<ele>453.5</ele>
<speed>85.9</speed>
<course>325.3</course>
<desc>Speed 85.9 km/h Distance 20.42 km</desc>
<time>2010-08-28T15:36:20.81</time>
<name>486</name>
</trkpt>
<trkpt lat="49.485185" lon="9.244995">
<ele>453.0</ele>
<speed>72.9</speed>
<course>310.3</course>
<desc>Speed 72.9 km/h Distance 20.47 km</desc>
<time>2010-08-28T15:36:22.81</time>
<name>487</name>
</trkpt>
<trkpt lat="49.485460" lon="9.244495">
<ele>457.0</ele>
<speed>52.6</speed>
<course>293.5</course>
<desc>Speed 52.6 km/h Distance 20.51 km</desc>
<time>2010-08-28T15:36:25.82</time>
<name>488</name>
</trkpt>
<trkpt lat="49.485510" lon="9.244318">
<ele>459.0</ele>
<speed>49.9</speed>
<course>273.8</course>
<desc>Speed 49.9 km/h Distance 20.53 km</desc>
<time>2010-08-28T15:36:26.82</time>
<name>489</name>
</trkpt>
<trkpt lat="49.485518" lon="9.244125">
<ele>459.5</ele>
<speed>52.4</speed>
<course>272.6</course>
<desc>Speed 52.4 km/h Distance 20.54 km</desc>
<time>2010-08-28T15:36:27.81</time>
<name>490</name>
</trkpt>
<trkpt lat="49.485528" lon="9.243780">
<ele>466.0</ele>
<speed>63.5</speed>
<course>230.3</course>
<desc>Speed 63.5 km/h Distance 20.57 km</desc>
<time>2010-08-28T15:36:29.81</time>
<name>491</name>
</trkpt>
<trkpt lat="49.485182" lon="9.243137">
<ele>471.5</ele>
<speed>76.3</speed>
<course>235.8</course>
<desc>Speed 76.3 km/h Distance 20.63 km</desc>
<time>2010-08-28T15:36:32.80</time>
<name>492</name>
</trkpt>
<trkpt lat="49.484920" lon="9.242543">
<ele>473.0</ele>
<speed>60.7</speed>
<course>240.4</course>
<desc>Speed 60.7 km/h Distance 20.68 km</desc>
<time>2010-08-28T15:36:35.80</time>
<name>493</name>
</trkpt>
<trkpt lat="49.484852" lon="9.242358">
<ele>473.0</ele>
<speed>56.2</speed>
<course>245.0</course>
<desc>Speed 56.2 km/h Distance 20.70 km</desc>
<time>2010-08-28T15:36:36.80</time>
<name>494</name>
</trkpt>
<trkpt lat="49.484797" lon="9.242177">
<ele>472.0</ele>
<speed>52.2</speed>
<course>251.6</course>
<desc>Speed 52.2 km/h Distance 20.71 km</desc>
<time>2010-08-28T15:36:37.81</time>
<name>495</name>
</trkpt>
<trkpt lat="49.484755" lon="9.241983">
<ele>472.0</ele>
<speed>54.0</speed>
<course>252.9</course>
<desc>Speed 54.0 km/h Distance 20.72 km</desc>
<time>2010-08-28T15:36:38.80</time>
<name>496</name>
</trkpt>
<trkpt lat="49.484717" lon="9.241792">
<ele>472.0</ele>
<speed>53.0</speed>
<course>250.9</course>
<desc>Speed 53.0 km/h Distance 20.74 km</desc>
<time>2010-08-28T15:36:39.81</time>
<name>497</name>
</trkpt>
<trkpt lat="49.484628" lon="9.241398">
<ele>472.5</ele>
<speed>53.0</speed>
<course>255.9</course>
<desc>Speed 53.0 km/h Distance 20.77 km</desc>
<time>2010-08-28T15:36:42.80</time>
<name>498</name>
</trkpt>
<trkpt lat="49.484562" lon="9.240988">
<ele>475.5</ele>
<speed>37.8</speed>
<course>258.0</course>
<desc>Speed 37.8 km/h Distance 20.80 km</desc>
<time>2010-08-28T15:36:45.79</time>
<name>499</name>
</trkpt>
<trkpt lat="49.484542" lon="9.240843">
<ele>476.0</ele>
<speed>35.0</speed>
<course>243.5</course>
<desc>Speed 35.0 km/h Distance 20.81 km</desc>
<time>2010-08-28T15:36:46.80</time>
<name>500</name>
</trkpt>
<trkpt lat="49.484445" lon="9.240545">
<ele>471.0</ele>
<speed>30.0</speed>
<course>257.1</course>
<desc>Speed 30.0 km/h Distance 20.83 km</desc>
<time>2010-08-28T15:36:48.80</time>
<name>501</name>
</trkpt>
<trkpt lat="49.484427" lon="9.240422">
<ele>471.0</ele>
<speed>26.3</speed>
<course>265.1</course>
<desc>Speed 26.3 km/h Distance 20.84 km</desc>
<time>2010-08-28T15:36:49.79</time>
<name>502</name>
</trkpt>
<trkpt lat="49.484422" lon="9.240332">
<ele>471.5</ele>
<speed>20.4</speed>
<course>258.6</course>
<desc>Speed 20.4 km/h Distance 20.85 km</desc>
<time>2010-08-28T15:36:50.79</time>
<name>503</name>
</trkpt>
<trkpt lat="49.484413" lon="9.240268">
<ele>471.5</ele>
<speed>14.4</speed>
<course>261.0</course>
<desc>Speed 14.4 km/h Distance 20.86 km</desc>
<time>2010-08-28T15:36:51.80</time>
<name>504</name>
</trkpt>
<trkpt lat="49.484408" lon="9.240220">
<ele>471.5</ele>
<speed>10.4</speed>
<course>263.9</course>
<desc>Speed 10.4 km/h Distance 20.86 km</desc>
<time>2010-08-28T15:36:52.78</time>
<name>505</name>
</trkpt>
<trkpt lat="49.484405" lon="9.240172">
<ele>471.5</ele>
<speed>9.4</speed>
<course>235.9</course>
<desc>Speed 9.4 km/h Distance 20.86 km</desc>
<time>2010-08-28T15:36:53.79</time>
<name>506</name>
</trkpt>
<trkpt lat="49.484343" lon="9.240032">
<ele>467.5</ele>
<speed>18.6</speed>
<course>243.0</course>
<desc>Speed 18.6 km/h Distance 20.87 km</desc>
<time>2010-08-28T15:36:55.79</time>
<name>507</name>
</trkpt>
<trkpt lat="49.484222" lon="9.239663">
<ele>466.5</ele>
<speed>35.5</speed>
<course>234.8</course>
<desc>Speed 35.5 km/h Distance 20.90 km</desc>
<time>2010-08-28T15:36:58.78</time>
<name>508</name>
</trkpt>
<trkpt lat="49.484177" lon="9.239565">
<ele>466.0</ele>
<speed>35.5</speed>
<course>231.5</course>
<desc>Speed 35.5 km/h Distance 20.91 km</desc>
<time>2010-08-28T15:36:59.78</time>
<name>509</name>
</trkpt>
<trkpt lat="49.484028" lon="9.239278">
<ele>464.5</ele>
<speed>46.4</speed>
<course>248.6</course>
<desc>Speed 46.4 km/h Distance 20.94 km</desc>
<time>2010-08-28T15:37:01.77</time>
<name>510</name>
</trkpt>
<trkpt lat="49.483983" lon="9.239102">
<ele>464.0</ele>
<speed>45.4</speed>
<course>248.2</course>
<desc>Speed 45.4 km/h Distance 20.95 km</desc>
<time>2010-08-28T15:37:02.78</time>
<name>511</name>
</trkpt>
<trkpt lat="49.483937" lon="9.238922">
<ele>464.5</ele>
<speed>47.5</speed>
<course>260.1</course>
<desc>Speed 47.5 km/h Distance 20.97 km</desc>
<time>2010-08-28T15:37:03.77</time>
<name>512</name>
</trkpt>
<trkpt lat="49.483913" lon="9.238715">
<ele>464.5</ele>
<speed>53.5</speed>
<course>249.2</course>
<desc>Speed 53.5 km/h Distance 20.98 km</desc>
<time>2010-08-28T15:37:04.78</time>
<name>513</name>
</trkpt>
<trkpt lat="49.483827" lon="9.238363">
<ele>464.5</ele>
<speed>53.8</speed>
<course>242.5</course>
<desc>Speed 53.8 km/h Distance 21.01 km</desc>
<time>2010-08-28T15:37:06.78</time>
<name>514</name>
</trkpt>
<trkpt lat="49.483723" lon="9.238058">
<ele>464.0</ele>
<speed>53.8</speed>
<course>262.9</course>
<desc>Speed 53.8 km/h Distance 21.03 km</desc>
<time>2010-08-28T15:37:08.78</time>
<name>515</name>
</trkpt>
<trkpt lat="49.483657" lon="9.237233">
<ele>463.5</ele>
<speed>69.0</speed>
<course>261.2</course>
<desc>Speed 69.0 km/h Distance 21.09 km</desc>
<time>2010-08-28T15:37:11.78</time>
<name>516</name>
</trkpt>
<trkpt lat="49.483630" lon="9.236968">
<ele>464.0</ele>
<speed>67.2</speed>
<course>262.9</course>
<desc>Speed 67.2 km/h Distance 21.11 km</desc>
<time>2010-08-28T15:37:12.78</time>
<name>517</name>
</trkpt>
<trkpt lat="49.483608" lon="9.236702">
<ele>465.0</ele>
<speed>67.7</speed>
<course>272.2</course>
<desc>Speed 67.7 km/h Distance 21.13 km</desc>
<time>2010-08-28T15:37:13.77</time>
<name>518</name>
</trkpt>
<trkpt lat="49.483615" lon="9.236435">
<ele>463.5</ele>
<speed>66.9</speed>
<course>268.2</course>
<desc>Speed 66.9 km/h Distance 21.15 km</desc>
<time>2010-08-28T15:37:14.78</time>
<name>519</name>
</trkpt>
<trkpt lat="49.483610" lon="9.236193">
<ele>464.0</ele>
<speed>60.3</speed>
<course>266.7</course>
<desc>Speed 60.3 km/h Distance 21.17 km</desc>
<time>2010-08-28T15:37:15.77</time>
<name>520</name>
</trkpt>
<trkpt lat="49.483602" lon="9.235970">
<ele>464.5</ele>
<speed>56.2</speed>
<course>268.1</course>
<desc>Speed 56.2 km/h Distance 21.19 km</desc>
<time>2010-08-28T15:37:16.78</time>
<name>521</name>
</trkpt>
<trkpt lat="49.483597" lon="9.235740">
<ele>465.0</ele>
<speed>56.3</speed>
<course>279.7</course>
<desc>Speed 56.3 km/h Distance 21.20 km</desc>
<time>2010-08-28T15:37:17.77</time>
<name>522</name>
</trkpt>
<trkpt lat="49.483623" lon="9.235500">
<ele>465.5</ele>
<speed>58.6</speed>
<course>287.2</course>
<desc>Speed 58.6 km/h Distance 21.22 km</desc>
<time>2010-08-28T15:37:18.77</time>
<name>523</name>
</trkpt>
<trkpt lat="49.483667" lon="9.235285">
<ele>465.5</ele>
<speed>53.0</speed>
<course>282.4</course>
<desc>Speed 53.0 km/h Distance 21.24 km</desc>
<time>2010-08-28T15:37:19.77</time>
<name>524</name>
</trkpt>
<trkpt lat="49.483710" lon="9.234982">
<ele>465.5</ele>
<speed>53.0</speed>
<course>288.4</course>
<desc>Speed 53.0 km/h Distance 21.26 km</desc>
<time>2010-08-28T15:37:21.76</time>
<name>525</name>
</trkpt>
<trkpt lat="49.483825" lon="9.234448">
<ele>466.0</ele>
<speed>29.6</speed>
<course>290.8</course>
<desc>Speed 29.6 km/h Distance 21.30 km</desc>
<time>2010-08-28T15:37:25.76</time>
<name>526</name>
</trkpt>
<trkpt lat="49.483853" lon="9.234333">
<ele>465.5</ele>
<speed>29.6</speed>
<course>339.3</course>
<desc>Speed 29.6 km/h Distance 21.31 km</desc>
<time>2010-08-28T15:37:26.76</time>
<name>527</name>
</trkpt>
<trkpt lat="49.485275" lon="9.233507">
<ele>466.0</ele>
<speed>25.1</speed>
<course>331.9</course>
<desc>Speed 25.1 km/h Distance 21.48 km</desc>
<time>2010-08-28T15:37:38.75</time>
<name>528</name>
</trkpt>
<trkpt lat="49.485425" lon="9.233383">
<ele>466.0</ele>
<speed>18.3</speed>
<course>41.7</course>
<desc>Speed 18.3 km/h Distance 21.50 km</desc>
<time>2010-08-28T15:37:40.74</time>
<name>529</name>
</trkpt>
<trkpt lat="49.485438" lon="9.233402">
<ele>465.5</ele>
<speed>5.7</speed>
<course>307.6</course>
<desc>Speed 5.7 km/h Distance 21.50 km</desc>
<time>2010-08-28T15:37:43.75</time>
<name>530</name>
</trkpt>
<trkpt lat="49.485462" lon="9.233355">
<ele>466.0</ele>
<speed>4.6</speed>
<course>299.9</course>
<desc>Speed 4.6 km/h Distance 21.50 km</desc>
<time>2010-08-28T15:37:46.74</time>
<name>531</name>
</trkpt>
<trkpt lat="49.485467" lon="9.233342">
<ele>466.5</ele>
<speed>4.6</speed>
<course>213.7</course>
<desc>Speed 4.6 km/h Distance 21.50 km</desc>
<time>2010-08-28T15:37:47.74</time>
<name>532</name>
</trkpt>
<trkpt lat="49.485463" lon="9.233338">
<ele>466.5</ele>
<speed>4.6</speed>
<course>111.9</course>
<desc>Speed 4.6 km/h Distance 21.50 km</desc>
<time>2010-08-28T15:37:48.74</time>
<name>533</name>
</trkpt>
<trkpt lat="49.485453" lon="9.233377">
<ele>466.0</ele>
<speed>4.6</speed>
<course>207.0</course>
<desc>Speed 4.6 km/h Distance 21.51 km</desc>
<time>2010-08-28T15:37:49.74</time>
<name>534</name>
</trkpt>
<trkpt lat="49.485415" lon="9.233347">
<ele>466.5</ele>
<speed>1.2</speed>
<course>41.7</course>
<desc>Speed 1.2 km/h Distance 21.51 km</desc>
<time>2010-08-28T15:37:51.74</time>
<name>535</name>
</trkpt>
<trkpt lat="49.485460" lon="9.233408">
<ele>466.5</ele>
<speed>1.3</speed>
<course>38.0</course>
<desc>Speed 1.3 km/h Distance 21.52 km</desc>
<time>2010-08-28T15:37:53.73</time>
<name>536</name>
</trkpt>
<trkpt lat="49.485477" lon="9.233428">
<ele>466.5</ele>
<speed>1.3</speed>
<course>12.6</course>
<desc>Speed 1.3 km/h Distance 21.52 km</desc>
<time>2010-08-28T15:37:54.73</time>
<name>537</name>
</trkpt>
<trkpt lat="49.485482" lon="9.233430">
<ele>466.5</ele>
<speed>1.3</speed>
<course>12.6</course>
<desc>Speed 1.3 km/h Distance 21.52 km</desc>
<time>2010-08-28T15:37:55.73</time>
<name>538</name>
</trkpt>
<trkpt lat="49.485482" lon="9.233430">
<ele>467.0</ele>
<speed>1.3</speed>
<course>209.2</course>
<desc>Speed 1.3 km/h Distance 21.52 km</desc>
<time>2010-08-28T15:37:56.73</time>
<name>539</name>
</trkpt>
<trkpt lat="49.485480" lon="9.233428">
<ele>467.0</ele>
<speed>1.3</speed>
<course>270.0</course>
<desc>Speed 1.3 km/h Distance 21.52 km</desc>
<time>2010-08-28T15:37:57.73</time>
<name>540</name>
</trkpt>
<trkpt lat="49.485480" lon="9.233422">
<ele>467.0</ele>
<speed>1.3</speed>
<course>270.0</course>
<desc>Speed 1.3 km/h Distance 21.52 km</desc>
<time>2010-08-28T15:37:58.74</time>
<name>541</name>
</trkpt>
<trkpt lat="49.485480" lon="9.233422">
<ele>467.0</ele>
<speed>1.3</speed>
<course>128.1</course>
<desc>Speed 1.3 km/h Distance 21.52 km</desc>
<time>2010-08-28T15:37:59.73</time>
<name>542</name>
</trkpt>
<trkpt lat="49.485478" lon="9.233425">
<ele>467.0</ele>
<speed>1.3</speed>
<course>60.8</course>
<desc>Speed 1.3 km/h Distance 21.52 km</desc>
<time>2010-08-28T15:38:00.73</time>
<name>543</name>
</trkpt>
<trkpt lat="49.485485" lon="9.233443">
<ele>466.5</ele>
<speed>1.3</speed>
<course>63.0</course>
<desc>Speed 1.3 km/h Distance 21.52 km</desc>
<time>2010-08-28T15:38:01.73</time>
<name>544</name>
</trkpt>
<trkpt lat="49.485488" lon="9.233453">
<ele>466.5</ele>
<speed>1.3</speed>
<course>270.0</course>
<desc>Speed 1.3 km/h Distance 21.53 km</desc>
<time>2010-08-28T15:38:02.73</time>
<name>545</name>
</trkpt>
<trkpt lat="49.485488" lon="9.233450">
<ele>466.5</ele>
<speed>2.0</speed>
<course>337.0</course>
<desc>Speed 2.0 km/h Distance 21.53 km</desc>
<time>2010-08-28T15:38:03.73</time>
<name>546</name>
</trkpt>
<trkpt lat="49.485492" lon="9.233448">
<ele>466.5</ele>
<speed>2.0</speed>
<course>22.1</course>
<desc>Speed 2.0 km/h Distance 21.53 km</desc>
<time>2010-08-28T15:38:04.73</time>
<name>547</name>
</trkpt>
<trkpt lat="49.485505" lon="9.233457">
<ele>466.5</ele>
<speed>3.6</speed>
<course>42.3</course>
<desc>Speed 3.6 km/h Distance 21.53 km</desc>
<time>2010-08-28T15:38:05.72</time>
<name>548</name>
</trkpt>
<trkpt lat="49.485513" lon="9.233468">
<ele>466.5</ele>
<speed>3.1</speed>
<course>62.8</course>
<desc>Speed 3.1 km/h Distance 21.53 km</desc>
<time>2010-08-28T15:38:06.72</time>
<name>549</name>
</trkpt>
<trkpt lat="49.485517" lon="9.233478">
<ele>466.5</ele>
<speed>3.1</speed>
<course>174.7</course>
<desc>Speed 3.1 km/h Distance 21.53 km</desc>
<time>2010-08-28T15:38:07.72</time>
<name>550</name>
</trkpt>
<trkpt lat="49.485503" lon="9.233480">
<ele>466.5</ele>
<speed>3.1</speed>
<course>107.1</course>
<desc>Speed 3.1 km/h Distance 21.53 km</desc>
<time>2010-08-28T15:38:08.72</time>
<name>551</name>
</trkpt>
<trkpt lat="49.485502" lon="9.233488">
<ele>466.5</ele>
<speed>3.1</speed>
<course>56.7</course>
<desc>Speed 3.1 km/h Distance 21.53 km</desc>
<time>2010-08-28T15:38:09.71</time>
<name>552</name>
</trkpt>
<trkpt lat="49.485507" lon="9.233500">
<ele>466.5</ele>
<speed>3.6</speed>
<course>58.6</course>
<desc>Speed 3.6 km/h Distance 21.53 km</desc>
<time>2010-08-28T15:38:10.71</time>
<name>553</name>
</trkpt>
<trkpt lat="49.485510" lon="9.233508">
<ele>466.5</ele>
<speed>3.6</speed>
<course>270.0</course>
<desc>Speed 3.6 km/h Distance 21.53 km</desc>
<time>2010-08-28T15:38:11.71</time>
<name>554</name>
</trkpt>
<trkpt lat="49.485510" lon="9.233498">
<ele>467.0</ele>
<speed>3.6</speed>
<course>209.2</course>
<desc>Speed 3.6 km/h Distance 21.53 km</desc>
<time>2010-08-28T15:38:12.71</time>
<name>555</name>
</trkpt>
<trkpt lat="49.485508" lon="9.233497">
<ele>467.0</ele>
<speed>3.6</speed>
<course>169.7</course>
<desc>Speed 3.6 km/h Distance 21.53 km</desc>
<time>2010-08-28T15:38:13.71</time>
<name>556</name>
</trkpt>
<trkpt lat="49.485502" lon="9.233498">
<ele>467.0</ele>
<speed>0.3</speed>
<course>182.7</course>
<desc>Speed 0.3 km/h Distance 21.54 km</desc>
<time>2010-08-28T15:38:14.71</time>
<name>557</name>
</trkpt>
<trkpt lat="49.485482" lon="9.233497">
<ele>467.0</ele>
<speed>1.4</speed>
<course>115.9</course>
<desc>Speed 1.4 km/h Distance 21.54 km</desc>
<time>2010-08-28T15:38:15.79</time>
<name>558</name>
</trkpt>
<trkpt lat="49.485462" lon="9.233560">
<ele>468.0</ele>
<speed>2.1</speed>
<course>135.5</course>
<desc>Speed 2.1 km/h Distance 21.54 km</desc>
<time>2010-08-28T15:38:17.71</time>
<name>559</name>
</trkpt>
<trkpt lat="49.485407" lon="9.233643">
<ele>468.5</ele>
<speed>1.9</speed>
<course>135.1</course>
<desc>Speed 1.9 km/h Distance 21.55 km</desc>
<time>2010-08-28T15:38:19.72</time>
<name>560</name>
</trkpt>
<trkpt lat="49.485382" lon="9.233682">
<ele>468.5</ele>
<speed>4.5</speed>
<course>241.8</course>
<desc>Speed 4.5 km/h Distance 21.56 km</desc>
<time>2010-08-28T15:38:21.71</time>
<name>561</name>
</trkpt>
<trkpt lat="49.485368" lon="9.233643">
<ele>469.0</ele>
<speed>2.7</speed>
<course>245.6</course>
<desc>Speed 2.7 km/h Distance 21.56 km</desc>
<time>2010-08-28T15:38:22.71</time>
<name>562</name>
</trkpt>
<trkpt lat="49.485360" lon="9.233615">
<ele>469.5</ele>
<speed>2.7</speed>
<course>236.6</course>
<desc>Speed 2.7 km/h Distance 21.56 km</desc>
<time>2010-08-28T15:38:23.71</time>
<name>563</name>
</trkpt>
<trkpt lat="49.485350" lon="9.233592">
<ele>469.5</ele>
<speed>1.5</speed>
<course>232.4</course>
<desc>Speed 1.5 km/h Distance 21.56 km</desc>
<time>2010-08-28T15:38:24.71</time>
<name>564</name>
</trkpt>
<trkpt lat="49.485345" lon="9.233582">
<ele>469.5</ele>
<speed>1.5</speed>
<course>225.6</course>
<desc>Speed 1.5 km/h Distance 21.56 km</desc>
<time>2010-08-28T15:38:25.71</time>
<name>565</name>
</trkpt>
<trkpt lat="49.485310" lon="9.233527">
<ele>470.5</ele>
<speed>1.0</speed>
<course>235.7</course>
<desc>Speed 1.0 km/h Distance 21.57 km</desc>
<time>2010-08-28T15:38:27.71</time>
<name>566</name>
</trkpt>
<trkpt lat="49.485303" lon="9.233512">
<ele>471.0</ele>
<speed>1.0</speed>
<course>107.1</course>
<desc>Speed 1.0 km/h Distance 21.57 km</desc>
<time>2010-08-28T15:38:28.70</time>
<name>567</name>
</trkpt>
<trkpt lat="49.485302" lon="9.233520">
<ele>471.0</ele>
<speed>1.0</speed>
<course>23.0</course>
<desc>Speed 1.0 km/h Distance 21.57 km</desc>
<time>2010-08-28T15:38:29.70</time>
<name>568</name>
</trkpt>
<trkpt lat="49.485305" lon="9.233522">
<ele>471.0</ele>
<speed>1.4</speed>
<course>224.5</course>
<desc>Speed 1.4 km/h Distance 21.57 km</desc>
<time>2010-08-28T15:38:30.71</time>
<name>569</name>
</trkpt>
<trkpt lat="49.485302" lon="9.233517">
<ele>471.0</ele>
<speed>1.4</speed>
<course>219.8</course>
<desc>Speed 1.4 km/h Distance 21.57 km</desc>
<time>2010-08-28T15:38:31.70</time>
<name>570</name>
</trkpt>
<trkpt lat="49.485290" lon="9.233502">
<ele>471.5</ele>
<speed>1.4</speed>
<course>242.9</course>
<desc>Speed 1.4 km/h Distance 21.57 km</desc>
<time>2010-08-28T15:38:32.69</time>
<name>571</name>
</trkpt>
<trkpt lat="49.485285" lon="9.233487">
<ele>472.0</ele>
<speed>2.5</speed>
<course>194.9</course>
<desc>Speed 2.5 km/h Distance 21.57 km</desc>
<time>2010-08-28T15:38:33.69</time>
<name>572</name>
</trkpt>
<trkpt lat="49.485277" lon="9.233483">
<ele>472.0</ele>
<speed>1.5</speed>
<course>232.4</course>
<desc>Speed 1.5 km/h Distance 21.58 km</desc>
<time>2010-08-28T15:38:34.70</time>
<name>573</name>
</trkpt>
<trkpt lat="49.485273" lon="9.233477">
<ele>471.5</ele>
<speed>0.6</speed>
<course>282.4</course>
<desc>Speed 0.6 km/h Distance 21.58 km</desc>
<time>2010-08-28T15:38:35.70</time>
<name>574</name>
</trkpt>
<trkpt lat="49.485275" lon="9.233465">
<ele>471.5</ele>
<speed>1.6</speed>
<course>180.0</course>
<desc>Speed 1.6 km/h Distance 21.58 km</desc>
<time>2010-08-28T15:38:36.70</time>
<name>575</name>
</trkpt>
<trkpt lat="49.485263" lon="9.233465">
<ele>471.5</ele>
<speed>2.8</speed>
<course>195.5</course>
<desc>Speed 2.8 km/h Distance 21.58 km</desc>
<time>2010-08-28T15:38:37.69</time>
<name>576</name>
</trkpt>
<trkpt lat="49.485252" lon="9.233460">
<ele>471.5</ele>
<speed>2.8</speed>
<course>260.3</course>
<desc>Speed 2.8 km/h Distance 21.58 km</desc>
<time>2010-08-28T15:38:38.69</time>
<name>577</name>
</trkpt>
<trkpt lat="49.485250" lon="9.233445">
<ele>471.0</ele>
<speed>2.8</speed>
<course>300.0</course>
<desc>Speed 2.8 km/h Distance 21.58 km</desc>
<time>2010-08-28T15:38:39.69</time>
<name>578</name>
</trkpt>
<trkpt lat="49.485260" lon="9.233418">
<ele>470.0</ele>
<speed>2.8</speed>
<course>260.3</course>
<desc>Speed 2.8 km/h Distance 21.58 km</desc>
<time>2010-08-28T15:38:40.69</time>
<name>579</name>
</trkpt>
<trkpt lat="49.485258" lon="9.233403">
<ele>470.0</ele>
<speed>2.8</speed>
<course>270.0</course>
<desc>Speed 2.8 km/h Distance 21.58 km</desc>
<time>2010-08-28T15:38:41.69</time>
<name>580</name>
</trkpt>
<trkpt lat="49.485258" lon="9.233398">
<ele>470.0</ele>
<speed>2.8</speed>
<course>81.2</course>
<desc>Speed 2.8 km/h Distance 21.58 km</desc>
<time>2010-08-28T15:38:42.69</time>
<name>581</name>
</trkpt>
<trkpt lat="49.485260" lon="9.233415">
<ele>469.0</ele>
<speed>4.8</speed>
<course>352.6</course>
<desc>Speed 4.8 km/h Distance 21.59 km</desc>
<time>2010-08-28T15:38:43.68</time>
<name>582</name>
</trkpt>
<trkpt lat="49.485285" lon="9.233410">
<ele>469.5</ele>
<speed>3.4</speed>
<course>27.0</course>
<desc>Speed 3.4 km/h Distance 21.59 km</desc>
<time>2010-08-28T15:38:44.68</time>
<name>583</name>
</trkpt>
<trkpt lat="49.485347" lon="9.233458">
<ele>469.5</ele>
<speed>0.9</speed>
<course>7.4</course>
<desc>Speed 0.9 km/h Distance 21.60 km</desc>
<time>2010-08-28T15:38:46.69</time>
<name>584</name>
</trkpt>
<trkpt lat="49.485353" lon="9.233460">
<ele>469.0</ele>
<speed>0.9</speed>
<course>326.3</course>
<desc>Speed 0.9 km/h Distance 21.60 km</desc>
<time>2010-08-28T15:38:47.69</time>
<name>585</name>
</trkpt>
<trkpt lat="49.485357" lon="9.233457">
<ele>469.0</ele>
<speed>0.9</speed>
<course>270.0</course>
<desc>Speed 0.9 km/h Distance 21.60 km</desc>
<time>2010-08-28T15:38:48.69</time>
<name>586</name>
</trkpt>
<trkpt lat="49.485357" lon="9.233455">
<ele>469.0</ele>
<speed>0.9</speed>
<course>90.0</course>
<desc>Speed 0.9 km/h Distance 21.60 km</desc>
<time>2010-08-28T15:38:49.69</time>
<name>587</name>
</trkpt>
<trkpt lat="49.485357" lon="9.233457">
<ele>469.0</ele>
<speed>0.9</speed>
<course>308.1</course>
<desc>Speed 0.9 km/h Distance 21.60 km</desc>
<time>2010-08-28T15:38:50.68</time>
<name>588</name>
</trkpt>
<trkpt lat="49.485358" lon="9.233453">
<ele>469.0</ele>
<speed>0.9</speed>
<course>290.9</course>
<desc>Speed 0.9 km/h Distance 21.60 km</desc>
<time>2010-08-28T15:38:51.68</time>
<name>589</name>
</trkpt>
<trkpt lat="49.485360" lon="9.233447">
<ele>469.0</ele>
<speed>0.9</speed>
<course>341.2</course>
<desc>Speed 0.9 km/h Distance 21.60 km</desc>
<time>2010-08-28T15:38:52.68</time>
<name>590</name>
</trkpt>
<trkpt lat="49.485363" lon="9.233445">
<ele>469.0</ele>
<speed>0.9</speed>
<course>60.9</course>
<desc>Speed 0.9 km/h Distance 21.60 km</desc>
<time>2010-08-28T15:38:53.68</time>
<name>591</name>
</trkpt>
<trkpt lat="49.485385" lon="9.233505">
<ele>469.0</ele>
<speed>0.9</speed>
<course>51.9</course>
<desc>Speed 0.9 km/h Distance 21.60 km</desc>
<time>2010-08-28T15:38:55.68</time>
<name>592</name>
</trkpt>
<trkpt lat="49.485387" lon="9.233508">
<ele>469.0</ele>
<speed>0.9</speed>
<course>51.9</course>
<desc>Speed 0.9 km/h Distance 21.60 km</desc>
<time>2010-08-28T15:38:56.67</time>
<name>593</name>
</trkpt>
<trkpt lat="49.485387" lon="9.233508">
<ele>469.0</ele>
<speed>0.9</speed>
<course>60.1</course>
<desc>Speed 0.9 km/h Distance 21.60 km</desc>
<time>2010-08-28T15:38:57.67</time>
<name>594</name>
</trkpt>
<trkpt lat="49.485392" lon="9.233522">
<ele>469.0</ele>
<speed>0.9</speed>
<course>311.6</course>
<desc>Speed 0.9 km/h Distance 21.61 km</desc>
<time>2010-08-28T15:38:58.67</time>
<name>595</name>
</trkpt>
<trkpt lat="49.485417" lon="9.233478">
<ele>469.0</ele>
<speed>0.9</speed>
<course>349.4</course>
<desc>Speed 0.9 km/h Distance 21.61 km</desc>
<time>2010-08-28T15:39:00.67</time>
<name>596</name>
</trkpt>
<trkpt lat="49.485427" lon="9.233475">
<ele>469.0</ele>
<speed>0.9</speed>
<course>71.1</course>
<desc>Speed 0.9 km/h Distance 21.61 km</desc>
<time>2010-08-28T15:39:01.67</time>
<name>597</name>
</trkpt>
<trkpt lat="49.485430" lon="9.233490">
<ele>469.0</ele>
<speed>0.9</speed>
<course>62.6</course>
<desc>Speed 0.9 km/h Distance 21.61 km</desc>
<time>2010-08-28T15:39:02.67</time>
<name>598</name>
</trkpt>
<trkpt lat="49.485432" lon="9.233495">
<ele>469.0</ele>
<speed>0.9</speed>
<course>18.8</course>
<desc>Speed 0.9 km/h Distance 21.61 km</desc>
<time>2010-08-28T15:39:03.67</time>
<name>599</name>
</trkpt>
<trkpt lat="49.485438" lon="9.233498">
<ele>469.0</ele>
<speed>0.9</speed>
<course>12.6</course>
<desc>Speed 0.9 km/h Distance 21.61 km</desc>
<time>2010-08-28T15:39:04.67</time>
<name>600</name>
</trkpt>
<trkpt lat="49.485443" lon="9.233500">
<ele>469.0</ele>
<speed>0.9</speed>
<course>56.6</course>
<desc>Speed 0.9 km/h Distance 21.61 km</desc>
<time>2010-08-28T15:39:05.67</time>
<name>601</name>
</trkpt>
<trkpt lat="49.485448" lon="9.233512">
<ele>469.0</ele>
<speed>0.9</speed>
<course>63.4</course>
<desc>Speed 0.9 km/h Distance 21.61 km</desc>
<time>2010-08-28T15:39:06.66</time>
<name>602</name>
</trkpt>
<trkpt lat="49.485450" lon="9.233517">
<ele>469.0</ele>
<speed>0.9</speed>
<course>51.9</course>
<desc>Speed 0.9 km/h Distance 21.62 km</desc>
<time>2010-08-28T15:39:07.66</time>
<name>603</name>
</trkpt>
<trkpt lat="49.485452" lon="9.233520">
<ele>469.0</ele>
<speed>0.9</speed>
<course>31.6</course>
<desc>Speed 0.9 km/h Distance 21.62 km</desc>
<time>2010-08-28T15:39:08.66</time>
<name>604</name>
</trkpt>
<trkpt lat="49.485455" lon="9.233523">
<ele>469.0</ele>
<speed>0.9</speed>
<course>62.6</course>
<desc>Speed 0.9 km/h Distance 21.62 km</desc>
<time>2010-08-28T15:39:09.66</time>
<name>605</name>
</trkpt>
<trkpt lat="49.485457" lon="9.233528">
<ele>469.0</ele>
<speed>0.9</speed>
<course>117.0</course>
<desc>Speed 0.9 km/h Distance 21.62 km</desc>
<time>2010-08-28T15:39:10.66</time>
<name>606</name>
</trkpt>
<trkpt lat="49.485453" lon="9.233538">
<ele>469.0</ele>
<speed>0.9</speed>
<course>117.4</course>
<desc>Speed 0.9 km/h Distance 21.62 km</desc>
<time>2010-08-28T15:39:11.66</time>
<name>607</name>
</trkpt>
<trkpt lat="49.485452" lon="9.233543">
<ele>469.0</ele>
<speed>0.9</speed>
<course>150.8</course>
<desc>Speed 0.9 km/h Distance 21.62 km</desc>
<time>2010-08-28T15:39:12.66</time>
<name>608</name>
</trkpt>
<trkpt lat="49.485450" lon="9.233545">
<ele>469.0</ele>
<speed>0.9</speed>
<course>126.1</course>
<desc>Speed 0.9 km/h Distance 21.62 km</desc>
<time>2010-08-28T15:39:13.66</time>
<name>609</name>
</trkpt>
<trkpt lat="49.485448" lon="9.233548">
<ele>469.0</ele>
<speed>0.9</speed>
<course>90.0</course>
<desc>Speed 0.9 km/h Distance 21.62 km</desc>
<time>2010-08-28T15:39:14.66</time>
<name>610</name>
</trkpt>
<trkpt lat="49.485448" lon="9.233553">
<ele>469.0</ele>
<speed>0.9</speed>
<course>90.0</course>
<desc>Speed 0.9 km/h Distance 21.62 km</desc>
<time>2010-08-28T15:39:15.65</time>
<name>611</name>
</trkpt>
<trkpt lat="49.485448" lon="9.233558">
<ele>469.0</ele>
<speed>0.9</speed>
<course>167.4</course>
<desc>Speed 0.9 km/h Distance 21.62 km</desc>
<time>2010-08-28T15:39:16.65</time>
<name>612</name>
</trkpt>
<trkpt lat="49.485447" lon="9.233558">
<ele>469.0</ele>
<speed>0.9</speed>
<course>90.0</course>
<desc>Speed 0.9 km/h Distance 21.62 km</desc>
<time>2010-08-28T15:39:17.65</time>
<name>613</name>
</trkpt>
<trkpt lat="49.485447" lon="9.233570">
<ele>469.0</ele>
<speed>0.9</speed>
<course>90.0</course>
<desc>Speed 0.9 km/h Distance 21.62 km</desc>
<time>2010-08-28T15:39:18.65</time>
<name>614</name>
</trkpt>
<trkpt lat="49.485447" lon="9.233578">
<ele>469.0</ele>
<speed>0.9</speed>
<course>111.3</course>
<desc>Speed 0.9 km/h Distance 21.62 km</desc>
<time>2010-08-28T15:39:19.65</time>
<name>615</name>
</trkpt>
<trkpt lat="49.485445" lon="9.233585">
<ele>469.0</ele>
<speed>0.9</speed>
<course>90.0</course>
<desc>Speed 0.9 km/h Distance 21.62 km</desc>
<time>2010-08-28T15:39:20.64</time>
<name>616</name>
</trkpt>
<trkpt lat="49.485445" lon="9.233592">
<ele>469.0</ele>
<speed>0.9</speed>
<course>90.0</course>
<desc>Speed 0.9 km/h Distance 21.62 km</desc>
<time>2010-08-28T15:39:21.65</time>
<name>617</name>
</trkpt>
<trkpt lat="49.485445" lon="9.233597">
<ele>469.0</ele>
<speed>0.9</speed>
<course>127.9</course>
<desc>Speed 0.9 km/h Distance 21.62 km</desc>
<time>2010-08-28T15:39:22.65</time>
<name>618</name>
</trkpt>
<trkpt lat="49.485370" lon="9.233745">
<ele>469.0</ele>
<speed>0.9</speed>
<course>127.6</course>
<desc>Speed 0.9 km/h Distance 21.64 km</desc>
<time>2010-08-28T15:39:25.64</time>
<name>619</name>
</trkpt>
<trkpt lat="49.485367" lon="9.233752">
<ele>469.0</ele>
<speed>0.9</speed>
<course>127.3</course>
<desc>Speed 0.9 km/h Distance 21.64 km</desc>
<time>2010-08-28T15:39:26.64</time>
<name>620</name>
</trkpt>
<trkpt lat="49.485290" lon="9.233907">
<ele>469.0</ele>
<speed>0.9</speed>
<course>167.4</course>
<desc>Speed 0.9 km/h Distance 21.65 km</desc>
<time>2010-08-28T15:39:29.64</time>
<name>621</name>
</trkpt>
<trkpt lat="49.485288" lon="9.233907">
<ele>469.0</ele>
<speed>0.9</speed>
<course>308.1</course>
<desc>Speed 0.9 km/h Distance 21.65 km</desc>
<time>2010-08-28T15:39:30.64</time>
<name>622</name>
</trkpt>
<trkpt lat="49.485290" lon="9.233903">
<ele>469.0</ele>
<speed>0.9</speed>
<course>270.0</course>
<desc>Speed 0.9 km/h Distance 21.65 km</desc>
<time>2010-08-28T15:39:31.64</time>
<name>623</name>
</trkpt>
<trkpt lat="49.485290" lon="9.233902">
<ele>469.0</ele>
<speed>0.9</speed>
<course>347.4</course>
<desc>Speed 0.9 km/h Distance 21.65 km</desc>
<time>2010-08-28T15:39:32.64</time>
<name>624</name>
</trkpt>
<trkpt lat="49.485293" lon="9.233900">
<ele>469.0</ele>
<speed>0.9</speed>
<course>327.7</course>
<desc>Speed 0.9 km/h Distance 21.65 km</desc>
<time>2010-08-28T15:39:33.64</time>
<name>625</name>
</trkpt>
<trkpt lat="49.485298" lon="9.233895">
<ele>469.0</ele>
<speed>0.9</speed>
<course>297.4</course>
<desc>Speed 0.9 km/h Distance 21.65 km</desc>
<time>2010-08-28T15:39:34.64</time>
<name>626</name>
</trkpt>
<trkpt lat="49.485300" lon="9.233890">
<ele>469.0</ele>
<speed>0.9</speed>
<course>270.0</course>
<desc>Speed 0.9 km/h Distance 21.65 km</desc>
<time>2010-08-28T15:39:35.64</time>
<name>627</name>
</trkpt>
<trkpt lat="49.485300" lon="9.233882">
<ele>469.0</ele>
<speed>0.9</speed>
<course>324.8</course>
<desc>Speed 0.9 km/h Distance 21.65 km</desc>
<time>2010-08-28T15:39:36.64</time>
<name>628</name>
</trkpt>
<trkpt lat="49.485320" lon="9.233860">
<ele>469.0</ele>
<speed>0.9</speed>
<course>280.8</course>
<desc>Speed 0.9 km/h Distance 21.66 km</desc>
<time>2010-08-28T15:39:38.64</time>
<name>629</name>
</trkpt>
<trkpt lat="49.485322" lon="9.233847">
<ele>469.0</ele>
<speed>0.9</speed>
<course>301.4</course>
<desc>Speed 0.9 km/h Distance 21.66 km</desc>
<time>2010-08-28T15:39:39.64</time>
<name>630</name>
</trkpt>
<trkpt lat="49.485325" lon="9.233838">
<ele>469.0</ele>
<speed>0.9</speed>
<course>314.4</course>
<desc>Speed 0.9 km/h Distance 21.66 km</desc>
<time>2010-08-28T15:39:40.64</time>
<name>631</name>
</trkpt>
<trkpt lat="49.485337" lon="9.233820">
<ele>469.0</ele>
<speed>0.9</speed>
<course>305.0</course>
<desc>Speed 0.9 km/h Distance 21.66 km</desc>
<time>2010-08-28T15:39:41.64</time>
<name>632</name>
</trkpt>
<trkpt lat="49.485362" lon="9.233765">
<ele>469.0</ele>
<speed>1.8</speed>
<course>313.9</course>
<desc>Speed 1.8 km/h Distance 21.66 km</desc>
<time>2010-08-28T15:39:43.65</time>
<name>633</name>
</trkpt>
<trkpt lat="49.485370" lon="9.233752">
<ele>469.0</ele>
<speed>1.8</speed>
<course>316.0</course>
<desc>Speed 1.8 km/h Distance 21.67 km</desc>
<time>2010-08-28T15:39:44.64</time>
<name>634</name>
</trkpt>
<trkpt lat="49.485377" lon="9.233742">
<ele>469.0</ele>
<speed>1.8</speed>
<course>270.0</course>
<desc>Speed 1.8 km/h Distance 21.67 km</desc>
<time>2010-08-28T15:39:45.64</time>
<name>635</name>
</trkpt>
<trkpt lat="49.485377" lon="9.233727">
<ele>469.0</ele>
<speed>1.3</speed>
<course>270.0</course>
<desc>Speed 1.3 km/h Distance 21.67 km</desc>
<time>2010-08-28T15:39:46.63</time>
<name>636</name>
</trkpt>
<trkpt lat="49.485377" lon="9.233707">
<ele>469.0</ele>
<speed>1.3</speed>
<course>270.0</course>
<desc>Speed 1.3 km/h Distance 21.67 km</desc>
<time>2010-08-28T15:39:47.63</time>
<name>637</name>
</trkpt>
<trkpt lat="49.485377" lon="9.233687">
<ele>469.0</ele>
<speed>1.3</speed>
<course>270.0</course>
<desc>Speed 1.3 km/h Distance 21.67 km</desc>
<time>2010-08-28T15:39:48.63</time>
<name>638</name>
</trkpt>
<trkpt lat="49.485377" lon="9.233680">
<ele>469.0</ele>
<speed>1.3</speed>
<course>252.9</course>
<desc>Speed 1.3 km/h Distance 21.67 km</desc>
<time>2010-08-28T15:39:49.63</time>
<name>639</name>
</trkpt>
<trkpt lat="49.485373" lon="9.233663">
<ele>469.0</ele>
<speed>2.6</speed>
<course>266.2</course>
<desc>Speed 2.6 km/h Distance 21.67 km</desc>
<time>2010-08-28T15:39:50.63</time>
<name>640</name>
</trkpt>
<trkpt lat="49.485370" lon="9.233587">
<ele>469.0</ele>
<speed>1.3</speed>
<course>270.0</course>
<desc>Speed 1.3 km/h Distance 21.68 km</desc>
<time>2010-08-28T15:39:52.62</time>
<name>641</name>
</trkpt>
<trkpt lat="49.485370" lon="9.233573">
<ele>469.0</ele>
<speed>1.3</speed>
<course>296.6</course>
<desc>Speed 1.3 km/h Distance 21.68 km</desc>
<time>2010-08-28T15:39:53.62</time>
<name>642</name>
</trkpt>
<trkpt lat="49.485372" lon="9.233568">
<ele>469.0</ele>
<speed>1.2</speed>
<course>270.0</course>
<desc>Speed 1.2 km/h Distance 21.68 km</desc>
<time>2010-08-28T15:39:54.62</time>
<name>643</name>
</trkpt>
<trkpt lat="49.485372" lon="9.233563">
<ele>469.0</ele>
<speed>1.2</speed>
<course>322.8</course>
<desc>Speed 1.2 km/h Distance 21.68 km</desc>
<time>2010-08-28T15:39:55.62</time>
<name>644</name>
</trkpt>
<trkpt lat="49.485373" lon="9.233562">
<ele>469.0</ele>
<speed>1.2</speed>
<course>322.8</course>
<desc>Speed 1.2 km/h Distance 21.68 km</desc>
<time>2010-08-28T15:39:56.60</time>
<name>645</name>
</trkpt>
<trkpt lat="49.485373" lon="9.233562">
<ele>469.0</ele>
<speed>1.2</speed>
<course>270.0</course>
<desc>Speed 1.2 km/h Distance 21.68 km</desc>
<time>2010-08-28T15:39:57.60</time>
<name>646</name>
</trkpt>
<trkpt lat="49.485373" lon="9.233558">
<ele>469.0</ele>
<speed>1.2</speed>
<course>12.6</course>
<desc>Speed 1.2 km/h Distance 21.68 km</desc>
<time>2010-08-28T15:39:58.60</time>
<name>647</name>
</trkpt>
<trkpt lat="49.485375" lon="9.233558">
<ele>469.0</ele>
<speed>1.2</speed>
<course>12.6</course>
<desc>Speed 1.2 km/h Distance 21.68 km</desc>
<time>2010-08-28T15:39:59.60</time>
<name>648</name>
</trkpt>
<trkpt lat="49.485375" lon="9.233558">
<ele>469.0</ele>
<speed>1.2</speed>
<course>12.6</course>
<desc>Speed 1.2 km/h Distance 21.68 km</desc>
<time>2010-08-28T15:40:00.59</time>
<name>649</name>
</trkpt>
<trkpt lat="49.485375" lon="9.233558">
<ele>469.0</ele>
<speed>1.2</speed>
<course>12.6</course>
<desc>Speed 1.2 km/h Distance 21.68 km</desc>
<time>2010-08-28T15:40:01.59</time>
<name>650</name>
</trkpt>
<trkpt lat="49.485375" lon="9.233558">
<ele>469.0</ele>
<speed>1.2</speed>
<course>37.2</course>
<desc>Speed 1.2 km/h Distance 21.68 km</desc>
<time>2010-08-28T15:40:02.59</time>
<name>651</name>
</trkpt>
<trkpt lat="49.485377" lon="9.233560">
<ele>469.0</ele>
<speed>1.2</speed>
<course>20.2</course>
<desc>Speed 1.2 km/h Distance 21.68 km</desc>
<time>2010-08-28T15:40:03.59</time>
<name>652</name>
</trkpt>
<trkpt lat="49.485388" lon="9.233567">
<ele>469.0</ele>
<speed>1.2</speed>
<course>24.8</course>
<desc>Speed 1.2 km/h Distance 21.68 km</desc>
<time>2010-08-28T15:40:04.61</time>
<name>653</name>
</trkpt>
<trkpt lat="49.485395" lon="9.233572">
<ele>469.0</ele>
<speed>1.2</speed>
<course>38.7</course>
<desc>Speed 1.2 km/h Distance 21.68 km</desc>
<time>2010-08-28T15:40:05.61</time>
<name>654</name>
</trkpt>
<trkpt lat="49.485402" lon="9.233580">
<ele>469.0</ele>
<speed>1.2</speed>
<course>62.6</course>
<desc>Speed 1.2 km/h Distance 21.68 km</desc>
<time>2010-08-28T15:40:06.61</time>
<name>655</name>
</trkpt>
<trkpt lat="49.485403" lon="9.233585">
<ele>469.0</ele>
<speed>1.2</speed>
<course>142.8</course>
<desc>Speed 1.2 km/h Distance 21.68 km</desc>
<time>2010-08-28T15:40:07.61</time>
<name>656</name>
</trkpt>
<trkpt lat="49.485402" lon="9.233587">
<ele>469.0</ele>
<speed>1.2</speed>
<course>317.8</course>
<desc>Speed 1.2 km/h Distance 21.68 km</desc>
<time>2010-08-28T15:40:08.61</time>
<name>657</name>
</trkpt>
<trkpt lat="49.485457" lon="9.233510">
<ele>469.0</ele>
<speed>1.2</speed>
<course>307.6</course>
<desc>Speed 1.2 km/h Distance 21.69 km</desc>
<time>2010-08-28T15:40:10.61</time>
<name>658</name>
</trkpt>
<trkpt lat="49.485462" lon="9.233500">
<ele>469.0</ele>
<speed>1.2</speed>
<course>198.2</course>
<desc>Speed 1.2 km/h Distance 21.69 km</desc>
<time>2010-08-28T15:40:11.61</time>
<name>659</name>
</trkpt>
<trkpt lat="49.485452" lon="9.233495">
<ele>469.0</ele>
<speed>1.2</speed>
<course>297.2</course>
<desc>Speed 1.2 km/h Distance 21.69 km</desc>
<time>2010-08-28T15:40:12.61</time>
<name>660</name>
</trkpt>
<trkpt lat="49.485472" lon="9.233435">
<ele>469.0</ele>
<speed>1.2</speed>
<course>270.0</course>
<desc>Speed 1.2 km/h Distance 21.70 km</desc>
<time>2010-08-28T15:40:14.61</time>
<name>661</name>
</trkpt>
<trkpt lat="49.485472" lon="9.233423">
<ele>469.0</ele>
<speed>1.2</speed>
<course>90.0</course>
<desc>Speed 1.2 km/h Distance 21.70 km</desc>
<time>2010-08-28T15:40:15.88</time>
<name>662</name>
</trkpt>
<trkpt lat="49.485472" lon="9.233450">
<ele>469.0</ele>
<speed>1.2</speed>
<course>128.1</course>
<desc>Speed 1.2 km/h Distance 21.70 km</desc>
<time>2010-08-28T15:40:17.61</time>
<name>663</name>
</trkpt>
<trkpt lat="49.485470" lon="9.233453">
<ele>469.0</ele>
<speed>1.2</speed>
<course>270.0</course>
<desc>Speed 1.2 km/h Distance 21.70 km</desc>
<time>2010-08-28T15:40:18.61</time>
<name>664</name>
</trkpt>
<trkpt lat="49.485470" lon="9.233447">
<ele>469.0</ele>
<speed>1.2</speed>
<course>100.1</course>
<desc>Speed 1.2 km/h Distance 21.70 km</desc>
<time>2010-08-28T15:40:19.61</time>
<name>665</name>
</trkpt>
<trkpt lat="49.485462" lon="9.233518">
<ele>469.0</ele>
<speed>2.9</speed>
<course>42.7</course>
<desc>Speed 2.9 km/h Distance 21.71 km</desc>
<time>2010-08-28T15:40:21.60</time>
<name>666</name>
</trkpt>
<trkpt lat="49.485493" lon="9.233563">
<ele>469.0</ele>
<speed>2.9</speed>
<course>166.0</course>
<desc>Speed 2.9 km/h Distance 21.71 km</desc>
<time>2010-08-28T15:40:23.61</time>
<name>667</name>
</trkpt>
<trkpt lat="49.485480" lon="9.233568">
<ele>469.0</ele>
<speed>2.9</speed>
<course>167.4</course>
<desc>Speed 2.9 km/h Distance 21.71 km</desc>
<time>2010-08-28T15:40:24.60</time>
<name>668</name>
</trkpt>
<trkpt lat="49.485478" lon="9.233570">
<ele>469.0</ele>
<speed>2.9</speed>
<course>48.7</course>
<desc>Speed 2.9 km/h Distance 21.71 km</desc>
<time>2010-08-28T15:40:25.60</time>
<name>669</name>
</trkpt>
<trkpt lat="49.485492" lon="9.233593">
<ele>469.0</ele>
<speed>4.9</speed>
<course>37.2</course>
<desc>Speed 4.9 km/h Distance 21.72 km</desc>
<time>2010-08-28T15:40:26.60</time>
<name>670</name>
</trkpt>
<trkpt lat="49.485493" lon="9.233595">
<ele>469.0</ele>
<speed>4.9</speed>
<course>220.9</course>
<desc>Speed 4.9 km/h Distance 21.72 km</desc>
<time>2010-08-28T15:40:27.60</time>
<name>671</name>
</trkpt>
<trkpt lat="49.485473" lon="9.233568">
<ele>469.0</ele>
<speed>6.8</speed>
<course>243.9</course>
<desc>Speed 6.8 km/h Distance 21.72 km</desc>
<time>2010-08-28T15:40:28.60</time>
<name>672</name>
</trkpt>
<trkpt lat="49.485462" lon="9.233532">
<ele>469.0</ele>
<speed>6.8</speed>
<course>322.8</course>
<desc>Speed 6.8 km/h Distance 21.72 km</desc>
<time>2010-08-28T15:40:29.60</time>
<name>673</name>
</trkpt>
<trkpt lat="49.485472" lon="9.233520">
<ele>469.0</ele>
<speed>2.9</speed>
<course>308.1</course>
<desc>Speed 2.9 km/h Distance 21.72 km</desc>
<time>2010-08-28T15:40:30.60</time>
<name>674</name>
</trkpt>
<trkpt lat="49.485473" lon="9.233517">
<ele>469.0</ele>
<speed>2.9</speed>
<course>213.7</course>
<desc>Speed 2.9 km/h Distance 21.72 km</desc>
<time>2010-08-28T15:40:31.60</time>
<name>675</name>
</trkpt>
<trkpt lat="49.485470" lon="9.233513">
<ele>469.0</ele>
<speed>2.9</speed>
<course>252.9</course>
<desc>Speed 2.9 km/h Distance 21.73 km</desc>
<time>2010-08-28T15:40:32.60</time>
<name>676</name>
</trkpt>
<trkpt lat="49.485467" lon="9.233497">
<ele>469.0</ele>
<speed>2.9</speed>
<course>220.9</course>
<desc>Speed 2.9 km/h Distance 21.73 km</desc>
<time>2010-08-28T15:40:33.59</time>
<name>677</name>
</trkpt>
<trkpt lat="49.485457" lon="9.233483">
<ele>469.0</ele>
<speed>4.4</speed>
<course>238.6</course>
<desc>Speed 4.4 km/h Distance 21.73 km</desc>
<time>2010-08-28T15:40:34.59</time>
<name>678</name>
</trkpt>
<trkpt lat="49.485453" lon="9.233475">
<ele>469.0</ele>
<speed>4.4</speed>
<course>322.8</course>
<desc>Speed 4.4 km/h Distance 21.73 km</desc>
<time>2010-08-28T15:40:35.59</time>
<name>679</name>
</trkpt>
<trkpt lat="49.485455" lon="9.233473">
<ele>469.0</ele>
<speed>4.4</speed>
<course>297.4</course>
<desc>Speed 4.4 km/h Distance 21.73 km</desc>
<time>2010-08-28T15:40:36.59</time>
<name>680</name>
</trkpt>
<trkpt lat="49.485457" lon="9.233468">
<ele>469.0</ele>
<speed>4.4</speed>
<course>43.4</course>
<desc>Speed 4.4 km/h Distance 21.73 km</desc>
<time>2010-08-28T15:40:37.57</time>
<name>681</name>
</trkpt>
<trkpt lat="49.485475" lon="9.233495">
<ele>469.0</ele>
<speed>4.4</speed>
<course>62.6</course>
<desc>Speed 4.4 km/h Distance 21.73 km</desc>
<time>2010-08-28T15:40:38.59</time>
<name>682</name>
</trkpt>
<trkpt lat="49.485477" lon="9.233500">
<ele>469.0</ele>
<speed>0.6</speed>
<course>128.1</course>
<desc>Speed 0.6 km/h Distance 21.73 km</desc>
<time>2010-08-28T15:40:39.59</time>
<name>683</name>
</trkpt>
<trkpt lat="49.485475" lon="9.233503">
<ele>469.0</ele>
<speed>0.6</speed>
<course>180.0</course>
<desc>Speed 0.6 km/h Distance 21.73 km</desc>
<time>2010-08-28T15:40:40.58</time>
<name>684</name>
</trkpt>
<trkpt lat="49.485470" lon="9.233503">
<ele>469.0</ele>
<speed>0.7</speed>
<course>24.6</course>
<desc>Speed 0.7 km/h Distance 21.73 km</desc>
<time>2010-08-28T15:40:41.58</time>
<name>685</name>
</trkpt>
<trkpt lat="49.485482" lon="9.233512">
<ele>469.0</ele>
<speed>1.3</speed>
<course>12.6</course>
<desc>Speed 1.3 km/h Distance 21.73 km</desc>
<time>2010-08-28T15:40:42.58</time>
<name>686</name>
</trkpt>
<trkpt lat="49.485483" lon="9.233512">
<ele>469.0</ele>
<speed>1.3</speed>
<course>97.1</course>
<desc>Speed 1.3 km/h Distance 21.73 km</desc>
<time>2010-08-28T15:40:43.59</time>
<name>687</name>
</trkpt>
<trkpt lat="49.485478" lon="9.233573">
<ele>469.0</ele>
<speed>2.2</speed>
<course>194.3</course>
<desc>Speed 2.2 km/h Distance 21.74 km</desc>
<time>2010-08-28T15:40:45.59</time>
<name>688</name>
</trkpt>
<trkpt lat="49.485462" lon="9.233567">
<ele>469.0</ele>
<speed>1.3</speed>
<course>198.8</course>
<desc>Speed 1.3 km/h Distance 21.74 km</desc>
<time>2010-08-28T15:40:46.58</time>
<name>689</name>
</trkpt>
<trkpt lat="49.485430" lon="9.233550">
<ele>469.0</ele>
<speed>3.6</speed>
<course>90.0</course>
<desc>Speed 3.6 km/h Distance 21.75 km</desc>
<time>2010-08-28T15:40:48.58</time>
<name>690</name>
</trkpt>
<trkpt lat="49.485430" lon="9.233558">
<ele>469.0</ele>
<speed>3.6</speed>
<course>262.0</course>
<desc>Speed 3.6 km/h Distance 21.75 km</desc>
<time>2010-08-28T15:40:49.58</time>
<name>691</name>
</trkpt>
<trkpt lat="49.485428" lon="9.233540">
<ele>469.0</ele>
<speed>3.9</speed>
<course>38.4</course>
<desc>Speed 3.9 km/h Distance 21.75 km</desc>
<time>2010-08-28T15:40:50.58</time>
<name>692</name>
</trkpt>
<trkpt lat="49.485443" lon="9.233558">
<ele>469.0</ele>
<speed>6.8</speed>
<course>42.9</course>
<desc>Speed 6.8 km/h Distance 21.75 km</desc>
<time>2010-08-28T15:40:51.58</time>
<name>693</name>
</trkpt>
<trkpt lat="49.485455" lon="9.233575">
<ele>469.0</ele>
<speed>6.8</speed>
<course>43.2</course>
<desc>Speed 6.8 km/h Distance 21.75 km</desc>
<time>2010-08-28T15:40:52.59</time>
<name>694</name>
</trkpt>
<trkpt lat="49.485470" lon="9.233597">
<ele>469.0</ele>
<speed>6.8</speed>
<course>38.7</course>
<desc>Speed 6.8 km/h Distance 21.75 km</desc>
<time>2010-08-28T15:40:53.58</time>
<name>695</name>
</trkpt>
<trkpt lat="49.485492" lon="9.233623">
<ele>469.0</ele>
<speed>4.2</speed>
<course>39.8</course>
<desc>Speed 4.2 km/h Distance 21.76 km</desc>
<time>2010-08-28T15:40:54.58</time>
<name>696</name>
</trkpt>
<trkpt lat="49.485503" lon="9.233638">
<ele>469.0</ele>
<speed>4.2</speed>
<course>59.3</course>
<desc>Speed 4.2 km/h Distance 21.76 km</desc>
<time>2010-08-28T15:40:55.59</time>
<name>697</name>
</trkpt>
<trkpt lat="49.485512" lon="9.233660">
<ele>469.0</ele>
<speed>4.2</speed>
<course>288.9</course>
<desc>Speed 4.2 km/h Distance 21.76 km</desc>
<time>2010-08-28T15:40:56.58</time>
<name>698</name>
</trkpt>
<trkpt lat="49.485515" lon="9.233645">
<ele>469.0</ele>
<speed>3.5</speed>
<course>14.0</course>
<desc>Speed 3.5 km/h Distance 21.76 km</desc>
<time>2010-08-28T15:40:57.58</time>
<name>699</name>
</trkpt>
<trkpt lat="49.485537" lon="9.233653">
<ele>469.0</ele>
<speed>3.5</speed>
<course>6.3</course>
<desc>Speed 3.5 km/h Distance 21.76 km</desc>
<time>2010-08-28T15:40:58.58</time>
<name>700</name>
</trkpt>
<trkpt lat="49.485548" lon="9.233655">
<ele>469.0</ele>
<speed>3.5</speed>
<course>322.1</course>
<desc>Speed 3.5 km/h Distance 21.76 km</desc>
<time>2010-08-28T15:40:59.57</time>
<name>701</name>
</trkpt>
<trkpt lat="49.485557" lon="9.233645">
<ele>469.0</ele>
<speed>3.5</speed>
<course>280.9</course>
<desc>Speed 3.5 km/h Distance 21.77 km</desc>
<time>2010-08-28T15:41:00.56</time>
<name>702</name>
</trkpt>
<trkpt lat="49.485558" lon="9.233632">
<ele>469.0</ele>
<speed>0.4</speed>
<course>315.8</course>
<desc>Speed 0.4 km/h Distance 21.77 km</desc>
<time>2010-08-28T15:41:01.57</time>
<name>703</name>
</trkpt>
<trkpt lat="49.485568" lon="9.233617">
<ele>469.0</ele>
<speed>3.3</speed>
<course>9.0</course>
<desc>Speed 3.3 km/h Distance 21.77 km</desc>
<time>2010-08-28T15:41:02.57</time>
<name>704</name>
</trkpt>
<trkpt lat="49.485582" lon="9.233620">
<ele>469.0</ele>
<speed>6.4</speed>
<course>10.4</course>
<desc>Speed 6.4 km/h Distance 21.77 km</desc>
<time>2010-08-28T15:41:03.57</time>
<name>705</name>
</trkpt>
<trkpt lat="49.485593" lon="9.233623">
<ele>469.0</ele>
<speed>6.4</speed>
<course>147.7</course>
<desc>Speed 6.4 km/h Distance 21.77 km</desc>
<time>2010-08-28T15:41:04.56</time>
<name>706</name>
</trkpt>
<trkpt lat="49.485588" lon="9.233628">
<ele>469.0</ele>
<speed>0.6</speed>
<course>20.8</course>
<desc>Speed 0.6 km/h Distance 21.77 km</desc>
<time>2010-08-28T15:41:05.57</time>
<name>707</name>
</trkpt>
<trkpt lat="49.485597" lon="9.233633">
<ele>469.0</ele>
<speed>5.3</speed>
<course>302.1</course>
<desc>Speed 5.3 km/h Distance 21.77 km</desc>
<time>2010-08-28T15:41:06.56</time>
<name>708</name>
</trkpt>
<trkpt lat="49.485600" lon="9.233625">
<ele>469.0</ele>
<speed>2.5</speed>
<course>290.9</course>
<desc>Speed 2.5 km/h Distance 21.77 km</desc>
<time>2010-08-28T15:41:07.57</time>
<name>709</name>
</trkpt>
<trkpt lat="49.485603" lon="9.233612">
<ele>469.0</ele>
<speed>2.5</speed>
<course>218.8</course>
<desc>Speed 2.5 km/h Distance 21.77 km</desc>
<time>2010-08-28T15:41:08.56</time>
<name>710</name>
</trkpt>
<trkpt lat="49.485568" lon="9.233568">
<ele>469.0</ele>
<speed>3.4</speed>
<course>191.6</course>
<desc>Speed 3.4 km/h Distance 21.78 km</desc>
<time>2010-08-28T15:41:10.57</time>
<name>711</name>
</trkpt>
<trkpt lat="49.485558" lon="9.233565">
<ele>469.0</ele>
<speed>1.8</speed>
<course>193.5</course>
<desc>Speed 1.8 km/h Distance 21.78 km</desc>
<time>2010-08-28T15:41:11.56</time>
<name>712</name>
</trkpt>
<trkpt lat="49.485545" lon="9.233560">
<ele>469.0</ele>
<speed>2.3</speed>
<course>184.4</course>
<desc>Speed 2.3 km/h Distance 21.78 km</desc>
<time>2010-08-28T15:41:12.56</time>
<name>713</name>
</trkpt>
<trkpt lat="49.485535" lon="9.233558">
<ele>469.0</ele>
<speed>2.3</speed>
<course>180.0</course>
<desc>Speed 2.3 km/h Distance 21.78 km</desc>
<time>2010-08-28T15:41:13.56</time>
<name>714</name>
</trkpt>
<trkpt lat="49.485528" lon="9.233558">
<ele>469.0</ele>
<speed>2.3</speed>
<course>180.0</course>
<desc>Speed 2.3 km/h Distance 21.78 km</desc>
<time>2010-08-28T15:41:14.56</time>
<name>715</name>
</trkpt>
<trkpt lat="49.485525" lon="9.233558">
<ele>469.0</ele>
<speed>2.3</speed>
<course>194.9</course>
<desc>Speed 2.3 km/h Distance 21.78 km</desc>
<time>2010-08-28T15:41:15.56</time>
<name>716</name>
</trkpt>
<trkpt lat="49.485513" lon="9.233553">
<ele>469.0</ele>
<speed>2.3</speed>
<course>251.8</course>
<desc>Speed 2.3 km/h Distance 21.79 km</desc>
<time>2010-08-28T15:41:16.56</time>
<name>717</name>
</trkpt>
<trkpt lat="49.485508" lon="9.233530">
<ele>469.0</ele>
<speed>2.3</speed>
<course>341.2</course>
<desc>Speed 2.3 km/h Distance 21.79 km</desc>
<time>2010-08-28T15:41:17.55</time>
<name>718</name>
</trkpt>
<trkpt lat="49.485515" lon="9.233527">
<ele>469.0</ele>
<speed>4.6</speed>
<course>20.8</course>
<desc>Speed 4.6 km/h Distance 21.79 km</desc>
<time>2010-08-28T15:41:18.55</time>
<name>719</name>
</trkpt>
<trkpt lat="49.485535" lon="9.233538">
<ele>469.0</ele>
<speed>4.6</speed>
<course>164.5</course>
<desc>Speed 4.6 km/h Distance 21.79 km</desc>
<time>2010-08-28T15:41:19.56</time>
<name>720</name>
</trkpt>
<trkpt lat="49.485523" lon="9.233543">
<ele>469.0</ele>
<speed>4.6</speed>
<course>198.8</course>
<desc>Speed 4.6 km/h Distance 21.79 km</desc>
<time>2010-08-28T15:41:20.55</time>
<name>721</name>
</trkpt>
<trkpt lat="49.485520" lon="9.233542">
<ele>469.0</ele>
<speed>4.6</speed>
<course>37.2</course>
<desc>Speed 4.6 km/h Distance 21.79 km</desc>
<time>2010-08-28T15:41:21.55</time>
<name>722</name>
</trkpt>
<trkpt lat="49.485522" lon="9.233543">
<ele>469.0</ele>
<speed>4.6</speed>
<course>12.6</course>
<desc>Speed 4.6 km/h Distance 21.79 km</desc>
<time>2010-08-28T15:41:22.55</time>
<name>723</name>
</trkpt>
<trkpt lat="49.485527" lon="9.233545">
<ele>469.0</ele>
<speed>4.6</speed>
<course>182.5</course>
<desc>Speed 4.6 km/h Distance 21.79 km</desc>
<time>2010-08-28T15:41:23.55</time>
<name>724</name>
</trkpt>
<trkpt lat="49.485508" lon="9.233543">
<ele>469.0</ele>
<speed>0.6</speed>
<course>172.6</course>
<desc>Speed 0.6 km/h Distance 21.80 km</desc>
<time>2010-08-28T15:41:24.54</time>
<name>725</name>
</trkpt>
<trkpt lat="49.485502" lon="9.233543">
<ele>469.0</ele>
<speed>0.6</speed>
<course>213.7</course>
<desc>Speed 0.6 km/h Distance 21.80 km</desc>
<time>2010-08-28T15:41:25.55</time>
<name>726</name>
</trkpt>
<trkpt lat="49.485498" lon="9.233540">
<ele>469.0</ele>
<speed>0.6</speed>
<course>213.7</course>
<desc>Speed 0.6 km/h Distance 21.80 km</desc>
<time>2010-08-28T15:41:26.54</time>
<name>727</name>
</trkpt>
<trkpt lat="49.485498" lon="9.233540">
<ele>469.0</ele>
<speed>0.6</speed>
<course>201.5</course>
<desc>Speed 0.6 km/h Distance 21.80 km</desc>
<time>2010-08-28T15:41:27.55</time>
<name>728</name>
</trkpt>
<trkpt lat="49.485490" lon="9.233535">
<ele>469.0</ele>
<speed>0.6</speed>
<course>147.0</course>
<desc>Speed 0.6 km/h Distance 21.80 km</desc>
<time>2010-08-28T15:41:28.54</time>
<name>729</name>
</trkpt>
<trkpt lat="49.485480" lon="9.233545">
<ele>469.0</ele>
<speed>0.6</speed>
<course>128.1</course>
<desc>Speed 0.6 km/h Distance 21.80 km</desc>
<time>2010-08-28T15:41:29.54</time>
<name>730</name>
</trkpt>
<trkpt lat="49.485478" lon="9.233548">
<ele>469.0</ele>
<speed>0.6</speed>
<course>107.1</course>
<desc>Speed 0.6 km/h Distance 21.80 km</desc>
<time>2010-08-28T15:41:30.54</time>
<name>731</name>
</trkpt>
<trkpt lat="49.485477" lon="9.233557">
<ele>469.0</ele>
<speed>0.6</speed>
<course>70.6</course>
<desc>Speed 0.6 km/h Distance 21.80 km</desc>
<time>2010-08-28T15:41:31.53</time>
<name>732</name>
</trkpt>
<trkpt lat="49.485490" lon="9.233615">
<ele>469.0</ele>
<speed>0.6</speed>
<course>272.4</course>
<desc>Speed 0.6 km/h Distance 21.80 km</desc>
<time>2010-08-28T15:41:33.54</time>
<name>733</name>
</trkpt>
<trkpt lat="49.485495" lon="9.233428">
<ele>469.0</ele>
<speed>0.6</speed>
<course>247.2</course>
<desc>Speed 0.6 km/h Distance 21.82 km</desc>
<time>2010-08-28T15:41:35.53</time>
<name>734</name>
</trkpt>
<trkpt lat="49.485470" lon="9.233337">
<ele>469.0</ele>
<speed>0.6</speed>
<course>256.1</course>
<desc>Speed 0.6 km/h Distance 21.82 km</desc>
<time>2010-08-28T15:41:37.53</time>
<name>735</name>
</trkpt>
<trkpt lat="49.485455" lon="9.233243">
<ele>469.0</ele>
<speed>0.6</speed>
<course>284.3</course>
<desc>Speed 0.6 km/h Distance 21.83 km</desc>
<time>2010-08-28T15:41:39.53</time>
<name>736</name>
</trkpt>
<trkpt lat="49.485487" lon="9.233052">
<ele>469.0</ele>
<speed>0.6</speed>
<course>278.0</course>
<desc>Speed 0.6 km/h Distance 21.85 km</desc>
<time>2010-08-28T15:41:42.51</time>
<name>737</name>
</trkpt>
<trkpt lat="49.485488" lon="9.233033">
<ele>469.0</ele>
<speed>0.6</speed>
<course>278.0</course>
<desc>Speed 0.6 km/h Distance 21.85 km</desc>
<time>2010-08-28T15:41:43.51</time>
<name>738</name>
</trkpt>
<trkpt lat="49.485490" lon="9.233015">
<ele>469.0</ele>
<speed>0.6</speed>
<course>291.2</course>
<desc>Speed 0.6 km/h Distance 21.85 km</desc>
<time>2010-08-28T15:41:44.51</time>
<name>739</name>
</trkpt>
<trkpt lat="49.485640" lon="9.232418">
<ele>469.0</ele>
<speed>0.6</speed>
<course>297.8</course>
<desc>Speed 0.6 km/h Distance 21.90 km</desc>
<time>2010-08-28T15:41:48.50</time>
<name>740</name>
</trkpt>
<trkpt lat="49.485852" lon="9.231800">
<ele>469.0</ele>
<speed>0.6</speed>
<course>299.5</course>
<desc>Speed 0.6 km/h Distance 21.95 km</desc>
<time>2010-08-28T15:41:52.52</time>
<name>741</name>
</trkpt>
<trkpt lat="49.486100" lon="9.231123">
<ele>468.5</ele>
<speed>0.6</speed>
<course>15.4</course>
<desc>Speed 0.6 km/h Distance 22.00 km</desc>
<time>2010-08-28T15:42:00.50</time>
<name>742</name>
</trkpt>
<trkpt lat="49.486143" lon="9.231142">
<ele>468.5</ele>
<speed>0.6</speed>
<course>252.9</course>
<desc>Speed 0.6 km/h Distance 22.01 km</desc>
<time>2010-08-28T15:42:02.51</time>
<name>743</name>
</trkpt>
<trkpt lat="49.486135" lon="9.231100">
<ele>468.5</ele>
<speed>0.6</speed>
<course>197.0</course>
<desc>Speed 0.6 km/h Distance 22.01 km</desc>
<time>2010-08-28T15:42:04.49</time>
<name>744</name>
</trkpt>
<trkpt lat="49.485725" lon="9.230907">
<ele>468.5</ele>
<speed>0.6</speed>
<course>260.5</course>
<desc>Speed 0.6 km/h Distance 22.06 km</desc>
<time>2010-08-28T15:42:09.51</time>
<name>745</name>
</trkpt>
<trkpt lat="49.485717" lon="9.230830">
<ele>468.5</ele>
<speed>0.6</speed>
<course>134.4</course>
<desc>Speed 0.6 km/h Distance 22.06 km</desc>
<time>2010-08-28T15:42:11.52</time>
<name>746</name>
</trkpt>
<trkpt lat="49.485705" lon="9.230848">
<ele>468.5</ele>
<speed>0.6</speed>
<course>117.2</course>
<desc>Speed 0.6 km/h Distance 22.07 km</desc>
<time>2010-08-28T15:42:12.51</time>
<name>747</name>
</trkpt>
<trkpt lat="49.485698" lon="9.230868">
<ele>468.5</ele>
<speed>0.6</speed>
<course>130.5</course>
<desc>Speed 0.6 km/h Distance 22.07 km</desc>
<time>2010-08-28T15:42:13.50</time>
<name>748</name>
</trkpt>
<trkpt lat="49.485690" lon="9.230883">
<ele>468.5</ele>
<speed>0.6</speed>
<course>141.3</course>
<desc>Speed 0.6 km/h Distance 22.07 km</desc>
<time>2010-08-28T15:42:14.50</time>
<name>749</name>
</trkpt>
<trkpt lat="49.485683" lon="9.230892">
<ele>468.5</ele>
<speed>0.6</speed>
<course>192.2</course>
<desc>Speed 0.6 km/h Distance 22.07 km</desc>
<time>2010-08-28T15:42:15.50</time>
<name>750</name>
</trkpt>
<trkpt lat="49.485468" lon="9.230820">
<ele>468.5</ele>
<speed>0.6</speed>
<course>201.5</course>
<desc>Speed 0.6 km/h Distance 22.09 km</desc>
<time>2010-08-28T15:42:19.51</time>
<name>751</name>
</trkpt>
<trkpt lat="49.485460" lon="9.230815">
<ele>468.5</ele>
<speed>0.6</speed>
<course>219.0</course>
<desc>Speed 0.6 km/h Distance 22.09 km</desc>
<time>2010-08-28T15:42:20.50</time>
<name>752</name>
</trkpt>
<trkpt lat="49.485453" lon="9.230807">
<ele>468.5</ele>
<speed>0.6</speed>
<course>215.0</course>
<desc>Speed 0.6 km/h Distance 22.10 km</desc>
<time>2010-08-28T15:42:21.50</time>
<name>753</name>
</trkpt>
<trkpt lat="49.484728" lon="9.230027">
<ele>469.0</ele>
<speed>0.6</speed>
<course>220.1</course>
<desc>Speed 0.6 km/h Distance 22.19 km</desc>
<time>2010-08-28T15:42:24.50</time>
<name>754</name>
</trkpt>
<trkpt lat="49.484157" lon="9.229287">
<ele>469.0</ele>
<speed>0.6</speed>
<course>266.3</course>
<desc>Speed 0.6 km/h Distance 22.28 km</desc>
<time>2010-08-28T15:42:32.50</time>
<name>755</name>
</trkpt>
<trkpt lat="49.484108" lon="9.228127">
<ele>469.0</ele>
<speed>0.6</speed>
<course>288.6</course>
<desc>Speed 0.6 km/h Distance 22.36 km</desc>
<time>2010-08-28T15:42:39.47</time>
<name>756</name>
</trkpt>
<trkpt lat="49.484255" lon="9.227457">
<ele>469.0</ele>
<speed>0.6</speed>
<course>284.8</course>
<desc>Speed 0.6 km/h Distance 22.41 km</desc>
<time>2010-08-28T15:42:43.48</time>
<name>757</name>
</trkpt>
<trkpt lat="49.484287" lon="9.227272">
<ele>469.0</ele>
<speed>0.6</speed>
<course>226.4</course>
<desc>Speed 0.6 km/h Distance 22.43 km</desc>
<time>2010-08-28T15:42:45.46</time>
<name>758</name>
</trkpt>
<trkpt lat="49.483090" lon="9.225337">
<ele>469.5</ele>
<speed>0.6</speed>
<course>230.2</course>
<desc>Speed 0.6 km/h Distance 22.62 km</desc>
<time>2010-08-28T15:42:50.48</time>
<name>759</name>
</trkpt>
<trkpt lat="49.482747" lon="9.224703">
<ele>469.5</ele>
<speed>0.6</speed>
<course>256.2</course>
<desc>Speed 0.6 km/h Distance 22.68 km</desc>
<time>2010-08-28T15:42:56.47</time>
<name>760</name>
</trkpt>
<trkpt lat="49.482642" lon="9.224045">
<ele>470.0</ele>
<speed>0.6</speed>
<course>244.4</course>
<desc>Speed 0.6 km/h Distance 22.73 km</desc>
<time>2010-08-28T15:43:01.46</time>
<name>761</name>
</trkpt>
<trkpt lat="49.482473" lon="9.223505">
<ele>469.5</ele>
<speed>0.6</speed>
<course>243.9</course>
<desc>Speed 0.6 km/h Distance 22.77 km</desc>
<time>2010-08-28T15:43:06.47</time>
<name>762</name>
</trkpt>
<trkpt lat="49.482072" lon="9.222243">
<ele>470.5</ele>
<speed>46.2</speed>
<course>259.2</course>
<desc>Speed 46.2 km/h Distance 22.87 km</desc>
<time>2010-08-28T15:43:12.46</time>
<name>763</name>
</trkpt>
<trkpt lat="49.481965" lon="9.221382">
<ele>470.5</ele>
<speed>55.3</speed>
<course>234.2</course>
<desc>Speed 55.3 km/h Distance 22.94 km</desc>
<time>2010-08-28T15:43:16.02</time>
<name>764</name>
</trkpt>
<trkpt lat="49.481710" lon="9.220838">
<ele>475.5</ele>
<speed>40.9</speed>
<course>249.0</course>
<desc>Speed 40.9 km/h Distance 22.99 km</desc>
<time>2010-08-28T15:43:18.45</time>
<name>765</name>
</trkpt>
<trkpt lat="49.481678" lon="9.220712">
<ele>477.0</ele>
<speed>40.9</speed>
<course>252.5</course>
<desc>Speed 40.9 km/h Distance 22.99 km</desc>
<time>2010-08-28T15:43:19.45</time>
<name>766</name>
</trkpt>
<trkpt lat="49.481600" lon="9.220330">
<ele>477.5</ele>
<speed>39.9</speed>
<course>247.6</course>
<desc>Speed 39.9 km/h Distance 23.02 km</desc>
<time>2010-08-28T15:43:21.45</time>
<name>767</name>
</trkpt>
<trkpt lat="49.481563" lon="9.220193">
<ele>477.5</ele>
<speed>33.3</speed>
<course>267.2</course>
<desc>Speed 33.3 km/h Distance 23.03 km</desc>
<time>2010-08-28T15:43:22.45</time>
<name>768</name>
</trkpt>
<trkpt lat="49.481560" lon="9.220087">
<ele>479.5</ele>
<speed>26.9</speed>
<course>231.8</course>
<desc>Speed 26.9 km/h Distance 23.04 km</desc>
<time>2010-08-28T15:43:23.45</time>
<name>769</name>
</trkpt>
<trkpt lat="49.481522" lon="9.220012">
<ele>480.0</ele>
<speed>26.3</speed>
<course>229.7</course>
<desc>Speed 26.3 km/h Distance 23.05 km</desc>
<time>2010-08-28T15:43:24.45</time>
<name>770</name>
</trkpt>
<trkpt lat="49.481485" lon="9.219945">
<ele>480.5</ele>
<speed>26.3</speed>
<course>242.3</course>
<desc>Speed 26.3 km/h Distance 23.06 km</desc>
<time>2010-08-28T15:43:25.45</time>
<name>771</name>
</trkpt>
<trkpt lat="49.481458" lon="9.219867">
<ele>480.5</ele>
<speed>26.3</speed>
<course>241.1</course>
<desc>Speed 26.3 km/h Distance 23.06 km</desc>
<time>2010-08-28T15:43:26.45</time>
<name>772</name>
</trkpt>
<trkpt lat="49.481397" lon="9.219695">
<ele>480.5</ele>
<speed>38.9</speed>
<course>233.3</course>
<desc>Speed 38.9 km/h Distance 23.08 km</desc>
<time>2010-08-28T15:43:28.45</time>
<name>773</name>
</trkpt>
<trkpt lat="49.481347" lon="9.219592">
<ele>479.0</ele>
<speed>38.9</speed>
<course>236.6</course>
<desc>Speed 38.9 km/h Distance 23.09 km</desc>
<time>2010-08-28T15:43:29.45</time>
<name>774</name>
</trkpt>
<trkpt lat="49.481277" lon="9.219428">
<ele>478.0</ele>
<speed>38.9</speed>
<course>247.6</course>
<desc>Speed 38.9 km/h Distance 23.10 km</desc>
<time>2010-08-28T15:43:31.44</time>
<name>775</name>
</trkpt>
<trkpt lat="49.481215" lon="9.219198">
<ele>473.5</ele>
<speed>38.9</speed>
<course>252.7</course>
<desc>Speed 38.9 km/h Distance 23.12 km</desc>
<time>2010-08-28T15:43:34.45</time>
<name>776</name>
</trkpt>
<trkpt lat="49.481182" lon="9.219033">
<ele>471.0</ele>
<speed>38.3</speed>
<course>245.7</course>
<desc>Speed 38.3 km/h Distance 23.13 km</desc>
<time>2010-08-28T15:43:35.44</time>
<name>777</name>
</trkpt>
<trkpt lat="49.481137" lon="9.218880">
<ele>472.5</ele>
<speed>32.6</speed>
<course>242.3</course>
<desc>Speed 32.6 km/h Distance 23.14 km</desc>
<time>2010-08-28T15:43:36.44</time>
<name>778</name>
</trkpt>
<trkpt lat="49.481042" lon="9.218602">
<ele>479.0</ele>
<speed>32.4</speed>
<course>243.2</course>
<desc>Speed 32.4 km/h Distance 23.16 km</desc>
<time>2010-08-28T15:43:38.43</time>
<name>779</name>
</trkpt>
<trkpt lat="49.481008" lon="9.218500">
<ele>481.0</ele>
<speed>32.4</speed>
<course>238.9</course>
<desc>Speed 32.4 km/h Distance 23.17 km</desc>
<time>2010-08-28T15:43:39.43</time>
<name>780</name>
</trkpt>
<trkpt lat="49.480975" lon="9.218415">
<ele>482.5</ele>
<speed>32.4</speed>
<course>258.5</course>
<desc>Speed 32.4 km/h Distance 23.18 km</desc>
<time>2010-08-28T15:43:40.44</time>
<name>781</name>
</trkpt>
<trkpt lat="49.480940" lon="9.218150">
<ele>486.0</ele>
<speed>34.8</speed>
<course>255.0</course>
<desc>Speed 34.8 km/h Distance 23.20 km</desc>
<time>2010-08-28T15:43:42.42</time>
<name>782</name>
</trkpt>
<trkpt lat="49.480893" lon="9.217882">
<ele>489.5</ele>
<speed>34.8</speed>
<course>262.4</course>
<desc>Speed 34.8 km/h Distance 23.22 km</desc>
<time>2010-08-28T15:43:44.42</time>
<name>783</name>
</trkpt>
<trkpt lat="49.480878" lon="9.217708">
<ele>491.5</ele>
<speed>34.8</speed>
<course>285.2</course>
<desc>Speed 34.8 km/h Distance 23.23 km</desc>
<time>2010-08-28T15:43:47.42</time>
<name>784</name>
</trkpt>
<trkpt lat="49.480907" lon="9.217548">
<ele>492.5</ele>
<speed>30.9</speed>
<course>295.3</course>
<desc>Speed 30.9 km/h Distance 23.24 km</desc>
<time>2010-08-28T15:43:49.42</time>
<name>785</name>
</trkpt>
<trkpt lat="49.480945" lon="9.217423">
<ele>493.5</ele>
<speed>29.8</speed>
<course>286.6</course>
<desc>Speed 29.8 km/h Distance 23.25 km</desc>
<time>2010-08-28T15:43:50.42</time>
<name>786</name>
</trkpt>
<trkpt lat="49.481002" lon="9.217130">
<ele>493.0</ele>
<speed>38.4</speed>
<course>275.4</course>
<desc>Speed 38.4 km/h Distance 23.28 km</desc>
<time>2010-08-28T15:43:52.41</time>
<name>787</name>
</trkpt>
<trkpt lat="49.481010" lon="9.216995">
<ele>491.0</ele>
<speed>38.4</speed>
<course>277.2</course>
<desc>Speed 38.4 km/h Distance 23.29 km</desc>
<time>2010-08-28T15:43:53.41</time>
<name>788</name>
</trkpt>
<trkpt lat="49.481023" lon="9.216833">
<ele>490.5</ele>
<speed>38.4</speed>
<course>282.0</course>
<desc>Speed 38.4 km/h Distance 23.30 km</desc>
<time>2010-08-28T15:43:54.41</time>
<name>789</name>
</trkpt>
<trkpt lat="49.481058" lon="9.216580">
<ele>489.5</ele>
<speed>30.5</speed>
<course>284.5</course>
<desc>Speed 30.5 km/h Distance 23.32 km</desc>
<time>2010-08-28T15:43:56.40</time>
<name>790</name>
</trkpt>
<trkpt lat="49.481180" lon="9.215855">
<ele>485.5</ele>
<speed>30.5</speed>
<course>277.3</course>
<desc>Speed 30.5 km/h Distance 23.37 km</desc>
<time>2010-08-28T15:44:00.40</time>
<name>791</name>
</trkpt>
<trkpt lat="49.481188" lon="9.215755">
<ele>484.5</ele>
<speed>30.5</speed>
<course>290.9</course>
<desc>Speed 30.5 km/h Distance 23.38 km</desc>
<time>2010-08-28T15:44:01.40</time>
<name>792</name>
</trkpt>
<trkpt lat="49.481248" lon="9.215513">
<ele>480.5</ele>
<speed>22.2</speed>
<course>302.7</course>
<desc>Speed 22.2 km/h Distance 23.40 km</desc>
<time>2010-08-28T15:44:03.40</time>
<name>793</name>
</trkpt>
<trkpt lat="49.481290" lon="9.215413">
<ele>479.0</ele>
<speed>2.2</speed>
<course>258.0</course>
<desc>Speed 2.2 km/h Distance 23.41 km</desc>
<time>2010-08-28T15:44:06.40</time>
<name>794</name>
</trkpt>
<trkpt lat="49.481277" lon="9.215317">
<ele>478.5</ele>
<speed>8.9</speed>
<course>270.0</course>
<desc>Speed 8.9 km/h Distance 23.41 km</desc>
<time>2010-08-28T15:44:08.39</time>
<name>795</name>
</trkpt>
<trkpt lat="49.481277" lon="9.215278">
<ele>478.0</ele>
<speed>8.9</speed>
<course>256.7</course>
<desc>Speed 8.9 km/h Distance 23.42 km</desc>
<time>2010-08-28T15:44:09.39</time>
<name>796</name>
</trkpt>
<trkpt lat="49.481273" lon="9.215257">
<ele>478.0</ele>
<speed>8.9</speed>
<course>14.3</course>
<desc>Speed 8.9 km/h Distance 23.42 km</desc>
<time>2010-08-28T15:44:10.39</time>
<name>797</name>
</trkpt>
<trkpt lat="49.481473" lon="9.215335">
<ele>475.5</ele>
<speed>13.1</speed>
<course>2.5</course>
<desc>Speed 13.1 km/h Distance 23.44 km</desc>
<time>2010-08-28T15:44:13.39</time>
<name>798</name>
</trkpt>
<trkpt lat="49.481503" lon="9.215337">
<ele>475.5</ele>
<speed>13.1</speed>
<course>4.2</course>
<desc>Speed 13.1 km/h Distance 23.44 km</desc>
<time>2010-08-28T15:44:14.40</time>
<name>799</name>
</trkpt>
<trkpt lat="49.482458" lon="9.215445">
<ele>475.0</ele>
<speed>58.5</speed>
<course>354.6</course>
<desc>Speed 58.5 km/h Distance 23.55 km</desc>
<time>2010-08-28T15:44:20.39</time>
<name>800</name>
</trkpt>
<trkpt lat="49.482607" lon="9.215423">
<ele>474.0</ele>
<speed>56.4</speed>
<course>358.5</course>
<desc>Speed 56.4 km/h Distance 23.57 km</desc>
<time>2010-08-28T15:44:21.39</time>
<name>801</name>
</trkpt>
<trkpt lat="49.482730" lon="9.215418">
<ele>473.5</ele>
<speed>56.4</speed>
<course>5.8</course>
<desc>Speed 56.4 km/h Distance 23.58 km</desc>
<time>2010-08-28T15:44:22.38</time>
<name>802</name>
</trkpt>
<trkpt lat="49.483018" lon="9.215463">
<ele>475.5</ele>
<speed>53.4</speed>
<course>357.7</course>
<desc>Speed 53.4 km/h Distance 23.61 km</desc>
<time>2010-08-28T15:44:24.39</time>
<name>803</name>
</trkpt>
<trkpt lat="49.483153" lon="9.215455">
<ele>475.0</ele>
<speed>47.7</speed>
<course>359.8</course>
<desc>Speed 47.7 km/h Distance 23.63 km</desc>
<time>2010-08-28T15:44:25.38</time>
<name>804</name>
</trkpt>
<trkpt lat="49.483417" lon="9.215453">
<ele>474.0</ele>
<speed>49.9</speed>
<course>354.4</course>
<desc>Speed 49.9 km/h Distance 23.66 km</desc>
<time>2010-08-28T15:44:27.38</time>
<name>805</name>
</trkpt>
<trkpt lat="49.483637" lon="9.215420">
<ele>473.0</ele>
<speed>49.9</speed>
<course>350.2</course>
<desc>Speed 49.9 km/h Distance 23.68 km</desc>
<time>2010-08-28T15:44:30.38</time>
<name>806</name>
</trkpt>
<trkpt lat="49.483857" lon="9.215362">
<ele>471.5</ele>
<speed>49.9</speed>
<course>312.1</course>
<desc>Speed 49.9 km/h Distance 23.71 km</desc>
<time>2010-08-28T15:44:34.38</time>
<name>807</name>
</trkpt>
<trkpt lat="49.484037" lon="9.215055">
<ele>473.0</ele>
<speed>49.9</speed>
<course>305.7</course>
<desc>Speed 49.9 km/h Distance 23.74 km</desc>
<time>2010-08-28T15:44:37.39</time>
<name>808</name>
</trkpt>
<trkpt lat="49.484193" lon="9.214720">
<ele>478.0</ele>
<speed>49.9</speed>
<course>340.0</course>
<desc>Speed 49.9 km/h Distance 23.77 km</desc>
<time>2010-08-28T15:44:40.37</time>
<name>809</name>
</trkpt>
<trkpt lat="49.485223" lon="9.214143">
<ele>485.5</ele>
<speed>83.7</speed>
<course>348.9</course>
<desc>Speed 83.7 km/h Distance 23.89 km</desc>
<time>2010-08-28T15:44:45.38</time>
<name>810</name>
</trkpt>
<trkpt lat="49.486985" lon="9.213610">
<ele>490.5</ele>
<speed>81.4</speed>
<course>347.1</course>
<desc>Speed 81.4 km/h Distance 24.09 km</desc>
<time>2010-08-28T15:44:51.37</time>
<name>811</name>
</trkpt>
<trkpt lat="49.487445" lon="9.213448">
<ele>492.5</ele>
<speed>82.4</speed>
<course>345.8</course>
<desc>Speed 82.4 km/h Distance 24.14 km</desc>
<time>2010-08-28T15:44:53.36</time>
<name>812</name>
</trkpt>
<trkpt lat="49.488168" lon="9.213167">
<ele>488.5</ele>
<speed>74.6</speed>
<course>1.7</course>
<desc>Speed 74.6 km/h Distance 24.22 km</desc>
<time>2010-08-28T15:44:56.35</time>
<name>813</name>
</trkpt>
<trkpt lat="49.488573" lon="9.213185">
<ele>486.0</ele>
<speed>64.7</speed>
<course>0.4</course>
<desc>Speed 64.7 km/h Distance 24.27 km</desc>
<time>2010-08-28T15:44:58.36</time>
<name>814</name>
</trkpt>
<trkpt lat="49.488895" lon="9.213188">
<ele>485.5</ele>
<speed>65.8</speed>
<course>17.7</course>
<desc>Speed 65.8 km/h Distance 24.30 km</desc>
<time>2010-08-28T15:45:00.36</time>
<name>815</name>
</trkpt>
<trkpt lat="49.489282" lon="9.213378">
<ele>497.0</ele>
<speed>65.8</speed>
<course>20.9</course>
<desc>Speed 65.8 km/h Distance 24.35 km</desc>
<time>2010-08-28T15:45:04.35</time>
<name>816</name>
</trkpt>
<trkpt lat="49.489653" lon="9.213597">
<ele>492.0</ele>
<speed>65.8</speed>
<course>15.4</course>
<desc>Speed 65.8 km/h Distance 24.39 km</desc>
<time>2010-08-28T15:45:10.34</time>
<name>817</name>
</trkpt>
<trkpt lat="49.489798" lon="9.213658">
<ele>498.5</ele>
<speed>65.8</speed>
<course>346.9</course>
<desc>Speed 65.8 km/h Distance 24.41 km</desc>
<time>2010-08-28T15:45:15.88</time>
<name>818</name>
</trkpt>
<trkpt lat="49.491905" lon="9.212902">
<ele>495.5</ele>
<speed>84.5</speed>
<course>4.2</course>
<desc>Speed 84.5 km/h Distance 24.65 km</desc>
<time>2010-08-28T15:45:21.34</time>
<name>819</name>
</trkpt>
<trkpt lat="49.494530" lon="9.213198">
<ele>497.0</ele>
<speed>78.0</speed>
<course>347.7</course>
<desc>Speed 78.0 km/h Distance 24.94 km</desc>
<time>2010-08-28T15:45:27.33</time>
<name>820</name>
</trkpt>
<trkpt lat="49.495063" lon="9.213020">
<ele>494.5</ele>
<speed>78.0</speed>
<course>342.9</course>
<desc>Speed 78.0 km/h Distance 25.01 km</desc>
<time>2010-08-28T15:45:33.34</time>
<name>821</name>
</trkpt>
<trkpt lat="49.496217" lon="9.212473">
<ele>492.5</ele>
<speed>78.0</speed>
<course>332.9</course>
<desc>Speed 78.0 km/h Distance 25.14 km</desc>
<time>2010-08-28T15:45:42.31</time>
<name>822</name>
</trkpt>
<trkpt lat="49.496570" lon="9.212195">
<ele>492.5</ele>
<speed>78.0</speed>
<course>344.7</course>
<desc>Speed 78.0 km/h Distance 25.18 km</desc>
<time>2010-08-28T15:45:44.31</time>
<name>823</name>
</trkpt>
<trkpt lat="49.497372" lon="9.211857">
<ele>493.0</ele>
<speed>78.0</speed>
<course>346.5</course>
<desc>Speed 78.0 km/h Distance 25.28 km</desc>
<time>2010-08-28T15:45:48.30</time>
<name>824</name>
</trkpt>
<trkpt lat="49.497797" lon="9.211700">
<ele>492.5</ele>
<speed>78.0</speed>
<course>358.4</course>
<desc>Speed 78.0 km/h Distance 25.33 km</desc>
<time>2010-08-28T15:45:53.32</time>
<name>825</name>
</trkpt>
<trkpt lat="49.500085" lon="9.211602">
<ele>492.5</ele>
<speed>82.5</speed>
<course>357.1</course>
<desc>Speed 82.5 km/h Distance 25.58 km</desc>
<time>2010-08-28T15:45:59.30</time>
<name>826</name>
</trkpt>
<trkpt lat="49.500432" lon="9.211575">
<ele>492.5</ele>
<speed>82.5</speed>
<course>5.6</course>
<desc>Speed 82.5 km/h Distance 25.62 km</desc>
<time>2010-08-28T15:46:01.30</time>
<name>827</name>
</trkpt>
<trkpt lat="49.501852" lon="9.211788">
<ele>492.0</ele>
<speed>82.5</speed>
<course>310.2</course>
<desc>Speed 82.5 km/h Distance 25.78 km</desc>
<time>2010-08-28T15:46:08.29</time>
<name>828</name>
</trkpt>
<trkpt lat="49.502152" lon="9.211242">
<ele>492.5</ele>
<speed>82.5</speed>
<course>340.3</course>
<desc>Speed 82.5 km/h Distance 25.83 km</desc>
<time>2010-08-28T15:46:10.29</time>
<name>829</name>
</trkpt>
<trkpt lat="49.503947" lon="9.210250">
<ele>492.0</ele>
<speed>82.5</speed>
<course>330.0</course>
<desc>Speed 82.5 km/h Distance 26.04 km</desc>
<time>2010-08-28T15:46:21.29</time>
<name>830</name>
</trkpt>
<trkpt lat="49.505303" lon="9.209043">
<ele>492.0</ele>
<speed>88.9</speed>
<course>336.4</course>
<desc>Speed 88.9 km/h Distance 26.22 km</desc>
<time>2010-08-28T15:46:26.29</time>
<name>831</name>
</trkpt>
<trkpt lat="49.505815" lon="9.208698">
<ele>492.0</ele>
<speed>88.9</speed>
<course>345.1</course>
<desc>Speed 88.9 km/h Distance 26.28 km</desc>
<time>2010-08-28T15:46:29.28</time>
<name>832</name>
</trkpt>
<trkpt lat="49.506300" lon="9.208500">
<ele>492.0</ele>
<speed>88.9</speed>
<course>353.8</course>
<desc>Speed 88.9 km/h Distance 26.33 km</desc>
<time>2010-08-28T15:46:34.29</time>
<name>833</name>
</trkpt>
<trkpt lat="49.507975" lon="9.208220">
<ele>491.5</ele>
<speed>88.9</speed>
<course>342.7</course>
<desc>Speed 88.9 km/h Distance 26.52 km</desc>
<time>2010-08-28T15:46:44.27</time>
<name>834</name>
</trkpt>
<trkpt lat="49.510200" lon="9.207155">
<ele>492.0</ele>
<speed>87.2</speed>
<course>354.4</course>
<desc>Speed 87.2 km/h Distance 26.78 km</desc>
<time>2010-08-28T15:46:50.27</time>
<name>835</name>
</trkpt>
<trkpt lat="49.511185" lon="9.207005">
<ele>493.0</ele>
<speed>87.2</speed>
<course>317.9</course>
<desc>Speed 87.2 km/h Distance 26.89 km</desc>
<time>2010-08-28T15:46:54.26</time>
<name>836</name>
</trkpt>
<trkpt lat="49.512620" lon="9.205007">
<ele>494.0</ele>
<speed>87.2</speed>
<course>336.8</course>
<desc>Speed 87.2 km/h Distance 27.11 km</desc>
<time>2010-08-28T15:47:10.26</time>
<name>837</name>
</trkpt>
<trkpt lat="49.514333" lon="9.203875">
<ele>494.0</ele>
<speed>78.3</speed>
<course>358.1</course>
<desc>Speed 78.3 km/h Distance 27.31 km</desc>
<time>2010-08-28T15:47:16.26</time>
<name>838</name>
</trkpt>
<trkpt lat="49.514862" lon="9.203848">
<ele>493.5</ele>
<speed>60.7</speed>
<course>15.1</course>
<desc>Speed 60.7 km/h Distance 27.37 km</desc>
<time>2010-08-28T15:47:19.26</time>
<name>839</name>
</trkpt>
<trkpt lat="49.515010" lon="9.203910">
<ele>493.5</ele>
<speed>58.4</speed>
<course>3.1</course>
<desc>Speed 58.4 km/h Distance 27.39 km</desc>
<time>2010-08-28T15:47:20.26</time>
<name>840</name>
</trkpt>
<trkpt lat="49.515170" lon="9.203923">
<ele>493.5</ele>
<speed>59.5</speed>
<course>0.0</course>
<desc>Speed 59.5 km/h Distance 27.41 km</desc>
<time>2010-08-28T15:47:21.25</time>
<name>841</name>
</trkpt>
<trkpt lat="49.515317" lon="9.203923">
<ele>493.5</ele>
<speed>57.7</speed>
<course>2.5</course>
<desc>Speed 57.7 km/h Distance 27.42 km</desc>
<time>2010-08-28T15:47:22.25</time>
<name>842</name>
</trkpt>
<trkpt lat="49.515463" lon="9.203933">
<ele>493.5</ele>
<speed>57.1</speed>
<course>359.2</course>
<desc>Speed 57.1 km/h Distance 27.44 km</desc>
<time>2010-08-28T15:47:23.25</time>
<name>843</name>
</trkpt>
<trkpt lat="49.515617" lon="9.203930">
<ele>494.0</ele>
<speed>58.2</speed>
<course>2.9</course>
<desc>Speed 58.2 km/h Distance 27.46 km</desc>
<time>2010-08-28T15:47:24.25</time>
<name>844</name>
</trkpt>
<trkpt lat="49.515765" lon="9.203942">
<ele>494.0</ele>
<speed>57.1</speed>
<course>8.0</course>
<desc>Speed 57.1 km/h Distance 27.47 km</desc>
<time>2010-08-28T15:47:25.25</time>
<name>845</name>
</trkpt>
<trkpt lat="49.515988" lon="9.203990">
<ele>494.5</ele>
<speed>57.1</speed>
<course>38.0</course>
<desc>Speed 57.1 km/h Distance 27.50 km</desc>
<time>2010-08-28T15:47:27.26</time>
<name>846</name>
</trkpt>
<trkpt lat="49.516260" lon="9.204317">
<ele>494.0</ele>
<speed>67.2</speed>
<course>54.6</course>
<desc>Speed 67.2 km/h Distance 27.54 km</desc>
<time>2010-08-28T15:47:29.25</time>
<name>847</name>
</trkpt>
<trkpt lat="49.516360" lon="9.204533">
<ele>494.5</ele>
<speed>66.1</speed>
<course>64.0</course>
<desc>Speed 66.1 km/h Distance 27.56 km</desc>
<time>2010-08-28T15:47:30.25</time>
<name>848</name>
</trkpt>
<trkpt lat="49.516488" lon="9.204938">
<ele>496.5</ele>
<speed>54.8</speed>
<course>67.9</course>
<desc>Speed 54.8 km/h Distance 27.59 km</desc>
<time>2010-08-28T15:47:32.25</time>
<name>849</name>
</trkpt>
<trkpt lat="49.516537" lon="9.205122">
<ele>496.5</ele>
<speed>49.3</speed>
<course>70.9</course>
<desc>Speed 49.3 km/h Distance 27.60 km</desc>
<time>2010-08-28T15:47:33.24</time>
<name>850</name>
</trkpt>
<trkpt lat="49.516603" lon="9.205418">
<ele>497.0</ele>
<speed>36.4</speed>
<course>63.0</course>
<desc>Speed 36.4 km/h Distance 27.63 km</desc>
<time>2010-08-28T15:47:35.24</time>
<name>851</name>
</trkpt>
<trkpt lat="49.516668" lon="9.205615">
<ele>497.0</ele>
<speed>17.6</speed>
<course>50.5</course>
<desc>Speed 17.6 km/h Distance 27.64 km</desc>
<time>2010-08-28T15:47:38.24</time>
<name>852</name>
</trkpt>
<trkpt lat="49.516693" lon="9.205662">
<ele>497.5</ele>
<speed>17.6</speed>
<course>52.4</course>
<desc>Speed 17.6 km/h Distance 27.65 km</desc>
<time>2010-08-28T15:47:39.25</time>
<name>853</name>
</trkpt>
<trkpt lat="49.516710" lon="9.205695">
<ele>497.5</ele>
<speed>17.6</speed>
<course>299.4</course>
<desc>Speed 17.6 km/h Distance 27.65 km</desc>
<time>2010-08-28T15:47:40.24</time>
<name>854</name>
</trkpt>
<trkpt lat="49.517242" lon="9.204240">
<ele>498.5</ele>
<speed>17.6</speed>
<course>357.9</course>
<desc>Speed 17.6 km/h Distance 27.77 km</desc>
<time>2010-08-28T15:47:48.24</time>
<name>855</name>
</trkpt>
<trkpt lat="49.518978" lon="9.204143">
<ele>498.5</ele>
<speed>84.0</speed>
<course>356.7</course>
<desc>Speed 84.0 km/h Distance 27.96 km</desc>
<time>2010-08-28T15:47:54.24</time>
<name>856</name>
</trkpt>
<trkpt lat="49.519597" lon="9.204088">
<ele>500.5</ele>
<speed>84.0</speed>
<course>12.0</course>
<desc>Speed 84.0 km/h Distance 28.03 km</desc>
<time>2010-08-28T15:48:00.23</time>
<name>857</name>
</trkpt>
<trkpt lat="49.520543" lon="9.204398">
<ele>505.0</ele>
<speed>84.0</speed>
<course>22.8</course>
<desc>Speed 84.0 km/h Distance 28.14 km</desc>
<time>2010-08-28T15:48:06.21</time>
<name>858</name>
</trkpt>
<trkpt lat="49.521930" lon="9.205295">
<ele>507.5</ele>
<speed>133</speed>
<course>352.5</course>
<desc>Speed 133 km/h Distance 28.31 km</desc>
<time>2010-08-28T15:48:10.22</time>
<name>859</name>
</trkpt>
<trkpt lat="49.522772" lon="9.205125">
<ele>508.0</ele>
<speed>133</speed>
<course>353.1</course>
<desc>Speed 133 km/h Distance 28.40 km</desc>
<time>2010-08-28T15:48:12.21</time>
<name>860</name>
</trkpt>
<trkpt lat="49.523462" lon="9.204997">
<ele>508.5</ele>
<speed>133</speed>
<course>356.1</course>
<desc>Speed 133 km/h Distance 28.48 km</desc>
<time>2010-08-28T15:48:14.21</time>
<name>861</name>
</trkpt>
<trkpt lat="49.525432" lon="9.204788">
<ele>506.0</ele>
<speed>116</speed>
<course>359.9</course>
<desc>Speed 116 km/h Distance 28.70 km</desc>
<time>2010-08-28T15:48:19.22</time>
<name>862</name>
</trkpt>
<trkpt lat="49.526745" lon="9.204785">
<ele>506.5</ele>
<speed>69.4</speed>
<course>359.1</course>
<desc>Speed 69.4 km/h Distance 28.85 km</desc>
<time>2010-08-28T15:48:25.21</time>
<name>863</name>
</trkpt>
<trkpt lat="49.527080" lon="9.204777">
<ele>507.0</ele>
<speed>69.4</speed>
<course>355.6</course>
<desc>Speed 69.4 km/h Distance 28.88 km</desc>
<time>2010-08-28T15:48:27.20</time>
<name>864</name>
</trkpt>
<trkpt lat="49.527463" lon="9.204732">
<ele>507.5</ele>
<speed>59.8</speed>
<course>352.1</course>
<desc>Speed 59.8 km/h Distance 28.93 km</desc>
<time>2010-08-28T15:48:29.20</time>
<name>865</name>
</trkpt>
<trkpt lat="49.527815" lon="9.204657">
<ele>507.0</ele>
<speed>66.7</speed>
<course>347.4</course>
<desc>Speed 66.7 km/h Distance 28.97 km</desc>
<time>2010-08-28T15:48:31.20</time>
<name>866</name>
</trkpt>
<trkpt lat="49.528172" lon="9.204533">
<ele>508.0</ele>
<speed>67.0</speed>
<course>342.0</course>
<desc>Speed 67.0 km/h Distance 29.01 km</desc>
<time>2010-08-28T15:48:33.20</time>
<name>867</name>
</trkpt>
<trkpt lat="49.528338" lon="9.204450">
<ele>507.5</ele>
<speed>66.7</speed>
<course>341.9</course>
<desc>Speed 66.7 km/h Distance 29.03 km</desc>
<time>2010-08-28T15:48:34.21</time>
<name>868</name>
</trkpt>
<trkpt lat="49.528507" lon="9.204365">
<ele>507.0</ele>
<speed>66.8</speed>
<course>340.3</course>
<desc>Speed 66.8 km/h Distance 29.05 km</desc>
<time>2010-08-28T15:48:35.20</time>
<name>869</name>
</trkpt>
<trkpt lat="49.528667" lon="9.204277">
<ele>505.0</ele>
<speed>66.5</speed>
<course>341.8</course>
<desc>Speed 66.5 km/h Distance 29.06 km</desc>
<time>2010-08-28T15:48:36.20</time>
<name>870</name>
</trkpt>
<trkpt lat="49.528828" lon="9.204195">
<ele>504.0</ele>
<speed>66.9</speed>
<course>343.9</course>
<desc>Speed 66.9 km/h Distance 29.08 km</desc>
<time>2010-08-28T15:48:37.21</time>
<name>871</name>
</trkpt>
<trkpt lat="49.528990" lon="9.204123">
<ele>504.0</ele>
<speed>66.9</speed>
<course>344.7</course>
<desc>Speed 66.9 km/h Distance 29.10 km</desc>
<time>2010-08-28T15:48:38.20</time>
<name>872</name>
</trkpt>
<trkpt lat="49.529152" lon="9.204055">
<ele>503.5</ele>
<speed>66.7</speed>
<course>348.0</course>
<desc>Speed 66.7 km/h Distance 29.12 km</desc>
<time>2010-08-28T15:48:39.20</time>
<name>873</name>
</trkpt>
<trkpt lat="49.529315" lon="9.204002">
<ele>503.5</ele>
<speed>66.4</speed>
<course>350.9</course>
<desc>Speed 66.4 km/h Distance 29.14 km</desc>
<time>2010-08-28T15:48:40.21</time>
<name>874</name>
</trkpt>
<trkpt lat="49.529477" lon="9.203962">
<ele>503.0</ele>
<speed>64.4</speed>
<course>343.7</course>
<desc>Speed 64.4 km/h Distance 29.16 km</desc>
<time>2010-08-28T15:48:41.21</time>
<name>875</name>
</trkpt>
<trkpt lat="49.529772" lon="9.203828">
<ele>503.0</ele>
<speed>68.1</speed>
<course>354.4</course>
<desc>Speed 68.1 km/h Distance 29.19 km</desc>
<time>2010-08-28T15:48:43.20</time>
<name>876</name>
</trkpt>
<trkpt lat="49.529938" lon="9.203803">
<ele>503.0</ele>
<speed>66.2</speed>
<course>352.7</course>
<desc>Speed 66.2 km/h Distance 29.21 km</desc>
<time>2010-08-28T15:48:44.19</time>
<name>877</name>
</trkpt>
<trkpt lat="49.530225" lon="9.203747">
<ele>503.0</ele>
<speed>60.1</speed>
<course>349.5</course>
<desc>Speed 60.1 km/h Distance 29.24 km</desc>
<time>2010-08-28T15:48:46.20</time>
<name>878</name>
</trkpt>
<trkpt lat="49.530365" lon="9.203707">
<ele>503.5</ele>
<speed>56.6</speed>
<course>349.4</course>
<desc>Speed 56.6 km/h Distance 29.26 km</desc>
<time>2010-08-28T15:48:47.19</time>
<name>879</name>
</trkpt>
<trkpt lat="49.530498" lon="9.203668">
<ele>504.0</ele>
<speed>53.1</speed>
<course>350.3</course>
<desc>Speed 53.1 km/h Distance 29.27 km</desc>
<time>2010-08-28T15:48:48.19</time>
<name>880</name>
</trkpt>
<trkpt lat="49.530625" lon="9.203635">
<ele>504.5</ele>
<speed>50.1</speed>
<course>349.8</course>
<desc>Speed 50.1 km/h Distance 29.29 km</desc>
<time>2010-08-28T15:48:49.20</time>
<name>881</name>
</trkpt>
<trkpt lat="49.530745" lon="9.203602">
<ele>505.0</ele>
<speed>47.3</speed>
<course>350.5</course>
<desc>Speed 47.3 km/h Distance 29.30 km</desc>
<time>2010-08-28T15:48:50.20</time>
<name>882</name>
</trkpt>
<trkpt lat="49.530855" lon="9.203573">
<ele>505.0</ele>
<speed>43.2</speed>
<course>354.7</course>
<desc>Speed 43.2 km/h Distance 29.31 km</desc>
<time>2010-08-28T15:48:51.19</time>
<name>883</name>
</trkpt>
<trkpt lat="49.530960" lon="9.203558">
<ele>505.0</ele>
<speed>39.4</speed>
<course>357.3</course>
<desc>Speed 39.4 km/h Distance 29.33 km</desc>
<time>2010-08-28T15:48:52.19</time>
<name>884</name>
</trkpt>
<trkpt lat="49.531052" lon="9.203552">
<ele>505.0</ele>
<speed>34.2</speed>
<course>0.0</course>
<desc>Speed 34.2 km/h Distance 29.34 km</desc>
<time>2010-08-28T15:48:53.19</time>
<name>885</name>
</trkpt>
<trkpt lat="49.531123" lon="9.203552">
<ele>505.0</ele>
<speed>28.9</speed>
<course>27.3</course>
<desc>Speed 28.9 km/h Distance 29.34 km</desc>
<time>2010-08-28T15:48:54.18</time>
<name>886</name>
</trkpt>
<trkpt lat="49.531180" lon="9.203597">
<ele>505.0</ele>
<speed>25.1</speed>
<course>21.0</course>
<desc>Speed 25.1 km/h Distance 29.35 km</desc>
<time>2010-08-28T15:48:55.19</time>
<name>887</name>
</trkpt>
<trkpt lat="49.531307" lon="9.203672">
<ele>505.5</ele>
<speed>18.2</speed>
<course>28.7</course>
<desc>Speed 18.2 km/h Distance 29.37 km</desc>
<time>2010-08-28T15:48:57.18</time>
<name>888</name>
</trkpt>
<trkpt lat="49.531338" lon="9.203698">
<ele>505.0</ele>
<speed>18.2</speed>
<course>12.2</course>
<desc>Speed 18.2 km/h Distance 29.37 km</desc>
<time>2010-08-28T15:48:58.19</time>
<name>889</name>
</trkpt>
<trkpt lat="49.531393" lon="9.203717">
<ele>505.0</ele>
<speed>22.1</speed>
<course>6.2</course>
<desc>Speed 22.1 km/h Distance 29.38 km</desc>
<time>2010-08-28T15:48:59.19</time>
<name>890</name>
</trkpt>
<trkpt lat="49.531443" lon="9.203725">
<ele>505.0</ele>
<speed>19.3</speed>
<course>6.0</course>
<desc>Speed 19.3 km/h Distance 29.38 km</desc>
<time>2010-08-28T15:49:00.19</time>
<name>891</name>
</trkpt>
<trkpt lat="49.531485" lon="9.203732">
<ele>505.0</ele>
<speed>19.3</speed>
<course>22.1</course>
<desc>Speed 19.3 km/h Distance 29.39 km</desc>
<time>2010-08-28T15:49:01.19</time>
<name>892</name>
</trkpt>
<trkpt lat="49.531730" lon="9.203885">
<ele>504.5</ele>
<speed>34.6</speed>
<course>30.9</course>
<desc>Speed 34.6 km/h Distance 29.42 km</desc>
<time>2010-08-28T15:49:04.19</time>
<name>893</name>
</trkpt>
<trkpt lat="49.531817" lon="9.203965">
<ele>504.5</ele>
<speed>37.0</speed>
<course>30.3</course>
<desc>Speed 37.0 km/h Distance 29.43 km</desc>
<time>2010-08-28T15:49:05.18</time>
<name>894</name>
</trkpt>
<trkpt lat="49.531900" lon="9.204040">
<ele>504.5</ele>
<speed>38.2</speed>
<course>38.1</course>
<desc>Speed 38.2 km/h Distance 29.44 km</desc>
<time>2010-08-28T15:49:06.17</time>
<name>895</name>
</trkpt>
<trkpt lat="49.531980" lon="9.204137">
<ele>504.5</ele>
<speed>39.9</speed>
<course>36.7</course>
<desc>Speed 39.9 km/h Distance 29.45 km</desc>
<time>2010-08-28T15:49:07.18</time>
<name>896</name>
</trkpt>
<trkpt lat="49.532047" lon="9.204213">
<ele>504.5</ele>
<speed>39.9</speed>
<course>40.6</course>
<desc>Speed 39.9 km/h Distance 29.46 km</desc>
<time>2010-08-28T15:49:08.18</time>
<name>897</name>
</trkpt>
<trkpt lat="49.532130" lon="9.204323">
<ele>505.0</ele>
<speed>42.6</speed>
<course>39.2</course>
<desc>Speed 42.6 km/h Distance 29.47 km</desc>
<time>2010-08-28T15:49:09.19</time>
<name>898</name>
</trkpt>
<trkpt lat="49.532202" lon="9.204413">
<ele>505.5</ele>
<speed>42.6</speed>
<course>40.5</course>
<desc>Speed 42.6 km/h Distance 29.48 km</desc>
<time>2010-08-28T15:49:10.19</time>
<name>899</name>
</trkpt>
<trkpt lat="49.532270" lon="9.204503">
<ele>506.0</ele>
<speed>42.6</speed>
<course>35.1</course>
<desc>Speed 42.6 km/h Distance 29.49 km</desc>
<time>2010-08-28T15:49:11.18</time>
<name>900</name>
</trkpt>
<trkpt lat="49.532372" lon="9.204613">
<ele>505.5</ele>
<speed>44.0</speed>
<course>60.6</course>
<desc>Speed 44.0 km/h Distance 29.50 km</desc>
<time>2010-08-28T15:49:12.18</time>
<name>901</name>
</trkpt>
<trkpt lat="49.532433" lon="9.204782">
<ele>506.5</ele>
<speed>49.4</speed>
<course>59.2</course>
<desc>Speed 49.4 km/h Distance 29.52 km</desc>
<time>2010-08-28T15:49:13.18</time>
<name>902</name>
</trkpt>
<trkpt lat="49.532493" lon="9.204937">
<ele>507.0</ele>
<speed>45.7</speed>
<course>52.4</course>
<desc>Speed 45.7 km/h Distance 29.53 km</desc>
<time>2010-08-28T15:49:14.18</time>
<name>903</name>
</trkpt>
<trkpt lat="49.532563" lon="9.205077">
<ele>506.5</ele>
<speed>46.3</speed>
<course>56.5</course>
<desc>Speed 46.3 km/h Distance 29.54 km</desc>
<time>2010-08-28T15:49:15.17</time>
<name>904</name>
</trkpt>
<trkpt lat="49.532625" lon="9.205220">
<ele>506.5</ele>
<speed>45.2</speed>
<course>38.8</course>
<desc>Speed 45.2 km/h Distance 29.56 km</desc>
<time>2010-08-28T15:49:16.18</time>
<name>905</name>
</trkpt>
<trkpt lat="49.532813" lon="9.205453">
<ele>506.5</ele>
<speed>55.0</speed>
<course>65.5</course>
<desc>Speed 55.0 km/h Distance 29.58 km</desc>
<time>2010-08-28T15:49:18.17</time>
<name>906</name>
</trkpt>
<trkpt lat="49.532925" lon="9.205832">
<ele>505.0</ele>
<speed>34.8</speed>
<course>83.1</course>
<desc>Speed 34.8 km/h Distance 29.61 km</desc>
<time>2010-08-28T15:49:22.17</time>
<name>907</name>
</trkpt>
<trkpt lat="49.532947" lon="9.206107">
<ele>502.5</ele>
<speed>42.9</speed>
<course>103.5</course>
<desc>Speed 42.9 km/h Distance 29.63 km</desc>
<time>2010-08-28T15:49:24.17</time>
<name>908</name>
</trkpt>
<trkpt lat="49.532848" lon="9.206740">
<ele>497.0</ele>
<speed>55.7</speed>
<course>108.8</course>
<desc>Speed 55.7 km/h Distance 29.68 km</desc>
<time>2010-08-28T15:49:27.17</time>
<name>909</name>
</trkpt>
<trkpt lat="49.532743" lon="9.207215">
<ele>493.5</ele>
<speed>35.1</speed>
<course>110.7</course>
<desc>Speed 35.1 km/h Distance 29.72 km</desc>
<time>2010-08-28T15:49:31.16</time>
<name>910</name>
</trkpt>
<trkpt lat="49.532605" lon="9.207780">
<ele>493.0</ele>
<speed>44.7</speed>
<course>104.2</course>
<desc>Speed 44.7 km/h Distance 29.76 km</desc>
<time>2010-08-28T15:49:34.16</time>
<name>911</name>
</trkpt>
<trkpt lat="49.532558" lon="9.208063">
<ele>493.0</ele>
<speed>31.4</speed>
<course>103.0</course>
<desc>Speed 31.4 km/h Distance 29.78 km</desc>
<time>2010-08-28T15:49:36.16</time>
<name>912</name>
</trkpt>
<trkpt lat="49.532515" lon="9.208352">
<ele>495.5</ele>
<speed>33.0</speed>
<course>101.0</course>
<desc>Speed 33.0 km/h Distance 29.80 km</desc>
<time>2010-08-28T15:49:38.16</time>
<name>913</name>
</trkpt>
<trkpt lat="49.532475" lon="9.208670">
<ele>495.0</ele>
<speed>32.1</speed>
<course>104.0</course>
<desc>Speed 32.1 km/h Distance 29.83 km</desc>
<time>2010-08-28T15:49:40.16</time>
<name>914</name>
</trkpt>
<trkpt lat="49.532308" lon="9.209703">
<ele>492.0</ele>
<speed>66.7</speed>
<course>110.0</course>
<desc>Speed 66.7 km/h Distance 29.90 km</desc>
<time>2010-08-28T15:49:45.16</time>
<name>915</name>
</trkpt>
<trkpt lat="49.532185" lon="9.210225">
<ele>498.5</ele>
<speed>66.7</speed>
<course>79.4</course>
<desc>Speed 66.7 km/h Distance 29.94 km</desc>
<time>2010-08-28T15:49:48.16</time>
<name>916</name>
</trkpt>
<trkpt lat="49.532233" lon="9.210622">
<ele>490.5</ele>
<speed>66.7</speed>
<course>91.1</course>
<desc>Speed 66.7 km/h Distance 29.97 km</desc>
<time>2010-08-28T15:49:50.16</time>
<name>917</name>
</trkpt>
<trkpt lat="49.532215" lon="9.212075">
<ele>484.0</ele>
<speed>85.0</speed>
<course>93.5</course>
<desc>Speed 85.0 km/h Distance 30.08 km</desc>
<time>2010-08-28T15:49:54.16</time>
<name>918</name>
</trkpt>
<trkpt lat="49.532130" lon="9.214237">
<ele>499.0</ele>
<speed>115</speed>
<course>99.4</course>
<desc>Speed 115 km/h Distance 30.23 km</desc>
<time>2010-08-28T15:49:59.15</time>
<name>919</name>
</trkpt>
<trkpt lat="49.531972" lon="9.215708">
<ele>500.0</ele>
<speed>115</speed>
<course>107.2</course>
<desc>Speed 115 km/h Distance 30.34 km</desc>
<time>2010-08-28T15:50:02.15</time>
<name>920</name>
</trkpt>
<trkpt lat="49.531793" lon="9.216598">
<ele>501.0</ele>
<speed>115</speed>
<course>101.7</course>
<desc>Speed 115 km/h Distance 30.41 km</desc>
<time>2010-08-28T15:50:04.15</time>
<name>921</name>
</trkpt>
<trkpt lat="49.531442" lon="9.219213">
<ele>502.5</ele>
<speed>133</speed>
<course>96.2</course>
<desc>Speed 133 km/h Distance 30.60 km</desc>
<time>2010-08-28T15:50:09.15</time>
<name>922</name>
</trkpt>
<trkpt lat="49.531407" lon="9.219713">
<ele>502.0</ele>
<speed>131</speed>
<course>96.7</course>
<desc>Speed 131 km/h Distance 30.64 km</desc>
<time>2010-08-28T15:50:10.15</time>
<name>923</name>
</trkpt>
<trkpt lat="49.531283" lon="9.221328">
<ele>501.0</ele>
<speed>106</speed>
<course>95.7</course>
<desc>Speed 106 km/h Distance 30.76 km</desc>
<time>2010-08-28T15:50:14.14</time>
<name>924</name>
</trkpt>
<trkpt lat="49.531205" lon="9.222535">
<ele>501.0</ele>
<speed>106</speed>
<course>96.3</course>
<desc>Speed 106 km/h Distance 30.84 km</desc>
<time>2010-08-28T15:50:17.15</time>
<name>925</name>
</trkpt>
<trkpt lat="49.531150" lon="9.223307">
<ele>502.0</ele>
<speed>104</speed>
<course>95.6</course>
<desc>Speed 104 km/h Distance 30.90 km</desc>
<time>2010-08-28T15:50:19.14</time>
<name>926</name>
</trkpt>
<trkpt lat="49.531057" lon="9.224765">
<ele>509.5</ele>
<speed>111</speed>
<course>80.1</course>
<desc>Speed 111 km/h Distance 31.01 km</desc>
<time>2010-08-28T15:50:23.13</time>
<name>927</name>
</trkpt>
<trkpt lat="49.531143" lon="9.225528">
<ele>508.5</ele>
<speed>111</speed>
<course>78.6</course>
<desc>Speed 111 km/h Distance 31.06 km</desc>
<time>2010-08-28T15:50:25.13</time>
<name>928</name>
</trkpt>
<trkpt lat="49.531333" lon="9.226985">
<ele>506.5</ele>
<speed>111</speed>
<course>55.7</course>
<desc>Speed 111 km/h Distance 31.17 km</desc>
<time>2010-08-28T15:50:30.13</time>
<name>929</name>
</trkpt>
<trkpt lat="49.531550" lon="9.227475">
<ele>504.0</ele>
<speed>111</speed>
<course>57.0</course>
<desc>Speed 111 km/h Distance 31.21 km</desc>
<time>2010-08-28T15:50:35.13</time>
<name>930</name>
</trkpt>
<trkpt lat="49.531708" lon="9.227850">
<ele>499.0</ele>
<speed>111</speed>
<course>78.0</course>
<desc>Speed 111 km/h Distance 31.24 km</desc>
<time>2010-08-28T15:50:41.12</time>
<name>931</name>
</trkpt>
<trkpt lat="49.531895" lon="9.229203">
<ele>498.0</ele>
<speed>115</speed>
<course>45.5</course>
<desc>Speed 115 km/h Distance 31.34 km</desc>
<time>2010-08-28T15:50:44.12</time>
<name>932</name>
</trkpt>
<trkpt lat="49.532632" lon="9.230357">
<ele>497.0</ele>
<speed>115</speed>
<course>59.9</course>
<desc>Speed 115 km/h Distance 31.46 km</desc>
<time>2010-08-28T15:50:50.11</time>
<name>933</name>
</trkpt>
<trkpt lat="49.533725" lon="9.233267">
<ele>491.5</ele>
<speed>114</speed>
<course>59.4</course>
<desc>Speed 114 km/h Distance 31.70 km</desc>
<time>2010-08-28T15:50:55.11</time>
<name>934</name>
</trkpt>
<trkpt lat="49.534793" lon="9.236045">
<ele>487.5</ele>
<speed>71.0</speed>
<course>69.2</course>
<desc>Speed 71.0 km/h Distance 31.94 km</desc>
<time>2010-08-28T15:51:01.11</time>
<name>935</name>
</trkpt>
<trkpt lat="49.535017" lon="9.236952">
<ele>488.0</ele>
<speed>60.5</speed>
<course>74.8</course>
<desc>Speed 60.5 km/h Distance 32.01 km</desc>
<time>2010-08-28T15:51:06.11</time>
<name>936</name>
</trkpt>
<trkpt lat="49.535160" lon="9.237765">
<ele>488.0</ele>
<speed>60.7</speed>
<course>76.7</course>
<desc>Speed 60.7 km/h Distance 32.07 km</desc>
<time>2010-08-28T15:51:09.10</time>
<name>937</name>
</trkpt>
<trkpt lat="49.535198" lon="9.238015">
<ele>488.0</ele>
<speed>60.7</speed>
<course>102.3</course>
<desc>Speed 60.7 km/h Distance 32.09 km</desc>
<time>2010-08-28T15:51:10.09</time>
<name>938</name>
</trkpt>
<trkpt lat="49.534565" lon="9.242495">
<ele>487.5</ele>
<speed>60.7</speed>
<course>86.4</course>
<desc>Speed 60.7 km/h Distance 32.42 km</desc>
<time>2010-08-28T15:51:15.09</time>
<name>939</name>
</trkpt>
<trkpt lat="49.534597" lon="9.243272">
<ele>487.0</ele>
<speed>60.7</speed>
<course>108.4</course>
<desc>Speed 60.7 km/h Distance 32.47 km</desc>
<time>2010-08-28T15:51:18.09</time>
<name>940</name>
</trkpt>
<trkpt lat="49.534547" lon="9.243503">
<ele>487.0</ele>
<speed>60.7</speed>
<course>105.2</course>
<desc>Speed 60.7 km/h Distance 32.49 km</desc>
<time>2010-08-28T15:51:19.10</time>
<name>941</name>
</trkpt>
<trkpt lat="49.534138" lon="9.245817">
<ele>486.5</ele>
<speed>40.0</speed>
<course>63.8</course>
<desc>Speed 40.0 km/h Distance 32.67 km</desc>
<time>2010-08-28T15:51:25.08</time>
<name>942</name>
</trkpt>
<trkpt lat="49.534187" lon="9.245968">
<ele>486.5</ele>
<speed>42.5</speed>
<course>65.2</course>
<desc>Speed 42.5 km/h Distance 32.68 km</desc>
<time>2010-08-28T15:51:26.07</time>
<name>943</name>
</trkpt>
<trkpt lat="49.534378" lon="9.246608">
<ele>486.5</ele>
<speed>59.1</speed>
<course>82.1</course>
<desc>Speed 59.1 km/h Distance 32.73 km</desc>
<time>2010-08-28T15:51:29.09</time>
<name>944</name>
</trkpt>
<trkpt lat="49.534490" lon="9.247853">
<ele>488.5</ele>
<speed>72.9</speed>
<course>85.1</course>
<desc>Speed 72.9 km/h Distance 32.82 km</desc>
<time>2010-08-28T15:51:33.08</time>
<name>945</name>
</trkpt>
<trkpt lat="49.534505" lon="9.248122">
<ele>489.5</ele>
<speed>72.9</speed>
<course>90.6</course>
<desc>Speed 72.9 km/h Distance 32.84 km</desc>
<time>2010-08-28T15:51:34.08</time>
<name>946</name>
</trkpt>
<trkpt lat="49.534503" lon="9.248383">
<ele>491.5</ele>
<speed>72.9</speed>
<course>97.8</course>
<desc>Speed 72.9 km/h Distance 32.86 km</desc>
<time>2010-08-28T15:51:35.07</time>
<name>947</name>
</trkpt>
<trkpt lat="49.534435" lon="9.249155">
<ele>495.0</ele>
<speed>72.9</speed>
<course>111.8</course>
<desc>Speed 72.9 km/h Distance 32.91 km</desc>
<time>2010-08-28T15:51:39.07</time>
<name>948</name>
</trkpt>
<trkpt lat="49.534322" lon="9.249592">
<ele>495.5</ele>
<speed>72.9</speed>
<course>101.1</course>
<desc>Speed 72.9 km/h Distance 32.95 km</desc>
<time>2010-08-28T15:51:41.06</time>
<name>949</name>
</trkpt>
<trkpt lat="49.534200" lon="9.250545">
<ele>498.0</ele>
<speed>86.8</speed>
<course>94.8</course>
<desc>Speed 86.8 km/h Distance 33.02 km</desc>
<time>2010-08-28T15:51:44.06</time>
<name>950</name>
</trkpt>
<trkpt lat="49.534147" lon="9.251525">
<ele>496.0</ele>
<speed>86.8</speed>
<course>91.5</course>
<desc>Speed 86.8 km/h Distance 33.09 km</desc>
<time>2010-08-28T15:51:47.06</time>
<name>951</name>
</trkpt>
<trkpt lat="49.534130" lon="9.252537">
<ele>496.5</ele>
<speed>59.5</speed>
<course>96.0</course>
<desc>Speed 59.5 km/h Distance 33.16 km</desc>
<time>2010-08-28T15:51:51.06</time>
<name>952</name>
</trkpt>
<trkpt lat="49.534095" lon="9.253052">
<ele>497.5</ele>
<speed>59.5</speed>
<course>90.7</course>
<desc>Speed 59.5 km/h Distance 33.20 km</desc>
<time>2010-08-28T15:51:53.06</time>
<name>953</name>
</trkpt>
<trkpt lat="49.534093" lon="9.253255">
<ele>500.0</ele>
<speed>59.5</speed>
<course>11.8</course>
<desc>Speed 59.5 km/h Distance 33.21 km</desc>
<time>2010-08-28T15:51:54.05</time>
<name>954</name>
</trkpt>
<trkpt lat="49.534317" lon="9.253327">
<ele>501.0</ele>
<speed>63.1</speed>
<course>323.1</course>
<desc>Speed 63.1 km/h Distance 33.24 km</desc>
<time>2010-08-28T15:52:00.05</time>
<name>955</name>
</trkpt>
<trkpt lat="49.534433" lon="9.253192">
<ele>500.0</ele>
<speed>63.1</speed>
<course>315.3</course>
<desc>Speed 63.1 km/h Distance 33.26 km</desc>
<time>2010-08-28T15:52:01.05</time>
<name>956</name>
</trkpt>
<trkpt lat="49.534538" lon="9.253032">
<ele>500.5</ele>
<speed>63.1</speed>
<course>325.0</course>
<desc>Speed 63.1 km/h Distance 33.27 km</desc>
<time>2010-08-28T15:52:02.05</time>
<name>957</name>
</trkpt>
<trkpt lat="49.535055" lon="9.252473">
<ele>500.0</ele>
<speed>66.5</speed>
<course>318.0</course>
<desc>Speed 66.5 km/h Distance 33.34 km</desc>
<time>2010-08-28T15:52:05.04</time>
<name>958</name>
</trkpt>
<trkpt lat="49.535172" lon="9.252312">
<ele>498.0</ele>
<speed>66.5</speed>
<course>319.4</course>
<desc>Speed 66.5 km/h Distance 33.36 km</desc>
<time>2010-08-28T15:52:06.04</time>
<name>959</name>
</trkpt>
<trkpt lat="49.535373" lon="9.252045">
<ele>492.5</ele>
<speed>66.5</speed>
<course>299.5</course>
<desc>Speed 66.5 km/h Distance 33.39 km</desc>
<time>2010-08-28T15:52:08.04</time>
<name>960</name>
</trkpt>
<trkpt lat="49.535593" lon="9.251447">
<ele>490.5</ele>
<speed>68.0</speed>
<course>306.3</course>
<desc>Speed 68.0 km/h Distance 33.44 km</desc>
<time>2010-08-28T15:52:11.04</time>
<name>961</name>
</trkpt>
<trkpt lat="49.536335" lon="9.249892">
<ele>503.0</ele>
<speed>62.1</speed>
<course>306.6</course>
<desc>Speed 62.1 km/h Distance 33.58 km</desc>
<time>2010-08-28T15:52:16.04</time>
<name>962</name>
</trkpt>
<trkpt lat="49.536692" lon="9.249152">
<ele>510.0</ele>
<speed>16.3</speed>
<course>300.7</course>
<desc>Speed 16.3 km/h Distance 33.65 km</desc>
<time>2010-08-28T15:52:22.03</time>
<name>963</name>
</trkpt>
<trkpt lat="49.536708" lon="9.249108">
<ele>512.5</ele>
<speed>3.5</speed>
<course>11.2</course>
<desc>Speed 3.5 km/h Distance 33.65 km</desc>
<time>2010-08-28T15:52:24.03</time>
<name>964</name>
</trkpt>
<trkpt lat="49.536720" lon="9.249112">
<ele>512.5</ele>
<speed>1.1</speed>
<course>322.8</course>
<desc>Speed 1.1 km/h Distance 33.65 km</desc>
<time>2010-08-28T15:52:25.02</time>
<name>965</name>
</trkpt>
<trkpt lat="49.536722" lon="9.249110">
<ele>512.5</ele>
<speed>0.3</speed>
<course>331.4</course>
<desc>Speed 0.3 km/h Distance 33.65 km</desc>
<time>2010-08-28T15:52:26.03</time>
<name>966</name>
</trkpt>
<trkpt lat="49.536732" lon="9.249102">
<ele>512.0</ele>
<speed>2.3</speed>
<course>353.4</course>
<desc>Speed 2.3 km/h Distance 33.65 km</desc>
<time>2010-08-28T15:52:27.03</time>
<name>967</name>
</trkpt>
<trkpt lat="49.536752" lon="9.249098">
<ele>513.0</ele>
<speed>1.1</speed>
<course>330.8</course>
<desc>Speed 1.1 km/h Distance 33.65 km</desc>
<time>2010-08-28T15:52:28.03</time>
<name>968</name>
</trkpt>
<trkpt lat="49.536812" lon="9.249047">
<ele>510.5</ele>
<speed>0.3</speed>
<course>320.6</course>
<desc>Speed 0.3 km/h Distance 33.66 km</desc>
<time>2010-08-28T15:52:30.02</time>
<name>969</name>
</trkpt>
<trkpt lat="49.536837" lon="9.249015">
<ele>508.5</ele>
<speed>0.1</speed>
<course>347.4</course>
<desc>Speed 0.1 km/h Distance 33.67 km</desc>
<time>2010-08-28T15:52:32.02</time>
<name>970</name>
</trkpt>
<trkpt lat="49.536840" lon="9.249013">
<ele>509.0</ele>
<speed>0.1</speed>
<course>341.2</course>
<desc>Speed 0.1 km/h Distance 33.67 km</desc>
<time>2010-08-28T15:52:33.02</time>
<name>971</name>
</trkpt>
<trkpt lat="49.536843" lon="9.249012">
<ele>509.5</ele>
<speed>0.1</speed>
<course>322.8</course>
<desc>Speed 0.1 km/h Distance 33.67 km</desc>
<time>2010-08-28T15:52:34.02</time>
<name>972</name>
</trkpt>
<trkpt lat="49.536845" lon="9.249010">
<ele>509.5</ele>
<speed>0.0</speed>
<course>347.4</course>
<desc>Speed 0.0 km/h Distance 33.67 km</desc>
<time>2010-08-28T15:52:35.02</time>
<name>973</name>
</trkpt>
<trkpt lat="49.536848" lon="9.249008">
<ele>510.0</ele>
<speed>0.3</speed>
<course>347.4</course>
<desc>Speed 0.3 km/h Distance 33.67 km</desc>
<time>2010-08-28T15:52:36.02</time>
<name>974</name>
</trkpt>
<trkpt lat="49.536848" lon="9.249008">
<ele>510.0</ele>
<speed>0.2</speed>
<course>347.4</course>
<desc>Speed 0.2 km/h Distance 33.67 km</desc>
<time>2010-08-28T15:52:37.02</time>
<name>975</name>
</trkpt>
<trkpt lat="49.536848" lon="9.249008">
<ele>509.5</ele>
<speed>0.4</speed>
<course>12.6</course>
<desc>Speed 0.4 km/h Distance 33.67 km</desc>
<time>2010-08-28T15:52:38.02</time>
<name>976</name>
</trkpt>
<trkpt lat="49.536850" lon="9.249008">
<ele>510.0</ele>
<speed>1.3</speed>
<course>270.0</course>
<desc>Speed 1.3 km/h Distance 33.67 km</desc>
<time>2010-08-28T15:52:39.02</time>
<name>977</name>
</trkpt>
<trkpt lat="49.536850" lon="9.249007">
<ele>510.0</ele>
<speed>0.3</speed>
<course>128.1</course>
<desc>Speed 0.3 km/h Distance 33.67 km</desc>
<time>2010-08-28T15:52:40.02</time>
<name>978</name>
</trkpt>
<trkpt lat="49.536848" lon="9.249010">
<ele>511.0</ele>
<speed>2.0</speed>
<course>90.0</course>
<desc>Speed 2.0 km/h Distance 33.67 km</desc>
<time>2010-08-28T15:52:41.02</time>
<name>979</name>
</trkpt>
<trkpt lat="49.536848" lon="9.249013">
<ele>512.0</ele>
<speed>2.6</speed>
<course>270.0</course>
<desc>Speed 2.6 km/h Distance 33.67 km</desc>
<time>2010-08-28T15:52:42.01</time>
<name>980</name>
</trkpt>
<trkpt lat="49.536848" lon="9.249010">
<ele>512.0</ele>
<speed>0.4</speed>
<course>270.0</course>
<desc>Speed 0.4 km/h Distance 33.67 km</desc>
<time>2010-08-28T15:52:43.02</time>
<name>981</name>
</trkpt>
<trkpt lat="49.536848" lon="9.249008">
<ele>511.5</ele>
<speed>0.2</speed>
<course>231.9</course>
<desc>Speed 0.2 km/h Distance 33.67 km</desc>
<time>2010-08-28T15:52:44.01</time>
<name>982</name>
</trkpt>
<trkpt lat="49.536847" lon="9.249005">
<ele>511.5</ele>
<speed>0.1</speed>
<course>270.0</course>
<desc>Speed 0.1 km/h Distance 33.67 km</desc>
<time>2010-08-28T15:52:45.02</time>
<name>983</name>
</trkpt>
<trkpt lat="49.536847" lon="9.249000">
<ele>511.0</ele>
<speed>0.7</speed>
<course>270.0</course>
<desc>Speed 0.7 km/h Distance 33.67 km</desc>
<time>2010-08-28T15:52:46.02</time>
<name>984</name>
</trkpt>
<trkpt lat="49.536847" lon="9.248997">
<ele>510.5</ele>
<speed>0.1</speed>
<course>270.0</course>
<desc>Speed 0.1 km/h Distance 33.67 km</desc>
<time>2010-08-28T15:52:47.01</time>
<name>985</name>
</trkpt>
<trkpt lat="49.536847" lon="9.248995">
<ele>510.0</ele>
<speed>0.0</speed>
<course>270.0</course>
<desc>Speed 0.0 km/h Distance 33.67 km</desc>
<time>2010-08-28T15:52:48.02</time>
<name>986</name>
</trkpt>
<trkpt lat="49.536847" lon="9.248993">
<ele>510.0</ele>
<speed>0.1</speed>
<course>116.6</course>
<desc>Speed 0.1 km/h Distance 33.67 km</desc>
<time>2010-08-28T15:52:49.01</time>
<name>987</name>
</trkpt>
<trkpt lat="49.536845" lon="9.248998">
<ele>510.0</ele>
<speed>1.7</speed>
<course>90.0</course>
<desc>Speed 1.7 km/h Distance 33.67 km</desc>
<time>2010-08-28T15:52:50.02</time>
<name>988</name>
</trkpt>
<trkpt lat="49.536845" lon="9.249000">
<ele>510.0</ele>
<speed>1.4</speed>
<course>90.0</course>
<desc>Speed 1.4 km/h Distance 33.67 km</desc>
<time>2010-08-28T15:52:51.02</time>
<name>989</name>
</trkpt>
<trkpt lat="49.536845" lon="9.249000">
<ele>510.0</ele>
<speed>0.1</speed>
<course>90.0</course>
<desc>Speed 0.1 km/h Distance 33.67 km</desc>
<time>2010-08-28T15:52:52.01</time>
<name>990</name>
</trkpt>
<trkpt lat="49.536845" lon="9.249000">
<ele>509.5</ele>
<speed>0.3</speed>
<course>142.8</course>
<desc>Speed 0.3 km/h Distance 33.67 km</desc>
<time>2010-08-28T15:52:53.01</time>
<name>991</name>
</trkpt>
<trkpt lat="49.536843" lon="9.249002">
<ele>509.0</ele>
<speed>0.2</speed>
<course>90.0</course>
<desc>Speed 0.2 km/h Distance 33.67 km</desc>
<time>2010-08-28T15:52:54.01</time>
<name>992</name>
</trkpt>
<trkpt lat="49.536843" lon="9.249003">
<ele>509.0</ele>
<speed>0.5</speed>
<course>90.0</course>
<desc>Speed 0.5 km/h Distance 33.67 km</desc>
<time>2010-08-28T15:52:55.01</time>
<name>993</name>
</trkpt>
<trkpt lat="49.536843" lon="9.249003">
<ele>509.0</ele>
<speed>0.1</speed>
<course>306.1</course>
<desc>Speed 0.1 km/h Distance 33.67 km</desc>
<time>2010-08-28T15:52:56.01</time>
<name>994</name>
</trkpt>
<trkpt lat="49.536845" lon="9.249000">
<ele>509.0</ele>
<speed>0.1</speed>
<course>12.6</course>
<desc>Speed 0.1 km/h Distance 33.67 km</desc>
<time>2010-08-28T15:52:57.01</time>
<name>995</name>
</trkpt>
<trkpt lat="49.536847" lon="9.249000">
<ele>508.5</ele>
<speed>0.1</speed>
<course>175.6</course>
<desc>Speed 0.1 km/h Distance 33.67 km</desc>
<time>2010-08-28T15:52:58.00</time>
<name>996</name>
</trkpt>
<trkpt lat="49.536837" lon="9.249002">
<ele>507.5</ele>
<speed>4.5</speed>
<course>213.7</course>
<desc>Speed 4.5 km/h Distance 33.67 km</desc>
<time>2010-08-28T15:52:59.01</time>
<name>997</name>
</trkpt>
<trkpt lat="49.536833" lon="9.248998">
<ele>506.0</ele>
<speed>1.7</speed>
<course>308.1</course>
<desc>Speed 1.7 km/h Distance 33.67 km</desc>
<time>2010-08-28T15:53:00.00</time>
<name>998</name>
</trkpt>
<trkpt lat="49.536837" lon="9.248992">
<ele>505.5</ele>
<speed>0.8</speed>
<course>347.4</course>
<desc>Speed 0.8 km/h Distance 33.67 km</desc>
<time>2010-08-28T15:53:01.01</time>
<name>999</name>
</trkpt>
<trkpt lat="49.536838" lon="9.248990">
<ele>505.5</ele>
<speed>0.1</speed>
<course>347.4</course>
<desc>Speed 0.1 km/h Distance 33.67 km</desc>
<time>2010-08-28T15:53:02.01</time>
<name>1000</name>
</trkpt>
<trkpt lat="49.536838" lon="9.248988">
<ele>505.5</ele>
<speed>0.2</speed>
<course>317.7</course>
<desc>Speed 0.2 km/h Distance 33.67 km</desc>
<time>2010-08-28T15:53:03.00</time>
<name>1001</name>
</trkpt>
<trkpt lat="49.536847" lon="9.248977">
<ele>505.5</ele>
<speed>3.7</speed>
<course>300.0</course>
<desc>Speed 3.7 km/h Distance 33.67 km</desc>
<time>2010-08-28T15:53:04.00</time>
<name>1002</name>
</trkpt>
<trkpt lat="49.536857" lon="9.248950">
<ele>505.5</ele>
<speed>7.6</speed>
<course>298.9</course>
<desc>Speed 7.6 km/h Distance 33.68 km</desc>
<time>2010-08-28T15:53:04.99</time>
<name>1003</name>
</trkpt>
<trkpt lat="49.536865" lon="9.248927">
<ele>506.0</ele>
<speed>7.6</speed>
<course>292.3</course>
<desc>Speed 7.6 km/h Distance 33.68 km</desc>
<time>2010-08-28T15:53:06.00</time>
<name>1004</name>
</trkpt>
<trkpt lat="49.536872" lon="9.248902">
<ele>505.5</ele>
<speed>7.6</speed>
<course>297.5</course>
<desc>Speed 7.6 km/h Distance 33.68 km</desc>
<time>2010-08-28T15:53:07.00</time>
<name>1005</name>
</trkpt>
<trkpt lat="49.537272" lon="9.247720">
<ele>507.0</ele>
<speed>54.5</speed>
<course>313.8</course>
<desc>Speed 54.5 km/h Distance 33.78 km</desc>
<time>2010-08-28T15:53:12.99</time>
<name>1006</name>
</trkpt>
<trkpt lat="49.537378" lon="9.247548">
<ele>507.0</ele>
<speed>59.3</speed>
<course>310.9</course>
<desc>Speed 59.3 km/h Distance 33.79 km</desc>
<time>2010-08-28T15:53:14.00</time>
<name>1007</name>
</trkpt>
<trkpt lat="49.537475" lon="9.247377">
<ele>506.0</ele>
<speed>55.0</speed>
<course>312.4</course>
<desc>Speed 55.0 km/h Distance 33.81 km</desc>
<time>2010-08-28T15:53:15.00</time>
<name>1008</name>
</trkpt>
<trkpt lat="49.537565" lon="9.247225">
<ele>505.5</ele>
<speed>49.3</speed>
<course>320.8</course>
<desc>Speed 49.3 km/h Distance 33.82 km</desc>
<time>2010-08-28T15:53:15.99</time>
<name>1009</name>
</trkpt>
<trkpt lat="49.537668" lon="9.247095">
<ele>503.5</ele>
<speed>47.8</speed>
<course>338.6</course>
<desc>Speed 47.8 km/h Distance 33.84 km</desc>
<time>2010-08-28T15:53:16.99</time>
<name>1010</name>
</trkpt>
<trkpt lat="49.537933" lon="9.246935">
<ele>501.5</ele>
<speed>53.0</speed>
<course>346.2</course>
<desc>Speed 53.0 km/h Distance 33.87 km</desc>
<time>2010-08-28T15:53:19.01</time>
<name>1011</name>
</trkpt>
<trkpt lat="49.538057" lon="9.246888">
<ele>501.5</ele>
<speed>50.6</speed>
<course>354.2</course>
<desc>Speed 50.6 km/h Distance 33.89 km</desc>
<time>2010-08-28T15:53:19.99</time>
<name>1012</name>
</trkpt>
<trkpt lat="49.538185" lon="9.246868">
<ele>501.5</ele>
<speed>52.2</speed>
<course>356.2</course>
<desc>Speed 52.2 km/h Distance 33.90 km</desc>
<time>2010-08-28T15:53:20.99</time>
<name>1013</name>
</trkpt>
<trkpt lat="49.538315" lon="9.246855">
<ele>501.0</ele>
<speed>52.1</speed>
<course>0.0</course>
<desc>Speed 52.1 km/h Distance 33.91 km</desc>
<time>2010-08-28T15:53:22.00</time>
<name>1014</name>
</trkpt>
<trkpt lat="49.538452" lon="9.246855">
<ele>501.0</ele>
<speed>54.5</speed>
<course>3.3</course>
<desc>Speed 54.5 km/h Distance 33.93 km</desc>
<time>2010-08-28T15:53:22.99</time>
<name>1015</name>
</trkpt>
<trkpt lat="49.538602" lon="9.246868">
<ele>501.5</ele>
<speed>60.4</speed>
<course>4.4</course>
<desc>Speed 60.4 km/h Distance 33.95 km</desc>
<time>2010-08-28T15:53:23.99</time>
<name>1016</name>
</trkpt>
<trkpt lat="49.538757" lon="9.246887">
<ele>501.5</ele>
<speed>61.9</speed>
<course>2.8</course>
<desc>Speed 61.9 km/h Distance 33.96 km</desc>
<time>2010-08-28T15:53:24.99</time>
<name>1017</name>
</trkpt>
<trkpt lat="49.539063" lon="9.246910">
<ele>502.0</ele>
<speed>61.9</speed>
<course>347.3</course>
<desc>Speed 61.9 km/h Distance 34.00 km</desc>
<time>2010-08-28T15:53:27.99</time>
<name>1018</name>
</trkpt>
<trkpt lat="49.539593" lon="9.246727">
<ele>502.0</ele>
<speed>80.9</speed>
<course>338.2</course>
<desc>Speed 80.9 km/h Distance 34.06 km</desc>
<time>2010-08-28T15:53:32.98</time>
<name>1019</name>
</trkpt>
<trkpt lat="49.539780" lon="9.246612">
<ele>502.0</ele>
<speed>80.9</speed>
<course>350.6</course>
<desc>Speed 80.9 km/h Distance 34.08 km</desc>
<time>2010-08-28T15:53:34.00</time>
<name>1020</name>
</trkpt>
<trkpt lat="49.540173" lon="9.246512">
<ele>501.5</ele>
<speed>68.8</speed>
<course>310.3</course>
<desc>Speed 68.8 km/h Distance 34.13 km</desc>
<time>2010-08-28T15:53:35.98</time>
<name>1021</name>
</trkpt>
<trkpt lat="49.540402" lon="9.246097">
<ele>490.5</ele>
<speed>68.8</speed>
<course>292.9</course>
<desc>Speed 68.8 km/h Distance 34.16 km</desc>
<time>2010-08-28T15:53:37.98</time>
<name>1022</name>
</trkpt>
<trkpt lat="49.540557" lon="9.245530">
<ele>475.5</ele>
<speed>68.8</speed>
<course>328.4</course>
<desc>Speed 68.8 km/h Distance 34.21 km</desc>
<time>2010-08-28T15:53:39.98</time>
<name>1023</name>
</trkpt>
<trkpt lat="49.540912" lon="9.245193">
<ele>479.5</ele>
<speed>68.8</speed>
<course>295.0</course>
<desc>Speed 68.8 km/h Distance 34.26 km</desc>
<time>2010-08-28T15:53:44.97</time>
<name>1024</name>
</trkpt>
<trkpt lat="49.541028" lon="9.244808">
<ele>485.0</ele>
<speed>68.8</speed>
<course>327.9</course>
<desc>Speed 68.8 km/h Distance 34.29 km</desc>
<time>2010-08-28T15:53:46.97</time>
<name>1025</name>
</trkpt>
<trkpt lat="49.541363" lon="9.244485">
<ele>491.5</ele>
<speed>68.8</speed>
<course>294.3</course>
<desc>Speed 68.8 km/h Distance 34.33 km</desc>
<time>2010-08-28T15:53:52.96</time>
<name>1026</name>
</trkpt>
<trkpt lat="49.541525" lon="9.243933">
<ele>491.5</ele>
<speed>68.8</speed>
<course>299.5</course>
<desc>Speed 68.8 km/h Distance 34.37 km</desc>
<time>2010-08-28T15:53:54.96</time>
<name>1027</name>
</trkpt>
<trkpt lat="49.542020" lon="9.242585">
<ele>490.0</ele>
<speed>68.8</speed>
<course>7.2</course>
<desc>Speed 68.8 km/h Distance 34.49 km</desc>
<time>2010-08-28T15:53:56.96</time>
<name>1028</name>
</trkpt>
<trkpt lat="49.542602" lon="9.242698">
<ele>490.0</ele>
<speed>68.8</speed>
<course>331.9</course>
<desc>Speed 68.8 km/h Distance 34.55 km</desc>
<time>2010-08-28T15:53:59.97</time>
<name>1029</name>
</trkpt>
<trkpt lat="49.543257" lon="9.242158">
<ele>488.5</ele>
<speed>42.0</speed>
<course>315.9</course>
<desc>Speed 42.0 km/h Distance 34.63 km</desc>
<time>2010-08-28T15:54:03.96</time>
<name>1030</name>
</trkpt>
<trkpt lat="49.543442" lon="9.241882">
<ele>488.0</ele>
<speed>44.1</speed>
<course>297.9</course>
<desc>Speed 44.1 km/h Distance 34.66 km</desc>
<time>2010-08-28T15:54:05.96</time>
<name>1031</name>
</trkpt>
<trkpt lat="49.543530" lon="9.241625">
<ele>488.0</ele>
<speed>44.1</speed>
<course>292.0</course>
<desc>Speed 44.1 km/h Distance 34.68 km</desc>
<time>2010-08-28T15:54:07.96</time>
<name>1032</name>
</trkpt>
<trkpt lat="49.543600" lon="9.241358">
<ele>487.5</ele>
<speed>44.1</speed>
<course>331.5</course>
<desc>Speed 44.1 km/h Distance 34.70 km</desc>
<time>2010-08-28T15:54:09.95</time>
<name>1033</name>
</trkpt>
<trkpt lat="49.543765" lon="9.241220">
<ele>487.0</ele>
<speed>44.1</speed>
<course>8.9</course>
<desc>Speed 44.1 km/h Distance 34.72 km</desc>
<time>2010-08-28T15:54:14.95</time>
<name>1034</name>
</trkpt>
<trkpt lat="49.543930" lon="9.241260">
<ele>485.5</ele>
<speed>44.1</speed>
<course>10.6</course>
<desc>Speed 44.1 km/h Distance 34.74 km</desc>
<time>2010-08-28T15:54:16.95</time>
<name>1035</name>
</trkpt>
<trkpt lat="49.545352" lon="9.241670">
<ele>472.0</ele>
<speed>54.9</speed>
<course>4.6</course>
<desc>Speed 54.9 km/h Distance 34.90 km</desc>
<time>2010-08-28T15:54:22.94</time>
<name>1036</name>
</trkpt>
<trkpt lat="49.545485" lon="9.241687">
<ele>471.5</ele>
<speed>54.9</speed>
<course>14.0</course>
<desc>Speed 54.9 km/h Distance 34.92 km</desc>
<time>2010-08-28T15:54:23.94</time>
<name>1037</name>
</trkpt>
<trkpt lat="49.545763" lon="9.241793">
<ele>475.5</ele>
<speed>54.9</speed>
<course>330.2</course>
<desc>Speed 54.9 km/h Distance 34.95 km</desc>
<time>2010-08-28T15:54:26.93</time>
<name>1038</name>
</trkpt>
<trkpt lat="49.546020" lon="9.241567">
<ele>474.5</ele>
<speed>54.9</speed>
<course>351.7</course>
<desc>Speed 54.9 km/h Distance 34.98 km</desc>
<time>2010-08-28T15:54:31.93</time>
<name>1039</name>
</trkpt>
<trkpt lat="49.546280" lon="9.241508">
<ele>481.5</ele>
<speed>54.9</speed>
<course>354.4</course>
<desc>Speed 54.9 km/h Distance 35.01 km</desc>
<time>2010-08-28T15:54:34.92</time>
<name>1040</name>
</trkpt>
<trkpt lat="49.546718" lon="9.241442">
<ele>488.0</ele>
<speed>49.3</speed>
<course>341.6</course>
<desc>Speed 49.3 km/h Distance 35.06 km</desc>
<time>2010-08-28T15:54:38.91</time>
<name>1041</name>
</trkpt>
<trkpt lat="49.546985" lon="9.241305">
<ele>489.0</ele>
<speed>49.3</speed>
<course>320.0</course>
<desc>Speed 49.3 km/h Distance 35.09 km</desc>
<time>2010-08-28T15:54:40.91</time>
<name>1042</name>
</trkpt>
<trkpt lat="49.547070" lon="9.241195">
<ele>489.0</ele>
<speed>49.3</speed>
<course>356.2</course>
<desc>Speed 49.3 km/h Distance 35.11 km</desc>
<time>2010-08-28T15:54:41.91</time>
<name>1043</name>
</trkpt>
<trkpt lat="49.547803" lon="9.241120">
<ele>488.5</ele>
<speed>44.9</speed>
<course>3.6</course>
<desc>Speed 44.9 km/h Distance 35.19 km</desc>
<time>2010-08-28T15:54:45.91</time>
<name>1044</name>
</trkpt>
<trkpt lat="49.548202" lon="9.241158">
<ele>489.5</ele>
<speed>44.9</speed>
<course>11.3</course>
<desc>Speed 44.9 km/h Distance 35.23 km</desc>
<time>2010-08-28T15:54:48.90</time>
<name>1045</name>
</trkpt>
<trkpt lat="49.548455" lon="9.241237">
<ele>492.0</ele>
<speed>44.9</speed>
<course>14.1</course>
<desc>Speed 44.9 km/h Distance 35.26 km</desc>
<time>2010-08-28T15:54:50.90</time>
<name>1046</name>
</trkpt>
<trkpt lat="49.548683" lon="9.241325">
<ele>495.0</ele>
<speed>44.9</speed>
<course>339.8</course>
<desc>Speed 44.9 km/h Distance 35.29 km</desc>
<time>2010-08-28T15:54:52.90</time>
<name>1047</name>
</trkpt>
<trkpt lat="49.549013" lon="9.241138">
<ele>495.5</ele>
<speed>27.8</speed>
<course>335.6</course>
<desc>Speed 27.8 km/h Distance 35.33 km</desc>
<time>2010-08-28T15:54:55.90</time>
<name>1048</name>
</trkpt>
<trkpt lat="49.549190" lon="9.241015">
<ele>495.5</ele>
<speed>27.8</speed>
<course>332.6</course>
<desc>Speed 27.8 km/h Distance 35.35 km</desc>
<time>2010-08-28T15:54:57.89</time>
<name>1049</name>
</trkpt>
<trkpt lat="49.549282" lon="9.240942">
<ele>495.0</ele>
<speed>27.8</speed>
<course>316.2</course>
<desc>Speed 27.8 km/h Distance 35.36 km</desc>
<time>2010-08-28T15:54:59.89</time>
<name>1050</name>
</trkpt>
<trkpt lat="49.549323" lon="9.240880">
<ele>495.0</ele>
<speed>27.8</speed>
<course>337.7</course>
<desc>Speed 27.8 km/h Distance 35.37 km</desc>
<time>2010-08-28T15:55:00.89</time>
<name>1051</name>
</trkpt>
<trkpt lat="49.549513" lon="9.240760">
<ele>495.0</ele>
<speed>39.2</speed>
<course>336.3</course>
<desc>Speed 39.2 km/h Distance 35.39 km</desc>
<time>2010-08-28T15:55:03.89</time>
<name>1052</name>
</trkpt>
<trkpt lat="49.549617" lon="9.240690">
<ele>494.5</ele>
<speed>39.2</speed>
<course>335.3</course>
<desc>Speed 39.2 km/h Distance 35.40 km</desc>
<time>2010-08-28T15:55:04.89</time>
<name>1053</name>
</trkpt>
<trkpt lat="49.549743" lon="9.240600">
<ele>495.0</ele>
<speed>39.2</speed>
<course>335.1</course>
<desc>Speed 39.2 km/h Distance 35.42 km</desc>
<time>2010-08-28T15:55:06.88</time>
<name>1054</name>
</trkpt>
<trkpt lat="49.549930" lon="9.240467">
<ele>493.0</ele>
<speed>20.7</speed>
<course>318.9</course>
<desc>Speed 20.7 km/h Distance 35.44 km</desc>
<time>2010-08-28T15:55:09.89</time>
<name>1055</name>
</trkpt>
<trkpt lat="49.549973" lon="9.240408">
<ele>492.0</ele>
<speed>20.7</speed>
<course>320.3</course>
<desc>Speed 20.7 km/h Distance 35.45 km</desc>
<time>2010-08-28T15:55:10.90</time>
<name>1056</name>
</trkpt>
<trkpt lat="49.550063" lon="9.240293">
<ele>491.0</ele>
<speed>20.7</speed>
<course>302.0</course>
<desc>Speed 20.7 km/h Distance 35.46 km</desc>
<time>2010-08-28T15:55:12.87</time>
<name>1057</name>
</trkpt>
<trkpt lat="49.550092" lon="9.240223">
<ele>492.0</ele>
<speed>20.7</speed>
<course>248.6</course>
<desc>Speed 20.7 km/h Distance 35.47 km</desc>
<time>2010-08-28T15:55:13.88</time>
<name>1058</name>
</trkpt>
<trkpt lat="49.549803" lon="9.239090">
<ele>493.0</ele>
<speed>56.6</speed>
<course>241.2</course>
<desc>Speed 56.6 km/h Distance 35.55 km</desc>
<time>2010-08-28T15:55:19.88</time>
<name>1059</name>
</trkpt>
<trkpt lat="49.549543" lon="9.238362">
<ele>494.0</ele>
<speed>55.9</speed>
<course>235.0</course>
<desc>Speed 55.9 km/h Distance 35.61 km</desc>
<time>2010-08-28T15:55:22.87</time>
<name>1060</name>
</trkpt>
<trkpt lat="49.549377" lon="9.237995">
<ele>494.0</ele>
<speed>58.0</speed>
<course>227.4</course>
<desc>Speed 58.0 km/h Distance 35.65 km</desc>
<time>2010-08-28T15:55:24.86</time>
<name>1061</name>
</trkpt>
<trkpt lat="49.549185" lon="9.237673">
<ele>492.5</ele>
<speed>58.0</speed>
<course>225.6</course>
<desc>Speed 58.0 km/h Distance 35.68 km</desc>
<time>2010-08-28T15:55:27.87</time>
<name>1062</name>
</trkpt>
<trkpt lat="49.548947" lon="9.237298">
<ele>491.0</ele>
<speed>52.7</speed>
<course>221.6</course>
<desc>Speed 52.7 km/h Distance 35.72 km</desc>
<time>2010-08-28T15:55:31.85</time>
<name>1063</name>
</trkpt>
<trkpt lat="49.548548" lon="9.236753">
<ele>491.0</ele>
<speed>62.2</speed>
<course>227.5</course>
<desc>Speed 62.2 km/h Distance 35.77 km</desc>
<time>2010-08-28T15:55:34.84</time>
<name>1064</name>
</trkpt>
<trkpt lat="49.548380" lon="9.236470">
<ele>491.0</ele>
<speed>52.0</speed>
<course>218.7</course>
<desc>Speed 52.0 km/h Distance 35.80 km</desc>
<time>2010-08-28T15:55:36.85</time>
<name>1065</name>
</trkpt>
<trkpt lat="49.548158" lon="9.236197">
<ele>489.5</ele>
<speed>52.0</speed>
<course>258.6</course>
<desc>Speed 52.0 km/h Distance 35.83 km</desc>
<time>2010-08-28T15:55:38.85</time>
<name>1066</name>
</trkpt>
<trkpt lat="49.548105" lon="9.235790">
<ele>489.0</ele>
<speed>52.0</speed>
<course>228.3</course>
<desc>Speed 52.0 km/h Distance 35.86 km</desc>
<time>2010-08-28T15:55:41.84</time>
<name>1067</name>
</trkpt>
<trkpt lat="49.547357" lon="9.234493">
<ele>483.0</ele>
<speed>73.2</speed>
<course>232.3</course>
<desc>Speed 73.2 km/h Distance 35.99 km</desc>
<time>2010-08-28T15:55:46.85</time>
<name>1068</name>
</trkpt>
<trkpt lat="49.547150" lon="9.234082">
<ele>482.5</ele>
<speed>70.1</speed>
<course>233.0</course>
<desc>Speed 70.1 km/h Distance 36.03 km</desc>
<time>2010-08-28T15:55:48.85</time>
<name>1069</name>
</trkpt>
<trkpt lat="49.546645" lon="9.233050">
<ele>490.0</ele>
<speed>67.6</speed>
<course>244.4</course>
<desc>Speed 67.6 km/h Distance 36.12 km</desc>
<time>2010-08-28T15:55:52.84</time>
<name>1070</name>
</trkpt>
<trkpt lat="49.545938" lon="9.230782">
<ele>500.5</ele>
<speed>107</speed>
<course>253.1</course>
<desc>Speed 107 km/h Distance 36.30 km</desc>
<time>2010-08-28T15:55:58.84</time>
<name>1071</name>
</trkpt>
<trkpt lat="49.545692" lon="9.229528">
<ele>510.0</ele>
<speed>103</speed>
<course>240.5</course>
<desc>Speed 103 km/h Distance 36.40 km</desc>
<time>2010-08-28T15:56:02.84</time>
<name>1072</name>
</trkpt>
<trkpt lat="49.545435" lon="9.228828">
<ele>512.5</ele>
<speed>108</speed>
<course>231.1</course>
<desc>Speed 108 km/h Distance 36.45 km</desc>
<time>2010-08-28T15:56:04.84</time>
<name>1073</name>
</trkpt>
<trkpt lat="49.545135" lon="9.228255">
<ele>497.0</ele>
<speed>108</speed>
<course>218.0</course>
<desc>Speed 108 km/h Distance 36.51 km</desc>
<time>2010-08-28T15:56:06.83</time>
<name>1074</name>
</trkpt>
<trkpt lat="49.544158" lon="9.227080">
<ele>476.0</ele>
<speed>94.5</speed>
<course>221.6</course>
<desc>Speed 94.5 km/h Distance 36.65 km</desc>
<time>2010-08-28T15:56:10.83</time>
<name>1075</name>
</trkpt>
<trkpt lat="49.543340" lon="9.225962">
<ele>477.5</ele>
<speed>105</speed>
<course>224.6</course>
<desc>Speed 105 km/h Distance 36.77 km</desc>
<time>2010-08-28T15:56:16.82</time>
<name>1076</name>
</trkpt>
<trkpt lat="49.542188" lon="9.224212">
<ele>483.5</ele>
<speed>122</speed>
<course>219.8</course>
<desc>Speed 122 km/h Distance 36.95 km</desc>
<time>2010-08-28T15:56:21.82</time>
<name>1077</name>
</trkpt>
<trkpt lat="49.541507" lon="9.223335">
<ele>518.0</ele>
<speed>122</speed>
<course>262.4</course>
<desc>Speed 122 km/h Distance 37.05 km</desc>
<time>2010-08-28T15:56:27.80</time>
<name>1078</name>
</trkpt>
<trkpt lat="49.541428" lon="9.222427">
<ele>517.5</ele>
<speed>122</speed>
<course>231.0</course>
<desc>Speed 122 km/h Distance 37.11 km</desc>
<time>2010-08-28T15:56:31.81</time>
<name>1079</name>
</trkpt>
<trkpt lat="49.540052" lon="9.219808">
<ele>521.0</ele>
<speed>102</speed>
<course>223.7</course>
<desc>Speed 102 km/h Distance 37.36 km</desc>
<time>2010-08-28T15:56:35.80</time>
<name>1080</name>
</trkpt>
<trkpt lat="49.539142" lon="9.218468">
<ele>521.5</ele>
<speed>112</speed>
<course>235.0</course>
<desc>Speed 112 km/h Distance 37.50 km</desc>
<time>2010-08-28T15:56:39.80</time>
<name>1081</name>
</trkpt>
<trkpt lat="49.538355" lon="9.216738">
<ele>522.0</ele>
<speed>112</speed>
<course>236.2</course>
<desc>Speed 112 km/h Distance 37.65 km</desc>
<time>2010-08-28T15:56:45.79</time>
<name>1082</name>
</trkpt>
<trkpt lat="49.538083" lon="9.216113">
<ele>521.5</ele>
<speed>112</speed>
<course>217.7</course>
<desc>Speed 112 km/h Distance 37.70 km</desc>
<time>2010-08-28T15:56:50.78</time>
<name>1083</name>
</trkpt>
<trkpt lat="49.537758" lon="9.215727">
<ele>520.0</ele>
<speed>112</speed>
<course>217.7</course>
<desc>Speed 112 km/h Distance 37.75 km</desc>
<time>2010-08-28T15:56:52.78</time>
<name>1084</name>
</trkpt>
<trkpt lat="49.537280" lon="9.215157">
<ele>517.5</ele>
<speed>112</speed>
<course>212.9</course>
<desc>Speed 112 km/h Distance 37.82 km</desc>
<time>2010-08-28T15:56:54.78</time>
<name>1085</name>
</trkpt>
<trkpt lat="49.535790" lon="9.213673">
<ele>514.0</ele>
<speed>55.9</speed>
<course>227.7</course>
<desc>Speed 55.9 km/h Distance 38.01 km</desc>
<time>2010-08-28T15:56:59.78</time>
<name>1086</name>
</trkpt>
<trkpt lat="49.535310" lon="9.212860">
<ele>511.0</ele>
<speed>52.0</speed>
<course>239.4</course>
<desc>Speed 52.0 km/h Distance 38.09 km</desc>
<time>2010-08-28T15:57:03.77</time>
<name>1087</name>
</trkpt>
<trkpt lat="49.535180" lon="9.212522">
<ele>506.0</ele>
<speed>50.6</speed>
<course>226.8</course>
<desc>Speed 50.6 km/h Distance 38.12 km</desc>
<time>2010-08-28T15:57:05.78</time>
<name>1088</name>
</trkpt>
<trkpt lat="49.534988" lon="9.212207">
<ele>502.0</ele>
<speed>55.4</speed>
<course>228.6</course>
<desc>Speed 55.4 km/h Distance 38.15 km</desc>
<time>2010-08-28T15:57:07.77</time>
<name>1089</name>
</trkpt>
<trkpt lat="49.534888" lon="9.212032">
<ele>503.5</ele>
<speed>52.9</speed>
<course>237.8</course>
<desc>Speed 52.9 km/h Distance 38.17 km</desc>
<time>2010-08-28T15:57:08.77</time>
<name>1090</name>
</trkpt>
<trkpt lat="49.534810" lon="9.211840">
<ele>502.0</ele>
<speed>52.0</speed>
<course>227.8</course>
<desc>Speed 52.0 km/h Distance 38.19 km</desc>
<time>2010-08-28T15:57:09.78</time>
<name>1091</name>
</trkpt>
<trkpt lat="49.534588" lon="9.211463">
<ele>505.5</ele>
<speed>61.5</speed>
<course>227.3</course>
<desc>Speed 61.5 km/h Distance 38.22 km</desc>
<time>2010-08-28T15:57:11.78</time>
<name>1092</name>
</trkpt>
<trkpt lat="49.534497" lon="9.211310">
<ele>507.5</ele>
<speed>61.5</speed>
<course>223.1</course>
<desc>Speed 61.5 km/h Distance 38.24 km</desc>
<time>2010-08-28T15:57:12.77</time>
<name>1093</name>
</trkpt>
<trkpt lat="49.534392" lon="9.211158">
<ele>511.5</ele>
<speed>61.5</speed>
<course>224.0</course>
<desc>Speed 61.5 km/h Distance 38.25 km</desc>
<time>2010-08-28T15:57:13.78</time>
<name>1094</name>
</trkpt>
<trkpt lat="49.534162" lon="9.210817">
<ele>512.0</ele>
<speed>61.6</speed>
<course>227.4</course>
<desc>Speed 61.6 km/h Distance 38.29 km</desc>
<time>2010-08-28T15:57:15.77</time>
<name>1095</name>
</trkpt>
<trkpt lat="49.533950" lon="9.210462">
<ele>510.0</ele>
<speed>60.6</speed>
<course>225.1</course>
<desc>Speed 60.6 km/h Distance 38.32 km</desc>
<time>2010-08-28T15:57:17.77</time>
<name>1096</name>
</trkpt>
<trkpt lat="49.533692" lon="9.210062">
<ele>510.0</ele>
<speed>66.3</speed>
<course>215.0</course>
<desc>Speed 66.3 km/h Distance 38.36 km</desc>
<time>2010-08-28T15:57:19.77</time>
<name>1097</name>
</trkpt>
<trkpt lat="49.533388" lon="9.209735">
<ele>509.0</ele>
<speed>61.5</speed>
<course>208.8</course>
<desc>Speed 61.5 km/h Distance 38.41 km</desc>
<time>2010-08-28T15:57:21.77</time>
<name>1098</name>
</trkpt>
<trkpt lat="49.533247" lon="9.209615">
<ele>509.5</ele>
<speed>59.2</speed>
<course>212.0</course>
<desc>Speed 59.2 km/h Distance 38.42 km</desc>
<time>2010-08-28T15:57:22.77</time>
<name>1099</name>
</trkpt>
<trkpt lat="49.532978" lon="9.209357">
<ele>510.0</ele>
<speed>58.3</speed>
<course>214.9</course>
<desc>Speed 58.3 km/h Distance 38.46 km</desc>
<time>2010-08-28T15:57:24.77</time>
<name>1100</name>
</trkpt>
<trkpt lat="49.532870" lon="9.209240">
<ele>508.5</ele>
<speed>55.4</speed>
<course>207.6</course>
<desc>Speed 55.4 km/h Distance 38.47 km</desc>
<time>2010-08-28T15:57:25.76</time>
<name>1101</name>
</trkpt>
<trkpt lat="49.532750" lon="9.209143">
<ele>509.0</ele>
<speed>51.8</speed>
<course>213.7</course>
<desc>Speed 51.8 km/h Distance 38.49 km</desc>
<time>2010-08-28T15:57:26.77</time>
<name>1102</name>
</trkpt>
<trkpt lat="49.532637" lon="9.209027">
<ele>507.0</ele>
<speed>47.3</speed>
<course>212.2</course>
<desc>Speed 47.3 km/h Distance 38.50 km</desc>
<time>2010-08-28T15:57:27.76</time>
<name>1103</name>
</trkpt>
<trkpt lat="49.532523" lon="9.208917">
<ele>504.5</ele>
<speed>46.0</speed>
<course>222.5</course>
<desc>Speed 46.0 km/h Distance 38.52 km</desc>
<time>2010-08-28T15:57:28.75</time>
<name>1104</name>
</trkpt>
<trkpt lat="49.532402" lon="9.208745">
<ele>502.5</ele>
<speed>31.7</speed>
<course>226.1</course>
<desc>Speed 31.7 km/h Distance 38.54 km</desc>
<time>2010-08-28T15:57:30.77</time>
<name>1105</name>
</trkpt>
<trkpt lat="49.532335" lon="9.208638">
<ele>502.5</ele>
<speed>31.7</speed>
<course>249.6</course>
<desc>Speed 31.7 km/h Distance 38.55 km</desc>
<time>2010-08-28T15:57:32.76</time>
<name>1106</name>
</trkpt>
<trkpt lat="49.532268" lon="9.208362">
<ele>503.5</ele>
<speed>49.6</speed>
<course>275.0</course>
<desc>Speed 49.6 km/h Distance 38.57 km</desc>
<time>2010-08-28T15:57:35.76</time>
<name>1107</name>
</trkpt>
<trkpt lat="49.532278" lon="9.208185">
<ele>501.5</ele>
<speed>49.6</speed>
<course>267.7</course>
<desc>Speed 49.6 km/h Distance 38.58 km</desc>
<time>2010-08-28T15:57:36.76</time>
<name>1108</name>
</trkpt>
<trkpt lat="49.532273" lon="9.207990">
<ele>500.0</ele>
<speed>48.8</speed>
<course>277.6</course>
<desc>Speed 48.8 km/h Distance 38.60 km</desc>
<time>2010-08-28T15:57:37.76</time>
<name>1109</name>
</trkpt>
<trkpt lat="49.532290" lon="9.207798">
<ele>499.5</ele>
<speed>48.1</speed>
<course>277.8</course>
<desc>Speed 48.1 km/h Distance 38.61 km</desc>
<time>2010-08-28T15:57:38.76</time>
<name>1110</name>
</trkpt>
<trkpt lat="49.532307" lon="9.207612">
<ele>500.0</ele>
<speed>48.1</speed>
<course>283.7</course>
<desc>Speed 48.1 km/h Distance 38.62 km</desc>
<time>2010-08-28T15:57:39.76</time>
<name>1111</name>
</trkpt>
<trkpt lat="49.532370" lon="9.207212">
<ele>499.0</ele>
<speed>54.5</speed>
<course>284.7</course>
<desc>Speed 54.5 km/h Distance 38.65 km</desc>
<time>2010-08-28T15:57:41.76</time>
<name>1112</name>
</trkpt>
<trkpt lat="49.532427" lon="9.206880">
<ele>498.0</ele>
<speed>54.5</speed>
<course>289.9</course>
<desc>Speed 54.5 km/h Distance 38.68 km</desc>
<time>2010-08-28T15:57:43.75</time>
<name>1113</name>
</trkpt>
<trkpt lat="49.532528" lon="9.206447">
<ele>500.5</ele>
<speed>54.5</speed>
<course>289.5</course>
<desc>Speed 54.5 km/h Distance 38.71 km</desc>
<time>2010-08-28T15:57:47.74</time>
<name>1114</name>
</trkpt>
<trkpt lat="49.532630" lon="9.206003">
<ele>495.5</ele>
<speed>54.5</speed>
<course>262.7</course>
<desc>Speed 54.5 km/h Distance 38.75 km</desc>
<time>2010-08-28T15:57:49.75</time>
<name>1115</name>
</trkpt>
<trkpt lat="49.532593" lon="9.205563">
<ele>496.5</ele>
<speed>50.5</speed>
<course>244.3</course>
<desc>Speed 50.5 km/h Distance 38.78 km</desc>
<time>2010-08-28T15:57:54.74</time>
<name>1116</name>
</trkpt>
<trkpt lat="49.532288" lon="9.204588">
<ele>492.0</ele>
<speed>60.6</speed>
<course>220.9</course>
<desc>Speed 60.6 km/h Distance 38.86 km</desc>
<time>2010-08-28T15:57:58.72</time>
<name>1117</name>
</trkpt>
<trkpt lat="49.532018" lon="9.204228">
<ele>492.0</ele>
<speed>55.3</speed>
<course>220.1</course>
<desc>Speed 55.3 km/h Distance 38.90 km</desc>
<time>2010-08-28T15:58:00.73</time>
<name>1118</name>
</trkpt>
<trkpt lat="49.531740" lon="9.203867">
<ele>490.0</ele>
<speed>37.0</speed>
<course>221.8</course>
<desc>Speed 37.0 km/h Distance 38.94 km</desc>
<time>2010-08-28T15:58:03.73</time>
<name>1119</name>
</trkpt>
<trkpt lat="49.531678" lon="9.203782">
<ele>490.0</ele>
<speed>37.0</speed>
<course>238.7</course>
<desc>Speed 37.0 km/h Distance 38.95 km</desc>
<time>2010-08-28T15:58:04.73</time>
<name>1120</name>
</trkpt>
<trkpt lat="49.531610" lon="9.203608">
<ele>490.0</ele>
<speed>15.8</speed>
<course>238.6</course>
<desc>Speed 15.8 km/h Distance 38.96 km</desc>
<time>2010-08-28T15:58:07.73</time>
<name>1121</name>
</trkpt>
<trkpt lat="49.531543" lon="9.203440">
<ele>490.5</ele>
<speed>27.1</speed>
<course>228.1</course>
<desc>Speed 27.1 km/h Distance 38.97 km</desc>
<time>2010-08-28T15:58:09.73</time>
<name>1122</name>
</trkpt>
<trkpt lat="49.531502" lon="9.203368">
<ele>490.5</ele>
<speed>27.1</speed>
<course>237.1</course>
<desc>Speed 27.1 km/h Distance 38.98 km</desc>
<time>2010-08-28T15:58:10.73</time>
<name>1123</name>
</trkpt>
<trkpt lat="49.531467" lon="9.203285">
<ele>490.5</ele>
<speed>22.0</speed>
<course>233.2</course>
<desc>Speed 22.0 km/h Distance 38.99 km</desc>
<time>2010-08-28T15:58:11.73</time>
<name>1124</name>
</trkpt>
<trkpt lat="49.531438" lon="9.203227">
<ele>490.5</ele>
<speed>22.0</speed>
<course>227.0</course>
<desc>Speed 22.0 km/h Distance 38.99 km</desc>
<time>2010-08-28T15:58:12.73</time>
<name>1125</name>
</trkpt>
<trkpt lat="49.531405" lon="9.203172">
<ele>490.5</ele>
<speed>22.0</speed>
<course>231.3</course>
<desc>Speed 22.0 km/h Distance 39.00 km</desc>
<time>2010-08-28T15:58:13.72</time>
<name>1126</name>
</trkpt>
<trkpt lat="49.531212" lon="9.202800">
<ele>489.0</ele>
<speed>33.9</speed>
<course>242.4</course>
<desc>Speed 33.9 km/h Distance 39.03 km</desc>
<time>2010-08-28T15:58:16.73</time>
<name>1127</name>
</trkpt>
<trkpt lat="49.531177" lon="9.202697">
<ele>489.5</ele>
<speed>33.9</speed>
<course>234.3</course>
<desc>Speed 33.9 km/h Distance 39.04 km</desc>
<time>2010-08-28T15:58:17.72</time>
<name>1128</name>
</trkpt>
<trkpt lat="49.531075" lon="9.202478">
<ele>488.5</ele>
<speed>36.6</speed>
<course>236.8</course>
<desc>Speed 36.6 km/h Distance 39.06 km</desc>
<time>2010-08-28T15:58:19.72</time>
<name>1129</name>
</trkpt>
<trkpt lat="49.531023" lon="9.202357">
<ele>489.0</ele>
<speed>34.7</speed>
<course>236.4</course>
<desc>Speed 34.7 km/h Distance 39.07 km</desc>
<time>2010-08-28T15:58:20.71</time>
<name>1130</name>
</trkpt>
<trkpt lat="49.530982" lon="9.202260">
<ele>489.5</ele>
<speed>34.7</speed>
<course>233.6</course>
<desc>Speed 34.7 km/h Distance 39.08 km</desc>
<time>2010-08-28T15:58:21.72</time>
<name>1131</name>
</trkpt>
<trkpt lat="49.530925" lon="9.202142">
<ele>491.0</ele>
<speed>29.6</speed>
<course>232.4</course>
<desc>Speed 29.6 km/h Distance 39.09 km</desc>
<time>2010-08-28T15:58:22.72</time>
<name>1132</name>
</trkpt>
<trkpt lat="49.530887" lon="9.202065">
<ele>491.5</ele>
<speed>29.6</speed>
<course>237.8</course>
<desc>Speed 29.6 km/h Distance 39.10 km</desc>
<time>2010-08-28T15:58:23.72</time>
<name>1133</name>
</trkpt>
<trkpt lat="49.530838" lon="9.201947">
<ele>491.5</ele>
<speed>29.6</speed>
<course>207.6</course>
<desc>Speed 29.6 km/h Distance 39.11 km</desc>
<time>2010-08-28T15:58:25.72</time>
<name>1134</name>
</trkpt>
<trkpt lat="49.530778" lon="9.201898">
<ele>490.0</ele>
<speed>29.6</speed>
<course>62.6</course>
<desc>Speed 29.6 km/h Distance 39.12 km</desc>
<time>2010-08-28T15:58:28.72</time>
<name>1135</name>
</trkpt>
<trkpt lat="49.530842" lon="9.202087">
<ele>490.0</ele>
<speed>31.1</speed>
<course>47.3</course>
<desc>Speed 31.1 km/h Distance 39.13 km</desc>
<time>2010-08-28T15:58:30.72</time>
<name>1136</name>
</trkpt>
<trkpt lat="49.530988" lon="9.202332">
<ele>491.5</ele>
<speed>36.9</speed>
<course>55.1</course>
<desc>Speed 36.9 km/h Distance 39.15 km</desc>
<time>2010-08-28T15:58:32.72</time>
<name>1137</name>
</trkpt>
<trkpt lat="49.531127" lon="9.202637">
<ele>488.5</ele>
<speed>45.6</speed>
<course>52.0</course>
<desc>Speed 45.6 km/h Distance 39.18 km</desc>
<time>2010-08-28T15:58:34.72</time>
<name>1138</name>
</trkpt>
<trkpt lat="49.531195" lon="9.202772">
<ele>488.5</ele>
<speed>41.5</speed>
<course>65.2</course>
<desc>Speed 41.5 km/h Distance 39.19 km</desc>
<time>2010-08-28T15:58:35.71</time>
<name>1139</name>
</trkpt>
<trkpt lat="49.531240" lon="9.202922">
<ele>489.5</ele>
<speed>39.3</speed>
<course>64.5</course>
<desc>Speed 39.3 km/h Distance 39.21 km</desc>
<time>2010-08-28T15:58:36.72</time>
<name>1140</name>
</trkpt>
<trkpt lat="49.531277" lon="9.203040">
<ele>489.5</ele>
<speed>32.1</speed>
<course>73.5</course>
<desc>Speed 32.1 km/h Distance 39.22 km</desc>
<time>2010-08-28T15:58:37.71</time>
<name>1141</name>
</trkpt>
<trkpt lat="49.531303" lon="9.203178">
<ele>489.5</ele>
<speed>36.1</speed>
<course>98.6</course>
<desc>Speed 36.1 km/h Distance 39.23 km</desc>
<time>2010-08-28T15:58:38.71</time>
<name>1142</name>
</trkpt>
<trkpt lat="49.531292" lon="9.203297">
<ele>489.0</ele>
<speed>30.5</speed>
<course>94.7</course>
<desc>Speed 30.5 km/h Distance 39.23 km</desc>
<time>2010-08-28T15:58:39.71</time>
<name>1143</name>
</trkpt>
<trkpt lat="49.531287" lon="9.203390">
<ele>489.5</ele>
<speed>24.7</speed>
<course>68.6</course>
<desc>Speed 24.7 km/h Distance 39.24 km</desc>
<time>2010-08-28T15:58:40.71</time>
<name>1144</name>
</trkpt>
<trkpt lat="49.531312" lon="9.203488">
<ele>489.5</ele>
<speed>28.3</speed>
<course>63.9</course>
<desc>Speed 28.3 km/h Distance 39.25 km</desc>
<time>2010-08-28T15:58:41.71</time>
<name>1145</name>
</trkpt>
<trkpt lat="49.531335" lon="9.203562">
<ele>489.5</ele>
<speed>22.5</speed>
<course>6.5</course>
<desc>Speed 22.5 km/h Distance 39.25 km</desc>
<time>2010-08-28T15:58:42.71</time>
<name>1146</name>
</trkpt>
<trkpt lat="49.531430" lon="9.203578">
<ele>490.0</ele>
<speed>24.9</speed>
<course>351.7</course>
<desc>Speed 24.9 km/h Distance 39.27 km</desc>
<time>2010-08-28T15:58:44.71</time>
<name>1147</name>
</trkpt>
<trkpt lat="49.531482" lon="9.203567">
<ele>490.0</ele>
<speed>24.9</speed>
<course>349.8</course>
<desc>Speed 24.9 km/h Distance 39.27 km</desc>
<time>2010-08-28T15:58:45.71</time>
<name>1148</name>
</trkpt>
<trkpt lat="49.531560" lon="9.203545">
<ele>490.5</ele>
<speed>24.9</speed>
<course>302.2</course>
<desc>Speed 24.9 km/h Distance 39.28 km</desc>
<time>2010-08-28T15:58:47.71</time>
<name>1149</name>
</trkpt>
<trkpt lat="49.531915" lon="9.202675">
<ele>489.0</ele>
<speed>53.3</speed>
<course>305.3</course>
<desc>Speed 53.3 km/h Distance 39.35 km</desc>
<time>2010-08-28T15:58:52.70</time>
<name>1150</name>
</trkpt>
<trkpt lat="49.532182" lon="9.202095">
<ele>487.0</ele>
<speed>53.3</speed>
<course>321.1</course>
<desc>Speed 53.3 km/h Distance 39.41 km</desc>
<time>2010-08-28T15:58:55.70</time>
<name>1151</name>
</trkpt>
<trkpt lat="49.532388" lon="9.201838">
<ele>488.0</ele>
<speed>53.3</speed>
<course>346.6</course>
<desc>Speed 53.3 km/h Distance 39.44 km</desc>
<time>2010-08-28T15:58:58.69</time>
<name>1152</name>
</trkpt>
<trkpt lat="49.532673" lon="9.201733">
<ele>487.5</ele>
<speed>53.3</speed>
<course>5.3</course>
<desc>Speed 53.3 km/h Distance 39.47 km</desc>
<time>2010-08-28T15:59:00.69</time>
<name>1153</name>
</trkpt>
<trkpt lat="49.532917" lon="9.201768">
<ele>488.0</ele>
<speed>53.3</speed>
<course>15.1</course>
<desc>Speed 53.3 km/h Distance 39.49 km</desc>
<time>2010-08-28T15:59:02.69</time>
<name>1154</name>
</trkpt>
<trkpt lat="49.533230" lon="9.201898">
<ele>486.5</ele>
<speed>48.2</speed>
<course>36.7</course>
<desc>Speed 48.2 km/h Distance 39.53 km</desc>
<time>2010-08-28T15:59:04.69</time>
<name>1155</name>
</trkpt>
<trkpt lat="49.533477" lon="9.202182">
<ele>488.0</ele>
<speed>42.0</speed>
<course>29.9</course>
<desc>Speed 42.0 km/h Distance 39.57 km</desc>
<time>2010-08-28T15:59:06.69</time>
<name>1156</name>
</trkpt>
<trkpt lat="49.533695" lon="9.202375">
<ele>486.0</ele>
<speed>37.6</speed>
<course>45.6</course>
<desc>Speed 37.6 km/h Distance 39.59 km</desc>
<time>2010-08-28T15:59:08.69</time>
<name>1157</name>
</trkpt>
<trkpt lat="49.533765" lon="9.202485">
<ele>487.5</ele>
<speed>33.4</speed>
<course>40.7</course>
<desc>Speed 33.4 km/h Distance 39.60 km</desc>
<time>2010-08-28T15:59:09.69</time>
<name>1158</name>
</trkpt>
<trkpt lat="49.533898" lon="9.202662">
<ele>488.5</ele>
<speed>12.7</speed>
<course>22.4</course>
<desc>Speed 12.7 km/h Distance 39.62 km</desc>
<time>2010-08-28T15:59:12.67</time>
<name>1159</name>
</trkpt>
<trkpt lat="49.534008" lon="9.202732">
<ele>493.0</ele>
<speed>8.1</speed>
<course>36.9</course>
<desc>Speed 8.1 km/h Distance 39.64 km</desc>
<time>2010-08-28T15:59:14.68</time>
<name>1160</name>
</trkpt>
<trkpt lat="49.534083" lon="9.202818">
<ele>490.5</ele>
<speed>19.8</speed>
<course>27.2</course>
<desc>Speed 19.8 km/h Distance 39.65 km</desc>
<time>2010-08-28T15:59:16.69</time>
<name>1161</name>
</trkpt>
<trkpt lat="49.534115" lon="9.202843">
<ele>489.0</ele>
<speed>19.8</speed>
<course>28.3</course>
<desc>Speed 19.8 km/h Distance 39.65 km</desc>
<time>2010-08-28T15:59:17.68</time>
<name>1162</name>
</trkpt>
<trkpt lat="49.534173" lon="9.202892">
<ele>488.0</ele>
<speed>19.8</speed>
<course>29.8</course>
<desc>Speed 19.8 km/h Distance 39.66 km</desc>
<time>2010-08-28T15:59:19.68</time>
<name>1163</name>
</trkpt>
<trkpt lat="49.534202" lon="9.202917">
<ele>486.5</ele>
<speed>19.8</speed>
<course>1.9</course>
<desc>Speed 19.8 km/h Distance 39.66 km</desc>
<time>2010-08-28T15:59:20.68</time>
<name>1164</name>
</trkpt>
<trkpt lat="49.534295" lon="9.202922">
<ele>475.0</ele>
<speed>19.8</speed>
<course>357.8</course>
<desc>Speed 19.8 km/h Distance 39.67 km</desc>
<time>2010-08-28T15:59:22.68</time>
<name>1165</name>
</trkpt>
<trkpt lat="49.534348" lon="9.202918">
<ele>468.0</ele>
<speed>19.8</speed>
<course>23.0</course>
<desc>Speed 19.8 km/h Distance 39.68 km</desc>
<time>2010-08-28T15:59:23.67</time>
<name>1166</name>
</trkpt>
<trkpt lat="49.535063" lon="9.203387">
<ele>472.5</ele>
<speed>19.8</speed>
<course>32.6</course>
<desc>Speed 19.8 km/h Distance 39.77 km</desc>
<time>2010-08-28T15:59:25.68</time>
<name>1167</name>
</trkpt>
<trkpt lat="49.535705" lon="9.204020">
<ele>481.0</ele>
<speed>57.6</speed>
<course>0.4</course>
<desc>Speed 57.6 km/h Distance 39.85 km</desc>
<time>2010-08-28T15:59:30.68</time>
<name>1168</name>
</trkpt>
<trkpt lat="49.536005" lon="9.204023">
<ele>480.5</ele>
<speed>64.8</speed>
<course>351.4</course>
<desc>Speed 64.8 km/h Distance 39.88 km</desc>
<time>2010-08-28T15:59:34.67</time>
<name>1169</name>
</trkpt>
<trkpt lat="49.536148" lon="9.203990">
<ele>480.0</ele>
<speed>64.8</speed>
<course>346.9</course>
<desc>Speed 64.8 km/h Distance 39.90 km</desc>
<time>2010-08-28T15:59:35.66</time>
<name>1170</name>
</trkpt>
<trkpt lat="49.536502" lon="9.203863">
<ele>481.0</ele>
<speed>64.8</speed>
<course>344.5</course>
<desc>Speed 64.8 km/h Distance 39.94 km</desc>
<time>2010-08-28T15:59:39.66</time>
<name>1171</name>
</trkpt>
<trkpt lat="49.536973" lon="9.203662">
<ele>479.0</ele>
<speed>36.5</speed>
<course>337.0</course>
<desc>Speed 36.5 km/h Distance 39.99 km</desc>
<time>2010-08-28T15:59:43.66</time>
<name>1172</name>
</trkpt>
<trkpt lat="49.537065" lon="9.203602">
<ele>478.5</ele>
<speed>36.5</speed>
<course>329.4</course>
<desc>Speed 36.5 km/h Distance 40.01 km</desc>
<time>2010-08-28T15:59:44.66</time>
<name>1173</name>
</trkpt>
<trkpt lat="49.537195" lon="9.203483">
<ele>478.0</ele>
<speed>30.2</speed>
<course>320.8</course>
<desc>Speed 30.2 km/h Distance 40.02 km</desc>
<time>2010-08-28T15:59:46.66</time>
<name>1174</name>
</trkpt>
<trkpt lat="49.537247" lon="9.203418">
<ele>478.5</ele>
<speed>30.2</speed>
<course>349.5</course>
<desc>Speed 30.2 km/h Distance 40.03 km</desc>
<time>2010-08-28T15:59:47.66</time>
<name>1175</name>
</trkpt>
<trkpt lat="49.537422" lon="9.203368">
<ele>477.5</ele>
<speed>30.2</speed>
<course>338.9</course>
<desc>Speed 30.2 km/h Distance 40.05 km</desc>
<time>2010-08-28T15:59:49.66</time>
<name>1176</name>
</trkpt>
<trkpt lat="49.537500" lon="9.203322">
<ele>478.0</ele>
<speed>30.2</speed>
<course>8.2</course>
<desc>Speed 30.2 km/h Distance 40.06 km</desc>
<time>2010-08-28T15:59:51.65</time>
<name>1177</name>
</trkpt>
<trkpt lat="49.537673" lon="9.203360">
<ele>477.5</ele>
<speed>30.2</speed>
<course>15.1</course>
<desc>Speed 30.2 km/h Distance 40.08 km</desc>
<time>2010-08-28T15:59:54.65</time>
<name>1178</name>
</trkpt>
<trkpt lat="49.537862" lon="9.203438">
<ele>480.5</ele>
<speed>30.2</speed>
<course>24.4</course>
<desc>Speed 30.2 km/h Distance 40.10 km</desc>
<time>2010-08-28T15:59:57.65</time>
<name>1179</name>
</trkpt>
<trkpt lat="49.537945" lon="9.203497">
<ele>484.5</ele>
<speed>30.2</speed>
<course>6.4</course>
<desc>Speed 30.2 km/h Distance 40.11 km</desc>
<time>2010-08-28T15:59:58.65</time>
<name>1180</name>
</trkpt>
<trkpt lat="49.540227" lon="9.203888">
<ele>479.0</ele>
<speed>86.0</speed>
<course>19.3</course>
<desc>Speed 86.0 km/h Distance 40.37 km</desc>
<time>2010-08-28T16:00:04.65</time>
<name>1181</name>
</trkpt>
<trkpt lat="49.540932" lon="9.204268">
<ele>479.5</ele>
<speed>90.0</speed>
<course>6.6</course>
<desc>Speed 90.0 km/h Distance 40.45 km</desc>
<time>2010-08-28T16:00:07.64</time>
<name>1182</name>
</trkpt>
<trkpt lat="49.541167" lon="9.204310">
<ele>478.5</ele>
<speed>91.4</speed>
<course>11.5</course>
<desc>Speed 91.4 km/h Distance 40.48 km</desc>
<time>2010-08-28T16:00:08.64</time>
<name>1183</name>
</trkpt>
<trkpt lat="49.541400" lon="9.204383">
<ele>479.0</ele>
<speed>94.5</speed>
<course>2.1</course>
<desc>Speed 94.5 km/h Distance 40.50 km</desc>
<time>2010-08-28T16:00:09.65</time>
<name>1184</name>
</trkpt>
<trkpt lat="49.541638" lon="9.204397">
<ele>480.5</ele>
<speed>93.1</speed>
<course>355.5</course>
<desc>Speed 93.1 km/h Distance 40.53 km</desc>
<time>2010-08-28T16:00:10.65</time>
<name>1185</name>
</trkpt>
<trkpt lat="49.542340" lon="9.204312">
<ele>487.5</ele>
<speed>93.1</speed>
<course>327.2</course>
<desc>Speed 93.1 km/h Distance 40.61 km</desc>
<time>2010-08-28T16:00:15.65</time>
<name>1186</name>
</trkpt>
<trkpt lat="49.543182" lon="9.203477">
<ele>486.0</ele>
<speed>108</speed>
<course>335.2</course>
<desc>Speed 108 km/h Distance 40.72 km</desc>
<time>2010-08-28T16:00:20.64</time>
<name>1187</name>
</trkpt>
<trkpt lat="49.545338" lon="9.201943">
<ele>502.5</ele>
<speed>103</speed>
<course>330.6</course>
<desc>Speed 103 km/h Distance 40.98 km</desc>
<time>2010-08-28T16:00:26.62</time>
<name>1188</name>
</trkpt>
<trkpt lat="49.545813" lon="9.201530">
<ele>508.0</ele>
<speed>94.3</speed>
<course>332.2</course>
<desc>Speed 94.3 km/h Distance 41.04 km</desc>
<time>2010-08-28T16:00:28.62</time>
<name>1189</name>
</trkpt>
<trkpt lat="49.546262" lon="9.201165">
<ele>512.5</ele>
<speed>93.2</speed>
<course>331.6</course>
<desc>Speed 93.2 km/h Distance 41.10 km</desc>
<time>2010-08-28T16:00:30.62</time>
<name>1190</name>
</trkpt>
<trkpt lat="49.546470" lon="9.200992">
<ele>513.5</ele>
<speed>93.1</speed>
<course>335.4</course>
<desc>Speed 93.1 km/h Distance 41.13 km</desc>
<time>2010-08-28T16:00:31.62</time>
<name>1191</name>
</trkpt>
<trkpt lat="49.546690" lon="9.200837">
<ele>514.0</ele>
<speed>93.7</speed>
<course>338.5</course>
<desc>Speed 93.7 km/h Distance 41.15 km</desc>
<time>2010-08-28T16:00:32.62</time>
<name>1192</name>
</trkpt>
<trkpt lat="49.546915" lon="9.200700">
<ele>515.0</ele>
<speed>94.5</speed>
<course>338.4</course>
<desc>Speed 94.5 km/h Distance 41.18 km</desc>
<time>2010-08-28T16:00:33.63</time>
<name>1193</name>
</trkpt>
<trkpt lat="49.547137" lon="9.200565">
<ele>515.0</ele>
<speed>94.4</speed>
<course>342.5</course>
<desc>Speed 94.4 km/h Distance 41.21 km</desc>
<time>2010-08-28T16:00:34.63</time>
<name>1194</name>
</trkpt>
<trkpt lat="49.547622" lon="9.200330">
<ele>515.5</ele>
<speed>101</speed>
<course>342.3</course>
<desc>Speed 101 km/h Distance 41.26 km</desc>
<time>2010-08-28T16:00:36.63</time>
<name>1195</name>
</trkpt>
<trkpt lat="49.548157" lon="9.200067">
<ele>515.0</ele>
<speed>114</speed>
<course>347.3</course>
<desc>Speed 114 km/h Distance 41.33 km</desc>
<time>2010-08-28T16:00:38.63</time>
<name>1196</name>
</trkpt>
<trkpt lat="49.548748" lon="9.199862">
<ele>515.5</ele>
<speed>119</speed>
<course>339.8</course>
<desc>Speed 119 km/h Distance 41.39 km</desc>
<time>2010-08-28T16:00:40.62</time>
<name>1197</name>
</trkpt>
<trkpt lat="49.549025" lon="9.199705">
<ele>514.0</ele>
<speed>114</speed>
<course>343.7</course>
<desc>Speed 114 km/h Distance 41.43 km</desc>
<time>2010-08-28T16:00:41.62</time>
<name>1198</name>
</trkpt>
<trkpt lat="49.549598" lon="9.199447">
<ele>513.5</ele>
<speed>118</speed>
<course>340.1</course>
<desc>Speed 118 km/h Distance 41.49 km</desc>
<time>2010-08-28T16:00:43.61</time>
<name>1199</name>
</trkpt>
<trkpt lat="49.550093" lon="9.199170">
<ele>512.0</ele>
<speed>114</speed>
<course>341.7</course>
<desc>Speed 114 km/h Distance 41.55 km</desc>
<time>2010-08-28T16:00:45.62</time>
<name>1200</name>
</trkpt>
<trkpt lat="49.550372" lon="9.199028">
<ele>512.5</ele>
<speed>119</speed>
<course>337.4</course>
<desc>Speed 119 km/h Distance 41.58 km</desc>
<time>2010-08-28T16:00:46.62</time>
<name>1201</name>
</trkpt>
<trkpt lat="49.551303" lon="9.198430">
<ele>513.5</ele>
<speed>119</speed>
<course>338.1</course>
<desc>Speed 119 km/h Distance 41.70 km</desc>
<time>2010-08-28T16:00:52.61</time>
<name>1202</name>
</trkpt>
<trkpt lat="49.551807" lon="9.198118">
<ele>512.5</ele>
<speed>108</speed>
<course>334.2</course>
<desc>Speed 108 km/h Distance 41.76 km</desc>
<time>2010-08-28T16:00:54.61</time>
<name>1203</name>
</trkpt>
<trkpt lat="49.552263" lon="9.197778">
<ele>510.0</ele>
<speed>96.4</speed>
<course>334.2</course>
<desc>Speed 96.4 km/h Distance 41.81 km</desc>
<time>2010-08-28T16:00:56.60</time>
<name>1204</name>
</trkpt>
<trkpt lat="49.553308" lon="9.197000">
<ele>504.5</ele>
<speed>90.8</speed>
<course>343.0</course>
<desc>Speed 90.8 km/h Distance 41.94 km</desc>
<time>2010-08-28T16:01:00.60</time>
<name>1205</name>
</trkpt>
<trkpt lat="49.553787" lon="9.196775">
<ele>505.5</ele>
<speed>92.0</speed>
<course>338.1</course>
<desc>Speed 92.0 km/h Distance 42.00 km</desc>
<time>2010-08-28T16:01:02.61</time>
<name>1206</name>
</trkpt>
<trkpt lat="49.554283" lon="9.196467">
<ele>506.5</ele>
<speed>104</speed>
<course>354.5</course>
<desc>Speed 104 km/h Distance 42.06 km</desc>
<time>2010-08-28T16:01:05.61</time>
<name>1207</name>
</trkpt>
<trkpt lat="49.554827" lon="9.196387">
<ele>514.5</ele>
<speed>95.4</speed>
<course>345.1</course>
<desc>Speed 95.4 km/h Distance 42.12 km</desc>
<time>2010-08-28T16:01:07.61</time>
<name>1208</name>
</trkpt>
<trkpt lat="49.555598" lon="9.196070">
<ele>513.0</ele>
<speed>82.5</speed>
<course>333.0</course>
<desc>Speed 82.5 km/h Distance 42.21 km</desc>
<time>2010-08-28T16:01:10.59</time>
<name>1209</name>
</trkpt>
<trkpt lat="49.556210" lon="9.195590">
<ele>506.5</ele>
<speed>76.8</speed>
<course>325.5</course>
<desc>Speed 76.8 km/h Distance 42.28 km</desc>
<time>2010-08-28T16:01:13.61</time>
<name>1210</name>
</trkpt>
<trkpt lat="49.556720" lon="9.195050">
<ele>502.5</ele>
<speed>50.5</speed>
<course>314.4</course>
<desc>Speed 50.5 km/h Distance 42.35 km</desc>
<time>2010-08-28T16:01:17.59</time>
<name>1211</name>
</trkpt>
<trkpt lat="49.556810" lon="9.194908">
<ele>501.5</ele>
<speed>48.5</speed>
<course>317.8</course>
<desc>Speed 48.5 km/h Distance 42.37 km</desc>
<time>2010-08-28T16:01:18.59</time>
<name>1212</name>
</trkpt>
<trkpt lat="49.556902" lon="9.194780">
<ele>501.5</ele>
<speed>47.6</speed>
<course>317.2</course>
<desc>Speed 47.6 km/h Distance 42.38 km</desc>
<time>2010-08-28T16:01:19.59</time>
<name>1213</name>
</trkpt>
<trkpt lat="49.556992" lon="9.194652">
<ele>501.0</ele>
<speed>46.3</speed>
<course>312.4</course>
<desc>Speed 46.3 km/h Distance 42.39 km</desc>
<time>2010-08-28T16:01:20.60</time>
<name>1214</name>
</trkpt>
<trkpt lat="49.557072" lon="9.194517">
<ele>501.0</ele>
<speed>44.6</speed>
<course>312.6</course>
<desc>Speed 44.6 km/h Distance 42.41 km</desc>
<time>2010-08-28T16:01:21.59</time>
<name>1215</name>
</trkpt>
<trkpt lat="49.557138" lon="9.194405">
<ele>501.5</ele>
<speed>44.6</speed>
<course>310.3</course>
<desc>Speed 44.6 km/h Distance 42.42 km</desc>
<time>2010-08-28T16:01:22.60</time>
<name>1216</name>
</trkpt>
<trkpt lat="49.557212" lon="9.194272">
<ele>501.5</ele>
<speed>43.5</speed>
<course>306.3</course>
<desc>Speed 43.5 km/h Distance 42.43 km</desc>
<time>2010-08-28T16:01:23.60</time>
<name>1217</name>
</trkpt>
<trkpt lat="49.557280" lon="9.194128">
<ele>501.5</ele>
<speed>44.5</speed>
<course>299.1</course>
<desc>Speed 44.5 km/h Distance 42.44 km</desc>
<time>2010-08-28T16:01:24.59</time>
<name>1218</name>
</trkpt>
<trkpt lat="49.557337" lon="9.193972">
<ele>500.0</ele>
<speed>45.4</speed>
<course>308.9</course>
<desc>Speed 45.4 km/h Distance 42.46 km</desc>
<time>2010-08-28T16:01:25.59</time>
<name>1219</name>
</trkpt>
<trkpt lat="49.557410" lon="9.193832">
<ele>501.5</ele>
<speed>43.2</speed>
<course>303.2</course>
<desc>Speed 43.2 km/h Distance 42.47 km</desc>
<time>2010-08-28T16:01:26.58</time>
<name>1220</name>
</trkpt>
<trkpt lat="49.557462" lon="9.193710">
<ele>502.5</ele>
<speed>43.2</speed>
<course>308.4</course>
<desc>Speed 43.2 km/h Distance 42.48 km</desc>
<time>2010-08-28T16:01:27.59</time>
<name>1221</name>
</trkpt>
<trkpt lat="49.557525" lon="9.193587">
<ele>502.0</ele>
<speed>42.7</speed>
<course>321.9</course>
<desc>Speed 42.7 km/h Distance 42.49 km</desc>
<time>2010-08-28T16:01:28.58</time>
<name>1222</name>
</trkpt>
<trkpt lat="49.557692" lon="9.193385">
<ele>505.0</ele>
<speed>42.9</speed>
<course>326.2</course>
<desc>Speed 42.9 km/h Distance 42.52 km</desc>
<time>2010-08-28T16:01:30.59</time>
<name>1223</name>
</trkpt>
<trkpt lat="49.557855" lon="9.193217">
<ele>505.0</ele>
<speed>42.9</speed>
<course>331.5</course>
<desc>Speed 42.9 km/h Distance 42.54 km</desc>
<time>2010-08-28T16:01:33.59</time>
<name>1224</name>
</trkpt>
<trkpt lat="49.558008" lon="9.193088">
<ele>508.5</ele>
<speed>42.9</speed>
<course>339.4</course>
<desc>Speed 42.9 km/h Distance 42.56 km</desc>
<time>2010-08-28T16:01:36.57</time>
<name>1225</name>
</trkpt>
<trkpt lat="49.558568" lon="9.192763">
<ele>511.0</ele>
<speed>48.9</speed>
<course>327.3</course>
<desc>Speed 48.9 km/h Distance 42.62 km</desc>
<time>2010-08-28T16:01:40.56</time>
<name>1226</name>
</trkpt>
<trkpt lat="49.558752" lon="9.192582">
<ele>511.0</ele>
<speed>48.9</speed>
<course>343.1</course>
<desc>Speed 48.9 km/h Distance 42.65 km</desc>
<time>2010-08-28T16:01:44.57</time>
<name>1227</name>
</trkpt>
<trkpt lat="49.558972" lon="9.192478">
<ele>513.0</ele>
<speed>48.9</speed>
<course>327.7</course>
<desc>Speed 48.9 km/h Distance 42.67 km</desc>
<time>2010-08-28T16:01:49.56</time>
<name>1228</name>
</trkpt>
<trkpt lat="49.559165" lon="9.192290">
<ele>514.5</ele>
<speed>48.9</speed>
<course>337.1</course>
<desc>Speed 48.9 km/h Distance 42.70 km</desc>
<time>2010-08-28T16:01:54.56</time>
<name>1229</name>
</trkpt>
<trkpt lat="49.559370" lon="9.192157">
<ele>516.0</ele>
<speed>48.9</speed>
<course>337.0</course>
<desc>Speed 48.9 km/h Distance 42.72 km</desc>
<time>2010-08-28T16:01:58.55</time>
<name>1230</name>
</trkpt>
<trkpt lat="49.559563" lon="9.192030">
<ele>515.5</ele>
<speed>48.9</speed>
<course>335.7</course>
<desc>Speed 48.9 km/h Distance 42.75 km</desc>
<time>2010-08-28T16:02:02.55</time>
<name>1231</name>
</trkpt>
<trkpt lat="49.559793" lon="9.191870">
<ele>516.5</ele>
<speed>48.9</speed>
<course>327.4</course>
<desc>Speed 48.9 km/h Distance 42.77 km</desc>
<time>2010-08-28T16:02:06.55</time>
<name>1232</name>
</trkpt>
<trkpt lat="49.559920" lon="9.191745">
<ele>518.0</ele>
<speed>48.9</speed>
<course>311.7</course>
<desc>Speed 48.9 km/h Distance 42.79 km</desc>
<time>2010-08-28T16:02:07.71</time>
<name>1233</name>
</trkpt>
<trkpt lat="49.560167" lon="9.191318">
<ele>520.5</ele>
<speed>48.9</speed>
<course>292.0</course>
<desc>Speed 48.9 km/h Distance 42.83 km</desc>
<time>2010-08-28T16:02:10.55</time>
<name>1234</name>
</trkpt>
<trkpt lat="49.560445" lon="9.190257">
<ele>518.0</ele>
<speed>43.6</speed>
<course>294.1</course>
<desc>Speed 43.6 km/h Distance 42.92 km</desc>
<time>2010-08-28T16:02:14.54</time>
<name>1235</name>
</trkpt>
<trkpt lat="49.560520" lon="9.189998">
<ele>516.5</ele>
<speed>43.6</speed>
<course>291.6</course>
<desc>Speed 43.6 km/h Distance 42.94 km</desc>
<time>2010-08-28T16:02:17.54</time>
<name>1236</name>
</trkpt>
<trkpt lat="49.560780" lon="9.188988">
<ele>507.0</ele>
<speed>49.2</speed>
<course>299.9</course>
<desc>Speed 49.2 km/h Distance 43.01 km</desc>
<time>2010-08-28T16:02:21.53</time>
<name>1237</name>
</trkpt>
<trkpt lat="49.560848" lon="9.188805">
<ele>507.0</ele>
<speed>49.2</speed>
<course>309.9</course>
<desc>Speed 49.2 km/h Distance 43.03 km</desc>
<time>2010-08-28T16:02:22.54</time>
<name>1238</name>
</trkpt>
<trkpt lat="49.561490" lon="9.187620">
<ele>515.5</ele>
<speed>73.7</speed>
<course>300.3</course>
<desc>Speed 73.7 km/h Distance 43.14 km</desc>
<time>2010-08-28T16:02:27.53</time>
<name>1239</name>
</trkpt>
<trkpt lat="49.561653" lon="9.187188">
<ele>517.5</ele>
<speed>68.3</speed>
<course>295.0</course>
<desc>Speed 68.3 km/h Distance 43.18 km</desc>
<time>2010-08-28T16:02:29.53</time>
<name>1240</name>
</trkpt>
<trkpt lat="49.561813" lon="9.186658">
<ele>511.0</ele>
<speed>60.9</speed>
<course>280.7</course>
<desc>Speed 60.9 km/h Distance 43.22 km</desc>
<time>2010-08-28T16:02:31.52</time>
<name>1241</name>
</trkpt>
<trkpt lat="49.561862" lon="9.186265">
<ele>511.5</ele>
<speed>53.1</speed>
<course>280.1</course>
<desc>Speed 53.1 km/h Distance 43.25 km</desc>
<time>2010-08-28T16:02:33.52</time>
<name>1242</name>
</trkpt>
<trkpt lat="49.561902" lon="9.185918">
<ele>513.5</ele>
<speed>53.1</speed>
<course>305.2</course>
<desc>Speed 53.1 km/h Distance 43.27 km</desc>
<time>2010-08-28T16:02:35.52</time>
<name>1243</name>
</trkpt>
<trkpt lat="49.562195" lon="9.185277">
<ele>516.5</ele>
<speed>67.2</speed>
<course>317.0</course>
<desc>Speed 67.2 km/h Distance 43.33 km</desc>
<time>2010-08-28T16:02:38.52</time>
<name>1244</name>
</trkpt>
<trkpt lat="49.562325" lon="9.185090">
<ele>518.0</ele>
<speed>71.2</speed>
<course>313.7</course>
<desc>Speed 71.2 km/h Distance 43.35 km</desc>
<time>2010-08-28T16:02:39.52</time>
<name>1245</name>
</trkpt>
<trkpt lat="49.562607" lon="9.184635">
<ele>531.0</ele>
<speed>71.2</speed>
<course>306.1</course>
<desc>Speed 71.2 km/h Distance 43.40 km</desc>
<time>2010-08-28T16:02:41.51</time>
<name>1246</name>
</trkpt>
<trkpt lat="49.562712" lon="9.184413">
<ele>530.5</ele>
<speed>67.7</speed>
<course>306.2</course>
<desc>Speed 67.7 km/h Distance 43.42 km</desc>
<time>2010-08-28T16:02:42.52</time>
<name>1247</name>
</trkpt>
<trkpt lat="49.562820" lon="9.184185">
<ele>531.5</ele>
<speed>71.0</speed>
<course>305.1</course>
<desc>Speed 71.0 km/h Distance 43.44 km</desc>
<time>2010-08-28T16:02:43.51</time>
<name>1248</name>
</trkpt>
<trkpt lat="49.562922" lon="9.183962">
<ele>532.5</ele>
<speed>67.3</speed>
<course>326.2</course>
<desc>Speed 67.3 km/h Distance 43.46 km</desc>
<time>2010-08-28T16:02:44.51</time>
<name>1249</name>
</trkpt>
<trkpt lat="49.563437" lon="9.183430">
<ele>533.5</ele>
<speed>85.7</speed>
<course>323.2</course>
<desc>Speed 85.7 km/h Distance 43.52 km</desc>
<time>2010-08-28T16:02:47.51</time>
<name>1250</name>
</trkpt>
<trkpt lat="49.563905" lon="9.182890">
<ele>529.0</ele>
<speed>70.0</speed>
<course>322.7</course>
<desc>Speed 70.0 km/h Distance 43.59 km</desc>
<time>2010-08-28T16:02:51.49</time>
<name>1251</name>
</trkpt>
<trkpt lat="49.564202" lon="9.182542">
<ele>525.5</ele>
<speed>67.6</speed>
<course>331.5</course>
<desc>Speed 67.6 km/h Distance 43.63 km</desc>
<time>2010-08-28T16:02:53.50</time>
<name>1252</name>
</trkpt>
<trkpt lat="49.565038" lon="9.181842">
<ele>521.0</ele>
<speed>83.5</speed>
<course>333.9</course>
<desc>Speed 83.5 km/h Distance 43.74 km</desc>
<time>2010-08-28T16:02:57.50</time>
<name>1253</name>
</trkpt>
<trkpt lat="49.565235" lon="9.181693">
<ele>522.0</ele>
<speed>84.2</speed>
<course>322.1</course>
<desc>Speed 84.2 km/h Distance 43.76 km</desc>
<time>2010-08-28T16:02:58.50</time>
<name>1254</name>
</trkpt>
<trkpt lat="49.565392" lon="9.181505">
<ele>521.5</ele>
<speed>77.9</speed>
<course>325.3</course>
<desc>Speed 77.9 km/h Distance 43.78 km</desc>
<time>2010-08-28T16:02:59.49</time>
<name>1255</name>
</trkpt>
<trkpt lat="49.565948" lon="9.180912">
<ele>528.5</ele>
<speed>92.2</speed>
<course>318.1</course>
<desc>Speed 92.2 km/h Distance 43.86 km</desc>
<time>2010-08-28T16:03:03.49</time>
<name>1256</name>
</trkpt>
<trkpt lat="49.566308" lon="9.180413">
<ele>534.5</ele>
<speed>90.5</speed>
<course>312.0</course>
<desc>Speed 90.5 km/h Distance 43.91 km</desc>
<time>2010-08-28T16:03:05.49</time>
<name>1257</name>
</trkpt>
<trkpt lat="49.566460" lon="9.180153">
<ele>534.5</ele>
<speed>88.6</speed>
<course>311.4</course>
<desc>Speed 88.6 km/h Distance 43.94 km</desc>
<time>2010-08-28T16:03:06.48</time>
<name>1258</name>
</trkpt>
<trkpt lat="49.566607" lon="9.179897">
<ele>535.5</ele>
<speed>85.2</speed>
<course>308.8</course>
<desc>Speed 85.2 km/h Distance 43.96 km</desc>
<time>2010-08-28T16:03:07.48</time>
<name>1259</name>
</trkpt>
<trkpt lat="49.566955" lon="9.179228">
<ele>537.5</ele>
<speed>78.9</speed>
<course>297.2</course>
<desc>Speed 78.9 km/h Distance 44.02 km</desc>
<time>2010-08-28T16:03:10.49</time>
<name>1260</name>
</trkpt>
<trkpt lat="49.567115" lon="9.178748">
<ele>540.0</ele>
<speed>67.2</speed>
<course>292.3</course>
<desc>Speed 67.2 km/h Distance 44.06 km</desc>
<time>2010-08-28T16:03:12.48</time>
<name>1261</name>
</trkpt>
<trkpt lat="49.567240" lon="9.178278">
<ele>539.5</ele>
<speed>74.9</speed>
<course>288.5</course>
<desc>Speed 74.9 km/h Distance 44.10 km</desc>
<time>2010-08-28T16:03:14.48</time>
<name>1262</name>
</trkpt>
<trkpt lat="49.567343" lon="9.177802">
<ele>539.5</ele>
<speed>70.5</speed>
<course>289.4</course>
<desc>Speed 70.5 km/h Distance 44.14 km</desc>
<time>2010-08-28T16:03:16.48</time>
<name>1263</name>
</trkpt>
<trkpt lat="49.567445" lon="9.177357">
<ele>538.5</ele>
<speed>57.1</speed>
<course>279.6</course>
<desc>Speed 57.1 km/h Distance 44.17 km</desc>
<time>2010-08-28T16:03:18.48</time>
<name>1264</name>
</trkpt>
<trkpt lat="49.567490" lon="9.176945">
<ele>538.5</ele>
<speed>59.0</speed>
<course>276.9</course>
<desc>Speed 59.0 km/h Distance 44.20 km</desc>
<time>2010-08-28T16:03:20.81</time>
<name>1265</name>
</trkpt>
<trkpt lat="49.567538" lon="9.176333">
<ele>538.0</ele>
<speed>49.8</speed>
<course>270.7</course>
<desc>Speed 49.8 km/h Distance 44.25 km</desc>
<time>2010-08-28T16:03:23.47</time>
<name>1266</name>
</trkpt>
<trkpt lat="49.567542" lon="9.175922">
<ele>537.5</ele>
<speed>31.4</speed>
<course>282.1</course>
<desc>Speed 31.4 km/h Distance 44.28 km</desc>
<time>2010-08-28T16:03:26.47</time>
<name>1267</name>
</trkpt>
<trkpt lat="49.567578" lon="9.175658">
<ele>542.0</ele>
<speed>27.6</speed>
<course>272.8</course>
<desc>Speed 27.6 km/h Distance 44.29 km</desc>
<time>2010-08-28T16:03:28.46</time>
<name>1268</name>
</trkpt>
<trkpt lat="49.567582" lon="9.175553">
<ele>546.0</ele>
<speed>24.5</speed>
<course>274.2</course>
<desc>Speed 24.5 km/h Distance 44.30 km</desc>
<time>2010-08-28T16:03:29.47</time>
<name>1269</name>
</trkpt>
<trkpt lat="49.567587" lon="9.175448">
<ele>548.0</ele>
<speed>24.5</speed>
<course>271.3</course>
<desc>Speed 24.5 km/h Distance 44.31 km</desc>
<time>2010-08-28T16:03:30.47</time>
<name>1270</name>
</trkpt>
<trkpt lat="49.567588" lon="9.175333">
<ele>550.5</ele>
<speed>24.5</speed>
<course>300.7</course>
<desc>Speed 24.5 km/h Distance 44.32 km</desc>
<time>2010-08-28T16:03:32.46</time>
<name>1271</name>
</trkpt>
<trkpt lat="49.567605" lon="9.175290">
<ele>556.5</ele>
<speed>0.4</speed>
<course>270.0</course>
<desc>Speed 0.4 km/h Distance 44.32 km</desc>
<time>2010-08-28T16:03:36.46</time>
<name>1272</name>
</trkpt>
<trkpt lat="49.567605" lon="9.175285">
<ele>556.5</ele>
<speed>0.6</speed>
<course>217.2</course>
<desc>Speed 0.6 km/h Distance 44.32 km</desc>
<time>2010-08-28T16:03:37.44</time>
<name>1273</name>
</trkpt>
<trkpt lat="49.567603" lon="9.175283">
<ele>556.5</ele>
<speed>0.2</speed>
<course>167.4</course>
<desc>Speed 0.2 km/h Distance 44.32 km</desc>
<time>2010-08-28T16:03:38.45</time>
<name>1274</name>
</trkpt>
<trkpt lat="49.567600" lon="9.175283">
<ele>556.5</ele>
<speed>1.3</speed>
<course>322.8</course>
<desc>Speed 1.3 km/h Distance 44.32 km</desc>
<time>2010-08-28T16:03:39.46</time>
<name>1275</name>
</trkpt>
<trkpt lat="49.567602" lon="9.175282">
<ele>556.5</ele>
<speed>0.1</speed>
<course>270.0</course>
<desc>Speed 0.1 km/h Distance 44.32 km</desc>
<time>2010-08-28T16:03:40.46</time>
<name>1276</name>
</trkpt>
<trkpt lat="49.567602" lon="9.175280">
<ele>556.5</ele>
<speed>0.6</speed>
<course>307.6</course>
<desc>Speed 0.6 km/h Distance 44.32 km</desc>
<time>2010-08-28T16:03:41.46</time>
<name>1277</name>
</trkpt>
<trkpt lat="49.567605" lon="9.175273">
<ele>556.5</ele>
<speed>0.4</speed>
<course>12.6</course>
<desc>Speed 0.4 km/h Distance 44.32 km</desc>
<time>2010-08-28T16:03:42.46</time>
<name>1278</name>
</trkpt>
<trkpt lat="49.567607" lon="9.175273">
<ele>556.5</ele>
<speed>0.1</speed>
<course>12.6</course>
<desc>Speed 0.1 km/h Distance 44.32 km</desc>
<time>2010-08-28T16:03:43.45</time>
<name>1279</name>
</trkpt>
<trkpt lat="49.567607" lon="9.175272">
<ele>556.5</ele>
<speed>0.3</speed>
<course>347.4</course>
<desc>Speed 0.3 km/h Distance 44.32 km</desc>
<time>2010-08-28T16:03:44.45</time>
<name>1280</name>
</trkpt>
<trkpt lat="49.567610" lon="9.175270">
<ele>557.0</ele>
<speed>0.2</speed>
<course>316.5</course>
<desc>Speed 0.2 km/h Distance 44.32 km</desc>
<time>2010-08-28T16:03:45.45</time>
<name>1281</name>
</trkpt>
<trkpt lat="49.567613" lon="9.175265">
<ele>556.5</ele>
<speed>0.1</speed>
<course>347.4</course>
<desc>Speed 0.1 km/h Distance 44.32 km</desc>
<time>2010-08-28T16:03:46.45</time>
<name>1282</name>
</trkpt>
<trkpt lat="49.567618" lon="9.175263">
<ele>557.0</ele>
<speed>0.2</speed>
<course>322.8</course>
<desc>Speed 0.2 km/h Distance 44.33 km</desc>
<time>2010-08-28T16:03:47.44</time>
<name>1283</name>
</trkpt>
<trkpt lat="49.567620" lon="9.175262">
<ele>557.0</ele>
<speed>0.1</speed>
<course>347.4</course>
<desc>Speed 0.1 km/h Distance 44.33 km</desc>
<time>2010-08-28T16:03:48.45</time>
<name>1284</name>
</trkpt>
<trkpt lat="49.567625" lon="9.175260">
<ele>557.0</ele>
<speed>0.1</speed>
<course>347.4</course>
<desc>Speed 0.1 km/h Distance 44.33 km</desc>
<time>2010-08-28T16:03:49.45</time>
<name>1285</name>
</trkpt>
<trkpt lat="49.567625" lon="9.175260">
<ele>557.0</ele>
<speed>0.1</speed>
<course>347.4</course>
<desc>Speed 0.1 km/h Distance 44.33 km</desc>
<time>2010-08-28T16:03:50.45</time>
<name>1286</name>
</trkpt>
<trkpt lat="49.567627" lon="9.175258">
<ele>557.0</ele>
<speed>0.7</speed>
<course>347.4</course>
<desc>Speed 0.7 km/h Distance 44.33 km</desc>
<time>2010-08-28T16:03:51.45</time>
<name>1287</name>
</trkpt>
<trkpt lat="49.567630" lon="9.175257">
<ele>557.5</ele>
<speed>0.8</speed>
<course>334.4</course>
<desc>Speed 0.8 km/h Distance 44.33 km</desc>
<time>2010-08-28T16:03:53.44</time>
<name>1288</name>
</trkpt>
<trkpt lat="49.567637" lon="9.175252">
<ele>557.5</ele>
<speed>0.4</speed>
<course>303.6</course>
<desc>Speed 0.4 km/h Distance 44.33 km</desc>
<time>2010-08-28T16:03:54.44</time>
<name>1289</name>
</trkpt>
<trkpt lat="49.567642" lon="9.175240">
<ele>557.0</ele>
<speed>0.2</speed>
<course>352.6</course>
<desc>Speed 0.2 km/h Distance 44.33 km</desc>
<time>2010-08-28T16:03:55.44</time>
<name>1290</name>
</trkpt>
<trkpt lat="49.567648" lon="9.175238">
<ele>557.0</ele>
<speed>0.4</speed>
<course>330.8</course>
<desc>Speed 0.4 km/h Distance 44.33 km</desc>
<time>2010-08-28T16:03:56.44</time>
<name>1291</name>
</trkpt>
<trkpt lat="49.567650" lon="9.175237">
<ele>557.0</ele>
<speed>0.2</speed>
<course>330.8</course>
<desc>Speed 0.2 km/h Distance 44.33 km</desc>
<time>2010-08-28T16:03:57.43</time>
<name>1292</name>
</trkpt>
<trkpt lat="49.567652" lon="9.175235">
<ele>557.0</ele>
<speed>0.3</speed>
<course>330.8</course>
<desc>Speed 0.3 km/h Distance 44.33 km</desc>
<time>2010-08-28T16:03:58.44</time>
<name>1293</name>
</trkpt>
<trkpt lat="49.567652" lon="9.175235">
<ele>557.0</ele>
<speed>0.3</speed>
<course>330.8</course>
<desc>Speed 0.3 km/h Distance 44.33 km</desc>
<time>2010-08-28T16:03:59.44</time>
<name>1294</name>
</trkpt>
<trkpt lat="49.567652" lon="9.175235">
<ele>557.0</ele>
<speed>0.3</speed>
<course>12.6</course>
<desc>Speed 0.3 km/h Distance 44.33 km</desc>
<time>2010-08-28T16:04:00.43</time>
<name>1295</name>
</trkpt>
<trkpt lat="49.567653" lon="9.175235">
<ele>557.0</ele>
<speed>0.7</speed>
<course>128.1</course>
<desc>Speed 0.7 km/h Distance 44.33 km</desc>
<time>2010-08-28T16:04:01.44</time>
<name>1296</name>
</trkpt>
<trkpt lat="49.567652" lon="9.175238">
<ele>557.5</ele>
<speed>1.6</speed>
<course>270.0</course>
<desc>Speed 1.6 km/h Distance 44.33 km</desc>
<time>2010-08-28T16:04:02.44</time>
<name>1297</name>
</trkpt>
<trkpt lat="49.567652" lon="9.175237">
<ele>557.5</ele>
<speed>0.9</speed>
<course>12.6</course>
<desc>Speed 0.9 km/h Distance 44.33 km</desc>
<time>2010-08-28T16:04:03.44</time>
<name>1298</name>
</trkpt>
<trkpt lat="49.567653" lon="9.175237">
<ele>557.5</ele>
<speed>0.3</speed>
<course>307.6</course>
<desc>Speed 0.3 km/h Distance 44.33 km</desc>
<time>2010-08-28T16:04:04.43</time>
<name>1299</name>
</trkpt>
<trkpt lat="49.567658" lon="9.175227">
<ele>557.5</ele>
<speed>3.3</speed>
<course>190.3</course>
<desc>Speed 3.3 km/h Distance 44.33 km</desc>
<time>2010-08-28T16:04:05.44</time>
<name>1300</name>
</trkpt>
<trkpt lat="49.567652" lon="9.175225">
<ele>557.0</ele>
<speed>2.3</speed>
<course>270.0</course>
<desc>Speed 2.3 km/h Distance 44.33 km</desc>
<time>2010-08-28T16:04:06.43</time>
<name>1301</name>
</trkpt>
<trkpt lat="49.567652" lon="9.175218">
<ele>556.5</ele>
<speed>2.1</speed>
<course>192.6</course>
<desc>Speed 2.1 km/h Distance 44.33 km</desc>
<time>2010-08-28T16:04:07.43</time>
<name>1302</name>
</trkpt>
<trkpt lat="49.567647" lon="9.175217">
<ele>556.5</ele>
<speed>1.9</speed>
<course>12.6</course>
<desc>Speed 1.9 km/h Distance 44.33 km</desc>
<time>2010-08-28T16:04:08.43</time>
<name>1303</name>
</trkpt>
<trkpt lat="49.567648" lon="9.175217">
<ele>556.5</ele>
<speed>0.3</speed>
<course>308.1</course>
<desc>Speed 0.3 km/h Distance 44.33 km</desc>
<time>2010-08-28T16:04:09.43</time>
<name>1304</name>
</trkpt>
<trkpt lat="49.567650" lon="9.175213">
<ele>556.5</ele>
<speed>0.3</speed>
<course>242.6</course>
<desc>Speed 0.3 km/h Distance 44.33 km</desc>
<time>2010-08-28T16:04:10.43</time>
<name>1305</name>
</trkpt>
<trkpt lat="49.567648" lon="9.175208">
<ele>556.0</ele>
<speed>0.9</speed>
<course>297.4</course>
<desc>Speed 0.9 km/h Distance 44.33 km</desc>
<time>2010-08-28T16:04:11.42</time>
<name>1306</name>
</trkpt>
<trkpt lat="49.567650" lon="9.175203">
<ele>555.5</ele>
<speed>0.4</speed>
<course>308.1</course>
<desc>Speed 0.4 km/h Distance 44.33 km</desc>
<time>2010-08-28T16:04:12.42</time>
<name>1307</name>
</trkpt>
<trkpt lat="49.567653" lon="9.175197">
<ele>555.5</ele>
<speed>0.3</speed>
<course>315.5</course>
<desc>Speed 0.3 km/h Distance 44.34 km</desc>
<time>2010-08-28T16:04:13.43</time>
<name>1308</name>
</trkpt>
<trkpt lat="49.567657" lon="9.175192">
<ele>555.5</ele>
<speed>0.3</speed>
<course>270.0</course>
<desc>Speed 0.3 km/h Distance 44.34 km</desc>
<time>2010-08-28T16:04:14.43</time>
<name>1309</name>
</trkpt>
<trkpt lat="49.567657" lon="9.175188">
<ele>555.5</ele>
<speed>0.5</speed>
<course>270.0</course>
<desc>Speed 0.5 km/h Distance 44.34 km</desc>
<time>2010-08-28T16:04:15.42</time>
<name>1310</name>
</trkpt>
<trkpt lat="49.567657" lon="9.175183">
<ele>555.5</ele>
<speed>1.0</speed>
<course>231.9</course>
<desc>Speed 1.0 km/h Distance 44.34 km</desc>
<time>2010-08-28T16:04:16.42</time>
<name>1311</name>
</trkpt>
<trkpt lat="49.567655" lon="9.175180">
<ele>555.5</ele>
<speed>0.2</speed>
<course>209.2</course>
<desc>Speed 0.2 km/h Distance 44.34 km</desc>
<time>2010-08-28T16:04:17.43</time>
<name>1312</name>
</trkpt>
<trkpt lat="49.567653" lon="9.175178">
<ele>555.0</ele>
<speed>0.1</speed>
<course>231.9</course>
<desc>Speed 0.1 km/h Distance 44.34 km</desc>
<time>2010-08-28T16:04:18.42</time>
<name>1313</name>
</trkpt>
<trkpt lat="49.567650" lon="9.175172">
<ele>554.0</ele>
<speed>1.4</speed>
<course>209.2</course>
<desc>Speed 1.4 km/h Distance 44.34 km</desc>
<time>2010-08-28T16:04:19.44</time>
<name>1314</name>
</trkpt>
<trkpt lat="49.567648" lon="9.175170">
<ele>554.0</ele>
<speed>0.2</speed>
<course>270.0</course>
<desc>Speed 0.2 km/h Distance 44.34 km</desc>
<time>2010-08-28T16:04:20.42</time>
<name>1315</name>
</trkpt>
<trkpt lat="49.567648" lon="9.175168">
<ele>553.5</ele>
<speed>0.2</speed>
<course>270.0</course>
<desc>Speed 0.2 km/h Distance 44.34 km</desc>
<time>2010-08-28T16:04:21.42</time>
<name>1316</name>
</trkpt>
<trkpt lat="49.567648" lon="9.175165">
<ele>553.5</ele>
<speed>0.4</speed>
<course>270.0</course>
<desc>Speed 0.4 km/h Distance 44.34 km</desc>
<time>2010-08-28T16:04:22.42</time>
<name>1317</name>
</trkpt>
<trkpt lat="49.567648" lon="9.175160">
<ele>553.0</ele>
<speed>0.4</speed>
<course>90.0</course>
<desc>Speed 0.4 km/h Distance 44.34 km</desc>
<time>2010-08-28T16:04:23.43</time>
<name>1318</name>
</trkpt>
<trkpt lat="49.567648" lon="9.175162">
<ele>553.5</ele>
<speed>1.0</speed>
<course>142.8</course>
<desc>Speed 1.0 km/h Distance 44.34 km</desc>
<time>2010-08-28T16:04:24.41</time>
<name>1319</name>
</trkpt>
<trkpt lat="49.567647" lon="9.175163">
<ele>554.0</ele>
<speed>1.4</speed>
<course>233.9</course>
<desc>Speed 1.4 km/h Distance 44.34 km</desc>
<time>2010-08-28T16:04:26.42</time>
<name>1320</name>
</trkpt>
<trkpt lat="49.567645" lon="9.175160">
<ele>553.5</ele>
<speed>1.0</speed>
<course>167.4</course>
<desc>Speed 1.0 km/h Distance 44.34 km</desc>
<time>2010-08-28T16:04:27.42</time>
<name>1321</name>
</trkpt>
<trkpt lat="49.567643" lon="9.175160">
<ele>553.0</ele>
<speed>0.4</speed>
<course>197.8</course>
<desc>Speed 0.4 km/h Distance 44.34 km</desc>
<time>2010-08-28T16:04:28.42</time>
<name>1322</name>
</trkpt>
<trkpt lat="49.567630" lon="9.175153">
<ele>551.0</ele>
<speed>3.6</speed>
<course>167.4</course>
<desc>Speed 3.6 km/h Distance 44.34 km</desc>
<time>2010-08-28T16:04:29.42</time>
<name>1323</name>
</trkpt>
<trkpt lat="49.567627" lon="9.175155">
<ele>551.0</ele>
<speed>1.0</speed>
<course>347.4</course>
<desc>Speed 1.0 km/h Distance 44.34 km</desc>
<time>2010-08-28T16:04:30.42</time>
<name>1324</name>
</trkpt>
<trkpt lat="49.567630" lon="9.175153">
<ele>551.0</ele>
<speed>1.5</speed>
<course>128.1</course>
<desc>Speed 1.5 km/h Distance 44.34 km</desc>
<time>2010-08-28T16:04:31.44</time>
<name>1325</name>
</trkpt>
<trkpt lat="49.567628" lon="9.175157">
<ele>551.5</ele>
<speed>1.3</speed>
<course>180.0</course>
<desc>Speed 1.3 km/h Distance 44.34 km</desc>
<time>2010-08-28T16:04:32.42</time>
<name>1326</name>
</trkpt>
<trkpt lat="49.567625" lon="9.175157">
<ele>550.5</ele>
<speed>1.3</speed>
<course>14.9</course>
<desc>Speed 1.3 km/h Distance 44.34 km</desc>
<time>2010-08-28T16:04:33.42</time>
<name>1327</name>
</trkpt>
<trkpt lat="49.567633" lon="9.175160">
<ele>552.5</ele>
<speed>3.0</speed>
<course>180.0</course>
<desc>Speed 3.0 km/h Distance 44.34 km</desc>
<time>2010-08-28T16:04:34.41</time>
<name>1328</name>
</trkpt>
<trkpt lat="49.567630" lon="9.175160">
<ele>552.0</ele>
<speed>2.2</speed>
<course>180.0</course>
<desc>Speed 2.2 km/h Distance 44.34 km</desc>
<time>2010-08-28T16:04:35.40</time>
<name>1329</name>
</trkpt>
<trkpt lat="49.567627" lon="9.175160">
<ele>552.0</ele>
<speed>1.7</speed>
<course>167.4</course>
<desc>Speed 1.7 km/h Distance 44.34 km</desc>
<time>2010-08-28T16:04:36.41</time>
<name>1330</name>
</trkpt>
<trkpt lat="49.567612" lon="9.175165">
<ele>551.0</ele>
<speed>6.0</speed>
<course>150.8</course>
<desc>Speed 6.0 km/h Distance 44.35 km</desc>
<time>2010-08-28T16:04:37.42</time>
<name>1331</name>
</trkpt>
<trkpt lat="49.567610" lon="9.175167">
<ele>551.0</ele>
<speed>1.2</speed>
<course>90.0</course>
<desc>Speed 1.2 km/h Distance 44.35 km</desc>
<time>2010-08-28T16:04:38.42</time>
<name>1332</name>
</trkpt>
<trkpt lat="49.567610" lon="9.175168">
<ele>550.5</ele>
<speed>1.2</speed>
<course>90.0</course>
<desc>Speed 1.2 km/h Distance 44.35 km</desc>
<time>2010-08-28T16:04:39.41</time>
<name>1333</name>
</trkpt>
<trkpt lat="49.567610" lon="9.175173">
<ele>550.5</ele>
<speed>1.2</speed>
<course>270.0</course>
<desc>Speed 1.2 km/h Distance 44.35 km</desc>
<time>2010-08-28T16:04:40.41</time>
<name>1334</name>
</trkpt>
<trkpt lat="49.567610" lon="9.175170">
<ele>550.0</ele>
<speed>1.2</speed>
<course>227.1</course>
<desc>Speed 1.2 km/h Distance 44.35 km</desc>
<time>2010-08-28T16:04:41.41</time>
<name>1335</name>
</trkpt>
<trkpt lat="49.567605" lon="9.175162">
<ele>549.5</ele>
<speed>2.9</speed>
<course>213.7</course>
<desc>Speed 2.9 km/h Distance 44.35 km</desc>
<time>2010-08-28T16:04:42.41</time>
<name>1336</name>
</trkpt>
<trkpt lat="49.567602" lon="9.175158">
<ele>549.0</ele>
<speed>2.9</speed>
<course>58.6</course>
<desc>Speed 2.9 km/h Distance 44.35 km</desc>
<time>2010-08-28T16:04:43.41</time>
<name>1337</name>
</trkpt>
<trkpt lat="49.567605" lon="9.175167">
<ele>548.5</ele>
<speed>1.2</speed>
<course>238.4</course>
<desc>Speed 1.2 km/h Distance 44.35 km</desc>
<time>2010-08-28T16:04:44.41</time>
<name>1338</name>
</trkpt>
<trkpt lat="49.567598" lon="9.175150">
<ele>548.5</ele>
<speed>2.4</speed>
<course>142.8</course>
<desc>Speed 2.4 km/h Distance 44.35 km</desc>
<time>2010-08-28T16:04:45.41</time>
<name>1339</name>
</trkpt>
<trkpt lat="49.567588" lon="9.175162">
<ele>547.0</ele>
<speed>0.9</speed>
<course>119.3</course>
<desc>Speed 0.9 km/h Distance 44.35 km</desc>
<time>2010-08-28T16:04:46.40</time>
<name>1340</name>
</trkpt>
<trkpt lat="49.567582" lon="9.175180">
<ele>546.0</ele>
<speed>0.9</speed>
<course>75.6</course>
<desc>Speed 0.9 km/h Distance 44.35 km</desc>
<time>2010-08-28T16:04:47.41</time>
<name>1341</name>
</trkpt>
<trkpt lat="49.567585" lon="9.175200">
<ele>545.5</ele>
<speed>0.9</speed>
<course>128.1</course>
<desc>Speed 0.9 km/h Distance 44.35 km</desc>
<time>2010-08-28T16:04:48.40</time>
<name>1342</name>
</trkpt>
<trkpt lat="49.567583" lon="9.175203">
<ele>545.5</ele>
<speed>0.9</speed>
<course>141.9</course>
<desc>Speed 0.9 km/h Distance 44.35 km</desc>
<time>2010-08-28T16:04:49.40</time>
<name>1343</name>
</trkpt>
<trkpt lat="49.567575" lon="9.175213">
<ele>545.0</ele>
<speed>1.4</speed>
<course>147.4</course>
<desc>Speed 1.4 km/h Distance 44.36 km</desc>
<time>2010-08-28T16:04:50.40</time>
<name>1344</name>
</trkpt>
<trkpt lat="49.567568" lon="9.175220">
<ele>544.5</ele>
<speed>1.4</speed>
<course>90.0</course>
<desc>Speed 1.4 km/h Distance 44.36 km</desc>
<time>2010-08-28T16:04:51.40</time>
<name>1345</name>
</trkpt>
<trkpt lat="49.567568" lon="9.175225">
<ele>544.5</ele>
<speed>1.4</speed>
<course>90.0</course>
<desc>Speed 1.4 km/h Distance 44.36 km</desc>
<time>2010-08-28T16:04:52.40</time>
<name>1346</name>
</trkpt>
<trkpt lat="49.567568" lon="9.175225">
<ele>544.0</ele>
<speed>1.4</speed>
<course>293.9</course>
<desc>Speed 1.4 km/h Distance 44.36 km</desc>
<time>2010-08-28T16:04:53.40</time>
<name>1347</name>
</trkpt>
<trkpt lat="49.567572" lon="9.175213">
<ele>543.0</ele>
<speed>3.3</speed>
<course>27.3</course>
<desc>Speed 3.3 km/h Distance 44.36 km</desc>
<time>2010-08-28T16:04:54.40</time>
<name>1348</name>
</trkpt>
<trkpt lat="49.567637" lon="9.175265">
<ele>549.0</ele>
<speed>5.3</speed>
<course>351.2</course>
<desc>Speed 5.3 km/h Distance 44.37 km</desc>
<time>2010-08-28T16:04:56.40</time>
<name>1349</name>
</trkpt>
<trkpt lat="49.567652" lon="9.175262">
<ele>549.5</ele>
<speed>5.3</speed>
<course>80.3</course>
<desc>Speed 5.3 km/h Distance 44.37 km</desc>
<time>2010-08-28T16:04:57.40</time>
<name>1350</name>
</trkpt>
<trkpt lat="49.567655" lon="9.175292">
<ele>550.5</ele>
<speed>5.3</speed>
<course>57.8</course>
<desc>Speed 5.3 km/h Distance 44.37 km</desc>
<time>2010-08-28T16:04:58.40</time>
<name>1351</name>
</trkpt>
<trkpt lat="49.567670" lon="9.175328">
<ele>553.5</ele>
<speed>0.7</speed>
<course>90.0</course>
<desc>Speed 0.7 km/h Distance 44.37 km</desc>
<time>2010-08-28T16:05:00.39</time>
<name>1352</name>
</trkpt>
<trkpt lat="49.567670" lon="9.175332">
<ele>553.0</ele>
<speed>0.7</speed>
<course>90.0</course>
<desc>Speed 0.7 km/h Distance 44.37 km</desc>
<time>2010-08-28T16:05:01.39</time>
<name>1353</name>
</trkpt>
<trkpt lat="49.567670" lon="9.175340">
<ele>553.5</ele>
<speed>0.7</speed>
<course>117.0</course>
<desc>Speed 0.7 km/h Distance 44.37 km</desc>
<time>2010-08-28T16:05:02.39</time>
<name>1354</name>
</trkpt>
<trkpt lat="49.567667" lon="9.175350">
<ele>552.0</ele>
<speed>0.7</speed>
<course>64.1</course>
<desc>Speed 0.7 km/h Distance 44.37 km</desc>
<time>2010-08-28T16:05:03.40</time>
<name>1355</name>
</trkpt>
<trkpt lat="49.567668" lon="9.175355">
<ele>552.5</ele>
<speed>0.7</speed>
<course>302.1</course>
<desc>Speed 0.7 km/h Distance 44.38 km</desc>
<time>2010-08-28T16:05:04.39</time>
<name>1356</name>
</trkpt>
<trkpt lat="49.567690" lon="9.175302">
<ele>553.0</ele>
<speed>2.2</speed>
<course>68.9</course>
<desc>Speed 2.2 km/h Distance 44.38 km</desc>
<time>2010-08-28T16:05:06.40</time>
<name>1357</name>
</trkpt>
<trkpt lat="49.567693" lon="9.175315">
<ele>556.0</ele>
<speed>2.2</speed>
<course>167.4</course>
<desc>Speed 2.2 km/h Distance 44.38 km</desc>
<time>2010-08-28T16:05:07.39</time>
<name>1358</name>
</trkpt>
<trkpt lat="49.567692" lon="9.175315">
<ele>557.0</ele>
<speed>1.4</speed>
<course>279.3</course>
<desc>Speed 1.4 km/h Distance 44.38 km</desc>
<time>2010-08-28T16:05:08.39</time>
<name>1359</name>
</trkpt>
<trkpt lat="49.567700" lon="9.175237">
<ele>557.0</ele>
<speed>6.6</speed>
<course>279.7</course>
<desc>Speed 6.6 km/h Distance 44.39 km</desc>
<time>2010-08-28T16:05:10.39</time>
<name>1360</name>
</trkpt>
<trkpt lat="49.567702" lon="9.175222">
<ele>556.5</ele>
<speed>6.6</speed>
<course>255.6</course>
<desc>Speed 6.6 km/h Distance 44.39 km</desc>
<time>2010-08-28T16:05:11.39</time>
<name>1361</name>
</trkpt>
<trkpt lat="49.567700" lon="9.175212">
<ele>556.5</ele>
<speed>1.7</speed>
<course>313.9</course>
<desc>Speed 1.7 km/h Distance 44.39 km</desc>
<time>2010-08-28T16:05:12.39</time>
<name>1362</name>
</trkpt>
<trkpt lat="49.567708" lon="9.175198">
<ele>559.0</ele>
<speed>1.3</speed>
<course>12.6</course>
<desc>Speed 1.3 km/h Distance 44.39 km</desc>
<time>2010-08-28T16:05:13.39</time>
<name>1363</name>
</trkpt>
<trkpt lat="49.567712" lon="9.175198">
<ele>559.5</ele>
<speed>1.3</speed>
<course>336.6</course>
<desc>Speed 1.3 km/h Distance 44.39 km</desc>
<time>2010-08-28T16:05:14.39</time>
<name>1364</name>
</trkpt>
<trkpt lat="49.567722" lon="9.175192">
<ele>561.5</ele>
<speed>1.3</speed>
<course>287.1</course>
<desc>Speed 1.3 km/h Distance 44.39 km</desc>
<time>2010-08-28T16:05:15.39</time>
<name>1365</name>
</trkpt>
<trkpt lat="49.567723" lon="9.175183">
<ele>561.0</ele>
<speed>1.8</speed>
<course>287.1</course>
<desc>Speed 1.8 km/h Distance 44.39 km</desc>
<time>2010-08-28T16:05:16.88</time>
<name>1366</name>
</trkpt>
<trkpt lat="49.567725" lon="9.175175">
<ele>561.5</ele>
<speed>1.8</speed>
<course>287.1</course>
<desc>Speed 1.8 km/h Distance 44.39 km</desc>
<time>2010-08-28T16:05:18.38</time>
<name>1367</name>
</trkpt>
<trkpt lat="49.567725" lon="9.175175">
<ele>561.0</ele>
<speed>1.8</speed>
<course>319.1</course>
<desc>Speed 1.8 km/h Distance 44.39 km</desc>
<time>2010-08-28T16:05:19.39</time>
<name>1368</name>
</trkpt>
<trkpt lat="49.567730" lon="9.175168">
<ele>561.0</ele>
<speed>2.8</speed>
<course>284.6</course>
<desc>Speed 2.8 km/h Distance 44.39 km</desc>
<time>2010-08-28T16:05:20.38</time>
<name>1369</name>
</trkpt>
<trkpt lat="49.567732" lon="9.175158">
<ele>560.0</ele>
<speed>2.8</speed>
<course>290.9</course>
<desc>Speed 2.8 km/h Distance 44.39 km</desc>
<time>2010-08-28T16:05:21.38</time>
<name>1370</name>
</trkpt>
<trkpt lat="49.567733" lon="9.175152">
<ele>558.5</ele>
<speed>2.8</speed>
<course>158.5</course>
<desc>Speed 2.8 km/h Distance 44.39 km</desc>
<time>2010-08-28T16:05:22.38</time>
<name>1371</name>
</trkpt>
<trkpt lat="49.567725" lon="9.175157">
<ele>558.0</ele>
<speed>3.0</speed>
<course>280.9</course>
<desc>Speed 3.0 km/h Distance 44.40 km</desc>
<time>2010-08-28T16:05:23.38</time>
<name>1372</name>
</trkpt>
<trkpt lat="49.567732" lon="9.175103">
<ele>558.0</ele>
<speed>2.0</speed>
<course>299.3</course>
<desc>Speed 2.0 km/h Distance 44.40 km</desc>
<time>2010-08-28T16:05:25.38</time>
<name>1373</name>
</trkpt>
<trkpt lat="49.567738" lon="9.175085">
<ele>557.0</ele>
<speed>2.0</speed>
<course>231.9</course>
<desc>Speed 2.0 km/h Distance 44.40 km</desc>
<time>2010-08-28T16:05:26.38</time>
<name>1374</name>
</trkpt>
<trkpt lat="49.567737" lon="9.175082">
<ele>556.5</ele>
<speed>2.0</speed>
<course>213.7</course>
<desc>Speed 2.0 km/h Distance 44.40 km</desc>
<time>2010-08-28T16:05:27.38</time>
<name>1375</name>
</trkpt>
<trkpt lat="49.567733" lon="9.175078">
<ele>556.0</ele>
<speed>1.5</speed>
<course>152.5</course>
<desc>Speed 1.5 km/h Distance 44.40 km</desc>
<time>2010-08-28T16:05:28.38</time>
<name>1376</name>
</trkpt>
<trkpt lat="49.567725" lon="9.175085">
<ele>555.0</ele>
<speed>1.4</speed>
<course>146.8</course>
<desc>Speed 1.4 km/h Distance 44.40 km</desc>
<time>2010-08-28T16:05:29.38</time>
<name>1377</name>
</trkpt>
<trkpt lat="49.567717" lon="9.175093">
<ele>553.0</ele>
<speed>1.4</speed>
<course>346.0</course>
<desc>Speed 1.4 km/h Distance 44.40 km</desc>
<time>2010-08-28T16:05:30.37</time>
<name>1378</name>
</trkpt>
<trkpt lat="49.567730" lon="9.175088">
<ele>553.0</ele>
<speed>4.3</speed>
<course>51.9</course>
<desc>Speed 4.3 km/h Distance 44.41 km</desc>
<time>2010-08-28T16:05:31.37</time>
<name>1379</name>
</trkpt>
<trkpt lat="49.567732" lon="9.175092">
<ele>552.5</ele>
<speed>1.0</speed>
<course>135.5</course>
<desc>Speed 1.0 km/h Distance 44.41 km</desc>
<time>2010-08-28T16:05:32.37</time>
<name>1380</name>
</trkpt>
<trkpt lat="49.567728" lon="9.175097">
<ele>552.0</ele>
<speed>0.9</speed>
<course>174.7</course>
<desc>Speed 0.9 km/h Distance 44.41 km</desc>
<time>2010-08-28T16:05:33.38</time>
<name>1381</name>
</trkpt>
<trkpt lat="49.567715" lon="9.175098">
<ele>552.0</ele>
<speed>0.7</speed>
<course>203.0</course>
<desc>Speed 0.7 km/h Distance 44.41 km</desc>
<time>2010-08-28T16:05:34.37</time>
<name>1382</name>
</trkpt>
<trkpt lat="49.567705" lon="9.175092">
<ele>550.0</ele>
<speed>2.3</speed>
<course>110.9</course>
<desc>Speed 2.3 km/h Distance 44.41 km</desc>
<time>2010-08-28T16:05:35.37</time>
<name>1383</name>
</trkpt>
<trkpt lat="49.567703" lon="9.175098">
<ele>549.0</ele>
<speed>1.1</speed>
<course>180.0</course>
<desc>Speed 1.1 km/h Distance 44.41 km</desc>
<time>2010-08-28T16:05:36.38</time>
<name>1384</name>
</trkpt>
<trkpt lat="49.567700" lon="9.175098">
<ele>548.5</ele>
<speed>0.4</speed>
<course>128.1</course>
<desc>Speed 0.4 km/h Distance 44.41 km</desc>
<time>2010-08-28T16:05:37.37</time>
<name>1385</name>
</trkpt>
<trkpt lat="49.567698" lon="9.175102">
<ele>548.5</ele>
<speed>0.4</speed>
<course>137.1</course>
<desc>Speed 0.4 km/h Distance 44.41 km</desc>
<time>2010-08-28T16:05:38.38</time>
<name>1386</name>
</trkpt>
<trkpt lat="49.567687" lon="9.175118">
<ele>549.0</ele>
<speed>1.2</speed>
<course>153.1</course>
<desc>Speed 1.2 km/h Distance 44.41 km</desc>
<time>2010-08-28T16:05:39.38</time>
<name>1387</name>
</trkpt>
<trkpt lat="49.567672" lon="9.175130">
<ele>548.5</ele>
<speed>0.6</speed>
<course>135.5</course>
<desc>Speed 0.6 km/h Distance 44.41 km</desc>
<time>2010-08-28T16:05:40.38</time>
<name>1388</name>
</trkpt>
<trkpt lat="49.567668" lon="9.175135">
<ele>548.0</ele>
<speed>0.7</speed>
<course>322.8</course>
<desc>Speed 0.7 km/h Distance 44.41 km</desc>
<time>2010-08-28T16:05:41.38</time>
<name>1389</name>
</trkpt>
<trkpt lat="49.567670" lon="9.175133">
<ele>547.5</ele>
<speed>0.5</speed>
<course>146.3</course>
<desc>Speed 0.5 km/h Distance 44.41 km</desc>
<time>2010-08-28T16:05:42.38</time>
<name>1390</name>
</trkpt>
<trkpt lat="49.567667" lon="9.175137">
<ele>548.0</ele>
<speed>1.7</speed>
<course>189.0</course>
<desc>Speed 1.7 km/h Distance 44.42 km</desc>
<time>2010-08-28T16:05:43.37</time>
<name>1391</name>
</trkpt>
<trkpt lat="49.567605" lon="9.175122">
<ele>548.0</ele>
<speed>13.7</speed>
<course>215.5</course>
<desc>Speed 13.7 km/h Distance 44.42 km</desc>
<time>2010-08-28T16:05:45.37</time>
<name>1392</name>
</trkpt>
<trkpt lat="49.567572" lon="9.175085">
<ele>548.0</ele>
<speed>16.3</speed>
<course>265.2</course>
<desc>Speed 16.3 km/h Distance 44.43 km</desc>
<time>2010-08-28T16:05:46.37</time>
<name>1393</name>
</trkpt>
<trkpt lat="49.567568" lon="9.175023">
<ele>549.0</ele>
<speed>16.3</speed>
<course>291.0</course>
<desc>Speed 16.3 km/h Distance 44.43 km</desc>
<time>2010-08-28T16:05:47.38</time>
<name>1394</name>
</trkpt>
<trkpt lat="49.567662" lon="9.174648">
<ele>552.0</ele>
<speed>33.8</speed>
<course>280.7</course>
<desc>Speed 33.8 km/h Distance 44.46 km</desc>
<time>2010-08-28T16:05:50.36</time>
<name>1395</name>
</trkpt>
<trkpt lat="49.567680" lon="9.174498">
<ele>553.0</ele>
<speed>39.2</speed>
<course>309.2</course>
<desc>Speed 39.2 km/h Distance 44.47 km</desc>
<time>2010-08-28T16:05:51.37</time>
<name>1396</name>
</trkpt>
<trkpt lat="49.567740" lon="9.174385">
<ele>553.5</ele>
<speed>34.4</speed>
<course>313.1</course>
<desc>Speed 34.4 km/h Distance 44.48 km</desc>
<time>2010-08-28T16:05:52.37</time>
<name>1397</name>
</trkpt>
<trkpt lat="49.567792" lon="9.174300">
<ele>553.5</ele>
<speed>34.4</speed>
<course>299.7</course>
<desc>Speed 34.4 km/h Distance 44.49 km</desc>
<time>2010-08-28T16:05:53.36</time>
<name>1398</name>
</trkpt>
<trkpt lat="49.567832" lon="9.174192">
<ele>550.5</ele>
<speed>34.4</speed>
<course>285.7</course>
<desc>Speed 34.4 km/h Distance 44.50 km</desc>
<time>2010-08-28T16:05:54.36</time>
<name>1399</name>
</trkpt>
<trkpt lat="49.567888" lon="9.173880">
<ele>546.0</ele>
<speed>32.8</speed>
<course>289.2</course>
<desc>Speed 32.8 km/h Distance 44.52 km</desc>
<time>2010-08-28T16:05:56.37</time>
<name>1400</name>
</trkpt>
<trkpt lat="49.567957" lon="9.173577">
<ele>542.5</ele>
<speed>37.2</speed>
<course>302.0</course>
<desc>Speed 37.2 km/h Distance 44.55 km</desc>
<time>2010-08-28T16:05:58.37</time>
<name>1401</name>
</trkpt>
<trkpt lat="49.568013" lon="9.173437">
<ele>542.0</ele>
<speed>39.0</speed>
<course>302.3</course>
<desc>Speed 39.0 km/h Distance 44.56 km</desc>
<time>2010-08-28T16:05:59.36</time>
<name>1402</name>
</trkpt>
<trkpt lat="49.568132" lon="9.173148">
<ele>539.5</ele>
<speed>35.6</speed>
<course>287.3</course>
<desc>Speed 35.6 km/h Distance 44.58 km</desc>
<time>2010-08-28T16:06:01.36</time>
<name>1403</name>
</trkpt>
<trkpt lat="49.568158" lon="9.173017">
<ele>539.5</ele>
<speed>35.0</speed>
<course>289.4</course>
<desc>Speed 35.0 km/h Distance 44.59 km</desc>
<time>2010-08-28T16:06:02.35</time>
<name>1404</name>
</trkpt>
<trkpt lat="49.568185" lon="9.172900">
<ele>540.0</ele>
<speed>31.4</speed>
<course>287.9</course>
<desc>Speed 31.4 km/h Distance 44.60 km</desc>
<time>2010-08-28T16:06:03.36</time>
<name>1405</name>
</trkpt>
<trkpt lat="49.568208" lon="9.172788">
<ele>540.5</ele>
<speed>29.0</speed>
<course>291.4</course>
<desc>Speed 29.0 km/h Distance 44.61 km</desc>
<time>2010-08-28T16:06:04.35</time>
<name>1406</name>
</trkpt>
<trkpt lat="49.568233" lon="9.172690">
<ele>541.0</ele>
<speed>26.3</speed>
<course>304.8</course>
<desc>Speed 26.3 km/h Distance 44.62 km</desc>
<time>2010-08-28T16:06:05.36</time>
<name>1407</name>
</trkpt>
<trkpt lat="49.568272" lon="9.172605">
<ele>541.5</ele>
<speed>25.5</speed>
<course>314.8</course>
<desc>Speed 25.5 km/h Distance 44.62 km</desc>
<time>2010-08-28T16:06:06.35</time>
<name>1408</name>
</trkpt>
<trkpt lat="49.568320" lon="9.172530">
<ele>541.0</ele>
<speed>26.3</speed>
<course>313.3</course>
<desc>Speed 26.3 km/h Distance 44.63 km</desc>
<time>2010-08-28T16:06:07.36</time>
<name>1409</name>
</trkpt>
<trkpt lat="49.568357" lon="9.172470">
<ele>541.5</ele>
<speed>26.3</speed>
<course>335.4</course>
<desc>Speed 26.3 km/h Distance 44.64 km</desc>
<time>2010-08-28T16:06:08.35</time>
<name>1410</name>
</trkpt>
<trkpt lat="49.568425" lon="9.172422">
<ele>541.0</ele>
<speed>29.9</speed>
<course>323.3</course>
<desc>Speed 29.9 km/h Distance 44.65 km</desc>
<time>2010-08-28T16:06:09.35</time>
<name>1411</name>
</trkpt>
<trkpt lat="49.568568" lon="9.172257">
<ele>540.5</ele>
<speed>37.7</speed>
<course>319.0</course>
<desc>Speed 37.7 km/h Distance 44.67 km</desc>
<time>2010-08-28T16:06:11.36</time>
<name>1412</name>
</trkpt>
<trkpt lat="49.568662" lon="9.172132">
<ele>541.0</ele>
<speed>37.7</speed>
<course>332.7</course>
<desc>Speed 37.7 km/h Distance 44.68 km</desc>
<time>2010-08-28T16:06:13.35</time>
<name>1413</name>
</trkpt>
<trkpt lat="49.568793" lon="9.172027">
<ele>543.5</ele>
<speed>37.7</speed>
<course>347.8</course>
<desc>Speed 37.7 km/h Distance 44.70 km</desc>
<time>2010-08-28T16:06:16.34</time>
<name>1414</name>
</trkpt>
<trkpt lat="49.568918" lon="9.171985">
<ele>543.5</ele>
<speed>36.1</speed>
<course>352.1</course>
<desc>Speed 36.1 km/h Distance 44.71 km</desc>
<time>2010-08-28T16:06:18.35</time>
<name>1415</name>
</trkpt>
<trkpt lat="49.568997" lon="9.171968">
<ele>543.0</ele>
<speed>36.1</speed>
<course>354.3</course>
<desc>Speed 36.1 km/h Distance 44.72 km</desc>
<time>2010-08-28T16:06:19.35</time>
<name>1416</name>
</trkpt>
<trkpt lat="49.569072" lon="9.171957">
<ele>542.5</ele>
<speed>36.1</speed>
<course>352.7</course>
<desc>Speed 36.1 km/h Distance 44.73 km</desc>
<time>2010-08-28T16:06:20.35</time>
<name>1417</name>
</trkpt>
<trkpt lat="49.569315" lon="9.171908">
<ele>536.5</ele>
<speed>25.3</speed>
<course>348.6</course>
<desc>Speed 25.3 km/h Distance 44.76 km</desc>
<time>2010-08-28T16:06:22.34</time>
<name>1418</name>
</trkpt>
<trkpt lat="49.569470" lon="9.171860">
<ele>535.5</ele>
<speed>18.4</speed>
<course>321.0</course>
<desc>Speed 18.4 km/h Distance 44.77 km</desc>
<time>2010-08-28T16:06:24.34</time>
<name>1419</name>
</trkpt>
<trkpt lat="49.569583" lon="9.171718">
<ele>534.0</ele>
<speed>30.7</speed>
<course>302.1</course>
<desc>Speed 30.7 km/h Distance 44.79 km</desc>
<time>2010-08-28T16:06:26.33</time>
<name>1420</name>
</trkpt>
<trkpt lat="49.569620" lon="9.171628">
<ele>533.5</ele>
<speed>30.7</speed>
<course>286.5</course>
<desc>Speed 30.7 km/h Distance 44.80 km</desc>
<time>2010-08-28T16:06:27.34</time>
<name>1421</name>
</trkpt>
<trkpt lat="49.569650" lon="9.171472">
<ele>532.5</ele>
<speed>30.7</speed>
<course>270.0</course>
<desc>Speed 30.7 km/h Distance 44.81 km</desc>
<time>2010-08-28T16:06:29.33</time>
<name>1422</name>
</trkpt>
<trkpt lat="49.569650" lon="9.171343">
<ele>533.5</ele>
<speed>30.7</speed>
<course>272.2</course>
<desc>Speed 30.7 km/h Distance 44.82 km</desc>
<time>2010-08-28T16:06:30.34</time>
<name>1423</name>
</trkpt>
<trkpt lat="49.569653" lon="9.171207">
<ele>534.0</ele>
<speed>30.7</speed>
<course>253.9</course>
<desc>Speed 30.7 km/h Distance 44.83 km</desc>
<time>2010-08-28T16:06:33.33</time>
<name>1424</name>
</trkpt>
<trkpt lat="49.569630" lon="9.171082">
<ele>530.5</ele>
<speed>30.7</speed>
<course>214.2</course>
<desc>Speed 30.7 km/h Distance 44.84 km</desc>
<time>2010-08-28T16:06:35.33</time>
<name>1425</name>
</trkpt>
<trkpt lat="49.569052" lon="9.170475">
<ele>529.5</ele>
<speed>39.9</speed>
<course>225.4</course>
<desc>Speed 39.9 km/h Distance 44.92 km</desc>
<time>2010-08-28T16:06:40.32</time>
<name>1426</name>
</trkpt>
<trkpt lat="49.568960" lon="9.170332">
<ele>529.5</ele>
<speed>39.9</speed>
<course>215.2</course>
<desc>Speed 39.9 km/h Distance 44.93 km</desc>
<time>2010-08-28T16:06:42.33</time>
<name>1427</name>
</trkpt>
<trkpt lat="49.568825" lon="9.170185">
<ele>531.0</ele>
<speed>39.9</speed>
<course>213.4</course>
<desc>Speed 39.9 km/h Distance 44.95 km</desc>
<time>2010-08-28T16:06:44.33</time>
<name>1428</name>
</trkpt>
<trkpt lat="49.568518" lon="9.169873">
<ele>523.0</ele>
<speed>42.4</speed>
<course>210.7</course>
<desc>Speed 42.4 km/h Distance 44.99 km</desc>
<time>2010-08-28T16:06:47.33</time>
<name>1429</name>
</trkpt>
<trkpt lat="49.568360" lon="9.169728">
<ele>519.0</ele>
<speed>42.4</speed>
<course>205.0</course>
<desc>Speed 42.4 km/h Distance 45.01 km</desc>
<time>2010-08-28T16:06:50.31</time>
<name>1430</name>
</trkpt>
<trkpt lat="49.567937" lon="9.169423">
<ele>511.0</ele>
<speed>45.2</speed>
<course>217.8</course>
<desc>Speed 45.2 km/h Distance 45.06 km</desc>
<time>2010-08-28T16:06:53.32</time>
<name>1431</name>
</trkpt>
<trkpt lat="49.567597" lon="9.169017">
<ele>528.5</ele>
<speed>49.5</speed>
<course>219.6</course>
<desc>Speed 49.5 km/h Distance 45.11 km</desc>
<time>2010-08-28T16:06:56.32</time>
<name>1432</name>
</trkpt>
<trkpt lat="49.567372" lon="9.168730">
<ele>526.0</ele>
<speed>58.5</speed>
<course>213.9</course>
<desc>Speed 58.5 km/h Distance 45.14 km</desc>
<time>2010-08-28T16:06:58.32</time>
<name>1433</name>
</trkpt>
<trkpt lat="49.566925" lon="9.168267">
<ele>526.0</ele>
<speed>54.4</speed>
<course>208.8</course>
<desc>Speed 54.4 km/h Distance 45.20 km</desc>
<time>2010-08-28T16:07:01.32</time>
<name>1434</name>
</trkpt>
<trkpt lat="49.566475" lon="9.167885">
<ele>517.0</ele>
<speed>30.6</speed>
<course>213.0</course>
<desc>Speed 30.6 km/h Distance 45.26 km</desc>
<time>2010-08-28T16:07:05.30</time>
<name>1435</name>
</trkpt>
<trkpt lat="49.566413" lon="9.167823">
<ele>517.5</ele>
<speed>30.6</speed>
<course>214.5</course>
<desc>Speed 30.6 km/h Distance 45.27 km</desc>
<time>2010-08-28T16:07:06.31</time>
<name>1436</name>
</trkpt>
<trkpt lat="49.566330" lon="9.167735">
<ele>517.5</ele>
<speed>30.6</speed>
<course>228.0</course>
<desc>Speed 30.6 km/h Distance 45.28 km</desc>
<time>2010-08-28T16:07:08.31</time>
<name>1437</name>
</trkpt>
<trkpt lat="49.566225" lon="9.167555">
<ele>517.0</ele>
<speed>22.3</speed>
<course>227.5</course>
<desc>Speed 22.3 km/h Distance 45.30 km</desc>
<time>2010-08-28T16:07:10.31</time>
<name>1438</name>
</trkpt>
<trkpt lat="49.566193" lon="9.167502">
<ele>516.5</ele>
<speed>22.3</speed>
<course>228.2</course>
<desc>Speed 22.3 km/h Distance 45.30 km</desc>
<time>2010-08-28T16:07:11.31</time>
<name>1439</name>
</trkpt>
<trkpt lat="49.566163" lon="9.167450">
<ele>516.5</ele>
<speed>22.3</speed>
<course>223.0</course>
<desc>Speed 22.3 km/h Distance 45.31 km</desc>
<time>2010-08-28T16:07:12.31</time>
<name>1440</name>
</trkpt>
<trkpt lat="49.565368" lon="9.166305">
<ele>529.5</ele>
<speed>59.3</speed>
<course>205.7</course>
<desc>Speed 59.3 km/h Distance 45.43 km</desc>
<time>2010-08-28T16:07:18.30</time>
<name>1441</name>
</trkpt>
<trkpt lat="49.565105" lon="9.166110">
<ele>534.0</ele>
<speed>49.8</speed>
<course>205.7</course>
<desc>Speed 49.8 km/h Distance 45.46 km</desc>
<time>2010-08-28T16:07:20.30</time>
<name>1442</name>
</trkpt>
<trkpt lat="49.564988" lon="9.166023">
<ele>531.5</ele>
<speed>43.7</speed>
<course>205.3</course>
<desc>Speed 43.7 km/h Distance 45.47 km</desc>
<time>2010-08-28T16:07:21.30</time>
<name>1443</name>
</trkpt>
<trkpt lat="49.564768" lon="9.165863">
<ele>546.5</ele>
<speed>0.0</speed>
<course>167.4</course>
<desc>Speed 0.0 km/h Distance 45.50 km</desc>
<time>2010-08-28T16:07:27.29</time>
<name>1444</name>
</trkpt>
<trkpt lat="49.564765" lon="9.165865">
<ele>549.0</ele>
<speed>0.2</speed>
<course>282.4</course>
<desc>Speed 0.2 km/h Distance 45.50 km</desc>
<time>2010-08-28T16:07:28.28</time>
<name>1445</name>
</trkpt>
<trkpt lat="49.564768" lon="9.165842">
<ele>550.5</ele>
<speed>0.1</speed>
<course>219.8</course>
<desc>Speed 0.1 km/h Distance 45.50 km</desc>
<time>2010-08-28T16:07:29.29</time>
<name>1446</name>
</trkpt>
<trkpt lat="49.564745" lon="9.165812">
<ele>554.0</ele>
<speed>0.8</speed>
<course>229.3</course>
<desc>Speed 0.8 km/h Distance 45.51 km</desc>
<time>2010-08-28T16:07:31.29</time>
<name>1447</name>
</trkpt>
<trkpt lat="49.564737" lon="9.165797">
<ele>554.0</ele>
<speed>1.4</speed>
<course>228.6</course>
<desc>Speed 1.4 km/h Distance 45.51 km</desc>
<time>2010-08-28T16:07:32.28</time>
<name>1448</name>
</trkpt>
<trkpt lat="49.564723" lon="9.165773">
<ele>554.0</ele>
<speed>2.9</speed>
<course>187.7</course>
<desc>Speed 2.9 km/h Distance 45.51 km</desc>
<time>2010-08-28T16:07:33.29</time>
<name>1449</name>
</trkpt>
<trkpt lat="49.564715" lon="9.165772">
<ele>554.0</ele>
<speed>0.1</speed>
<course>192.6</course>
<desc>Speed 0.1 km/h Distance 45.51 km</desc>
<time>2010-08-28T16:07:34.29</time>
<name>1450</name>
</trkpt>
<trkpt lat="49.564710" lon="9.165770">
<ele>554.5</ele>
<speed>0.4</speed>
<course>117.4</course>
<desc>Speed 0.4 km/h Distance 45.51 km</desc>
<time>2010-08-28T16:07:35.28</time>
<name>1451</name>
</trkpt>
<trkpt lat="49.564708" lon="9.165775">
<ele>554.5</ele>
<speed>1.1</speed>
<course>167.4</course>
<desc>Speed 1.1 km/h Distance 45.51 km</desc>
<time>2010-08-28T16:07:36.29</time>
<name>1452</name>
</trkpt>
<trkpt lat="49.564705" lon="9.165775">
<ele>554.5</ele>
<speed>0.6</speed>
<course>205.4</course>
<desc>Speed 0.6 km/h Distance 45.51 km</desc>
<time>2010-08-28T16:07:37.29</time>
<name>1453</name>
</trkpt>
<trkpt lat="49.564700" lon="9.165772">
<ele>554.5</ele>
<speed>0.2</speed>
<course>167.4</course>
<desc>Speed 0.2 km/h Distance 45.51 km</desc>
<time>2010-08-28T16:07:38.29</time>
<name>1454</name>
</trkpt>
<trkpt lat="49.564695" lon="9.165773">
<ele>554.0</ele>
<speed>1.4</speed>
<course>192.6</course>
<desc>Speed 1.4 km/h Distance 45.51 km</desc>
<time>2010-08-28T16:07:39.28</time>
<name>1455</name>
</trkpt>
<trkpt lat="49.564690" lon="9.165772">
<ele>554.0</ele>
<speed>0.9</speed>
<course>242.6</course>
<desc>Speed 0.9 km/h Distance 45.51 km</desc>
<time>2010-08-28T16:07:40.28</time>
<name>1456</name>
</trkpt>
<trkpt lat="49.564688" lon="9.165767">
<ele>554.5</ele>
<speed>0.8</speed>
<course>175.6</course>
<desc>Speed 0.8 km/h Distance 45.51 km</desc>
<time>2010-08-28T16:07:41.29</time>
<name>1457</name>
</trkpt>
<trkpt lat="49.564678" lon="9.165767">
<ele>553.5</ele>
<speed>3.3</speed>
<course>115.4</course>
<desc>Speed 3.3 km/h Distance 45.52 km</desc>
<time>2010-08-28T16:07:42.29</time>
<name>1458</name>
</trkpt>
<trkpt lat="49.564672" lon="9.165788">
<ele>553.5</ele>
<speed>6.3</speed>
<course>296.0</course>
<desc>Speed 6.3 km/h Distance 45.52 km</desc>
<time>2010-08-28T16:07:43.28</time>
<name>1459</name>
</trkpt>
<trkpt lat="49.564682" lon="9.165757">
<ele>555.5</ele>
<speed>9.2</speed>
<course>240.0</course>
<desc>Speed 9.2 km/h Distance 45.52 km</desc>
<time>2010-08-28T16:07:44.27</time>
<name>1460</name>
</trkpt>
<trkpt lat="49.564677" lon="9.165743">
<ele>555.0</ele>
<speed>0.3</speed>
<course>207.5</course>
<desc>Speed 0.3 km/h Distance 45.52 km</desc>
<time>2010-08-28T16:07:46.27</time>
<name>1461</name>
</trkpt>
<trkpt lat="49.564668" lon="9.165737">
<ele>555.0</ele>
<speed>1.5</speed>
<course>227.1</course>
<desc>Speed 1.5 km/h Distance 45.52 km</desc>
<time>2010-08-28T16:07:47.28</time>
<name>1462</name>
</trkpt>
<trkpt lat="49.564663" lon="9.165728">
<ele>554.5</ele>
<speed>0.2</speed>
<course>220.3</course>
<desc>Speed 0.2 km/h Distance 45.52 km</desc>
<time>2010-08-28T16:07:48.28</time>
<name>1463</name>
</trkpt>
<trkpt lat="49.564658" lon="9.165722">
<ele>554.5</ele>
<speed>0.6</speed>
<course>270.0</course>
<desc>Speed 0.6 km/h Distance 45.52 km</desc>
<time>2010-08-28T16:07:49.28</time>
<name>1464</name>
</trkpt>
<trkpt lat="49.564658" lon="9.165717">
<ele>555.0</ele>
<speed>0.3</speed>
<course>270.0</course>
<desc>Speed 0.3 km/h Distance 45.52 km</desc>
<time>2010-08-28T16:07:50.27</time>
<name>1465</name>
</trkpt>
<trkpt lat="49.564658" lon="9.165688">
<ele>555.0</ele>
<speed>0.8</speed>
<course>259.1</course>
<desc>Speed 0.8 km/h Distance 45.53 km</desc>
<time>2010-08-28T16:07:51.28</time>
<name>1466</name>
</trkpt>
<trkpt lat="49.564657" lon="9.165675">
<ele>555.5</ele>
<speed>0.0</speed>
<course>231.9</course>
<desc>Speed 0.0 km/h Distance 45.53 km</desc>
<time>2010-08-28T16:07:52.27</time>
<name>1467</name>
</trkpt>
<trkpt lat="49.564653" lon="9.165668">
<ele>555.5</ele>
<speed>1.2</speed>
<course>0.0</course>
<desc>Speed 1.2 km/h Distance 45.53 km</desc>
<time>2010-08-28T16:07:53.28</time>
<name>1468</name>
</trkpt>
<trkpt lat="49.564658" lon="9.165668">
<ele>556.0</ele>
<speed>1.2</speed>
<course>37.2</course>
<desc>Speed 1.2 km/h Distance 45.53 km</desc>
<time>2010-08-28T16:07:54.27</time>
<name>1469</name>
</trkpt>
<trkpt lat="49.564660" lon="9.165670">
<ele>556.0</ele>
<speed>0.9</speed>
<course>18.8</course>
<desc>Speed 0.9 km/h Distance 45.53 km</desc>
<time>2010-08-28T16:07:55.28</time>
<name>1470</name>
</trkpt>
<trkpt lat="49.564667" lon="9.165673">
<ele>556.0</ele>
<speed>2.0</speed>
<course>22.2</course>
<desc>Speed 2.0 km/h Distance 45.53 km</desc>
<time>2010-08-28T16:07:56.27</time>
<name>1471</name>
</trkpt>
<trkpt lat="49.564672" lon="9.165677">
<ele>556.0</ele>
<speed>2.2</speed>
<course>12.6</course>
<desc>Speed 2.2 km/h Distance 45.53 km</desc>
<time>2010-08-28T16:07:57.27</time>
<name>1472</name>
</trkpt>
<trkpt lat="49.564675" lon="9.165678">
<ele>556.0</ele>
<speed>1.4</speed>
<course>23.8</course>
<desc>Speed 1.4 km/h Distance 45.53 km</desc>
<time>2010-08-28T16:07:58.26</time>
<name>1473</name>
</trkpt>
<trkpt lat="49.564680" lon="9.165682">
<ele>556.5</ele>
<speed>2.1</speed>
<course>31.6</course>
<desc>Speed 2.1 km/h Distance 45.53 km</desc>
<time>2010-08-28T16:07:59.26</time>
<name>1474</name>
</trkpt>
<trkpt lat="49.564683" lon="9.165685">
<ele>556.5</ele>
<speed>1.8</speed>
<course>44.5</course>
<desc>Speed 1.8 km/h Distance 45.53 km</desc>
<time>2010-08-28T16:08:00.27</time>
<name>1475</name>
</trkpt>
<trkpt lat="49.564687" lon="9.165690">
<ele>556.5</ele>
<speed>1.8</speed>
<course>347.4</course>
<desc>Speed 1.8 km/h Distance 45.53 km</desc>
<time>2010-08-28T16:08:01.26</time>
<name>1476</name>
</trkpt>
<trkpt lat="49.564693" lon="9.165688">
<ele>556.5</ele>
<speed>2.8</speed>
<course>150.8</course>
<desc>Speed 2.8 km/h Distance 45.53 km</desc>
<time>2010-08-28T16:08:02.27</time>
<name>1477</name>
</trkpt>
<trkpt lat="49.564692" lon="9.165690">
<ele>556.0</ele>
<speed>0.5</speed>
<course>146.3</course>
<desc>Speed 0.5 km/h Distance 45.53 km</desc>
<time>2010-08-28T16:08:03.27</time>
<name>1478</name>
</trkpt>
<trkpt lat="49.564688" lon="9.165693">
<ele>555.5</ele>
<speed>0.8</speed>
<course>139.1</course>
<desc>Speed 0.8 km/h Distance 45.53 km</desc>
<time>2010-08-28T16:08:04.27</time>
<name>1479</name>
</trkpt>
<trkpt lat="49.564683" lon="9.165700">
<ele>555.5</ele>
<speed>1.1</speed>
<course>12.6</course>
<desc>Speed 1.1 km/h Distance 45.53 km</desc>
<time>2010-08-28T16:08:05.26</time>
<name>1480</name>
</trkpt>
<trkpt lat="49.564688" lon="9.165702">
<ele>555.5</ele>
<speed>2.2</speed>
<course>180.0</course>
<desc>Speed 2.2 km/h Distance 45.53 km</desc>
<time>2010-08-28T16:08:06.27</time>
<name>1481</name>
</trkpt>
<trkpt lat="49.564683" lon="9.165702">
<ele>555.5</ele>
<speed>0.7</speed>
<course>195.7</course>
<desc>Speed 0.7 km/h Distance 45.54 km</desc>
<time>2010-08-28T16:08:07.27</time>
<name>1482</name>
</trkpt>
<trkpt lat="49.564645" lon="9.165685">
<ele>553.5</ele>
<speed>2.7</speed>
<course>207.9</course>
<desc>Speed 2.7 km/h Distance 45.54 km</desc>
<time>2010-08-28T16:08:09.26</time>
<name>1483</name>
</trkpt>
<trkpt lat="49.564637" lon="9.165678">
<ele>553.0</ele>
<speed>1.3</speed>
<course>219.4</course>
<desc>Speed 1.3 km/h Distance 45.54 km</desc>
<time>2010-08-28T16:08:10.26</time>
<name>1484</name>
</trkpt>
<trkpt lat="49.564630" lon="9.165670">
<ele>552.5</ele>
<speed>0.6</speed>
<course>180.0</course>
<desc>Speed 0.6 km/h Distance 45.54 km</desc>
<time>2010-08-28T16:08:11.26</time>
<name>1485</name>
</trkpt>
<trkpt lat="49.564625" lon="9.165670">
<ele>551.5</ele>
<speed>1.4</speed>
<course>197.5</course>
<desc>Speed 1.4 km/h Distance 45.54 km</desc>
<time>2010-08-28T16:08:12.27</time>
<name>1486</name>
</trkpt>
<trkpt lat="49.564618" lon="9.165667">
<ele>551.5</ele>
<speed>1.7</speed>
<course>238.2</course>
<desc>Speed 1.7 km/h Distance 45.54 km</desc>
<time>2010-08-28T16:08:13.26</time>
<name>1487</name>
</trkpt>
<trkpt lat="49.564615" lon="9.165658">
<ele>550.5</ele>
<speed>0.9</speed>
<course>242.6</course>
<desc>Speed 0.9 km/h Distance 45.54 km</desc>
<time>2010-08-28T16:08:14.26</time>
<name>1488</name>
</trkpt>
<trkpt lat="49.564613" lon="9.165653">
<ele>550.0</ele>
<speed>0.3</speed>
<course>242.6</course>
<desc>Speed 0.3 km/h Distance 45.54 km</desc>
<time>2010-08-28T16:08:15.26</time>
<name>1489</name>
</trkpt>
<trkpt lat="49.564613" lon="9.165652">
<ele>550.0</ele>
<speed>0.8</speed>
<course>242.6</course>
<desc>Speed 0.8 km/h Distance 45.54 km</desc>
<time>2010-08-28T16:08:16.27</time>
<name>1490</name>
</trkpt>
<trkpt lat="49.564613" lon="9.165653">
<ele>550.0</ele>
<speed>0.5</speed>
<course>167.4</course>
<desc>Speed 0.5 km/h Distance 45.54 km</desc>
<time>2010-08-28T16:08:17.26</time>
<name>1491</name>
</trkpt>
<trkpt lat="49.564610" lon="9.165655">
<ele>550.0</ele>
<speed>1.2</speed>
<course>150.8</course>
<desc>Speed 1.2 km/h Distance 45.54 km</desc>
<time>2010-08-28T16:08:18.26</time>
<name>1492</name>
</trkpt>
<trkpt lat="49.564608" lon="9.165657">
<ele>550.0</ele>
<speed>0.5</speed>
<course>146.3</course>
<desc>Speed 0.5 km/h Distance 45.55 km</desc>
<time>2010-08-28T16:08:19.26</time>
<name>1493</name>
</trkpt>
<trkpt lat="49.564605" lon="9.165660">
<ele>550.0</ele>
<speed>0.5</speed>
<course>338.5</course>
<desc>Speed 0.5 km/h Distance 45.55 km</desc>
<time>2010-08-28T16:08:20.25</time>
<name>1494</name>
</trkpt>
<trkpt lat="49.564613" lon="9.165655">
<ele>550.0</ele>
<speed>3.3</speed>
<course>319.1</course>
<desc>Speed 3.3 km/h Distance 45.55 km</desc>
<time>2010-08-28T16:08:21.26</time>
<name>1495</name>
</trkpt>
<trkpt lat="49.564618" lon="9.165648">
<ele>550.0</ele>
<speed>3.3</speed>
<course>231.9</course>
<desc>Speed 3.3 km/h Distance 45.55 km</desc>
<time>2010-08-28T16:08:22.26</time>
<name>1496</name>
</trkpt>
<trkpt lat="49.564617" lon="9.165645">
<ele>550.0</ele>
<speed>0.7</speed>
<course>212.6</course>
<desc>Speed 0.7 km/h Distance 45.55 km</desc>
<time>2010-08-28T16:08:23.25</time>
<name>1497</name>
</trkpt>
<trkpt lat="49.564610" lon="9.165638">
<ele>550.0</ele>
<speed>0.2</speed>
<course>213.2</course>
<desc>Speed 0.2 km/h Distance 45.55 km</desc>
<time>2010-08-28T16:08:24.25</time>
<name>1498</name>
</trkpt>
<trkpt lat="49.564605" lon="9.165633">
<ele>550.0</ele>
<speed>0.4</speed>
<course>202.2</course>
<desc>Speed 0.4 km/h Distance 45.55 km</desc>
<time>2010-08-28T16:08:25.25</time>
<name>1499</name>
</trkpt>
<trkpt lat="49.564600" lon="9.165630">
<ele>550.0</ele>
<speed>0.0</speed>
<course>229.4</course>
<desc>Speed 0.0 km/h Distance 45.55 km</desc>
<time>2010-08-28T16:08:26.25</time>
<name>1500</name>
</trkpt>
<trkpt lat="49.564598" lon="9.165627">
<ele>550.0</ele>
<speed>0.2</speed>
<course>192.6</course>
<desc>Speed 0.2 km/h Distance 45.55 km</desc>
<time>2010-08-28T16:08:27.25</time>
<name>1501</name>
</trkpt>
<trkpt lat="49.564595" lon="9.165625">
<ele>550.0</ele>
<speed>0.1</speed>
<course>192.6</course>
<desc>Speed 0.1 km/h Distance 45.55 km</desc>
<time>2010-08-28T16:08:28.25</time>
<name>1502</name>
</trkpt>
<trkpt lat="49.564595" lon="9.165625">
<ele>550.0</ele>
<speed>0.3</speed>
<course>192.6</course>
<desc>Speed 0.3 km/h Distance 45.55 km</desc>
<time>2010-08-28T16:08:29.24</time>
<name>1503</name>
</trkpt>
<trkpt lat="49.564595" lon="9.165625">
<ele>550.0</ele>
<speed>0.3</speed>
<course>330.8</course>
<desc>Speed 0.3 km/h Distance 45.55 km</desc>
<time>2010-08-28T16:08:30.25</time>
<name>1504</name>
</trkpt>
<trkpt lat="49.564597" lon="9.165623">
<ele>550.0</ele>
<speed>0.9</speed>
<course>51.9</course>
<desc>Speed 0.9 km/h Distance 45.55 km</desc>
<time>2010-08-28T16:08:31.25</time>
<name>1505</name>
</trkpt>
<trkpt lat="49.564598" lon="9.165627">
<ele>550.0</ele>
<speed>0.9</speed>
<course>61.7</course>
<desc>Speed 0.9 km/h Distance 45.55 km</desc>
<time>2010-08-28T16:08:32.25</time>
<name>1506</name>
</trkpt>
<trkpt lat="49.564600" lon="9.165632">
<ele>550.0</ele>
<speed>0.9</speed>
<course>12.6</course>
<desc>Speed 0.9 km/h Distance 45.55 km</desc>
<time>2010-08-28T16:08:33.25</time>
<name>1507</name>
</trkpt>
<trkpt lat="49.564608" lon="9.165635">
<ele>550.0</ele>
<speed>2.6</speed>
<course>358.1</course>
<desc>Speed 2.6 km/h Distance 45.55 km</desc>
<time>2010-08-28T16:08:34.24</time>
<name>1508</name>
</trkpt>
<trkpt lat="49.564623" lon="9.165633">
<ele>549.0</ele>
<speed>6.5</speed>
<course>21.5</course>
<desc>Speed 6.5 km/h Distance 45.55 km</desc>
<time>2010-08-28T16:08:35.24</time>
<name>1509</name>
</trkpt>
<trkpt lat="49.564632" lon="9.165638">
<ele>549.0</ele>
<speed>1.4</speed>
<course>90.0</course>
<desc>Speed 1.4 km/h Distance 45.56 km</desc>
<time>2010-08-28T16:08:36.24</time>
<name>1510</name>
</trkpt>
<trkpt lat="49.564632" lon="9.165642">
<ele>549.0</ele>
<speed>0.2</speed>
<course>164.0</course>
<desc>Speed 0.2 km/h Distance 45.56 km</desc>
<time>2010-08-28T16:08:37.24</time>
<name>1511</name>
</trkpt>
<trkpt lat="49.564620" lon="9.165647">
<ele>549.0</ele>
<speed>0.2</speed>
<course>37.2</course>
<desc>Speed 0.2 km/h Distance 45.56 km</desc>
<time>2010-08-28T16:08:38.24</time>
<name>1512</name>
</trkpt>
<trkpt lat="49.564622" lon="9.165648">
<ele>548.5</ele>
<speed>0.2</speed>
<course>153.0</course>
<desc>Speed 0.2 km/h Distance 45.56 km</desc>
<time>2010-08-28T16:08:39.24</time>
<name>1513</name>
</trkpt>
<trkpt lat="49.564613" lon="9.165655">
<ele>548.5</ele>
<speed>2.3</speed>
<course>146.3</course>
<desc>Speed 2.3 km/h Distance 45.56 km</desc>
<time>2010-08-28T16:08:40.24</time>
<name>1514</name>
</trkpt>
<trkpt lat="49.564610" lon="9.165658">
<ele>548.5</ele>
<speed>2.3</speed>
<course>194.5</course>
<desc>Speed 2.3 km/h Distance 45.56 km</desc>
<time>2010-08-28T16:08:41.24</time>
<name>1515</name>
</trkpt>
<trkpt lat="49.564585" lon="9.165648">
<ele>548.5</ele>
<speed>4.1</speed>
<course>206.4</course>
<desc>Speed 4.1 km/h Distance 45.56 km</desc>
<time>2010-08-28T16:08:43.24</time>
<name>1516</name>
</trkpt>
<trkpt lat="49.564578" lon="9.165643">
<ele>548.5</ele>
<speed>4.1</speed>
<course>158.5</course>
<desc>Speed 4.1 km/h Distance 45.56 km</desc>
<time>2010-08-28T16:08:44.23</time>
<name>1517</name>
</trkpt>
<trkpt lat="49.564570" lon="9.165648">
<ele>548.0</ele>
<speed>3.1</speed>
<course>180.0</course>
<desc>Speed 3.1 km/h Distance 45.56 km</desc>
<time>2010-08-28T16:08:45.24</time>
<name>1518</name>
</trkpt>
<trkpt lat="49.564565" lon="9.165648">
<ele>546.5</ele>
<speed>3.0</speed>
<course>148.4</course>
<desc>Speed 3.0 km/h Distance 45.56 km</desc>
<time>2010-08-28T16:08:46.23</time>
<name>1519</name>
</trkpt>
<trkpt lat="49.564562" lon="9.165652">
<ele>546.0</ele>
<speed>2.3</speed>
<course>32.3</course>
<desc>Speed 2.3 km/h Distance 45.56 km</desc>
<time>2010-08-28T16:08:47.23</time>
<name>1520</name>
</trkpt>
<trkpt lat="49.564567" lon="9.165657">
<ele>545.5</ele>
<speed>4.7</speed>
<course>141.0</course>
<desc>Speed 4.7 km/h Distance 45.56 km</desc>
<time>2010-08-28T16:08:48.23</time>
<name>1521</name>
</trkpt>
<trkpt lat="49.564560" lon="9.165665">
<ele>545.0</ele>
<speed>0.2</speed>
<course>18.8</course>
<desc>Speed 0.2 km/h Distance 45.57 km</desc>
<time>2010-08-28T16:08:49.23</time>
<name>1522</name>
</trkpt>
<trkpt lat="49.564567" lon="9.165668">
<ele>545.5</ele>
<speed>0.7</speed>
<course>32.9</course>
<desc>Speed 0.7 km/h Distance 45.57 km</desc>
<time>2010-08-28T16:08:50.23</time>
<name>1523</name>
</trkpt>
<trkpt lat="49.564582" lon="9.165683">
<ele>544.0</ele>
<speed>2.6</speed>
<course>18.0</course>
<desc>Speed 2.6 km/h Distance 45.57 km</desc>
<time>2010-08-28T16:08:51.23</time>
<name>1524</name>
</trkpt>
<trkpt lat="49.564628" lon="9.165707">
<ele>544.0</ele>
<speed>2.8</speed>
<course>29.7</course>
<desc>Speed 2.8 km/h Distance 45.57 km</desc>
<time>2010-08-28T16:08:53.24</time>
<name>1525</name>
</trkpt>
<trkpt lat="49.564642" lon="9.165718">
<ele>542.5</ele>
<speed>3.5</speed>
<course>52.4</course>
<desc>Speed 3.5 km/h Distance 45.58 km</desc>
<time>2010-08-28T16:08:54.23</time>
<name>1526</name>
</trkpt>
<trkpt lat="49.564647" lon="9.165728">
<ele>542.5</ele>
<speed>3.5</speed>
<course>7.5</course>
<desc>Speed 3.5 km/h Distance 45.58 km</desc>
<time>2010-08-28T16:08:55.23</time>
<name>1527</name>
</trkpt>
<trkpt lat="49.564662" lon="9.165732">
<ele>543.0</ele>
<speed>3.5</speed>
<course>90.0</course>
<desc>Speed 3.5 km/h Distance 45.58 km</desc>
<time>2010-08-28T16:08:56.22</time>
<name>1528</name>
</trkpt>
<trkpt lat="49.564662" lon="9.165747">
<ele>543.0</ele>
<speed>2.1</speed>
<course>90.0</course>
<desc>Speed 2.1 km/h Distance 45.58 km</desc>
<time>2010-08-28T16:08:57.22</time>
<name>1529</name>
</trkpt>
<trkpt lat="49.564662" lon="9.165747">
<ele>542.5</ele>
<speed>0.5</speed>
<course>157.0</course>
<desc>Speed 0.5 km/h Distance 45.58 km</desc>
<time>2010-08-28T16:08:58.23</time>
<name>1530</name>
</trkpt>
<trkpt lat="49.564652" lon="9.165753">
<ele>543.0</ele>
<speed>4.0</speed>
<course>212.6</course>
<desc>Speed 4.0 km/h Distance 45.58 km</desc>
<time>2010-08-28T16:08:59.23</time>
<name>1531</name>
</trkpt>
<trkpt lat="49.564645" lon="9.165747">
<ele>544.0</ele>
<speed>3.2</speed>
<course>146.3</course>
<desc>Speed 3.2 km/h Distance 45.58 km</desc>
<time>2010-08-28T16:09:00.22</time>
<name>1532</name>
</trkpt>
<trkpt lat="49.564642" lon="9.165750">
<ele>544.0</ele>
<speed>1.5</speed>
<course>198.1</course>
<desc>Speed 1.5 km/h Distance 45.58 km</desc>
<time>2010-08-28T16:09:01.23</time>
<name>1533</name>
</trkpt>
<trkpt lat="49.564625" lon="9.165742">
<ele>543.5</ele>
<speed>3.7</speed>
<course>270.0</course>
<desc>Speed 3.7 km/h Distance 45.58 km</desc>
<time>2010-08-28T16:09:02.23</time>
<name>1534</name>
</trkpt>
<trkpt lat="49.564625" lon="9.165740">
<ele>544.0</ele>
<speed>1.4</speed>
<course>0.0</course>
<desc>Speed 1.4 km/h Distance 45.58 km</desc>
<time>2010-08-28T16:09:03.23</time>
<name>1535</name>
</trkpt>
<trkpt lat="49.564633" lon="9.165740">
<ele>545.0</ele>
<speed>1.2</speed>
<course>18.8</course>
<desc>Speed 1.2 km/h Distance 45.58 km</desc>
<time>2010-08-28T16:09:04.23</time>
<name>1536</name>
</trkpt>
<trkpt lat="49.564640" lon="9.165743">
<ele>546.0</ele>
<speed>1.4</speed>
<course>44.5</course>
<desc>Speed 1.4 km/h Distance 45.59 km</desc>
<time>2010-08-28T16:09:05.22</time>
<name>1537</name>
</trkpt>
<trkpt lat="49.564643" lon="9.165748">
<ele>547.0</ele>
<speed>1.2</speed>
<course>42.5</course>
<desc>Speed 1.2 km/h Distance 45.59 km</desc>
<time>2010-08-28T16:09:06.22</time>
<name>1538</name>
</trkpt>
<trkpt lat="49.564647" lon="9.165753">
<ele>548.5</ele>
<speed>0.8</speed>
<course>167.4</course>
<desc>Speed 0.8 km/h Distance 45.59 km</desc>
<time>2010-08-28T16:09:07.22</time>
<name>1539</name>
</trkpt>
<trkpt lat="49.564643" lon="9.165755">
<ele>549.0</ele>
<speed>3.5</speed>
<course>4.4</course>
<desc>Speed 3.5 km/h Distance 45.59 km</desc>
<time>2010-08-28T16:09:08.22</time>
<name>1540</name>
</trkpt>
<trkpt lat="49.564653" lon="9.165755">
<ele>550.0</ele>
<speed>0.2</speed>
<course>173.4</course>
<desc>Speed 0.2 km/h Distance 45.59 km</desc>
<time>2010-08-28T16:09:09.22</time>
<name>1541</name>
</trkpt>
<trkpt lat="49.564643" lon="9.165757">
<ele>549.5</ele>
<speed>0.3</speed>
<course>164.0</course>
<desc>Speed 0.3 km/h Distance 45.59 km</desc>
<time>2010-08-28T16:09:10.22</time>
<name>1542</name>
</trkpt>
<trkpt lat="49.564628" lon="9.165763">
<ele>549.0</ele>
<speed>0.4</speed>
<course>270.0</course>
<desc>Speed 0.4 km/h Distance 45.59 km</desc>
<time>2010-08-28T16:09:11.22</time>
<name>1543</name>
</trkpt>
<trkpt lat="49.564628" lon="9.165762">
<ele>549.0</ele>
<speed>0.1</speed>
<course>348.8</course>
<desc>Speed 0.1 km/h Distance 45.59 km</desc>
<time>2010-08-28T16:09:12.22</time>
<name>1544</name>
</trkpt>
<trkpt lat="49.564645" lon="9.165757">
<ele>551.0</ele>
<speed>7.2</speed>
<course>167.4</course>
<desc>Speed 7.2 km/h Distance 45.59 km</desc>
<time>2010-08-28T16:09:13.22</time>
<name>1545</name>
</trkpt>
<trkpt lat="49.564630" lon="9.165762">
<ele>550.5</ele>
<speed>1.7</speed>
<course>175.0</course>
<desc>Speed 1.7 km/h Distance 45.59 km</desc>
<time>2010-08-28T16:09:14.22</time>
<name>1546</name>
</trkpt>
<trkpt lat="49.564622" lon="9.165763">
<ele>550.5</ele>
<speed>1.3</speed>
<course>180.0</course>
<desc>Speed 1.3 km/h Distance 45.60 km</desc>
<time>2010-08-28T16:09:15.21</time>
<name>1547</name>
</trkpt>
<trkpt lat="49.564613" lon="9.165763">
<ele>550.5</ele>
<speed>0.2</speed>
<course>175.6</course>
<desc>Speed 0.2 km/h Distance 45.60 km</desc>
<time>2010-08-28T16:09:16.21</time>
<name>1548</name>
</trkpt>
<trkpt lat="49.564603" lon="9.165765">
<ele>550.5</ele>
<speed>0.0</speed>
<course>197.5</course>
<desc>Speed 0.0 km/h Distance 45.60 km</desc>
<time>2010-08-28T16:09:17.21</time>
<name>1549</name>
</trkpt>
<trkpt lat="49.564597" lon="9.165762">
<ele>550.5</ele>
<speed>2.6</speed>
<course>193.8</course>
<desc>Speed 2.6 km/h Distance 45.60 km</desc>
<time>2010-08-28T16:09:18.21</time>
<name>1550</name>
</trkpt>
<trkpt lat="49.564588" lon="9.165758">
<ele>550.5</ele>
<speed>2.5</speed>
<course>32.6</course>
<desc>Speed 2.5 km/h Distance 45.60 km</desc>
<time>2010-08-28T16:09:19.22</time>
<name>1551</name>
</trkpt>
<trkpt lat="49.564595" lon="9.165765">
<ele>550.0</ele>
<speed>4.2</speed>
<course>180.0</course>
<desc>Speed 4.2 km/h Distance 45.60 km</desc>
<time>2010-08-28T16:09:20.21</time>
<name>1552</name>
</trkpt>
<trkpt lat="49.564592" lon="9.165765">
<ele>550.5</ele>
<speed>0.6</speed>
<course>142.8</course>
<desc>Speed 0.6 km/h Distance 45.60 km</desc>
<time>2010-08-28T16:09:21.21</time>
<name>1553</name>
</trkpt>
<trkpt lat="49.564590" lon="9.165767">
<ele>550.0</ele>
<speed>2.8</speed>
<course>270.0</course>
<desc>Speed 2.8 km/h Distance 45.60 km</desc>
<time>2010-08-28T16:09:22.21</time>
<name>1554</name>
</trkpt>
<trkpt lat="49.564590" lon="9.165765">
<ele>550.0</ele>
<speed>0.4</speed>
<course>169.7</course>
<desc>Speed 0.4 km/h Distance 45.60 km</desc>
<time>2010-08-28T16:09:23.21</time>
<name>1555</name>
</trkpt>
<trkpt lat="49.564583" lon="9.165767">
<ele>549.0</ele>
<speed>1.8</speed>
<course>326.3</course>
<desc>Speed 1.8 km/h Distance 45.60 km</desc>
<time>2010-08-28T16:09:24.21</time>
<name>1556</name>
</trkpt>
<trkpt lat="49.564587" lon="9.165763">
<ele>549.0</ele>
<speed>0.3</speed>
<course>346.2</course>
<desc>Speed 0.3 km/h Distance 45.60 km</desc>
<time>2010-08-28T16:09:25.20</time>
<name>1557</name>
</trkpt>
<trkpt lat="49.564595" lon="9.165760">
<ele>549.5</ele>
<speed>0.8</speed>
<course>315.5</course>
<desc>Speed 0.8 km/h Distance 45.60 km</desc>
<time>2010-08-28T16:09:26.21</time>
<name>1558</name>
</trkpt>
<trkpt lat="49.564598" lon="9.165755">
<ele>549.5</ele>
<speed>0.5</speed>
<course>180.0</course>
<desc>Speed 0.5 km/h Distance 45.60 km</desc>
<time>2010-08-28T16:09:27.21</time>
<name>1559</name>
</trkpt>
<trkpt lat="49.564595" lon="9.165755">
<ele>549.0</ele>
<speed>0.8</speed>
<course>185.0</course>
<desc>Speed 0.8 km/h Distance 45.60 km</desc>
<time>2010-08-28T16:09:28.21</time>
<name>1560</name>
</trkpt>
<trkpt lat="49.564587" lon="9.165753">
<ele>548.5</ele>
<speed>2.2</speed>
<course>340.4</course>
<desc>Speed 2.2 km/h Distance 45.60 km</desc>
<time>2010-08-28T16:09:29.21</time>
<name>1561</name>
</trkpt>
<trkpt lat="49.564602" lon="9.165745">
<ele>550.0</ele>
<speed>1.4</speed>
<course>310.6</course>
<desc>Speed 1.4 km/h Distance 45.61 km</desc>
<time>2010-08-28T16:09:30.20</time>
<name>1562</name>
</trkpt>
<trkpt lat="49.564603" lon="9.165742">
<ele>550.0</ele>
<speed>1.0</speed>
<course>200.2</course>
<desc>Speed 1.0 km/h Distance 45.61 km</desc>
<time>2010-08-28T16:09:31.20</time>
<name>1563</name>
</trkpt>
<trkpt lat="49.564592" lon="9.165735">
<ele>549.5</ele>
<speed>3.2</speed>
<course>207.9</course>
<desc>Speed 3.2 km/h Distance 45.61 km</desc>
<time>2010-08-28T16:09:32.20</time>
<name>1564</name>
</trkpt>
<trkpt lat="49.564583" lon="9.165728">
<ele>549.5</ele>
<speed>3.2</speed>
<course>220.9</course>
<desc>Speed 3.2 km/h Distance 45.61 km</desc>
<time>2010-08-28T16:09:33.20</time>
<name>1565</name>
</trkpt>
<trkpt lat="49.564578" lon="9.165722">
<ele>549.0</ele>
<speed>0.5</speed>
<course>224.0</course>
<desc>Speed 0.5 km/h Distance 45.61 km</desc>
<time>2010-08-28T16:09:34.20</time>
<name>1566</name>
</trkpt>
<trkpt lat="49.564572" lon="9.165712">
<ele>549.0</ele>
<speed>0.8</speed>
<course>204.9</course>
<desc>Speed 0.8 km/h Distance 45.61 km</desc>
<time>2010-08-28T16:09:35.20</time>
<name>1567</name>
</trkpt>
<trkpt lat="49.564560" lon="9.165703">
<ele>549.0</ele>
<speed>6.9</speed>
<course>287.1</course>
<desc>Speed 6.9 km/h Distance 45.61 km</desc>
<time>2010-08-28T16:09:36.20</time>
<name>1568</name>
</trkpt>
<trkpt lat="49.564563" lon="9.165687">
<ele>550.0</ele>
<speed>5.2</speed>
<course>319.1</course>
<desc>Speed 5.2 km/h Distance 45.61 km</desc>
<time>2010-08-28T16:09:37.19</time>
<name>1569</name>
</trkpt>
<trkpt lat="49.564568" lon="9.165680">
<ele>550.0</ele>
<speed>2.0</speed>
<course>231.9</course>
<desc>Speed 2.0 km/h Distance 45.61 km</desc>
<time>2010-08-28T16:09:38.19</time>
<name>1570</name>
</trkpt>
<trkpt lat="49.564567" lon="9.165677">
<ele>550.0</ele>
<speed>0.5</speed>
<course>217.2</course>
<desc>Speed 0.5 km/h Distance 45.62 km</desc>
<time>2010-08-28T16:09:39.20</time>
<name>1571</name>
</trkpt>
<trkpt lat="49.564557" lon="9.165665">
<ele>550.5</ele>
<speed>4.3</speed>
<course>344.0</course>
<desc>Speed 4.3 km/h Distance 45.62 km</desc>
<time>2010-08-28T16:09:40.19</time>
<name>1572</name>
</trkpt>
<trkpt lat="49.564568" lon="9.165660">
<ele>551.0</ele>
<speed>1.0</speed>
<course>220.9</course>
<desc>Speed 1.0 km/h Distance 45.62 km</desc>
<time>2010-08-28T16:09:41.19</time>
<name>1573</name>
</trkpt>
<trkpt lat="49.564553" lon="9.165640">
<ele>550.0</ele>
<speed>5.3</speed>
<course>175.6</course>
<desc>Speed 5.3 km/h Distance 45.62 km</desc>
<time>2010-08-28T16:09:42.19</time>
<name>1574</name>
</trkpt>
<trkpt lat="49.564543" lon="9.165642">
<ele>550.0</ele>
<speed>3.6</speed>
<course>180.0</course>
<desc>Speed 3.6 km/h Distance 45.62 km</desc>
<time>2010-08-28T16:09:43.19</time>
<name>1575</name>
</trkpt>
<trkpt lat="49.564490" lon="9.165642">
<ele>549.0</ele>
<speed>6.0</speed>
<course>312.7</course>
<desc>Speed 6.0 km/h Distance 45.63 km</desc>
<time>2010-08-28T16:09:45.20</time>
<name>1576</name>
</trkpt>
<trkpt lat="49.564500" lon="9.165625">
<ele>550.5</ele>
<speed>6.5</speed>
<course>22.2</course>
<desc>Speed 6.5 km/h Distance 45.63 km</desc>
<time>2010-08-28T16:09:46.19</time>
<name>1577</name>
</trkpt>
<trkpt lat="49.564505" lon="9.165628">
<ele>551.5</ele>
<speed>2.1</speed>
<course>33.7</course>
<desc>Speed 2.1 km/h Distance 45.63 km</desc>
<time>2010-08-28T16:09:47.20</time>
<name>1578</name>
</trkpt>
<trkpt lat="49.564508" lon="9.165632">
<ele>552.0</ele>
<speed>0.7</speed>
<course>191.2</course>
<desc>Speed 0.7 km/h Distance 45.63 km</desc>
<time>2010-08-28T16:09:48.19</time>
<name>1579</name>
</trkpt>
<trkpt lat="49.564497" lon="9.165628">
<ele>554.0</ele>
<speed>6.6</speed>
<course>198.0</course>
<desc>Speed 6.6 km/h Distance 45.63 km</desc>
<time>2010-08-28T16:09:49.19</time>
<name>1580</name>
</trkpt>
<trkpt lat="49.564473" lon="9.165617">
<ele>554.5</ele>
<speed>10.2</speed>
<course>196.0</course>
<desc>Speed 10.2 km/h Distance 45.63 km</desc>
<time>2010-08-28T16:09:50.19</time>
<name>1581</name>
</trkpt>
<trkpt lat="49.564458" lon="9.165610">
<ele>554.5</ele>
<speed>7.3</speed>
<course>247.2</course>
<desc>Speed 7.3 km/h Distance 45.64 km</desc>
<time>2010-08-28T16:09:51.18</time>
<name>1582</name>
</trkpt>
<trkpt lat="49.564453" lon="9.165592">
<ele>554.5</ele>
<speed>3.3</speed>
<course>319.7</course>
<desc>Speed 3.3 km/h Distance 45.64 km</desc>
<time>2010-08-28T16:09:52.18</time>
<name>1583</name>
</trkpt>
<trkpt lat="49.564458" lon="9.165585">
<ele>555.0</ele>
<speed>3.3</speed>
<course>203.0</course>
<desc>Speed 3.3 km/h Distance 45.64 km</desc>
<time>2010-08-28T16:09:53.19</time>
<name>1584</name>
</trkpt>
<trkpt lat="49.564455" lon="9.165583">
<ele>555.0</ele>
<speed>0.4</speed>
<course>142.8</course>
<desc>Speed 0.4 km/h Distance 45.64 km</desc>
<time>2010-08-28T16:09:54.19</time>
<name>1585</name>
</trkpt>
<trkpt lat="49.564453" lon="9.165585">
<ele>556.0</ele>
<speed>0.8</speed>
<course>231.9</course>
<desc>Speed 0.8 km/h Distance 45.64 km</desc>
<time>2010-08-28T16:09:55.18</time>
<name>1586</name>
</trkpt>
<trkpt lat="49.564452" lon="9.165582">
<ele>556.0</ele>
<speed>1.6</speed>
<course>44.0</course>
<desc>Speed 1.6 km/h Distance 45.64 km</desc>
<time>2010-08-28T16:09:56.18</time>
<name>1587</name>
</trkpt>
<trkpt lat="49.564458" lon="9.165592">
<ele>555.5</ele>
<speed>3.6</speed>
<course>208.5</course>
<desc>Speed 3.6 km/h Distance 45.64 km</desc>
<time>2010-08-28T16:09:57.17</time>
<name>1588</name>
</trkpt>
<trkpt lat="49.564438" lon="9.165575">
<ele>556.0</ele>
<speed>2.5</speed>
<course>3.0</course>
<desc>Speed 2.5 km/h Distance 45.64 km</desc>
<time>2010-08-28T16:09:59.18</time>
<name>1589</name>
</trkpt>
<trkpt lat="49.564462" lon="9.165577">
<ele>556.0</ele>
<speed>3.5</speed>
<course>47.1</course>
<desc>Speed 3.5 km/h Distance 45.64 km</desc>
<time>2010-08-28T16:10:00.18</time>
<name>1590</name>
</trkpt>
<trkpt lat="49.564467" lon="9.165585">
<ele>556.5</ele>
<speed>0.8</speed>
<course>20.6</course>
<desc>Speed 0.8 km/h Distance 45.65 km</desc>
<time>2010-08-28T16:10:01.18</time>
<name>1591</name>
</trkpt>
<trkpt lat="49.564478" lon="9.165592">
<ele>557.5</ele>
<speed>5.3</speed>
<course>29.8</course>
<desc>Speed 5.3 km/h Distance 45.65 km</desc>
<time>2010-08-28T16:10:02.18</time>
<name>1592</name>
</trkpt>
<trkpt lat="49.564492" lon="9.165603">
<ele>557.5</ele>
<speed>4.8</speed>
<course>33.0</course>
<desc>Speed 4.8 km/h Distance 45.65 km</desc>
<time>2010-08-28T16:10:03.18</time>
<name>1593</name>
</trkpt>
<trkpt lat="49.564505" lon="9.165617">
<ele>557.5</ele>
<speed>4.9</speed>
<course>23.4</course>
<desc>Speed 4.9 km/h Distance 45.65 km</desc>
<time>2010-08-28T16:10:04.18</time>
<name>1594</name>
</trkpt>
<trkpt lat="49.564545" lon="9.165643">
<ele>556.5</ele>
<speed>2.6</speed>
<course>26.2</course>
<desc>Speed 2.6 km/h Distance 45.66 km</desc>
<time>2010-08-28T16:10:06.17</time>
<name>1595</name>
</trkpt>
<trkpt lat="49.564593" lon="9.165680">
<ele>557.0</ele>
<speed>2.6</speed>
<course>24.5</course>
<desc>Speed 2.6 km/h Distance 45.66 km</desc>
<time>2010-08-28T16:10:08.18</time>
<name>1596</name>
</trkpt>
<trkpt lat="49.564610" lon="9.165692">
<ele>557.5</ele>
<speed>3.6</speed>
<course>26.0</course>
<desc>Speed 3.6 km/h Distance 45.66 km</desc>
<time>2010-08-28T16:10:09.17</time>
<name>1597</name>
</trkpt>
<trkpt lat="49.564623" lon="9.165702">
<ele>557.5</ele>
<speed>3.3</speed>
<course>348.8</course>
<desc>Speed 3.3 km/h Distance 45.66 km</desc>
<time>2010-08-28T16:10:10.18</time>
<name>1598</name>
</trkpt>
<trkpt lat="49.564640" lon="9.165697">
<ele>557.5</ele>
<speed>7.3</speed>
<course>325.9</course>
<desc>Speed 7.3 km/h Distance 45.67 km</desc>
<time>2010-08-28T16:10:11.16</time>
<name>1599</name>
</trkpt>
<trkpt lat="49.564645" lon="9.165692">
<ele>556.5</ele>
<speed>0.5</speed>
<course>90.0</course>
<desc>Speed 0.5 km/h Distance 45.67 km</desc>
<time>2010-08-28T16:10:13.17</time>
<name>1600</name>
</trkpt>
<trkpt lat="49.564645" lon="9.165695">
<ele>555.5</ele>
<speed>0.1</speed>
<course>319.1</course>
<desc>Speed 0.1 km/h Distance 45.67 km</desc>
<time>2010-08-28T16:10:14.17</time>
<name>1601</name>
</trkpt>
<trkpt lat="49.564650" lon="9.165688">
<ele>555.5</ele>
<speed>0.3</speed>
<course>308.1</course>
<desc>Speed 0.3 km/h Distance 45.67 km</desc>
<time>2010-08-28T16:10:15.17</time>
<name>1602</name>
</trkpt>
<trkpt lat="49.564653" lon="9.165682">
<ele>555.0</ele>
<speed>0.2</speed>
<course>172.6</course>
<desc>Speed 0.2 km/h Distance 45.67 km</desc>
<time>2010-08-28T16:10:16.86</time>
<name>1603</name>
</trkpt>
<trkpt lat="49.564647" lon="9.165683">
<ele>554.5</ele>
<speed>1.4</speed>
<course>192.6</course>
<desc>Speed 1.4 km/h Distance 45.67 km</desc>
<time>2010-08-28T16:10:18.15</time>
<name>1604</name>
</trkpt>
<trkpt lat="49.564645" lon="9.165682">
<ele>554.0</ele>
<speed>0.2</speed>
<course>187.4</course>
<desc>Speed 0.2 km/h Distance 45.67 km</desc>
<time>2010-08-28T16:10:19.15</time>
<name>1605</name>
</trkpt>
<trkpt lat="49.564638" lon="9.165680">
<ele>554.0</ele>
<speed>1.7</speed>
<course>270.0</course>
<desc>Speed 1.7 km/h Distance 45.67 km</desc>
<time>2010-08-28T16:10:20.14</time>
<name>1606</name>
</trkpt>
<trkpt lat="49.564638" lon="9.165678">
<ele>554.0</ele>
<speed>0.5</speed>
<course>347.4</course>
<desc>Speed 0.5 km/h Distance 45.67 km</desc>
<time>2010-08-28T16:10:21.14</time>
<name>1607</name>
</trkpt>
<trkpt lat="49.564648" lon="9.165675">
<ele>553.5</ele>
<speed>0.8</speed>
<course>303.3</course>
<desc>Speed 0.8 km/h Distance 45.67 km</desc>
<time>2010-08-28T16:10:22.15</time>
<name>1608</name>
</trkpt>
<trkpt lat="49.564653" lon="9.165663">
<ele>554.0</ele>
<speed>4.6</speed>
<course>3.8</course>
<desc>Speed 4.6 km/h Distance 45.67 km</desc>
<time>2010-08-28T16:10:23.14</time>
<name>1609</name>
</trkpt>
<trkpt lat="49.564668" lon="9.165663">
<ele>554.5</ele>
<speed>0.4</speed>
<course>333.6</course>
<desc>Speed 0.4 km/h Distance 45.67 km</desc>
<time>2010-08-28T16:10:24.14</time>
<name>1610</name>
</trkpt>
<trkpt lat="49.564675" lon="9.165658">
<ele>554.5</ele>
<speed>2.8</speed>
<course>18.8</course>
<desc>Speed 2.8 km/h Distance 45.68 km</desc>
<time>2010-08-28T16:10:25.15</time>
<name>1611</name>
</trkpt>
<trkpt lat="49.564678" lon="9.165660">
<ele>555.0</ele>
<speed>0.4</speed>
<course>51.9</course>
<desc>Speed 0.4 km/h Distance 45.68 km</desc>
<time>2010-08-28T16:10:26.14</time>
<name>1612</name>
</trkpt>
<trkpt lat="49.564680" lon="9.165663">
<ele>555.5</ele>
<speed>0.1</speed>
<course>180.0</course>
<desc>Speed 0.1 km/h Distance 45.68 km</desc>
<time>2010-08-28T16:10:27.14</time>
<name>1613</name>
</trkpt>
<trkpt lat="49.564677" lon="9.165663">
<ele>555.5</ele>
<speed>0.3</speed>
<course>142.8</course>
<desc>Speed 0.3 km/h Distance 45.68 km</desc>
<time>2010-08-28T16:10:28.13</time>
<name>1614</name>
</trkpt>
<trkpt lat="49.564675" lon="9.165665">
<ele>555.5</ele>
<speed>0.4</speed>
<course>142.8</course>
<desc>Speed 0.4 km/h Distance 45.68 km</desc>
<time>2010-08-28T16:10:29.13</time>
<name>1615</name>
</trkpt>
<trkpt lat="49.564673" lon="9.165667">
<ele>555.5</ele>
<speed>0.4</speed>
<course>142.8</course>
<desc>Speed 0.4 km/h Distance 45.68 km</desc>
<time>2010-08-28T16:10:30.14</time>
<name>1616</name>
</trkpt>
<trkpt lat="49.564673" lon="9.165667">
<ele>555.5</ele>
<speed>0.2</speed>
<course>296.6</course>
<desc>Speed 0.2 km/h Distance 45.68 km</desc>
<time>2010-08-28T16:10:31.13</time>
<name>1617</name>
</trkpt>
<trkpt lat="49.564675" lon="9.165662">
<ele>555.0</ele>
<speed>1.8</speed>
<course>12.6</course>
<desc>Speed 1.8 km/h Distance 45.68 km</desc>
<time>2010-08-28T16:10:32.13</time>
<name>1618</name>
</trkpt>
<trkpt lat="49.564677" lon="9.165662">
<ele>555.0</ele>
<speed>0.3</speed>
<course>12.6</course>
<desc>Speed 0.3 km/h Distance 45.68 km</desc>
<time>2010-08-28T16:10:33.13</time>
<name>1619</name>
</trkpt>
<trkpt lat="49.564678" lon="9.165662">
<ele>555.0</ele>
<speed>0.2</speed>
<course>167.4</course>
<desc>Speed 0.2 km/h Distance 45.68 km</desc>
<time>2010-08-28T16:10:34.14</time>
<name>1620</name>
</trkpt>
<trkpt lat="49.564675" lon="9.165662">
<ele>555.0</ele>
<speed>0.3</speed>
<course>180.0</course>
<desc>Speed 0.3 km/h Distance 45.68 km</desc>
<time>2010-08-28T16:10:35.14</time>
<name>1621</name>
</trkpt>
<trkpt lat="49.564672" lon="9.165662">
<ele>554.5</ele>
<speed>0.3</speed>
<course>90.0</course>
<desc>Speed 0.3 km/h Distance 45.68 km</desc>
<time>2010-08-28T16:10:36.14</time>
<name>1622</name>
</trkpt>
<trkpt lat="49.564672" lon="9.165663">
<ele>554.5</ele>
<speed>0.6</speed>
<course>20.1</course>
<desc>Speed 0.6 km/h Distance 45.68 km</desc>
<time>2010-08-28T16:10:37.12</time>
<name>1623</name>
</trkpt>
<trkpt lat="49.564680" lon="9.165668">
<ele>555.0</ele>
<speed>2.0</speed>
<course>29.2</course>
<desc>Speed 2.0 km/h Distance 45.68 km</desc>
<time>2010-08-28T16:10:38.14</time>
<name>1624</name>
</trkpt>
<trkpt lat="49.564682" lon="9.165670">
<ele>555.5</ele>
<speed>0.6</speed>
<course>213.7</course>
<desc>Speed 0.6 km/h Distance 45.68 km</desc>
<time>2010-08-28T16:10:39.13</time>
<name>1625</name>
</trkpt>
<trkpt lat="49.564678" lon="9.165667">
<ele>555.5</ele>
<speed>1.4</speed>
<course>12.6</course>
<desc>Speed 1.4 km/h Distance 45.68 km</desc>
<time>2010-08-28T16:10:40.13</time>
<name>1626</name>
</trkpt>
<trkpt lat="49.564680" lon="9.165667">
<ele>555.5</ele>
<speed>0.2</speed>
<course>190.3</course>
<desc>Speed 0.2 km/h Distance 45.68 km</desc>
<time>2010-08-28T16:10:41.13</time>
<name>1627</name>
</trkpt>
<trkpt lat="49.564673" lon="9.165665">
<ele>555.0</ele>
<speed>2.2</speed>
<course>12.6</course>
<desc>Speed 2.2 km/h Distance 45.68 km</desc>
<time>2010-08-28T16:10:42.13</time>
<name>1628</name>
</trkpt>
<trkpt lat="49.564675" lon="9.165665">
<ele>555.0</ele>
<speed>0.1</speed>
<course>12.6</course>
<desc>Speed 0.1 km/h Distance 45.68 km</desc>
<time>2010-08-28T16:10:43.13</time>
<name>1629</name>
</trkpt>
<trkpt lat="49.564680" lon="9.165667">
<ele>555.0</ele>
<speed>1.2</speed>
<course>12.6</course>
<desc>Speed 1.2 km/h Distance 45.68 km</desc>
<time>2010-08-28T16:10:44.13</time>
<name>1630</name>
</trkpt>
<trkpt lat="49.564680" lon="9.165667">
<ele>555.0</ele>
<speed>1.4</speed>
<course>347.4</course>
<desc>Speed 1.4 km/h Distance 45.68 km</desc>
<time>2010-08-28T16:10:45.13</time>
<name>1631</name>
</trkpt>
<trkpt lat="49.564683" lon="9.165665">
<ele>555.0</ele>
<speed>0.8</speed>
<course>12.6</course>
<desc>Speed 0.8 km/h Distance 45.68 km</desc>
<time>2010-08-28T16:10:46.12</time>
<name>1632</name>
</trkpt>
<trkpt lat="49.564688" lon="9.165667">
<ele>555.0</ele>
<speed>0.9</speed>
<course>14.9</course>
<desc>Speed 0.9 km/h Distance 45.68 km</desc>
<time>2010-08-28T16:10:47.13</time>
<name>1633</name>
</trkpt>
<trkpt lat="49.564697" lon="9.165670">
<ele>556.0</ele>
<speed>1.2</speed>
<course>23.0</course>
<desc>Speed 1.2 km/h Distance 45.68 km</desc>
<time>2010-08-28T16:10:48.13</time>
<name>1634</name>
</trkpt>
<trkpt lat="49.564707" lon="9.165677">
<ele>555.5</ele>
<speed>3.1</speed>
<course>153.6</course>
<desc>Speed 3.1 km/h Distance 45.69 km</desc>
<time>2010-08-28T16:10:49.12</time>
<name>1635</name>
</trkpt>
<trkpt lat="49.564700" lon="9.165682">
<ele>555.5</ele>
<speed>3.3</speed>
<course>180.0</course>
<desc>Speed 3.3 km/h Distance 45.69 km</desc>
<time>2010-08-28T16:10:50.12</time>
<name>1636</name>
</trkpt>
<trkpt lat="49.564690" lon="9.165682">
<ele>555.0</ele>
<speed>1.7</speed>
<course>150.8</course>
<desc>Speed 1.7 km/h Distance 45.69 km</desc>
<time>2010-08-28T16:10:51.13</time>
<name>1637</name>
</trkpt>
<trkpt lat="49.564688" lon="9.165683">
<ele>555.5</ele>
<speed>1.2</speed>
<course>270.0</course>
<desc>Speed 1.2 km/h Distance 45.69 km</desc>
<time>2010-08-28T16:10:52.12</time>
<name>1638</name>
</trkpt>
<trkpt lat="49.564688" lon="9.165678">
<ele>554.5</ele>
<speed>1.5</speed>
<course>194.3</course>
<desc>Speed 1.5 km/h Distance 45.69 km</desc>
<time>2010-08-28T16:10:53.11</time>
<name>1639</name>
</trkpt>
<trkpt lat="49.564672" lon="9.165672">
<ele>553.0</ele>
<speed>6.5</speed>
<course>227.1</course>
<desc>Speed 6.5 km/h Distance 45.69 km</desc>
<time>2010-08-28T16:10:54.11</time>
<name>1640</name>
</trkpt>
<trkpt lat="49.564667" lon="9.165663">
<ele>551.5</ele>
<speed>0.9</speed>
<course>39.4</course>
<desc>Speed 0.9 km/h Distance 45.69 km</desc>
<time>2010-08-28T16:10:55.12</time>
<name>1641</name>
</trkpt>
<trkpt lat="49.564673" lon="9.165672">
<ele>550.0</ele>
<speed>1.8</speed>
<course>39.4</course>
<desc>Speed 1.8 km/h Distance 45.69 km</desc>
<time>2010-08-28T16:10:56.12</time>
<name>1642</name>
</trkpt>
<trkpt lat="49.564673" lon="9.165672">
<ele>550.5</ele>
<speed>0.7</speed>
<course>37.2</course>
<desc>Speed 0.7 km/h Distance 45.69 km</desc>
<time>2010-08-28T16:10:57.11</time>
<name>1643</name>
</trkpt>
<trkpt lat="49.564675" lon="9.165673">
<ele>551.0</ele>
<speed>0.6</speed>
<course>37.2</course>
<desc>Speed 0.6 km/h Distance 45.69 km</desc>
<time>2010-08-28T16:10:58.11</time>
<name>1644</name>
</trkpt>
<trkpt lat="49.564675" lon="9.165673">
<ele>551.0</ele>
<speed>0.4</speed>
<course>205.4</course>
<desc>Speed 0.4 km/h Distance 45.69 km</desc>
<time>2010-08-28T16:10:59.11</time>
<name>1645</name>
</trkpt>
<trkpt lat="49.564670" lon="9.165670">
<ele>551.0</ele>
<speed>1.3</speed>
<course>39.1</course>
<desc>Speed 1.3 km/h Distance 45.69 km</desc>
<time>2010-08-28T16:11:00.12</time>
<name>1646</name>
</trkpt>
<trkpt lat="49.564690" lon="9.165695">
<ele>552.5</ele>
<speed>0.8</speed>
<course>187.4</course>
<desc>Speed 0.8 km/h Distance 45.70 km</desc>
<time>2010-08-28T16:11:02.11</time>
<name>1647</name>
</trkpt>
<trkpt lat="49.564683" lon="9.165693">
<ele>552.0</ele>
<speed>0.3</speed>
<course>190.3</course>
<desc>Speed 0.3 km/h Distance 45.70 km</desc>
<time>2010-08-28T16:11:03.12</time>
<name>1648</name>
</trkpt>
<trkpt lat="49.564677" lon="9.165692">
<ele>552.0</ele>
<speed>0.1</speed>
<course>208.6</course>
<desc>Speed 0.1 km/h Distance 45.70 km</desc>
<time>2010-08-28T16:11:04.12</time>
<name>1649</name>
</trkpt>
<trkpt lat="49.564667" lon="9.165683">
<ele>551.0</ele>
<speed>0.2</speed>
<course>167.4</course>
<desc>Speed 0.2 km/h Distance 45.70 km</desc>
<time>2010-08-28T16:11:05.12</time>
<name>1650</name>
</trkpt>
<trkpt lat="49.564665" lon="9.165683">
<ele>550.5</ele>
<speed>0.3</speed>
<course>197.5</course>
<desc>Speed 0.3 km/h Distance 45.70 km</desc>
<time>2010-08-28T16:11:06.11</time>
<name>1651</name>
</trkpt>
<trkpt lat="49.564658" lon="9.165680">
<ele>550.0</ele>
<speed>0.6</speed>
<course>212.1</course>
<desc>Speed 0.6 km/h Distance 45.70 km</desc>
<time>2010-08-28T16:11:07.12</time>
<name>1652</name>
</trkpt>
<trkpt lat="49.564652" lon="9.165673">
<ele>550.0</ele>
<speed>1.0</speed>
<course>212.1</course>
<desc>Speed 1.0 km/h Distance 45.70 km</desc>
<time>2010-08-28T16:11:08.11</time>
<name>1653</name>
</trkpt>
<trkpt lat="49.564652" lon="9.165673">
<ele>550.0</ele>
<speed>0.7</speed>
<course>167.4</course>
<desc>Speed 0.7 km/h Distance 45.70 km</desc>
<time>2010-08-28T16:11:09.11</time>
<name>1654</name>
</trkpt>
<trkpt lat="49.564650" lon="9.165675">
<ele>550.0</ele>
<speed>0.2</speed>
<course>142.8</course>
<desc>Speed 0.2 km/h Distance 45.70 km</desc>
<time>2010-08-28T16:11:10.11</time>
<name>1655</name>
</trkpt>
<trkpt lat="49.564648" lon="9.165677">
<ele>550.0</ele>
<speed>0.6</speed>
<course>154.6</course>
<desc>Speed 0.6 km/h Distance 45.70 km</desc>
<time>2010-08-28T16:11:11.11</time>
<name>1656</name>
</trkpt>
<trkpt lat="49.564643" lon="9.165680">
<ele>549.5</ele>
<speed>1.7</speed>
<course>154.6</course>
<desc>Speed 1.7 km/h Distance 45.70 km</desc>
<time>2010-08-28T16:11:12.11</time>
<name>1657</name>
</trkpt>
<trkpt lat="49.564643" lon="9.165680">
<ele>550.0</ele>
<speed>0.6</speed>
<course>154.6</course>
<desc>Speed 0.6 km/h Distance 45.70 km</desc>
<time>2010-08-28T16:11:13.11</time>
<name>1658</name>
</trkpt>
<trkpt lat="49.564643" lon="9.165680">
<ele>550.0</ele>
<speed>0.4</speed>
<course>167.4</course>
<desc>Speed 0.4 km/h Distance 45.70 km</desc>
<time>2010-08-28T16:11:14.11</time>
<name>1659</name>
</trkpt>
<trkpt lat="49.564640" lon="9.165680">
<ele>550.0</ele>
<speed>0.9</speed>
<course>214.1</course>
<desc>Speed 0.9 km/h Distance 45.70 km</desc>
<time>2010-08-28T16:11:15.11</time>
<name>1660</name>
</trkpt>
<trkpt lat="49.564635" lon="9.165675">
<ele>550.5</ele>
<speed>0.9</speed>
<course>187.7</course>
<desc>Speed 0.9 km/h Distance 45.70 km</desc>
<time>2010-08-28T16:11:16.10</time>
<name>1661</name>
</trkpt>
<trkpt lat="49.564627" lon="9.165673">
<ele>550.0</ele>
<speed>2.5</speed>
<course>203.0</course>
<desc>Speed 2.5 km/h Distance 45.70 km</desc>
<time>2010-08-28T16:11:17.11</time>
<name>1662</name>
</trkpt>
<trkpt lat="49.564617" lon="9.165667">
<ele>550.0</ele>
<speed>3.5</speed>
<course>212.6</course>
<desc>Speed 3.5 km/h Distance 45.70 km</desc>
<time>2010-08-28T16:11:18.10</time>
<name>1663</name>
</trkpt>
<trkpt lat="49.564403" lon="9.165457">
<ele>549.0</ele>
<speed>31.1</speed>
<course>220.1</course>
<desc>Speed 31.1 km/h Distance 45.73 km</desc>
<time>2010-08-28T16:11:22.11</time>
<name>1664</name>
</trkpt>
<trkpt lat="49.564337" lon="9.165370">
<ele>548.0</ele>
<speed>32.9</speed>
<course>218.5</course>
<desc>Speed 32.9 km/h Distance 45.74 km</desc>
<time>2010-08-28T16:11:23.10</time>
<name>1665</name>
</trkpt>
<trkpt lat="49.564285" lon="9.165307">
<ele>548.0</ele>
<speed>32.9</speed>
<course>227.1</course>
<desc>Speed 32.9 km/h Distance 45.75 km</desc>
<time>2010-08-28T16:11:24.10</time>
<name>1666</name>
</trkpt>
<trkpt lat="49.564222" lon="9.165202">
<ele>548.0</ele>
<speed>33.7</speed>
<course>232.1</course>
<desc>Speed 33.7 km/h Distance 45.76 km</desc>
<time>2010-08-28T16:11:25.10</time>
<name>1667</name>
</trkpt>
<trkpt lat="49.564132" lon="9.165023">
<ele>547.5</ele>
<speed>34.9</speed>
<course>230.2</course>
<desc>Speed 34.9 km/h Distance 45.78 km</desc>
<time>2010-08-28T16:11:27.09</time>
<name>1668</name>
</trkpt>
<trkpt lat="49.564087" lon="9.164940">
<ele>547.5</ele>
<speed>34.9</speed>
<course>240.6</course>
<desc>Speed 34.9 km/h Distance 45.78 km</desc>
<time>2010-08-28T16:11:28.08</time>
<name>1669</name>
</trkpt>
<trkpt lat="49.563980" lon="9.164648">
<ele>547.5</ele>
<speed>49.0</speed>
<course>232.4</course>
<desc>Speed 49.0 km/h Distance 45.81 km</desc>
<time>2010-08-28T16:11:31.09</time>
<name>1670</name>
</trkpt>
<trkpt lat="49.563908" lon="9.164505">
<ele>547.0</ele>
<speed>49.0</speed>
<course>251.8</course>
<desc>Speed 49.0 km/h Distance 45.82 km</desc>
<time>2010-08-28T16:11:32.09</time>
<name>1671</name>
</trkpt>
<trkpt lat="49.563825" lon="9.164115">
<ele>547.0</ele>
<speed>39.5</speed>
<course>256.0</course>
<desc>Speed 39.5 km/h Distance 45.85 km</desc>
<time>2010-08-28T16:11:35.09</time>
<name>1672</name>
</trkpt>
<trkpt lat="49.563800" lon="9.163960">
<ele>547.0</ele>
<speed>42.4</speed>
<course>248.9</course>
<desc>Speed 42.4 km/h Distance 45.86 km</desc>
<time>2010-08-28T16:11:36.09</time>
<name>1673</name>
</trkpt>
<trkpt lat="49.563758" lon="9.163793">
<ele>545.5</ele>
<speed>42.4</speed>
<course>260.0</course>
<desc>Speed 42.4 km/h Distance 45.88 km</desc>
<time>2010-08-28T16:11:37.08</time>
<name>1674</name>
</trkpt>
<trkpt lat="49.563740" lon="9.163633">
<ele>545.5</ele>
<speed>42.3</speed>
<course>263.8</course>
<desc>Speed 42.3 km/h Distance 45.89 km</desc>
<time>2010-08-28T16:11:38.08</time>
<name>1675</name>
</trkpt>
<trkpt lat="49.563728" lon="9.163468">
<ele>545.0</ele>
<speed>41.4</speed>
<course>254.5</course>
<desc>Speed 41.4 km/h Distance 45.90 km</desc>
<time>2010-08-28T16:11:39.08</time>
<name>1676</name>
</trkpt>
<trkpt lat="49.563698" lon="9.163302">
<ele>545.0</ele>
<speed>41.4</speed>
<course>253.4</course>
<desc>Speed 41.4 km/h Distance 45.91 km</desc>
<time>2010-08-28T16:11:40.09</time>
<name>1677</name>
</trkpt>
<trkpt lat="49.563670" lon="9.163155">
<ele>544.5</ele>
<speed>41.4</speed>
<course>262.9</course>
<desc>Speed 41.4 km/h Distance 45.92 km</desc>
<time>2010-08-28T16:11:41.08</time>
<name>1678</name>
</trkpt>
<trkpt lat="49.563647" lon="9.162865">
<ele>542.0</ele>
<speed>41.4</speed>
<course>251.7</course>
<desc>Speed 41.4 km/h Distance 45.94 km</desc>
<time>2010-08-28T16:11:44.08</time>
<name>1679</name>
</trkpt>
<trkpt lat="49.563543" lon="9.162383">
<ele>539.5</ele>
<speed>46.4</speed>
<course>246.1</course>
<desc>Speed 46.4 km/h Distance 45.98 km</desc>
<time>2010-08-28T16:11:48.08</time>
<name>1680</name>
</trkpt>
<trkpt lat="49.563442" lon="9.162030">
<ele>537.5</ele>
<speed>34.3</speed>
<course>233.1</course>
<desc>Speed 34.3 km/h Distance 46.01 km</desc>
<time>2010-08-28T16:11:50.07</time>
<name>1681</name>
</trkpt>
<trkpt lat="49.563310" lon="9.161760">
<ele>533.5</ele>
<speed>16.2</speed>
<course>253.5</course>
<desc>Speed 16.2 km/h Distance 46.03 km</desc>
<time>2010-08-28T16:11:53.07</time>
<name>1682</name>
</trkpt>
<trkpt lat="49.563302" lon="9.161717">
<ele>532.5</ele>
<speed>10.0</speed>
<course>233.7</course>
<desc>Speed 10.0 km/h Distance 46.04 km</desc>
<time>2010-08-28T16:11:54.07</time>
<name>1683</name>
</trkpt>
<trkpt lat="49.563285" lon="9.161682">
<ele>532.5</ele>
<speed>12.1</speed>
<course>246.2</course>
<desc>Speed 12.1 km/h Distance 46.04 km</desc>
<time>2010-08-28T16:11:55.08</time>
<name>1684</name>
</trkpt>
<trkpt lat="49.563272" lon="9.161635">
<ele>532.0</ele>
<speed>9.5</speed>
<course>228.6</course>
<desc>Speed 9.5 km/h Distance 46.04 km</desc>
<time>2010-08-28T16:11:56.06</time>
<name>1685</name>
</trkpt>
<trkpt lat="49.563252" lon="9.161600">
<ele>530.5</ele>
<speed>9.5</speed>
<course>48.3</course>
<desc>Speed 9.5 km/h Distance 46.05 km</desc>
<time>2010-08-28T16:11:57.06</time>
<name>1686</name>
</trkpt>
<trkpt lat="49.563277" lon="9.161643">
<ele>530.0</ele>
<speed>16.6</speed>
<course>48.6</course>
<desc>Speed 16.6 km/h Distance 46.05 km</desc>
<time>2010-08-28T16:11:58.06</time>
<name>1687</name>
</trkpt>
<trkpt lat="49.563290" lon="9.161667">
<ele>530.0</ele>
<speed>2.8</speed>
<course>194.3</course>
<desc>Speed 2.8 km/h Distance 46.05 km</desc>
<time>2010-08-28T16:12:00.07</time>
<name>1688</name>
</trkpt>
<trkpt lat="49.563273" lon="9.161660">
<ele>529.5</ele>
<speed>7.4</speed>
<course>90.0</course>
<desc>Speed 7.4 km/h Distance 46.05 km</desc>
<time>2010-08-28T16:12:01.07</time>
<name>1689</name>
</trkpt>
<trkpt lat="49.563273" lon="9.161687">
<ele>529.0</ele>
<speed>5.2</speed>
<course>349.7</course>
<desc>Speed 5.2 km/h Distance 46.06 km</desc>
<time>2010-08-28T16:12:02.06</time>
<name>1690</name>
</trkpt>
<trkpt lat="49.563280" lon="9.161685">
<ele>528.5</ele>
<speed>2.6</speed>
<course>327.5</course>
<desc>Speed 2.6 km/h Distance 46.06 km</desc>
<time>2010-08-28T16:12:03.06</time>
<name>1691</name>
</trkpt>
<trkpt lat="49.563288" lon="9.161677">
<ele>528.5</ele>
<speed>2.4</speed>
<course>319.1</course>
<desc>Speed 2.4 km/h Distance 46.06 km</desc>
<time>2010-08-28T16:12:04.07</time>
<name>1692</name>
</trkpt>
<trkpt lat="49.563293" lon="9.161670">
<ele>529.5</ele>
<speed>1.8</speed>
<course>243.4</course>
<desc>Speed 1.8 km/h Distance 46.06 km</desc>
<time>2010-08-28T16:12:05.06</time>
<name>1693</name>
</trkpt>
<trkpt lat="49.563292" lon="9.161665">
<ele>529.5</ele>
<speed>1.0</speed>
<course>261.2</course>
<desc>Speed 1.0 km/h Distance 46.06 km</desc>
<time>2010-08-28T16:12:06.07</time>
<name>1694</name>
</trkpt>
<trkpt lat="49.563290" lon="9.161648">
<ele>529.0</ele>
<speed>3.7</speed>
<course>242.8</course>
<desc>Speed 3.7 km/h Distance 46.06 km</desc>
<time>2010-08-28T16:12:07.06</time>
<name>1695</name>
</trkpt>
<trkpt lat="49.563287" lon="9.161638">
<ele>529.0</ele>
<speed>2.4</speed>
<course>156.2</course>
<desc>Speed 2.4 km/h Distance 46.06 km</desc>
<time>2010-08-28T16:12:08.06</time>
<name>1696</name>
</trkpt>
<trkpt lat="49.563282" lon="9.161642">
<ele>528.5</ele>
<speed>1.2</speed>
<course>90.0</course>
<desc>Speed 1.2 km/h Distance 46.06 km</desc>
<time>2010-08-28T16:12:09.05</time>
<name>1697</name>
</trkpt>
<trkpt lat="49.563282" lon="9.161662">
<ele>528.5</ele>
<speed>3.6</speed>
<course>146.8</course>
<desc>Speed 3.6 km/h Distance 46.06 km</desc>
<time>2010-08-28T16:12:10.06</time>
<name>1698</name>
</trkpt>
<trkpt lat="49.563273" lon="9.161670">
<ele>529.5</ele>
<speed>2.7</speed>
<course>202.1</course>
<desc>Speed 2.7 km/h Distance 46.06 km</desc>
<time>2010-08-28T16:12:11.05</time>
<name>1699</name>
</trkpt>
<trkpt lat="49.563260" lon="9.161662">
<ele>529.5</ele>
<speed>5.0</speed>
<course>240.4</course>
<desc>Speed 5.0 km/h Distance 46.07 km</desc>
<time>2010-08-28T16:12:12.05</time>
<name>1700</name>
</trkpt>
<trkpt lat="49.563248" lon="9.161630">
<ele>528.5</ele>
<speed>5.0</speed>
<course>102.4</course>
<desc>Speed 5.0 km/h Distance 46.07 km</desc>
<time>2010-08-28T16:12:13.05</time>
<name>1701</name>
</trkpt>
<trkpt lat="49.563247" lon="9.161642">
<ele>528.5</ele>
<speed>5.0</speed>
<course>75.6</course>
<desc>Speed 5.0 km/h Distance 46.07 km</desc>
<time>2010-08-28T16:12:14.05</time>
<name>1702</name>
</trkpt>
<trkpt lat="49.563250" lon="9.161662">
<ele>529.5</ele>
<speed>5.0</speed>
<course>52.4</course>
<desc>Speed 5.0 km/h Distance 46.07 km</desc>
<time>2010-08-28T16:12:15.05</time>
<name>1703</name>
</trkpt>
<trkpt lat="49.563257" lon="9.161675">
<ele>530.5</ele>
<speed>5.0</speed>
<course>43.3</course>
<desc>Speed 5.0 km/h Distance 46.07 km</desc>
<time>2010-08-28T16:12:16.05</time>
<name>1704</name>
</trkpt>
<trkpt lat="49.563275" lon="9.161702">
<ele>532.5</ele>
<speed>5.0</speed>
<course>60.4</course>
<desc>Speed 5.0 km/h Distance 46.07 km</desc>
<time>2010-08-28T16:12:17.05</time>
<name>1705</name>
</trkpt>
<trkpt lat="49.563557" lon="9.162467">
<ele>537.0</ele>
<speed>38.8</speed>
<course>76.0</course>
<desc>Speed 38.8 km/h Distance 46.14 km</desc>
<time>2010-08-28T16:12:23.03</time>
<name>1706</name>
</trkpt>
<trkpt lat="49.563598" lon="9.162725">
<ele>537.5</ele>
<speed>38.8</speed>
<course>82.9</course>
<desc>Speed 38.8 km/h Distance 46.16 km</desc>
<time>2010-08-28T16:12:26.03</time>
<name>1707</name>
</trkpt>
<trkpt lat="49.563617" lon="9.162953">
<ele>539.0</ele>
<speed>38.8</speed>
<course>104.7</course>
<desc>Speed 38.8 km/h Distance 46.17 km</desc>
<time>2010-08-28T16:12:29.03</time>
<name>1708</name>
</trkpt>
<trkpt lat="49.563578" lon="9.163178">
<ele>539.0</ele>
<speed>38.8</speed>
<course>93.0</course>
<desc>Speed 38.8 km/h Distance 46.19 km</desc>
<time>2010-08-28T16:12:31.03</time>
<name>1709</name>
</trkpt>
<trkpt lat="49.563573" lon="9.163325">
<ele>537.5</ele>
<speed>38.8</speed>
<course>57.0</course>
<desc>Speed 38.8 km/h Distance 46.20 km</desc>
<time>2010-08-28T16:12:32.03</time>
<name>1710</name>
</trkpt>
<trkpt lat="49.564190" lon="9.164792">
<ele>548.5</ele>
<speed>43.6</speed>
<course>71.4</course>
<desc>Speed 43.6 km/h Distance 46.33 km</desc>
<time>2010-08-28T16:12:38.02</time>
<name>1711</name>
</trkpt>
<trkpt lat="49.564222" lon="9.164937">
<ele>548.0</ele>
<speed>43.6</speed>
<course>51.1</course>
<desc>Speed 43.6 km/h Distance 46.34 km</desc>
<time>2010-08-28T16:12:39.02</time>
<name>1712</name>
</trkpt>
<trkpt lat="49.564297" lon="9.165080">
<ele>550.0</ele>
<speed>45.2</speed>
<course>38.8</course>
<desc>Speed 45.2 km/h Distance 46.35 km</desc>
<time>2010-08-28T16:12:40.01</time>
<name>1713</name>
</trkpt>
<trkpt lat="49.564387" lon="9.165192">
<ele>552.0</ele>
<speed>41.3</speed>
<course>41.4</course>
<desc>Speed 41.3 km/h Distance 46.36 km</desc>
<time>2010-08-28T16:12:41.02</time>
<name>1714</name>
</trkpt>
<trkpt lat="49.564475" lon="9.165312">
<ele>552.5</ele>
<speed>44.5</speed>
<course>39.2</course>
<desc>Speed 44.5 km/h Distance 46.38 km</desc>
<time>2010-08-28T16:12:42.02</time>
<name>1715</name>
</trkpt>
<trkpt lat="49.564565" lon="9.165425">
<ele>552.0</ele>
<speed>42.7</speed>
<course>31.8</course>
<desc>Speed 42.7 km/h Distance 46.39 km</desc>
<time>2010-08-28T16:12:43.01</time>
<name>1716</name>
</trkpt>
<trkpt lat="49.564787" lon="9.165637">
<ele>553.0</ele>
<speed>46.3</speed>
<course>26.9</course>
<desc>Speed 46.3 km/h Distance 46.42 km</desc>
<time>2010-08-28T16:12:45.02</time>
<name>1717</name>
</trkpt>
<trkpt lat="49.564893" lon="9.165720">
<ele>551.5</ele>
<speed>45.7</speed>
<course>30.3</course>
<desc>Speed 45.7 km/h Distance 46.43 km</desc>
<time>2010-08-28T16:12:46.02</time>
<name>1718</name>
</trkpt>
<trkpt lat="49.564995" lon="9.165812">
<ele>553.5</ele>
<speed>46.3</speed>
<course>36.7</course>
<desc>Speed 46.3 km/h Distance 46.45 km</desc>
<time>2010-08-28T16:12:47.01</time>
<name>1719</name>
</trkpt>
<trkpt lat="49.565095" lon="9.165927">
<ele>551.0</ele>
<speed>48.9</speed>
<course>50.0</course>
<desc>Speed 48.9 km/h Distance 46.46 km</desc>
<time>2010-08-28T16:12:48.01</time>
<name>1720</name>
</trkpt>
<trkpt lat="49.565268" lon="9.166245">
<ele>551.0</ele>
<speed>53.7</speed>
<course>47.4</course>
<desc>Speed 53.7 km/h Distance 46.49 km</desc>
<time>2010-08-28T16:12:50.01</time>
<name>1721</name>
</trkpt>
<trkpt lat="49.565357" lon="9.166393">
<ele>551.5</ele>
<speed>51.0</speed>
<course>40.7</course>
<desc>Speed 51.0 km/h Distance 46.50 km</desc>
<time>2010-08-28T16:12:51.02</time>
<name>1722</name>
</trkpt>
<trkpt lat="49.565448" lon="9.166515">
<ele>554.0</ele>
<speed>47.8</speed>
<course>55.1</course>
<desc>Speed 47.8 km/h Distance 46.52 km</desc>
<time>2010-08-28T16:12:52.01</time>
<name>1723</name>
</trkpt>
<trkpt lat="49.565520" lon="9.166673">
<ele>554.0</ele>
<speed>46.7</speed>
<course>47.3</course>
<desc>Speed 46.7 km/h Distance 46.53 km</desc>
<time>2010-08-28T16:12:53.01</time>
<name>1724</name>
</trkpt>
<trkpt lat="49.565602" lon="9.166810">
<ele>554.5</ele>
<speed>46.2</speed>
<course>57.0</course>
<desc>Speed 46.2 km/h Distance 46.55 km</desc>
<time>2010-08-28T16:12:54.01</time>
<name>1725</name>
</trkpt>
<trkpt lat="49.565663" lon="9.166957">
<ele>555.0</ele>
<speed>44.7</speed>
<course>59.0</course>
<desc>Speed 44.7 km/h Distance 46.56 km</desc>
<time>2010-08-28T16:12:55.01</time>
<name>1726</name>
</trkpt>
<trkpt lat="49.565713" lon="9.167085">
<ele>554.5</ele>
<speed>44.7</speed>
<course>64.5</course>
<desc>Speed 44.7 km/h Distance 46.57 km</desc>
<time>2010-08-28T16:12:56.00</time>
<name>1727</name>
</trkpt>
<trkpt lat="49.565793" lon="9.167343">
<ele>553.0</ele>
<speed>35.1</speed>
<course>55.3</course>
<desc>Speed 35.1 km/h Distance 46.59 km</desc>
<time>2010-08-28T16:12:58.00</time>
<name>1728</name>
</trkpt>
<trkpt lat="49.565845" lon="9.167458">
<ele>552.0</ele>
<speed>32.1</speed>
<course>57.6</course>
<desc>Speed 32.1 km/h Distance 46.60 km</desc>
<time>2010-08-28T16:12:58.99</time>
<name>1729</name>
</trkpt>
<trkpt lat="49.565880" lon="9.167543">
<ele>551.5</ele>
<speed>32.1</speed>
<course>93.5</course>
<desc>Speed 32.1 km/h Distance 46.61 km</desc>
<time>2010-08-28T16:13:00.00</time>
<name>1730</name>
</trkpt>
<trkpt lat="49.565873" lon="9.167712">
<ele>549.5</ele>
<speed>17.7</speed>
<course>129.2</course>
<desc>Speed 17.7 km/h Distance 46.62 km</desc>
<time>2010-08-28T16:13:02.01</time>
<name>1731</name>
</trkpt>
<trkpt lat="49.565858" lon="9.167740">
<ele>549.5</ele>
<speed>3.4</speed>
<course>68.7</course>
<desc>Speed 3.4 km/h Distance 46.62 km</desc>
<time>2010-08-28T16:13:04.00</time>
<name>1732</name>
</trkpt>
<trkpt lat="49.565860" lon="9.167747">
<ele>551.5</ele>
<speed>1.8</speed>
<course>330.5</course>
<desc>Speed 1.8 km/h Distance 46.62 km</desc>
<time>2010-08-28T16:13:05.00</time>
<name>1733</name>
</trkpt>
<trkpt lat="49.565873" lon="9.167735">
<ele>552.5</ele>
<speed>0.6</speed>
<course>357.5</course>
<desc>Speed 0.6 km/h Distance 46.62 km</desc>
<time>2010-08-28T16:13:06.00</time>
<name>1734</name>
</trkpt>
<trkpt lat="49.565892" lon="9.167733">
<ele>551.5</ele>
<speed>2.8</speed>
<course>12.6</course>
<desc>Speed 2.8 km/h Distance 46.63 km</desc>
<time>2010-08-28T16:13:06.99</time>
<name>1735</name>
</trkpt>
<trkpt lat="49.565893" lon="9.167733">
<ele>551.5</ele>
<speed>0.1</speed>
<course>12.6</course>
<desc>Speed 0.1 km/h Distance 46.63 km</desc>
<time>2010-08-28T16:13:08.00</time>
<name>1736</name>
</trkpt>
<trkpt lat="49.565895" lon="9.167733">
<ele>551.0</ele>
<speed>0.2</speed>
<course>325.9</course>
<desc>Speed 0.2 km/h Distance 46.63 km</desc>
<time>2010-08-28T16:13:08.99</time>
<name>1737</name>
</trkpt>
<trkpt lat="49.565900" lon="9.167728">
<ele>551.5</ele>
<speed>0.2</speed>
<course>12.6</course>
<desc>Speed 0.2 km/h Distance 46.63 km</desc>
<time>2010-08-28T16:13:10.00</time>
<name>1738</name>
</trkpt>
<trkpt lat="49.565903" lon="9.167728">
<ele>551.5</ele>
<speed>0.4</speed>
<course>12.6</course>
<desc>Speed 0.4 km/h Distance 46.63 km</desc>
<time>2010-08-28T16:13:10.99</time>
<name>1739</name>
</trkpt>
<trkpt lat="49.565905" lon="9.167728">
<ele>551.5</ele>
<speed>0.3</speed>
<course>12.6</course>
<desc>Speed 0.3 km/h Distance 46.63 km</desc>
<time>2010-08-28T16:13:11.99</time>
<name>1740</name>
</trkpt>
<trkpt lat="49.565908" lon="9.167728">
<ele>552.0</ele>
<speed>0.1</speed>
<course>37.2</course>
<desc>Speed 0.1 km/h Distance 46.63 km</desc>
<time>2010-08-28T16:13:12.99</time>
<name>1741</name>
</trkpt>
<trkpt lat="49.565910" lon="9.167730">
<ele>552.0</ele>
<speed>0.2</speed>
<course>21.5</course>
<desc>Speed 0.2 km/h Distance 46.63 km</desc>
<time>2010-08-28T16:13:13.99</time>
<name>1742</name>
</trkpt>
<trkpt lat="49.565918" lon="9.167735">
<ele>552.5</ele>
<speed>1.0</speed>
<course>21.5</course>
<desc>Speed 1.0 km/h Distance 46.63 km</desc>
<time>2010-08-28T16:13:14.99</time>
<name>1743</name>
</trkpt>
<trkpt lat="49.565918" lon="9.167735">
<ele>553.0</ele>
<speed>0.5</speed>
<course>180.0</course>
<desc>Speed 0.5 km/h Distance 46.63 km</desc>
<time>2010-08-28T16:13:15.98</time>
<name>1744</name>
</trkpt>
<trkpt lat="49.565913" lon="9.167735">
<ele>554.0</ele>
<speed>0.3</speed>
<course>180.0</course>
<desc>Speed 0.3 km/h Distance 46.63 km</desc>
<time>2010-08-28T16:13:16.99</time>
<name>1745</name>
</trkpt>
<trkpt lat="49.565913" lon="9.167735">
<ele>554.0</ele>
<speed>0.3</speed>
<course>270.0</course>
<desc>Speed 0.3 km/h Distance 46.63 km</desc>
<time>2010-08-28T16:13:17.99</time>
<name>1746</name>
</trkpt>
<trkpt lat="49.565913" lon="9.167733">
<ele>554.0</ele>
<speed>0.1</speed>
<course>270.0</course>
<desc>Speed 0.1 km/h Distance 46.63 km</desc>
<time>2010-08-28T16:13:18.99</time>
<name>1747</name>
</trkpt>
<trkpt lat="49.565913" lon="9.167733">
<ele>554.5</ele>
<speed>0.0</speed>
<course>167.4</course>
<desc>Speed 0.0 km/h Distance 46.63 km</desc>
<time>2010-08-28T16:13:19.99</time>
<name>1748</name>
</trkpt>
<trkpt lat="49.565912" lon="9.167733">
<ele>554.5</ele>
<speed>0.6</speed>
<course>167.4</course>
<desc>Speed 0.6 km/h Distance 46.63 km</desc>
<time>2010-08-28T16:13:20.98</time>
<name>1749</name>
</trkpt>
<trkpt lat="49.565910" lon="9.167733">
<ele>555.0</ele>
<speed>0.7</speed>
<course>12.6</course>
<desc>Speed 0.7 km/h Distance 46.63 km</desc>
<time>2010-08-28T16:13:21.98</time>
<name>1750</name>
</trkpt>
<trkpt lat="49.565912" lon="9.167733">
<ele>555.0</ele>
<speed>0.7</speed>
<course>23.0</course>
<desc>Speed 0.7 km/h Distance 46.63 km</desc>
<time>2010-08-28T16:13:22.98</time>
<name>1751</name>
</trkpt>
<trkpt lat="49.565915" lon="9.167735">
<ele>554.0</ele>
<speed>0.8</speed>
<course>23.0</course>
<desc>Speed 0.8 km/h Distance 46.63 km</desc>
<time>2010-08-28T16:13:23.98</time>
<name>1752</name>
</trkpt>
<trkpt lat="49.565915" lon="9.167735">
<ele>553.5</ele>
<speed>0.4</speed>
<course>217.2</course>
<desc>Speed 0.4 km/h Distance 46.63 km</desc>
<time>2010-08-28T16:13:24.98</time>
<name>1753</name>
</trkpt>
<trkpt lat="49.565913" lon="9.167733">
<ele>554.0</ele>
<speed>0.4</speed>
<course>12.6</course>
<desc>Speed 0.4 km/h Distance 46.63 km</desc>
<time>2010-08-28T16:13:25.98</time>
<name>1754</name>
</trkpt>
<trkpt lat="49.565917" lon="9.167733">
<ele>554.0</ele>
<speed>1.2</speed>
<course>5.0</course>
<desc>Speed 1.2 km/h Distance 46.63 km</desc>
<time>2010-08-28T16:13:26.97</time>
<name>1755</name>
</trkpt>
<trkpt lat="49.565925" lon="9.167735">
<ele>554.0</ele>
<speed>4.2</speed>
<course>7.7</course>
<desc>Speed 4.2 km/h Distance 46.63 km</desc>
<time>2010-08-28T16:13:27.97</time>
<name>1756</name>
</trkpt>
<trkpt lat="49.565933" lon="9.167737">
<ele>553.5</ele>
<speed>2.9</speed>
<course>8.1</course>
<desc>Speed 2.9 km/h Distance 46.63 km</desc>
<time>2010-08-28T16:13:28.98</time>
<name>1757</name>
</trkpt>
<trkpt lat="49.565938" lon="9.167737">
<ele>554.5</ele>
<speed>4.0</speed>
<course>201.5</course>
<desc>Speed 4.0 km/h Distance 46.63 km</desc>
<time>2010-08-28T16:13:29.98</time>
<name>1758</name>
</trkpt>
<trkpt lat="49.565930" lon="9.167732">
<ele>554.5</ele>
<speed>0.8</speed>
<course>211.6</course>
<desc>Speed 0.8 km/h Distance 46.64 km</desc>
<time>2010-08-28T16:13:30.98</time>
<name>1759</name>
</trkpt>
<trkpt lat="49.565927" lon="9.167728">
<ele>554.0</ele>
<speed>0.4</speed>
<course>211.6</course>
<desc>Speed 0.4 km/h Distance 46.64 km</desc>
<time>2010-08-28T16:13:31.97</time>
<name>1760</name>
</trkpt>
<trkpt lat="49.565927" lon="9.167728">
<ele>554.0</ele>
<speed>0.1</speed>
<course>211.6</course>
<desc>Speed 0.1 km/h Distance 46.64 km</desc>
<time>2010-08-28T16:13:32.97</time>
<name>1761</name>
</trkpt>
<trkpt lat="49.565927" lon="9.167728">
<ele>554.0</ele>
<speed>0.1</speed>
<course>194.3</course>
<desc>Speed 0.1 km/h Distance 46.64 km</desc>
<time>2010-08-28T16:13:33.98</time>
<name>1762</name>
</trkpt>
<trkpt lat="49.565872" lon="9.167707">
<ele>553.0</ele>
<speed>0.7</speed>
<course>9.6</course>
<desc>Speed 0.7 km/h Distance 46.64 km</desc>
<time>2010-08-28T16:13:35.97</time>
<name>1763</name>
</trkpt>
<trkpt lat="49.565880" lon="9.167708">
<ele>552.5</ele>
<speed>0.2</speed>
<course>10.4</course>
<desc>Speed 0.2 km/h Distance 46.64 km</desc>
<time>2010-08-28T16:13:36.97</time>
<name>1764</name>
</trkpt>
<trkpt lat="49.565892" lon="9.167712">
<ele>552.5</ele>
<speed>0.7</speed>
<course>17.5</course>
<desc>Speed 0.7 km/h Distance 46.64 km</desc>
<time>2010-08-28T16:13:37.97</time>
<name>1765</name>
</trkpt>
<trkpt lat="49.565898" lon="9.167715">
<ele>552.0</ele>
<speed>0.3</speed>
<course>12.6</course>
<desc>Speed 0.3 km/h Distance 46.64 km</desc>
<time>2010-08-28T16:13:38.97</time>
<name>1766</name>
</trkpt>
<trkpt lat="49.565908" lon="9.167718">
<ele>551.0</ele>
<speed>0.1</speed>
<course>18.2</course>
<desc>Speed 0.1 km/h Distance 46.65 km</desc>
<time>2010-08-28T16:13:39.96</time>
<name>1767</name>
</trkpt>
<trkpt lat="49.565913" lon="9.167720">
<ele>550.5</ele>
<speed>0.4</speed>
<course>37.2</course>
<desc>Speed 0.4 km/h Distance 46.65 km</desc>
<time>2010-08-28T16:13:40.97</time>
<name>1768</name>
</trkpt>
<trkpt lat="49.565915" lon="9.167722">
<ele>551.0</ele>
<speed>0.3</speed>
<course>29.2</course>
<desc>Speed 0.3 km/h Distance 46.65 km</desc>
<time>2010-08-28T16:13:41.97</time>
<name>1769</name>
</trkpt>
<trkpt lat="49.565917" lon="9.167723">
<ele>551.0</ele>
<speed>0.4</speed>
<course>29.2</course>
<desc>Speed 0.4 km/h Distance 46.65 km</desc>
<time>2010-08-28T16:13:42.97</time>
<name>1770</name>
</trkpt>
<trkpt lat="49.565917" lon="9.167725">
<ele>551.0</ele>
<speed>0.3</speed>
<course>29.2</course>
<desc>Speed 0.3 km/h Distance 46.65 km</desc>
<time>2010-08-28T16:13:43.97</time>
<name>1771</name>
</trkpt>
<trkpt lat="49.565917" lon="9.167725">
<ele>550.5</ele>
<speed>0.6</speed>
<course>29.2</course>
<desc>Speed 0.6 km/h Distance 46.65 km</desc>
<time>2010-08-28T16:13:44.96</time>
<name>1772</name>
</trkpt>
<trkpt lat="49.565917" lon="9.167725">
<ele>550.5</ele>
<speed>0.3</speed>
<course>29.2</course>
<desc>Speed 0.3 km/h Distance 46.65 km</desc>
<time>2010-08-28T16:13:45.96</time>
<name>1773</name>
</trkpt>
<trkpt lat="49.565917" lon="9.167723">
<ele>550.0</ele>
<speed>0.2</speed>
<course>29.2</course>
<desc>Speed 0.2 km/h Distance 46.65 km</desc>
<time>2010-08-28T16:13:46.96</time>
<name>1774</name>
</trkpt>
<trkpt lat="49.565917" lon="9.167723">
<ele>550.0</ele>
<speed>0.6</speed>
<course>172.6</course>
<desc>Speed 0.6 km/h Distance 46.65 km</desc>
<time>2010-08-28T16:13:47.96</time>
<name>1775</name>
</trkpt>
<trkpt lat="49.565910" lon="9.167725">
<ele>549.5</ele>
<speed>2.4</speed>
<course>195.3</course>
<desc>Speed 2.4 km/h Distance 46.65 km</desc>
<time>2010-08-28T16:13:48.96</time>
<name>1776</name>
</trkpt>
<trkpt lat="49.565440" lon="9.167527">
<ele>547.5</ele>
<speed>50.5</speed>
<course>194.0</course>
<desc>Speed 50.5 km/h Distance 46.70 km</desc>
<time>2010-08-28T16:13:54.95</time>
<name>1777</name>
</trkpt>
<trkpt lat="49.565232" lon="9.167447">
<ele>548.5</ele>
<speed>56.6</speed>
<course>187.4</course>
<desc>Speed 56.6 km/h Distance 46.73 km</desc>
<time>2010-08-28T16:13:56.96</time>
<name>1778</name>
</trkpt>
<trkpt lat="49.565082" lon="9.167417">
<ele>551.0</ele>
<speed>61.3</speed>
<course>187.2</course>
<desc>Speed 61.3 km/h Distance 46.74 km</desc>
<time>2010-08-28T16:13:57.95</time>
<name>1779</name>
</trkpt>
<trkpt lat="49.564927" lon="9.167387">
<ele>552.0</ele>
<speed>63.4</speed>
<course>182.9</course>
<desc>Speed 63.4 km/h Distance 46.76 km</desc>
<time>2010-08-28T16:13:58.95</time>
<name>1780</name>
</trkpt>
<trkpt lat="49.564758" lon="9.167373">
<ele>551.0</ele>
<speed>66.3</speed>
<course>184.8</course>
<desc>Speed 66.3 km/h Distance 46.78 km</desc>
<time>2010-08-28T16:13:59.95</time>
<name>1781</name>
</trkpt>
<trkpt lat="49.564590" lon="9.167352">
<ele>552.5</ele>
<speed>68.4</speed>
<course>186.9</course>
<desc>Speed 68.4 km/h Distance 46.80 km</desc>
<time>2010-08-28T16:14:00.94</time>
<name>1782</name>
</trkpt>
<trkpt lat="49.563973" lon="9.167237">
<ele>549.5</ele>
<speed>79.1</speed>
<course>182.5</course>
<desc>Speed 79.1 km/h Distance 46.87 km</desc>
<time>2010-08-28T16:14:03.95</time>
<name>1783</name>
</trkpt>
<trkpt lat="49.563773" lon="9.167223">
<ele>548.5</ele>
<speed>77.9</speed>
<course>183.2</course>
<desc>Speed 77.9 km/h Distance 46.89 km</desc>
<time>2010-08-28T16:14:04.95</time>
<name>1784</name>
</trkpt>
<trkpt lat="49.563578" lon="9.167207">
<ele>548.5</ele>
<speed>76.2</speed>
<course>179.4</course>
<desc>Speed 76.2 km/h Distance 46.91 km</desc>
<time>2010-08-28T16:14:05.95</time>
<name>1785</name>
</trkpt>
<trkpt lat="49.563377" lon="9.167210">
<ele>549.0</ele>
<speed>74.7</speed>
<course>180.6</course>
<desc>Speed 74.7 km/h Distance 46.93 km</desc>
<time>2010-08-28T16:14:06.93</time>
<name>1786</name>
</trkpt>
<trkpt lat="49.563182" lon="9.167207">
<ele>548.5</ele>
<speed>70.6</speed>
<course>185.8</course>
<desc>Speed 70.6 km/h Distance 46.96 km</desc>
<time>2010-08-28T16:14:07.94</time>
<name>1787</name>
</trkpt>
<trkpt lat="49.563012" lon="9.167180">
<ele>550.0</ele>
<speed>66.7</speed>
<course>182.5</course>
<desc>Speed 66.7 km/h Distance 46.97 km</desc>
<time>2010-08-28T16:14:08.93</time>
<name>1788</name>
</trkpt>
<trkpt lat="49.562838" lon="9.167168">
<ele>549.0</ele>
<speed>68.7</speed>
<course>184.8</course>
<desc>Speed 68.7 km/h Distance 46.99 km</desc>
<time>2010-08-28T16:14:09.93</time>
<name>1789</name>
</trkpt>
<trkpt lat="49.562670" lon="9.167147">
<ele>549.0</ele>
<speed>67.2</speed>
<course>189.8</course>
<desc>Speed 67.2 km/h Distance 47.01 km</desc>
<time>2010-08-28T16:14:10.93</time>
<name>1790</name>
</trkpt>
<trkpt lat="49.562495" lon="9.167100">
<ele>549.0</ele>
<speed>70.2</speed>
<course>190.4</course>
<desc>Speed 70.2 km/h Distance 47.03 km</desc>
<time>2010-08-28T16:14:11.94</time>
<name>1791</name>
</trkpt>
<trkpt lat="49.562183" lon="9.167012">
<ele>549.0</ele>
<speed>75.6</speed>
<course>184.9</course>
<desc>Speed 75.6 km/h Distance 47.07 km</desc>
<time>2010-08-28T16:14:13.93</time>
<name>1792</name>
</trkpt>
<trkpt lat="49.562007" lon="9.166988">
<ele>551.5</ele>
<speed>68.6</speed>
<course>178.4</course>
<desc>Speed 68.6 km/h Distance 47.09 km</desc>
<time>2010-08-28T16:14:14.93</time>
<name>1793</name>
</trkpt>
<trkpt lat="49.561847" lon="9.166995">
<ele>552.0</ele>
<speed>68.6</speed>
<course>190.2</course>
<desc>Speed 68.6 km/h Distance 47.11 km</desc>
<time>2010-08-28T16:14:15.94</time>
<name>1794</name>
</trkpt>
<trkpt lat="49.561372" lon="9.166863">
<ele>554.0</ele>
<speed>68.6</speed>
<course>176.0</course>
<desc>Speed 68.6 km/h Distance 47.16 km</desc>
<time>2010-08-28T16:14:21.93</time>
<name>1795</name>
</trkpt>
<trkpt lat="49.560927" lon="9.166912">
<ele>539.0</ele>
<speed>68.6</speed>
<course>186.6</course>
<desc>Speed 68.6 km/h Distance 47.21 km</desc>
<time>2010-08-28T16:14:27.92</time>
<name>1796</name>
</trkpt>
<trkpt lat="49.560617" lon="9.166857">
<ele>527.0</ele>
<speed>68.6</speed>
<course>119.8</course>
<desc>Speed 68.6 km/h Distance 47.24 km</desc>
<time>2010-08-28T16:14:33.92</time>
<name>1797</name>
</trkpt>
<trkpt lat="49.560482" lon="9.167220">
<ele>526.0</ele>
<speed>68.6</speed>
<course>177.1</course>
<desc>Speed 68.6 km/h Distance 47.27 km</desc>
<time>2010-08-28T16:14:39.91</time>
<name>1798</name>
</trkpt>
<trkpt lat="49.560332" lon="9.167232">
<ele>525.5</ele>
<speed>68.6</speed>
<course>175.8</course>
<desc>Speed 68.6 km/h Distance 47.29 km</desc>
<time>2010-08-28T16:14:45.90</time>
<name>1799</name>
</trkpt>
<trkpt lat="49.560038" lon="9.167265">
<ele>525.5</ele>
<speed>68.6</speed>
<course>214.0</course>
<desc>Speed 68.6 km/h Distance 47.32 km</desc>
<time>2010-08-28T16:14:50.91</time>
<name>1800</name>
</trkpt>
<trkpt lat="49.559573" lon="9.166782">
<ele>525.5</ele>
<speed>71.1</speed>
<course>174.3</course>
<desc>Speed 71.1 km/h Distance 47.39 km</desc>
<time>2010-08-28T16:14:53.91</time>
<name>1801</name>
</trkpt>
<trkpt lat="49.559410" lon="9.166807">
<ele>526.0</ele>
<speed>71.1</speed>
<course>210.2</course>
<desc>Speed 71.1 km/h Distance 47.40 km</desc>
<time>2010-08-28T16:14:54.90</time>
<name>1802</name>
</trkpt>
<trkpt lat="49.557935" lon="9.165482">
<ele>525.5</ele>
<speed>58.5</speed>
<course>205.8</course>
<desc>Speed 58.5 km/h Distance 47.59 km</desc>
<time>2010-08-28T16:15:00.89</time>
<name>1803</name>
</trkpt>
<trkpt lat="49.557220" lon="9.164948">
<ele>526.0</ele>
<speed>56.1</speed>
<course>198.8</course>
<desc>Speed 56.1 km/h Distance 47.68 km</desc>
<time>2010-08-28T16:15:04.88</time>
<name>1804</name>
</trkpt>
<trkpt lat="49.556947" lon="9.164805">
<ele>526.0</ele>
<speed>56.1</speed>
<course>156.8</course>
<desc>Speed 56.1 km/h Distance 47.71 km</desc>
<time>2010-08-28T16:15:09.87</time>
<name>1805</name>
</trkpt>
<trkpt lat="49.556858" lon="9.164863">
<ele>526.0</ele>
<speed>56.1</speed>
<course>197.2</course>
<desc>Speed 56.1 km/h Distance 47.72 km</desc>
<time>2010-08-28T16:15:11.87</time>
<name>1806</name>
</trkpt>
<trkpt lat="49.556603" lon="9.164742">
<ele>526.0</ele>
<speed>56.1</speed>
<course>201.8</course>
<desc>Speed 56.1 km/h Distance 47.75 km</desc>
<time>2010-08-28T16:15:15.87</time>
<name>1807</name>
</trkpt>
<trkpt lat="49.555865" lon="9.164287">
<ele>526.0</ele>
<speed>56.1</speed>
<course>217.6</course>
<desc>Speed 56.1 km/h Distance 47.84 km</desc>
<time>2010-08-28T16:15:19.90</time>
<name>1808</name>
</trkpt>
<trkpt lat="49.555580" lon="9.163948">
<ele>525.5</ele>
<speed>56.1</speed>
<course>195.2</course>
<desc>Speed 56.1 km/h Distance 47.88 km</desc>
<time>2010-08-28T16:15:23.90</time>
<name>1809</name>
</trkpt>
<trkpt lat="49.553030" lon="9.162882">
<ele>525.0</ele>
<speed>56.1</speed>
<course>181.9</course>
<desc>Speed 56.1 km/h Distance 48.18 km</desc>
<time>2010-08-28T16:15:42.89</time>
<name>1810</name>
</trkpt>
<trkpt lat="49.552337" lon="9.162847">
<ele>524.5</ele>
<speed>56.1</speed>
<course>200.5</course>
<desc>Speed 56.1 km/h Distance 48.25 km</desc>
<time>2010-08-28T16:15:46.87</time>
<name>1811</name>
</trkpt>
<trkpt lat="49.551333" lon="9.162268">
<ele>524.5</ele>
<speed>49.2</speed>
<course>215.9</course>
<desc>Speed 49.2 km/h Distance 48.37 km</desc>
<time>2010-08-28T16:15:51.88</time>
<name>1812</name>
</trkpt>
<trkpt lat="49.550128" lon="9.160922">
<ele>535.5</ele>
<speed>68.5</speed>
<course>214.9</course>
<desc>Speed 68.5 km/h Distance 48.54 km</desc>
<time>2010-08-28T16:15:57.87</time>
<name>1813</name>
</trkpt>
<trkpt lat="49.549837" lon="9.160608">
<ele>538.5</ele>
<speed>63.2</speed>
<course>227.7</course>
<desc>Speed 63.2 km/h Distance 48.58 km</desc>
<time>2010-08-28T16:15:59.87</time>
<name>1814</name>
</trkpt>
<trkpt lat="49.549650" lon="9.160292">
<ele>540.0</ele>
<speed>58.4</speed>
<course>239.9</course>
<desc>Speed 58.4 km/h Distance 48.61 km</desc>
<time>2010-08-28T16:16:01.87</time>
<name>1815</name>
</trkpt>
<trkpt lat="49.549503" lon="9.159902">
<ele>540.5</ele>
<speed>58.4</speed>
<course>200.1</course>
<desc>Speed 58.4 km/h Distance 48.64 km</desc>
<time>2010-08-28T16:16:04.86</time>
<name>1816</name>
</trkpt>
<trkpt lat="49.549358" lon="9.159820">
<ele>545.5</ele>
<speed>58.4</speed>
<course>231.4</course>
<desc>Speed 58.4 km/h Distance 48.66 km</desc>
<time>2010-08-28T16:16:05.87</time>
<name>1817</name>
</trkpt>
<trkpt lat="49.549160" lon="9.159437">
<ele>548.5</ele>
<speed>54.9</speed>
<course>245.0</course>
<desc>Speed 54.9 km/h Distance 48.70 km</desc>
<time>2010-08-28T16:16:07.87</time>
<name>1818</name>
</trkpt>
<trkpt lat="49.549057" lon="9.159095">
<ele>556.0</ele>
<speed>44.1</speed>
<course>235.8</course>
<desc>Speed 44.1 km/h Distance 48.72 km</desc>
<time>2010-08-28T16:16:09.85</time>
<name>1819</name>
</trkpt>
<trkpt lat="49.549000" lon="9.158967">
<ele>556.0</ele>
<speed>44.1</speed>
<course>239.7</course>
<desc>Speed 44.1 km/h Distance 48.73 km</desc>
<time>2010-08-28T16:16:10.87</time>
<name>1820</name>
</trkpt>
<trkpt lat="49.548883" lon="9.158658">
<ele>559.5</ele>
<speed>44.1</speed>
<course>220.8</course>
<desc>Speed 44.1 km/h Distance 48.76 km</desc>
<time>2010-08-28T16:16:13.85</time>
<name>1821</name>
</trkpt>
<trkpt lat="49.548337" lon="9.157932">
<ele>557.5</ele>
<speed>56.6</speed>
<course>207.3</course>
<desc>Speed 56.6 km/h Distance 48.84 km</desc>
<time>2010-08-28T16:16:17.86</time>
<name>1822</name>
</trkpt>
<trkpt lat="49.548067" lon="9.157717">
<ele>558.0</ele>
<speed>53.4</speed>
<course>204.0</course>
<desc>Speed 53.4 km/h Distance 48.87 km</desc>
<time>2010-08-28T16:16:19.85</time>
<name>1823</name>
</trkpt>
<trkpt lat="49.547950" lon="9.157637">
<ele>557.0</ele>
<speed>53.4</speed>
<course>208.0</course>
<desc>Speed 53.4 km/h Distance 48.89 km</desc>
<time>2010-08-28T16:16:20.86</time>
<name>1824</name>
</trkpt>
<trkpt lat="49.547652" lon="9.157392">
<ele>554.0</ele>
<speed>47.4</speed>
<course>197.8</course>
<desc>Speed 47.4 km/h Distance 48.93 km</desc>
<time>2010-08-28T16:16:23.85</time>
<name>1825</name>
</trkpt>
<trkpt lat="49.547523" lon="9.157328">
<ele>552.0</ele>
<speed>47.3</speed>
<course>201.5</course>
<desc>Speed 47.3 km/h Distance 48.94 km</desc>
<time>2010-08-28T16:16:24.85</time>
<name>1826</name>
</trkpt>
<trkpt lat="49.547277" lon="9.157178">
<ele>551.5</ele>
<speed>56.6</speed>
<course>199.0</course>
<desc>Speed 56.6 km/h Distance 48.97 km</desc>
<time>2010-08-28T16:16:26.83</time>
<name>1827</name>
</trkpt>
<trkpt lat="49.547138" lon="9.157105">
<ele>551.5</ele>
<speed>56.4</speed>
<course>193.0</course>
<desc>Speed 56.4 km/h Distance 48.99 km</desc>
<time>2010-08-28T16:16:27.84</time>
<name>1828</name>
</trkpt>
<trkpt lat="49.546880" lon="9.157013">
<ele>552.5</ele>
<speed>51.5</speed>
<course>191.5</course>
<desc>Speed 51.5 km/h Distance 49.02 km</desc>
<time>2010-08-28T16:16:29.84</time>
<name>1829</name>
</trkpt>
<trkpt lat="49.546683" lon="9.156952">
<ele>552.0</ele>
<speed>51.5</speed>
<course>191.6</course>
<desc>Speed 51.5 km/h Distance 49.04 km</desc>
<time>2010-08-28T16:16:31.83</time>
<name>1830</name>
</trkpt>
<trkpt lat="49.546493" lon="9.156892">
<ele>549.5</ele>
<speed>51.5</speed>
<course>178.2</course>
<desc>Speed 51.5 km/h Distance 49.06 km</desc>
<time>2010-08-28T16:16:33.83</time>
<name>1831</name>
</trkpt>
<trkpt lat="49.546222" lon="9.156905">
<ele>545.0</ele>
<speed>55.6</speed>
<course>172.4</course>
<desc>Speed 55.6 km/h Distance 49.09 km</desc>
<time>2010-08-28T16:16:35.83</time>
<name>1832</name>
</trkpt>
<trkpt lat="49.546100" lon="9.156930">
<ele>544.0</ele>
<speed>55.6</speed>
<course>186.1</course>
<desc>Speed 55.6 km/h Distance 49.10 km</desc>
<time>2010-08-28T16:16:36.83</time>
<name>1833</name>
</trkpt>
<trkpt lat="49.545948" lon="9.156905">
<ele>543.0</ele>
<speed>54.5</speed>
<course>177.6</course>
<desc>Speed 54.5 km/h Distance 49.12 km</desc>
<time>2010-08-28T16:16:37.83</time>
<name>1834</name>
</trkpt>
<trkpt lat="49.545610" lon="9.156927">
<ele>543.5</ele>
<speed>60.4</speed>
<course>170.2</course>
<desc>Speed 60.4 km/h Distance 49.16 km</desc>
<time>2010-08-28T16:16:39.83</time>
<name>1835</name>
</trkpt>
<trkpt lat="49.545447" lon="9.156970">
<ele>542.5</ele>
<speed>59.8</speed>
<course>165.5</course>
<desc>Speed 59.8 km/h Distance 49.18 km</desc>
<time>2010-08-28T16:16:40.83</time>
<name>1836</name>
</trkpt>
<trkpt lat="49.545247" lon="9.157050">
<ele>546.0</ele>
<speed>55.9</speed>
<course>170.7</course>
<desc>Speed 55.9 km/h Distance 49.20 km</desc>
<time>2010-08-28T16:16:42.20</time>
<name>1837</name>
</trkpt>
<trkpt lat="49.544870" lon="9.157145">
<ele>546.5</ele>
<speed>55.2</speed>
<course>199.0</course>
<desc>Speed 55.2 km/h Distance 49.24 km</desc>
<time>2010-08-28T16:16:44.84</time>
<name>1838</name>
</trkpt>
<trkpt lat="49.544582" lon="9.156992">
<ele>552.0</ele>
<speed>41.8</speed>
<course>222.8</course>
<desc>Speed 41.8 km/h Distance 49.28 km</desc>
<time>2010-08-28T16:16:48.82</time>
<name>1839</name>
</trkpt>
<trkpt lat="49.544512" lon="9.156892">
<ele>553.5</ele>
<speed>41.8</speed>
<course>225.7</course>
<desc>Speed 41.8 km/h Distance 49.29 km</desc>
<time>2010-08-28T16:16:49.81</time>
<name>1840</name>
</trkpt>
<trkpt lat="49.544377" lon="9.156678">
<ele>550.0</ele>
<speed>32.1</speed>
<course>220.4</course>
<desc>Speed 32.1 km/h Distance 49.31 km</desc>
<time>2010-08-28T16:16:51.81</time>
<name>1841</name>
</trkpt>
<trkpt lat="49.544083" lon="9.156293">
<ele>549.0</ele>
<speed>43.0</speed>
<course>224.4</course>
<desc>Speed 43.0 km/h Distance 49.35 km</desc>
<time>2010-08-28T16:16:54.81</time>
<name>1842</name>
</trkpt>
<trkpt lat="49.544002" lon="9.156170">
<ele>547.5</ele>
<speed>43.0</speed>
<course>209.2</course>
<desc>Speed 43.0 km/h Distance 49.36 km</desc>
<time>2010-08-28T16:16:55.80</time>
<name>1843</name>
</trkpt>
<trkpt lat="49.543917" lon="9.156097">
<ele>544.0</ele>
<speed>43.0</speed>
<course>200.0</course>
<desc>Speed 43.0 km/h Distance 49.37 km</desc>
<time>2010-08-28T16:16:56.81</time>
<name>1844</name>
</trkpt>
<trkpt lat="49.543750" lon="9.156003">
<ele>536.0</ele>
<speed>43.0</speed>
<course>202.3</course>
<desc>Speed 43.0 km/h Distance 49.39 km</desc>
<time>2010-08-28T16:16:59.81</time>
<name>1845</name>
</trkpt>
<trkpt lat="49.543518" lon="9.155857">
<ele>541.0</ele>
<speed>43.0</speed>
<course>196.2</course>
<desc>Speed 43.0 km/h Distance 49.42 km</desc>
<time>2010-08-28T16:17:03.80</time>
<name>1846</name>
</trkpt>
<trkpt lat="49.543425" lon="9.155815">
<ele>543.5</ele>
<speed>43.0</speed>
<course>210.0</course>
<desc>Speed 43.0 km/h Distance 49.43 km</desc>
<time>2010-08-28T16:17:04.80</time>
<name>1847</name>
</trkpt>
<trkpt lat="49.543243" lon="9.155653">
<ele>542.0</ele>
<speed>40.2</speed>
<course>195.9</course>
<desc>Speed 40.2 km/h Distance 49.46 km</desc>
<time>2010-08-28T16:17:06.80</time>
<name>1848</name>
</trkpt>
<trkpt lat="49.542875" lon="9.155492">
<ele>532.0</ele>
<speed>40.1</speed>
<course>177.2</course>
<desc>Speed 40.1 km/h Distance 49.50 km</desc>
<time>2010-08-28T16:17:09.79</time>
<name>1849</name>
</trkpt>
<trkpt lat="49.542788" lon="9.155498">
<ele>532.5</ele>
<speed>40.1</speed>
<course>181.8</course>
<desc>Speed 40.1 km/h Distance 49.51 km</desc>
<time>2010-08-28T16:17:10.80</time>
<name>1850</name>
</trkpt>
<trkpt lat="49.542617" lon="9.155490">
<ele>537.0</ele>
<speed>40.1</speed>
<course>195.8</course>
<desc>Speed 40.1 km/h Distance 49.53 km</desc>
<time>2010-08-28T16:17:13.79</time>
<name>1851</name>
</trkpt>
<trkpt lat="49.542012" lon="9.155227">
<ele>551.5</ele>
<speed>60.7</speed>
<course>210.2</course>
<desc>Speed 60.7 km/h Distance 49.60 km</desc>
<time>2010-08-28T16:17:17.78</time>
<name>1852</name>
</trkpt>
<trkpt lat="49.541757" lon="9.154998">
<ele>570.5</ele>
<speed>60.7</speed>
<course>197.4</course>
<desc>Speed 60.7 km/h Distance 49.63 km</desc>
<time>2010-08-28T16:17:19.78</time>
<name>1853</name>
</trkpt>
<trkpt lat="49.541425" lon="9.154838">
<ele>572.5</ele>
<speed>60.7</speed>
<course>185.4</course>
<desc>Speed 60.7 km/h Distance 49.67 km</desc>
<time>2010-08-28T16:17:24.78</time>
<name>1854</name>
</trkpt>
<trkpt lat="49.541125" lon="9.154795">
<ele>553.0</ele>
<speed>60.7</speed>
<course>164.2</course>
<desc>Speed 60.7 km/h Distance 49.70 km</desc>
<time>2010-08-28T16:17:30.78</time>
<name>1855</name>
</trkpt>
<trkpt lat="49.540442" lon="9.155093">
<ele>555.0</ele>
<speed>7.7</speed>
<course>189.3</course>
<desc>Speed 7.7 km/h Distance 49.78 km</desc>
<time>2010-08-28T16:17:35.77</time>
<name>1856</name>
</trkpt>
<trkpt lat="49.540118" lon="9.155012">
<ele>561.0</ele>
<speed>32.6</speed>
<course>207.1</course>
<desc>Speed 32.6 km/h Distance 49.82 km</desc>
<time>2010-08-28T16:17:39.77</time>
<name>1857</name>
</trkpt>
<trkpt lat="49.540055" lon="9.154962">
<ele>561.0</ele>
<speed>32.6</speed>
<course>215.1</course>
<desc>Speed 32.6 km/h Distance 49.83 km</desc>
<time>2010-08-28T16:17:40.77</time>
<name>1858</name>
</trkpt>
<trkpt lat="49.539953" lon="9.154852">
<ele>561.0</ele>
<speed>32.6</speed>
<course>219.7</course>
<desc>Speed 32.6 km/h Distance 49.84 km</desc>
<time>2010-08-28T16:17:42.76</time>
<name>1859</name>
</trkpt>
<trkpt lat="49.539833" lon="9.154698">
<ele>559.0</ele>
<speed>32.6</speed>
<course>267.1</course>
<desc>Speed 32.6 km/h Distance 49.86 km</desc>
<time>2010-08-28T16:17:44.76</time>
<name>1860</name>
</trkpt>
<trkpt lat="49.539810" lon="9.153988">
<ele>559.0</ele>
<speed>32.6</speed>
<course>251.5</course>
<desc>Speed 32.6 km/h Distance 49.91 km</desc>
<time>2010-08-28T16:17:48.76</time>
<name>1861</name>
</trkpt>
<trkpt lat="49.539552" lon="9.152798">
<ele>559.5</ele>
<speed>32.6</speed>
<course>228.5</course>
<desc>Speed 32.6 km/h Distance 50.00 km</desc>
<time>2010-08-28T16:17:53.74</time>
<name>1862</name>
</trkpt>
<trkpt lat="49.539322" lon="9.152398">
<ele>561.5</ele>
<speed>32.6</speed>
<course>257.8</course>
<desc>Speed 32.6 km/h Distance 50.04 km</desc>
<time>2010-08-28T16:17:57.74</time>
<name>1863</name>
</trkpt>
<trkpt lat="49.539098" lon="9.150800">
<ele>566.0</ele>
<speed>32.6</speed>
<course>294.5</course>
<desc>Speed 32.6 km/h Distance 50.16 km</desc>
<time>2010-08-28T16:18:02.74</time>
<name>1864</name>
</trkpt>
<trkpt lat="49.539150" lon="9.150625">
<ele>567.0</ele>
<speed>32.6</speed>
<course>286.2</course>
<desc>Speed 32.6 km/h Distance 50.17 km</desc>
<time>2010-08-28T16:18:04.73</time>
<name>1865</name>
</trkpt>
<trkpt lat="49.539425" lon="9.149162">
<ele>564.0</ele>
<speed>51.5</speed>
<course>312.6</course>
<desc>Speed 51.5 km/h Distance 50.28 km</desc>
<time>2010-08-28T16:18:10.73</time>
<name>1866</name>
</trkpt>
<trkpt lat="49.539637" lon="9.148807">
<ele>567.5</ele>
<speed>63.4</speed>
<course>311.2</course>
<desc>Speed 63.4 km/h Distance 50.31 km</desc>
<time>2010-08-28T16:18:12.73</time>
<name>1867</name>
</trkpt>
<trkpt lat="49.539740" lon="9.148625">
<ele>567.5</ele>
<speed>59.4</speed>
<course>313.6</course>
<desc>Speed 59.4 km/h Distance 50.33 km</desc>
<time>2010-08-28T16:18:13.72</time>
<name>1868</name>
</trkpt>
<trkpt lat="49.539845" lon="9.148455">
<ele>567.5</ele>
<speed>59.2</speed>
<course>300.5</course>
<desc>Speed 59.2 km/h Distance 50.35 km</desc>
<time>2010-08-28T16:18:14.73</time>
<name>1869</name>
</trkpt>
<trkpt lat="49.539928" lon="9.148237">
<ele>567.0</ele>
<speed>59.5</speed>
<course>304.4</course>
<desc>Speed 59.5 km/h Distance 50.37 km</desc>
<time>2010-08-28T16:18:15.72</time>
<name>1870</name>
</trkpt>
<trkpt lat="49.540083" lon="9.147888">
<ele>568.5</ele>
<speed>59.9</speed>
<course>309.0</course>
<desc>Speed 59.9 km/h Distance 50.40 km</desc>
<time>2010-08-28T16:18:17.73</time>
<name>1871</name>
</trkpt>
<trkpt lat="49.540187" lon="9.147692">
<ele>569.0</ele>
<speed>60.4</speed>
<course>308.7</course>
<desc>Speed 60.4 km/h Distance 50.42 km</desc>
<time>2010-08-28T16:18:18.73</time>
<name>1872</name>
</trkpt>
<trkpt lat="49.540275" lon="9.147522">
<ele>568.0</ele>
<speed>60.4</speed>
<course>306.1</course>
<desc>Speed 60.4 km/h Distance 50.43 km</desc>
<time>2010-08-28T16:18:19.72</time>
<name>1873</name>
</trkpt>
<trkpt lat="49.540362" lon="9.147338">
<ele>567.5</ele>
<speed>56.6</speed>
<course>311.7</course>
<desc>Speed 56.6 km/h Distance 50.45 km</desc>
<time>2010-08-28T16:18:20.73</time>
<name>1874</name>
</trkpt>
<trkpt lat="49.540467" lon="9.147157">
<ele>567.0</ele>
<speed>59.5</speed>
<course>312.1</course>
<desc>Speed 59.5 km/h Distance 50.47 km</desc>
<time>2010-08-28T16:18:21.73</time>
<name>1875</name>
</trkpt>
<trkpt lat="49.540618" lon="9.146898">
<ele>566.5</ele>
<speed>59.5</speed>
<course>305.6</course>
<desc>Speed 59.5 km/h Distance 50.49 km</desc>
<time>2010-08-28T16:18:23.73</time>
<name>1876</name>
</trkpt>
<trkpt lat="49.540780" lon="9.146550">
<ele>566.0</ele>
<speed>64.3</speed>
<course>305.8</course>
<desc>Speed 64.3 km/h Distance 50.52 km</desc>
<time>2010-08-28T16:18:25.72</time>
<name>1877</name>
</trkpt>
<trkpt lat="49.540867" lon="9.146365">
<ele>566.0</ele>
<speed>64.3</speed>
<course>302.3</course>
<desc>Speed 64.3 km/h Distance 50.54 km</desc>
<time>2010-08-28T16:18:26.71</time>
<name>1878</name>
</trkpt>
<trkpt lat="49.541020" lon="9.145992">
<ele>566.0</ele>
<speed>64.5</speed>
<course>284.9</course>
<desc>Speed 64.5 km/h Distance 50.57 km</desc>
<time>2010-08-28T16:18:28.72</time>
<name>1879</name>
</trkpt>
<trkpt lat="49.541087" lon="9.145607">
<ele>565.5</ele>
<speed>54.4</speed>
<course>285.7</course>
<desc>Speed 54.4 km/h Distance 50.60 km</desc>
<time>2010-08-28T16:18:30.72</time>
<name>1880</name>
</trkpt>
<trkpt lat="49.541158" lon="9.145213">
<ele>564.0</ele>
<speed>54.4</speed>
<course>284.2</course>
<desc>Speed 54.4 km/h Distance 50.63 km</desc>
<time>2010-08-28T16:18:32.71</time>
<name>1881</name>
</trkpt>
<trkpt lat="49.541432" lon="9.143552">
<ele>571.0</ele>
<speed>86.1</speed>
<course>295.7</course>
<desc>Speed 86.1 km/h Distance 50.75 km</desc>
<time>2010-08-28T16:18:37.71</time>
<name>1882</name>
</trkpt>
<trkpt lat="49.541532" lon="9.143232">
<ele>573.5</ele>
<speed>88.4</speed>
<course>297.6</course>
<desc>Speed 88.4 km/h Distance 50.78 km</desc>
<time>2010-08-28T16:18:38.71</time>
<name>1883</name>
</trkpt>
<trkpt lat="49.541638" lon="9.142917">
<ele>575.0</ele>
<speed>90.3</speed>
<course>299.8</course>
<desc>Speed 90.3 km/h Distance 50.80 km</desc>
<time>2010-08-28T16:18:39.71</time>
<name>1884</name>
</trkpt>
<trkpt lat="49.541755" lon="9.142603">
<ele>575.5</ele>
<speed>90.5</speed>
<course>299.0</course>
<desc>Speed 90.5 km/h Distance 50.83 km</desc>
<time>2010-08-28T16:18:40.71</time>
<name>1885</name>
</trkpt>
<trkpt lat="49.541868" lon="9.142288">
<ele>576.0</ele>
<speed>93.2</speed>
<course>301.3</course>
<desc>Speed 93.2 km/h Distance 50.86 km</desc>
<time>2010-08-28T16:18:41.70</time>
<name>1886</name>
</trkpt>
<trkpt lat="49.542085" lon="9.141738">
<ele>576.5</ele>
<speed>87.8</speed>
<course>302.3</course>
<desc>Speed 87.8 km/h Distance 50.90 km</desc>
<time>2010-08-28T16:18:43.70</time>
<name>1887</name>
</trkpt>
<trkpt lat="49.542315" lon="9.141178">
<ele>576.5</ele>
<speed>94.7</speed>
<course>302.3</course>
<desc>Speed 94.7 km/h Distance 50.95 km</desc>
<time>2010-08-28T16:18:45.70</time>
<name>1888</name>
</trkpt>
<trkpt lat="49.542580" lon="9.140532">
<ele>578.5</ele>
<speed>91.7</speed>
<course>305.2</course>
<desc>Speed 91.7 km/h Distance 51.01 km</desc>
<time>2010-08-28T16:18:47.69</time>
<name>1889</name>
</trkpt>
<trkpt lat="49.542872" lon="9.139893">
<ele>579.5</ele>
<speed>95.1</speed>
<course>305.2</course>
<desc>Speed 95.1 km/h Distance 51.06 km</desc>
<time>2010-08-28T16:18:49.69</time>
<name>1890</name>
</trkpt>
<trkpt lat="49.543172" lon="9.139238">
<ele>580.0</ele>
<speed>95.5</speed>
<course>297.3</course>
<desc>Speed 95.5 km/h Distance 51.12 km</desc>
<time>2010-08-28T16:18:51.70</time>
<name>1891</name>
</trkpt>
<trkpt lat="49.543373" lon="9.138635">
<ele>581.5</ele>
<speed>96.1</speed>
<course>283.0</course>
<desc>Speed 96.1 km/h Distance 51.17 km</desc>
<time>2010-08-28T16:18:53.69</time>
<name>1892</name>
</trkpt>
<trkpt lat="49.543428" lon="9.138267">
<ele>582.0</ele>
<speed>96.1</speed>
<course>287.3</course>
<desc>Speed 96.1 km/h Distance 51.20 km</desc>
<time>2010-08-28T16:18:54.69</time>
<name>1893</name>
</trkpt>
<trkpt lat="49.543590" lon="9.137467">
<ele>582.5</ele>
<speed>93.7</speed>
<course>296.2</course>
<desc>Speed 93.7 km/h Distance 51.26 km</desc>
<time>2010-08-28T16:18:56.69</time>
<name>1894</name>
</trkpt>
<trkpt lat="49.543695" lon="9.137138">
<ele>584.0</ele>
<speed>89.7</speed>
<course>291.0</course>
<desc>Speed 89.7 km/h Distance 51.28 km</desc>
<time>2010-08-28T16:18:57.69</time>
<name>1895</name>
</trkpt>
<trkpt lat="49.543770" lon="9.136837">
<ele>582.0</ele>
<speed>89.7</speed>
<course>297.6</course>
<desc>Speed 89.7 km/h Distance 51.31 km</desc>
<time>2010-08-28T16:18:58.69</time>
<name>1896</name>
</trkpt>
<trkpt lat="49.543975" lon="9.136233">
<ele>578.5</ele>
<speed>91.1</speed>
<course>303.1</course>
<desc>Speed 91.1 km/h Distance 51.36 km</desc>
<time>2010-08-28T16:19:00.68</time>
<name>1897</name>
</trkpt>
<trkpt lat="49.544100" lon="9.135938">
<ele>578.0</ele>
<speed>89.0</speed>
<course>300.3</course>
<desc>Speed 89.0 km/h Distance 51.38 km</desc>
<time>2010-08-28T16:19:01.68</time>
<name>1898</name>
</trkpt>
<trkpt lat="49.544212" lon="9.135643">
<ele>578.5</ele>
<speed>87.4</speed>
<course>301.4</course>
<desc>Speed 87.4 km/h Distance 51.41 km</desc>
<time>2010-08-28T16:19:02.68</time>
<name>1899</name>
</trkpt>
<trkpt lat="49.544327" lon="9.135353">
<ele>578.5</ele>
<speed>85.5</speed>
<course>302.6</course>
<desc>Speed 85.5 km/h Distance 51.43 km</desc>
<time>2010-08-28T16:19:03.68</time>
<name>1900</name>
</trkpt>
<trkpt lat="49.544442" lon="9.135077">
<ele>578.0</ele>
<speed>83.0</speed>
<course>307.3</course>
<desc>Speed 83.0 km/h Distance 51.45 km</desc>
<time>2010-08-28T16:19:04.68</time>
<name>1901</name>
</trkpt>
<trkpt lat="49.544575" lon="9.134807">
<ele>578.0</ele>
<speed>86.1</speed>
<course>299.6</course>
<desc>Speed 86.1 km/h Distance 51.48 km</desc>
<time>2010-08-28T16:19:05.67</time>
<name>1902</name>
</trkpt>
<trkpt lat="49.544678" lon="9.134527">
<ele>578.0</ele>
<speed>83.0</speed>
<course>290.2</course>
<desc>Speed 83.0 km/h Distance 51.50 km</desc>
<time>2010-08-28T16:19:06.68</time>
<name>1903</name>
</trkpt>
<trkpt lat="49.544750" lon="9.134227">
<ele>575.5</ele>
<speed>82.5</speed>
<course>293.2</course>
<desc>Speed 82.5 km/h Distance 51.53 km</desc>
<time>2010-08-28T16:19:07.68</time>
<name>1904</name>
</trkpt>
<trkpt lat="49.544902" lon="9.133680">
<ele>575.5</ele>
<speed>83.9</speed>
<course>289.2</course>
<desc>Speed 83.9 km/h Distance 51.57 km</desc>
<time>2010-08-28T16:19:09.67</time>
<name>1905</name>
</trkpt>
<trkpt lat="49.545120" lon="9.132715">
<ele>572.5</ele>
<speed>83.9</speed>
<course>292.7</course>
<desc>Speed 83.9 km/h Distance 51.64 km</desc>
<time>2010-08-28T16:19:15.67</time>
<name>1906</name>
</trkpt>
<trkpt lat="49.545370" lon="9.131793">
<ele>572.5</ele>
<speed>83.9</speed>
<course>311.3</course>
<desc>Speed 83.9 km/h Distance 51.71 km</desc>
<time>2010-08-28T16:19:17.66</time>
<name>1907</name>
</trkpt>
<trkpt lat="49.546408" lon="9.129970">
<ele>574.0</ele>
<speed>83.9</speed>
<course>331.3</course>
<desc>Speed 83.9 km/h Distance 51.89 km</desc>
<time>2010-08-28T16:19:24.65</time>
<name>1908</name>
</trkpt>
<trkpt lat="49.546853" lon="9.129595">
<ele>572.0</ele>
<speed>83.9</speed>
<course>336.4</course>
<desc>Speed 83.9 km/h Distance 51.95 km</desc>
<time>2010-08-28T16:19:26.65</time>
<name>1909</name>
</trkpt>
<trkpt lat="49.547302" lon="9.129293">
<ele>573.5</ele>
<speed>83.9</speed>
<course>311.4</course>
<desc>Speed 83.9 km/h Distance 52.00 km</desc>
<time>2010-08-28T16:19:28.65</time>
<name>1910</name>
</trkpt>
<trkpt lat="49.547643" lon="9.128695">
<ele>574.5</ele>
<speed>83.9</speed>
<course>325.6</course>
<desc>Speed 83.9 km/h Distance 52.06 km</desc>
<time>2010-08-28T16:19:33.65</time>
<name>1911</name>
</trkpt>
<trkpt lat="49.548858" lon="9.127412">
<ele>575.5</ele>
<speed>117</speed>
<course>330.5</course>
<desc>Speed 117 km/h Distance 52.22 km</desc>
<time>2010-08-28T16:19:38.63</time>
<name>1912</name>
</trkpt>
<trkpt lat="49.549750" lon="9.126635">
<ele>575.5</ele>
<speed>117</speed>
<course>310.9</course>
<desc>Speed 117 km/h Distance 52.34 km</desc>
<time>2010-08-28T16:19:43.62</time>
<name>1913</name>
</trkpt>
<trkpt lat="49.550413" lon="9.125457">
<ele>574.5</ele>
<speed>88.2</speed>
<course>333.8</course>
<desc>Speed 88.2 km/h Distance 52.45 km</desc>
<time>2010-08-28T16:19:47.63</time>
<name>1914</name>
</trkpt>
<trkpt lat="49.551297" lon="9.124787">
<ele>574.0</ele>
<speed>88.2</speed>
<course>288.1</course>
<desc>Speed 88.2 km/h Distance 52.56 km</desc>
<time>2010-08-28T16:19:51.62</time>
<name>1915</name>
</trkpt>
<trkpt lat="49.551690" lon="9.122927">
<ele>573.5</ele>
<speed>88.2</speed>
<course>268.0</course>
<desc>Speed 88.2 km/h Distance 52.70 km</desc>
<time>2010-08-28T16:19:54.62</time>
<name>1916</name>
</trkpt>
<trkpt lat="49.551677" lon="9.122333">
<ele>572.5</ele>
<speed>88.2</speed>
<course>278.8</course>
<desc>Speed 88.2 km/h Distance 52.74 km</desc>
<time>2010-08-28T16:19:56.62</time>
<name>1917</name>
</trkpt>
<trkpt lat="49.551772" lon="9.121390">
<ele>572.0</ele>
<speed>63.4</speed>
<course>284.6</course>
<desc>Speed 63.4 km/h Distance 52.81 km</desc>
<time>2010-08-28T16:20:00.62</time>
<name>1918</name>
</trkpt>
<trkpt lat="49.551842" lon="9.120975">
<ele>571.5</ele>
<speed>63.4</speed>
<course>267.3</course>
<desc>Speed 63.4 km/h Distance 52.84 km</desc>
<time>2010-08-28T16:20:02.61</time>
<name>1919</name>
</trkpt>
<trkpt lat="49.551827" lon="9.120490">
<ele>572.0</ele>
<speed>63.4</speed>
<course>257.1</course>
<desc>Speed 63.4 km/h Distance 52.88 km</desc>
<time>2010-08-28T16:20:05.61</time>
<name>1920</name>
</trkpt>
<trkpt lat="49.551787" lon="9.120220">
<ele>571.5</ele>
<speed>16.2</speed>
<course>241.2</course>
<desc>Speed 16.2 km/h Distance 52.90 km</desc>
<time>2010-08-28T16:20:10.62</time>
<name>1921</name>
</trkpt>
<trkpt lat="49.551770" lon="9.120173">
<ele>571.5</ele>
<speed>16.2</speed>
<course>125.3</course>
<desc>Speed 16.2 km/h Distance 52.90 km</desc>
<time>2010-08-28T16:20:12.61</time>
<name>1922</name>
</trkpt>
<trkpt lat="49.551742" lon="9.120235">
<ele>571.5</ele>
<speed>16.2</speed>
<course>131.1</course>
<desc>Speed 16.2 km/h Distance 52.91 km</desc>
<time>2010-08-28T16:20:13.61</time>
<name>1923</name>
</trkpt>
<trkpt lat="49.550005" lon="9.123307">
<ele>570.0</ele>
<speed>85.6</speed>
<course>138.1</course>
<desc>Speed 85.6 km/h Distance 53.20 km</desc>
<time>2010-08-28T16:20:26.59</time>
<name>1924</name>
</trkpt>
<trkpt lat="49.549217" lon="9.124398">
<ele>569.5</ele>
<speed>85.6</speed>
<course>150.1</course>
<desc>Speed 85.6 km/h Distance 53.32 km</desc>
<time>2010-08-28T16:20:30.58</time>
<name>1925</name>
</trkpt>
<trkpt lat="49.548788" lon="9.124778">
<ele>569.5</ele>
<speed>82.7</speed>
<course>143.8</course>
<desc>Speed 82.7 km/h Distance 53.37 km</desc>
<time>2010-08-28T16:20:32.60</time>
<name>1926</name>
</trkpt>
<trkpt lat="49.548287" lon="9.125343">
<ele>569.5</ele>
<speed>82.7</speed>
<course>135.1</course>
<desc>Speed 82.7 km/h Distance 53.44 km</desc>
<time>2010-08-28T16:20:38.60</time>
<name>1927</name>
</trkpt>
<trkpt lat="49.547870" lon="9.125983">
<ele>569.5</ele>
<speed>79.5</speed>
<course>139.4</course>
<desc>Speed 79.5 km/h Distance 53.51 km</desc>
<time>2010-08-28T16:20:42.58</time>
<name>1928</name>
</trkpt>
<trkpt lat="49.547525" lon="9.126438">
<ele>569.5</ele>
<speed>79.5</speed>
<course>177.2</course>
<desc>Speed 79.5 km/h Distance 53.56 km</desc>
<time>2010-08-28T16:20:45.59</time>
<name>1929</name>
</trkpt>
<trkpt lat="49.546925" lon="9.126483">
<ele>569.5</ele>
<speed>79.5</speed>
<course>174.6</course>
<desc>Speed 79.5 km/h Distance 53.63 km</desc>
<time>2010-08-28T16:20:50.55</time>
<name>1930</name>
</trkpt>
<trkpt lat="49.545348" lon="9.126712">
<ele>569.5</ele>
<speed>79.1</speed>
<course>158.9</course>
<desc>Speed 79.1 km/h Distance 53.80 km</desc>
<time>2010-08-28T16:20:55.56</time>
<name>1931</name>
</trkpt>
<trkpt lat="49.544715" lon="9.127088">
<ele>569.5</ele>
<speed>79.1</speed>
<course>164.6</course>
<desc>Speed 79.1 km/h Distance 53.88 km</desc>
<time>2010-08-28T16:20:58.57</time>
<name>1932</name>
</trkpt>
<trkpt lat="49.544195" lon="9.127308">
<ele>569.5</ele>
<speed>43.4</speed>
<course>191.3</course>
<desc>Speed 43.4 km/h Distance 53.94 km</desc>
<time>2010-08-28T16:21:03.56</time>
<name>1933</name>
</trkpt>
<trkpt lat="49.544033" lon="9.127258">
<ele>569.5</ele>
<speed>43.4</speed>
<course>264.9</course>
<desc>Speed 43.4 km/h Distance 53.96 km</desc>
<time>2010-08-28T16:21:06.56</time>
<name>1934</name>
</trkpt>
<trkpt lat="49.543980" lon="9.126335">
<ele>569.5</ele>
<speed>43.4</speed>
<course>285.8</course>
<desc>Speed 43.4 km/h Distance 54.02 km</desc>
<time>2010-08-28T16:21:09.56</time>
<name>1935</name>
</trkpt>
<trkpt lat="49.544072" lon="9.125837">
<ele>569.5</ele>
<speed>43.4</speed>
<course>280.7</course>
<desc>Speed 43.4 km/h Distance 54.06 km</desc>
<time>2010-08-28T16:21:13.55</time>
<name>1936</name>
</trkpt>
<trkpt lat="49.544108" lon="9.125537">
<ele>569.5</ele>
<speed>43.4</speed>
<course>269.2</course>
<desc>Speed 43.4 km/h Distance 54.08 km</desc>
<time>2010-08-28T16:21:15.55</time>
<name>1937</name>
</trkpt>
<trkpt lat="49.544107" lon="9.125345">
<ele>569.5</ele>
<speed>43.4</speed>
<course>313.2</course>
<desc>Speed 43.4 km/h Distance 54.10 km</desc>
<time>2010-08-28T16:21:16.55</time>
<name>1938</name>
</trkpt>
<trkpt lat="49.545050" lon="9.123798">
<ele>569.5</ele>
<speed>84.5</speed>
<course>303.7</course>
<desc>Speed 84.5 km/h Distance 54.25 km</desc>
<time>2010-08-28T16:21:21.55</time>
<name>1939</name>
</trkpt>
<trkpt lat="49.545272" lon="9.123287">
<ele>569.5</ele>
<speed>84.5</speed>
<course>287.5</course>
<desc>Speed 84.5 km/h Distance 54.29 km</desc>
<time>2010-08-28T16:21:23.56</time>
<name>1940</name>
</trkpt>
<trkpt lat="49.545333" lon="9.122985">
<ele>569.5</ele>
<speed>84.5</speed>
<course>305.0</course>
<desc>Speed 84.5 km/h Distance 54.32 km</desc>
<time>2010-08-28T16:21:24.56</time>
<name>1941</name>
</trkpt>
<trkpt lat="49.546120" lon="9.121253">
<ele>569.5</ele>
<speed>76.0</speed>
<course>316.8</course>
<desc>Speed 76.0 km/h Distance 54.47 km</desc>
<time>2010-08-28T16:21:29.55</time>
<name>1942</name>
</trkpt>
<trkpt lat="49.547165" lon="9.119742">
<ele>569.0</ele>
<speed>73.8</speed>
<course>321.3</course>
<desc>Speed 73.8 km/h Distance 54.63 km</desc>
<time>2010-08-28T16:21:33.54</time>
<name>1943</name>
</trkpt>
<trkpt lat="49.547533" lon="9.119287">
<ele>567.5</ele>
<speed>71.7</speed>
<course>246.8</course>
<desc>Speed 71.7 km/h Distance 54.68 km</desc>
<time>2010-08-28T16:21:36.53</time>
<name>1944</name>
</trkpt>
<trkpt lat="49.547462" lon="9.119028">
<ele>567.5</ele>
<speed>71.7</speed>
<course>290.9</course>
<desc>Speed 71.7 km/h Distance 54.70 km</desc>
<time>2010-08-28T16:21:37.53</time>
<name>1945</name>
</trkpt>
<trkpt lat="49.547838" lon="9.117512">
<ele>567.5</ele>
<speed>71.7</speed>
<course>251.6</course>
<desc>Speed 71.7 km/h Distance 54.82 km</desc>
<time>2010-08-28T16:21:52.51</time>
<name>1946</name>
</trkpt>
<trkpt lat="49.547392" lon="9.115442">
<ele>566.5</ele>
<speed>71.7</speed>
<course>246.0</course>
<desc>Speed 71.7 km/h Distance 54.98 km</desc>
<time>2010-08-28T16:21:58.52</time>
<name>1947</name>
</trkpt>
<trkpt lat="49.547308" lon="9.115153">
<ele>566.5</ele>
<speed>71.7</speed>
<course>246.7</course>
<desc>Speed 71.7 km/h Distance 55.00 km</desc>
<time>2010-08-28T16:22:01.52</time>
<name>1948</name>
</trkpt>
<trkpt lat="49.547140" lon="9.114550">
<ele>566.5</ele>
<speed>71.7</speed>
<course>213.4</course>
<desc>Speed 71.7 km/h Distance 55.05 km</desc>
<time>2010-08-28T16:22:04.52</time>
<name>1949</name>
</trkpt>
<trkpt lat="49.543298" lon="9.110645">
<ele>565.5</ele>
<speed>74.4</speed>
<course>219.1</course>
<desc>Speed 74.4 km/h Distance 55.56 km</desc>
<time>2010-08-28T16:22:28.52</time>
<name>1950</name>
</trkpt>
<trkpt lat="49.542045" lon="9.109075">
<ele>565.0</ele>
<speed>74.4</speed>
<course>216.3</course>
<desc>Speed 74.4 km/h Distance 55.74 km</desc>
<time>2010-08-28T16:22:34.52</time>
<name>1951</name>
</trkpt>
<trkpt lat="49.541753" lon="9.108745">
<ele>565.0</ele>
<speed>74.4</speed>
<course>212.8</course>
<desc>Speed 74.4 km/h Distance 55.78 km</desc>
<time>2010-08-28T16:22:36.51</time>
<name>1952</name>
</trkpt>
<trkpt lat="49.541497" lon="9.108490">
<ele>565.0</ele>
<speed>74.4</speed>
<course>223.9</course>
<desc>Speed 74.4 km/h Distance 55.81 km</desc>
<time>2010-08-28T16:22:38.52</time>
<name>1953</name>
</trkpt>
<trkpt lat="49.541368" lon="9.108300">
<ele>565.0</ele>
<speed>74.4</speed>
<course>220.9</course>
<desc>Speed 74.4 km/h Distance 55.83 km</desc>
<time>2010-08-28T16:22:39.50</time>
<name>1954</name>
</trkpt>
<trkpt lat="49.540938" lon="9.107725">
<ele>565.0</ele>
<speed>74.4</speed>
<course>202.9</course>
<desc>Speed 74.4 km/h Distance 55.90 km</desc>
<time>2010-08-28T16:22:44.51</time>
<name>1955</name>
</trkpt>
<trkpt lat="49.540518" lon="9.107452">
<ele>565.0</ele>
<speed>74.4</speed>
<course>190.0</course>
<desc>Speed 74.4 km/h Distance 55.95 km</desc>
<time>2010-08-28T16:22:48.51</time>
<name>1956</name>
</trkpt>
<trkpt lat="49.540395" lon="9.107418">
<ele>565.0</ele>
<speed>74.4</speed>
<course>197.5</course>
<desc>Speed 74.4 km/h Distance 55.96 km</desc>
<time>2010-08-28T16:22:54.49</time>
<name>1957</name>
</trkpt>
<trkpt lat="49.538167" lon="9.106335">
<ele>564.0</ele>
<speed>74.4</speed>
<course>260.4</course>
<desc>Speed 74.4 km/h Distance 56.22 km</desc>
<time>2010-08-28T16:23:01.49</time>
<name>1958</name>
</trkpt>
<trkpt lat="49.538073" lon="9.105488">
<ele>564.0</ele>
<speed>74.4</speed>
<course>254.4</course>
<desc>Speed 74.4 km/h Distance 56.28 km</desc>
<time>2010-08-28T16:23:04.48</time>
<name>1959</name>
</trkpt>
<trkpt lat="49.537983" lon="9.104992">
<ele>564.0</ele>
<speed>74.4</speed>
<course>257.7</course>
<desc>Speed 74.4 km/h Distance 56.32 km</desc>
<time>2010-08-28T16:23:06.48</time>
<name>1960</name>
</trkpt>
<trkpt lat="49.537773" lon="9.103503">
<ele>564.0</ele>
<speed>74.4</speed>
<course>290.0</course>
<desc>Speed 74.4 km/h Distance 56.43 km</desc>
<time>2010-08-28T16:23:10.49</time>
<name>1961</name>
</trkpt>
<trkpt lat="49.538492" lon="9.100457">
<ele>562.5</ele>
<speed>74.4</speed>
<course>281.4</course>
<desc>Speed 74.4 km/h Distance 56.66 km</desc>
<time>2010-08-28T16:23:19.48</time>
<name>1962</name>
</trkpt>
<trkpt lat="49.538682" lon="9.099007">
<ele>561.5</ele>
<speed>74.4</speed>
<course>321.9</course>
<desc>Speed 74.4 km/h Distance 56.77 km</desc>
<time>2010-08-28T16:23:30.47</time>
<name>1963</name>
</trkpt>
<trkpt lat="49.538932" lon="9.098705">
<ele>561.0</ele>
<speed>74.4</speed>
<course>279.5</course>
<desc>Speed 74.4 km/h Distance 56.81 km</desc>
<time>2010-08-28T16:23:32.46</time>
<name>1964</name>
</trkpt>
<trkpt lat="49.538978" lon="9.098273">
<ele>560.5</ele>
<speed>74.4</speed>
<course>246.8</course>
<desc>Speed 74.4 km/h Distance 56.84 km</desc>
<time>2010-08-28T16:23:34.46</time>
<name>1965</name>
</trkpt>
<trkpt lat="49.538852" lon="9.097818">
<ele>559.0</ele>
<speed>74.4</speed>
<course>281.3</course>
<desc>Speed 74.4 km/h Distance 56.87 km</desc>
<time>2010-08-28T16:23:36.46</time>
<name>1966</name>
</trkpt>
<trkpt lat="49.538912" lon="9.097357">
<ele>559.0</ele>
<speed>74.4</speed>
<course>279.6</course>
<desc>Speed 74.4 km/h Distance 56.91 km</desc>
<time>2010-08-28T16:23:38.45</time>
<name>1967</name>
</trkpt>
<trkpt lat="49.539110" lon="9.095545">
<ele>559.5</ele>
<speed>74.4</speed>
<course>282.3</course>
<desc>Speed 74.4 km/h Distance 57.04 km</desc>
<time>2010-08-28T16:23:47.47</time>
<name>1968</name>
</trkpt>
<trkpt lat="49.539148" lon="9.095275">
<ele>559.5</ele>
<speed>74.4</speed>
<course>281.5</course>
<desc>Speed 74.4 km/h Distance 57.06 km</desc>
<time>2010-08-28T16:23:48.46</time>
<name>1969</name>
</trkpt>
<trkpt lat="49.539272" lon="9.094340">
<ele>559.5</ele>
<speed>74.4</speed>
<course>242.4</course>
<desc>Speed 74.4 km/h Distance 57.13 km</desc>
<time>2010-08-28T16:23:51.45</time>
<name>1970</name>
</trkpt>
<trkpt lat="49.539058" lon="9.093710">
<ele>559.5</ele>
<speed>74.4</speed>
<course>321.7</course>
<desc>Speed 74.4 km/h Distance 57.18 km</desc>
<time>2010-08-28T16:23:55.44</time>
<name>1971</name>
</trkpt>
<trkpt lat="49.539618" lon="9.093028">
<ele>559.5</ele>
<speed>58.8</speed>
<course>273.3</course>
<desc>Speed 58.8 km/h Distance 57.26 km</desc>
<time>2010-08-28T16:23:58.44</time>
<name>1972</name>
</trkpt>
<trkpt lat="49.539627" lon="9.092807">
<ele>559.5</ele>
<speed>58.8</speed>
<course>270.0</course>
<desc>Speed 58.8 km/h Distance 57.28 km</desc>
<time>2010-08-28T16:23:59.45</time>
<name>1973</name>
</trkpt>
<trkpt lat="49.539627" lon="9.092568">
<ele>559.5</ele>
<speed>58.8</speed>
<course>291.0</course>
<desc>Speed 58.8 km/h Distance 57.29 km</desc>
<time>2010-08-28T16:24:00.44</time>
<name>1974</name>
</trkpt>
<trkpt lat="49.539742" lon="9.092107">
<ele>559.5</ele>
<speed>58.8</speed>
<course>243.2</course>
<desc>Speed 58.8 km/h Distance 57.33 km</desc>
<time>2010-08-28T16:24:05.42</time>
<name>1975</name>
</trkpt>
<trkpt lat="49.539612" lon="9.091710">
<ele>559.5</ele>
<speed>58.8</speed>
<course>259.4</course>
<desc>Speed 58.8 km/h Distance 57.36 km</desc>
<time>2010-08-28T16:24:10.44</time>
<name>1976</name>
</trkpt>
<trkpt lat="49.539585" lon="9.091490">
<ele>559.5</ele>
<speed>58.8</speed>
<course>330.1</course>
<desc>Speed 58.8 km/h Distance 57.38 km</desc>
<time>2010-08-28T16:24:11.44</time>
<name>1977</name>
</trkpt>
<trkpt lat="49.540595" lon="9.090595">
<ele>559.0</ele>
<speed>58.8</speed>
<course>305.2</course>
<desc>Speed 58.8 km/h Distance 57.51 km</desc>
<time>2010-08-28T16:24:15.44</time>
<name>1978</name>
</trkpt>
<trkpt lat="49.541570" lon="9.088467">
<ele>558.5</ele>
<speed>58.8</speed>
<course>236.7</course>
<desc>Speed 58.8 km/h Distance 57.70 km</desc>
<time>2010-08-28T16:24:18.44</time>
<name>1979</name>
</trkpt>
<trkpt lat="49.538102" lon="9.080343">
<ele>549.5</ele>
<speed>69.0</speed>
<course>261.1</course>
<desc>Speed 69.0 km/h Distance 58.40 km</desc>
<time>2010-08-28T16:25:04.42</time>
<name>1980</name>
</trkpt>
<trkpt lat="49.537752" lon="9.076897">
<ele>537.5</ele>
<speed>2.6</speed>
<course>321.2</course>
<desc>Speed 2.6 km/h Distance 58.65 km</desc>
<time>2010-08-28T16:25:43.39</time>
<name>1981</name>
</trkpt>
<trkpt lat="49.539265" lon="9.075023">
<ele>529.0</ele>
<speed>2.6</speed>
<course>323.0</course>
<desc>Speed 2.6 km/h Distance 58.87 km</desc>
<time>2010-08-28T16:25:49.38</time>
<name>1982</name>
</trkpt>
<trkpt lat="49.539552" lon="9.074690">
<ele>529.0</ele>
<speed>2.6</speed>
<course>327.0</course>
<desc>Speed 2.6 km/h Distance 58.91 km</desc>
<time>2010-08-28T16:25:54.38</time>
<name>1983</name>
</trkpt>
<trkpt lat="49.539570" lon="9.074672">
<ele>529.0</ele>
<speed>1.5</speed>
<course>322.7</course>
<desc>Speed 1.5 km/h Distance 58.91 km</desc>
<time>2010-08-28T16:25:55.38</time>
<name>1984</name>
</trkpt>
<trkpt lat="49.539677" lon="9.074547">
<ele>528.5</ele>
<speed>2.2</speed>
<course>317.6</course>
<desc>Speed 2.2 km/h Distance 58.92 km</desc>
<time>2010-08-28T16:25:58.38</time>
<name>1985</name>
</trkpt>
<trkpt lat="49.539803" lon="9.074368">
<ele>528.5</ele>
<speed>1.7</speed>
<course>318.7</course>
<desc>Speed 1.7 km/h Distance 58.94 km</desc>
<time>2010-08-28T16:26:01.38</time>
<name>1986</name>
</trkpt>
<trkpt lat="49.539883" lon="9.074260">
<ele>528.5</ele>
<speed>7.9</speed>
<course>311.5</course>
<desc>Speed 7.9 km/h Distance 58.95 km</desc>
<time>2010-08-28T16:26:04.38</time>
<name>1987</name>
</trkpt>
<trkpt lat="49.539890" lon="9.074248">
<ele>528.5</ele>
<speed>7.9</speed>
<course>307.6</course>
<desc>Speed 7.9 km/h Distance 58.96 km</desc>
<time>2010-08-28T16:26:05.37</time>
<name>1988</name>
</trkpt>
<trkpt lat="49.539895" lon="9.074238">
<ele>528.5</ele>
<speed>7.9</speed>
<course>143.3</course>
<desc>Speed 7.9 km/h Distance 58.96 km</desc>
<time>2010-08-28T16:26:06.37</time>
<name>1989</name>
</trkpt>
<trkpt lat="49.536250" lon="9.078423">
<ele>520.5</ele>
<speed>1.7</speed>
<course>329.7</course>
<desc>Speed 1.7 km/h Distance 59.46 km</desc>
<time>2010-08-28T16:26:41.35</time>
<name>1990</name>
</trkpt>
<trkpt lat="49.537875" lon="9.076962">
<ele>508.0</ele>
<speed>1.6</speed>
<course>312.2</course>
<desc>Speed 1.6 km/h Distance 59.67 km</desc>
<time>2010-08-28T16:27:17.33</time>
<name>1991</name>
</trkpt>
<trkpt lat="49.538597" lon="9.075737">
<ele>504.5</ele>
<speed>1.6</speed>
<course>307.8</course>
<desc>Speed 1.6 km/h Distance 59.79 km</desc>
<time>2010-08-28T16:27:22.33</time>
<name>1992</name>
</trkpt>
<trkpt lat="49.538747" lon="9.075438">
<ele>504.0</ele>
<speed>1.6</speed>
<course>302.7</course>
<desc>Speed 1.6 km/h Distance 59.82 km</desc>
<time>2010-08-28T16:27:26.32</time>
<name>1993</name>
</trkpt>
<trkpt lat="49.538755" lon="9.075418">
<ele>504.0</ele>
<speed>1.6</speed>
<course>142.7</course>
<desc>Speed 1.6 km/h Distance 59.82 km</desc>
<time>2010-08-28T16:27:27.32</time>
<name>1994</name>
</trkpt>
<trkpt lat="49.537248" lon="9.077185">
<ele>501.5</ele>
<speed>1.6</speed>
<course>131.7</course>
<desc>Speed 1.6 km/h Distance 60.03 km</desc>
<time>2010-08-28T16:27:29.30</time>
<name>1995</name>
</trkpt>
<trkpt lat="49.537047" lon="9.077533">
<ele>501.0</ele>
<speed>1.6</speed>
<course>94.4</course>
<desc>Speed 1.6 km/h Distance 60.07 km</desc>
<time>2010-08-28T16:27:33.32</time>
<name>1996</name>
</trkpt>
<trkpt lat="49.537045" lon="9.077567">
<ele>501.0</ele>
<speed>1.6</speed>
<course>135.5</course>
<desc>Speed 1.6 km/h Distance 60.07 km</desc>
<time>2010-08-28T16:27:34.32</time>
<name>1997</name>
</trkpt>
<trkpt lat="49.537042" lon="9.077572">
<ele>501.0</ele>
<speed>1.6</speed>
<course>296.4</course>
<desc>Speed 1.6 km/h Distance 60.07 km</desc>
<time>2010-08-28T16:27:35.32</time>
<name>1998</name>
</trkpt>
<trkpt lat="49.537402" lon="9.076455">
<ele>500.0</ele>
<speed>1.6</speed>
<course>325.1</course>
<desc>Speed 1.6 km/h Distance 60.16 km</desc>
<time>2010-08-28T16:27:45.30</time>
<name>1999</name>
</trkpt>
<trkpt lat="49.538337" lon="9.075448">
<ele>498.0</ele>
<speed>1.6</speed>
<course>323.5</course>
<desc>Speed 1.6 km/h Distance 60.29 km</desc>
<time>2010-08-28T16:28:01.28</time>
<name>2000</name>
</trkpt>
<trkpt lat="49.539283" lon="9.074370">
<ele>497.5</ele>
<speed>1.6</speed>
<course>333.5</course>
<desc>Speed 1.6 km/h Distance 60.42 km</desc>
<time>2010-08-28T16:28:07.27</time>
<name>2001</name>
</trkpt>
<trkpt lat="49.539500" lon="9.074203">
<ele>497.0</ele>
<speed>1.6</speed>
<course>310.8</course>
<desc>Speed 1.6 km/h Distance 60.44 km</desc>
<time>2010-08-28T16:28:11.27</time>
<name>2002</name>
</trkpt>
<trkpt lat="49.539587" lon="9.074048">
<ele>497.0</ele>
<speed>1.6</speed>
<course>327.0</course>
<desc>Speed 1.6 km/h Distance 60.46 km</desc>
<time>2010-08-28T16:28:13.27</time>
<name>2003</name>
</trkpt>
<trkpt lat="49.539840" lon="9.073795">
<ele>497.0</ele>
<speed>1.6</speed>
<course>327.5</course>
<desc>Speed 1.6 km/h Distance 60.49 km</desc>
<time>2010-08-28T16:28:17.28</time>
<name>2004</name>
</trkpt>
<trkpt lat="49.539928" lon="9.073708">
<ele>497.0</ele>
<speed>1.6</speed>
<course>75.6</course>
<desc>Speed 1.6 km/h Distance 60.50 km</desc>
<time>2010-08-28T16:28:21.27</time>
<name>2005</name>
</trkpt>
<trkpt lat="49.539933" lon="9.073738">
<ele>497.0</ele>
<speed>1.6</speed>
<course>113.7</course>
<desc>Speed 1.6 km/h Distance 60.51 km</desc>
<time>2010-08-28T16:28:25.26</time>
<name>2006</name>
</trkpt>
<trkpt lat="49.539930" lon="9.073750">
<ele>497.0</ele>
<speed>1.6</speed>
<course>88.4</course>
<desc>Speed 1.6 km/h Distance 60.51 km</desc>
<time>2010-08-28T16:28:26.26</time>
<name>2007</name>
</trkpt>
<trkpt lat="49.539933" lon="9.073930">
<ele>497.0</ele>
<speed>1.6</speed>
<course>132.8</course>
<desc>Speed 1.6 km/h Distance 60.52 km</desc>
<time>2010-08-28T16:28:29.28</time>
<name>2008</name>
</trkpt>
<trkpt lat="49.539893" lon="9.073997">
<ele>497.0</ele>
<speed>1.6</speed>
<course>178.8</course>
<desc>Speed 1.6 km/h Distance 60.53 km</desc>
<time>2010-08-28T16:28:31.28</time>
<name>2009</name>
</trkpt>
<trkpt lat="49.539840" lon="9.073998">
<ele>497.0</ele>
<speed>1.6</speed>
<course>287.1</course>
<desc>Speed 1.6 km/h Distance 60.53 km</desc>
<time>2010-08-28T16:28:33.28</time>
<name>2010</name>
</trkpt>
<trkpt lat="49.539842" lon="9.073990">
<ele>497.0</ele>
<speed>1.6</speed>
<course>345.1</course>
<desc>Speed 1.6 km/h Distance 60.53 km</desc>
<time>2010-08-28T16:28:34.27</time>
<name>2011</name>
</trkpt>
<trkpt lat="49.539850" lon="9.073987">
<ele>497.0</ele>
<speed>1.6</speed>
<course>305.9</course>
<desc>Speed 1.6 km/h Distance 60.53 km</desc>
<time>2010-08-28T16:28:35.28</time>
<name>2012</name>
</trkpt>
<trkpt lat="49.539927" lon="9.073823">
<ele>497.0</ele>
<speed>1.6</speed>
<course>316.9</course>
<desc>Speed 1.6 km/h Distance 60.55 km</desc>
<time>2010-08-28T16:28:38.28</time>
<name>2013</name>
</trkpt>
<trkpt lat="49.539942" lon="9.073802">
<ele>497.0</ele>
<speed>1.6</speed>
<course>302.1</course>
<desc>Speed 1.6 km/h Distance 60.55 km</desc>
<time>2010-08-28T16:28:39.28</time>
<name>2014</name>
</trkpt>
<trkpt lat="49.539945" lon="9.073793">
<ele>497.0</ele>
<speed>1.6</speed>
<course>234.0</course>
<desc>Speed 1.6 km/h Distance 60.55 km</desc>
<time>2010-08-28T16:28:40.27</time>
<name>2015</name>
</trkpt>
<trkpt lat="49.539903" lon="9.073705">
<ele>497.0</ele>
<speed>1.6</speed>
<course>341.2</course>
<desc>Speed 1.6 km/h Distance 60.56 km</desc>
<time>2010-08-28T16:28:45.27</time>
<name>2016</name>
</trkpt>
<trkpt lat="49.539910" lon="9.073702">
<ele>497.0</ele>
<speed>1.6</speed>
<course>345.1</course>
<desc>Speed 1.6 km/h Distance 60.56 km</desc>
<time>2010-08-28T16:28:46.27</time>
<name>2017</name>
</trkpt>
<trkpt lat="49.539918" lon="9.073698">
<ele>497.0</ele>
<speed>1.6</speed>
<course>308.1</course>
<desc>Speed 1.6 km/h Distance 60.56 km</desc>
<time>2010-08-28T16:28:49.27</time>
<name>2018</name>
</trkpt>
<trkpt lat="49.539922" lon="9.073692">
<ele>497.0</ele>
<speed>1.6</speed>
<course>67.4</course>
<desc>Speed 1.6 km/h Distance 60.56 km</desc>
<time>2010-08-28T16:28:50.27</time>
<name>2019</name>
</trkpt>
<trkpt lat="49.539938" lon="9.073753">
<ele>497.0</ele>
<speed>1.6</speed>
<course>111.1</course>
<desc>Speed 1.6 km/h Distance 60.57 km</desc>
<time>2010-08-28T16:28:53.27</time>
<name>2020</name>
</trkpt>
<trkpt lat="49.539932" lon="9.073780">
<ele>497.0</ele>
<speed>1.6</speed>
<course>121.7</course>
<desc>Speed 1.6 km/h Distance 60.57 km</desc>
<time>2010-08-28T16:28:54.27</time>
<name>2021</name>
</trkpt>
<trkpt lat="49.539925" lon="9.073797">
<ele>497.0</ele>
<speed>1.6</speed>
<course>103.6</course>
<desc>Speed 1.6 km/h Distance 60.57 km</desc>
<time>2010-08-28T16:28:55.27</time>
<name>2022</name>
</trkpt>
<trkpt lat="49.539907" lon="9.073913">
<ele>497.0</ele>
<speed>1.6</speed>
<course>131.2</course>
<desc>Speed 1.6 km/h Distance 60.58 km</desc>
<time>2010-08-28T16:28:57.27</time>
<name>2023</name>
</trkpt>
<trkpt lat="49.539865" lon="9.073987">
<ele>497.0</ele>
<speed>1.6</speed>
<course>145.4</course>
<desc>Speed 1.6 km/h Distance 60.59 km</desc>
<time>2010-08-28T16:28:59.27</time>
<name>2024</name>
</trkpt>
<trkpt lat="49.539730" lon="9.074130">
<ele>497.0</ele>
<speed>1.6</speed>
<course>82.0</course>
<desc>Speed 1.6 km/h Distance 60.60 km</desc>
<time>2010-08-28T16:29:02.27</time>
<name>2025</name>
</trkpt>
<trkpt lat="49.539737" lon="9.074203">
<ele>497.0</ele>
<speed>1.6</speed>
<course>26.6</course>
<desc>Speed 1.6 km/h Distance 60.61 km</desc>
<time>2010-08-28T16:29:04.27</time>
<name>2026</name>
</trkpt>
<trkpt lat="49.539758" lon="9.074220">
<ele>497.0</ele>
<speed>1.6</speed>
<course>21.5</course>
<desc>Speed 1.6 km/h Distance 60.61 km</desc>
<time>2010-08-28T16:29:06.27</time>
<name>2027</name>
</trkpt>
<trkpt lat="49.539767" lon="9.074225">
<ele>497.0</ele>
<speed>1.6</speed>
<course>50.2</course>
<desc>Speed 1.6 km/h Distance 60.61 km</desc>
<time>2010-08-28T16:29:07.27</time>
<name>2028</name>
</trkpt>
<trkpt lat="49.539778" lon="9.074247">
<ele>497.0</ele>
<speed>1.6</speed>
<course>318.1</course>
<desc>Speed 1.6 km/h Distance 60.61 km</desc>
<time>2010-08-28T16:29:08.27</time>
<name>2029</name>
</trkpt>
<trkpt lat="49.539843" lon="9.074157">
<ele>497.0</ele>
<speed>1.6</speed>
<course>288.1</course>
<desc>Speed 1.6 km/h Distance 60.62 km</desc>
<time>2010-08-28T16:29:10.27</time>
<name>2030</name>
</trkpt>
<trkpt lat="49.539888" lon="9.073945">
<ele>497.0</ele>
<speed>1.6</speed>
<course>259.0</course>
<desc>Speed 1.6 km/h Distance 60.64 km</desc>
<time>2010-08-28T16:29:14.25</time>
<name>2031</name>
</trkpt>
<trkpt lat="49.539852" lon="9.073655">
<ele>497.0</ele>
<speed>1.6</speed>
<course>307.7</course>
<desc>Speed 1.6 km/h Distance 60.66 km</desc>
<time>2010-08-28T16:29:34.25</time>
<name>2032</name>
</trkpt>
<trkpt lat="49.539858" lon="9.073642">
<ele>497.0</ele>
<speed>1.6</speed>
<course>345.7</course>
<desc>Speed 1.6 km/h Distance 60.66 km</desc>
<time>2010-08-28T16:29:35.24</time>
<name>2033</name>
</trkpt>
<trkpt lat="49.539935" lon="9.073612">
<ele>496.5</ele>
<speed>1.6</speed>
<course>334.6</course>
<desc>Speed 1.6 km/h Distance 60.67 km</desc>
<time>2010-08-28T16:29:50.25</time>
<name>2034</name>
</trkpt>
<trkpt lat="49.539940" lon="9.073608">
<ele>496.5</ele>
<speed>1.6</speed>
<course>143.0</course>
<desc>Speed 1.6 km/h Distance 60.67 km</desc>
<time>2010-08-28T16:29:51.25</time>
<name>2035</name>
</trkpt>
<trkpt lat="49.539837" lon="9.073728">
<ele>496.5</ele>
<speed>1.6</speed>
<course>321.6</course>
<desc>Speed 1.6 km/h Distance 60.69 km</desc>
<time>2010-08-28T16:29:54.25</time>
<name>2036</name>
</trkpt>
<trkpt lat="49.539852" lon="9.073710">
<ele>496.5</ele>
<speed>1.6</speed>
<course>267.1</course>
<desc>Speed 1.6 km/h Distance 60.69 km</desc>
<time>2010-08-28T16:29:55.24</time>
<name>2037</name>
</trkpt>
<trkpt lat="49.539843" lon="9.073458">
<ele>496.5</ele>
<speed>1.6</speed>
<course>287.1</course>
<desc>Speed 1.6 km/h Distance 60.71 km</desc>
<time>2010-08-28T16:29:58.24</time>
<name>2038</name>
</trkpt>
<trkpt lat="49.539848" lon="9.073433">
<ele>496.5</ele>
<speed>1.6</speed>
<course>123.1</course>
<desc>Speed 1.6 km/h Distance 60.71 km</desc>
<time>2010-08-28T16:29:59.24</time>
<name>2039</name>
</trkpt>
<trkpt lat="49.539725" lon="9.073725">
<ele>496.0</ele>
<speed>1.6</speed>
<course>139.3</course>
<desc>Speed 1.6 km/h Distance 60.73 km</desc>
<time>2010-08-28T16:30:10.23</time>
<name>2040</name>
</trkpt>
<trkpt lat="49.537163" lon="9.077125">
<ele>495.0</ele>
<speed>1.6</speed>
<course>132.3</course>
<desc>Speed 1.6 km/h Distance 61.11 km</desc>
<time>2010-08-28T16:30:12.24</time>
<name>2041</name>
</trkpt>
<trkpt lat="49.536833" lon="9.077683">
<ele>495.0</ele>
<speed>1.6</speed>
<course>134.9</course>
<desc>Speed 1.6 km/h Distance 61.17 km</desc>
<time>2010-08-28T16:30:17.88</time>
<name>2042</name>
</trkpt>
<trkpt lat="49.536782" lon="9.077763">
<ele>495.0</ele>
<speed>1.6</speed>
<course>132.7</course>
<desc>Speed 1.6 km/h Distance 61.17 km</desc>
<time>2010-08-28T16:30:20.22</time>
<name>2043</name>
</trkpt>
<trkpt lat="49.536772" lon="9.077780">
<ele>495.0</ele>
<speed>1.6</speed>
<course>128.1</course>
<desc>Speed 1.6 km/h Distance 61.18 km</desc>
<time>2010-08-28T16:30:21.22</time>
<name>2044</name>
</trkpt>
<trkpt lat="49.536768" lon="9.077787">
<ele>495.0</ele>
<speed>1.6</speed>
<course>135.5</course>
<desc>Speed 1.6 km/h Distance 61.18 km</desc>
<time>2010-08-28T16:30:22.22</time>
<name>2045</name>
</trkpt>
<trkpt lat="49.536765" lon="9.077792">
<ele>495.0</ele>
<speed>1.6</speed>
<course>163.3</course>
<desc>Speed 1.6 km/h Distance 61.18 km</desc>
<time>2010-08-28T16:30:23.21</time>
<name>2046</name>
</trkpt>
<trkpt lat="49.536722" lon="9.077812">
<ele>495.0</ele>
<speed>1.6</speed>
<course>167.4</course>
<desc>Speed 1.6 km/h Distance 61.18 km</desc>
<time>2010-08-28T16:30:25.21</time>
<name>2047</name>
</trkpt>
<trkpt lat="49.536717" lon="9.077813">
<ele>495.0</ele>
<speed>1.6</speed>
<course>142.8</course>
<desc>Speed 1.6 km/h Distance 61.18 km</desc>
<time>2010-08-28T16:30:26.22</time>
<name>2048</name>
</trkpt>
<trkpt lat="49.536715" lon="9.077815">
<ele>495.0</ele>
<speed>1.6</speed>
<course>133.5</course>
<desc>Speed 1.6 km/h Distance 61.18 km</desc>
<time>2010-08-28T16:30:27.21</time>
<name>2049</name>
</trkpt>
<trkpt lat="49.536702" lon="9.077837">
<ele>495.0</ele>
<speed>1.6</speed>
<course>135.5</course>
<desc>Speed 1.6 km/h Distance 61.18 km</desc>
<time>2010-08-28T16:30:28.21</time>
<name>2050</name>
</trkpt>
<trkpt lat="49.536698" lon="9.077842">
<ele>495.0</ele>
<speed>1.6</speed>
<course>90.0</course>
<desc>Speed 1.6 km/h Distance 61.18 km</desc>
<time>2010-08-28T16:30:29.21</time>
<name>2051</name>
</trkpt>
<trkpt lat="49.536698" lon="9.077845">
<ele>495.0</ele>
<speed>1.6</speed>
<course>180.0</course>
<desc>Speed 1.6 km/h Distance 61.18 km</desc>
<time>2010-08-28T16:30:30.21</time>
<name>2052</name>
</trkpt>
<trkpt lat="49.536697" lon="9.077845">
<ele>495.0</ele>
<speed>1.6</speed>
<course>149.5</course>
<desc>Speed 1.6 km/h Distance 61.19 km</desc>
<time>2010-08-28T16:30:31.21</time>
<name>2053</name>
</trkpt>
<trkpt lat="49.536678" lon="9.077862">
<ele>495.0</ele>
<speed>1.6</speed>
<course>139.1</course>
<desc>Speed 1.6 km/h Distance 61.19 km</desc>
<time>2010-08-28T16:30:32.21</time>
<name>2054</name>
</trkpt>
<trkpt lat="49.536673" lon="9.077868">
<ele>495.0</ele>
<speed>1.6</speed>
<course>167.4</course>
<desc>Speed 1.6 km/h Distance 61.19 km</desc>
<time>2010-08-28T16:30:33.21</time>
<name>2055</name>
</trkpt>
<trkpt lat="49.536672" lon="9.077868">
<ele>495.0</ele>
<speed>1.6</speed>
<course>167.4</course>
<desc>Speed 1.6 km/h Distance 61.19 km</desc>
<time>2010-08-28T16:30:34.21</time>
<name>2056</name>
</trkpt>
<trkpt lat="49.536672" lon="9.077868">
<ele>495.0</ele>
<speed>1.6</speed>
<course>163.0</course>
<desc>Speed 1.6 km/h Distance 61.19 km</desc>
<time>2010-08-28T16:30:35.21</time>
<name>2057</name>
</trkpt>
<trkpt lat="49.536643" lon="9.077882">
<ele>495.0</ele>
<speed>1.6</speed>
<course>150.8</course>
<desc>Speed 1.6 km/h Distance 61.19 km</desc>
<time>2010-08-28T16:30:37.21</time>
<name>2058</name>
</trkpt>
<trkpt lat="49.536642" lon="9.077883">
<ele>495.0</ele>
<speed>1.6</speed>
<course>142.8</course>
<desc>Speed 1.6 km/h Distance 61.19 km</desc>
<time>2010-08-28T16:30:38.21</time>
<name>2059</name>
</trkpt>
<trkpt lat="49.536640" lon="9.077885">
<ele>495.0</ele>
<speed>1.6</speed>
<course>180.0</course>
<desc>Speed 1.6 km/h Distance 61.19 km</desc>
<time>2010-08-28T16:30:39.21</time>
<name>2060</name>
</trkpt>
<trkpt lat="49.536638" lon="9.077885">
<ele>495.0</ele>
<speed>1.6</speed>
<course>180.0</course>
<desc>Speed 1.6 km/h Distance 61.19 km</desc>
<time>2010-08-28T16:30:40.21</time>
<name>2061</name>
</trkpt>
<trkpt lat="49.536638" lon="9.077887">
<ele>495.0</ele>
<speed>1.6</speed>
<course>180.0</course>
<desc>Speed 1.6 km/h Distance 61.19 km</desc>
<time>2010-08-28T16:30:41.20</time>
<name>2062</name>
</trkpt>
<trkpt lat="49.536638" lon="9.077887">
<ele>495.0</ele>
<speed>1.6</speed>
<course>267.5</course>
<desc>Speed 1.6 km/h Distance 61.19 km</desc>
<time>2010-08-28T16:30:42.21</time>
<name>2063</name>
</trkpt>
<trkpt lat="49.536597" lon="9.076408">
<ele>494.0</ele>
<speed>1.6</speed>
<course>9.4</course>
<desc>Speed 1.6 km/h Distance 61.30 km</desc>
<time>2010-08-28T16:31:30.19</time>
<name>2064</name>
</trkpt>
<trkpt lat="49.537105" lon="9.076538">
<ele>489.5</ele>
<speed>1.6</speed>
<course>317.0</course>
<desc>Speed 1.6 km/h Distance 61.36 km</desc>
<time>2010-08-28T16:32:04.18</time>
<name>2065</name>
</trkpt>
<trkpt lat="49.537445" lon="9.076050">
<ele>489.0</ele>
<speed>1.6</speed>
<course>326.6</course>
<desc>Speed 1.6 km/h Distance 61.41 km</desc>
<time>2010-08-28T16:32:11.19</time>
<name>2066</name>
</trkpt>
<trkpt lat="49.537950" lon="9.075537">
<ele>488.5</ele>
<speed>1.6</speed>
<course>294.5</course>
<desc>Speed 1.6 km/h Distance 61.48 km</desc>
<time>2010-08-28T16:32:17.17</time>
<name>2067</name>
</trkpt>
<trkpt lat="49.538010" lon="9.075333">
<ele>488.5</ele>
<speed>1.6</speed>
<course>346.8</course>
<desc>Speed 1.6 km/h Distance 61.49 km</desc>
<time>2010-08-28T16:32:20.18</time>
<name>2068</name>
</trkpt>
<trkpt lat="49.538052" lon="9.075318">
<ele>488.5</ele>
<speed>1.6</speed>
<course>342.1</course>
<desc>Speed 1.6 km/h Distance 61.50 km</desc>
<time>2010-08-28T16:32:23.18</time>
<name>2069</name>
</trkpt>
<trkpt lat="49.538072" lon="9.075308">
<ele>488.5</ele>
<speed>1.6</speed>
<course>359.4</course>
<desc>Speed 1.6 km/h Distance 61.50 km</desc>
<time>2010-08-28T16:32:24.16</time>
<name>2070</name>
</trkpt>
<trkpt lat="49.538157" lon="9.075307">
<ele>488.5</ele>
<speed>1.6</speed>
<course>158.9</course>
<desc>Speed 1.6 km/h Distance 61.51 km</desc>
<time>2010-08-28T16:32:27.16</time>
<name>2071</name>
</trkpt>
<trkpt lat="49.536550" lon="9.076260">
<ele>488.0</ele>
<speed>1.6</speed>
<course>153.5</course>
<desc>Speed 1.6 km/h Distance 61.70 km</desc>
<time>2010-08-28T16:32:43.18</time>
<name>2072</name>
</trkpt>
<trkpt lat="49.536157" lon="9.076562">
<ele>487.5</ele>
<speed>1.6</speed>
<course>149.0</course>
<desc>Speed 1.6 km/h Distance 61.75 km</desc>
<time>2010-08-28T16:32:48.16</time>
<name>2073</name>
</trkpt>
<trkpt lat="49.536112" lon="9.076603">
<ele>487.5</ele>
<speed>1.6</speed>
<course>140.4</course>
<desc>Speed 1.6 km/h Distance 61.75 km</desc>
<time>2010-08-28T16:32:51.15</time>
<name>2074</name>
</trkpt>
<trkpt lat="49.536075" lon="9.076650">
<ele>487.5</ele>
<speed>1.6</speed>
<course>149.0</course>
<desc>Speed 1.6 km/h Distance 61.76 km</desc>
<time>2010-08-28T16:32:53.15</time>
<name>2075</name>
</trkpt>
<trkpt lat="49.536008" lon="9.076712">
<ele>487.5</ele>
<speed>1.6</speed>
<course>147.2</course>
<desc>Speed 1.6 km/h Distance 61.77 km</desc>
<time>2010-08-28T16:32:55.15</time>
<name>2076</name>
</trkpt>
<trkpt lat="49.535998" lon="9.076722">
<ele>487.5</ele>
<speed>1.6</speed>
<course>218.4</course>
<desc>Speed 1.6 km/h Distance 61.77 km</desc>
<time>2010-08-28T16:32:56.15</time>
<name>2077</name>
</trkpt>
<trkpt lat="49.535930" lon="9.076638">
<ele>487.5</ele>
<speed>1.6</speed>
<course>196.0</course>
<desc>Speed 1.6 km/h Distance 61.78 km</desc>
<time>2010-08-28T16:32:59.15</time>
<name>2078</name>
</trkpt>
<trkpt lat="49.535918" lon="9.076633">
<ele>487.5</ele>
<speed>1.6</speed>
<course>167.4</course>
<desc>Speed 1.6 km/h Distance 61.78 km</desc>
<time>2010-08-28T16:33:00.15</time>
<name>2079</name>
</trkpt>
<trkpt lat="49.535917" lon="9.076633">
<ele>487.5</ele>
<speed>1.6</speed>
<course>331.0</course>
<desc>Speed 1.6 km/h Distance 61.78 km</desc>
<time>2010-08-28T16:33:01.15</time>
<name>2080</name>
</trkpt>
<trkpt lat="49.535928" lon="9.076623">
<ele>487.5</ele>
<speed>1.6</speed>
<course>279.7</course>
<desc>Speed 1.6 km/h Distance 61.78 km</desc>
<time>2010-08-28T16:33:02.15</time>
<name>2081</name>
</trkpt>
<trkpt lat="49.535930" lon="9.076608">
<ele>487.5</ele>
<speed>1.6</speed>
<course>336.2</course>
<desc>Speed 1.6 km/h Distance 61.78 km</desc>
<time>2010-08-28T16:33:03.15</time>
<name>2082</name>
</trkpt>
<trkpt lat="49.535935" lon="9.076605">
<ele>487.5</ele>
<speed>1.6</speed>
<course>0.0</course>
<desc>Speed 1.6 km/h Distance 61.78 km</desc>
<time>2010-08-28T16:33:04.15</time>
<name>2083</name>
</trkpt>
<trkpt lat="49.535938" lon="9.076605">
<ele>487.5</ele>
<speed>1.6</speed>
<course>15.2</course>
<desc>Speed 1.6 km/h Distance 61.78 km</desc>
<time>2010-08-28T16:33:05.15</time>
<name>2084</name>
</trkpt>
<trkpt lat="49.536648" lon="9.076902">
<ele>487.5</ele>
<speed>1.6</speed>
<course>29.2</course>
<desc>Speed 1.6 km/h Distance 61.87 km</desc>
<time>2010-08-28T16:33:27.14</time>
<name>2085</name>
</trkpt>
<trkpt lat="49.536780" lon="9.077015">
<ele>487.0</ele>
<speed>1.6</speed>
<course>355.0</course>
<desc>Speed 1.6 km/h Distance 61.88 km</desc>
<time>2010-08-28T16:33:30.14</time>
<name>2086</name>
</trkpt>
<trkpt lat="49.536878" lon="9.077002">
<ele>487.0</ele>
<speed>1.6</speed>
<course>37.2</course>
<desc>Speed 1.6 km/h Distance 61.89 km</desc>
<time>2010-08-28T16:33:33.14</time>
<name>2087</name>
</trkpt>
<trkpt lat="49.536880" lon="9.077003">
<ele>487.0</ele>
<speed>1.6</speed>
<course>167.4</course>
<desc>Speed 1.6 km/h Distance 61.89 km</desc>
<time>2010-08-28T16:33:34.14</time>
<name>2088</name>
</trkpt>
<trkpt lat="49.536878" lon="9.077003">
<ele>487.0</ele>
<speed>1.6</speed>
<course>146.9</course>
<desc>Speed 1.6 km/h Distance 61.90 km</desc>
<time>2010-08-28T16:33:35.14</time>
<name>2089</name>
</trkpt>
<trkpt lat="49.536867" lon="9.077015">
<ele>487.0</ele>
<speed>1.6</speed>
<course>149.9</course>
<desc>Speed 1.6 km/h Distance 61.90 km</desc>
<time>2010-08-28T16:33:36.13</time>
<name>2090</name>
</trkpt>
<trkpt lat="49.536852" lon="9.077028">
<ele>487.0</ele>
<speed>1.6</speed>
<course>156.6</course>
<desc>Speed 1.6 km/h Distance 61.90 km</desc>
<time>2010-08-28T16:33:37.13</time>
<name>2091</name>
</trkpt>
<trkpt lat="49.536842" lon="9.077035">
<ele>487.0</ele>
<speed>1.6</speed>
<course>245.8</course>
<desc>Speed 1.6 km/h Distance 61.90 km</desc>
<time>2010-08-28T16:33:38.13</time>
<name>2092</name>
</trkpt>
<trkpt lat="49.536578" lon="9.076132">
<ele>487.0</ele>
<speed>1.6</speed>
<course>255.6</course>
<desc>Speed 1.6 km/h Distance 61.97 km</desc>
<time>2010-08-28T16:34:44.15</time>
<name>2093</name>
</trkpt>
<trkpt lat="49.536575" lon="9.076112">
<ele>487.0</ele>
<speed>1.6</speed>
<course>0.0</course>
<desc>Speed 1.6 km/h Distance 61.97 km</desc>
<time>2010-08-28T16:34:45.13</time>
<name>2094</name>
</trkpt>
<trkpt lat="49.536578" lon="9.076112">
<ele>487.0</ele>
<speed>1.6</speed>
<course>146.3</course>
<desc>Speed 1.6 km/h Distance 61.97 km</desc>
<time>2010-08-28T16:34:46.12</time>
<name>2095</name>
</trkpt>
<trkpt lat="49.536575" lon="9.076115">
<ele>487.0</ele>
<speed>1.6</speed>
<course>245.2</course>
<desc>Speed 1.6 km/h Distance 61.97 km</desc>
<time>2010-08-28T16:34:47.12</time>
<name>2096</name>
</trkpt>
<trkpt lat="49.536535" lon="9.075982">
<ele>487.0</ele>
<speed>1.6</speed>
<course>312.9</course>
<desc>Speed 1.6 km/h Distance 61.98 km</desc>
<time>2010-08-28T16:34:50.11</time>
<name>2097</name>
</trkpt>
<trkpt lat="49.536540" lon="9.075973">
<ele>487.0</ele>
<speed>1.6</speed>
<course>256.3</course>
<desc>Speed 1.6 km/h Distance 61.99 km</desc>
<time>2010-08-28T16:34:51.11</time>
<name>2098</name>
</trkpt>
<trkpt lat="49.536530" lon="9.075910">
<ele>487.0</ele>
<speed>1.6</speed>
<course>242.6</course>
<desc>Speed 1.6 km/h Distance 61.99 km</desc>
<time>2010-08-28T16:34:53.10</time>
<name>2099</name>
</trkpt>
<trkpt lat="49.536528" lon="9.075905">
<ele>487.0</ele>
<speed>1.6</speed>
<course>167.4</course>
<desc>Speed 1.6 km/h Distance 61.99 km</desc>
<time>2010-08-28T16:34:54.10</time>
<name>2100</name>
</trkpt>
<trkpt lat="49.536523" lon="9.075907">
<ele>487.0</ele>
<speed>1.6</speed>
<course>167.4</course>
<desc>Speed 1.6 km/h Distance 61.99 km</desc>
<time>2010-08-28T16:34:55.10</time>
<name>2101</name>
</trkpt>
<trkpt lat="49.536523" lon="9.075907">
<ele>487.0</ele>
<speed>1.6</speed>
<course>246.3</course>
<desc>Speed 1.6 km/h Distance 61.99 km</desc>
<time>2010-08-28T16:34:56.10</time>
<name>2102</name>
</trkpt>
<trkpt lat="49.536520" lon="9.075895">
<ele>487.0</ele>
<speed>1.6</speed>
<course>242.6</course>
<desc>Speed 1.6 km/h Distance 61.99 km</desc>
<time>2010-08-28T16:34:57.10</time>
<name>2103</name>
</trkpt>
<trkpt lat="49.536518" lon="9.075890">
<ele>487.0</ele>
<speed>1.6</speed>
<course>270.0</course>
<desc>Speed 1.6 km/h Distance 61.99 km</desc>
<time>2010-08-28T16:34:58.10</time>
<name>2104</name>
</trkpt>
<trkpt lat="49.536518" lon="9.075888">
<ele>487.0</ele>
<speed>1.6</speed>
<course>167.4</course>
<desc>Speed 1.6 km/h Distance 61.99 km</desc>
<time>2010-08-28T16:34:59.10</time>
<name>2105</name>
</trkpt>
<trkpt lat="49.536517" lon="9.075888">
<ele>487.0</ele>
<speed>1.6</speed>
<course>167.4</course>
<desc>Speed 1.6 km/h Distance 61.99 km</desc>
<time>2010-08-28T16:35:00.10</time>
<name>2106</name>
</trkpt>
<trkpt lat="49.536515" lon="9.075888">
<ele>487.0</ele>
<speed>1.6</speed>
<course>270.0</course>
<desc>Speed 1.6 km/h Distance 61.99 km</desc>
<time>2010-08-28T16:35:01.09</time>
<name>2107</name>
</trkpt>
<trkpt lat="49.536515" lon="9.075887">
<ele>487.0</ele>
<speed>1.6</speed>
<course>326.3</course>
<desc>Speed 1.6 km/h Distance 61.99 km</desc>
<time>2010-08-28T16:35:02.09</time>
<name>2108</name>
</trkpt>
<trkpt lat="49.536518" lon="9.075883">
<ele>487.0</ele>
<speed>1.6</speed>
<course>347.4</course>
<desc>Speed 1.6 km/h Distance 61.99 km</desc>
<time>2010-08-28T16:35:03.09</time>
<name>2109</name>
</trkpt>
<trkpt lat="49.536522" lon="9.075882">
<ele>487.0</ele>
<speed>1.6</speed>
<course>167.4</course>
<desc>Speed 1.6 km/h Distance 61.99 km</desc>
<time>2010-08-28T16:35:04.09</time>
<name>2110</name>
</trkpt>
<trkpt lat="49.536520" lon="9.075882">
<ele>487.0</ele>
<speed>1.6</speed>
<course>167.4</course>
<desc>Speed 1.6 km/h Distance 61.99 km</desc>
<time>2010-08-28T16:35:05.09</time>
<name>2111</name>
</trkpt>
<trkpt lat="49.536520" lon="9.075882">
<ele>487.0</ele>
<speed>1.6</speed>
<course>330.8</course>
<desc>Speed 1.6 km/h Distance 61.99 km</desc>
<time>2010-08-28T16:35:06.09</time>
<name>2112</name>
</trkpt>
<trkpt lat="49.536522" lon="9.075880">
<ele>487.0</ele>
<speed>1.6</speed>
<course>341.2</course>
<desc>Speed 1.6 km/h Distance 61.99 km</desc>
<time>2010-08-28T16:35:07.09</time>
<name>2113</name>
</trkpt>
<trkpt lat="49.536525" lon="9.075878">
<ele>487.0</ele>
<speed>1.6</speed>
<course>37.2</course>
<desc>Speed 1.6 km/h Distance 61.99 km</desc>
<time>2010-08-28T16:35:08.09</time>
<name>2114</name>
</trkpt>
<trkpt lat="49.536527" lon="9.075880">
<ele>487.0</ele>
<speed>1.6</speed>
<course>338.5</course>
<desc>Speed 1.6 km/h Distance 61.99 km</desc>
<time>2010-08-28T16:35:09.09</time>
<name>2115</name>
</trkpt>
<trkpt lat="49.536535" lon="9.075875">
<ele>487.0</ele>
<speed>1.6</speed>
<course>347.4</course>
<desc>Speed 1.6 km/h Distance 62.00 km</desc>
<time>2010-08-28T16:35:10.09</time>
<name>2116</name>
</trkpt>
<trkpt lat="49.536538" lon="9.075873">
<ele>487.0</ele>
<speed>1.6</speed>
<course>347.4</course>
<desc>Speed 1.6 km/h Distance 62.00 km</desc>
<time>2010-08-28T16:35:11.09</time>
<name>2117</name>
</trkpt>
<trkpt lat="49.536538" lon="9.075873">
<ele>487.0</ele>
<speed>1.6</speed>
<course>43.5</course>
<desc>Speed 1.6 km/h Distance 62.00 km</desc>
<time>2010-08-28T16:35:12.09</time>
<name>2118</name>
</trkpt>
<trkpt lat="49.536542" lon="9.075878">
<ele>487.0</ele>
<speed>1.6</speed>
<course>0.0</course>
<desc>Speed 1.6 km/h Distance 62.00 km</desc>
<time>2010-08-28T16:35:13.09</time>
<name>2119</name>
</trkpt>
<trkpt lat="49.536545" lon="9.075878">
<ele>487.0</ele>
<speed>1.6</speed>
<course>90.0</course>
<desc>Speed 1.6 km/h Distance 62.00 km</desc>
<time>2010-08-28T16:35:14.09</time>
<name>2120</name>
</trkpt>
<trkpt lat="49.536545" lon="9.075880">
<ele>487.0</ele>
<speed>1.6</speed>
<course>150.8</course>
<desc>Speed 1.6 km/h Distance 62.00 km</desc>
<time>2010-08-28T16:35:15.09</time>
<name>2121</name>
</trkpt>
<trkpt lat="49.536543" lon="9.075882">
<ele>487.0</ele>
<speed>1.6</speed>
<course>90.0</course>
<desc>Speed 1.6 km/h Distance 62.00 km</desc>
<time>2010-08-28T16:35:16.09</time>
<name>2122</name>
</trkpt>
<trkpt lat="49.536543" lon="9.075890">
<ele>487.0</ele>
<speed>1.6</speed>
<course>90.0</course>
<desc>Speed 1.6 km/h Distance 62.00 km</desc>
<time>2010-08-28T16:35:17.88</time>
<name>2123</name>
</trkpt>
<trkpt lat="49.536543" lon="9.075898">
<ele>487.0</ele>
<speed>1.6</speed>
<course>90.0</course>
<desc>Speed 1.6 km/h Distance 62.00 km</desc>
<time>2010-08-28T16:35:19.10</time>
<name>2124</name>
</trkpt>
<trkpt lat="49.536543" lon="9.075900">
<ele>487.0</ele>
<speed>1.6</speed>
<course>62.6</course>
<desc>Speed 1.6 km/h Distance 62.00 km</desc>
<time>2010-08-28T16:35:20.08</time>
<name>2125</name>
</trkpt>
<trkpt lat="49.536547" lon="9.075910">
<ele>487.0</ele>
<speed>1.6</speed>
<course>68.7</course>
<desc>Speed 1.6 km/h Distance 62.00 km</desc>
<time>2010-08-28T16:35:21.08</time>
<name>2126</name>
</trkpt>
<trkpt lat="49.536548" lon="9.075917">
<ele>487.0</ele>
<speed>1.6</speed>
<course>51.9</course>
<desc>Speed 1.6 km/h Distance 62.00 km</desc>
<time>2010-08-28T16:35:22.08</time>
<name>2127</name>
</trkpt>
<trkpt lat="49.536550" lon="9.075920">
<ele>487.0</ele>
<speed>1.6</speed>
<course>352.3</course>
<desc>Speed 1.6 km/h Distance 62.00 km</desc>
<time>2010-08-28T16:35:23.08</time>
<name>2128</name>
</trkpt>
<trkpt lat="49.536558" lon="9.075918">
<ele>487.0</ele>
<speed>1.6</speed>
<course>76.4</course>
<desc>Speed 1.6 km/h Distance 62.00 km</desc>
<time>2010-08-28T16:35:24.08</time>
<name>2129</name>
</trkpt>
<trkpt lat="49.536625" lon="9.076343">
<ele>487.0</ele>
<speed>1.6</speed>
<course>122.1</course>
<desc>Speed 1.6 km/h Distance 62.03 km</desc>
<time>2010-08-28T16:35:33.08</time>
<name>2130</name>
</trkpt>
<trkpt lat="49.536607" lon="9.076388">
<ele>487.0</ele>
<speed>1.6</speed>
<course>341.2</course>
<desc>Speed 1.6 km/h Distance 62.04 km</desc>
<time>2010-08-28T16:35:35.08</time>
<name>2131</name>
</trkpt>
<trkpt lat="49.536613" lon="9.076385">
<ele>487.0</ele>
<speed>1.6</speed>
<course>283.7</course>
<desc>Speed 1.6 km/h Distance 62.04 km</desc>
<time>2010-08-28T16:35:36.08</time>
<name>2132</name>
</trkpt>
<trkpt lat="49.536618" lon="9.076353">
<ele>487.0</ele>
<speed>1.6</speed>
<course>262.7</course>
<desc>Speed 1.6 km/h Distance 62.04 km</desc>
<time>2010-08-28T16:35:37.08</time>
<name>2133</name>
</trkpt>
<trkpt lat="49.536617" lon="9.076333">
<ele>487.0</ele>
<speed>1.6</speed>
<course>242.6</course>
<desc>Speed 1.6 km/h Distance 62.04 km</desc>
<time>2010-08-28T16:35:38.08</time>
<name>2134</name>
</trkpt>
<trkpt lat="49.536613" lon="9.076323">
<ele>487.0</ele>
<speed>1.6</speed>
<course>193.8</course>
<desc>Speed 1.6 km/h Distance 62.04 km</desc>
<time>2010-08-28T16:35:39.08</time>
<name>2135</name>
</trkpt>
<trkpt lat="49.536605" lon="9.076320">
<ele>487.0</ele>
<speed>1.6</speed>
<course>239.2</course>
<desc>Speed 1.6 km/h Distance 62.04 km</desc>
<time>2010-08-28T16:35:40.08</time>
<name>2136</name>
</trkpt>
<trkpt lat="49.536545" lon="9.076165">
<ele>487.0</ele>
<speed>7.0</speed>
<course>232.4</course>
<desc>Speed 7.0 km/h Distance 62.06 km</desc>
<time>2010-08-28T16:35:43.08</time>
<name>2137</name>
</trkpt>
<trkpt lat="49.536535" lon="9.076145">
<ele>487.0</ele>
<speed>7.0</speed>
<course>254.7</course>
<desc>Speed 7.0 km/h Distance 62.06 km</desc>
<time>2010-08-28T16:35:44.08</time>
<name>2138</name>
</trkpt>
<trkpt lat="49.536455" lon="9.075695">
<ele>487.0</ele>
<speed>3.1</speed>
<course>250.2</course>
<desc>Speed 3.1 km/h Distance 62.09 km</desc>
<time>2010-08-28T16:35:49.09</time>
<name>2139</name>
</trkpt>
<trkpt lat="49.536443" lon="9.075645">
<ele>487.0</ele>
<speed>3.1</speed>
<course>90.0</course>
<desc>Speed 3.1 km/h Distance 62.10 km</desc>
<time>2010-08-28T16:35:51.08</time>
<name>2140</name>
</trkpt>
<trkpt lat="49.536443" lon="9.075647">
<ele>487.0</ele>
<speed>3.1</speed>
<course>59.7</course>
<desc>Speed 3.1 km/h Distance 62.10 km</desc>
<time>2010-08-28T16:35:52.07</time>
<name>2141</name>
</trkpt>
<trkpt lat="49.536535" lon="9.075888">
<ele>487.0</ele>
<speed>3.1</speed>
<course>43.8</course>
<desc>Speed 3.1 km/h Distance 62.12 km</desc>
<time>2010-08-28T16:35:57.07</time>
<name>2142</name>
</trkpt>
<trkpt lat="49.536570" lon="9.075940">
<ele>487.0</ele>
<speed>3.1</speed>
<course>7.4</course>
<desc>Speed 3.1 km/h Distance 62.12 km</desc>
<time>2010-08-28T16:35:59.07</time>
<name>2143</name>
</trkpt>
<trkpt lat="49.536577" lon="9.075942">
<ele>487.0</ele>
<speed>3.1</speed>
<course>68.9</course>
<desc>Speed 3.1 km/h Distance 62.12 km</desc>
<time>2010-08-28T16:36:00.07</time>
<name>2144</name>
</trkpt>
<trkpt lat="49.536592" lon="9.076002">
<ele>487.0</ele>
<speed>3.1</speed>
<course>56.6</course>
<desc>Speed 3.1 km/h Distance 62.13 km</desc>
<time>2010-08-28T16:36:02.07</time>
<name>2145</name>
</trkpt>
<trkpt lat="49.536597" lon="9.076013">
<ele>487.0</ele>
<speed>3.1</speed>
<course>25.6</course>
<desc>Speed 3.1 km/h Distance 62.13 km</desc>
<time>2010-08-28T16:36:03.07</time>
<name>2146</name>
</trkpt>
<trkpt lat="49.536603" lon="9.076018">
<ele>487.0</ele>
<speed>3.1</speed>
<course>95.3</course>
<desc>Speed 3.1 km/h Distance 62.13 km</desc>
<time>2010-08-28T16:36:04.07</time>
<name>2147</name>
</trkpt>
<trkpt lat="49.536593" lon="9.076185">
<ele>487.0</ele>
<speed>3.2</speed>
<course>71.0</course>
<desc>Speed 3.2 km/h Distance 62.14 km</desc>
<time>2010-08-28T16:36:24.07</time>
<name>2148</name>
</trkpt>
<trkpt lat="49.536597" lon="9.076200">
<ele>487.0</ele>
<speed>3.2</speed>
<course>107.1</course>
<desc>Speed 3.2 km/h Distance 62.14 km</desc>
<time>2010-08-28T16:36:25.07</time>
<name>2149</name>
</trkpt>
<trkpt lat="49.536595" lon="9.076208">
<ele>487.0</ele>
<speed>3.2</speed>
<course>90.0</course>
<desc>Speed 3.2 km/h Distance 62.14 km</desc>
<time>2010-08-28T16:36:26.07</time>
<name>2150</name>
</trkpt>
<trkpt lat="49.536595" lon="9.076215">
<ele>487.0</ele>
<speed>3.2</speed>
<course>153.4</course>
<desc>Speed 3.2 km/h Distance 62.14 km</desc>
<time>2010-08-28T16:36:27.07</time>
<name>2151</name>
</trkpt>
<trkpt lat="49.536573" lon="9.076232">
<ele>487.0</ele>
<speed>3.2</speed>
<course>152.5</course>
<desc>Speed 3.2 km/h Distance 62.15 km</desc>
<time>2010-08-28T16:36:28.06</time>
<name>2152</name>
</trkpt>
<trkpt lat="49.536557" lon="9.076245">
<ele>487.0</ele>
<speed>3.2</speed>
<course>157.5</course>
<desc>Speed 3.2 km/h Distance 62.15 km</desc>
<time>2010-08-28T16:36:29.06</time>
<name>2153</name>
</trkpt>
<trkpt lat="49.536538" lon="9.076257">
<ele>487.0</ele>
<speed>3.2</speed>
<course>90.0</course>
<desc>Speed 3.2 km/h Distance 62.15 km</desc>
<time>2010-08-28T16:36:30.06</time>
<name>2154</name>
</trkpt>
<trkpt lat="49.536538" lon="9.076258">
<ele>487.0</ele>
<speed>3.2</speed>
<course>18.0</course>
<desc>Speed 3.2 km/h Distance 62.15 km</desc>
<time>2010-08-28T16:36:31.06</time>
<name>2155</name>
</trkpt>
<trkpt lat="49.536578" lon="9.076278">
<ele>487.0</ele>
<speed>4.1</speed>
<course>125.0</course>
<desc>Speed 4.1 km/h Distance 62.15 km</desc>
<time>2010-08-28T16:36:40.05</time>
<name>2156</name>
</trkpt>
<trkpt lat="49.536570" lon="9.076297">
<ele>487.0</ele>
<speed>4.1</speed>
<course>136.0</course>
<desc>Speed 4.1 km/h Distance 62.16 km</desc>
<time>2010-08-28T16:36:41.05</time>
<name>2157</name>
</trkpt>
<trkpt lat="49.536563" lon="9.076307">
<ele>487.0</ele>
<speed>4.1</speed>
<course>132.9</course>
<desc>Speed 4.1 km/h Distance 62.16 km</desc>
<time>2010-08-28T16:36:42.05</time>
<name>2158</name>
</trkpt>
<trkpt lat="49.536558" lon="9.076315">
<ele>487.0</ele>
<speed>4.1</speed>
<course>227.1</course>
<desc>Speed 4.1 km/h Distance 62.16 km</desc>
<time>2010-08-28T16:36:43.05</time>
<name>2159</name>
</trkpt>
<trkpt lat="49.536553" lon="9.076307">
<ele>487.0</ele>
<speed>4.1</speed>
<course>270.0</course>
<desc>Speed 4.1 km/h Distance 62.16 km</desc>
<time>2010-08-28T16:36:44.05</time>
<name>2160</name>
</trkpt>
<trkpt lat="49.536553" lon="9.076303">
<ele>487.0</ele>
<speed>4.1</speed>
<course>270.0</course>
<desc>Speed 4.1 km/h Distance 62.16 km</desc>
<time>2010-08-28T16:36:45.05</time>
<name>2161</name>
</trkpt>
<trkpt lat="49.536553" lon="9.076303">
<ele>487.0</ele>
<speed>4.1</speed>
<course>7.4</course>
<desc>Speed 4.1 km/h Distance 62.16 km</desc>
<time>2010-08-28T16:36:46.05</time>
<name>2162</name>
</trkpt>
<trkpt lat="49.536560" lon="9.076305">
<ele>487.0</ele>
<speed>4.1</speed>
<course>270.0</course>
<desc>Speed 4.1 km/h Distance 62.16 km</desc>
<time>2010-08-28T16:36:47.05</time>
<name>2163</name>
</trkpt>
<trkpt lat="49.536560" lon="9.076243">
<ele>487.0</ele>
<speed>4.1</speed>
<course>242.6</course>
<desc>Speed 4.1 km/h Distance 62.16 km</desc>
<time>2010-08-28T16:36:49.05</time>
<name>2164</name>
</trkpt>
<trkpt lat="49.536558" lon="9.076238">
<ele>487.0</ele>
<speed>4.1</speed>
<course>167.4</course>
<desc>Speed 4.1 km/h Distance 62.16 km</desc>
<time>2010-08-28T16:36:50.05</time>
<name>2165</name>
</trkpt>
<trkpt lat="49.536555" lon="9.076238">
<ele>487.0</ele>
<speed>4.1</speed>
<course>238.2</course>
<desc>Speed 4.1 km/h Distance 62.16 km</desc>
<time>2010-08-28T16:36:51.05</time>
<name>2166</name>
</trkpt>
<trkpt lat="49.536552" lon="9.076230">
<ele>487.0</ele>
<speed>4.1</speed>
<course>180.0</course>
<desc>Speed 4.1 km/h Distance 62.17 km</desc>
<time>2010-08-28T16:36:52.05</time>
<name>2167</name>
</trkpt>
<trkpt lat="49.536550" lon="9.076230">
<ele>487.0</ele>
<speed>4.1</speed>
<course>167.4</course>
<desc>Speed 4.1 km/h Distance 62.17 km</desc>
<time>2010-08-28T16:36:53.05</time>
<name>2168</name>
</trkpt>
<trkpt lat="49.536548" lon="9.076232">
<ele>487.0</ele>
<speed>4.1</speed>
<course>171.9</course>
<desc>Speed 4.1 km/h Distance 62.17 km</desc>
<time>2010-08-28T16:36:54.05</time>
<name>2169</name>
</trkpt>
<trkpt lat="49.536543" lon="9.076233">
<ele>487.0</ele>
<speed>4.1</speed>
<course>104.5</course>
<desc>Speed 4.1 km/h Distance 62.17 km</desc>
<time>2010-08-28T16:36:55.05</time>
<name>2170</name>
</trkpt>
<trkpt lat="49.536542" lon="9.076243">
<ele>487.0</ele>
<speed>4.1</speed>
<course>153.6</course>
<desc>Speed 4.1 km/h Distance 62.17 km</desc>
<time>2010-08-28T16:36:56.05</time>
<name>2171</name>
</trkpt>
<trkpt lat="49.536535" lon="9.076248">
<ele>487.0</ele>
<speed>4.1</speed>
<course>167.4</course>
<desc>Speed 4.1 km/h Distance 62.17 km</desc>
<time>2010-08-28T16:36:57.05</time>
<name>2172</name>
</trkpt>
<trkpt lat="49.536533" lon="9.076248">
<ele>487.0</ele>
<speed>4.1</speed>
<course>167.4</course>
<desc>Speed 4.1 km/h Distance 62.17 km</desc>
<time>2010-08-28T16:36:58.05</time>
<name>2173</name>
</trkpt>
<trkpt lat="49.536532" lon="9.076248">
<ele>487.0</ele>
<speed>4.1</speed>
<course>62.6</course>
<desc>Speed 4.1 km/h Distance 62.17 km</desc>
<time>2010-08-28T16:36:59.05</time>
<name>2174</name>
</trkpt>
<trkpt lat="49.536533" lon="9.076253">
<ele>487.0</ele>
<speed>4.1</speed>
<course>43.5</course>
<desc>Speed 4.1 km/h Distance 62.17 km</desc>
<time>2010-08-28T16:37:00.05</time>
<name>2175</name>
</trkpt>
<trkpt lat="49.536537" lon="9.076258">
<ele>487.0</ele>
<speed>4.1</speed>
<course>43.5</course>
<desc>Speed 4.1 km/h Distance 62.17 km</desc>
<time>2010-08-28T16:37:01.04</time>
<name>2176</name>
</trkpt>
<trkpt lat="49.536537" lon="9.076260">
<ele>487.0</ele>
<speed>4.1</speed>
<course>128.1</course>
<desc>Speed 4.1 km/h Distance 62.17 km</desc>
<time>2010-08-28T16:37:02.05</time>
<name>2177</name>
</trkpt>
<trkpt lat="49.536535" lon="9.076263">
<ele>487.0</ele>
<speed>4.1</speed>
<course>71.5</course>
<desc>Speed 4.1 km/h Distance 62.17 km</desc>
<time>2010-08-28T16:37:03.04</time>
<name>2178</name>
</trkpt>
<trkpt lat="49.536543" lon="9.076302">
<ele>487.0</ele>
<speed>9.7</speed>
<course>75.6</course>
<desc>Speed 9.7 km/h Distance 62.17 km</desc>
<time>2010-08-28T16:37:04.04</time>
<name>2179</name>
</trkpt>
<trkpt lat="49.536548" lon="9.076332">
<ele>487.0</ele>
<speed>9.7</speed>
<course>84.5</course>
<desc>Speed 9.7 km/h Distance 62.17 km</desc>
<time>2010-08-28T16:37:05.05</time>
<name>2180</name>
</trkpt>
<trkpt lat="49.536550" lon="9.076358">
<ele>487.0</ele>
<speed>9.7</speed>
<course>104.4</course>
<desc>Speed 9.7 km/h Distance 62.18 km</desc>
<time>2010-08-28T16:37:06.04</time>
<name>2181</name>
</trkpt>
<trkpt lat="49.536547" lon="9.076378">
<ele>487.0</ele>
<speed>9.7</speed>
<course>102.4</course>
<desc>Speed 9.7 km/h Distance 62.18 km</desc>
<time>2010-08-28T16:37:07.05</time>
<name>2182</name>
</trkpt>
<trkpt lat="49.536545" lon="9.076390">
<ele>487.0</ele>
<speed>9.7</speed>
<course>90.0</course>
<desc>Speed 9.7 km/h Distance 62.18 km</desc>
<time>2010-08-28T16:37:08.04</time>
<name>2183</name>
</trkpt>
<trkpt lat="49.536545" lon="9.076400">
<ele>487.0</ele>
<speed>9.7</speed>
<course>80.3</course>
<desc>Speed 9.7 km/h Distance 62.18 km</desc>
<time>2010-08-28T16:37:09.04</time>
<name>2184</name>
</trkpt>
<trkpt lat="49.536547" lon="9.076415">
<ele>487.0</ele>
<speed>9.7</speed>
<course>284.5</course>
<desc>Speed 9.7 km/h Distance 62.18 km</desc>
<time>2010-08-28T16:37:11.04</time>
<name>2185</name>
</trkpt>
<trkpt lat="49.536548" lon="9.076405">
<ele>487.0</ele>
<speed>9.7</speed>
<course>186.5</course>
<desc>Speed 9.7 km/h Distance 62.18 km</desc>
<time>2010-08-28T16:37:12.04</time>
<name>2186</name>
</trkpt>
<trkpt lat="49.536532" lon="9.076402">
<ele>487.0</ele>
<speed>9.7</speed>
<course>187.7</course>
<desc>Speed 9.7 km/h Distance 62.18 km</desc>
<time>2010-08-28T16:37:13.04</time>
<name>2187</name>
</trkpt>
<trkpt lat="49.536523" lon="9.076400">
<ele>487.0</ele>
<speed>9.7</speed>
<course>251.1</course>
<desc>Speed 9.7 km/h Distance 62.18 km</desc>
<time>2010-08-28T16:37:14.04</time>
<name>2188</name>
</trkpt>
<trkpt lat="49.536517" lon="9.076370">
<ele>487.0</ele>
<speed>9.7</speed>
<course>270.0</course>
<desc>Speed 9.7 km/h Distance 62.19 km</desc>
<time>2010-08-28T16:37:16.04</time>
<name>2189</name>
</trkpt>
<trkpt lat="49.536517" lon="9.076348">
<ele>487.0</ele>
<speed>9.7</speed>
<course>213.2</course>
<desc>Speed 9.7 km/h Distance 62.19 km</desc>
<time>2010-08-28T16:37:17.04</time>
<name>2190</name>
</trkpt>
<trkpt lat="49.536508" lon="9.076340">
<ele>487.0</ele>
<speed>9.7</speed>
<course>256.7</course>
<desc>Speed 9.7 km/h Distance 62.19 km</desc>
<time>2010-08-28T16:37:18.04</time>
<name>2191</name>
</trkpt>
<trkpt lat="49.536502" lon="9.076297">
<ele>487.0</ele>
<speed>9.7</speed>
<course>270.0</course>
<desc>Speed 9.7 km/h Distance 62.19 km</desc>
<time>2010-08-28T16:37:20.04</time>
<name>2192</name>
</trkpt>
<trkpt lat="49.536502" lon="9.076272">
<ele>487.0</ele>
<speed>9.7</speed>
<course>203.5</course>
<desc>Speed 9.7 km/h Distance 62.19 km</desc>
<time>2010-08-28T16:37:21.04</time>
<name>2193</name>
</trkpt>
<trkpt lat="49.536487" lon="9.076262">
<ele>487.0</ele>
<speed>9.7</speed>
<course>256.1</course>
<desc>Speed 9.7 km/h Distance 62.20 km</desc>
<time>2010-08-28T16:37:22.04</time>
<name>2194</name>
</trkpt>
<trkpt lat="49.536480" lon="9.076220">
<ele>487.0</ele>
<speed>9.7</speed>
<course>263.2</course>
<desc>Speed 9.7 km/h Distance 62.20 km</desc>
<time>2010-08-28T16:37:24.04</time>
<name>2195</name>
</trkpt>
<trkpt lat="49.536478" lon="9.076198">
<ele>487.0</ele>
<speed>9.7</speed>
<course>242.8</course>
<desc>Speed 9.7 km/h Distance 62.20 km</desc>
<time>2010-08-28T16:37:25.04</time>
<name>2196</name>
</trkpt>
<trkpt lat="49.536475" lon="9.076188">
<ele>487.0</ele>
<speed>9.7</speed>
<course>213.1</course>
<desc>Speed 9.7 km/h Distance 62.20 km</desc>
<time>2010-08-28T16:37:26.04</time>
<name>2197</name>
</trkpt>
<trkpt lat="49.536463" lon="9.076177">
<ele>487.0</ele>
<speed>9.7</speed>
<course>237.9</course>
<desc>Speed 9.7 km/h Distance 62.20 km</desc>
<time>2010-08-28T16:37:28.04</time>
<name>2198</name>
</trkpt>
<trkpt lat="49.536460" lon="9.076168">
<ele>487.0</ele>
<speed>9.7</speed>
<course>127.6</course>
<desc>Speed 9.7 km/h Distance 62.20 km</desc>
<time>2010-08-28T16:37:30.04</time>
<name>2199</name>
</trkpt>
<trkpt lat="49.536450" lon="9.076188">
<ele>487.0</ele>
<speed>5.7</speed>
<course>90.0</course>
<desc>Speed 5.7 km/h Distance 62.21 km</desc>
<time>2010-08-28T16:37:32.03</time>
<name>2200</name>
</trkpt>
<trkpt lat="49.536450" lon="9.076203">
<ele>487.0</ele>
<speed>5.7</speed>
<course>100.8</course>
<desc>Speed 5.7 km/h Distance 62.21 km</desc>
<time>2010-08-28T16:37:33.03</time>
<name>2201</name>
</trkpt>
<trkpt lat="49.536448" lon="9.076217">
<ele>487.0</ele>
<speed>5.7</speed>
<course>75.6</course>
<desc>Speed 5.7 km/h Distance 62.21 km</desc>
<time>2010-08-28T16:37:34.03</time>
<name>2202</name>
</trkpt>
<trkpt lat="49.536450" lon="9.076227">
<ele>487.0</ele>
<speed>5.7</speed>
<course>90.0</course>
<desc>Speed 5.7 km/h Distance 62.21 km</desc>
<time>2010-08-28T16:37:35.03</time>
<name>2203</name>
</trkpt>
<trkpt lat="49.536450" lon="9.076233">
<ele>487.0</ele>
<speed>5.7</speed>
<course>248.5</course>
<desc>Speed 5.7 km/h Distance 62.21 km</desc>
<time>2010-08-28T16:37:36.03</time>
<name>2204</name>
</trkpt>
<trkpt lat="49.536130" lon="9.074980">
<ele>487.0</ele>
<speed>2.7</speed>
<course>217.5</course>
<desc>Speed 2.7 km/h Distance 62.31 km</desc>
<time>2010-08-28T16:38:13.03</time>
<name>2205</name>
</trkpt>
<trkpt lat="49.536112" lon="9.074958">
<ele>487.0</ele>
<speed>2.7</speed>
<course>4.7</course>
<desc>Speed 2.7 km/h Distance 62.31 km</desc>
<time>2010-08-28T16:38:15.02</time>
<name>2206</name>
</trkpt>
<trkpt lat="49.536123" lon="9.074960">
<ele>487.0</ele>
<speed>2.7</speed>
<course>7.4</course>
<desc>Speed 2.7 km/h Distance 62.31 km</desc>
<time>2010-08-28T16:38:16.02</time>
<name>2207</name>
</trkpt>
<trkpt lat="49.536130" lon="9.074962">
<ele>487.0</ele>
<speed>2.7</speed>
<course>51.9</course>
<desc>Speed 2.7 km/h Distance 62.31 km</desc>
<time>2010-08-28T16:38:17.02</time>
<name>2208</name>
</trkpt>
<trkpt lat="49.536132" lon="9.074965">
<ele>487.0</ele>
<speed>2.7</speed>
<course>12.6</course>
<desc>Speed 2.7 km/h Distance 62.31 km</desc>
<time>2010-08-28T16:38:18.02</time>
<name>2209</name>
</trkpt>
<trkpt lat="49.536137" lon="9.074965">
<ele>487.0</ele>
<speed>2.7</speed>
<course>12.6</course>
<desc>Speed 2.7 km/h Distance 62.31 km</desc>
<time>2010-08-28T16:38:19.03</time>
<name>2210</name>
</trkpt>
<trkpt lat="49.536137" lon="9.074965">
<ele>487.0</ele>
<speed>2.7</speed>
<course>74.6</course>
<desc>Speed 2.7 km/h Distance 62.31 km</desc>
<time>2010-08-28T16:38:20.02</time>
<name>2211</name>
</trkpt>
<trkpt lat="49.536463" lon="9.076793">
<ele>487.0</ele>
<speed>2.7</speed>
<course>41.2</course>
<desc>Speed 2.7 km/h Distance 62.45 km</desc>
<time>2010-08-28T16:39:22.00</time>
<name>2212</name>
</trkpt>
<trkpt lat="49.536540" lon="9.076897">
<ele>487.0</ele>
<speed>2.7</speed>
<course>42.5</course>
<desc>Speed 2.7 km/h Distance 62.46 km</desc>
<time>2010-08-28T16:39:25.00</time>
<name>2213</name>
</trkpt>
<trkpt lat="49.536543" lon="9.076902">
<ele>487.0</ele>
<speed>2.7</speed>
<course>20.8</course>
<desc>Speed 2.7 km/h Distance 62.46 km</desc>
<time>2010-08-28T16:39:26.00</time>
<name>2214</name>
</trkpt>
<trkpt lat="49.536552" lon="9.076907">
<ele>487.0</ele>
<speed>2.7</speed>
<course>22.2</course>
<desc>Speed 2.7 km/h Distance 62.46 km</desc>
<time>2010-08-28T16:39:27.00</time>
<name>2215</name>
</trkpt>
<trkpt lat="49.536557" lon="9.076910">
<ele>487.0</ele>
<speed>2.7</speed>
<course>29.2</course>
<desc>Speed 2.7 km/h Distance 62.46 km</desc>
<time>2010-08-28T16:39:27.99</time>
<name>2216</name>
</trkpt>
<trkpt lat="49.536558" lon="9.076912">
<ele>487.0</ele>
<speed>2.7</speed>
<course>250.6</course>
<desc>Speed 2.7 km/h Distance 62.46 km</desc>
<time>2010-08-28T16:39:28.99</time>
<name>2217</name>
</trkpt>
<trkpt lat="49.536455" lon="9.076460">
<ele>487.0</ele>
<speed>2.7</speed>
<course>248.3</course>
<desc>Speed 2.7 km/h Distance 62.50 km</desc>
<time>2010-08-28T16:39:32.99</time>
<name>2218</name>
</trkpt>
<trkpt lat="49.536430" lon="9.076363">
<ele>487.0</ele>
<speed>2.7</speed>
<course>220.9</course>
<desc>Speed 2.7 km/h Distance 62.50 km</desc>
<time>2010-08-28T16:39:34.99</time>
<name>2219</name>
</trkpt>
<trkpt lat="49.536425" lon="9.076357">
<ele>487.0</ele>
<speed>2.7</speed>
<course>192.6</course>
<desc>Speed 2.7 km/h Distance 62.51 km</desc>
<time>2010-08-28T16:39:35.99</time>
<name>2220</name>
</trkpt>
<trkpt lat="49.536422" lon="9.076355">
<ele>487.0</ele>
<speed>2.7</speed>
<course>252.9</course>
<desc>Speed 2.7 km/h Distance 62.51 km</desc>
<time>2010-08-28T16:39:36.99</time>
<name>2221</name>
</trkpt>
<trkpt lat="49.536402" lon="9.076255">
<ele>487.0</ele>
<speed>2.7</speed>
<course>212.6</course>
<desc>Speed 2.7 km/h Distance 62.51 km</desc>
<time>2010-08-28T16:39:38.98</time>
<name>2222</name>
</trkpt>
<trkpt lat="49.536395" lon="9.076248">
<ele>487.0</ele>
<speed>2.7</speed>
<course>231.9</course>
<desc>Speed 2.7 km/h Distance 62.51 km</desc>
<time>2010-08-28T16:39:39.98</time>
<name>2223</name>
</trkpt>
<trkpt lat="49.536393" lon="9.076245">
<ele>487.0</ele>
<speed>2.7</speed>
<course>251.7</course>
<desc>Speed 2.7 km/h Distance 62.51 km</desc>
<time>2010-08-28T16:39:40.98</time>
<name>2224</name>
</trkpt>
<trkpt lat="49.536383" lon="9.076198">
<ele>487.0</ele>
<speed>2.7</speed>
<course>213.7</course>
<desc>Speed 2.7 km/h Distance 62.52 km</desc>
<time>2010-08-28T16:39:42.98</time>
<name>2225</name>
</trkpt>
<trkpt lat="49.536380" lon="9.076195">
<ele>487.0</ele>
<speed>2.7</speed>
<course>270.0</course>
<desc>Speed 2.7 km/h Distance 62.52 km</desc>
<time>2010-08-28T16:39:43.98</time>
<name>2226</name>
</trkpt>
<trkpt lat="49.536380" lon="9.076193">
<ele>487.0</ele>
<speed>2.7</speed>
<course>80.3</course>
<desc>Speed 2.7 km/h Distance 62.52 km</desc>
<time>2010-08-28T16:39:44.98</time>
<name>2227</name>
</trkpt>
<trkpt lat="49.536382" lon="9.076208">
<ele>487.0</ele>
<speed>3.7</speed>
<course>90.0</course>
<desc>Speed 3.7 km/h Distance 62.52 km</desc>
<time>2010-08-28T16:39:45.98</time>
<name>2228</name>
</trkpt>
<trkpt lat="49.536382" lon="9.076220">
<ele>487.0</ele>
<speed>3.7</speed>
<course>62.6</course>
<desc>Speed 3.7 km/h Distance 62.52 km</desc>
<time>2010-08-28T16:39:46.98</time>
<name>2229</name>
</trkpt>
<trkpt lat="49.536385" lon="9.076230">
<ele>487.0</ele>
<speed>3.7</speed>
<course>40.9</course>
<desc>Speed 3.7 km/h Distance 62.52 km</desc>
<time>2010-08-28T16:39:47.98</time>
<name>2230</name>
</trkpt>
<trkpt lat="49.536390" lon="9.076237">
<ele>487.0</ele>
<speed>3.7</speed>
<course>175.8</course>
<desc>Speed 3.7 km/h Distance 62.52 km</desc>
<time>2010-08-28T16:39:48.98</time>
<name>2231</name>
</trkpt>
<trkpt lat="49.536317" lon="9.076245">
<ele>487.0</ele>
<speed>3.7</speed>
<course>180.0</course>
<desc>Speed 3.7 km/h Distance 62.53 km</desc>
<time>2010-08-28T16:42:27.92</time>
<name>2232</name>
</trkpt>
<trkpt lat="49.536307" lon="9.076245">
<ele>487.0</ele>
<speed>3.7</speed>
<course>128.1</course>
<desc>Speed 3.7 km/h Distance 62.53 km</desc>
<time>2010-08-28T16:42:28.92</time>
<name>2233</name>
</trkpt>
<trkpt lat="49.536305" lon="9.076248">
<ele>487.0</ele>
<speed>3.7</speed>
<course>90.0</course>
<desc>Speed 3.7 km/h Distance 62.53 km</desc>
<time>2010-08-28T16:42:29.92</time>
<name>2234</name>
</trkpt>
<trkpt lat="49.536305" lon="9.076250">
<ele>487.0</ele>
<speed>3.7</speed>
<course>178.8</course>
<desc>Speed 3.7 km/h Distance 62.53 km</desc>
<time>2010-08-28T16:42:30.92</time>
<name>2235</name>
</trkpt>
<trkpt lat="49.536298" lon="9.076250">
<ele>487.0</ele>
<speed>3.7</speed>
<course>180.0</course>
<desc>Speed 3.7 km/h Distance 62.53 km</desc>
<time>2010-08-28T16:42:31.92</time>
<name>2236</name>
</trkpt>
<trkpt lat="49.536292" lon="9.076250">
<ele>487.0</ele>
<speed>3.7</speed>
<course>189.6</course>
<desc>Speed 3.7 km/h Distance 62.53 km</desc>
<time>2010-08-28T16:42:32.92</time>
<name>2237</name>
</trkpt>
<trkpt lat="49.536283" lon="9.076248">
<ele>487.0</ele>
<speed>3.7</speed>
<course>150.8</course>
<desc>Speed 3.7 km/h Distance 62.53 km</desc>
<time>2010-08-28T16:42:33.92</time>
<name>2238</name>
</trkpt>
<trkpt lat="49.536282" lon="9.076250">
<ele>487.0</ele>
<speed>3.7</speed>
<course>198.0</course>
<desc>Speed 3.7 km/h Distance 62.53 km</desc>
<time>2010-08-28T16:42:34.92</time>
<name>2239</name>
</trkpt>
<trkpt lat="49.536258" lon="9.076238">
<ele>487.0</ele>
<speed>3.7</speed>
<course>206.0</course>
<desc>Speed 3.7 km/h Distance 62.54 km</desc>
<time>2010-08-28T16:42:43.91</time>
<name>2240</name>
</trkpt>
<trkpt lat="49.536245" lon="9.076228">
<ele>487.5</ele>
<speed>3.7</speed>
<course>336.2</course>
<desc>Speed 3.7 km/h Distance 62.54 km</desc>
<time>2010-08-28T16:42:44.91</time>
<name>2241</name>
</trkpt>
<trkpt lat="49.536250" lon="9.076225">
<ele>487.0</ele>
<speed>3.7</speed>
<course>2.8</course>
<desc>Speed 3.7 km/h Distance 62.54 km</desc>
<time>2010-08-28T16:42:45.91</time>
<name>2242</name>
</trkpt>
<trkpt lat="49.536267" lon="9.076227">
<ele>487.0</ele>
<speed>3.7</speed>
<course>278.5</course>
<desc>Speed 3.7 km/h Distance 62.54 km</desc>
<time>2010-08-28T16:42:46.91</time>
<name>2243</name>
</trkpt>
<trkpt lat="49.536277" lon="9.076123">
<ele>487.0</ele>
<speed>3.7</speed>
<course>312.9</course>
<desc>Speed 3.7 km/h Distance 62.55 km</desc>
<time>2010-08-28T16:42:48.90</time>
<name>2244</name>
</trkpt>
<trkpt lat="49.536282" lon="9.076115">
<ele>487.0</ele>
<speed>3.7</speed>
<course>213.7</course>
<desc>Speed 3.7 km/h Distance 62.55 km</desc>
<time>2010-08-28T16:42:49.90</time>
<name>2245</name>
</trkpt>
<trkpt lat="49.536278" lon="9.076112">
<ele>487.0</ele>
<speed>3.7</speed>
<course>59.2</course>
<desc>Speed 3.7 km/h Distance 62.55 km</desc>
<time>2010-08-28T16:42:50.90</time>
<name>2246</name>
</trkpt>
<trkpt lat="49.536407" lon="9.076443">
<ele>487.5</ele>
<speed>7.9</speed>
<course>57.8</course>
<desc>Speed 7.9 km/h Distance 62.58 km</desc>
<time>2010-08-28T16:43:11.90</time>
<name>2247</name>
</trkpt>
<trkpt lat="49.536422" lon="9.076480">
<ele>487.5</ele>
<speed>7.9</speed>
<course>71.7</course>
<desc>Speed 7.9 km/h Distance 62.58 km</desc>
<time>2010-08-28T16:43:12.90</time>
<name>2248</name>
</trkpt>
<trkpt lat="49.536427" lon="9.076503">
<ele>487.5</ele>
<speed>7.9</speed>
<course>74.4</course>
<desc>Speed 7.9 km/h Distance 62.58 km</desc>
<time>2010-08-28T16:43:13.90</time>
<name>2249</name>
</trkpt>
<trkpt lat="49.536430" lon="9.076522">
<ele>487.5</ele>
<speed>7.9</speed>
<course>60.0</course>
<desc>Speed 7.9 km/h Distance 62.58 km</desc>
<time>2010-08-28T16:43:14.90</time>
<name>2250</name>
</trkpt>
<trkpt lat="49.536435" lon="9.076535">
<ele>487.5</ele>
<speed>7.9</speed>
<course>90.0</course>
<desc>Speed 7.9 km/h Distance 62.59 km</desc>
<time>2010-08-28T16:43:15.90</time>
<name>2251</name>
</trkpt>
<trkpt lat="49.536435" lon="9.076547">
<ele>487.5</ele>
<speed>7.9</speed>
<course>90.0</course>
<desc>Speed 7.9 km/h Distance 62.59 km</desc>
<time>2010-08-28T16:43:16.90</time>
<name>2252</name>
</trkpt>
<trkpt lat="49.536435" lon="9.076555">
<ele>487.5</ele>
<speed>7.9</speed>
<course>111.3</course>
<desc>Speed 7.9 km/h Distance 62.59 km</desc>
<time>2010-08-28T16:43:17.90</time>
<name>2253</name>
</trkpt>
<trkpt lat="49.536433" lon="9.076562">
<ele>487.5</ele>
<speed>7.9</speed>
<course>135.5</course>
<desc>Speed 7.9 km/h Distance 62.59 km</desc>
<time>2010-08-28T16:43:18.90</time>
<name>2254</name>
</trkpt>
<trkpt lat="49.536430" lon="9.076567">
<ele>487.5</ele>
<speed>7.9</speed>
<course>18.6</course>
<desc>Speed 7.9 km/h Distance 62.59 km</desc>
<time>2010-08-28T16:43:19.89</time>
<name>2255</name>
</trkpt>
<trkpt lat="49.536475" lon="9.076590">
<ele>487.5</ele>
<speed>7.9</speed>
<course>179.8</course>
<desc>Speed 7.9 km/h Distance 62.59 km</desc>
<time>2010-08-28T16:44:39.88</time>
<name>2256</name>
</trkpt>
<trkpt lat="49.536203" lon="9.076592">
<ele>480.0</ele>
<speed>7.9</speed>
<course>90.0</course>
<desc>Speed 7.9 km/h Distance 62.62 km</desc>
<time>2010-08-28T16:44:43.89</time>
<name>2257</name>
</trkpt>
<trkpt lat="49.536203" lon="9.076595">
<ele>480.0</ele>
<speed>7.9</speed>
<course>0.0</course>
<desc>Speed 7.9 km/h Distance 62.62 km</desc>
<time>2010-08-28T16:44:44.88</time>
<name>2258</name>
</trkpt>
<trkpt lat="49.536215" lon="9.076595">
<ele>480.0</ele>
<speed>7.9</speed>
<course>4.4</course>
<desc>Speed 7.9 km/h Distance 62.63 km</desc>
<time>2010-08-28T16:44:45.88</time>
<name>2259</name>
</trkpt>
<trkpt lat="49.536225" lon="9.076597">
<ele>480.0</ele>
<speed>7.9</speed>
<course>353.7</course>
<desc>Speed 7.9 km/h Distance 62.63 km</desc>
<time>2010-08-28T16:44:46.88</time>
<name>2260</name>
</trkpt>
<trkpt lat="49.536237" lon="9.076595">
<ele>480.0</ele>
<speed>7.9</speed>
<course>29.7</course>
<desc>Speed 7.9 km/h Distance 62.63 km</desc>
<time>2010-08-28T16:44:47.88</time>
<name>2261</name>
</trkpt>
<trkpt lat="49.536513" lon="9.076838">
<ele>475.0</ele>
<speed>7.9</speed>
<course>0.0</course>
<desc>Speed 7.9 km/h Distance 62.66 km</desc>
<time>2010-08-28T16:44:51.88</time>
<name>2262</name>
</trkpt>
<trkpt lat="49.536545" lon="9.076838">
<ele>475.0</ele>
<speed>2.7</speed>
<course>81.2</course>
<desc>Speed 2.7 km/h Distance 62.67 km</desc>
<time>2010-08-28T16:44:52.88</time>
<name>2263</name>
</trkpt>
<trkpt lat="49.536547" lon="9.076855">
<ele>474.0</ele>
<speed>4.1</speed>
<course>194.4</course>
<desc>Speed 4.1 km/h Distance 62.67 km</desc>
<time>2010-08-28T16:44:53.88</time>
<name>2264</name>
</trkpt>
<trkpt lat="49.536522" lon="9.076845">
<ele>474.0</ele>
<speed>3.3</speed>
<course>160.8</course>
<desc>Speed 3.3 km/h Distance 62.67 km</desc>
<time>2010-08-28T16:44:56.88</time>
<name>2265</name>
</trkpt>
<trkpt lat="49.536500" lon="9.076857">
<ele>474.0</ele>
<speed>1.8</speed>
<course>159.7</course>
<desc>Speed 1.8 km/h Distance 62.67 km</desc>
<time>2010-08-28T16:44:57.88</time>
<name>2266</name>
</trkpt>
<trkpt lat="49.536465" lon="9.076877">
<ele>474.0</ele>
<speed>5.7</speed>
<course>320.8</course>
<desc>Speed 5.7 km/h Distance 62.68 km</desc>
<time>2010-08-28T16:44:59.88</time>
<name>2267</name>
</trkpt>
<trkpt lat="49.536667" lon="9.076623">
<ele>473.5</ele>
<speed>1.3</speed>
<course>295.6</course>
<desc>Speed 1.3 km/h Distance 62.71 km</desc>
<time>2010-08-28T16:45:23.86</time>
<name>2268</name>
</trkpt>
<trkpt lat="49.536705" lon="9.076500">
<ele>473.5</ele>
<speed>1.3</speed>
<course>288.5</course>
<desc>Speed 1.3 km/h Distance 62.72 km</desc>
<time>2010-08-28T16:45:26.84</time>
<name>2269</name>
</trkpt>
<trkpt lat="49.536713" lon="9.076462">
<ele>473.5</ele>
<speed>1.3</speed>
<course>196.0</course>
<desc>Speed 1.3 km/h Distance 62.72 km</desc>
<time>2010-08-28T16:45:28.84</time>
<name>2270</name>
</trkpt>
<trkpt lat="49.536585" lon="9.076405">
<ele>473.5</ele>
<speed>1.3</speed>
<course>162.6</course>
<desc>Speed 1.3 km/h Distance 62.73 km</desc>
<time>2010-08-28T16:45:31.84</time>
<name>2271</name>
</trkpt>
<trkpt lat="49.536392" lon="9.076498">
<ele>473.5</ele>
<speed>1.3</speed>
<course>176.2</course>
<desc>Speed 1.3 km/h Distance 62.76 km</desc>
<time>2010-08-28T16:45:35.84</time>
<name>2272</name>
</trkpt>
<trkpt lat="49.536377" lon="9.076500">
<ele>473.5</ele>
<speed>1.3</speed>
<course>139.7</course>
<desc>Speed 1.3 km/h Distance 62.76 km</desc>
<time>2010-08-28T16:45:36.85</time>
<name>2273</name>
</trkpt>
<trkpt lat="49.536372" lon="9.076507">
<ele>473.5</ele>
<speed>1.3</speed>
<course>161.8</course>
<desc>Speed 1.3 km/h Distance 62.76 km</desc>
<time>2010-08-28T16:45:37.85</time>
<name>2274</name>
</trkpt>
<trkpt lat="49.536362" lon="9.076512">
<ele>473.5</ele>
<speed>1.3</speed>
<course>161.2</course>
<desc>Speed 1.3 km/h Distance 62.76 km</desc>
<time>2010-08-28T16:45:38.84</time>
<name>2275</name>
</trkpt>
<trkpt lat="49.536355" lon="9.076515">
<ele>473.5</ele>
<speed>1.3</speed>
<course>133.1</course>
<desc>Speed 1.3 km/h Distance 62.76 km</desc>
<time>2010-08-28T16:45:39.84</time>
<name>2276</name>
</trkpt>
<trkpt lat="49.536327" lon="9.076562">
<ele>473.5</ele>
<speed>1.3</speed>
<course>147.1</course>
<desc>Speed 1.3 km/h Distance 62.77 km</desc>
<time>2010-08-28T16:45:41.85</time>
<name>2277</name>
</trkpt>
<trkpt lat="49.536318" lon="9.076570">
<ele>473.5</ele>
<speed>1.3</speed>
<course>153.6</course>
<desc>Speed 1.3 km/h Distance 62.77 km</desc>
<time>2010-08-28T16:45:42.85</time>
<name>2278</name>
</trkpt>
<trkpt lat="49.536312" lon="9.076575">
<ele>473.5</ele>
<speed>1.3</speed>
<course>168.4</course>
<desc>Speed 1.3 km/h Distance 62.77 km</desc>
<time>2010-08-28T16:45:43.85</time>
<name>2279</name>
</trkpt>
<trkpt lat="49.536302" lon="9.076578">
<ele>473.5</ele>
<speed>1.3</speed>
<course>109.4</course>
<desc>Speed 1.3 km/h Distance 62.77 km</desc>
<time>2010-08-28T16:45:44.83</time>
<name>2280</name>
</trkpt>
<trkpt lat="49.536138" lon="9.077292">
<ele>473.0</ele>
<speed>1.3</speed>
<course>29.7</course>
<desc>Speed 1.3 km/h Distance 62.82 km</desc>
<time>2010-08-28T16:45:48.83</time>
<name>2281</name>
</trkpt>
<trkpt lat="49.536432" lon="9.077550">
<ele>473.0</ele>
<speed>6.3</speed>
<course>270.0</course>
<desc>Speed 6.3 km/h Distance 62.86 km</desc>
<time>2010-08-28T16:45:54.84</time>
<name>2282</name>
</trkpt>
<trkpt lat="49.536432" lon="9.077500">
<ele>473.0</ele>
<speed>6.3</speed>
<course>75.0</course>
<desc>Speed 6.3 km/h Distance 62.86 km</desc>
<time>2010-08-28T16:45:55.84</time>
<name>2283</name>
</trkpt>
<trkpt lat="49.536453" lon="9.077625">
<ele>473.0</ele>
<speed>6.3</speed>
<course>52.4</course>
<desc>Speed 6.3 km/h Distance 62.87 km</desc>
<time>2010-08-28T16:45:57.82</time>
<name>2284</name>
</trkpt>
<trkpt lat="49.536460" lon="9.077638">
<ele>473.0</ele>
<speed>6.3</speed>
<course>72.9</course>
<desc>Speed 6.3 km/h Distance 62.88 km</desc>
<time>2010-08-28T16:45:58.83</time>
<name>2285</name>
</trkpt>
<trkpt lat="49.536462" lon="9.077647">
<ele>473.0</ele>
<speed>6.3</speed>
<course>82.7</course>
<desc>Speed 6.3 km/h Distance 62.88 km</desc>
<time>2010-08-28T16:45:59.82</time>
<name>2286</name>
</trkpt>
<trkpt lat="49.536465" lon="9.077687">
<ele>473.0</ele>
<speed>6.3</speed>
<course>77.6</course>
<desc>Speed 6.3 km/h Distance 62.88 km</desc>
<time>2010-08-28T16:46:00.82</time>
<name>2287</name>
</trkpt>
<trkpt lat="49.536467" lon="9.077698">
<ele>473.0</ele>
<speed>6.3</speed>
<course>31.6</course>
<desc>Speed 6.3 km/h Distance 62.88 km</desc>
<time>2010-08-28T16:46:01.82</time>
<name>2288</name>
</trkpt>
<trkpt lat="49.536470" lon="9.077702">
<ele>473.0</ele>
<speed>6.3</speed>
<course>33.7</course>
<desc>Speed 6.3 km/h Distance 62.88 km</desc>
<time>2010-08-28T16:46:02.82</time>
<name>2289</name>
</trkpt>
<trkpt lat="49.536473" lon="9.077705">
<ele>473.0</ele>
<speed>6.3</speed>
<course>23.0</course>
<desc>Speed 6.3 km/h Distance 62.88 km</desc>
<time>2010-08-28T16:46:03.82</time>
<name>2290</name>
</trkpt>
<trkpt lat="49.536477" lon="9.077707">
<ele>473.0</ele>
<speed>6.3</speed>
<course>167.4</course>
<desc>Speed 6.3 km/h Distance 62.88 km</desc>
<time>2010-08-28T16:46:04.82</time>
<name>2291</name>
</trkpt>
<trkpt lat="49.536475" lon="9.077707">
<ele>473.0</ele>
<speed>6.3</speed>
<course>167.4</course>
<desc>Speed 6.3 km/h Distance 62.88 km</desc>
<time>2010-08-28T16:46:05.82</time>
<name>2292</name>
</trkpt>
<trkpt lat="49.536473" lon="9.077707">
<ele>473.0</ele>
<speed>6.3</speed>
<course>167.4</course>
<desc>Speed 6.3 km/h Distance 62.88 km</desc>
<time>2010-08-28T16:46:06.82</time>
<name>2293</name>
</trkpt>
<trkpt lat="49.536473" lon="9.077707">
<ele>473.0</ele>
<speed>6.3</speed>
<course>167.4</course>
<desc>Speed 6.3 km/h Distance 62.88 km</desc>
<time>2010-08-28T16:46:07.82</time>
<name>2294</name>
</trkpt>
<trkpt lat="49.536473" lon="9.077707">
<ele>473.0</ele>
<speed>6.3</speed>
<course>12.6</course>
<desc>Speed 6.3 km/h Distance 62.88 km</desc>
<time>2010-08-28T16:46:08.82</time>
<name>2295</name>
</trkpt>
<trkpt lat="49.536475" lon="9.077707">
<ele>473.0</ele>
<speed>6.3</speed>
<course>12.6</course>
<desc>Speed 6.3 km/h Distance 62.88 km</desc>
<time>2010-08-28T16:46:09.82</time>
<name>2296</name>
</trkpt>
<trkpt lat="49.536477" lon="9.077707">
<ele>473.0</ele>
<speed>6.3</speed>
<course>12.6</course>
<desc>Speed 6.3 km/h Distance 62.88 km</desc>
<time>2010-08-28T16:46:10.83</time>
<name>2297</name>
</trkpt>
<trkpt lat="49.536477" lon="9.077707">
<ele>473.0</ele>
<speed>6.3</speed>
<course>279.7</course>
<desc>Speed 6.3 km/h Distance 62.88 km</desc>
<time>2010-08-28T16:46:11.83</time>
<name>2298</name>
</trkpt>
<trkpt lat="49.536540" lon="9.077137">
<ele>472.5</ele>
<speed>6.3</speed>
<course>355.0</course>
<desc>Speed 6.3 km/h Distance 62.92 km</desc>
<time>2010-08-28T16:46:18.80</time>
<name>2299</name>
</trkpt>
<trkpt lat="49.536548" lon="9.077135">
<ele>472.5</ele>
<speed>6.3</speed>
<course>183.3</course>
<desc>Speed 6.3 km/h Distance 62.92 km</desc>
<time>2010-08-28T16:47:28.77</time>
<name>2300</name>
</trkpt>
<trkpt lat="49.536475" lon="9.077128">
<ele>472.5</ele>
<speed>6.3</speed>
<course>241.1</course>
<desc>Speed 6.3 km/h Distance 62.93 km</desc>
<time>2010-08-28T16:47:30.76</time>
<name>2301</name>
</trkpt>
<trkpt lat="49.536418" lon="9.076970">
<ele>472.5</ele>
<speed>6.3</speed>
<course>270.0</course>
<desc>Speed 6.3 km/h Distance 62.95 km</desc>
<time>2010-08-28T16:47:33.76</time>
<name>2302</name>
</trkpt>
<trkpt lat="49.536418" lon="9.076965">
<ele>472.5</ele>
<speed>6.3</speed>
<course>260.3</course>
<desc>Speed 6.3 km/h Distance 62.95 km</desc>
<time>2010-08-28T16:47:34.76</time>
<name>2303</name>
</trkpt>
<trkpt lat="49.536417" lon="9.076950">
<ele>472.5</ele>
<speed>6.3</speed>
<course>270.0</course>
<desc>Speed 6.3 km/h Distance 62.95 km</desc>
<time>2010-08-28T16:47:35.75</time>
<name>2304</name>
</trkpt>
<trkpt lat="49.536417" lon="9.076940">
<ele>472.5</ele>
<speed>6.3</speed>
<course>207.4</course>
<desc>Speed 6.3 km/h Distance 62.95 km</desc>
<time>2010-08-28T16:47:36.75</time>
<name>2305</name>
</trkpt>
<trkpt lat="49.536260" lon="9.076815">
<ele>472.5</ele>
<speed>6.3</speed>
<course>200.2</course>
<desc>Speed 6.3 km/h Distance 62.97 km</desc>
<time>2010-08-28T16:47:47.75</time>
<name>2306</name>
</trkpt>
<trkpt lat="49.536248" lon="9.076808">
<ele>472.5</ele>
<speed>6.3</speed>
<course>180.0</course>
<desc>Speed 6.3 km/h Distance 62.97 km</desc>
<time>2010-08-28T16:47:48.75</time>
<name>2307</name>
</trkpt>
<trkpt lat="49.536247" lon="9.076808">
<ele>472.5</ele>
<speed>6.3</speed>
<course>167.4</course>
<desc>Speed 6.3 km/h Distance 62.97 km</desc>
<time>2010-08-28T16:47:49.75</time>
<name>2308</name>
</trkpt>
<trkpt lat="49.536245" lon="9.076808">
<ele>472.5</ele>
<speed>6.3</speed>
<course>5.0</course>
<desc>Speed 6.3 km/h Distance 62.97 km</desc>
<time>2010-08-28T16:47:50.75</time>
<name>2309</name>
</trkpt>
<trkpt lat="49.536270" lon="9.076812">
<ele>472.5</ele>
<speed>6.3</speed>
<course>14.9</course>
<desc>Speed 6.3 km/h Distance 62.97 km</desc>
<time>2010-08-28T16:47:51.75</time>
<name>2310</name>
</trkpt>
<trkpt lat="49.536278" lon="9.076815">
<ele>472.5</ele>
<speed>6.3</speed>
<course>12.6</course>
<desc>Speed 6.3 km/h Distance 62.97 km</desc>
<time>2010-08-28T16:47:52.75</time>
<name>2311</name>
</trkpt>
<trkpt lat="49.536282" lon="9.076817">
<ele>472.5</ele>
<speed>6.3</speed>
<course>29.2</course>
<desc>Speed 6.3 km/h Distance 62.97 km</desc>
<time>2010-08-28T16:47:53.75</time>
<name>2312</name>
</trkpt>
<trkpt lat="49.536283" lon="9.076818">
<ele>472.5</ele>
<speed>6.3</speed>
<course>17.5</course>
<desc>Speed 6.3 km/h Distance 62.97 km</desc>
<time>2010-08-28T16:47:54.75</time>
<name>2313</name>
</trkpt>
<trkpt lat="49.536403" lon="9.076877">
<ele>472.5</ele>
<speed>6.3</speed>
<course>12.6</course>
<desc>Speed 6.3 km/h Distance 62.99 km</desc>
<time>2010-08-28T16:47:57.74</time>
<name>2314</name>
</trkpt>
<trkpt lat="49.536407" lon="9.076878">
<ele>472.5</ele>
<speed>6.3</speed>
<course>17.9</course>
<desc>Speed 6.3 km/h Distance 62.99 km</desc>
<time>2010-08-28T16:47:58.74</time>
<name>2315</name>
</trkpt>
<trkpt lat="49.536427" lon="9.076888">
<ele>472.5</ele>
<speed>6.3</speed>
<course>5.3</course>
<desc>Speed 6.3 km/h Distance 62.99 km</desc>
<time>2010-08-28T16:47:59.74</time>
<name>2316</name>
</trkpt>
<trkpt lat="49.536440" lon="9.076890">
<ele>472.5</ele>
<speed>6.3</speed>
<course>347.4</course>
<desc>Speed 6.3 km/h Distance 62.99 km</desc>
<time>2010-08-28T16:48:00.74</time>
<name>2317</name>
</trkpt>
<trkpt lat="49.536447" lon="9.076888">
<ele>472.5</ele>
<speed>6.3</speed>
<course>8.1</course>
<desc>Speed 6.3 km/h Distance 62.99 km</desc>
<time>2010-08-28T16:48:01.74</time>
<name>2318</name>
</trkpt>
<trkpt lat="49.536452" lon="9.076888">
<ele>472.5</ele>
<speed>6.3</speed>
<course>195.5</course>
<desc>Speed 6.3 km/h Distance 62.99 km</desc>
<time>2010-08-28T16:48:02.74</time>
<name>2319</name>
</trkpt>
<trkpt lat="49.536007" lon="9.076698">
<ele>472.5</ele>
<speed>6.3</speed>
<course>227.0</course>
<desc>Speed 6.3 km/h Distance 63.04 km</desc>
<time>2010-08-28T16:48:13.75</time>
<name>2320</name>
</trkpt>
<trkpt lat="49.535907" lon="9.076533">
<ele>472.5</ele>
<speed>6.3</speed>
<course>202.2</course>
<desc>Speed 6.3 km/h Distance 63.06 km</desc>
<time>2010-08-28T16:48:16.74</time>
<name>2321</name>
</trkpt>
<trkpt lat="49.535902" lon="9.076530">
<ele>472.5</ele>
<speed>6.3</speed>
<course>231.9</course>
<desc>Speed 6.3 km/h Distance 63.06 km</desc>
<time>2010-08-28T16:48:17.74</time>
<name>2322</name>
</trkpt>
<trkpt lat="49.535900" lon="9.076527">
<ele>472.5</ele>
<speed>6.3</speed>
<course>252.9</course>
<desc>Speed 6.3 km/h Distance 63.06 km</desc>
<time>2010-08-28T16:48:18.74</time>
<name>2323</name>
</trkpt>
<trkpt lat="49.535898" lon="9.076518">
<ele>472.5</ele>
<speed>6.3</speed>
<course>5.5</course>
<desc>Speed 6.3 km/h Distance 63.06 km</desc>
<time>2010-08-28T16:48:19.75</time>
<name>2324</name>
</trkpt>
<trkpt lat="49.536000" lon="9.076533">
<ele>472.5</ele>
<speed>6.3</speed>
<course>5.5</course>
<desc>Speed 6.3 km/h Distance 63.07 km</desc>
<time>2010-08-28T16:48:21.74</time>
<name>2325</name>
</trkpt>
<trkpt lat="49.536022" lon="9.076537">
<ele>472.5</ele>
<speed>6.3</speed>
<course>12.6</course>
<desc>Speed 6.3 km/h Distance 63.08 km</desc>
<time>2010-08-28T16:48:22.74</time>
<name>2326</name>
</trkpt>
<trkpt lat="49.536032" lon="9.076540">
<ele>472.5</ele>
<speed>6.3</speed>
<course>0.0</course>
<desc>Speed 6.3 km/h Distance 63.08 km</desc>
<time>2010-08-28T16:48:23.73</time>
<name>2327</name>
</trkpt>
<trkpt lat="49.536035" lon="9.076540">
<ele>472.5</ele>
<speed>6.3</speed>
<course>9.4</course>
<desc>Speed 6.3 km/h Distance 63.08 km</desc>
<time>2010-08-28T16:48:24.73</time>
<name>2328</name>
</trkpt>
<trkpt lat="49.536113" lon="9.076560">
<ele>472.5</ele>
<speed>6.3</speed>
<course>0.0</course>
<desc>Speed 6.3 km/h Distance 63.09 km</desc>
<time>2010-08-28T16:48:26.73</time>
<name>2329</name>
</trkpt>
<trkpt lat="49.536123" lon="9.076560">
<ele>472.5</ele>
<speed>6.3</speed>
<course>337.8</course>
<desc>Speed 6.3 km/h Distance 63.09 km</desc>
<time>2010-08-28T16:48:27.73</time>
<name>2330</name>
</trkpt>
<trkpt lat="49.536128" lon="9.076557">
<ele>472.5</ele>
<speed>6.3</speed>
<course>6.0</course>
<desc>Speed 6.3 km/h Distance 63.09 km</desc>
<time>2010-08-28T16:48:28.73</time>
<name>2331</name>
</trkpt>
<trkpt lat="49.536220" lon="9.076572">
<ele>472.5</ele>
<speed>6.3</speed>
<course>24.8</course>
<desc>Speed 6.3 km/h Distance 63.10 km</desc>
<time>2010-08-28T16:48:30.73</time>
<name>2332</name>
</trkpt>
<trkpt lat="49.536227" lon="9.076577">
<ele>472.5</ele>
<speed>6.3</speed>
<course>33.7</course>
<desc>Speed 6.3 km/h Distance 63.10 km</desc>
<time>2010-08-28T16:48:31.73</time>
<name>2333</name>
</trkpt>
<trkpt lat="49.536230" lon="9.076580">
<ele>472.5</ele>
<speed>6.3</speed>
<course>14.0</course>
<desc>Speed 6.3 km/h Distance 63.10 km</desc>
<time>2010-08-28T16:48:32.73</time>
<name>2334</name>
</trkpt>
<trkpt lat="49.536243" lon="9.076585">
<ele>472.5</ele>
<speed>6.3</speed>
<course>7.7</course>
<desc>Speed 6.3 km/h Distance 63.10 km</desc>
<time>2010-08-28T16:48:33.73</time>
<name>2335</name>
</trkpt>
<trkpt lat="49.536252" lon="9.076587">
<ele>472.5</ele>
<speed>6.3</speed>
<course>33.7</course>
<desc>Speed 6.3 km/h Distance 63.10 km</desc>
<time>2010-08-28T16:48:34.73</time>
<name>2336</name>
</trkpt>
<trkpt lat="49.536255" lon="9.076590">
<ele>472.5</ele>
<speed>6.3</speed>
<course>53.9</course>
<desc>Speed 6.3 km/h Distance 63.10 km</desc>
<time>2010-08-28T16:48:35.73</time>
<name>2337</name>
</trkpt>
<trkpt lat="49.536257" lon="9.076593">
<ele>472.5</ele>
<speed>6.3</speed>
<course>34.1</course>
<desc>Speed 6.3 km/h Distance 63.10 km</desc>
<time>2010-08-28T16:48:36.73</time>
<name>2338</name>
</trkpt>
<trkpt lat="49.536262" lon="9.076598">
<ele>472.5</ele>
<speed>6.3</speed>
<course>12.6</course>
<desc>Speed 6.3 km/h Distance 63.10 km</desc>
<time>2010-08-28T16:48:37.73</time>
<name>2339</name>
</trkpt>
<trkpt lat="49.536267" lon="9.076600">
<ele>472.5</ele>
<speed>6.3</speed>
<course>51.9</course>
<desc>Speed 6.3 km/h Distance 63.10 km</desc>
<time>2010-08-28T16:48:38.73</time>
<name>2340</name>
</trkpt>
<trkpt lat="49.536270" lon="9.076607">
<ele>472.5</ele>
<speed>6.3</speed>
<course>62.6</course>
<desc>Speed 6.3 km/h Distance 63.10 km</desc>
<time>2010-08-28T16:48:39.72</time>
<name>2341</name>
</trkpt>
<trkpt lat="49.536272" lon="9.076612">
<ele>472.5</ele>
<speed>6.3</speed>
<course>9.5</course>
<desc>Speed 6.3 km/h Distance 63.11 km</desc>
<time>2010-08-28T16:48:40.73</time>
<name>2342</name>
</trkpt>
<trkpt lat="49.536292" lon="9.076617">
<ele>472.5</ele>
<speed>6.3</speed>
<course>6.1</course>
<desc>Speed 6.3 km/h Distance 63.11 km</desc>
<time>2010-08-28T16:48:41.73</time>
<name>2343</name>
</trkpt>
<trkpt lat="49.536312" lon="9.076620">
<ele>472.5</ele>
<speed>6.3</speed>
<course>52.4</course>
<desc>Speed 6.3 km/h Distance 63.11 km</desc>
<time>2010-08-28T16:48:42.72</time>
<name>2344</name>
</trkpt>
<trkpt lat="49.536320" lon="9.076637">
<ele>472.5</ele>
<speed>6.3</speed>
<course>47.1</course>
<desc>Speed 6.3 km/h Distance 63.11 km</desc>
<time>2010-08-28T16:48:43.72</time>
<name>2345</name>
</trkpt>
<trkpt lat="49.536325" lon="9.076645">
<ele>472.5</ele>
<speed>6.3</speed>
<course>62.6</course>
<desc>Speed 6.3 km/h Distance 63.11 km</desc>
<time>2010-08-28T16:48:44.72</time>
<name>2346</name>
</trkpt>
<trkpt lat="49.536327" lon="9.076650">
<ele>472.5</ele>
<speed>6.3</speed>
<course>128.1</course>
<desc>Speed 6.3 km/h Distance 63.11 km</desc>
<time>2010-08-28T16:48:45.72</time>
<name>2347</name>
</trkpt>
<trkpt lat="49.536325" lon="9.076653">
<ele>472.5</ele>
<speed>6.3</speed>
<course>100.8</course>
<desc>Speed 6.3 km/h Distance 63.11 km</desc>
<time>2010-08-28T16:48:46.72</time>
<name>2348</name>
</trkpt>
<trkpt lat="49.536323" lon="9.076667">
<ele>472.5</ele>
<speed>6.3</speed>
<course>90.0</course>
<desc>Speed 6.3 km/h Distance 63.11 km</desc>
<time>2010-08-28T16:48:47.72</time>
<name>2349</name>
</trkpt>
<trkpt lat="49.536323" lon="9.076677">
<ele>472.5</ele>
<speed>6.3</speed>
<course>117.4</course>
<desc>Speed 6.3 km/h Distance 63.11 km</desc>
<time>2010-08-28T16:48:48.72</time>
<name>2350</name>
</trkpt>
<trkpt lat="49.536322" lon="9.076682">
<ele>472.5</ele>
<speed>6.3</speed>
<course>150.8</course>
<desc>Speed 6.3 km/h Distance 63.11 km</desc>
<time>2010-08-28T16:48:49.72</time>
<name>2351</name>
</trkpt>
<trkpt lat="49.536320" lon="9.076683">
<ele>472.5</ele>
<speed>6.3</speed>
<course>100.9</course>
<desc>Speed 6.3 km/h Distance 63.11 km</desc>
<time>2010-08-28T16:48:50.72</time>
<name>2352</name>
</trkpt>
<trkpt lat="49.536318" lon="9.076697">
<ele>472.5</ele>
<speed>6.3</speed>
<course>90.0</course>
<desc>Speed 6.3 km/h Distance 63.12 km</desc>
<time>2010-08-28T16:48:51.72</time>
<name>2353</name>
</trkpt>
<trkpt lat="49.536318" lon="9.076702">
<ele>472.5</ele>
<speed>6.3</speed>
<course>170.4</course>
<desc>Speed 6.3 km/h Distance 63.12 km</desc>
<time>2010-08-28T16:48:52.72</time>
<name>2354</name>
</trkpt>
<trkpt lat="49.536310" lon="9.076703">
<ele>472.5</ele>
<speed>6.3</speed>
<course>167.4</course>
<desc>Speed 6.3 km/h Distance 63.12 km</desc>
<time>2010-08-28T16:48:53.72</time>
<name>2355</name>
</trkpt>
<trkpt lat="49.536305" lon="9.076705">
<ele>472.5</ele>
<speed>6.3</speed>
<course>180.0</course>
<desc>Speed 6.3 km/h Distance 63.12 km</desc>
<time>2010-08-28T16:48:54.72</time>
<name>2356</name>
</trkpt>
<trkpt lat="49.536302" lon="9.076705">
<ele>472.5</ele>
<speed>6.3</speed>
<course>192.6</course>
<desc>Speed 6.3 km/h Distance 63.12 km</desc>
<time>2010-08-28T16:48:55.72</time>
<name>2357</name>
</trkpt>
<trkpt lat="49.536300" lon="9.076703">
<ele>472.5</ele>
<speed>6.3</speed>
<course>270.0</course>
<desc>Speed 6.3 km/h Distance 63.12 km</desc>
<time>2010-08-28T16:48:56.72</time>
<name>2358</name>
</trkpt>
<trkpt lat="49.536300" lon="9.076702">
<ele>472.5</ele>
<speed>6.3</speed>
<course>182.8</course>
<desc>Speed 6.3 km/h Distance 63.12 km</desc>
<time>2010-08-28T16:48:57.71</time>
<name>2359</name>
</trkpt>
<trkpt lat="49.536283" lon="9.076700">
<ele>472.5</ele>
<speed>6.3</speed>
<course>167.4</course>
<desc>Speed 6.3 km/h Distance 63.12 km</desc>
<time>2010-08-28T16:48:58.71</time>
<name>2360</name>
</trkpt>
<trkpt lat="49.536282" lon="9.076700">
<ele>472.5</ele>
<speed>6.3</speed>
<course>242.6</course>
<desc>Speed 6.3 km/h Distance 63.12 km</desc>
<time>2010-08-28T16:48:59.71</time>
<name>2361</name>
</trkpt>
<trkpt lat="49.536278" lon="9.076690">
<ele>472.5</ele>
<speed>6.3</speed>
<course>270.0</course>
<desc>Speed 6.3 km/h Distance 63.12 km</desc>
<time>2010-08-28T16:49:00.71</time>
<name>2362</name>
</trkpt>
<trkpt lat="49.536278" lon="9.076683">
<ele>472.5</ele>
<speed>6.3</speed>
<course>231.9</course>
<desc>Speed 6.3 km/h Distance 63.12 km</desc>
<time>2010-08-28T16:49:01.71</time>
<name>2363</name>
</trkpt>
<trkpt lat="49.536277" lon="9.076680">
<ele>472.5</ele>
<speed>6.3</speed>
<course>198.8</course>
<desc>Speed 6.3 km/h Distance 63.12 km</desc>
<time>2010-08-28T16:49:02.71</time>
<name>2364</name>
</trkpt>
<trkpt lat="49.536273" lon="9.076678">
<ele>472.5</ele>
<speed>6.3</speed>
<course>234.6</course>
<desc>Speed 6.3 km/h Distance 63.12 km</desc>
<time>2010-08-28T16:49:03.71</time>
<name>2365</name>
</trkpt>
<trkpt lat="49.536263" lon="9.076657">
<ele>472.5</ele>
<speed>6.3</speed>
<course>236.7</course>
<desc>Speed 6.3 km/h Distance 63.12 km</desc>
<time>2010-08-28T16:49:04.72</time>
<name>2366</name>
</trkpt>
<trkpt lat="49.536258" lon="9.076645">
<ele>472.5</ele>
<speed>6.3</speed>
<course>270.0</course>
<desc>Speed 6.3 km/h Distance 63.13 km</desc>
<time>2010-08-28T16:49:05.71</time>
<name>2367</name>
</trkpt>
<trkpt lat="49.536258" lon="9.076640">
<ele>472.5</ele>
<speed>6.3</speed>
<course>270.0</course>
<desc>Speed 6.3 km/h Distance 63.13 km</desc>
<time>2010-08-28T16:49:06.71</time>
<name>2368</name>
</trkpt>
<trkpt lat="49.536258" lon="9.076637">
<ele>472.5</ele>
<speed>6.3</speed>
<course>254.4</course>
<desc>Speed 6.3 km/h Distance 63.13 km</desc>
<time>2010-08-28T16:49:07.71</time>
<name>2369</name>
</trkpt>
<trkpt lat="49.536255" lon="9.076618">
<ele>472.5</ele>
<speed>6.3</speed>
<course>255.6</course>
<desc>Speed 6.3 km/h Distance 63.13 km</desc>
<time>2010-08-28T16:49:08.71</time>
<name>2370</name>
</trkpt>
<trkpt lat="49.536253" lon="9.076608">
<ele>472.5</ele>
<speed>6.3</speed>
<course>287.1</course>
<desc>Speed 6.3 km/h Distance 63.13 km</desc>
<time>2010-08-28T16:49:09.71</time>
<name>2371</name>
</trkpt>
<trkpt lat="49.536255" lon="9.076600">
<ele>472.5</ele>
<speed>6.3</speed>
<course>306.1</course>
<desc>Speed 6.3 km/h Distance 63.13 km</desc>
<time>2010-08-28T16:49:10.71</time>
<name>2372</name>
</trkpt>
<trkpt lat="49.536257" lon="9.076597">
<ele>472.5</ele>
<speed>6.3</speed>
<course>274.2</course>
<desc>Speed 6.3 km/h Distance 63.13 km</desc>
<time>2010-08-28T16:49:11.71</time>
<name>2373</name>
</trkpt>
<trkpt lat="49.536258" lon="9.076562">
<ele>472.5</ele>
<speed>6.3</speed>
<course>270.0</course>
<desc>Speed 6.3 km/h Distance 63.13 km</desc>
<time>2010-08-28T16:49:12.71</time>
<name>2374</name>
</trkpt>
<trkpt lat="49.536258" lon="9.076552">
<ele>472.5</ele>
<speed>6.3</speed>
<course>336.2</course>
<desc>Speed 6.3 km/h Distance 63.13 km</desc>
<time>2010-08-28T16:49:13.71</time>
<name>2375</name>
</trkpt>
<trkpt lat="49.536263" lon="9.076548">
<ele>472.5</ele>
<speed>6.3</speed>
<course>345.1</course>
<desc>Speed 6.3 km/h Distance 63.13 km</desc>
<time>2010-08-28T16:49:14.71</time>
<name>2376</name>
</trkpt>
<trkpt lat="49.536272" lon="9.076545">
<ele>472.5</ele>
<speed>6.3</speed>
<course>290.9</course>
<desc>Speed 6.3 km/h Distance 63.13 km</desc>
<time>2010-08-28T16:49:15.71</time>
<name>2377</name>
</trkpt>
<trkpt lat="49.536273" lon="9.076538">
<ele>472.5</ele>
<speed>6.3</speed>
<course>315.5</course>
<desc>Speed 6.3 km/h Distance 63.13 km</desc>
<time>2010-08-28T16:49:16.70</time>
<name>2378</name>
</trkpt>
<trkpt lat="49.536277" lon="9.076533">
<ele>472.5</ele>
<speed>6.3</speed>
<course>330.8</course>
<desc>Speed 6.3 km/h Distance 63.13 km</desc>
<time>2010-08-28T16:49:17.70</time>
<name>2379</name>
</trkpt>
<trkpt lat="49.536278" lon="9.076532">
<ele>472.5</ele>
<speed>6.3</speed>
<course>12.6</course>
<desc>Speed 6.3 km/h Distance 63.14 km</desc>
<time>2010-08-28T16:49:18.71</time>
<name>2380</name>
</trkpt>
<trkpt lat="49.536280" lon="9.076532">
<ele>472.5</ele>
<speed>6.3</speed>
<course>270.0</course>
<desc>Speed 6.3 km/h Distance 63.14 km</desc>
<time>2010-08-28T16:49:19.73</time>
<name>2381</name>
</trkpt>
<trkpt lat="49.536280" lon="9.076523">
<ele>472.5</ele>
<speed>6.3</speed>
<course>242.6</course>
<desc>Speed 6.3 km/h Distance 63.14 km</desc>
<time>2010-08-28T16:49:20.70</time>
<name>2382</name>
</trkpt>
<trkpt lat="49.536278" lon="9.076518">
<ele>472.5</ele>
<speed>6.3</speed>
<course>322.8</course>
<desc>Speed 6.3 km/h Distance 63.14 km</desc>
<time>2010-08-28T16:49:21.70</time>
<name>2383</name>
</trkpt>
<trkpt lat="49.536280" lon="9.076517">
<ele>472.5</ele>
<speed>6.3</speed>
<course>270.0</course>
<desc>Speed 6.3 km/h Distance 63.14 km</desc>
<time>2010-08-28T16:49:22.70</time>
<name>2384</name>
</trkpt>
<trkpt lat="49.536280" lon="9.076515">
<ele>472.5</ele>
<speed>6.3</speed>
<course>242.6</course>
<desc>Speed 6.3 km/h Distance 63.14 km</desc>
<time>2010-08-28T16:49:23.70</time>
<name>2385</name>
</trkpt>
<trkpt lat="49.536278" lon="9.076510">
<ele>472.5</ele>
<speed>6.3</speed>
<course>270.0</course>
<desc>Speed 6.3 km/h Distance 63.14 km</desc>
<time>2010-08-28T16:49:24.70</time>
<name>2386</name>
</trkpt>
<trkpt lat="49.536278" lon="9.076508">
<ele>472.5</ele>
<speed>6.3</speed>
<course>270.0</course>
<desc>Speed 6.3 km/h Distance 63.14 km</desc>
<time>2010-08-28T16:49:25.70</time>
<name>2387</name>
</trkpt>
<trkpt lat="49.536278" lon="9.076507">
<ele>472.5</ele>
<speed>6.3</speed>
<course>270.0</course>
<desc>Speed 6.3 km/h Distance 63.14 km</desc>
<time>2010-08-28T16:49:26.70</time>
<name>2388</name>
</trkpt>
<trkpt lat="49.536278" lon="9.076507">
<ele>472.5</ele>
<speed>6.3</speed>
<course>33.0</course>
<desc>Speed 6.3 km/h Distance 63.14 km</desc>
<time>2010-08-28T16:49:27.70</time>
<name>2389</name>
</trkpt>
<trkpt lat="49.536298" lon="9.076527">
<ele>472.5</ele>
<speed>4.9</speed>
<course>65.1</course>
<desc>Speed 4.9 km/h Distance 63.14 km</desc>
<time>2010-08-28T16:49:28.70</time>
<name>2390</name>
</trkpt>
<trkpt lat="49.536303" lon="9.076543">
<ele>472.5</ele>
<speed>4.9</speed>
<course>66.3</course>
<desc>Speed 4.9 km/h Distance 63.14 km</desc>
<time>2010-08-28T16:49:29.70</time>
<name>2391</name>
</trkpt>
<trkpt lat="49.536307" lon="9.076555">
<ele>472.5</ele>
<speed>4.9</speed>
<course>72.9</course>
<desc>Speed 4.9 km/h Distance 63.14 km</desc>
<time>2010-08-28T16:49:30.70</time>
<name>2392</name>
</trkpt>
<trkpt lat="49.536308" lon="9.076563">
<ele>472.5</ele>
<speed>4.9</speed>
<course>77.6</course>
<desc>Speed 4.9 km/h Distance 63.14 km</desc>
<time>2010-08-28T16:49:31.70</time>
<name>2393</name>
</trkpt>
<trkpt lat="49.536312" lon="9.076587">
<ele>472.5</ele>
<speed>4.9</speed>
<course>90.0</course>
<desc>Speed 4.9 km/h Distance 63.14 km</desc>
<time>2010-08-28T16:49:32.70</time>
<name>2394</name>
</trkpt>
<trkpt lat="49.536312" lon="9.076600">
<ele>472.5</ele>
<speed>4.9</speed>
<course>90.0</course>
<desc>Speed 4.9 km/h Distance 63.15 km</desc>
<time>2010-08-28T16:49:33.70</time>
<name>2395</name>
</trkpt>
<trkpt lat="49.536312" lon="9.076607">
<ele>472.5</ele>
<speed>4.9</speed>
<course>51.9</course>
<desc>Speed 4.9 km/h Distance 63.15 km</desc>
<time>2010-08-28T16:49:34.70</time>
<name>2396</name>
</trkpt>
<trkpt lat="49.536315" lon="9.076613">
<ele>472.5</ele>
<speed>4.9</speed>
<course>228.8</course>
<desc>Speed 4.9 km/h Distance 63.15 km</desc>
<time>2010-08-28T16:49:35.70</time>
<name>2397</name>
</trkpt>
<trkpt lat="49.536112" lon="9.076255">
<ele>472.5</ele>
<speed>4.9</speed>
<course>180.0</course>
<desc>Speed 4.9 km/h Distance 63.18 km</desc>
<time>2010-08-28T16:50:45.69</time>
<name>2398</name>
</trkpt>
<trkpt lat="49.536095" lon="9.076255">
<ele>472.5</ele>
<speed>4.9</speed>
<course>167.4</course>
<desc>Speed 4.9 km/h Distance 63.18 km</desc>
<time>2010-08-28T16:50:46.69</time>
<name>2399</name>
</trkpt>
<trkpt lat="49.536085" lon="9.076258">
<ele>472.5</ele>
<speed>4.9</speed>
<course>161.2</course>
<desc>Speed 4.9 km/h Distance 63.18 km</desc>
<time>2010-08-28T16:50:47.69</time>
<name>2400</name>
</trkpt>
<trkpt lat="49.536078" lon="9.076262">
<ele>472.5</ele>
<speed>4.9</speed>
<course>157.8</course>
<desc>Speed 4.9 km/h Distance 63.18 km</desc>
<time>2010-08-28T16:50:48.69</time>
<name>2401</name>
</trkpt>
<trkpt lat="49.536073" lon="9.076265">
<ele>472.5</ele>
<speed>4.9</speed>
<course>159.8</course>
<desc>Speed 4.9 km/h Distance 63.19 km</desc>
<time>2010-08-28T16:50:49.69</time>
<name>2402</name>
</trkpt>
<trkpt lat="49.536062" lon="9.076272">
<ele>472.5</ele>
<speed>4.9</speed>
<course>156.2</course>
<desc>Speed 4.9 km/h Distance 63.19 km</desc>
<time>2010-08-28T16:50:50.69</time>
<name>2403</name>
</trkpt>
<trkpt lat="49.536052" lon="9.076278">
<ele>472.5</ele>
<speed>4.9</speed>
<course>159.8</course>
<desc>Speed 4.9 km/h Distance 63.19 km</desc>
<time>2010-08-28T16:50:51.69</time>
<name>2404</name>
</trkpt>
<trkpt lat="49.536040" lon="9.076285">
<ele>472.5</ele>
<speed>4.9</speed>
<course>46.7</course>
<desc>Speed 4.9 km/h Distance 63.19 km</desc>
<time>2010-08-28T16:50:52.69</time>
<name>2405</name>
</trkpt>
<trkpt lat="49.536447" lon="9.076950">
<ele>472.5</ele>
<speed>4.9</speed>
<course>89.2</course>
<desc>Speed 4.9 km/h Distance 63.26 km</desc>
<time>2010-08-28T16:53:19.65</time>
<name>2406</name>
</trkpt>
<trkpt lat="49.536462" lon="9.078660">
<ele>472.0</ele>
<speed>4.9</speed>
<course>268.4</course>
<desc>Speed 4.9 km/h Distance 63.38 km</desc>
<time>2010-08-28T16:53:35.64</time>
<name>2407</name>
</trkpt>
<trkpt lat="49.536453" lon="9.078195">
<ele>472.5</ele>
<speed>4.9</speed>
<course>221.8</course>
<desc>Speed 4.9 km/h Distance 63.41 km</desc>
<time>2010-08-28T16:54:41.62</time>
<name>2408</name>
</trkpt>
<trkpt lat="49.536365" lon="9.078073">
<ele>472.5</ele>
<speed>4.9</speed>
<course>268.8</course>
<desc>Speed 4.9 km/h Distance 63.43 km</desc>
<time>2010-08-28T16:54:44.62</time>
<name>2409</name>
</trkpt>
<trkpt lat="49.536363" lon="9.077953">
<ele>472.5</ele>
<speed>4.9</speed>
<course>236.6</course>
<desc>Speed 4.9 km/h Distance 63.43 km</desc>
<time>2010-08-28T16:54:46.62</time>
<name>2410</name>
</trkpt>
<trkpt lat="49.536348" lon="9.077918">
<ele>472.5</ele>
<speed>4.9</speed>
<course>236.6</course>
<desc>Speed 4.9 km/h Distance 63.44 km</desc>
<time>2010-08-28T16:54:47.62</time>
<name>2411</name>
</trkpt>
<trkpt lat="49.536343" lon="9.077907">
<ele>472.5</ele>
<speed>4.9</speed>
<course>232.4</course>
<desc>Speed 4.9 km/h Distance 63.44 km</desc>
<time>2010-08-28T16:54:48.62</time>
<name>2412</name>
</trkpt>
<trkpt lat="49.536340" lon="9.077900">
<ele>472.5</ele>
<speed>4.9</speed>
<course>244.0</course>
<desc>Speed 4.9 km/h Distance 63.44 km</desc>
<time>2010-08-28T16:54:49.62</time>
<name>2413</name>
</trkpt>
<trkpt lat="49.536038" lon="9.076945">
<ele>469.5</ele>
<speed>3.1</speed>
<course>244.1</course>
<desc>Speed 3.1 km/h Distance 63.52 km</desc>
<time>2010-08-28T16:54:54.62</time>
<name>2414</name>
</trkpt>
<trkpt lat="49.536028" lon="9.076913">
<ele>469.5</ele>
<speed>0.8</speed>
<course>187.4</course>
<desc>Speed 0.8 km/h Distance 63.52 km</desc>
<time>2010-08-28T16:54:56.64</time>
<name>2415</name>
</trkpt>
<trkpt lat="49.536022" lon="9.076912">
<ele>469.5</ele>
<speed>1.8</speed>
<course>209.2</course>
<desc>Speed 1.8 km/h Distance 63.52 km</desc>
<time>2010-08-28T16:54:57.63</time>
<name>2416</name>
</trkpt>
<trkpt lat="49.536020" lon="9.076910">
<ele>469.5</ele>
<speed>0.8</speed>
<course>12.6</course>
<desc>Speed 0.8 km/h Distance 63.52 km</desc>
<time>2010-08-28T16:54:58.63</time>
<name>2417</name>
</trkpt>
<trkpt lat="49.536023" lon="9.076912">
<ele>469.5</ele>
<speed>0.8</speed>
<course>12.6</course>
<desc>Speed 0.8 km/h Distance 63.52 km</desc>
<time>2010-08-28T16:54:59.63</time>
<name>2418</name>
</trkpt>
<trkpt lat="49.536025" lon="9.076913">
<ele>469.5</ele>
<speed>0.8</speed>
<course>7.4</course>
<desc>Speed 0.8 km/h Distance 63.52 km</desc>
<time>2010-08-28T16:55:00.62</time>
<name>2419</name>
</trkpt>
<trkpt lat="49.536032" lon="9.076915">
<ele>469.5</ele>
<speed>0.8</speed>
<course>4.4</course>
<desc>Speed 0.8 km/h Distance 63.52 km</desc>
<time>2010-08-28T16:55:01.61</time>
<name>2420</name>
</trkpt>
<trkpt lat="49.536042" lon="9.076917">
<ele>469.5</ele>
<speed>0.8</speed>
<course>3.8</course>
<desc>Speed 0.8 km/h Distance 63.52 km</desc>
<time>2010-08-28T16:55:02.61</time>
<name>2421</name>
</trkpt>
<trkpt lat="49.536057" lon="9.076918">
<ele>469.5</ele>
<speed>0.8</speed>
<course>352.9</course>
<desc>Speed 0.8 km/h Distance 63.52 km</desc>
<time>2010-08-28T16:55:03.61</time>
<name>2422</name>
</trkpt>
<trkpt lat="49.536100" lon="9.076910">
<ele>469.5</ele>
<speed>1.3</speed>
<course>279.7</course>
<desc>Speed 1.3 km/h Distance 63.53 km</desc>
<time>2010-08-28T16:55:05.63</time>
<name>2423</name>
</trkpt>
<trkpt lat="49.536103" lon="9.076880">
<ele>469.5</ele>
<speed>0.7</speed>
<course>257.6</course>
<desc>Speed 0.7 km/h Distance 63.53 km</desc>
<time>2010-08-28T16:55:06.63</time>
<name>2424</name>
</trkpt>
<trkpt lat="49.536102" lon="9.076868">
<ele>469.5</ele>
<speed>3.3</speed>
<course>60.8</course>
<desc>Speed 3.3 km/h Distance 63.53 km</desc>
<time>2010-08-28T16:55:07.63</time>
<name>2425</name>
</trkpt>
<trkpt lat="49.536150" lon="9.077002">
<ele>469.0</ele>
<speed>1.7</speed>
<course>37.2</course>
<desc>Speed 1.7 km/h Distance 63.54 km</desc>
<time>2010-08-28T16:55:10.62</time>
<name>2426</name>
</trkpt>
<trkpt lat="49.536152" lon="9.077003">
<ele>469.0</ele>
<speed>1.7</speed>
<course>66.6</course>
<desc>Speed 1.7 km/h Distance 63.54 km</desc>
<time>2010-08-28T16:55:11.62</time>
<name>2427</name>
</trkpt>
<trkpt lat="49.536190" lon="9.077140">
<ele>469.0</ele>
<speed>1.8</speed>
<course>266.3</course>
<desc>Speed 1.8 km/h Distance 63.55 km</desc>
<time>2010-08-28T16:55:14.63</time>
<name>2428</name>
</trkpt>
<trkpt lat="49.536185" lon="9.077022">
<ele>469.0</ele>
<speed>1.4</speed>
<course>226.7</course>
<desc>Speed 1.4 km/h Distance 63.56 km</desc>
<time>2010-08-28T16:55:16.63</time>
<name>2429</name>
</trkpt>
<trkpt lat="49.536180" lon="9.077013">
<ele>469.0</ele>
<speed>1.4</speed>
<course>180.0</course>
<desc>Speed 1.4 km/h Distance 63.56 km</desc>
<time>2010-08-28T16:55:17.62</time>
<name>2430</name>
</trkpt>
<trkpt lat="49.536177" lon="9.077013">
<ele>469.0</ele>
<speed>1.4</speed>
<course>63.3</course>
<desc>Speed 1.4 km/h Distance 63.56 km</desc>
<time>2010-08-28T16:55:18.88</time>
<name>2431</name>
</trkpt>
<trkpt lat="49.536372" lon="9.077612">
<ele>469.0</ele>
<speed>2.4</speed>
<course>133.9</course>
<desc>Speed 2.4 km/h Distance 63.61 km</desc>
<time>2010-08-28T16:55:29.62</time>
<name>2432</name>
</trkpt>
<trkpt lat="49.536347" lon="9.077652">
<ele>469.0</ele>
<speed>2.4</speed>
<course>64.6</course>
<desc>Speed 2.4 km/h Distance 63.62 km</desc>
<time>2010-08-28T16:55:31.62</time>
<name>2433</name>
</trkpt>
<trkpt lat="49.536353" lon="9.077673">
<ele>469.0</ele>
<speed>3.5</speed>
<course>246.2</course>
<desc>Speed 3.5 km/h Distance 63.62 km</desc>
<time>2010-08-28T16:55:32.62</time>
<name>2434</name>
</trkpt>
<trkpt lat="49.536310" lon="9.077522">
<ele>468.5</ele>
<speed>5.0</speed>
<course>130.5</course>
<desc>Speed 5.0 km/h Distance 63.63 km</desc>
<time>2010-08-28T16:55:36.61</time>
<name>2435</name>
</trkpt>
<trkpt lat="49.536302" lon="9.077537">
<ele>468.5</ele>
<speed>5.0</speed>
<course>159.8</course>
<desc>Speed 5.0 km/h Distance 63.63 km</desc>
<time>2010-08-28T16:55:37.61</time>
<name>2436</name>
</trkpt>
<trkpt lat="49.536290" lon="9.077543">
<ele>468.5</ele>
<speed>5.0</speed>
<course>187.4</course>
<desc>Speed 5.0 km/h Distance 63.63 km</desc>
<time>2010-08-28T16:55:38.62</time>
<name>2437</name>
</trkpt>
<trkpt lat="49.536283" lon="9.077542">
<ele>468.5</ele>
<speed>5.0</speed>
<course>70.3</course>
<desc>Speed 5.0 km/h Distance 63.63 km</desc>
<time>2010-08-28T16:55:39.61</time>
<name>2438</name>
</trkpt>
<trkpt lat="49.536310" lon="9.077657">
<ele>468.5</ele>
<speed>2.7</speed>
<course>36.1</course>
<desc>Speed 2.7 km/h Distance 63.64 km</desc>
<time>2010-08-28T16:55:41.60</time>
<name>2439</name>
</trkpt>
<trkpt lat="49.536323" lon="9.077672">
<ele>468.5</ele>
<speed>2.7</speed>
<course>100.9</course>
<desc>Speed 2.7 km/h Distance 63.64 km</desc>
<time>2010-08-28T16:55:43.61</time>
<name>2440</name>
</trkpt>
<trkpt lat="49.536322" lon="9.077685">
<ele>468.5</ele>
<speed>1.2</speed>
<course>47.1</course>
<desc>Speed 1.2 km/h Distance 63.64 km</desc>
<time>2010-08-28T16:55:44.60</time>
<name>2441</name>
</trkpt>
<trkpt lat="49.536327" lon="9.077693">
<ele>468.5</ele>
<speed>1.2</speed>
<course>357.3</course>
<desc>Speed 1.2 km/h Distance 63.65 km</desc>
<time>2010-08-28T16:55:45.60</time>
<name>2442</name>
</trkpt>
<trkpt lat="49.536463" lon="9.077683">
<ele>468.0</ele>
<speed>3.9</speed>
<course>151.8</course>
<desc>Speed 3.9 km/h Distance 63.66 km</desc>
<time>2010-08-28T16:55:55.60</time>
<name>2443</name>
</trkpt>
<trkpt lat="49.536397" lon="9.077738">
<ele>468.0</ele>
<speed>3.9</speed>
<course>225.9</course>
<desc>Speed 3.9 km/h Distance 63.67 km</desc>
<time>2010-08-28T16:55:57.60</time>
<name>2444</name>
</trkpt>
<trkpt lat="49.536352" lon="9.077667">
<ele>468.0</ele>
<speed>4.8</speed>
<course>285.3</course>
<desc>Speed 4.8 km/h Distance 63.68 km</desc>
<time>2010-08-28T16:56:01.60</time>
<name>2445</name>
</trkpt>
<trkpt lat="49.536393" lon="9.077432">
<ele>467.5</ele>
<speed>3.1</speed>
<course>213.2</course>
<desc>Speed 3.1 km/h Distance 63.69 km</desc>
<time>2010-08-28T16:56:03.60</time>
<name>2446</name>
</trkpt>
<trkpt lat="49.536387" lon="9.077425">
<ele>467.0</ele>
<speed>1.6</speed>
<course>280.4</course>
<desc>Speed 1.6 km/h Distance 63.69 km</desc>
<time>2010-08-28T16:56:04.60</time>
<name>2447</name>
</trkpt>
<trkpt lat="49.536405" lon="9.077272">
<ele>466.5</ele>
<speed>2.9</speed>
<course>110.0</course>
<desc>Speed 2.9 km/h Distance 63.71 km</desc>
<time>2010-08-28T16:56:12.58</time>
<name>2448</name>
</trkpt>
<trkpt lat="49.536312" lon="9.077667">
<ele>466.0</ele>
<speed>2.2</speed>
<course>130.9</course>
<desc>Speed 2.2 km/h Distance 63.74 km</desc>
<time>2010-08-28T16:56:16.59</time>
<name>2449</name>
</trkpt>
<trkpt lat="49.536297" lon="9.077693">
<ele>466.0</ele>
<speed>1.5</speed>
<course>235.6</course>
<desc>Speed 1.5 km/h Distance 63.74 km</desc>
<time>2010-08-28T16:56:17.59</time>
<name>2450</name>
</trkpt>
<trkpt lat="49.536290" lon="9.077678">
<ele>466.0</ele>
<speed>0.9</speed>
<course>242.6</course>
<desc>Speed 0.9 km/h Distance 63.74 km</desc>
<time>2010-08-28T16:56:18.59</time>
<name>2451</name>
</trkpt>
<trkpt lat="49.536287" lon="9.077668">
<ele>466.0</ele>
<speed>0.5</speed>
<course>220.9</course>
<desc>Speed 0.5 km/h Distance 63.74 km</desc>
<time>2010-08-28T16:56:19.60</time>
<name>2452</name>
</trkpt>
<trkpt lat="49.536282" lon="9.077662">
<ele>466.0</ele>
<speed>2.9</speed>
<course>232.1</course>
<desc>Speed 2.9 km/h Distance 63.74 km</desc>
<time>2010-08-28T16:56:20.59</time>
<name>2453</name>
</trkpt>
<trkpt lat="49.536277" lon="9.077652">
<ele>466.0</ele>
<speed>2.9</speed>
<course>249.9</course>
<desc>Speed 2.9 km/h Distance 63.74 km</desc>
<time>2010-08-28T16:56:21.59</time>
<name>2454</name>
</trkpt>
<trkpt lat="49.536260" lon="9.077582">
<ele>466.0</ele>
<speed>1.3</speed>
<course>124.5</course>
<desc>Speed 1.3 km/h Distance 63.75 km</desc>
<time>2010-08-28T16:56:23.58</time>
<name>2455</name>
</trkpt>
<trkpt lat="49.536253" lon="9.077597">
<ele>466.0</ele>
<speed>0.4</speed>
<course>198.8</course>
<desc>Speed 0.4 km/h Distance 63.75 km</desc>
<time>2010-08-28T16:56:24.58</time>
<name>2456</name>
</trkpt>
<trkpt lat="49.536247" lon="9.077593">
<ele>466.0</ele>
<speed>0.4</speed>
<course>247.0</course>
<desc>Speed 0.4 km/h Distance 63.75 km</desc>
<time>2010-08-28T16:56:25.58</time>
<name>2457</name>
</trkpt>
<trkpt lat="49.536220" lon="9.077497">
<ele>466.0</ele>
<speed>0.4</speed>
<course>212.3</course>
<desc>Speed 0.4 km/h Distance 63.76 km</desc>
<time>2010-08-28T16:56:27.57</time>
<name>2458</name>
</trkpt>
<trkpt lat="49.536215" lon="9.077492">
<ele>466.0</ele>
<speed>0.4</speed>
<course>192.6</course>
<desc>Speed 0.4 km/h Distance 63.76 km</desc>
<time>2010-08-28T16:56:28.57</time>
<name>2459</name>
</trkpt>
<trkpt lat="49.536213" lon="9.077490">
<ele>466.0</ele>
<speed>0.4</speed>
<course>192.6</course>
<desc>Speed 0.4 km/h Distance 63.76 km</desc>
<time>2010-08-28T16:56:29.57</time>
<name>2460</name>
</trkpt>
<trkpt lat="49.536213" lon="9.077488">
<ele>466.0</ele>
<speed>0.4</speed>
<course>213.7</course>
<desc>Speed 0.4 km/h Distance 63.76 km</desc>
<time>2010-08-28T16:56:30.57</time>
<name>2461</name>
</trkpt>
<trkpt lat="49.536210" lon="9.077485">
<ele>466.0</ele>
<speed>0.4</speed>
<course>270.0</course>
<desc>Speed 0.4 km/h Distance 63.76 km</desc>
<time>2010-08-28T16:56:32.56</time>
<name>2462</name>
</trkpt>
<trkpt lat="49.536210" lon="9.077483">
<ele>466.0</ele>
<speed>0.4</speed>
<course>12.6</course>
<desc>Speed 0.4 km/h Distance 63.76 km</desc>
<time>2010-08-28T16:56:33.56</time>
<name>2463</name>
</trkpt>
<trkpt lat="49.536212" lon="9.077483">
<ele>466.0</ele>
<speed>0.4</speed>
<course>12.6</course>
<desc>Speed 0.4 km/h Distance 63.76 km</desc>
<time>2010-08-28T16:56:34.55</time>
<name>2464</name>
</trkpt>
<trkpt lat="49.536213" lon="9.077483">
<ele>466.0</ele>
<speed>0.4</speed>
<course>262.4</course>
<desc>Speed 0.4 km/h Distance 63.76 km</desc>
<time>2010-08-28T16:56:35.55</time>
<name>2465</name>
</trkpt>
<trkpt lat="49.536187" lon="9.077175">
<ele>466.0</ele>
<speed>1.8</speed>
<course>322.1</course>
<desc>Speed 1.8 km/h Distance 63.78 km</desc>
<time>2010-08-28T16:56:39.56</time>
<name>2466</name>
</trkpt>
<trkpt lat="49.536195" lon="9.077165">
<ele>466.0</ele>
<speed>1.8</speed>
<course>249.1</course>
<desc>Speed 1.8 km/h Distance 63.78 km</desc>
<time>2010-08-28T16:56:40.55</time>
<name>2467</name>
</trkpt>
<trkpt lat="49.536193" lon="9.077158">
<ele>466.0</ele>
<speed>1.8</speed>
<course>238.2</course>
<desc>Speed 1.8 km/h Distance 63.78 km</desc>
<time>2010-08-28T16:56:41.55</time>
<name>2468</name>
</trkpt>
<trkpt lat="49.536115" lon="9.076963">
<ele>466.0</ele>
<speed>1.5</speed>
<course>139.8</course>
<desc>Speed 1.5 km/h Distance 63.80 km</desc>
<time>2010-08-28T16:56:45.57</time>
<name>2469</name>
</trkpt>
<trkpt lat="49.536027" lon="9.077078">
<ele>466.0</ele>
<speed>1.5</speed>
<course>55.5</course>
<desc>Speed 1.5 km/h Distance 63.81 km</desc>
<time>2010-08-28T16:56:48.56</time>
<name>2470</name>
</trkpt>
<trkpt lat="49.536033" lon="9.077093">
<ele>466.0</ele>
<speed>1.5</speed>
<course>46.1</course>
<desc>Speed 1.5 km/h Distance 63.81 km</desc>
<time>2010-08-28T16:56:49.56</time>
<name>2471</name>
</trkpt>
<trkpt lat="49.536042" lon="9.077107">
<ele>466.0</ele>
<speed>1.2</speed>
<course>2.2</course>
<desc>Speed 1.2 km/h Distance 63.82 km</desc>
<time>2010-08-28T16:56:50.54</time>
<name>2472</name>
</trkpt>
<trkpt lat="49.536095" lon="9.077110">
<ele>466.0</ele>
<speed>3.6</speed>
<course>344.5</course>
<desc>Speed 3.6 km/h Distance 63.82 km</desc>
<time>2010-08-28T16:56:52.54</time>
<name>2473</name>
</trkpt>
<trkpt lat="49.536118" lon="9.077100">
<ele>466.0</ele>
<speed>3.6</speed>
<course>123.5</course>
<desc>Speed 3.6 km/h Distance 63.82 km</desc>
<time>2010-08-28T16:56:53.54</time>
<name>2474</name>
</trkpt>
<trkpt lat="49.536052" lon="9.077255">
<ele>466.0</ele>
<speed>3.6</speed>
<course>320.9</course>
<desc>Speed 3.6 km/h Distance 63.84 km</desc>
<time>2010-08-28T16:56:56.54</time>
<name>2475</name>
</trkpt>
<trkpt lat="49.536065" lon="9.077238">
<ele>466.0</ele>
<speed>3.6</speed>
<course>343.4</course>
<desc>Speed 3.6 km/h Distance 63.84 km</desc>
<time>2010-08-28T16:56:57.55</time>
<name>2476</name>
</trkpt>
<trkpt lat="49.536083" lon="9.077230">
<ele>466.0</ele>
<speed>3.6</speed>
<course>34.2</course>
<desc>Speed 3.6 km/h Distance 63.84 km</desc>
<time>2010-08-28T16:56:58.56</time>
<name>2477</name>
</trkpt>
<trkpt lat="49.536120" lon="9.077268">
<ele>466.0</ele>
<speed>3.3</speed>
<course>251.1</course>
<desc>Speed 3.3 km/h Distance 63.85 km</desc>
<time>2010-08-28T16:57:00.54</time>
<name>2478</name>
</trkpt>
<trkpt lat="49.536117" lon="9.077253">
<ele>466.0</ele>
<speed>0.5</speed>
<course>258.6</course>
<desc>Speed 0.5 km/h Distance 63.85 km</desc>
<time>2010-08-28T16:57:01.55</time>
<name>2479</name>
</trkpt>
<trkpt lat="49.536107" lon="9.077177">
<ele>466.0</ele>
<speed>0.9</speed>
<course>225.9</course>
<desc>Speed 0.9 km/h Distance 63.85 km</desc>
<time>2010-08-28T16:57:03.55</time>
<name>2480</name>
</trkpt>
<trkpt lat="49.536070" lon="9.077118">
<ele>466.0</ele>
<speed>0.9</speed>
<course>200.7</course>
<desc>Speed 0.9 km/h Distance 63.86 km</desc>
<time>2010-08-28T16:57:05.55</time>
<name>2481</name>
</trkpt>
<trkpt lat="49.535790" lon="9.076955">
<ele>466.0</ele>
<speed>52.0</speed>
<course>220.7</course>
<desc>Speed 52.0 km/h Distance 63.89 km</desc>
<time>2010-08-28T16:57:10.56</time>
<name>2482</name>
</trkpt>
<trkpt lat="49.535395" lon="9.076432">
<ele>466.0</ele>
<speed>52.0</speed>
<course>220.7</course>
<desc>Speed 52.0 km/h Distance 63.95 km</desc>
<time>2010-08-28T16:57:13.55</time>
<name>2483</name>
</trkpt>
<trkpt lat="49.535308" lon="9.076317">
<ele>466.0</ele>
<speed>52.0</speed>
<course>213.2</course>
<desc>Speed 52.0 km/h Distance 63.96 km</desc>
<time>2010-08-28T16:57:14.54</time>
<name>2484</name>
</trkpt>
<trkpt lat="49.535132" lon="9.076138">
<ele>466.0</ele>
<speed>52.0</speed>
<course>199.9</course>
<desc>Speed 52.0 km/h Distance 63.99 km</desc>
<time>2010-08-28T16:57:16.55</time>
<name>2485</name>
</trkpt>
<trkpt lat="49.534050" lon="9.075535">
<ele>466.0</ele>
<speed>88.6</speed>
<course>203.8</course>
<desc>Speed 88.6 km/h Distance 64.12 km</desc>
<time>2010-08-28T16:57:21.55</time>
<name>2486</name>
</trkpt>
<trkpt lat="49.533655" lon="9.075267">
<ele>466.0</ele>
<speed>81.3</speed>
<course>214.9</course>
<desc>Speed 81.3 km/h Distance 64.16 km</desc>
<time>2010-08-28T16:57:23.54</time>
<name>2487</name>
</trkpt>
<trkpt lat="49.533102" lon="9.074672">
<ele>466.0</ele>
<speed>81.3</speed>
<course>225.9</course>
<desc>Speed 81.3 km/h Distance 64.24 km</desc>
<time>2010-08-28T16:57:27.54</time>
<name>2488</name>
</trkpt>
<trkpt lat="49.532665" lon="9.073977">
<ele>466.0</ele>
<speed>81.3</speed>
<course>235.4</course>
<desc>Speed 81.3 km/h Distance 64.31 km</desc>
<time>2010-08-28T16:57:30.54</time>
<name>2489</name>
</trkpt>
<trkpt lat="49.531923" lon="9.072322">
<ele>465.0</ele>
<speed>109</speed>
<course>250.5</course>
<desc>Speed 109 km/h Distance 64.45 km</desc>
<time>2010-08-28T16:57:34.54</time>
<name>2490</name>
</trkpt>
<trkpt lat="49.531502" lon="9.070487">
<ele>461.5</ele>
<speed>100</speed>
<course>236.5</course>
<desc>Speed 100 km/h Distance 64.59 km</desc>
<time>2010-08-28T16:57:38.54</time>
<name>2491</name>
</trkpt>
<trkpt lat="49.531008" lon="9.069340">
<ele>461.0</ele>
<speed>87.6</speed>
<course>233.3</course>
<desc>Speed 87.6 km/h Distance 64.69 km</desc>
<time>2010-08-28T16:57:42.54</time>
<name>2492</name>
</trkpt>
<trkpt lat="49.530887" lon="9.069088">
<ele>461.0</ele>
<speed>83.7</speed>
<course>233.9</course>
<desc>Speed 83.7 km/h Distance 64.72 km</desc>
<time>2010-08-28T16:57:43.54</time>
<name>2493</name>
</trkpt>
<trkpt lat="49.530767" lon="9.068835">
<ele>460.5</ele>
<speed>80.2</speed>
<course>234.1</course>
<desc>Speed 80.2 km/h Distance 64.74 km</desc>
<time>2010-08-28T16:57:44.54</time>
<name>2494</name>
</trkpt>
<trkpt lat="49.530653" lon="9.068593">
<ele>460.0</ele>
<speed>74.4</speed>
<course>229.7</course>
<desc>Speed 74.4 km/h Distance 64.76 km</desc>
<time>2010-08-28T16:57:45.54</time>
<name>2495</name>
</trkpt>
<trkpt lat="49.530537" lon="9.068382">
<ele>460.0</ele>
<speed>70.6</speed>
<course>232.6</course>
<desc>Speed 70.6 km/h Distance 64.78 km</desc>
<time>2010-08-28T16:57:46.53</time>
<name>2496</name>
</trkpt>
<trkpt lat="49.530437" lon="9.068180">
<ele>460.0</ele>
<speed>68.2</speed>
<course>229.5</course>
<desc>Speed 68.2 km/h Distance 64.80 km</desc>
<time>2010-08-28T16:57:47.54</time>
<name>2497</name>
</trkpt>
<trkpt lat="49.530202" lon="9.067757">
<ele>459.5</ele>
<speed>69.0</speed>
<course>231.5</course>
<desc>Speed 69.0 km/h Distance 64.84 km</desc>
<time>2010-08-28T16:57:49.53</time>
<name>2498</name>
</trkpt>
<trkpt lat="49.530100" lon="9.067560">
<ele>459.5</ele>
<speed>68.3</speed>
<course>227.9</course>
<desc>Speed 68.3 km/h Distance 64.86 km</desc>
<time>2010-08-28T16:57:50.53</time>
<name>2499</name>
</trkpt>
<trkpt lat="49.529987" lon="9.067367">
<ele>459.5</ele>
<speed>69.6</speed>
<course>226.6</course>
<desc>Speed 69.6 km/h Distance 64.88 km</desc>
<time>2010-08-28T16:57:51.53</time>
<name>2500</name>
</trkpt>
<trkpt lat="49.529860" lon="9.067160">
<ele>459.0</ele>
<speed>69.1</speed>
<course>229.5</course>
<desc>Speed 69.1 km/h Distance 64.90 km</desc>
<time>2010-08-28T16:57:52.53</time>
<name>2501</name>
</trkpt>
<trkpt lat="49.529740" lon="9.066943">
<ele>458.5</ele>
<speed>70.6</speed>
<course>233.5</course>
<desc>Speed 70.6 km/h Distance 64.92 km</desc>
<time>2010-08-28T16:57:53.53</time>
<name>2502</name>
</trkpt>
<trkpt lat="49.529638" lon="9.066732">
<ele>458.5</ele>
<speed>69.2</speed>
<course>233.5</course>
<desc>Speed 69.2 km/h Distance 64.94 km</desc>
<time>2010-08-28T16:57:54.53</time>
<name>2503</name>
</trkpt>
<trkpt lat="49.529533" lon="9.066513">
<ele>458.5</ele>
<speed>70.7</speed>
<course>231.1</course>
<desc>Speed 70.7 km/h Distance 64.96 km</desc>
<time>2010-08-28T16:57:55.54</time>
<name>2504</name>
</trkpt>
<trkpt lat="49.529305" lon="9.066077">
<ele>458.5</ele>
<speed>67.6</speed>
<course>235.8</course>
<desc>Speed 67.6 km/h Distance 65.00 km</desc>
<time>2010-08-28T16:57:57.52</time>
<name>2505</name>
</trkpt>
<trkpt lat="49.529218" lon="9.065880">
<ele>458.5</ele>
<speed>63.7</speed>
<course>240.0</course>
<desc>Speed 63.7 km/h Distance 65.01 km</desc>
<time>2010-08-28T16:57:58.52</time>
<name>2506</name>
</trkpt>
<trkpt lat="49.529057" lon="9.065448">
<ele>458.5</ele>
<speed>63.7</speed>
<course>231.4</course>
<desc>Speed 63.7 km/h Distance 65.05 km</desc>
<time>2010-08-28T16:58:01.52</time>
<name>2507</name>
</trkpt>
<trkpt lat="49.528768" lon="9.064892">
<ele>458.5</ele>
<speed>70.2</speed>
<course>226.8</course>
<desc>Speed 70.2 km/h Distance 65.10 km</desc>
<time>2010-08-28T16:58:07.51</time>
<name>2508</name>
</trkpt>
<trkpt lat="49.528347" lon="9.064200">
<ele>458.5</ele>
<speed>70.2</speed>
<course>224.1</course>
<desc>Speed 70.2 km/h Distance 65.17 km</desc>
<time>2010-08-28T16:58:10.52</time>
<name>2509</name>
</trkpt>
<trkpt lat="49.528222" lon="9.064013">
<ele>458.5</ele>
<speed>70.2</speed>
<course>225.0</course>
<desc>Speed 70.2 km/h Distance 65.19 km</desc>
<time>2010-08-28T16:58:11.51</time>
<name>2510</name>
</trkpt>
<trkpt lat="49.527887" lon="9.063497">
<ele>458.5</ele>
<speed>82.6</speed>
<course>225.9</course>
<desc>Speed 82.6 km/h Distance 65.24 km</desc>
<time>2010-08-28T16:58:15.51</time>
<name>2511</name>
</trkpt>
<trkpt lat="49.527745" lon="9.063272">
<ele>458.5</ele>
<speed>82.6</speed>
<course>228.1</course>
<desc>Speed 82.6 km/h Distance 65.26 km</desc>
<time>2010-08-28T16:58:16.51</time>
<name>2512</name>
</trkpt>
<trkpt lat="49.527348" lon="9.062590">
<ele>458.5</ele>
<speed>82.6</speed>
<course>216.3</course>
<desc>Speed 82.6 km/h Distance 65.33 km</desc>
<time>2010-08-28T16:58:21.51</time>
<name>2513</name>
</trkpt>
<trkpt lat="49.526893" lon="9.062075">
<ele>458.5</ele>
<speed>80.4</speed>
<course>199.9</course>
<desc>Speed 80.4 km/h Distance 65.39 km</desc>
<time>2010-08-28T16:58:27.50</time>
<name>2514</name>
</trkpt>
<trkpt lat="49.526463" lon="9.061835">
<ele>458.5</ele>
<speed>80.4</speed>
<course>202.2</course>
<desc>Speed 80.4 km/h Distance 65.44 km</desc>
<time>2010-08-28T16:58:29.50</time>
<name>2515</name>
</trkpt>
<trkpt lat="49.526118" lon="9.061618">
<ele>458.5</ele>
<speed>80.4</speed>
<course>208.4</course>
<desc>Speed 80.4 km/h Distance 65.49 km</desc>
<time>2010-08-28T16:58:31.50</time>
<name>2516</name>
</trkpt>
<trkpt lat="49.522748" lon="9.058813">
<ele>458.0</ele>
<speed>80.4</speed>
<course>209.2</course>
<desc>Speed 80.4 km/h Distance 65.91 km</desc>
<time>2010-08-28T16:58:41.49</time>
<name>2517</name>
</trkpt>
<trkpt lat="49.521747" lon="9.057950">
<ele>458.0</ele>
<speed>80.4</speed>
<course>243.2</course>
<desc>Speed 80.4 km/h Distance 66.04 km</desc>
<time>2010-08-28T16:58:47.48</time>
<name>2518</name>
</trkpt>
<trkpt lat="49.521053" lon="9.055833">
<ele>458.0</ele>
<speed>80.9</speed>
<course>252.5</course>
<desc>Speed 80.9 km/h Distance 66.21 km</desc>
<time>2010-08-28T16:58:53.49</time>
<name>2519</name>
</trkpt>
<trkpt lat="49.520825" lon="9.054717">
<ele>457.0</ele>
<speed>87.4</speed>
<course>261.3</course>
<desc>Speed 87.4 km/h Distance 66.30 km</desc>
<time>2010-08-28T16:58:56.48</time>
<name>2520</name>
</trkpt>
<trkpt lat="49.520793" lon="9.054397">
<ele>457.0</ele>
<speed>82.0</speed>
<course>266.6</course>
<desc>Speed 82.0 km/h Distance 66.32 km</desc>
<time>2010-08-28T16:58:57.49</time>
<name>2521</name>
</trkpt>
<trkpt lat="49.520782" lon="9.054090">
<ele>457.0</ele>
<speed>81.5</speed>
<course>266.4</course>
<desc>Speed 81.5 km/h Distance 66.34 km</desc>
<time>2010-08-28T16:58:58.48</time>
<name>2522</name>
</trkpt>
<trkpt lat="49.520757" lon="9.053483">
<ele>457.0</ele>
<speed>78.6</speed>
<course>265.8</course>
<desc>Speed 78.6 km/h Distance 66.39 km</desc>
<time>2010-08-28T16:59:00.48</time>
<name>2523</name>
</trkpt>
<trkpt lat="49.520742" lon="9.053165">
<ele>457.0</ele>
<speed>77.0</speed>
<course>268.6</course>
<desc>Speed 77.0 km/h Distance 66.41 km</desc>
<time>2010-08-28T16:59:01.48</time>
<name>2524</name>
</trkpt>
<trkpt lat="49.520737" lon="9.052855">
<ele>456.5</ele>
<speed>75.5</speed>
<course>263.6</course>
<desc>Speed 75.5 km/h Distance 66.43 km</desc>
<time>2010-08-28T16:59:02.48</time>
<name>2525</name>
</trkpt>
<trkpt lat="49.520717" lon="9.052580">
<ele>456.5</ele>
<speed>73.5</speed>
<course>240.7</course>
<desc>Speed 73.5 km/h Distance 66.45 km</desc>
<time>2010-08-28T16:59:03.48</time>
<name>2526</name>
</trkpt>
<trkpt lat="49.520437" lon="9.051810">
<ele>456.5</ele>
<speed>73.5</speed>
<course>214.3</course>
<desc>Speed 73.5 km/h Distance 66.51 km</desc>
<time>2010-08-28T16:59:08.48</time>
<name>2527</name>
</trkpt>
<trkpt lat="49.520173" lon="9.051533">
<ele>456.5</ele>
<speed>73.5</speed>
<course>217.0</course>
<desc>Speed 73.5 km/h Distance 66.55 km</desc>
<time>2010-08-28T16:59:10.48</time>
<name>2528</name>
</trkpt>
<trkpt lat="49.519915" lon="9.051233">
<ele>456.5</ele>
<speed>73.5</speed>
<course>199.7</course>
<desc>Speed 73.5 km/h Distance 66.59 km</desc>
<time>2010-08-28T16:59:12.48</time>
<name>2529</name>
</trkpt>
<trkpt lat="49.517800" lon="9.050068">
<ele>456.5</ele>
<speed>98.7</speed>
<course>210.7</course>
<desc>Speed 98.7 km/h Distance 66.84 km</desc>
<time>2010-08-28T16:59:20.47</time>
<name>2530</name>
</trkpt>
<trkpt lat="49.517603" lon="9.049888">
<ele>456.5</ele>
<speed>98.7</speed>
<course>214.3</course>
<desc>Speed 98.7 km/h Distance 66.86 km</desc>
<time>2010-08-28T16:59:21.47</time>
<name>2531</name>
</trkpt>
<trkpt lat="49.517047" lon="9.049303">
<ele>456.5</ele>
<speed>98.7</speed>
<course>192.1</course>
<desc>Speed 98.7 km/h Distance 66.94 km</desc>
<time>2010-08-28T16:59:24.46</time>
<name>2532</name>
</trkpt>
<trkpt lat="49.516230" lon="9.049033">
<ele>456.5</ele>
<speed>98.7</speed>
<course>178.2</course>
<desc>Speed 98.7 km/h Distance 67.03 km</desc>
<time>2010-08-28T16:59:28.46</time>
<name>2533</name>
</trkpt>
<trkpt lat="49.514078" lon="9.049138">
<ele>456.0</ele>
<speed>98.7</speed>
<course>169.9</course>
<desc>Speed 98.7 km/h Distance 67.27 km</desc>
<time>2010-08-28T16:59:39.44</time>
<name>2534</name>
</trkpt>
<trkpt lat="49.512923" lon="9.049457">
<ele>456.0</ele>
<speed>98.7</speed>
<course>194.6</course>
<desc>Speed 98.7 km/h Distance 67.40 km</desc>
<time>2010-08-28T16:59:47.43</time>
<name>2535</name>
</trkpt>
<trkpt lat="49.512295" lon="9.049205">
<ele>456.5</ele>
<speed>98.7</speed>
<course>204.4</course>
<desc>Speed 98.7 km/h Distance 67.47 km</desc>
<time>2010-08-28T16:59:51.41</time>
<name>2536</name>
</trkpt>
<trkpt lat="49.511637" lon="9.048745">
<ele>456.5</ele>
<speed>98.7</speed>
<course>216.1</course>
<desc>Speed 98.7 km/h Distance 67.55 km</desc>
<time>2010-08-28T16:59:55.41</time>
<name>2537</name>
</trkpt>
<trkpt lat="49.510593" lon="9.047573">
<ele>456.5</ele>
<speed>98.7</speed>
<course>174.7</course>
<desc>Speed 98.7 km/h Distance 67.70 km</desc>
<time>2010-08-28T17:00:00.42</time>
<name>2538</name>
</trkpt>
<trkpt lat="49.510175" lon="9.047633">
<ele>456.5</ele>
<speed>98.7</speed>
<course>168.9</course>
<desc>Speed 98.7 km/h Distance 67.74 km</desc>
<time>2010-08-28T17:00:06.41</time>
<name>2539</name>
</trkpt>
<trkpt lat="49.509367" lon="9.047877">
<ele>456.5</ele>
<speed>98.7</speed>
<course>223.7</course>
<desc>Speed 98.7 km/h Distance 67.83 km</desc>
<time>2010-08-28T17:00:12.41</time>
<name>2540</name>
</trkpt>
<trkpt lat="49.505723" lon="9.042515">
<ele>456.5</ele>
<speed>98.7</speed>
<course>152.3</course>
<desc>Speed 98.7 km/h Distance 68.40 km</desc>
<time>2010-08-28T17:00:24.43</time>
<name>2541</name>
</trkpt>
<trkpt lat="49.505305" lon="9.042853">
<ele>456.5</ele>
<speed>98.7</speed>
<course>144.9</course>
<desc>Speed 98.7 km/h Distance 68.45 km</desc>
<time>2010-08-28T17:00:26.43</time>
<name>2542</name>
</trkpt>
<trkpt lat="49.504907" lon="9.043285">
<ele>456.5</ele>
<speed>98.7</speed>
<course>203.8</course>
<desc>Speed 98.7 km/h Distance 68.50 km</desc>
<time>2010-08-28T17:00:32.42</time>
<name>2543</name>
</trkpt>
<trkpt lat="49.504245" lon="9.042837">
<ele>456.5</ele>
<speed>98.7</speed>
<course>167.2</course>
<desc>Speed 98.7 km/h Distance 68.58 km</desc>
<time>2010-08-28T17:00:37.42</time>
<name>2544</name>
</trkpt>
<trkpt lat="49.504007" lon="9.042920">
<ele>456.5</ele>
<speed>98.7</speed>
<course>157.3</course>
<desc>Speed 98.7 km/h Distance 68.61 km</desc>
<time>2010-08-28T17:00:38.42</time>
<name>2545</name>
</trkpt>
<trkpt lat="49.502302" lon="9.044017">
<ele>456.5</ele>
<speed>98.7</speed>
<course>154.3</course>
<desc>Speed 98.7 km/h Distance 68.82 km</desc>
<time>2010-08-28T17:00:46.40</time>
<name>2546</name>
</trkpt>
<trkpt lat="49.501823" lon="9.044372">
<ele>456.5</ele>
<speed>98.7</speed>
<course>207.8</course>
<desc>Speed 98.7 km/h Distance 68.88 km</desc>
<time>2010-08-28T17:00:48.42</time>
<name>2547</name>
</trkpt>
<trkpt lat="49.501147" lon="9.043822">
<ele>456.5</ele>
<speed>98.7</speed>
<course>208.7</course>
<desc>Speed 98.7 km/h Distance 68.96 km</desc>
<time>2010-08-28T17:00:52.42</time>
<name>2548</name>
</trkpt>
<trkpt lat="49.500203" lon="9.043025">
<ele>456.5</ele>
<speed>98.7</speed>
<course>172.3</course>
<desc>Speed 98.7 km/h Distance 69.08 km</desc>
<time>2010-08-28T17:00:55.40</time>
<name>2549</name>
</trkpt>
<trkpt lat="49.498848" lon="9.043307">
<ele>456.5</ele>
<speed>71.8</speed>
<course>168.5</course>
<desc>Speed 71.8 km/h Distance 69.23 km</desc>
<time>2010-08-28T17:01:00.42</time>
<name>2550</name>
</trkpt>
<trkpt lat="49.497062" lon="9.043868">
<ele>455.0</ele>
<speed>61.3</speed>
<course>151.3</course>
<desc>Speed 61.3 km/h Distance 69.44 km</desc>
<time>2010-08-28T17:01:06.42</time>
<name>2551</name>
</trkpt>
<trkpt lat="49.496777" lon="9.044108">
<ele>454.5</ele>
<speed>60.3</speed>
<course>127.9</course>
<desc>Speed 60.3 km/h Distance 69.47 km</desc>
<time>2010-08-28T17:01:08.41</time>
<name>2552</name>
</trkpt>
<trkpt lat="49.496295" lon="9.045060">
<ele>454.0</ele>
<speed>67.9</speed>
<course>159.1</course>
<desc>Speed 67.9 km/h Distance 69.56 km</desc>
<time>2010-08-28T17:01:13.41</time>
<name>2553</name>
</trkpt>
<trkpt lat="49.495968" lon="9.045252">
<ele>453.5</ele>
<speed>66.5</speed>
<course>136.0</course>
<desc>Speed 66.5 km/h Distance 69.60 km</desc>
<time>2010-08-28T17:01:15.41</time>
<name>2554</name>
</trkpt>
<trkpt lat="49.495695" lon="9.045658">
<ele>453.0</ele>
<speed>59.9</speed>
<course>165.9</course>
<desc>Speed 59.9 km/h Distance 69.64 km</desc>
<time>2010-08-28T17:01:17.40</time>
<name>2555</name>
</trkpt>
<trkpt lat="49.495063" lon="9.045903">
<ele>453.0</ele>
<speed>67.5</speed>
<course>189.6</course>
<desc>Speed 67.5 km/h Distance 69.71 km</desc>
<time>2010-08-28T17:01:21.41</time>
<name>2556</name>
</trkpt>
<trkpt lat="49.494627" lon="9.045790">
<ele>453.0</ele>
<speed>63.3</speed>
<course>212.4</course>
<desc>Speed 63.3 km/h Distance 69.76 km</desc>
<time>2010-08-28T17:01:26.40</time>
<name>2557</name>
</trkpt>
<trkpt lat="49.494412" lon="9.045580">
<ele>453.0</ele>
<speed>63.3</speed>
<course>208.3</course>
<desc>Speed 63.3 km/h Distance 69.79 km</desc>
<time>2010-08-28T17:01:28.39</time>
<name>2558</name>
</trkpt>
<trkpt lat="49.491542" lon="9.043198">
<ele>448.0</ele>
<speed>95.8</speed>
<course>226.2</course>
<desc>Speed 95.8 km/h Distance 70.15 km</desc>
<time>2010-08-28T17:01:44.38</time>
<name>2559</name>
</trkpt>
<trkpt lat="49.491228" lon="9.042695">
<ele>446.0</ele>
<speed>95.8</speed>
<course>228.8</course>
<desc>Speed 95.8 km/h Distance 70.20 km</desc>
<time>2010-08-28T17:01:46.38</time>
<name>2560</name>
</trkpt>
<trkpt lat="49.490593" lon="9.041578">
<ele>445.5</ele>
<speed>91.3</speed>
<course>183.5</course>
<desc>Speed 91.3 km/h Distance 70.31 km</desc>
<time>2010-08-28T17:01:51.37</time>
<name>2561</name>
</trkpt>
<trkpt lat="49.489150" lon="9.041443">
<ele>442.0</ele>
<speed>91.3</speed>
<course>169.8</course>
<desc>Speed 91.3 km/h Distance 70.47 km</desc>
<time>2010-08-28T17:01:56.36</time>
<name>2562</name>
</trkpt>
<trkpt lat="49.488565" lon="9.041605">
<ele>441.0</ele>
<speed>95.0</speed>
<course>154.0</course>
<desc>Speed 95.0 km/h Distance 70.54 km</desc>
<time>2010-08-28T17:02:01.36</time>
<name>2563</name>
</trkpt>
<trkpt lat="49.488350" lon="9.041767">
<ele>441.0</ele>
<speed>95.0</speed>
<course>140.7</course>
<desc>Speed 95.0 km/h Distance 70.56 km</desc>
<time>2010-08-28T17:02:02.36</time>
<name>2564</name>
</trkpt>
<trkpt lat="49.488172" lon="9.041992">
<ele>441.0</ele>
<speed>95.0</speed>
<course>158.1</course>
<desc>Speed 95.0 km/h Distance 70.59 km</desc>
<time>2010-08-28T17:02:03.36</time>
<name>2565</name>
</trkpt>
<trkpt lat="49.487468" lon="9.042427">
<ele>441.0</ele>
<speed>95.0</speed>
<course>195.9</course>
<desc>Speed 95.0 km/h Distance 70.67 km</desc>
<time>2010-08-28T17:02:07.36</time>
<name>2566</name>
</trkpt>
<trkpt lat="49.486932" lon="9.042192">
<ele>440.5</ele>
<speed>95.0</speed>
<course>218.6</course>
<desc>Speed 95.0 km/h Distance 70.74 km</desc>
<time>2010-08-28T17:02:09.35</time>
<name>2567</name>
</trkpt>
<trkpt lat="49.486277" lon="9.041387">
<ele>440.0</ele>
<speed>95.0</speed>
<course>230.4</course>
<desc>Speed 95.0 km/h Distance 70.83 km</desc>
<time>2010-08-28T17:02:14.35</time>
<name>2568</name>
</trkpt>
<trkpt lat="49.486135" lon="9.041123">
<ele>440.0</ele>
<speed>95.0</speed>
<course>252.0</course>
<desc>Speed 95.0 km/h Distance 70.85 km</desc>
<time>2010-08-28T17:02:15.35</time>
<name>2569</name>
</trkpt>
<trkpt lat="49.485942" lon="9.040210">
<ele>440.0</ele>
<speed>88.9</speed>
<course>267.1</course>
<desc>Speed 88.9 km/h Distance 70.92 km</desc>
<time>2010-08-28T17:02:18.35</time>
<name>2570</name>
</trkpt>
<trkpt lat="49.485930" lon="9.039852">
<ele>440.0</ele>
<speed>88.9</speed>
<course>244.2</course>
<desc>Speed 88.9 km/h Distance 70.95 km</desc>
<time>2010-08-28T17:02:19.35</time>
<name>2571</name>
</trkpt>
<trkpt lat="49.485545" lon="9.038628">
<ele>440.0</ele>
<speed>88.9</speed>
<course>269.1</course>
<desc>Speed 88.9 km/h Distance 71.05 km</desc>
<time>2010-08-28T17:02:22.34</time>
<name>2572</name>
</trkpt>
<trkpt lat="49.485522" lon="9.036383">
<ele>439.5</ele>
<speed>78.8</speed>
<course>295.0</course>
<desc>Speed 78.8 km/h Distance 71.21 km</desc>
<time>2010-08-28T17:02:27.34</time>
<name>2573</name>
</trkpt>
<trkpt lat="49.485833" lon="9.035355">
<ele>439.5</ele>
<speed>78.8</speed>
<course>271.9</course>
<desc>Speed 78.8 km/h Distance 71.29 km</desc>
<time>2010-08-28T17:02:33.34</time>
<name>2574</name>
</trkpt>
<trkpt lat="49.485845" lon="9.034823">
<ele>439.5</ele>
<speed>78.8</speed>
<course>306.8</course>
<desc>Speed 78.8 km/h Distance 71.33 km</desc>
<time>2010-08-28T17:02:35.34</time>
<name>2575</name>
</trkpt>
<trkpt lat="49.486213" lon="9.034065">
<ele>439.5</ele>
<speed>78.8</speed>
<course>339.2</course>
<desc>Speed 78.8 km/h Distance 71.40 km</desc>
<time>2010-08-28T17:02:41.33</time>
<name>2576</name>
</trkpt>
<trkpt lat="49.486393" lon="9.033960">
<ele>439.5</ele>
<speed>78.8</speed>
<course>284.1</course>
<desc>Speed 78.8 km/h Distance 71.42 km</desc>
<time>2010-08-28T17:02:42.33</time>
<name>2577</name>
</trkpt>
<trkpt lat="49.486483" lon="9.033410">
<ele>439.5</ele>
<speed>78.8</speed>
<course>290.2</course>
<desc>Speed 78.8 km/h Distance 71.46 km</desc>
<time>2010-08-28T17:02:44.33</time>
<name>2578</name>
</trkpt>
<trkpt lat="49.486623" lon="9.032823">
<ele>439.5</ele>
<speed>78.8</speed>
<course>338.0</course>
<desc>Speed 78.8 km/h Distance 71.51 km</desc>
<time>2010-08-28T17:02:46.32</time>
<name>2579</name>
</trkpt>
<trkpt lat="49.486800" lon="9.032713">
<ele>439.5</ele>
<speed>78.8</speed>
<course>291.3</course>
<desc>Speed 78.8 km/h Distance 71.53 km</desc>
<time>2010-08-28T17:02:47.32</time>
<name>2580</name>
</trkpt>
<trkpt lat="49.487443" lon="9.030175">
<ele>439.5</ele>
<speed>78.8</speed>
<course>261.8</course>
<desc>Speed 78.8 km/h Distance 71.73 km</desc>
<time>2010-08-28T17:02:54.32</time>
<name>2581</name>
</trkpt>
<trkpt lat="49.487365" lon="9.029342">
<ele>440.0</ele>
<speed>78.8</speed>
<course>238.9</course>
<desc>Speed 78.8 km/h Distance 71.79 km</desc>
<time>2010-08-28T17:02:58.32</time>
<name>2582</name>
</trkpt>
<trkpt lat="49.486058" lon="9.026013">
<ele>439.5</ele>
<speed>78.8</speed>
<course>251.4</course>
<desc>Speed 78.8 km/h Distance 72.07 km</desc>
<time>2010-08-28T17:03:06.31</time>
<name>2583</name>
</trkpt>
<trkpt lat="49.485952" lon="9.025525">
<ele>439.5</ele>
<speed>78.8</speed>
<course>278.1</course>
<desc>Speed 78.8 km/h Distance 72.11 km</desc>
<time>2010-08-28T17:03:12.31</time>
<name>2584</name>
</trkpt>
<trkpt lat="49.486000" lon="9.025002">
<ele>440.0</ele>
<speed>78.8</speed>
<course>282.0</course>
<desc>Speed 78.8 km/h Distance 72.14 km</desc>
<time>2010-08-28T17:03:17.31</time>
<name>2585</name>
</trkpt>
<trkpt lat="49.486068" lon="9.024505">
<ele>440.0</ele>
<speed>78.8</speed>
<course>273.2</course>
<desc>Speed 78.8 km/h Distance 72.18 km</desc>
<time>2010-08-28T17:03:19.31</time>
<name>2586</name>
</trkpt>
<trkpt lat="49.486307" lon="9.017970">
<ele>439.5</ele>
<speed>78.8</speed>
<course>217.4</course>
<desc>Speed 78.8 km/h Distance 72.65 km</desc>
<time>2010-08-28T17:03:32.29</time>
<name>2587</name>
</trkpt>
<trkpt lat="49.483778" lon="9.014992">
<ele>438.5</ele>
<speed>78.8</speed>
<course>262.4</course>
<desc>Speed 78.8 km/h Distance 73.01 km</desc>
<time>2010-08-28T17:03:34.29</time>
<name>2588</name>
</trkpt>
<trkpt lat="49.483695" lon="9.014033">
<ele>433.0</ele>
<speed>91.6</speed>
<course>238.3</course>
<desc>Speed 91.6 km/h Distance 73.08 km</desc>
<time>2010-08-28T17:03:37.29</time>
<name>2589</name>
</trkpt>
<trkpt lat="49.483457" lon="9.013440">
<ele>430.5</ele>
<speed>77.8</speed>
<course>236.4</course>
<desc>Speed 77.8 km/h Distance 73.13 km</desc>
<time>2010-08-28T17:03:39.29</time>
<name>2590</name>
</trkpt>
<trkpt lat="49.483362" lon="9.013220">
<ele>430.0</ele>
<speed>77.8</speed>
<course>237.6</course>
<desc>Speed 77.8 km/h Distance 73.15 km</desc>
<time>2010-08-28T17:03:41.29</time>
<name>2591</name>
</trkpt>
<trkpt lat="49.483147" lon="9.012698">
<ele>430.0</ele>
<speed>77.8</speed>
<course>274.9</course>
<desc>Speed 77.8 km/h Distance 73.19 km</desc>
<time>2010-08-28T17:03:45.28</time>
<name>2592</name>
</trkpt>
<trkpt lat="49.483217" lon="9.011438">
<ele>429.5</ele>
<speed>77.8</speed>
<course>264.2</course>
<desc>Speed 77.8 km/h Distance 73.28 km</desc>
<time>2010-08-28T17:03:49.28</time>
<name>2593</name>
</trkpt>
<trkpt lat="49.483163" lon="9.010627">
<ele>429.0</ele>
<speed>77.8</speed>
<course>274.9</course>
<desc>Speed 77.8 km/h Distance 73.34 km</desc>
<time>2010-08-28T17:03:52.28</time>
<name>2594</name>
</trkpt>
<trkpt lat="49.483250" lon="9.009085">
<ele>429.0</ele>
<speed>77.8</speed>
<course>237.6</course>
<desc>Speed 77.8 km/h Distance 73.45 km</desc>
<time>2010-08-28T17:03:57.27</time>
<name>2595</name>
</trkpt>
<trkpt lat="49.481868" lon="9.005728">
<ele>429.0</ele>
<speed>122</speed>
<course>226.7</course>
<desc>Speed 122 km/h Distance 73.74 km</desc>
<time>2010-08-28T17:04:05.27</time>
<name>2596</name>
</trkpt>
<trkpt lat="49.481237" lon="9.004698">
<ele>428.5</ele>
<speed>101</speed>
<course>263.5</course>
<desc>Speed 101 km/h Distance 73.84 km</desc>
<time>2010-08-28T17:04:08.26</time>
<name>2597</name>
</trkpt>
<trkpt lat="49.481165" lon="9.003735">
<ele>428.0</ele>
<speed>101</speed>
<course>274.0</course>
<desc>Speed 101 km/h Distance 73.91 km</desc>
<time>2010-08-28T17:04:12.26</time>
<name>2598</name>
</trkpt>
<trkpt lat="49.481203" lon="9.002888">
<ele>428.0</ele>
<speed>101</speed>
<course>243.2</course>
<desc>Speed 101 km/h Distance 73.98 km</desc>
<time>2010-08-28T17:04:14.26</time>
<name>2599</name>
</trkpt>
<trkpt lat="49.479793" lon="8.998590">
<ele>427.5</ele>
<speed>101</speed>
<course>240.8</course>
<desc>Speed 101 km/h Distance 74.32 km</desc>
<time>2010-08-28T17:04:29.25</time>
<name>2600</name>
</trkpt>
<trkpt lat="49.478320" lon="8.994525">
<ele>426.0</ele>
<speed>101</speed>
<course>187.6</course>
<desc>Speed 101 km/h Distance 74.66 km</desc>
<time>2010-08-28T17:04:45.24</time>
<name>2601</name>
</trkpt>
<trkpt lat="49.477683" lon="8.994395">
<ele>423.5</ele>
<speed>101</speed>
<course>182.2</course>
<desc>Speed 101 km/h Distance 74.73 km</desc>
<time>2010-08-28T17:04:48.24</time>
<name>2602</name>
</trkpt>
<trkpt lat="49.475510" lon="8.994267">
<ele>420.5</ele>
<speed>68.4</speed>
<course>189.4</course>
<desc>Speed 68.4 km/h Distance 74.97 km</desc>
<time>2010-08-28T17:05:01.23</time>
<name>2603</name>
</trkpt>
<trkpt lat="49.473980" lon="8.993877">
<ele>409.5</ele>
<speed>67.2</speed>
<course>168.6</course>
<desc>Speed 67.2 km/h Distance 75.15 km</desc>
<time>2010-08-28T17:05:07.22</time>
<name>2604</name>
</trkpt>
<trkpt lat="49.473552" lon="8.994010">
<ele>407.0</ele>
<speed>67.2</speed>
<course>217.0</course>
<desc>Speed 67.2 km/h Distance 75.20 km</desc>
<time>2010-08-28T17:05:10.22</time>
<name>2605</name>
</trkpt>
<trkpt lat="49.473217" lon="8.993622">
<ele>405.0</ele>
<speed>67.2</speed>
<course>261.8</course>
<desc>Speed 67.2 km/h Distance 75.24 km</desc>
<time>2010-08-28T17:05:15.22</time>
<name>2606</name>
</trkpt>
<trkpt lat="49.473152" lon="8.992928">
<ele>404.5</ele>
<speed>71.1</speed>
<course>257.4</course>
<desc>Speed 71.1 km/h Distance 75.29 km</desc>
<time>2010-08-28T17:05:18.90</time>
<name>2607</name>
</trkpt>
<trkpt lat="49.472998" lon="8.991877">
<ele>404.0</ele>
<speed>71.1</speed>
<course>269.4</course>
<desc>Speed 71.1 km/h Distance 75.37 km</desc>
<time>2010-08-28T17:05:22.18</time>
<name>2608</name>
</trkpt>
<trkpt lat="49.472992" lon="8.990917">
<ele>404.0</ele>
<speed>81.1</speed>
<course>257.9</course>
<desc>Speed 81.1 km/h Distance 75.44 km</desc>
<time>2010-08-28T17:05:27.18</time>
<name>2609</name>
</trkpt>
<trkpt lat="49.472905" lon="8.990297">
<ele>404.0</ele>
<speed>81.1</speed>
<course>251.8</course>
<desc>Speed 81.1 km/h Distance 75.49 km</desc>
<time>2010-08-28T17:05:29.18</time>
<name>2610</name>
</trkpt>
<trkpt lat="49.472772" lon="8.989673">
<ele>404.0</ele>
<speed>75.4</speed>
<course>260.5</course>
<desc>Speed 75.4 km/h Distance 75.53 km</desc>
<time>2010-08-28T17:05:31.18</time>
<name>2611</name>
</trkpt>
<trkpt lat="49.472685" lon="8.988877">
<ele>404.0</ele>
<speed>75.4</speed>
<course>251.5</course>
<desc>Speed 75.4 km/h Distance 75.59 km</desc>
<time>2010-08-28T17:05:36.17</time>
<name>2612</name>
</trkpt>
<trkpt lat="49.472507" lon="8.988058">
<ele>404.0</ele>
<speed>75.4</speed>
<course>262.1</course>
<desc>Speed 75.4 km/h Distance 75.65 km</desc>
<time>2010-08-28T17:05:40.16</time>
<name>2613</name>
</trkpt>
<trkpt lat="49.472430" lon="8.987207">
<ele>404.0</ele>
<speed>75.4</speed>
<course>238.0</course>
<desc>Speed 75.4 km/h Distance 75.72 km</desc>
<time>2010-08-28T17:05:44.15</time>
<name>2614</name>
</trkpt>
<trkpt lat="49.472380" lon="8.987083">
<ele>403.5</ele>
<speed>75.4</speed>
<course>85.3</course>
<desc>Speed 75.4 km/h Distance 75.73 km</desc>
<time>2010-08-28T17:05:52.15</time>
<name>2615</name>
</trkpt>
<trkpt lat="49.472388" lon="8.987240">
<ele>403.5</ele>
<speed>3.0</speed>
<course>224.2</course>
<desc>Speed 3.0 km/h Distance 75.74 km</desc>
<time>2010-08-28T17:05:58.14</time>
<name>2616</name>
</trkpt>
<trkpt lat="49.472123" lon="8.986843">
<ele>403.5</ele>
<speed>3.0</speed>
<course>230.7</course>
<desc>Speed 3.0 km/h Distance 75.78 km</desc>
<time>2010-08-28T17:06:02.14</time>
<name>2617</name>
</trkpt>
<trkpt lat="49.471545" lon="8.985755">
<ele>402.5</ele>
<speed>67.4</speed>
<course>228.9</course>
<desc>Speed 67.4 km/h Distance 75.88 km</desc>
<time>2010-08-28T17:06:07.14</time>
<name>2618</name>
</trkpt>
<trkpt lat="49.471425" lon="8.985543">
<ele>402.5</ele>
<speed>62.2</speed>
<course>228.5</course>
<desc>Speed 62.2 km/h Distance 75.90 km</desc>
<time>2010-08-28T17:06:08.14</time>
<name>2619</name>
</trkpt>
<trkpt lat="49.471322" lon="8.985363">
<ele>402.5</ele>
<speed>62.2</speed>
<course>217.7</course>
<desc>Speed 62.2 km/h Distance 75.92 km</desc>
<time>2010-08-28T17:06:09.14</time>
<name>2620</name>
</trkpt>
<trkpt lat="49.470865" lon="8.984820">
<ele>402.5</ele>
<speed>69.0</speed>
<course>216.0</course>
<desc>Speed 69.0 km/h Distance 75.98 km</desc>
<time>2010-08-28T17:06:13.17</time>
<name>2621</name>
</trkpt>
<trkpt lat="49.468125" lon="8.981758">
<ele>393.0</ele>
<speed>63.6</speed>
<course>219.9</course>
<desc>Speed 63.6 km/h Distance 76.36 km</desc>
<time>2010-08-28T17:06:29.13</time>
<name>2622</name>
</trkpt>
<trkpt lat="49.467730" lon="8.981250">
<ele>385.0</ele>
<speed>61.3</speed>
<course>229.4</course>
<desc>Speed 61.3 km/h Distance 76.42 km</desc>
<time>2010-08-28T17:06:34.12</time>
<name>2623</name>
</trkpt>
<trkpt lat="49.467502" lon="8.980840">
<ele>382.5</ele>
<speed>62.7</speed>
<course>203.1</course>
<desc>Speed 62.7 km/h Distance 76.46 km</desc>
<time>2010-08-28T17:06:37.13</time>
<name>2624</name>
</trkpt>
<trkpt lat="49.467217" lon="8.980653">
<ele>382.0</ele>
<speed>62.7</speed>
<course>209.0</course>
<desc>Speed 62.7 km/h Distance 76.49 km</desc>
<time>2010-08-28T17:06:40.12</time>
<name>2625</name>
</trkpt>
<trkpt lat="49.466838" lon="8.980330">
<ele>380.5</ele>
<speed>60.6</speed>
<course>231.9</course>
<desc>Speed 60.6 km/h Distance 76.54 km</desc>
<time>2010-08-28T17:06:42.12</time>
<name>2626</name>
</trkpt>
<trkpt lat="49.466512" lon="8.979688">
<ele>380.0</ele>
<speed>60.6</speed>
<course>260.9</course>
<desc>Speed 60.6 km/h Distance 76.60 km</desc>
<time>2010-08-28T17:06:45.12</time>
<name>2627</name>
</trkpt>
<trkpt lat="49.466460" lon="8.979190">
<ele>377.5</ele>
<speed>41.2</speed>
<course>261.6</course>
<desc>Speed 41.2 km/h Distance 76.63 km</desc>
<time>2010-08-28T17:06:48.11</time>
<name>2628</name>
</trkpt>
<trkpt lat="49.466285" lon="8.977357">
<ele>377.0</ele>
<speed>61.9</speed>
<course>227.2</course>
<desc>Speed 61.9 km/h Distance 76.77 km</desc>
<time>2010-08-28T17:07:01.11</time>
<name>2629</name>
</trkpt>
<trkpt lat="49.465988" lon="8.976863">
<ele>376.0</ele>
<speed>61.9</speed>
<course>250.5</course>
<desc>Speed 61.9 km/h Distance 76.82 km</desc>
<time>2010-08-28T17:07:03.11</time>
<name>2630</name>
</trkpt>
<trkpt lat="49.464197" lon="8.969077">
<ele>370.5</ele>
<speed>113</speed>
<course>242.5</course>
<desc>Speed 113 km/h Distance 77.42 km</desc>
<time>2010-08-28T17:07:31.10</time>
<name>2631</name>
</trkpt>
<trkpt lat="49.463687" lon="8.967568">
<ele>362.0</ele>
<speed>116</speed>
<course>226.9</course>
<desc>Speed 116 km/h Distance 77.54 km</desc>
<time>2010-08-28T17:07:35.09</time>
<name>2632</name>
</trkpt>
<trkpt lat="49.463150" lon="8.966687">
<ele>360.0</ele>
<speed>99.9</speed>
<course>257.6</course>
<desc>Speed 99.9 km/h Distance 77.63 km</desc>
<time>2010-08-28T17:07:37.09</time>
<name>2633</name>
</trkpt>
<trkpt lat="49.462962" lon="8.965372">
<ele>353.5</ele>
<speed>99.9</speed>
<course>229.8</course>
<desc>Speed 99.9 km/h Distance 77.72 km</desc>
<time>2010-08-28T17:07:42.09</time>
<name>2634</name>
</trkpt>
<trkpt lat="49.462688" lon="8.964873">
<ele>348.0</ele>
<speed>59.5</speed>
<course>245.5</course>
<desc>Speed 59.5 km/h Distance 77.77 km</desc>
<time>2010-08-28T17:07:45.09</time>
<name>2635</name>
</trkpt>
<trkpt lat="49.462452" lon="8.964075">
<ele>342.0</ele>
<speed>52.9</speed>
<course>237.2</course>
<desc>Speed 52.9 km/h Distance 77.83 km</desc>
<time>2010-08-28T17:07:49.07</time>
<name>2636</name>
</trkpt>
<trkpt lat="49.462277" lon="8.963657">
<ele>340.5</ele>
<speed>65.3</speed>
<course>242.7</course>
<desc>Speed 65.3 km/h Distance 77.87 km</desc>
<time>2010-08-28T17:07:51.07</time>
<name>2637</name>
</trkpt>
<trkpt lat="49.462207" lon="8.963448">
<ele>340.0</ele>
<speed>66.4</speed>
<course>243.8</course>
<desc>Speed 66.4 km/h Distance 77.89 km</desc>
<time>2010-08-28T17:07:52.08</time>
<name>2638</name>
</trkpt>
<trkpt lat="49.462072" lon="8.963027">
<ele>339.0</ele>
<speed>58.9</speed>
<course>247.8</course>
<desc>Speed 58.9 km/h Distance 77.92 km</desc>
<time>2010-08-28T17:07:54.08</time>
<name>2639</name>
</trkpt>
<trkpt lat="49.461965" lon="8.962625">
<ele>338.5</ele>
<speed>58.9</speed>
<course>230.0</course>
<desc>Speed 58.9 km/h Distance 77.95 km</desc>
<time>2010-08-28T17:07:57.08</time>
<name>2640</name>
</trkpt>
<trkpt lat="49.461497" lon="8.961765">
<ele>338.5</ele>
<speed>89.7</speed>
<course>226.4</course>
<desc>Speed 89.7 km/h Distance 78.03 km</desc>
<time>2010-08-28T17:08:02.07</time>
<name>2641</name>
</trkpt>
<trkpt lat="49.460317" lon="8.959858">
<ele>339.0</ele>
<speed>116</speed>
<course>226.8</course>
<desc>Speed 116 km/h Distance 78.22 km</desc>
<time>2010-08-28T17:08:07.08</time>
<name>2642</name>
</trkpt>
<trkpt lat="49.459933" lon="8.959230">
<ele>338.5</ele>
<speed>109</speed>
<course>231.9</course>
<desc>Speed 109 km/h Distance 78.29 km</desc>
<time>2010-08-28T17:08:09.06</time>
<name>2643</name>
</trkpt>
<trkpt lat="49.459498" lon="8.958375">
<ele>338.5</ele>
<speed>96.7</speed>
<course>225.7</course>
<desc>Speed 96.7 km/h Distance 78.36 km</desc>
<time>2010-08-28T17:08:12.07</time>
<name>2644</name>
</trkpt>
<trkpt lat="49.459127" lon="8.957790">
<ele>338.0</ele>
<speed>93.4</speed>
<course>225.3</course>
<desc>Speed 93.4 km/h Distance 78.42 km</desc>
<time>2010-08-28T17:08:14.06</time>
<name>2645</name>
</trkpt>
<trkpt lat="49.458562" lon="8.956912">
<ele>335.5</ele>
<speed>91.8</speed>
<course>231.7</course>
<desc>Speed 91.8 km/h Distance 78.51 km</desc>
<time>2010-08-28T17:08:17.06</time>
<name>2646</name>
</trkpt>
<trkpt lat="49.458428" lon="8.956652">
<ele>335.5</ele>
<speed>86.2</speed>
<course>231.1</course>
<desc>Speed 86.2 km/h Distance 78.54 km</desc>
<time>2010-08-28T17:08:18.07</time>
<name>2647</name>
</trkpt>
<trkpt lat="49.458172" lon="8.956162">
<ele>335.0</ele>
<speed>84.7</speed>
<course>229.6</course>
<desc>Speed 84.7 km/h Distance 78.58 km</desc>
<time>2010-08-28T17:08:20.06</time>
<name>2648</name>
</trkpt>
<trkpt lat="49.458025" lon="8.955897">
<ele>333.5</ele>
<speed>90.8</speed>
<course>231.6</course>
<desc>Speed 90.8 km/h Distance 78.61 km</desc>
<time>2010-08-28T17:08:21.06</time>
<name>2649</name>
</trkpt>
<trkpt lat="49.457883" lon="8.955622">
<ele>334.0</ele>
<speed>86.0</speed>
<course>231.8</course>
<desc>Speed 86.0 km/h Distance 78.63 km</desc>
<time>2010-08-28T17:08:22.06</time>
<name>2650</name>
</trkpt>
<trkpt lat="49.457578" lon="8.955025">
<ele>333.5</ele>
<speed>97.7</speed>
<course>235.2</course>
<desc>Speed 97.7 km/h Distance 78.69 km</desc>
<time>2010-08-28T17:08:24.06</time>
<name>2651</name>
</trkpt>
<trkpt lat="49.457113" lon="8.953995">
<ele>333.0</ele>
<speed>97.7</speed>
<course>244.4</course>
<desc>Speed 97.7 km/h Distance 78.78 km</desc>
<time>2010-08-28T17:08:29.06</time>
<name>2652</name>
</trkpt>
<trkpt lat="49.456423" lon="8.951780">
<ele>333.0</ele>
<speed>97.7</speed>
<course>242.1</course>
<desc>Speed 97.7 km/h Distance 78.96 km</desc>
<time>2010-08-28T17:08:35.06</time>
<name>2653</name>
</trkpt>
<trkpt lat="49.456198" lon="8.951127">
<ele>333.5</ele>
<speed>97.7</speed>
<course>212.4</course>
<desc>Speed 97.7 km/h Distance 79.01 km</desc>
<time>2010-08-28T17:08:37.05</time>
<name>2654</name>
</trkpt>
<trkpt lat="49.455363" lon="8.950312">
<ele>333.5</ele>
<speed>97.7</speed>
<course>265.0</course>
<desc>Speed 97.7 km/h Distance 79.12 km</desc>
<time>2010-08-28T17:08:39.04</time>
<name>2655</name>
</trkpt>
<trkpt lat="49.455272" lon="8.948693">
<ele>333.5</ele>
<speed>97.7</speed>
<course>214.8</course>
<desc>Speed 97.7 km/h Distance 79.24 km</desc>
<time>2010-08-28T17:08:41.04</time>
<name>2656</name>
</trkpt>
<trkpt lat="49.453627" lon="8.946932">
<ele>334.0</ele>
<speed>97.7</speed>
<course>240.0</course>
<desc>Speed 97.7 km/h Distance 79.46 km</desc>
<time>2010-08-28T17:08:47.04</time>
<name>2657</name>
</trkpt>
<trkpt lat="49.452743" lon="8.944582">
<ele>333.5</ele>
<speed>97.7</speed>
<course>233.0</course>
<desc>Speed 97.7 km/h Distance 79.66 km</desc>
<time>2010-08-28T17:08:51.04</time>
<name>2658</name>
</trkpt>
<trkpt lat="49.452482" lon="8.944047">
<ele>333.5</ele>
<speed>97.7</speed>
<course>246.1</course>
<desc>Speed 97.7 km/h Distance 79.71 km</desc>
<time>2010-08-28T17:08:53.04</time>
<name>2659</name>
</trkpt>
<trkpt lat="49.451385" lon="8.940245">
<ele>332.5</ele>
<speed>127</speed>
<course>261.8</course>
<desc>Speed 127 km/h Distance 80.01 km</desc>
<time>2010-08-28T17:08:59.04</time>
<name>2660</name>
</trkpt>
<trkpt lat="49.451292" lon="8.939253">
<ele>332.5</ele>
<speed>121</speed>
<course>265.3</course>
<desc>Speed 121 km/h Distance 80.08 km</desc>
<time>2010-08-28T17:09:01.04</time>
<name>2661</name>
</trkpt>
<trkpt lat="49.451245" lon="8.938387">
<ele>331.5</ele>
<speed>120</speed>
<course>264.0</course>
<desc>Speed 120 km/h Distance 80.14 km</desc>
<time>2010-08-28T17:09:03.04</time>
<name>2662</name>
</trkpt>
<trkpt lat="49.451143" lon="8.936893">
<ele>326.5</ele>
<speed>118</speed>
<course>274.4</course>
<desc>Speed 118 km/h Distance 80.25 km</desc>
<time>2010-08-28T17:09:07.03</time>
<name>2663</name>
</trkpt>
<trkpt lat="49.451210" lon="8.935562">
<ele>313.5</ele>
<speed>115</speed>
<course>272.0</course>
<desc>Speed 115 km/h Distance 80.35 km</desc>
<time>2010-08-28T17:09:10.03</time>
<name>2664</name>
</trkpt>
<trkpt lat="49.451230" lon="8.934667">
<ele>307.5</ele>
<speed>113</speed>
<course>265.4</course>
<desc>Speed 113 km/h Distance 80.41 km</desc>
<time>2010-08-28T17:09:12.03</time>
<name>2665</name>
</trkpt>
<trkpt lat="49.451183" lon="8.933782">
<ele>306.0</ele>
<speed>114</speed>
<course>266.7</course>
<desc>Speed 114 km/h Distance 80.48 km</desc>
<time>2010-08-28T17:09:14.03</time>
<name>2666</name>
</trkpt>
<trkpt lat="49.451148" lon="8.932858">
<ele>303.5</ele>
<speed>114</speed>
<course>263.6</course>
<desc>Speed 114 km/h Distance 80.54 km</desc>
<time>2010-08-28T17:09:16.03</time>
<name>2667</name>
</trkpt>
<trkpt lat="49.451115" lon="8.932402">
<ele>303.0</ele>
<speed>115</speed>
<course>261.9</course>
<desc>Speed 115 km/h Distance 80.58 km</desc>
<time>2010-08-28T17:09:17.02</time>
<name>2668</name>
</trkpt>
<trkpt lat="49.451073" lon="8.931950">
<ele>302.5</ele>
<speed>114</speed>
<course>263.6</course>
<desc>Speed 114 km/h Distance 80.61 km</desc>
<time>2010-08-28T17:09:18.02</time>
<name>2669</name>
</trkpt>
<trkpt lat="49.451012" lon="8.931098">
<ele>301.5</ele>
<speed>118</speed>
<course>253.5</course>
<desc>Speed 118 km/h Distance 80.67 km</desc>
<time>2010-08-28T17:09:20.02</time>
<name>2670</name>
</trkpt>
<trkpt lat="49.450797" lon="8.929985">
<ele>299.5</ele>
<speed>110</speed>
<course>246.9</course>
<desc>Speed 110 km/h Distance 80.76 km</desc>
<time>2010-08-28T17:09:23.02</time>
<name>2671</name>
</trkpt>
<trkpt lat="49.450568" lon="8.929160">
<ele>298.0</ele>
<speed>104</speed>
<course>243.7</course>
<desc>Speed 104 km/h Distance 80.82 km</desc>
<time>2010-08-28T17:09:25.00</time>
<name>2672</name>
</trkpt>
<trkpt lat="49.450352" lon="8.928487">
<ele>297.0</ele>
<speed>101</speed>
<course>240.2</course>
<desc>Speed 101 km/h Distance 80.88 km</desc>
<time>2010-08-28T17:09:27.01</time>
<name>2673</name>
</trkpt>
<trkpt lat="49.450110" lon="8.927837">
<ele>297.0</ele>
<speed>95.9</speed>
<course>233.9</course>
<desc>Speed 95.9 km/h Distance 80.93 km</desc>
<time>2010-08-28T17:09:29.01</time>
<name>2674</name>
</trkpt>
<trkpt lat="49.449853" lon="8.927295">
<ele>296.5</ele>
<speed>95.9</speed>
<course>231.2</course>
<desc>Speed 95.9 km/h Distance 80.98 km</desc>
<time>2010-08-28T17:09:31.00</time>
<name>2675</name>
</trkpt>
<trkpt lat="49.449280" lon="8.926200">
<ele>295.5</ele>
<speed>83.4</speed>
<course>225.9</course>
<desc>Speed 83.4 km/h Distance 81.08 km</desc>
<time>2010-08-28T17:09:36.00</time>
<name>2676</name>
</trkpt>
<trkpt lat="49.448882" lon="8.925567">
<ele>295.5</ele>
<speed>83.4</speed>
<course>206.1</course>
<desc>Speed 83.4 km/h Distance 81.14 km</desc>
<time>2010-08-28T17:09:40.00</time>
<name>2677</name>
</trkpt>
<trkpt lat="49.446535" lon="8.923795">
<ele>293.0</ele>
<speed>75.7</speed>
<course>162.6</course>
<desc>Speed 75.7 km/h Distance 81.43 km</desc>
<time>2010-08-28T17:09:52.99</time>
<name>2678</name>
</trkpt>
<trkpt lat="49.444867" lon="8.924598">
<ele>270.0</ele>
<speed>70.7</speed>
<course>190.1</course>
<desc>Speed 70.7 km/h Distance 81.63 km</desc>
<time>2010-08-28T17:09:58.98</time>
<name>2679</name>
</trkpt>
<trkpt lat="49.444708" lon="8.924555">
<ele>266.5</ele>
<speed>70.7</speed>
<course>192.6</course>
<desc>Speed 70.7 km/h Distance 81.65 km</desc>
<time>2010-08-28T17:09:59.98</time>
<name>2680</name>
</trkpt>
<trkpt lat="49.444403" lon="8.924450">
<ele>259.5</ele>
<speed>71.6</speed>
<course>191.0</course>
<desc>Speed 71.6 km/h Distance 81.68 km</desc>
<time>2010-08-28T17:10:01.99</time>
<name>2681</name>
</trkpt>
<trkpt lat="49.443820" lon="8.924275">
<ele>255.5</ele>
<speed>69.7</speed>
<course>200.4</course>
<desc>Speed 69.7 km/h Distance 81.75 km</desc>
<time>2010-08-28T17:10:04.98</time>
<name>2682</name>
</trkpt>
<trkpt lat="49.443003" lon="8.923808">
<ele>256.0</ele>
<speed>87.0</speed>
<course>200.7</course>
<desc>Speed 87.0 km/h Distance 81.84 km</desc>
<time>2010-08-28T17:10:08.98</time>
<name>2683</name>
</trkpt>
<trkpt lat="49.442313" lon="8.923407">
<ele>254.5</ele>
<speed>87.0</speed>
<course>239.5</course>
<desc>Speed 87.0 km/h Distance 81.93 km</desc>
<time>2010-08-28T17:10:11.97</time>
<name>2684</name>
</trkpt>
<trkpt lat="49.441933" lon="8.922413">
<ele>257.0</ele>
<speed>104</speed>
<course>238.5</course>
<desc>Speed 104 km/h Distance 82.01 km</desc>
<time>2010-08-28T17:10:14.97</time>
<name>2685</name>
</trkpt>
<trkpt lat="49.441805" lon="8.922092">
<ele>256.5</ele>
<speed>104</speed>
<course>246.2</course>
<desc>Speed 104 km/h Distance 82.04 km</desc>
<time>2010-08-28T17:10:15.97</time>
<name>2686</name>
</trkpt>
<trkpt lat="49.441323" lon="8.920415">
<ele>251.5</ele>
<speed>104</speed>
<course>260.6</course>
<desc>Speed 104 km/h Distance 82.17 km</desc>
<time>2010-08-28T17:10:19.97</time>
<name>2687</name>
</trkpt>
<trkpt lat="49.441228" lon="8.919533">
<ele>251.5</ele>
<speed>104</speed>
<course>237.5</course>
<desc>Speed 104 km/h Distance 82.23 km</desc>
<time>2010-08-28T17:10:21.97</time>
<name>2688</name>
</trkpt>
<trkpt lat="49.439958" lon="8.916465">
<ele>247.0</ele>
<speed>125</speed>
<course>250.6</course>
<desc>Speed 125 km/h Distance 82.50 km</desc>
<time>2010-08-28T17:10:27.96</time>
<name>2689</name>
</trkpt>
<trkpt lat="49.439652" lon="8.915127">
<ele>246.5</ele>
<speed>125</speed>
<course>243.8</course>
<desc>Speed 125 km/h Distance 82.60 km</desc>
<time>2010-08-28T17:10:33.96</time>
<name>2690</name>
</trkpt>
<trkpt lat="49.439542" lon="8.914783">
<ele>246.5</ele>
<speed>125</speed>
<course>281.5</course>
<desc>Speed 125 km/h Distance 82.63 km</desc>
<time>2010-08-28T17:10:39.96</time>
<name>2691</name>
</trkpt>
<trkpt lat="49.439805" lon="8.912798">
<ele>262.0</ele>
<speed>105</speed>
<course>262.8</course>
<desc>Speed 105 km/h Distance 82.78 km</desc>
<time>2010-08-28T17:10:43.95</time>
<name>2692</name>
</trkpt>
<trkpt lat="49.439452" lon="8.908492">
<ele>268.0</ele>
<speed>100</speed>
<course>280.3</course>
<desc>Speed 100 km/h Distance 83.09 km</desc>
<time>2010-08-28T17:10:50.95</time>
<name>2693</name>
</trkpt>
<trkpt lat="49.439792" lon="8.905602">
<ele>271.0</ele>
<speed>82.0</speed>
<course>283.5</course>
<desc>Speed 82.0 km/h Distance 83.30 km</desc>
<time>2010-08-28T17:10:55.95</time>
<name>2694</name>
</trkpt>
<trkpt lat="49.439945" lon="8.904620">
<ele>269.5</ele>
<speed>82.0</speed>
<course>294.9</course>
<desc>Speed 82.0 km/h Distance 83.38 km</desc>
<time>2010-08-28T17:11:01.94</time>
<name>2695</name>
</trkpt>
<trkpt lat="49.440020" lon="8.904372">
<ele>269.5</ele>
<speed>82.0</speed>
<course>300.9</course>
<desc>Speed 82.0 km/h Distance 83.39 km</desc>
<time>2010-08-28T17:11:05.94</time>
<name>2696</name>
</trkpt>
<trkpt lat="49.440175" lon="8.903973">
<ele>269.0</ele>
<speed>82.0</speed>
<course>251.1</course>
<desc>Speed 82.0 km/h Distance 83.43 km</desc>
<time>2010-08-28T17:11:07.93</time>
<name>2697</name>
</trkpt>
<trkpt lat="49.439490" lon="8.900892">
<ele>268.0</ele>
<speed>82.0</speed>
<course>239.9</course>
<desc>Speed 82.0 km/h Distance 83.66 km</desc>
<time>2010-08-28T17:11:16.93</time>
<name>2698</name>
</trkpt>
<trkpt lat="49.438585" lon="8.898493">
<ele>265.5</ele>
<speed>71.2</speed>
<course>236.6</course>
<desc>Speed 71.2 km/h Distance 83.87 km</desc>
<time>2010-08-28T17:11:22.92</time>
<name>2699</name>
</trkpt>
<trkpt lat="49.438347" lon="8.897938">
<ele>261.5</ele>
<speed>70.2</speed>
<course>226.5</course>
<desc>Speed 70.2 km/h Distance 83.91 km</desc>
<time>2010-08-28T17:11:25.93</time>
<name>2700</name>
</trkpt>
<trkpt lat="49.437763" lon="8.896993">
<ele>258.0</ele>
<speed>56.6</speed>
<course>227.5</course>
<desc>Speed 56.6 km/h Distance 84.01 km</desc>
<time>2010-08-28T17:11:29.92</time>
<name>2701</name>
</trkpt>
<trkpt lat="49.437613" lon="8.896742">
<ele>257.5</ele>
<speed>56.6</speed>
<course>253.4</course>
<desc>Speed 56.6 km/h Distance 84.03 km</desc>
<time>2010-08-28T17:11:31.92</time>
<name>2702</name>
</trkpt>
<trkpt lat="49.437538" lon="8.896355">
<ele>249.0</ele>
<speed>56.6</speed>
<course>284.9</course>
<desc>Speed 56.6 km/h Distance 84.06 km</desc>
<time>2010-08-28T17:11:34.92</time>
<name>2703</name>
</trkpt>
<trkpt lat="49.437608" lon="8.895950">
<ele>245.5</ele>
<speed>56.6</speed>
<course>355.4</course>
<desc>Speed 56.6 km/h Distance 84.09 km</desc>
<time>2010-08-28T17:11:39.92</time>
<name>2704</name>
</trkpt>
<trkpt lat="49.437878" lon="8.895917">
<ele>249.5</ele>
<speed>49.2</speed>
<course>14.1</course>
<desc>Speed 49.2 km/h Distance 84.12 km</desc>
<time>2010-08-28T17:11:42.92</time>
<name>2705</name>
</trkpt>
<trkpt lat="49.438177" lon="8.896032">
<ele>252.0</ele>
<speed>46.5</speed>
<course>17.8</course>
<desc>Speed 46.5 km/h Distance 84.16 km</desc>
<time>2010-08-28T17:11:44.92</time>
<name>2706</name>
</trkpt>
<trkpt lat="49.438295" lon="8.896090">
<ele>252.0</ele>
<speed>45.0</speed>
<course>21.8</course>
<desc>Speed 45.0 km/h Distance 84.17 km</desc>
<time>2010-08-28T17:11:45.92</time>
<name>2707</name>
</trkpt>
<trkpt lat="49.438412" lon="8.896162">
<ele>252.5</ele>
<speed>41.0</speed>
<course>10.4</course>
<desc>Speed 41.0 km/h Distance 84.18 km</desc>
<time>2010-08-28T17:11:46.91</time>
<name>2708</name>
</trkpt>
<trkpt lat="49.438500" lon="8.896187">
<ele>252.5</ele>
<speed>41.0</speed>
<course>356.1</course>
<desc>Speed 41.0 km/h Distance 84.19 km</desc>
<time>2010-08-28T17:11:47.92</time>
<name>2709</name>
</trkpt>
<trkpt lat="49.438612" lon="8.896175">
<ele>251.5</ele>
<speed>36.0</speed>
<course>341.0</course>
<desc>Speed 36.0 km/h Distance 84.21 km</desc>
<time>2010-08-28T17:11:48.91</time>
<name>2710</name>
</trkpt>
<trkpt lat="49.438700" lon="8.896128">
<ele>251.0</ele>
<speed>36.0</speed>
<course>337.6</course>
<desc>Speed 36.0 km/h Distance 84.22 km</desc>
<time>2010-08-28T17:11:49.91</time>
<name>2711</name>
</trkpt>
<trkpt lat="49.438892" lon="8.896007">
<ele>250.0</ele>
<speed>30.8</speed>
<course>346.1</course>
<desc>Speed 30.8 km/h Distance 84.24 km</desc>
<time>2010-08-28T17:11:51.91</time>
<name>2712</name>
</trkpt>
<trkpt lat="49.438962" lon="8.895980">
<ele>249.5</ele>
<speed>30.8</speed>
<course>348.4</course>
<desc>Speed 30.8 km/h Distance 84.25 km</desc>
<time>2010-08-28T17:11:52.90</time>
<name>2713</name>
</trkpt>
<trkpt lat="49.439020" lon="8.895962">
<ele>249.5</ele>
<speed>30.8</speed>
<course>356.8</course>
<desc>Speed 30.8 km/h Distance 84.25 km</desc>
<time>2010-08-28T17:11:53.91</time>
<name>2714</name>
</trkpt>
<trkpt lat="49.439115" lon="8.895953">
<ele>249.5</ele>
<speed>30.8</speed>
<course>33.6</course>
<desc>Speed 30.8 km/h Distance 84.27 km</desc>
<time>2010-08-28T17:11:55.91</time>
<name>2715</name>
</trkpt>
<trkpt lat="49.439193" lon="8.896033">
<ele>249.5</ele>
<speed>30.8</speed>
<course>8.1</course>
<desc>Speed 30.8 km/h Distance 84.28 km</desc>
<time>2010-08-28T17:11:56.91</time>
<name>2716</name>
</trkpt>
<trkpt lat="49.439285" lon="8.896053">
<ele>249.5</ele>
<speed>30.8</speed>
<course>19.3</course>
<desc>Speed 30.8 km/h Distance 84.29 km</desc>
<time>2010-08-28T17:11:58.90</time>
<name>2717</name>
</trkpt>
<trkpt lat="49.439642" lon="8.896245">
<ele>252.5</ele>
<speed>30.8</speed>
<course>16.0</course>
<desc>Speed 30.8 km/h Distance 84.33 km</desc>
<time>2010-08-28T17:12:01.90</time>
<name>2718</name>
</trkpt>
<trkpt lat="49.439740" lon="8.896288">
<ele>251.5</ele>
<speed>30.8</speed>
<course>8.2</course>
<desc>Speed 30.8 km/h Distance 84.34 km</desc>
<time>2010-08-28T17:12:04.90</time>
<name>2719</name>
</trkpt>
<trkpt lat="49.440320" lon="8.896417">
<ele>245.5</ele>
<speed>50.3</speed>
<course>3.7</course>
<desc>Speed 50.3 km/h Distance 84.40 km</desc>
<time>2010-08-28T17:12:08.90</time>
<name>2720</name>
</trkpt>
<trkpt lat="49.440637" lon="8.896448">
<ele>242.0</ele>
<speed>54.5</speed>
<course>1.7</course>
<desc>Speed 54.5 km/h Distance 84.44 km</desc>
<time>2010-08-28T17:12:10.90</time>
<name>2721</name>
</trkpt>
<trkpt lat="49.440785" lon="8.896455">
<ele>241.0</ele>
<speed>54.5</speed>
<course>6.2</course>
<desc>Speed 54.5 km/h Distance 84.46 km</desc>
<time>2010-08-28T17:12:11.89</time>
<name>2722</name>
</trkpt>
<trkpt lat="49.440985" lon="8.896488">
<ele>239.5</ele>
<speed>54.5</speed>
<course>357.4</course>
<desc>Speed 54.5 km/h Distance 84.48 km</desc>
<time>2010-08-28T17:12:13.90</time>
<name>2723</name>
</trkpt>
<trkpt lat="49.441787" lon="8.896433">
<ele>239.5</ele>
<speed>51.4</speed>
<course>357.3</course>
<desc>Speed 51.4 km/h Distance 84.57 km</desc>
<time>2010-08-28T17:12:17.90</time>
<name>2724</name>
</trkpt>
<trkpt lat="49.442313" lon="8.896395">
<ele>241.5</ele>
<speed>50.2</speed>
<course>358.9</course>
<desc>Speed 50.2 km/h Distance 84.63 km</desc>
<time>2010-08-28T17:12:20.89</time>
<name>2725</name>
</trkpt>
<trkpt lat="49.442430" lon="8.896392">
<ele>241.5</ele>
<speed>45.2</speed>
<course>0.0</course>
<desc>Speed 45.2 km/h Distance 84.64 km</desc>
<time>2010-08-28T17:12:21.89</time>
<name>2726</name>
</trkpt>
<trkpt lat="49.442702" lon="8.896392">
<ele>234.0</ele>
<speed>46.3</speed>
<course>2.5</course>
<desc>Speed 46.3 km/h Distance 84.67 km</desc>
<time>2010-08-28T17:12:23.89</time>
<name>2727</name>
</trkpt>
<trkpt lat="49.442803" lon="8.896398">
<ele>233.5</ele>
<speed>46.3</speed>
<course>16.5</course>
<desc>Speed 46.3 km/h Distance 84.68 km</desc>
<time>2010-08-28T17:12:24.89</time>
<name>2728</name>
</trkpt>
<trkpt lat="49.442997" lon="8.896487">
<ele>230.0</ele>
<speed>46.3</speed>
<course>5.6</course>
<desc>Speed 46.3 km/h Distance 84.70 km</desc>
<time>2010-08-28T17:12:26.89</time>
<name>2729</name>
</trkpt>
<trkpt lat="49.443405" lon="8.896548">
<ele>220.0</ele>
<speed>37.5</speed>
<course>9.3</course>
<desc>Speed 37.5 km/h Distance 84.75 km</desc>
<time>2010-08-28T17:12:29.89</time>
<name>2730</name>
</trkpt>
<trkpt lat="49.443603" lon="8.896598">
<ele>211.5</ele>
<speed>37.5</speed>
<course>342.2</course>
<desc>Speed 37.5 km/h Distance 84.77 km</desc>
<time>2010-08-28T17:12:31.89</time>
<name>2731</name>
</trkpt>
<trkpt lat="49.443823" lon="8.896490">
<ele>211.0</ele>
<speed>39.6</speed>
<course>355.1</course>
<desc>Speed 39.6 km/h Distance 84.80 km</desc>
<time>2010-08-28T17:12:33.88</time>
<name>2732</name>
</trkpt>
<trkpt lat="49.443925" lon="8.896477">
<ele>209.5</ele>
<speed>39.6</speed>
<course>338.3</course>
<desc>Speed 39.6 km/h Distance 84.81 km</desc>
<time>2010-08-28T17:12:34.89</time>
<name>2733</name>
</trkpt>
<trkpt lat="49.444153" lon="8.896337">
<ele>202.5</ele>
<speed>39.6</speed>
<course>356.3</course>
<desc>Speed 39.6 km/h Distance 84.84 km</desc>
<time>2010-08-28T17:12:36.89</time>
<name>2734</name>
</trkpt>
<trkpt lat="49.444340" lon="8.896318">
<ele>201.0</ele>
<speed>39.6</speed>
<course>331.7</course>
<desc>Speed 39.6 km/h Distance 84.86 km</desc>
<time>2010-08-28T17:12:39.89</time>
<name>2735</name>
</trkpt>
<trkpt lat="49.444497" lon="8.896188">
<ele>198.0</ele>
<speed>39.6</speed>
<course>347.1</course>
<desc>Speed 39.6 km/h Distance 84.88 km</desc>
<time>2010-08-28T17:12:41.88</time>
<name>2736</name>
</trkpt>
<trkpt lat="49.444705" lon="8.896115">
<ele>190.0</ele>
<speed>39.6</speed>
<course>21.0</course>
<desc>Speed 39.6 km/h Distance 84.90 km</desc>
<time>2010-08-28T17:12:45.88</time>
<name>2737</name>
</trkpt>
<trkpt lat="49.444827" lon="8.896187">
<ele>187.0</ele>
<speed>39.6</speed>
<course>351.5</course>
<desc>Speed 39.6 km/h Distance 84.92 km</desc>
<time>2010-08-28T17:12:47.87</time>
<name>2738</name>
</trkpt>
<trkpt lat="49.444928" lon="8.896163">
<ele>182.5</ele>
<speed>39.6</speed>
<course>21.0</course>
<desc>Speed 39.6 km/h Distance 84.93 km</desc>
<time>2010-08-28T17:12:48.88</time>
<name>2739</name>
</trkpt>
<trkpt lat="49.446195" lon="8.896910">
<ele>155.0</ele>
<speed>29.4</speed>
<course>24.0</course>
<desc>Speed 29.4 km/h Distance 85.08 km</desc>
<time>2010-08-28T17:12:54.87</time>
<name>2740</name>
</trkpt>
<trkpt lat="49.446358" lon="8.897022">
<ele>162.5</ele>
<speed>6.3</speed>
<course>16.2</course>
<desc>Speed 6.3 km/h Distance 85.10 km</desc>
<time>2010-08-28T17:12:58.87</time>
<name>2741</name>
</trkpt>
<trkpt lat="49.446377" lon="8.897030">
<ele>164.0</ele>
<speed>6.3</speed>
<course>7.0</course>
<desc>Speed 6.3 km/h Distance 85.10 km</desc>
<time>2010-08-28T17:12:59.88</time>
<name>2742</name>
</trkpt>
<trkpt lat="49.446562" lon="8.897065">
<ele>163.5</ele>
<speed>21.0</speed>
<course>340.9</course>
<desc>Speed 21.0 km/h Distance 85.12 km</desc>
<time>2010-08-28T17:13:02.87</time>
<name>2743</name>
</trkpt>
<trkpt lat="49.446612" lon="8.897038">
<ele>161.0</ele>
<speed>21.0</speed>
<course>349.3</course>
<desc>Speed 21.0 km/h Distance 85.13 km</desc>
<time>2010-08-28T17:13:03.87</time>
<name>2744</name>
</trkpt>
<trkpt lat="49.446647" lon="8.897028">
<ele>160.0</ele>
<speed>21.0</speed>
<course>322.9</course>
<desc>Speed 21.0 km/h Distance 85.13 km</desc>
<time>2010-08-28T17:13:04.87</time>
<name>2745</name>
</trkpt>
<trkpt lat="49.446832" lon="8.896813">
<ele>164.5</ele>
<speed>21.0</speed>
<course>328.2</course>
<desc>Speed 21.0 km/h Distance 85.16 km</desc>
<time>2010-08-28T17:13:07.86</time>
<name>2746</name>
</trkpt>
<trkpt lat="49.446868" lon="8.896778">
<ele>163.0</ele>
<speed>21.0</speed>
<course>334.9</course>
<desc>Speed 21.0 km/h Distance 85.16 km</desc>
<time>2010-08-28T17:13:08.87</time>
<name>2747</name>
</trkpt>
<trkpt lat="49.446910" lon="8.896748">
<ele>160.5</ele>
<speed>21.0</speed>
<course>352.0</course>
<desc>Speed 21.0 km/h Distance 85.17 km</desc>
<time>2010-08-28T17:13:09.86</time>
<name>2748</name>
</trkpt>
<trkpt lat="49.446972" lon="8.896735">
<ele>157.0</ele>
<speed>21.0</speed>
<course>338.3</course>
<desc>Speed 21.0 km/h Distance 85.17 km</desc>
<time>2010-08-28T17:13:10.86</time>
<name>2749</name>
</trkpt>
<trkpt lat="49.447032" lon="8.896698">
<ele>153.0</ele>
<speed>21.0</speed>
<course>301.6</course>
<desc>Speed 21.0 km/h Distance 85.18 km</desc>
<time>2010-08-28T17:13:12.85</time>
<name>2750</name>
</trkpt>
<trkpt lat="49.447058" lon="8.896632">
<ele>154.0</ele>
<speed>21.0</speed>
<course>291.1</course>
<desc>Speed 21.0 km/h Distance 85.19 km</desc>
<time>2010-08-28T17:13:14.85</time>
<name>2751</name>
</trkpt>
<trkpt lat="49.447163" lon="8.896213">
<ele>152.0</ele>
<speed>21.0</speed>
<course>312.3</course>
<desc>Speed 21.0 km/h Distance 85.22 km</desc>
<time>2010-08-28T17:13:18.86</time>
<name>2752</name>
</trkpt>
<trkpt lat="49.448142" lon="8.894562">
<ele>134.5</ele>
<speed>67.3</speed>
<course>300.7</course>
<desc>Speed 67.3 km/h Distance 85.38 km</desc>
<time>2010-08-28T17:13:24.86</time>
<name>2753</name>
</trkpt>
<trkpt lat="49.448757" lon="8.892968">
<ele>121.5</ele>
<speed>75.3</speed>
<course>291.6</course>
<desc>Speed 75.3 km/h Distance 85.51 km</desc>
<time>2010-08-28T17:13:29.85</time>
<name>2754</name>
</trkpt>
<trkpt lat="49.448895" lon="8.892432">
<ele>121.0</ele>
<speed>73.2</speed>
<course>290.7</course>
<desc>Speed 73.2 km/h Distance 85.56 km</desc>
<time>2010-08-28T17:13:31.86</time>
<name>2755</name>
</trkpt>
<trkpt lat="49.449017" lon="8.891937">
<ele>121.0</ele>
<speed>72.1</speed>
<course>287.3</course>
<desc>Speed 72.1 km/h Distance 85.59 km</desc>
<time>2010-08-28T17:13:33.85</time>
<name>2756</name>
</trkpt>
<trkpt lat="49.449068" lon="8.891682">
<ele>124.5</ele>
<speed>72.1</speed>
<course>289.1</course>
<desc>Speed 72.1 km/h Distance 85.61 km</desc>
<time>2010-08-28T17:13:34.85</time>
<name>2757</name>
</trkpt>
<trkpt lat="49.449238" lon="8.890925">
<ele>122.0</ele>
<speed>72.1</speed>
<course>287.0</course>
<desc>Speed 72.1 km/h Distance 85.67 km</desc>
<time>2010-08-28T17:13:39.84</time>
<name>2758</name>
</trkpt>
<trkpt lat="49.449357" lon="8.890330">
<ele>130.5</ele>
<speed>72.1</speed>
<course>286.2</course>
<desc>Speed 72.1 km/h Distance 85.72 km</desc>
<time>2010-08-28T17:13:42.84</time>
<name>2759</name>
</trkpt>
<trkpt lat="49.449408" lon="8.890057">
<ele>134.5</ele>
<speed>72.1</speed>
<course>279.6</course>
<desc>Speed 72.1 km/h Distance 85.74 km</desc>
<time>2010-08-28T17:13:43.84</time>
<name>2760</name>
</trkpt>
<trkpt lat="49.449468" lon="8.889512">
<ele>131.5</ele>
<speed>68.2</speed>
<course>293.0</course>
<desc>Speed 68.2 km/h Distance 85.78 km</desc>
<time>2010-08-28T17:13:45.84</time>
<name>2761</name>
</trkpt>
<trkpt lat="49.449715" lon="8.888618">
<ele>143.5</ele>
<speed>61.0</speed>
<course>298.1</course>
<desc>Speed 61.0 km/h Distance 85.85 km</desc>
<time>2010-08-28T17:13:48.83</time>
<name>2762</name>
</trkpt>
<trkpt lat="49.450237" lon="8.887117">
<ele>188.0</ele>
<speed>72.8</speed>
<course>281.6</course>
<desc>Speed 72.8 km/h Distance 85.97 km</desc>
<time>2010-08-28T17:13:53.83</time>
<name>2763</name>
</trkpt>
<trkpt lat="49.450275" lon="8.886830">
<ele>188.0</ele>
<speed>71.2</speed>
<course>269.8</course>
<desc>Speed 71.2 km/h Distance 85.99 km</desc>
<time>2010-08-28T17:13:54.83</time>
<name>2764</name>
</trkpt>
<trkpt lat="49.450273" lon="8.886070">
<ele>185.5</ele>
<speed>75.5</speed>
<course>259.2</course>
<desc>Speed 75.5 km/h Distance 86.05 km</desc>
<time>2010-08-28T17:13:57.83</time>
<name>2765</name>
</trkpt>
<trkpt lat="49.450147" lon="8.885050">
<ele>197.5</ele>
<speed>73.1</speed>
<course>254.7</course>
<desc>Speed 73.1 km/h Distance 86.12 km</desc>
<time>2010-08-28T17:14:00.83</time>
<name>2766</name>
</trkpt>
<trkpt lat="49.450097" lon="8.884768">
<ele>198.5</ele>
<speed>71.7</speed>
<course>259.2</course>
<desc>Speed 71.7 km/h Distance 86.14 km</desc>
<time>2010-08-28T17:14:01.83</time>
<name>2767</name>
</trkpt>
<trkpt lat="49.450037" lon="8.884283">
<ele>200.0</ele>
<speed>64.9</speed>
<course>280.6</course>
<desc>Speed 64.9 km/h Distance 86.18 km</desc>
<time>2010-08-28T17:14:03.83</time>
<name>2768</name>
</trkpt>
<trkpt lat="49.450067" lon="8.884037">
<ele>199.0</ele>
<speed>63.3</speed>
<course>266.5</course>
<desc>Speed 63.3 km/h Distance 86.20 km</desc>
<time>2010-08-28T17:14:04.83</time>
<name>2769</name>
</trkpt>
<trkpt lat="49.450045" lon="8.883488">
<ele>200.5</ele>
<speed>75.3</speed>
<course>269.2</course>
<desc>Speed 75.3 km/h Distance 86.24 km</desc>
<time>2010-08-28T17:14:06.82</time>
<name>2770</name>
</trkpt>
<trkpt lat="49.450038" lon="8.882772">
<ele>196.0</ele>
<speed>75.3</speed>
<course>284.4</course>
<desc>Speed 75.3 km/h Distance 86.29 km</desc>
<time>2010-08-28T17:14:10.82</time>
<name>2771</name>
</trkpt>
<trkpt lat="49.450113" lon="8.882322">
<ele>206.5</ele>
<speed>75.3</speed>
<course>303.9</course>
<desc>Speed 75.3 km/h Distance 86.32 km</desc>
<time>2010-08-28T17:14:16.82</time>
<name>2772</name>
</trkpt>
<trkpt lat="49.450765" lon="8.880828">
<ele>207.0</ele>
<speed>75.3</speed>
<course>306.1</course>
<desc>Speed 75.3 km/h Distance 86.45 km</desc>
<time>2010-08-28T17:14:23.81</time>
<name>2773</name>
</trkpt>
<trkpt lat="49.451008" lon="8.880315">
<ele>207.0</ele>
<speed>75.3</speed>
<course>311.5</course>
<desc>Speed 75.3 km/h Distance 86.50 km</desc>
<time>2010-08-28T17:14:25.80</time>
<name>2774</name>
</trkpt>
<trkpt lat="49.452563" lon="8.877607">
<ele>207.0</ele>
<speed>107</speed>
<course>315.4</course>
<desc>Speed 107 km/h Distance 86.76 km</desc>
<time>2010-08-28T17:14:27.80</time>
<name>2775</name>
</trkpt>
<trkpt lat="49.452948" lon="8.877023">
<ele>206.0</ele>
<speed>107</speed>
<course>318.3</course>
<desc>Speed 107 km/h Distance 86.82 km</desc>
<time>2010-08-28T17:14:29.81</time>
<name>2776</name>
</trkpt>
<trkpt lat="49.453715" lon="8.875973">
<ele>205.5</ele>
<speed>107</speed>
<course>280.5</course>
<desc>Speed 107 km/h Distance 86.93 km</desc>
<time>2010-08-28T17:14:35.80</time>
<name>2777</name>
</trkpt>
<trkpt lat="49.453810" lon="8.875182">
<ele>207.5</ele>
<speed>107</speed>
<course>314.1</course>
<desc>Speed 107 km/h Distance 86.99 km</desc>
<time>2010-08-28T17:14:41.79</time>
<name>2778</name>
</trkpt>
<trkpt lat="49.454498" lon="8.874090">
<ele>207.5</ele>
<speed>107</speed>
<course>341.1</course>
<desc>Speed 107 km/h Distance 87.10 km</desc>
<time>2010-08-28T17:14:44.79</time>
<name>2779</name>
</trkpt>
<trkpt lat="49.456875" lon="8.872837">
<ele>209.0</ele>
<speed>107</speed>
<course>328.7</course>
<desc>Speed 107 km/h Distance 87.38 km</desc>
<time>2010-08-28T17:14:52.80</time>
<name>2780</name>
</trkpt>
<trkpt lat="49.457610" lon="8.872148">
<ele>208.0</ele>
<speed>107</speed>
<course>337.0</course>
<desc>Speed 107 km/h Distance 87.48 km</desc>
<time>2010-08-28T17:14:55.78</time>
<name>2781</name>
</trkpt>
<trkpt lat="49.457870" lon="8.871978">
<ele>207.0</ele>
<speed>107</speed>
<course>319.6</course>
<desc>Speed 107 km/h Distance 87.51 km</desc>
<time>2010-08-28T17:15:02.76</time>
<name>2782</name>
</trkpt>
<trkpt lat="49.457993" lon="8.871817">
<ele>207.0</ele>
<speed>107</speed>
<course>332.4</course>
<desc>Speed 107 km/h Distance 87.53 km</desc>
<time>2010-08-28T17:15:04.78</time>
<name>2783</name>
</trkpt>
<trkpt lat="49.458742" lon="8.871215">
<ele>207.0</ele>
<speed>107</speed>
<course>336.2</course>
<desc>Speed 107 km/h Distance 87.62 km</desc>
<time>2010-08-28T17:15:06.78</time>
<name>2784</name>
</trkpt>
<trkpt lat="49.459777" lon="8.870513">
<ele>206.5</ele>
<speed>107</speed>
<course>337.2</course>
<desc>Speed 107 km/h Distance 87.75 km</desc>
<time>2010-08-28T17:15:08.77</time>
<name>2785</name>
</trkpt>
<trkpt lat="49.460138" lon="8.870280">
<ele>206.5</ele>
<speed>107</speed>
<course>293.0</course>
<desc>Speed 107 km/h Distance 87.79 km</desc>
<time>2010-08-28T17:15:10.77</time>
<name>2786</name>
</trkpt>
<trkpt lat="49.460310" lon="8.869658">
<ele>206.5</ele>
<speed>107</speed>
<course>355.0</course>
<desc>Speed 107 km/h Distance 87.84 km</desc>
<time>2010-08-28T17:15:16.77</time>
<name>2787</name>
</trkpt>
<trkpt lat="49.460495" lon="8.869633">
<ele>206.5</ele>
<speed>107</speed>
<course>337.9</course>
<desc>Speed 107 km/h Distance 87.86 km</desc>
<time>2010-08-28T17:15:21.79</time>
<name>2788</name>
</trkpt>
<trkpt lat="49.461962" lon="8.868717">
<ele>206.5</ele>
<speed>107</speed>
<course>311.2</course>
<desc>Speed 107 km/h Distance 88.04 km</desc>
<time>2010-08-28T17:15:23.78</time>
<name>2789</name>
</trkpt>
<trkpt lat="49.462742" lon="8.867345">
<ele>206.5</ele>
<speed>107</speed>
<course>340.1</course>
<desc>Speed 107 km/h Distance 88.17 km</desc>
<time>2010-08-28T17:15:25.78</time>
<name>2790</name>
</trkpt>
<trkpt lat="49.463053" lon="8.867172">
<ele>206.5</ele>
<speed>107</speed>
<course>4.9</course>
<desc>Speed 107 km/h Distance 88.21 km</desc>
<time>2010-08-28T17:15:27.78</time>
<name>2791</name>
</trkpt>
<trkpt lat="49.463462" lon="8.867225">
<ele>206.5</ele>
<speed>107</speed>
<course>316.4</course>
<desc>Speed 107 km/h Distance 88.25 km</desc>
<time>2010-08-28T17:15:29.78</time>
<name>2792</name>
</trkpt>
<trkpt lat="49.464150" lon="8.866217">
<ele>206.0</ele>
<speed>107</speed>
<course>300.2</course>
<desc>Speed 107 km/h Distance 88.36 km</desc>
<time>2010-08-28T17:15:35.77</time>
<name>2793</name>
</trkpt>
<trkpt lat="49.464767" lon="8.864587">
<ele>206.5</ele>
<speed>76.0</speed>
<course>265.0</course>
<desc>Speed 76.0 km/h Distance 88.49 km</desc>
<time>2010-08-28T17:15:37.77</time>
<name>2794</name>
</trkpt>
<trkpt lat="49.464678" lon="8.863042">
<ele>206.0</ele>
<speed>76.0</speed>
<course>280.8</course>
<desc>Speed 76.0 km/h Distance 88.61 km</desc>
<time>2010-08-28T17:15:41.77</time>
<name>2795</name>
</trkpt>
<trkpt lat="49.464742" lon="8.862530">
<ele>206.0</ele>
<speed>76.0</speed>
<course>302.0</course>
<desc>Speed 76.0 km/h Distance 88.64 km</desc>
<time>2010-08-28T17:15:43.77</time>
<name>2796</name>
</trkpt>
<trkpt lat="49.465150" lon="8.861523">
<ele>206.5</ele>
<speed>88.2</speed>
<course>309.1</course>
<desc>Speed 88.2 km/h Distance 88.73 km</desc>
<time>2010-08-28T17:15:49.76</time>
<name>2797</name>
</trkpt>
<trkpt lat="49.465448" lon="8.860958">
<ele>207.0</ele>
<speed>88.2</speed>
<course>287.9</course>
<desc>Speed 88.2 km/h Distance 88.78 km</desc>
<time>2010-08-28T17:15:51.76</time>
<name>2798</name>
</trkpt>
<trkpt lat="49.465710" lon="8.859715">
<ele>207.5</ele>
<speed>88.2</speed>
<course>277.4</course>
<desc>Speed 88.2 km/h Distance 88.88 km</desc>
<time>2010-08-28T17:15:56.76</time>
<name>2799</name>
</trkpt>
<trkpt lat="49.465747" lon="8.859280">
<ele>207.5</ele>
<speed>88.2</speed>
<course>348.7</course>
<desc>Speed 88.2 km/h Distance 88.91 km</desc>
<time>2010-08-28T17:16:02.75</time>
<name>2800</name>
</trkpt>
<trkpt lat="49.465833" lon="8.859253">
<ele>207.5</ele>
<speed>88.2</speed>
<course>321.5</course>
<desc>Speed 88.2 km/h Distance 88.92 km</desc>
<time>2010-08-28T17:16:08.73</time>
<name>2801</name>
</trkpt>
<trkpt lat="49.468462" lon="8.856042">
<ele>208.0</ele>
<speed>88.2</speed>
<course>301.3</course>
<desc>Speed 88.2 km/h Distance 89.29 km</desc>
<time>2010-08-28T17:16:13.74</time>
<name>2802</name>
</trkpt>
<trkpt lat="49.468725" lon="8.855375">
<ele>208.0</ele>
<speed>88.2</speed>
<course>309.3</course>
<desc>Speed 88.2 km/h Distance 89.35 km</desc>
<time>2010-08-28T17:16:19.74</time>
<name>2803</name>
</trkpt>
<trkpt lat="49.468852" lon="8.855137">
<ele>208.5</ele>
<speed>88.2</speed>
<course>304.5</course>
<desc>Speed 88.2 km/h Distance 89.37 km</desc>
<time>2010-08-28T17:16:25.72</time>
<name>2804</name>
</trkpt>
<trkpt lat="49.469248" lon="8.854248">
<ele>208.0</ele>
<speed>73.3</speed>
<course>306.4</course>
<desc>Speed 73.3 km/h Distance 89.45 km</desc>
<time>2010-08-28T17:16:31.72</time>
<name>2805</name>
</trkpt>
<trkpt lat="49.469557" lon="8.853605">
<ele>208.0</ele>
<speed>73.3</speed>
<course>271.5</course>
<desc>Speed 73.3 km/h Distance 89.51 km</desc>
<time>2010-08-28T17:16:36.72</time>
<name>2806</name>
</trkpt>
<trkpt lat="49.469570" lon="8.852843">
<ele>208.0</ele>
<speed>73.3</speed>
<course>301.9</course>
<desc>Speed 73.3 km/h Distance 89.56 km</desc>
<time>2010-08-28T17:16:42.71</time>
<name>2807</name>
</trkpt>
<trkpt lat="49.470925" lon="8.849495">
<ele>260.5</ele>
<speed>53.6</speed>
<course>288.3</course>
<desc>Speed 53.6 km/h Distance 89.85 km</desc>
<time>2010-08-28T17:16:48.71</time>
<name>2808</name>
</trkpt>
<trkpt lat="49.471238" lon="8.848040">
<ele>247.5</ele>
<speed>53.6</speed>
<course>296.7</course>
<desc>Speed 53.6 km/h Distance 89.96 km</desc>
<time>2010-08-28T17:16:50.70</time>
<name>2809</name>
</trkpt>
<trkpt lat="49.471985" lon="8.845760">
<ele>251.5</ele>
<speed>62.5</speed>
<course>287.7</course>
<desc>Speed 62.5 km/h Distance 90.14 km</desc>
<time>2010-08-28T17:16:56.70</time>
<name>2810</name>
</trkpt>
<trkpt lat="49.472063" lon="8.845382">
<ele>250.5</ele>
<speed>62.5</speed>
<course>287.3</course>
<desc>Speed 62.5 km/h Distance 90.17 km</desc>
<time>2010-08-28T17:16:58.70</time>
<name>2811</name>
</trkpt>
<trkpt lat="49.472387" lon="8.843780">
<ele>204.0</ele>
<speed>78.5</speed>
<course>294.4</course>
<desc>Speed 78.5 km/h Distance 90.29 km</desc>
<time>2010-08-28T17:17:03.69</time>
<name>2812</name>
</trkpt>
<trkpt lat="49.472628" lon="8.842958">
<ele>218.0</ele>
<speed>78.5</speed>
<course>289.8</course>
<desc>Speed 78.5 km/h Distance 90.36 km</desc>
<time>2010-08-28T17:17:09.68</time>
<name>2813</name>
</trkpt>
<trkpt lat="49.472758" lon="8.842403">
<ele>237.5</ele>
<speed>78.5</speed>
<course>301.4</course>
<desc>Speed 78.5 km/h Distance 90.40 km</desc>
<time>2010-08-28T17:17:11.68</time>
<name>2814</name>
</trkpt>
<trkpt lat="49.472955" lon="8.841908">
<ele>256.5</ele>
<speed>78.5</speed>
<course>229.0</course>
<desc>Speed 78.5 km/h Distance 90.44 km</desc>
<time>2010-08-28T17:17:17.68</time>
<name>2815</name>
</trkpt>
<trkpt lat="49.472570" lon="8.841227">
<ele>256.5</ele>
<speed>78.5</speed>
<course>287.6</course>
<desc>Speed 78.5 km/h Distance 90.51 km</desc>
<time>2010-08-28T17:17:21.67</time>
<name>2816</name>
</trkpt>
<trkpt lat="49.473222" lon="8.838063">
<ele>253.0</ele>
<speed>97.7</speed>
<course>299.6</course>
<desc>Speed 97.7 km/h Distance 90.75 km</desc>
<time>2010-08-28T17:17:27.67</time>
<name>2817</name>
</trkpt>
<trkpt lat="49.474192" lon="8.835435">
<ele>245.5</ele>
<speed>97.7</speed>
<course>294.1</course>
<desc>Speed 97.7 km/h Distance 90.97 km</desc>
<time>2010-08-28T17:17:33.65</time>
<name>2818</name>
</trkpt>
<trkpt lat="49.474483" lon="8.834432">
<ele>244.5</ele>
<speed>97.7</speed>
<course>271.8</course>
<desc>Speed 97.7 km/h Distance 91.05 km</desc>
<time>2010-08-28T17:17:37.65</time>
<name>2819</name>
</trkpt>
<trkpt lat="49.474493" lon="8.833933">
<ele>242.0</ele>
<speed>97.7</speed>
<course>357.9</course>
<desc>Speed 97.7 km/h Distance 91.08 km</desc>
<time>2010-08-28T17:17:43.65</time>
<name>2820</name>
</trkpt>
<trkpt lat="49.474765" lon="8.833918">
<ele>240.5</ele>
<speed>97.7</speed>
<course>326.2</course>
<desc>Speed 97.7 km/h Distance 91.11 km</desc>
<time>2010-08-28T17:17:49.64</time>
<name>2821</name>
</trkpt>
<trkpt lat="49.476495" lon="8.832138">
<ele>241.0</ele>
<speed>68.5</speed>
<course>333.1</course>
<desc>Speed 68.5 km/h Distance 91.34 km</desc>
<time>2010-08-28T17:17:55.63</time>
<name>2822</name>
</trkpt>
<trkpt lat="49.476762" lon="8.831930">
<ele>240.5</ele>
<speed>68.5</speed>
<course>329.0</course>
<desc>Speed 68.5 km/h Distance 91.38 km</desc>
<time>2010-08-28T17:17:57.63</time>
<name>2823</name>
</trkpt>
<trkpt lat="49.477307" lon="8.831427">
<ele>241.0</ele>
<speed>68.5</speed>
<course>320.4</course>
<desc>Speed 68.5 km/h Distance 91.45 km</desc>
<time>2010-08-28T17:18:00.62</time>
<name>2824</name>
</trkpt>
<trkpt lat="49.477632" lon="8.831013">
<ele>240.5</ele>
<speed>68.5</speed>
<course>300.1</course>
<desc>Speed 68.5 km/h Distance 91.49 km</desc>
<time>2010-08-28T17:18:05.64</time>
<name>2825</name>
</trkpt>
<trkpt lat="49.477937" lon="8.830205">
<ele>240.5</ele>
<speed>68.5</speed>
<course>307.2</course>
<desc>Speed 68.5 km/h Distance 91.56 km</desc>
<time>2010-08-28T17:18:08.63</time>
<name>2826</name>
</trkpt>
<trkpt lat="49.478403" lon="8.829260">
<ele>240.5</ele>
<speed>68.5</speed>
<course>332.1</course>
<desc>Speed 68.5 km/h Distance 91.65 km</desc>
<time>2010-08-28T17:18:12.62</time>
<name>2827</name>
</trkpt>
<trkpt lat="49.479807" lon="8.828117">
<ele>240.5</ele>
<speed>68.5</speed>
<course>338.7</course>
<desc>Speed 68.5 km/h Distance 91.82 km</desc>
<time>2010-08-28T17:18:16.62</time>
<name>2828</name>
</trkpt>
<trkpt lat="49.480617" lon="8.827630">
<ele>241.0</ele>
<speed>68.5</speed>
<course>4.8</course>
<desc>Speed 68.5 km/h Distance 91.92 km</desc>
<time>2010-08-28T17:18:20.62</time>
<name>2829</name>
</trkpt>
<trkpt lat="49.481635" lon="8.827762">
<ele>240.0</ele>
<speed>68.5</speed>
<course>22.9</course>
<desc>Speed 68.5 km/h Distance 92.04 km</desc>
<time>2010-08-28T17:18:25.61</time>
<name>2830</name>
</trkpt>
<trkpt lat="49.482015" lon="8.828008">
<ele>241.0</ele>
<speed>68.5</speed>
<course>32.9</course>
<desc>Speed 68.5 km/h Distance 92.08 km</desc>
<time>2010-08-28T17:18:30.62</time>
<name>2831</name>
</trkpt>
<trkpt lat="49.482357" lon="8.828348">
<ele>241.0</ele>
<speed>66.1</speed>
<course>23.0</course>
<desc>Speed 66.1 km/h Distance 92.13 km</desc>
<time>2010-08-28T17:18:33.60</time>
<name>2832</name>
</trkpt>
<trkpt lat="49.482510" lon="8.828448">
<ele>241.0</ele>
<speed>66.1</speed>
<course>20.3</course>
<desc>Speed 66.1 km/h Distance 92.15 km</desc>
<time>2010-08-28T17:18:34.60</time>
<name>2833</name>
</trkpt>
<trkpt lat="49.482870" lon="8.828653">
<ele>241.0</ele>
<speed>66.1</speed>
<course>18.5</course>
<desc>Speed 66.1 km/h Distance 92.19 km</desc>
<time>2010-08-28T17:18:38.60</time>
<name>2834</name>
</trkpt>
<trkpt lat="49.483177" lon="8.828812">
<ele>241.5</ele>
<speed>66.1</speed>
<course>345.9</course>
<desc>Speed 66.1 km/h Distance 92.22 km</desc>
<time>2010-08-28T17:18:44.60</time>
<name>2835</name>
</trkpt>
<trkpt lat="49.486203" lon="8.827638">
<ele>242.0</ele>
<speed>66.1</speed>
<course>30.4</course>
<desc>Speed 66.1 km/h Distance 92.57 km</desc>
<time>2010-08-28T17:18:50.60</time>
<name>2836</name>
</trkpt>
<trkpt lat="49.487218" lon="8.828557">
<ele>242.0</ele>
<speed>66.1</speed>
<course>10.2</course>
<desc>Speed 66.1 km/h Distance 92.70 km</desc>
<time>2010-08-28T17:18:55.59</time>
<name>2837</name>
</trkpt>
<trkpt lat="49.488943" lon="8.829033">
<ele>211.5</ele>
<speed>87.2</speed>
<course>24.1</course>
<desc>Speed 87.2 km/h Distance 92.90 km</desc>
<time>2010-08-28T17:19:01.59</time>
<name>2838</name>
</trkpt>
<trkpt lat="49.489302" lon="8.829280">
<ele>197.5</ele>
<speed>87.2</speed>
<course>35.3</course>
<desc>Speed 87.2 km/h Distance 92.94 km</desc>
<time>2010-08-28T17:19:03.58</time>
<name>2839</name>
</trkpt>
<trkpt lat="49.489678" lon="8.829690">
<ele>180.5</ele>
<speed>87.2</speed>
<course>45.9</course>
<desc>Speed 87.2 km/h Distance 92.99 km</desc>
<time>2010-08-28T17:19:05.58</time>
<name>2840</name>
</trkpt>
<trkpt lat="49.490368" lon="8.830785">
<ele>165.0</ele>
<speed>114</speed>
<course>48.0</course>
<desc>Speed 114 km/h Distance 93.10 km</desc>
<time>2010-08-28T17:19:09.57</time>
<name>2841</name>
</trkpt>
<trkpt lat="49.490712" lon="8.831372">
<ele>160.0</ele>
<speed>101</speed>
<course>56.8</course>
<desc>Speed 101 km/h Distance 93.16 km</desc>
<time>2010-08-28T17:19:11.58</time>
<name>2842</name>
</trkpt>
<trkpt lat="49.491252" lon="8.832643">
<ele>169.0</ele>
<speed>63.4</speed>
<course>71.3</course>
<desc>Speed 63.4 km/h Distance 93.27 km</desc>
<time>2010-08-28T17:19:17.57</time>
<name>2843</name>
</trkpt>
<trkpt lat="49.491388" lon="8.833263">
<ele>165.5</ele>
<speed>43.2</speed>
<course>74.8</course>
<desc>Speed 43.2 km/h Distance 93.32 km</desc>
<time>2010-08-28T17:19:20.57</time>
<name>2844</name>
</trkpt>
<trkpt lat="49.491443" lon="8.833575">
<ele>165.5</ele>
<speed>43.2</speed>
<course>29.4</course>
<desc>Speed 43.2 km/h Distance 93.34 km</desc>
<time>2010-08-28T17:19:23.57</time>
<name>2845</name>
</trkpt>
<trkpt lat="49.492477" lon="8.834472">
<ele>167.5</ele>
<speed>43.2</speed>
<course>33.8</course>
<desc>Speed 43.2 km/h Distance 93.47 km</desc>
<time>2010-08-28T17:19:29.57</time>
<name>2846</name>
</trkpt>
<trkpt lat="49.492858" lon="8.834865">
<ele>167.5</ele>
<speed>43.2</speed>
<course>44.3</course>
<desc>Speed 43.2 km/h Distance 93.52 km</desc>
<time>2010-08-28T17:19:32.56</time>
<name>2847</name>
</trkpt>
<trkpt lat="49.493312" lon="8.835547">
<ele>167.5</ele>
<speed>43.2</speed>
<course>19.0</course>
<desc>Speed 43.2 km/h Distance 93.59 km</desc>
<time>2010-08-28T17:19:36.55</time>
<name>2848</name>
</trkpt>
<trkpt lat="49.493928" lon="8.835873">
<ele>167.5</ele>
<speed>43.2</speed>
<course>25.3</course>
<desc>Speed 43.2 km/h Distance 93.67 km</desc>
<time>2010-08-28T17:19:38.55</time>
<name>2849</name>
</trkpt>
<trkpt lat="49.494155" lon="8.836038">
<ele>167.5</ele>
<speed>43.2</speed>
<course>44.8</course>
<desc>Speed 43.2 km/h Distance 93.69 km</desc>
<time>2010-08-28T17:19:40.55</time>
<name>2850</name>
</trkpt>
<trkpt lat="49.494582" lon="8.836690">
<ele>167.5</ele>
<speed>43.2</speed>
<course>56.1</course>
<desc>Speed 43.2 km/h Distance 93.76 km</desc>
<time>2010-08-28T17:19:42.55</time>
<name>2851</name>
</trkpt>
<trkpt lat="49.494972" lon="8.837583">
<ele>168.0</ele>
<speed>43.2</speed>
<course>7.9</course>
<desc>Speed 43.2 km/h Distance 93.84 km</desc>
<time>2010-08-28T17:19:45.55</time>
<name>2852</name>
</trkpt>
<trkpt lat="49.495567" lon="8.837710">
<ele>167.5</ele>
<speed>43.2</speed>
<course>355.2</course>
<desc>Speed 43.2 km/h Distance 93.91 km</desc>
<time>2010-08-28T17:19:49.55</time>
<name>2853</name>
</trkpt>
<trkpt lat="49.496490" lon="8.837590">
<ele>168.0</ele>
<speed>43.2</speed>
<course>344.3</course>
<desc>Speed 43.2 km/h Distance 94.01 km</desc>
<time>2010-08-28T17:19:53.55</time>
<name>2854</name>
</trkpt>
<trkpt lat="49.496887" lon="8.837418">
<ele>168.0</ele>
<speed>43.2</speed>
<course>3.1</course>
<desc>Speed 43.2 km/h Distance 94.06 km</desc>
<time>2010-08-28T17:19:56.56</time>
<name>2855</name>
</trkpt>
<trkpt lat="49.497388" lon="8.837460">
<ele>168.0</ele>
<speed>43.2</speed>
<course>241.0</course>
<desc>Speed 43.2 km/h Distance 94.11 km</desc>
<time>2010-08-28T17:19:59.56</time>
<name>2856</name>
</trkpt>
<trkpt lat="49.496793" lon="8.835807">
<ele>171.0</ele>
<speed>43.2</speed>
<course>219.6</course>
<desc>Speed 43.2 km/h Distance 94.25 km</desc>
<time>2010-08-28T17:20:17.54</time>
<name>2857</name>
</trkpt>
<trkpt lat="49.495795" lon="8.834537">
<ele>175.5</ele>
<speed>63.9</speed>
<course>276.6</course>
<desc>Speed 63.9 km/h Distance 94.39 km</desc>
<time>2010-08-28T17:20:23.53</time>
<name>2858</name>
</trkpt>
<trkpt lat="49.495832" lon="8.834050">
<ele>176.0</ele>
<speed>63.9</speed>
<course>272.6</course>
<desc>Speed 63.9 km/h Distance 94.43 km</desc>
<time>2010-08-28T17:20:25.54</time>
<name>2859</name>
</trkpt>
<trkpt lat="49.495857" lon="8.833207">
<ele>177.5</ele>
<speed>71.2</speed>
<course>265.0</course>
<desc>Speed 71.2 km/h Distance 94.49 km</desc>
<time>2010-08-28T17:20:28.53</time>
<name>2860</name>
</trkpt>
<trkpt lat="49.495782" lon="8.831877">
<ele>178.0</ele>
<speed>71.2</speed>
<course>271.0</course>
<desc>Speed 71.2 km/h Distance 94.59 km</desc>
<time>2010-08-28T17:20:36.52</time>
<name>2861</name>
</trkpt>
<trkpt lat="49.495823" lon="8.828112">
<ele>178.5</ele>
<speed>71.1</speed>
<course>302.7</course>
<desc>Speed 71.1 km/h Distance 94.86 km</desc>
<time>2010-08-28T17:20:49.51</time>
<name>2862</name>
</trkpt>
<trkpt lat="49.496210" lon="8.827183">
<ele>179.5</ele>
<speed>71.1</speed>
<course>218.5</course>
<desc>Speed 71.1 km/h Distance 94.94 km</desc>
<time>2010-08-28T17:20:51.50</time>
<name>2863</name>
</trkpt>
<trkpt lat="49.493547" lon="8.823927">
<ele>180.0</ele>
<speed>71.1</speed>
<course>264.1</course>
<desc>Speed 71.1 km/h Distance 95.32 km</desc>
<time>2010-08-28T17:21:16.49</time>
<name>2864</name>
</trkpt>
<trkpt lat="49.493502" lon="8.823252">
<ele>181.0</ele>
<speed>71.1</speed>
<course>262.4</course>
<desc>Speed 71.1 km/h Distance 95.36 km</desc>
<time>2010-08-28T17:21:21.49</time>
<name>2865</name>
</trkpt>
<trkpt lat="49.493480" lon="8.823000">
<ele>181.5</ele>
<speed>71.1</speed>
<course>265.3</course>
<desc>Speed 71.1 km/h Distance 95.38 km</desc>
<time>2010-08-28T17:21:24.49</time>
<name>2866</name>
</trkpt>
<trkpt lat="49.493468" lon="8.822780">
<ele>181.5</ele>
<speed>71.1</speed>
<course>331.0</course>
<desc>Speed 71.1 km/h Distance 95.40 km</desc>
<time>2010-08-28T17:21:26.49</time>
<name>2867</name>
</trkpt>
<trkpt lat="49.494412" lon="8.821975">
<ele>181.5</ele>
<speed>71.1</speed>
<course>308.9</course>
<desc>Speed 71.1 km/h Distance 95.52 km</desc>
<time>2010-08-28T17:22:07.46</time>
<name>2868</name>
</trkpt>
<trkpt lat="49.495303" lon="8.820275">
<ele>186.0</ele>
<speed>71.1</speed>
<course>241.4</course>
<desc>Speed 71.1 km/h Distance 95.68 km</desc>
<time>2010-08-28T17:22:10.47</time>
<name>2869</name>
</trkpt>
<trkpt lat="49.495168" lon="8.819893">
<ele>188.0</ele>
<speed>71.1</speed>
<course>211.1</course>
<desc>Speed 71.1 km/h Distance 95.71 km</desc>
<time>2010-08-28T17:22:12.46</time>
<name>2870</name>
</trkpt>
<trkpt lat="49.494817" lon="8.819567">
<ele>188.5</ele>
<speed>71.1</speed>
<course>205.4</course>
<desc>Speed 71.1 km/h Distance 95.75 km</desc>
<time>2010-08-28T17:22:19.46</time>
<name>2871</name>
</trkpt>
<trkpt lat="49.493157" lon="8.818355">
<ele>189.5</ele>
<speed>71.1</speed>
<course>189.7</course>
<desc>Speed 71.1 km/h Distance 95.96 km</desc>
<time>2010-08-28T17:22:28.45</time>
<name>2872</name>
</trkpt>
<trkpt lat="49.492828" lon="8.818268">
<ele>190.0</ele>
<speed>71.1</speed>
<course>189.4</course>
<desc>Speed 71.1 km/h Distance 96.00 km</desc>
<time>2010-08-28T17:22:30.44</time>
<name>2873</name>
</trkpt>
<trkpt lat="49.492060" lon="8.818072">
<ele>190.0</ele>
<speed>71.1</speed>
<course>181.0</course>
<desc>Speed 71.1 km/h Distance 96.08 km</desc>
<time>2010-08-28T17:22:34.44</time>
<name>2874</name>
</trkpt>
<trkpt lat="49.491615" lon="8.818060">
<ele>190.0</ele>
<speed>71.1</speed>
<course>236.3</course>
<desc>Speed 71.1 km/h Distance 96.13 km</desc>
<time>2010-08-28T17:22:37.43</time>
<name>2875</name>
</trkpt>
<trkpt lat="49.489660" lon="8.813540">
<ele>192.0</ele>
<speed>22.6</speed>
<course>229.8</course>
<desc>Speed 22.6 km/h Distance 96.52 km</desc>
<time>2010-08-28T17:23:13.43</time>
<name>2876</name>
</trkpt>
<trkpt lat="49.486398" lon="8.807590">
<ele>513.5</ele>
<speed>51.1</speed>
<course>188.6</course>
<desc>Speed 51.1 km/h Distance 97.09 km</desc>
<time>2010-08-28T17:23:51.40</time>
<name>2877</name>
</trkpt>
<trkpt lat="49.486162" lon="8.807535">
<ele>515.5</ele>
<speed>51.1</speed>
<course>159.5</course>
<desc>Speed 51.1 km/h Distance 97.11 km</desc>
<time>2010-08-28T17:23:53.40</time>
<name>2878</name>
</trkpt>
<trkpt lat="49.485965" lon="8.807648">
<ele>515.0</ele>
<speed>51.1</speed>
<course>199.3</course>
<desc>Speed 51.1 km/h Distance 97.14 km</desc>
<time>2010-08-28T17:23:58.39</time>
<name>2879</name>
</trkpt>
<trkpt lat="49.485798" lon="8.807558">
<ele>516.0</ele>
<speed>51.1</speed>
<course>225.8</course>
<desc>Speed 51.1 km/h Distance 97.16 km</desc>
<time>2010-08-28T17:24:03.39</time>
<name>2880</name>
</trkpt>
<trkpt lat="49.485667" lon="8.807350">
<ele>517.5</ele>
<speed>51.1</speed>
<course>256.6</course>
<desc>Speed 51.1 km/h Distance 97.18 km</desc>
<time>2010-08-28T17:24:09.38</time>
<name>2881</name>
</trkpt>
<trkpt lat="49.485625" lon="8.807080">
<ele>518.5</ele>
<speed>51.1</speed>
<course>305.2</course>
<desc>Speed 51.1 km/h Distance 97.20 km</desc>
<time>2010-08-28T17:24:15.36</time>
<name>2882</name>
</trkpt>
<trkpt lat="49.485715" lon="8.806883">
<ele>518.5</ele>
<speed>51.1</speed>
<course>291.4</course>
<desc>Speed 51.1 km/h Distance 97.22 km</desc>
<time>2010-08-28T17:24:20.38</time>
<name>2883</name>
</trkpt>
<trkpt lat="49.485807" lon="8.806523">
<ele>518.5</ele>
<speed>51.1</speed>
<course>241.3</course>
<desc>Speed 51.1 km/h Distance 97.24 km</desc>
<time>2010-08-28T17:24:25.37</time>
<name>2884</name>
</trkpt>
<trkpt lat="49.485545" lon="8.805788">
<ele>518.5</ele>
<speed>51.1</speed>
<course>287.9</course>
<desc>Speed 51.1 km/h Distance 97.30 km</desc>
<time>2010-08-28T17:24:27.37</time>
<name>2885</name>
</trkpt>
<trkpt lat="49.485698" lon="8.805057">
<ele>518.0</ele>
<speed>51.1</speed>
<course>257.4</course>
<desc>Speed 51.1 km/h Distance 97.36 km</desc>
<time>2010-08-28T17:24:30.37</time>
<name>2886</name>
</trkpt>
<trkpt lat="49.485638" lon="8.804645">
<ele>518.0</ele>
<speed>51.1</speed>
<course>226.1</course>
<desc>Speed 51.1 km/h Distance 97.39 km</desc>
<time>2010-08-28T17:24:35.36</time>
<name>2887</name>
</trkpt>
<trkpt lat="49.485518" lon="8.804453">
<ele>518.0</ele>
<speed>51.1</speed>
<course>253.2</course>
<desc>Speed 51.1 km/h Distance 97.41 km</desc>
<time>2010-08-28T17:24:41.36</time>
<name>2888</name>
</trkpt>
<trkpt lat="49.485370" lon="8.803698">
<ele>518.0</ele>
<speed>51.1</speed>
<course>237.5</course>
<desc>Speed 51.1 km/h Distance 97.47 km</desc>
<time>2010-08-28T17:24:45.36</time>
<name>2889</name>
</trkpt>
<trkpt lat="49.485112" lon="8.803075">
<ele>518.0</ele>
<speed>51.1</speed>
<course>231.7</course>
<desc>Speed 51.1 km/h Distance 97.52 km</desc>
<time>2010-08-28T17:24:49.36</time>
<name>2890</name>
</trkpt>
<trkpt lat="49.484400" lon="8.801688">
<ele>518.0</ele>
<speed>51.1</speed>
<course>225.3</course>
<desc>Speed 51.1 km/h Distance 97.65 km</desc>
<time>2010-08-28T17:24:54.36</time>
<name>2891</name>
</trkpt>
<trkpt lat="49.484217" lon="8.801403">
<ele>518.0</ele>
<speed>51.1</speed>
<course>225.7</course>
<desc>Speed 51.1 km/h Distance 97.68 km</desc>
<time>2010-08-28T17:24:56.36</time>
<name>2892</name>
</trkpt>
<trkpt lat="49.483968" lon="8.801012">
<ele>518.0</ele>
<speed>51.1</speed>
<course>269.9</course>
<desc>Speed 51.1 km/h Distance 97.72 km</desc>
<time>2010-08-28T17:25:00.36</time>
<name>2893</name>
</trkpt>
<trkpt lat="49.483967" lon="8.798413">
<ele>517.0</ele>
<speed>51.1</speed>
<course>213.2</course>
<desc>Speed 51.1 km/h Distance 97.90 km</desc>
<time>2010-08-28T17:25:10.36</time>
<name>2894</name>
</trkpt>
<trkpt lat="49.482590" lon="8.797028">
<ele>517.0</ele>
<speed>51.1</speed>
<course>252.4</course>
<desc>Speed 51.1 km/h Distance 98.09 km</desc>
<time>2010-08-28T17:25:16.35</time>
<name>2895</name>
</trkpt>
<trkpt lat="49.482523" lon="8.796705">
<ele>517.0</ele>
<speed>51.1</speed>
<course>225.2</course>
<desc>Speed 51.1 km/h Distance 98.11 km</desc>
<time>2010-08-28T17:25:18.36</time>
<name>2896</name>
</trkpt>
<trkpt lat="49.482297" lon="8.796353">
<ele>517.0</ele>
<speed>51.1</speed>
<course>247.6</course>
<desc>Speed 51.1 km/h Distance 98.15 km</desc>
<time>2010-08-28T17:25:21.34</time>
<name>2897</name>
</trkpt>
<trkpt lat="49.482222" lon="8.796073">
<ele>517.0</ele>
<speed>51.1</speed>
<course>249.9</course>
<desc>Speed 51.1 km/h Distance 98.17 km</desc>
<time>2010-08-28T17:25:26.33</time>
<name>2898</name>
</trkpt>
<trkpt lat="49.482142" lon="8.795737">
<ele>517.0</ele>
<speed>51.1</speed>
<course>250.6</course>
<desc>Speed 51.1 km/h Distance 98.20 km</desc>
<time>2010-08-28T17:25:29.33</time>
<name>2899</name>
</trkpt>
<trkpt lat="49.481947" lon="8.794883">
<ele>517.0</ele>
<speed>14.2</speed>
<course>249.0</course>
<desc>Speed 14.2 km/h Distance 98.26 km</desc>
<time>2010-08-28T17:25:35.33</time>
<name>2900</name>
</trkpt>
<trkpt lat="49.481935" lon="8.794837">
<ele>517.0</ele>
<speed>14.2</speed>
<course>252.9</course>
<desc>Speed 14.2 km/h Distance 98.26 km</desc>
<time>2010-08-28T17:25:36.33</time>
<name>2901</name>
</trkpt>
<trkpt lat="49.481928" lon="8.794803">
<ele>517.0</ele>
<speed>14.2</speed>
<course>21.4</course>
<desc>Speed 14.2 km/h Distance 98.27 km</desc>
<time>2010-08-28T17:25:37.33</time>
<name>2902</name>
</trkpt>
<trkpt lat="49.484037" lon="8.796075">
<ele>501.0</ele>
<speed>58.2</speed>
<course>64.8</course>
<desc>Speed 58.2 km/h Distance 98.52 km</desc>
<time>2010-08-28T17:25:51.32</time>
<name>2903</name>
</trkpt>
<trkpt lat="49.484408" lon="8.797293">
<ele>491.5</ele>
<speed>49.0</speed>
<course>357.0</course>
<desc>Speed 49.0 km/h Distance 98.62 km</desc>
<time>2010-08-28T17:25:59.32</time>
<name>2904</name>
</trkpt>
<trkpt lat="49.484617" lon="8.797277">
<ele>490.5</ele>
<speed>49.0</speed>
<course>270.0</course>
<desc>Speed 49.0 km/h Distance 98.64 km</desc>
<time>2010-08-28T17:26:01.31</time>
<name>2905</name>
</trkpt>
<trkpt lat="49.484617" lon="8.796792">
<ele>490.0</ele>
<speed>49.0</speed>
<course>12.8</course>
<desc>Speed 49.0 km/h Distance 98.68 km</desc>
<time>2010-08-28T17:26:06.30</time>
<name>2906</name>
</trkpt>
<trkpt lat="49.484922" lon="8.796898">
<ele>484.5</ele>
<speed>33.6</speed>
<course>345.9</course>
<desc>Speed 33.6 km/h Distance 98.71 km</desc>
<time>2010-08-28T17:26:09.30</time>
<name>2907</name>
</trkpt>
<trkpt lat="49.485955" lon="8.796498">
<ele>485.0</ele>
<speed>44.8</speed>
<course>323.2</course>
<desc>Speed 44.8 km/h Distance 98.83 km</desc>
<time>2010-08-28T17:26:24.30</time>
<name>2908</name>
</trkpt>
<trkpt lat="49.486185" lon="8.796233">
<ele>480.5</ele>
<speed>46.1</speed>
<course>334.0</course>
<desc>Speed 46.1 km/h Distance 98.86 km</desc>
<time>2010-08-28T17:26:26.30</time>
<name>2909</name>
</trkpt>
<trkpt lat="49.486387" lon="8.796082">
<ele>475.5</ele>
<speed>43.8</speed>
<course>341.1</course>
<desc>Speed 43.8 km/h Distance 98.89 km</desc>
<time>2010-08-28T17:26:28.29</time>
<name>2910</name>
</trkpt>
<trkpt lat="49.486475" lon="8.796035">
<ele>472.5</ele>
<speed>38.9</speed>
<course>334.9</course>
<desc>Speed 38.9 km/h Distance 98.90 km</desc>
<time>2010-08-28T17:26:29.30</time>
<name>2911</name>
</trkpt>
<trkpt lat="49.486612" lon="8.795937">
<ele>460.0</ele>
<speed>1.3</speed>
<course>252.9</course>
<desc>Speed 1.3 km/h Distance 98.91 km</desc>
<time>2010-08-28T17:26:35.29</time>
<name>2912</name>
</trkpt>
<trkpt lat="49.486605" lon="8.795903">
<ele>459.0</ele>
<speed>0.1</speed>
<course>272.9</course>
<desc>Speed 0.1 km/h Distance 98.92 km</desc>
<time>2010-08-28T17:26:37.28</time>
<name>2913</name>
</trkpt>
<trkpt lat="49.486607" lon="8.795853">
<ele>456.0</ele>
<speed>0.1</speed>
<course>339.4</course>
<desc>Speed 0.1 km/h Distance 98.92 km</desc>
<time>2010-08-28T17:26:40.29</time>
<name>2914</name>
</trkpt>
<trkpt lat="49.486690" lon="8.795805">
<ele>455.0</ele>
<speed>14.5</speed>
<course>338.7</course>
<desc>Speed 14.5 km/h Distance 98.93 km</desc>
<time>2010-08-28T17:26:43.28</time>
<name>2915</name>
</trkpt>
<trkpt lat="49.486723" lon="8.795785">
<ele>455.5</ele>
<speed>14.5</speed>
<course>333.4</course>
<desc>Speed 14.5 km/h Distance 98.93 km</desc>
<time>2010-08-28T17:26:44.27</time>
<name>2916</name>
</trkpt>
<trkpt lat="49.486745" lon="8.795768">
<ele>455.5</ele>
<speed>14.5</speed>
<course>320.4</course>
<desc>Speed 14.5 km/h Distance 98.94 km</desc>
<time>2010-08-28T17:26:45.28</time>
<name>2917</name>
</trkpt>
<trkpt lat="49.486763" lon="8.795745">
<ele>455.5</ele>
<speed>14.5</speed>
<course>325.4</course>
<desc>Speed 14.5 km/h Distance 98.94 km</desc>
<time>2010-08-28T17:26:46.28</time>
<name>2918</name>
</trkpt>
<trkpt lat="49.486790" lon="8.795717">
<ele>455.5</ele>
<speed>14.5</speed>
<course>326.2</course>
<desc>Speed 14.5 km/h Distance 98.94 km</desc>
<time>2010-08-28T17:26:47.28</time>
<name>2919</name>
</trkpt>
<trkpt lat="49.486905" lon="8.795598">
<ele>456.0</ele>
<speed>14.5</speed>
<course>334.0</course>
<desc>Speed 14.5 km/h Distance 98.96 km</desc>
<time>2010-08-28T17:26:49.27</time>
<name>2920</name>
</trkpt>
<trkpt lat="49.486945" lon="8.795568">
<ele>456.0</ele>
<speed>14.5</speed>
<course>289.7</course>
<desc>Speed 14.5 km/h Distance 98.96 km</desc>
<time>2010-08-28T17:26:50.28</time>
<name>2921</name>
</trkpt>
<trkpt lat="49.487220" lon="8.794387">
<ele>456.0</ele>
<speed>14.5</speed>
<course>310.4</course>
<desc>Speed 14.5 km/h Distance 99.05 km</desc>
<time>2010-08-28T17:26:58.27</time>
<name>2922</name>
</trkpt>
<trkpt lat="49.487865" lon="8.793220">
<ele>456.0</ele>
<speed>14.5</speed>
<course>288.3</course>
<desc>Speed 14.5 km/h Distance 99.16 km</desc>
<time>2010-08-28T17:27:04.26</time>
<name>2923</name>
</trkpt>
<trkpt lat="49.487917" lon="8.792980">
<ele>455.0</ele>
<speed>14.5</speed>
<course>267.8</course>
<desc>Speed 14.5 km/h Distance 99.18 km</desc>
<time>2010-08-28T17:27:07.26</time>
<name>2924</name>
</trkpt>
<trkpt lat="49.487915" lon="8.792913">
<ele>455.0</ele>
<speed>14.5</speed>
<course>331.1</course>
<desc>Speed 14.5 km/h Distance 99.19 km</desc>
<time>2010-08-28T17:27:08.26</time>
<name>2925</name>
</trkpt>
<trkpt lat="49.488193" lon="8.792677">
<ele>455.0</ele>
<speed>14.5</speed>
<course>321.5</course>
<desc>Speed 14.5 km/h Distance 99.22 km</desc>
<time>2010-08-28T17:27:10.25</time>
<name>2926</name>
</trkpt>
<trkpt lat="49.488827" lon="8.791900">
<ele>454.5</ele>
<speed>14.5</speed>
<course>283.3</course>
<desc>Speed 14.5 km/h Distance 99.31 km</desc>
<time>2010-08-28T17:27:14.25</time>
<name>2927</name>
</trkpt>
<trkpt lat="49.488975" lon="8.790937">
<ele>454.0</ele>
<speed>14.5</speed>
<course>304.9</course>
<desc>Speed 14.5 km/h Distance 99.38 km</desc>
<time>2010-08-28T17:27:18.25</time>
<name>2928</name>
</trkpt>
<trkpt lat="49.489407" lon="8.789983">
<ele>453.5</ele>
<speed>14.5</speed>
<course>285.5</course>
<desc>Speed 14.5 km/h Distance 99.47 km</desc>
<time>2010-08-28T17:27:23.25</time>
<name>2929</name>
</trkpt>
<trkpt lat="49.489832" lon="8.787622">
<ele>453.0</ele>
<speed>14.5</speed>
<course>266.6</course>
<desc>Speed 14.5 km/h Distance 99.65 km</desc>
<time>2010-08-28T17:27:29.24</time>
<name>2930</name>
</trkpt>
<trkpt lat="49.489818" lon="8.787278">
<ele>453.0</ele>
<speed>14.5</speed>
<course>230.6</course>
<desc>Speed 14.5 km/h Distance 99.67 km</desc>
<time>2010-08-28T17:27:32.24</time>
<name>2931</name>
</trkpt>
<trkpt lat="49.489792" lon="8.787228">
<ele>453.0</ele>
<speed>14.5</speed>
<course>230.6</course>
<desc>Speed 14.5 km/h Distance 99.67 km</desc>
<time>2010-08-28T17:27:33.24</time>
<name>2932</name>
</trkpt>
<trkpt lat="49.489778" lon="8.787203">
<ele>453.0</ele>
<speed>14.5</speed>
<course>221.8</course>
<desc>Speed 14.5 km/h Distance 99.68 km</desc>
<time>2010-08-28T17:27:34.24</time>
<name>2933</name>
</trkpt>
<trkpt lat="49.489752" lon="8.787167">
<ele>453.0</ele>
<speed>14.5</speed>
<course>264.4</course>
<desc>Speed 14.5 km/h Distance 99.68 km</desc>
<time>2010-08-28T17:27:35.24</time>
<name>2934</name>
</trkpt>
<trkpt lat="49.489743" lon="8.787035">
<ele>453.0</ele>
<speed>14.5</speed>
<course>344.2</course>
<desc>Speed 14.5 km/h Distance 99.69 km</desc>
<time>2010-08-28T17:27:37.24</time>
<name>2935</name>
</trkpt>
<trkpt lat="49.489782" lon="8.787018">
<ele>453.0</ele>
<speed>14.5</speed>
<course>331.2</course>
<desc>Speed 14.5 km/h Distance 99.69 km</desc>
<time>2010-08-28T17:27:38.23</time>
<name>2936</name>
</trkpt>
<trkpt lat="49.489825" lon="8.786982">
<ele>453.0</ele>
<speed>14.5</speed>
<course>291.8</course>
<desc>Speed 14.5 km/h Distance 99.70 km</desc>
<time>2010-08-28T17:27:39.23</time>
<name>2937</name>
</trkpt>
<trkpt lat="49.489837" lon="8.786937">
<ele>453.0</ele>
<speed>14.5</speed>
<course>336.2</course>
<desc>Speed 14.5 km/h Distance 99.70 km</desc>
<time>2010-08-28T17:27:40.23</time>
<name>2938</name>
</trkpt>
<trkpt lat="49.490097" lon="8.786760">
<ele>453.0</ele>
<speed>14.5</speed>
<course>319.5</course>
<desc>Speed 14.5 km/h Distance 99.74 km</desc>
<time>2010-08-28T17:27:44.23</time>
<name>2939</name>
</trkpt>
<trkpt lat="49.490607" lon="8.786088">
<ele>452.5</ele>
<speed>14.5</speed>
<course>355.0</course>
<desc>Speed 14.5 km/h Distance 99.81 km</desc>
<time>2010-08-28T17:27:47.21</time>
<name>2940</name>
</trkpt>
<trkpt lat="49.491503" lon="8.785967">
<ele>452.5</ele>
<speed>14.5</speed>
<course>322.8</course>
<desc>Speed 14.5 km/h Distance 99.91 km</desc>
<time>2010-08-28T17:27:50.21</time>
<name>2941</name>
</trkpt>
<trkpt lat="49.493548" lon="8.783578">
<ele>452.0</ele>
<speed>65.6</speed>
<course>326.7</course>
<desc>Speed 65.6 km/h Distance 100 km</desc>
<time>2010-08-28T17:28:04.23</time>
<name>2942</name>
</trkpt>
<trkpt lat="49.493863" lon="8.783260">
<ele>452.0</ele>
<speed>65.6</speed>
<course>310.5</course>
<desc>Speed 65.6 km/h Distance 100 km</desc>
<time>2010-08-28T17:28:06.23</time>
<name>2943</name>
</trkpt>
<trkpt lat="49.493965" lon="8.783077">
<ele>451.5</ele>
<speed>65.6</speed>
<course>311.8</course>
<desc>Speed 65.6 km/h Distance 100 km</desc>
<time>2010-08-28T17:28:07.22</time>
<name>2944</name>
</trkpt>
<trkpt lat="49.494203" lon="8.782667">
<ele>451.5</ele>
<speed>65.6</speed>
<course>322.4</course>
<desc>Speed 65.6 km/h Distance 100 km</desc>
<time>2010-08-28T17:28:09.21</time>
<name>2945</name>
</trkpt>
<trkpt lat="49.494382" lon="8.782455">
<ele>451.5</ele>
<speed>65.6</speed>
<course>347.9</course>
<desc>Speed 65.6 km/h Distance 100 km</desc>
<time>2010-08-28T17:28:15.20</time>
<name>2946</name>
</trkpt>
<trkpt lat="49.494965" lon="8.782262">
<ele>451.5</ele>
<speed>65.6</speed>
<course>333.1</course>
<desc>Speed 65.6 km/h Distance 100 km</desc>
<time>2010-08-28T17:28:18.20</time>
<name>2947</name>
</trkpt>
<trkpt lat="49.495505" lon="8.781840">
<ele>451.5</ele>
<speed>65.6</speed>
<course>348.5</course>
<desc>Speed 65.6 km/h Distance 100 km</desc>
<time>2010-08-28T17:28:24.21</time>
<name>2948</name>
</trkpt>
<trkpt lat="49.496000" lon="8.781685">
<ele>451.5</ele>
<speed>65.6</speed>
<course>354.4</course>
<desc>Speed 65.6 km/h Distance 100 km</desc>
<time>2010-08-28T17:28:36.20</time>
<name>2949</name>
</trkpt>
<trkpt lat="49.496758" lon="8.781570">
<ele>451.5</ele>
<speed>65.6</speed>
<course>6.6</course>
<desc>Speed 65.6 km/h Distance 100 km</desc>
<time>2010-08-28T17:28:38.20</time>
<name>2950</name>
</trkpt>
<trkpt lat="49.497873" lon="8.781768">
<ele>451.5</ele>
<speed>65.6</speed>
<course>34.2</course>
<desc>Speed 65.6 km/h Distance 100 km</desc>
<time>2010-08-28T17:28:41.21</time>
<name>2951</name>
</trkpt>
<trkpt lat="49.498343" lon="8.782260">
<ele>451.5</ele>
<speed>65.6</speed>
<course>37.9</course>
<desc>Speed 65.6 km/h Distance 100 km</desc>
<time>2010-08-28T17:28:44.19</time>
<name>2952</name>
</trkpt>
<trkpt lat="49.498632" lon="8.782605">
<ele>452.0</ele>
<speed>65.6</speed>
<course>39.5</course>
<desc>Speed 65.6 km/h Distance 100 km</desc>
<time>2010-08-28T17:28:46.20</time>
<name>2953</name>
</trkpt>
<trkpt lat="49.499000" lon="8.783073">
<ele>452.0</ele>
<speed>65.6</speed>
<course>52.8</course>
<desc>Speed 65.6 km/h Distance 100 km</desc>
<time>2010-08-28T17:28:49.20</time>
<name>2954</name>
</trkpt>
<trkpt lat="49.499157" lon="8.783392">
<ele>452.0</ele>
<speed>65.6</speed>
<course>23.5</course>
<desc>Speed 65.6 km/h Distance 100 km</desc>
<time>2010-08-28T17:28:51.19</time>
<name>2955</name>
</trkpt>
<trkpt lat="49.500357" lon="8.784195">
<ele>452.0</ele>
<speed>65.6</speed>
<course>36.9</course>
<desc>Speed 65.6 km/h Distance 101 km</desc>
<time>2010-08-28T17:28:54.19</time>
<name>2956</name>
</trkpt>
<trkpt lat="49.500610" lon="8.784488">
<ele>452.0</ele>
<speed>65.6</speed>
<course>346.8</course>
<desc>Speed 65.6 km/h Distance 101 km</desc>
<time>2010-08-28T17:28:56.19</time>
<name>2957</name>
</trkpt>
<trkpt lat="49.503560" lon="8.783420">
<ele>452.0</ele>
<speed>65.6</speed>
<course>10.4</course>
<desc>Speed 65.6 km/h Distance 101 km</desc>
<time>2010-08-28T17:29:17.19</time>
<name>2958</name>
</trkpt>
<trkpt lat="49.504080" lon="8.783567">
<ele>452.5</ele>
<speed>65.6</speed>
<course>42.0</course>
<desc>Speed 65.6 km/h Distance 101 km</desc>
<time>2010-08-28T17:29:20.19</time>
<name>2959</name>
</trkpt>
<trkpt lat="49.504205" lon="8.783740">
<ele>452.5</ele>
<speed>65.6</speed>
<course>341.8</course>
<desc>Speed 65.6 km/h Distance 101 km</desc>
<time>2010-08-28T17:29:21.18</time>
<name>2960</name>
</trkpt>
<trkpt lat="49.504545" lon="8.783568">
<ele>451.5</ele>
<speed>65.6</speed>
<course>352.7</course>
<desc>Speed 65.6 km/h Distance 101 km</desc>
<time>2010-08-28T17:29:23.18</time>
<name>2961</name>
</trkpt>
<trkpt lat="49.504867" lon="8.783505">
<ele>451.5</ele>
<speed>65.6</speed>
<course>18.6</course>
<desc>Speed 65.6 km/h Distance 101 km</desc>
<time>2010-08-28T17:29:29.16</time>
<name>2962</name>
</trkpt>
<trkpt lat="49.505153" lon="8.783653">
<ele>451.5</ele>
<speed>65.6</speed>
<course>349.7</course>
<desc>Speed 65.6 km/h Distance 101 km</desc>
<time>2010-08-28T17:29:34.18</time>
<name>2963</name>
</trkpt>
<trkpt lat="49.505452" lon="8.783570">
<ele>451.5</ele>
<speed>65.6</speed>
<course>1.8</course>
<desc>Speed 65.6 km/h Distance 101 km</desc>
<time>2010-08-28T17:29:40.17</time>
<name>2964</name>
</trkpt>
<trkpt lat="49.505625" lon="8.783578">
<ele>451.5</ele>
<speed>65.6</speed>
<course>5.0</course>
<desc>Speed 65.6 km/h Distance 101 km</desc>
<time>2010-08-28T17:29:45.18</time>
<name>2965</name>
</trkpt>
<trkpt lat="49.506032" lon="8.783633">
<ele>451.5</ele>
<speed>65.6</speed>
<course>311.3</course>
<desc>Speed 65.6 km/h Distance 101 km</desc>
<time>2010-08-28T17:29:48.18</time>
<name>2966</name>
</trkpt>
<trkpt lat="49.506282" lon="8.783195">
<ele>451.5</ele>
<speed>65.6</speed>
<course>293.4</course>
<desc>Speed 65.6 km/h Distance 101 km</desc>
<time>2010-08-28T17:29:50.17</time>
<name>2967</name>
</trkpt>
<trkpt lat="49.506345" lon="8.782970">
<ele>451.5</ele>
<speed>65.6</speed>
<course>289.1</course>
<desc>Speed 65.6 km/h Distance 101 km</desc>
<time>2010-08-28T17:29:51.17</time>
<name>2968</name>
</trkpt>
<trkpt lat="49.506398" lon="8.782733">
<ele>451.5</ele>
<speed>65.6</speed>
<course>350.6</course>
<desc>Speed 65.6 km/h Distance 101 km</desc>
<time>2010-08-28T17:29:52.17</time>
<name>2969</name>
</trkpt>
<trkpt lat="49.506795" lon="8.782632">
<ele>451.5</ele>
<speed>65.6</speed>
<course>339.4</course>
<desc>Speed 65.6 km/h Distance 101 km</desc>
<time>2010-08-28T17:29:57.17</time>
<name>2970</name>
</trkpt>
<trkpt lat="49.508157" lon="8.781845">
<ele>451.5</ele>
<speed>65.6</speed>
<course>4.8</course>
<desc>Speed 65.6 km/h Distance 101 km</desc>
<time>2010-08-28T17:30:04.14</time>
<name>2971</name>
</trkpt>
<trkpt lat="49.508750" lon="8.781922">
<ele>451.5</ele>
<speed>65.6</speed>
<course>0.3</course>
<desc>Speed 65.6 km/h Distance 102 km</desc>
<time>2010-08-28T17:30:06.16</time>
<name>2972</name>
</trkpt>
<trkpt lat="49.510148" lon="8.781933">
<ele>451.5</ele>
<speed>65.6</speed>
<course>4.9</course>
<desc>Speed 65.6 km/h Distance 102 km</desc>
<time>2010-08-28T17:30:11.15</time>
<name>2973</name>
</trkpt>
<trkpt lat="49.510312" lon="8.781955">
<ele>451.5</ele>
<speed>65.6</speed>
<course>41.8</course>
<desc>Speed 65.6 km/h Distance 102 km</desc>
<time>2010-08-28T17:30:12.15</time>
<name>2974</name>
</trkpt>
<trkpt lat="49.510568" lon="8.782308">
<ele>451.5</ele>
<speed>65.6</speed>
<course>6.2</course>
<desc>Speed 65.6 km/h Distance 102 km</desc>
<time>2010-08-28T17:30:14.15</time>
<name>2975</name>
</trkpt>
<trkpt lat="49.510915" lon="8.782367">
<ele>451.5</ele>
<speed>65.6</speed>
<course>347.7</course>
<desc>Speed 65.6 km/h Distance 102 km</desc>
<time>2010-08-28T17:30:16.15</time>
<name>2976</name>
</trkpt>
<trkpt lat="49.511332" lon="8.782227">
<ele>451.5</ele>
<speed>65.6</speed>
<course>1.1</course>
<desc>Speed 65.6 km/h Distance 102 km</desc>
<time>2010-08-28T17:30:21.16</time>
<name>2977</name>
</trkpt>
<trkpt lat="49.511670" lon="8.782237">
<ele>451.5</ele>
<speed>65.6</speed>
<course>332.9</course>
<desc>Speed 65.6 km/h Distance 102 km</desc>
<time>2010-08-28T17:30:24.15</time>
<name>2978</name>
</trkpt>
<trkpt lat="49.511898" lon="8.782057">
<ele>451.5</ele>
<speed>65.6</speed>
<course>312.7</course>
<desc>Speed 65.6 km/h Distance 102 km</desc>
<time>2010-08-28T17:30:27.14</time>
<name>2979</name>
</trkpt>
<trkpt lat="49.512063" lon="8.781782">
<ele>451.5</ele>
<speed>65.6</speed>
<course>335.0</course>
<desc>Speed 65.6 km/h Distance 102 km</desc>
<time>2010-08-28T17:30:29.15</time>
<name>2980</name>
</trkpt>
<trkpt lat="49.512325" lon="8.781593">
<ele>451.5</ele>
<speed>65.6</speed>
<course>9.3</course>
<desc>Speed 65.6 km/h Distance 102 km</desc>
<time>2010-08-28T17:30:31.15</time>
<name>2981</name>
</trkpt>
<trkpt lat="49.512628" lon="8.781670">
<ele>451.5</ele>
<speed>65.6</speed>
<course>62.6</course>
<desc>Speed 65.6 km/h Distance 102 km</desc>
<time>2010-08-28T17:30:34.14</time>
<name>2982</name>
</trkpt>
<trkpt lat="49.512780" lon="8.782120">
<ele>451.5</ele>
<speed>65.6</speed>
<course>2.1</course>
<desc>Speed 65.6 km/h Distance 102 km</desc>
<time>2010-08-28T17:30:36.14</time>
<name>2983</name>
</trkpt>
<trkpt lat="49.513718" lon="8.782173">
<ele>451.5</ele>
<speed>65.6</speed>
<course>2.4</course>
<desc>Speed 65.6 km/h Distance 102 km</desc>
<time>2010-08-28T17:30:39.14</time>
<name>2984</name>
</trkpt>
<trkpt lat="49.514107" lon="8.782198">
<ele>451.5</ele>
<speed>65.6</speed>
<course>50.2</course>
<desc>Speed 65.6 km/h Distance 102 km</desc>
<time>2010-08-28T17:30:41.14</time>
<name>2985</name>
</trkpt>
<trkpt lat="49.515467" lon="8.784710">
<ele>452.0</ele>
<speed>65.6</speed>
<course>44.4</course>
<desc>Speed 65.6 km/h Distance 102 km</desc>
<time>2010-08-28T17:30:47.15</time>
<name>2986</name>
</trkpt>
<trkpt lat="49.515683" lon="8.785037">
<ele>451.5</ele>
<speed>65.6</speed>
<course>7.1</course>
<desc>Speed 65.6 km/h Distance 102 km</desc>
<time>2010-08-28T17:30:49.14</time>
<name>2987</name>
</trkpt>
<trkpt lat="49.515917" lon="8.785082">
<ele>451.5</ele>
<speed>65.6</speed>
<course>10.2</course>
<desc>Speed 65.6 km/h Distance 103 km</desc>
<time>2010-08-28T17:30:55.13</time>
<name>2988</name>
</trkpt>
<trkpt lat="49.516248" lon="8.785173">
<ele>451.5</ele>
<speed>65.6</speed>
<course>356.4</course>
<desc>Speed 65.6 km/h Distance 103 km</desc>
<time>2010-08-28T17:30:58.13</time>
<name>2989</name>
</trkpt>
<trkpt lat="49.516590" lon="8.785140">
<ele>451.5</ele>
<speed>65.6</speed>
<course>6.6</course>
<desc>Speed 65.6 km/h Distance 103 km</desc>
<time>2010-08-28T17:31:00.12</time>
<name>2990</name>
</trkpt>
<trkpt lat="49.516947" lon="8.785203">
<ele>451.5</ele>
<speed>65.6</speed>
<course>357.4</course>
<desc>Speed 65.6 km/h Distance 103 km</desc>
<time>2010-08-28T17:31:05.12</time>
<name>2991</name>
</trkpt>
<trkpt lat="49.517678" lon="8.785152">
<ele>452.0</ele>
<speed>65.6</speed>
<course>344.6</course>
<desc>Speed 65.6 km/h Distance 103 km</desc>
<time>2010-08-28T17:31:12.12</time>
<name>2992</name>
</trkpt>
<trkpt lat="49.517820" lon="8.785092">
<ele>452.0</ele>
<speed>65.6</speed>
<course>328.6</course>
<desc>Speed 65.6 km/h Distance 103 km</desc>
<time>2010-08-28T17:31:14.11</time>
<name>2993</name>
</trkpt>
<trkpt lat="49.518102" lon="8.784827">
<ele>451.5</ele>
<speed>65.6</speed>
<course>339.2</course>
<desc>Speed 65.6 km/h Distance 103 km</desc>
<time>2010-08-28T17:31:17.12</time>
<name>2994</name>
</trkpt>
<trkpt lat="49.518247" lon="8.784742">
<ele>451.5</ele>
<speed>65.6</speed>
<course>335.7</course>
<desc>Speed 65.6 km/h Distance 103 km</desc>
<time>2010-08-28T17:31:18.12</time>
<name>2995</name>
</trkpt>
<trkpt lat="49.518582" lon="8.784508">
<ele>452.0</ele>
<speed>65.6</speed>
<course>66.5</course>
<desc>Speed 65.6 km/h Distance 103 km</desc>
<time>2010-08-28T17:31:20.11</time>
<name>2996</name>
</trkpt>
<trkpt lat="49.518643" lon="8.784727">
<ele>451.5</ele>
<speed>65.6</speed>
<course>357.6</course>
<desc>Speed 65.6 km/h Distance 103 km</desc>
<time>2010-08-28T17:31:21.11</time>
<name>2997</name>
</trkpt>
<trkpt lat="49.519052" lon="8.784700">
<ele>451.5</ele>
<speed>65.6</speed>
<course>27.4</course>
<desc>Speed 65.6 km/h Distance 103 km</desc>
<time>2010-08-28T17:31:27.11</time>
<name>2998</name>
</trkpt>
<trkpt lat="49.519282" lon="8.784883">
<ele>452.0</ele>
<speed>65.6</speed>
<course>353.9</course>
<desc>Speed 65.6 km/h Distance 103 km</desc>
<time>2010-08-28T17:31:33.08</time>
<name>2999</name>
</trkpt>
<trkpt lat="49.521032" lon="8.784593">
<ele>451.5</ele>
<speed>65.6</speed>
<course>355.4</course>
<desc>Speed 65.6 km/h Distance 103 km</desc>
<time>2010-08-28T17:31:37.11</time>
<name>3000</name>
</trkpt>
<trkpt lat="49.522132" lon="8.784457">
<ele>452.0</ele>
<speed>65.6</speed>
<course>343.7</course>
<desc>Speed 65.6 km/h Distance 103 km</desc>
<time>2010-08-28T17:31:42.11</time>
<name>3001</name>
</trkpt>
<trkpt lat="49.522543" lon="8.784272">
<ele>452.0</ele>
<speed>65.6</speed>
<course>16.6</course>
<desc>Speed 65.6 km/h Distance 103 km</desc>
<time>2010-08-28T17:31:47.10</time>
<name>3002</name>
</trkpt>
<trkpt lat="49.522923" lon="8.784447">
<ele>452.0</ele>
<speed>48.6</speed>
<course>33.3</course>
<desc>Speed 48.6 km/h Distance 103 km</desc>
<time>2010-08-28T17:31:50.10</time>
<name>3003</name>
</trkpt>
<trkpt lat="49.523362" lon="8.784890">
<ele>452.0</ele>
<speed>58.8</speed>
<course>36.6</course>
<desc>Speed 58.8 km/h Distance 103 km</desc>
<time>2010-08-28T17:31:53.10</time>
<name>3004</name>
</trkpt>
<trkpt lat="49.523490" lon="8.785037">
<ele>451.5</ele>
<speed>52.3</speed>
<course>31.1</course>
<desc>Speed 52.3 km/h Distance 103 km</desc>
<time>2010-08-28T17:31:54.09</time>
<name>3005</name>
</trkpt>
<trkpt lat="49.524095" lon="8.785600">
<ele>451.0</ele>
<speed>55.8</speed>
<course>23.3</course>
<desc>Speed 55.8 km/h Distance 103 km</desc>
<time>2010-08-28T17:31:58.09</time>
<name>3006</name>
</trkpt>
<trkpt lat="49.524388" lon="8.785795">
<ele>451.0</ele>
<speed>55.8</speed>
<course>12.2</course>
<desc>Speed 55.8 km/h Distance 104 km</desc>
<time>2010-08-28T17:32:02.09</time>
<name>3007</name>
</trkpt>
<trkpt lat="49.524923" lon="8.785973">
<ele>448.0</ele>
<speed>56.8</speed>
<course>27.7</course>
<desc>Speed 56.8 km/h Distance 104 km</desc>
<time>2010-08-28T17:32:05.09</time>
<name>3008</name>
</trkpt>
<trkpt lat="49.525158" lon="8.786163">
<ele>447.5</ele>
<speed>56.8</speed>
<course>19.8</course>
<desc>Speed 56.8 km/h Distance 104 km</desc>
<time>2010-08-28T17:32:07.09</time>
<name>3009</name>
</trkpt>
<trkpt lat="49.525507" lon="8.786357">
<ele>448.5</ele>
<speed>53.8</speed>
<course>14.6</course>
<desc>Speed 53.8 km/h Distance 104 km</desc>
<time>2010-08-28T17:32:10.09</time>
<name>3010</name>
</trkpt>
<trkpt lat="49.525797" lon="8.786473">
<ele>448.0</ele>
<speed>50.4</speed>
<course>24.9</course>
<desc>Speed 50.4 km/h Distance 104 km</desc>
<time>2010-08-28T17:32:12.09</time>
<name>3011</name>
</trkpt>
<trkpt lat="49.526270" lon="8.786812">
<ele>449.0</ele>
<speed>48.1</speed>
<course>29.2</course>
<desc>Speed 48.1 km/h Distance 104 km</desc>
<time>2010-08-28T17:32:15.09</time>
<name>3012</name>
</trkpt>
<trkpt lat="49.526377" lon="8.786903">
<ele>449.0</ele>
<speed>48.1</speed>
<course>357.3</course>
<desc>Speed 48.1 km/h Distance 104 km</desc>
<time>2010-08-28T17:32:16.09</time>
<name>3013</name>
</trkpt>
<trkpt lat="49.526887" lon="8.786867">
<ele>451.0</ele>
<speed>48.1</speed>
<course>352.9</course>
<desc>Speed 48.1 km/h Distance 104 km</desc>
<time>2010-08-28T17:32:19.08</time>
<name>3014</name>
</trkpt>
<trkpt lat="49.527017" lon="8.786842">
<ele>451.5</ele>
<speed>48.7</speed>
<course>359.4</course>
<desc>Speed 48.7 km/h Distance 104 km</desc>
<time>2010-08-28T17:32:20.08</time>
<name>3015</name>
</trkpt>
<trkpt lat="49.527125" lon="8.786840">
<ele>451.5</ele>
<speed>48.7</speed>
<course>7.0</course>
<desc>Speed 48.7 km/h Distance 104 km</desc>
<time>2010-08-28T17:32:21.08</time>
<name>3016</name>
</trkpt>
<trkpt lat="49.527257" lon="8.786865">
<ele>451.5</ele>
<speed>50.4</speed>
<course>353.8</course>
<desc>Speed 50.4 km/h Distance 104 km</desc>
<time>2010-08-28T17:32:22.08</time>
<name>3017</name>
</trkpt>
<trkpt lat="49.527387" lon="8.786843">
<ele>451.5</ele>
<speed>49.6</speed>
<course>355.9</course>
<desc>Speed 49.6 km/h Distance 104 km</desc>
<time>2010-08-28T17:32:23.08</time>
<name>3018</name>
</trkpt>
<trkpt lat="49.527493" lon="8.786832">
<ele>451.5</ele>
<speed>49.6</speed>
<course>351.9</course>
<desc>Speed 49.6 km/h Distance 104 km</desc>
<time>2010-08-28T17:32:24.08</time>
<name>3019</name>
</trkpt>
<trkpt lat="49.527743" lon="8.786777">
<ele>452.0</ele>
<speed>49.6</speed>
<course>17.9</course>
<desc>Speed 49.6 km/h Distance 104 km</desc>
<time>2010-08-28T17:32:27.07</time>
<name>3020</name>
</trkpt>
<trkpt lat="49.528008" lon="8.786908">
<ele>451.5</ele>
<speed>51.1</speed>
<course>14.6</course>
<desc>Speed 51.1 km/h Distance 104 km</desc>
<time>2010-08-28T17:32:30.07</time>
<name>3021</name>
</trkpt>
<trkpt lat="49.528125" lon="8.786955">
<ele>452.0</ele>
<speed>51.1</speed>
<course>20.9</course>
<desc>Speed 51.1 km/h Distance 104 km</desc>
<time>2010-08-28T17:32:31.07</time>
<name>3022</name>
</trkpt>
<trkpt lat="49.528363" lon="8.787095">
<ele>451.5</ele>
<speed>51.1</speed>
<course>350.5</course>
<desc>Speed 51.1 km/h Distance 104 km</desc>
<time>2010-08-28T17:32:34.07</time>
<name>3023</name>
</trkpt>
<trkpt lat="49.528740" lon="8.786998">
<ele>452.5</ele>
<speed>30.5</speed>
<course>1.2</course>
<desc>Speed 30.5 km/h Distance 104 km</desc>
<time>2010-08-28T17:32:37.07</time>
<name>3024</name>
</trkpt>
<trkpt lat="49.528945" lon="8.787005">
<ele>451.0</ele>
<speed>24.7</speed>
<course>326.0</course>
<desc>Speed 24.7 km/h Distance 104 km</desc>
<time>2010-08-28T17:32:39.06</time>
<name>3025</name>
</trkpt>
<trkpt lat="49.528988" lon="8.786960">
<ele>451.0</ele>
<speed>24.7</speed>
<course>297.2</course>
<desc>Speed 24.7 km/h Distance 104 km</desc>
<time>2010-08-28T17:32:40.07</time>
<name>3026</name>
</trkpt>
<trkpt lat="49.529023" lon="8.786855">
<ele>451.0</ele>
<speed>21.3</speed>
<course>289.1</course>
<desc>Speed 21.3 km/h Distance 104 km</desc>
<time>2010-08-28T17:32:41.06</time>
<name>3027</name>
</trkpt>
<trkpt lat="49.529100" lon="8.786513">
<ele>452.0</ele>
<speed>25.7</speed>
<course>271.4</course>
<desc>Speed 25.7 km/h Distance 104 km</desc>
<time>2010-08-28T17:32:44.06</time>
<name>3028</name>
</trkpt>
<trkpt lat="49.529102" lon="8.786405">
<ele>452.5</ele>
<speed>25.7</speed>
<course>233.3</course>
<desc>Speed 25.7 km/h Distance 104 km</desc>
<time>2010-08-28T17:32:46.06</time>
<name>3029</name>
</trkpt>
<trkpt lat="49.528905" lon="8.785998">
<ele>453.0</ele>
<speed>42.0</speed>
<course>236.0</course>
<desc>Speed 42.0 km/h Distance 104 km</desc>
<time>2010-08-28T17:32:49.06</time>
<name>3030</name>
</trkpt>
<trkpt lat="49.528852" lon="8.785877">
<ele>453.5</ele>
<speed>42.0</speed>
<course>230.1</course>
<desc>Speed 42.0 km/h Distance 104 km</desc>
<time>2010-08-28T17:32:50.06</time>
<name>3031</name>
</trkpt>
<trkpt lat="49.528420" lon="8.785082">
<ele>454.0</ele>
<speed>54.6</speed>
<course>247.5</course>
<desc>Speed 54.6 km/h Distance 104 km</desc>
<time>2010-08-28T17:32:54.06</time>
<name>3032</name>
</trkpt>
<trkpt lat="49.528365" lon="8.784877">
<ele>454.0</ele>
<speed>54.1</speed>
<course>245.7</course>
<desc>Speed 54.1 km/h Distance 104 km</desc>
<time>2010-08-28T17:32:55.06</time>
<name>3033</name>
</trkpt>
<trkpt lat="49.528305" lon="8.784672">
<ele>454.0</ele>
<speed>56.0</speed>
<course>246.0</course>
<desc>Speed 56.0 km/h Distance 104 km</desc>
<time>2010-08-28T17:32:56.05</time>
<name>3034</name>
</trkpt>
<trkpt lat="49.528217" lon="8.784367">
<ele>453.5</ele>
<speed>56.0</speed>
<course>232.6</course>
<desc>Speed 56.0 km/h Distance 104 km</desc>
<time>2010-08-28T17:32:58.06</time>
<name>3035</name>
</trkpt>
<trkpt lat="49.528000" lon="8.783930">
<ele>455.0</ele>
<speed>56.0</speed>
<course>221.5</course>
<desc>Speed 56.0 km/h Distance 104 km</desc>
<time>2010-08-28T17:33:02.05</time>
<name>3036</name>
</trkpt>
<trkpt lat="49.527772" lon="8.783618">
<ele>454.0</ele>
<speed>56.0</speed>
<course>210.9</course>
<desc>Speed 56.0 km/h Distance 104 km</desc>
<time>2010-08-28T17:33:07.05</time>
<name>3037</name>
</trkpt>
<trkpt lat="49.526877" lon="8.782793">
<ele>479.0</ele>
<speed>38.8</speed>
<course>220.1</course>
<desc>Speed 38.8 km/h Distance 104 km</desc>
<time>2010-08-28T17:33:12.04</time>
<name>3038</name>
</trkpt>
<trkpt lat="49.526753" lon="8.782633">
<ele>479.5</ele>
<speed>38.8</speed>
<course>246.6</course>
<desc>Speed 38.8 km/h Distance 104 km</desc>
<time>2010-08-28T17:33:15.04</time>
<name>3039</name>
</trkpt>
<trkpt lat="49.526712" lon="8.782485">
<ele>479.5</ele>
<speed>40.7</speed>
<course>273.9</course>
<desc>Speed 40.7 km/h Distance 104 km</desc>
<time>2010-08-28T17:33:16.04</time>
<name>3040</name>
</trkpt>
<trkpt lat="49.526727" lon="8.782145">
<ele>477.0</ele>
<speed>46.2</speed>
<course>276.3</course>
<desc>Speed 46.2 km/h Distance 104 km</desc>
<time>2010-08-28T17:33:18.03</time>
<name>3041</name>
</trkpt>
<trkpt lat="49.526740" lon="8.781958">
<ele>475.0</ele>
<speed>42.4</speed>
<course>264.3</course>
<desc>Speed 42.4 km/h Distance 105 km</desc>
<time>2010-08-28T17:33:19.04</time>
<name>3042</name>
</trkpt>
<trkpt lat="49.526728" lon="8.781778">
<ele>474.5</ele>
<speed>42.9</speed>
<course>248.7</course>
<desc>Speed 42.9 km/h Distance 105 km</desc>
<time>2010-08-28T17:33:20.04</time>
<name>3043</name>
</trkpt>
<trkpt lat="49.526652" lon="8.781475">
<ele>477.5</ele>
<speed>43.3</speed>
<course>252.0</course>
<desc>Speed 43.3 km/h Distance 105 km</desc>
<time>2010-08-28T17:33:22.04</time>
<name>3044</name>
</trkpt>
<trkpt lat="49.526607" lon="8.781262">
<ele>479.0</ele>
<speed>43.3</speed>
<course>245.5</course>
<desc>Speed 43.3 km/h Distance 105 km</desc>
<time>2010-08-28T17:33:24.03</time>
<name>3045</name>
</trkpt>
<trkpt lat="49.526532" lon="8.781008">
<ele>480.5</ele>
<speed>43.3</speed>
<course>237.5</course>
<desc>Speed 43.3 km/h Distance 105 km</desc>
<time>2010-08-28T17:33:26.04</time>
<name>3046</name>
</trkpt>
<trkpt lat="49.526042" lon="8.779823">
<ele>468.5</ele>
<speed>41.9</speed>
<course>237.4</course>
<desc>Speed 41.9 km/h Distance 105 km</desc>
<time>2010-08-28T17:33:31.03</time>
<name>3047</name>
</trkpt>
<trkpt lat="49.525823" lon="8.779298">
<ele>460.5</ele>
<speed>35.9</speed>
<course>249.2</course>
<desc>Speed 35.9 km/h Distance 105 km</desc>
<time>2010-08-28T17:33:34.04</time>
<name>3048</name>
</trkpt>
<trkpt lat="49.525787" lon="8.779150">
<ele>455.5</ele>
<speed>36.5</speed>
<course>255.8</course>
<desc>Speed 36.5 km/h Distance 105 km</desc>
<time>2010-08-28T17:33:35.03</time>
<name>3049</name>
</trkpt>
<trkpt lat="49.525765" lon="8.779018">
<ele>456.0</ele>
<speed>34.5</speed>
<course>281.0</course>
<desc>Speed 34.5 km/h Distance 105 km</desc>
<time>2010-08-28T17:33:36.03</time>
<name>3050</name>
</trkpt>
<trkpt lat="49.525783" lon="8.778873">
<ele>453.0</ele>
<speed>34.4</speed>
<course>287.1</course>
<desc>Speed 34.4 km/h Distance 105 km</desc>
<time>2010-08-28T17:33:37.03</time>
<name>3051</name>
</trkpt>
<trkpt lat="49.525810" lon="8.778740">
<ele>453.0</ele>
<speed>35.1</speed>
<course>300.4</course>
<desc>Speed 35.1 km/h Distance 105 km</desc>
<time>2010-08-28T17:33:38.02</time>
<name>3052</name>
</trkpt>
<trkpt lat="49.525855" lon="8.778622">
<ele>452.5</ele>
<speed>36.8</speed>
<course>290.3</course>
<desc>Speed 36.8 km/h Distance 105 km</desc>
<time>2010-08-28T17:33:39.02</time>
<name>3053</name>
</trkpt>
<trkpt lat="49.525887" lon="8.778490">
<ele>452.0</ele>
<speed>37.2</speed>
<course>289.7</course>
<desc>Speed 37.2 km/h Distance 105 km</desc>
<time>2010-08-28T17:33:40.02</time>
<name>3054</name>
</trkpt>
<trkpt lat="49.525932" lon="8.778297">
<ele>451.5</ele>
<speed>37.2</speed>
<course>273.9</course>
<desc>Speed 37.2 km/h Distance 105 km</desc>
<time>2010-08-28T17:33:42.03</time>
<name>3055</name>
</trkpt>
<trkpt lat="49.525938" lon="8.778145">
<ele>456.0</ele>
<speed>37.2</speed>
<course>250.5</course>
<desc>Speed 37.2 km/h Distance 105 km</desc>
<time>2010-08-28T17:33:43.02</time>
<name>3056</name>
</trkpt>
<trkpt lat="49.525805" lon="8.777565">
<ele>460.5</ele>
<speed>48.4</speed>
<course>266.9</course>
<desc>Speed 48.4 km/h Distance 105 km</desc>
<time>2010-08-28T17:33:46.03</time>
<name>3057</name>
</trkpt>
<trkpt lat="49.525798" lon="8.777378">
<ele>460.5</ele>
<speed>45.9</speed>
<course>268.9</course>
<desc>Speed 45.9 km/h Distance 105 km</desc>
<time>2010-08-28T17:33:47.02</time>
<name>3058</name>
</trkpt>
<trkpt lat="49.525795" lon="8.777120">
<ele>460.5</ele>
<speed>45.9</speed>
<course>267.3</course>
<desc>Speed 45.9 km/h Distance 105 km</desc>
<time>2010-08-28T17:33:49.02</time>
<name>3059</name>
</trkpt>
<trkpt lat="49.525783" lon="8.776742">
<ele>462.0</ele>
<speed>45.9</speed>
<course>285.6</course>
<desc>Speed 45.9 km/h Distance 105 km</desc>
<time>2010-08-28T17:33:53.02</time>
<name>3060</name>
</trkpt>
<trkpt lat="49.525838" lon="8.776438">
<ele>469.0</ele>
<speed>45.9</speed>
<course>252.1</course>
<desc>Speed 45.9 km/h Distance 105 km</desc>
<time>2010-08-28T17:33:56.01</time>
<name>3061</name>
</trkpt>
<trkpt lat="49.525750" lon="8.776017">
<ele>469.5</ele>
<speed>25.5</speed>
<course>284.4</course>
<desc>Speed 25.5 km/h Distance 105 km</desc>
<time>2010-08-28T17:34:02.01</time>
<name>3062</name>
</trkpt>
<trkpt lat="49.525828" lon="8.775547">
<ele>472.5</ele>
<speed>29.3</speed>
<course>280.1</course>
<desc>Speed 29.3 km/h Distance 105 km</desc>
<time>2010-08-28T17:34:05.01</time>
<name>3063</name>
</trkpt>
<trkpt lat="49.525843" lon="8.775417">
<ele>472.0</ele>
<speed>29.3</speed>
<course>310.0</course>
<desc>Speed 29.3 km/h Distance 105 km</desc>
<time>2010-08-28T17:34:06.01</time>
<name>3064</name>
</trkpt>
<trkpt lat="49.525895" lon="8.775322">
<ele>473.5</ele>
<speed>29.3</speed>
<course>327.7</course>
<desc>Speed 29.3 km/h Distance 105 km</desc>
<time>2010-08-28T17:34:08.01</time>
<name>3065</name>
</trkpt>
<trkpt lat="49.525955" lon="8.775263">
<ele>476.0</ele>
<speed>29.3</speed>
<course>65.3</course>
<desc>Speed 29.3 km/h Distance 105 km</desc>
<time>2010-08-28T17:34:11.00</time>
<name>3066</name>
</trkpt>
<trkpt lat="49.526077" lon="8.775672">
<ele>475.5</ele>
<speed>45.0</speed>
<course>63.9</course>
<desc>Speed 45.0 km/h Distance 105 km</desc>
<time>2010-08-28T17:34:14.01</time>
<name>3067</name>
</trkpt>
<trkpt lat="49.526123" lon="8.775818">
<ele>476.0</ele>
<speed>45.0</speed>
<course>53.6</course>
<desc>Speed 45.0 km/h Distance 105 km</desc>
<time>2010-08-28T17:34:15.01</time>
<name>3068</name>
</trkpt>
<trkpt lat="49.526217" lon="8.776013">
<ele>470.0</ele>
<speed>45.0</speed>
<course>74.5</course>
<desc>Speed 45.0 km/h Distance 105 km</desc>
<time>2010-08-28T17:34:17.00</time>
<name>3069</name>
</trkpt>
<trkpt lat="49.526307" lon="8.776513">
<ele>462.5</ele>
<speed>38.6</speed>
<course>64.0</course>
<desc>Speed 38.6 km/h Distance 105 km</desc>
<time>2010-08-28T17:34:21.00</time>
<name>3070</name>
</trkpt>
<trkpt lat="49.526348" lon="8.776645">
<ele>457.5</ele>
<speed>38.6</speed>
<course>69.1</course>
<desc>Speed 38.6 km/h Distance 105 km</desc>
<time>2010-08-28T17:34:22.00</time>
<name>3071</name>
</trkpt>
<trkpt lat="49.526392" lon="8.776820">
<ele>455.0</ele>
<speed>38.6</speed>
<course>82.0</course>
<desc>Speed 38.6 km/h Distance 105 km</desc>
<time>2010-08-28T17:34:24.00</time>
<name>3072</name>
</trkpt>
<trkpt lat="49.526410" lon="8.777022">
<ele>453.0</ele>
<speed>38.6</speed>
<course>70.3</course>
<desc>Speed 38.6 km/h Distance 105 km</desc>
<time>2010-08-28T17:34:27.00</time>
<name>3073</name>
</trkpt>
<trkpt lat="49.526460" lon="8.777237">
<ele>455.5</ele>
<speed>38.6</speed>
<course>31.3</course>
<desc>Speed 38.6 km/h Distance 105 km</desc>
<time>2010-08-28T17:34:31.00</time>
<name>3074</name>
</trkpt>
<trkpt lat="49.526565" lon="8.777335">
<ele>450.5</ele>
<speed>38.6</speed>
<course>10.1</course>
<desc>Speed 38.6 km/h Distance 105 km</desc>
<time>2010-08-28T17:34:34.99</time>
<name>3075</name>
</trkpt>
<trkpt lat="49.526705" lon="8.777373">
<ele>450.5</ele>
<speed>38.6</speed>
<course>307.1</course>
<desc>Speed 38.6 km/h Distance 105 km</desc>
<time>2010-08-28T17:34:37.98</time>
<name>3076</name>
</trkpt>
<trkpt lat="49.527018" lon="8.776735">
<ele>449.5</ele>
<speed>38.6</speed>
<course>326.7</course>
<desc>Speed 38.6 km/h Distance 105 km</desc>
<time>2010-08-28T17:34:40.98</time>
<name>3077</name>
</trkpt>
<trkpt lat="49.527535" lon="8.776212">
<ele>447.0</ele>
<speed>38.6</speed>
<course>305.9</course>
<desc>Speed 38.6 km/h Distance 105 km</desc>
<time>2010-08-28T17:34:44.97</time>
<name>3078</name>
</trkpt>
<trkpt lat="49.527687" lon="8.775888">
<ele>448.5</ele>
<speed>41.9</speed>
<course>324.0</course>
<desc>Speed 41.9 km/h Distance 105 km</desc>
<time>2010-08-28T17:34:47.98</time>
<name>3079</name>
</trkpt>
<trkpt lat="49.528017" lon="8.775518">
<ele>450.5</ele>
<speed>41.9</speed>
<course>321.8</course>
<desc>Speed 41.9 km/h Distance 105 km</desc>
<time>2010-08-28T17:34:50.97</time>
<name>3080</name>
</trkpt>
<trkpt lat="49.528165" lon="8.775338">
<ele>450.0</ele>
<speed>41.9</speed>
<course>345.8</course>
<desc>Speed 41.9 km/h Distance 105 km</desc>
<time>2010-08-28T17:34:53.96</time>
<name>3081</name>
</trkpt>
<trkpt lat="49.528400" lon="8.775247">
<ele>450.0</ele>
<speed>41.9</speed>
<course>326.7</course>
<desc>Speed 41.9 km/h Distance 105 km</desc>
<time>2010-08-28T17:34:57.96</time>
<name>3082</name>
</trkpt>
<trkpt lat="49.528943" lon="8.774697">
<ele>449.5</ele>
<speed>41.9</speed>
<course>309.0</course>
<desc>Speed 41.9 km/h Distance 106 km</desc>
<time>2010-08-28T17:35:01.97</time>
<name>3083</name>
</trkpt>
<trkpt lat="49.529043" lon="8.774507">
<ele>449.5</ele>
<speed>41.9</speed>
<course>292.2</course>
<desc>Speed 41.9 km/h Distance 106 km</desc>
<time>2010-08-28T17:35:04.96</time>
<name>3084</name>
</trkpt>
<trkpt lat="49.529095" lon="8.774312">
<ele>449.5</ele>
<speed>41.9</speed>
<course>279.7</course>
<desc>Speed 41.9 km/h Distance 106 km</desc>
<time>2010-08-28T17:35:08.96</time>
<name>3085</name>
</trkpt>
<trkpt lat="49.529113" lon="8.774147">
<ele>449.5</ele>
<speed>41.9</speed>
<course>320.3</course>
<desc>Speed 41.9 km/h Distance 106 km</desc>
<time>2010-08-28T17:35:09.95</time>
<name>3086</name>
</trkpt>
<trkpt lat="49.529197" lon="8.774040">
<ele>449.5</ele>
<speed>41.9</speed>
<course>278.6</course>
<desc>Speed 41.9 km/h Distance 106 km</desc>
<time>2010-08-28T17:35:14.95</time>
<name>3087</name>
</trkpt>
<trkpt lat="49.529230" lon="8.773702">
<ele>449.5</ele>
<speed>41.9</speed>
<course>258.0</course>
<desc>Speed 41.9 km/h Distance 106 km</desc>
<time>2010-08-28T17:35:21.93</time>
<name>3088</name>
</trkpt>
<trkpt lat="49.529210" lon="8.773557">
<ele>449.5</ele>
<speed>41.9</speed>
<course>241.5</course>
<desc>Speed 41.9 km/h Distance 106 km</desc>
<time>2010-08-28T17:35:22.93</time>
<name>3089</name>
</trkpt>
<trkpt lat="49.529117" lon="8.773292">
<ele>449.5</ele>
<speed>41.9</speed>
<course>242.4</course>
<desc>Speed 41.9 km/h Distance 106 km</desc>
<time>2010-08-28T17:35:26.91</time>
<name>3090</name>
</trkpt>
<trkpt lat="49.529083" lon="8.773193">
<ele>449.5</ele>
<speed>41.9</speed>
<course>318.3</course>
<desc>Speed 41.9 km/h Distance 106 km</desc>
<time>2010-08-28T17:35:28.91</time>
<name>3091</name>
</trkpt>
<trkpt lat="49.529528" lon="8.772582">
<ele>449.5</ele>
<speed>41.9</speed>
<course>271.7</course>
<desc>Speed 41.9 km/h Distance 106 km</desc>
<time>2010-08-28T17:35:30.93</time>
<name>3092</name>
</trkpt>
<trkpt lat="49.529550" lon="8.771447">
<ele>449.0</ele>
<speed>41.9</speed>
<course>304.2</course>
<desc>Speed 41.9 km/h Distance 106 km</desc>
<time>2010-08-28T17:35:34.93</time>
<name>3093</name>
</trkpt>
<trkpt lat="49.529807" lon="8.770865">
<ele>449.0</ele>
<speed>41.9</speed>
<course>302.7</course>
<desc>Speed 41.9 km/h Distance 106 km</desc>
<time>2010-08-28T17:35:37.92</time>
<name>3094</name>
</trkpt>
<trkpt lat="49.530180" lon="8.769968">
<ele>449.0</ele>
<speed>59.4</speed>
<course>325.2</course>
<desc>Speed 59.4 km/h Distance 106 km</desc>
<time>2010-08-28T17:35:41.93</time>
<name>3095</name>
</trkpt>
<trkpt lat="49.530503" lon="8.769622">
<ele>449.0</ele>
<speed>40.9</speed>
<course>300.4</course>
<desc>Speed 40.9 km/h Distance 106 km</desc>
<time>2010-08-28T17:35:44.92</time>
<name>3096</name>
</trkpt>
<trkpt lat="49.530628" lon="8.769293">
<ele>449.0</ele>
<speed>40.9</speed>
<course>299.3</course>
<desc>Speed 40.9 km/h Distance 106 km</desc>
<time>2010-08-28T17:35:47.92</time>
<name>3097</name>
</trkpt>
<trkpt lat="49.530688" lon="8.769128">
<ele>449.0</ele>
<speed>40.9</speed>
<course>260.1</course>
<desc>Speed 40.9 km/h Distance 106 km</desc>
<time>2010-08-28T17:35:51.92</time>
<name>3098</name>
</trkpt>
<trkpt lat="49.530677" lon="8.769025">
<ele>449.0</ele>
<speed>40.9</speed>
<course>191.5</course>
<desc>Speed 40.9 km/h Distance 106 km</desc>
<time>2010-08-28T17:35:56.92</time>
<name>3099</name>
</trkpt>
<trkpt lat="49.530507" lon="8.768972">
<ele>449.0</ele>
<speed>40.9</speed>
<course>191.8</course>
<desc>Speed 40.9 km/h Distance 106 km</desc>
<time>2010-08-28T17:36:01.91</time>
<name>3100</name>
</trkpt>
<trkpt lat="49.530372" lon="8.768928">
<ele>449.0</ele>
<speed>40.9</speed>
<course>250.6</course>
<desc>Speed 40.9 km/h Distance 106 km</desc>
<time>2010-08-28T17:36:06.90</time>
<name>3101</name>
</trkpt>
<trkpt lat="49.530167" lon="8.768033">
<ele>449.0</ele>
<speed>40.9</speed>
<course>264.6</course>
<desc>Speed 40.9 km/h Distance 106 km</desc>
<time>2010-08-28T17:36:10.91</time>
<name>3102</name>
</trkpt>
<trkpt lat="49.530148" lon="8.767735">
<ele>449.0</ele>
<speed>40.9</speed>
<course>226.9</course>
<desc>Speed 40.9 km/h Distance 106 km</desc>
<time>2010-08-28T17:36:12.90</time>
<name>3103</name>
</trkpt>
<trkpt lat="49.530053" lon="8.767578">
<ele>449.0</ele>
<speed>40.9</speed>
<course>260.8</course>
<desc>Speed 40.9 km/h Distance 106 km</desc>
<time>2010-08-28T17:36:14.90</time>
<name>3104</name>
</trkpt>
<trkpt lat="49.529915" lon="8.766268">
<ele>449.0</ele>
<speed>40.9</speed>
<course>285.7</course>
<desc>Speed 40.9 km/h Distance 106 km</desc>
<time>2010-08-28T17:36:19.92</time>
<name>3105</name>
</trkpt>
<trkpt lat="49.529967" lon="8.765985">
<ele>449.0</ele>
<speed>40.9</speed>
<course>263.4</course>
<desc>Speed 40.9 km/h Distance 106 km</desc>
<time>2010-08-28T17:36:23.90</time>
<name>3106</name>
</trkpt>
<trkpt lat="49.529952" lon="8.765787">
<ele>449.0</ele>
<speed>40.9</speed>
<course>280.0</course>
<desc>Speed 40.9 km/h Distance 106 km</desc>
<time>2010-08-28T17:36:28.90</time>
<name>3107</name>
</trkpt>
<trkpt lat="49.529958" lon="8.765728">
<ele>449.0</ele>
<speed>40.9</speed>
<course>178.7</course>
<desc>Speed 40.9 km/h Distance 106 km</desc>
<time>2010-08-28T17:36:34.90</time>
<name>3108</name>
</trkpt>
<trkpt lat="49.529227" lon="8.765753">
<ele>448.5</ele>
<speed>54.7</speed>
<course>207.1</course>
<desc>Speed 54.7 km/h Distance 106 km</desc>
<time>2010-08-28T17:36:40.90</time>
<name>3109</name>
</trkpt>
<trkpt lat="49.528078" lon="8.764848">
<ele>447.5</ele>
<speed>54.7</speed>
<course>209.4</course>
<desc>Speed 54.7 km/h Distance 107 km</desc>
<time>2010-08-28T17:36:47.89</time>
<name>3110</name>
</trkpt>
<trkpt lat="49.527778" lon="8.764588">
<ele>447.5</ele>
<speed>54.7</speed>
<course>232.5</course>
<desc>Speed 54.7 km/h Distance 107 km</desc>
<time>2010-08-28T17:36:53.90</time>
<name>3111</name>
</trkpt>
<trkpt lat="49.527115" lon="8.763255">
<ele>444.5</ele>
<speed>45.3</speed>
<course>267.0</course>
<desc>Speed 45.3 km/h Distance 107 km</desc>
<time>2010-08-28T17:36:58.89</time>
<name>3112</name>
</trkpt>
<trkpt lat="49.527092" lon="8.762573">
<ele>442.5</ele>
<speed>55.2</speed>
<course>268.2</course>
<desc>Speed 55.2 km/h Distance 107 km</desc>
<time>2010-08-28T17:37:01.88</time>
<name>3113</name>
</trkpt>
<trkpt lat="49.527075" lon="8.761765">
<ele>434.5</ele>
<speed>56.8</speed>
<course>264.8</course>
<desc>Speed 56.8 km/h Distance 107 km</desc>
<time>2010-08-28T17:37:04.89</time>
<name>3114</name>
</trkpt>
<trkpt lat="49.527043" lon="8.761233">
<ele>429.5</ele>
<speed>58.3</speed>
<course>260.0</course>
<desc>Speed 58.3 km/h Distance 107 km</desc>
<time>2010-08-28T17:37:06.89</time>
<name>3115</name>
</trkpt>
<trkpt lat="49.526992" lon="8.760780">
<ele>428.0</ele>
<speed>56.6</speed>
<course>264.4</course>
<desc>Speed 56.6 km/h Distance 107 km</desc>
<time>2010-08-28T17:37:08.89</time>
<name>3116</name>
</trkpt>
<trkpt lat="49.526968" lon="8.760415">
<ele>422.5</ele>
<speed>56.6</speed>
<course>265.2</course>
<desc>Speed 56.6 km/h Distance 107 km</desc>
<time>2010-08-28T17:37:10.89</time>
<name>3117</name>
</trkpt>
<trkpt lat="49.526935" lon="8.759805">
<ele>421.0</ele>
<speed>56.6</speed>
<course>272.9</course>
<desc>Speed 56.6 km/h Distance 107 km</desc>
<time>2010-08-28T17:37:15.88</time>
<name>3118</name>
</trkpt>
<trkpt lat="49.526958" lon="8.759092">
<ele>419.5</ele>
<speed>49.9</speed>
<course>278.2</course>
<desc>Speed 49.9 km/h Distance 107 km</desc>
<time>2010-08-28T17:37:18.89</time>
<name>3119</name>
</trkpt>
<trkpt lat="49.526988" lon="8.758772">
<ele>417.0</ele>
<speed>49.9</speed>
<course>271.7</course>
<desc>Speed 49.9 km/h Distance 107 km</desc>
<time>2010-08-28T17:37:20.89</time>
<name>3120</name>
</trkpt>
<trkpt lat="49.526997" lon="8.758348">
<ele>413.5</ele>
<speed>49.9</speed>
<course>274.6</course>
<desc>Speed 49.9 km/h Distance 107 km</desc>
<time>2010-08-28T17:37:22.89</time>
<name>3121</name>
</trkpt>
<trkpt lat="49.527007" lon="8.758158">
<ele>411.0</ele>
<speed>52.1</speed>
<course>255.4</course>
<desc>Speed 52.1 km/h Distance 107 km</desc>
<time>2010-08-28T17:37:23.88</time>
<name>3122</name>
</trkpt>
<trkpt lat="49.526958" lon="8.757873">
<ele>409.5</ele>
<speed>52.1</speed>
<course>244.6</course>
<desc>Speed 52.1 km/h Distance 107 km</desc>
<time>2010-08-28T17:37:25.88</time>
<name>3123</name>
</trkpt>
<trkpt lat="49.526828" lon="8.757452">
<ele>407.5</ele>
<speed>47.2</speed>
<course>239.9</course>
<desc>Speed 47.2 km/h Distance 107 km</desc>
<time>2010-08-28T17:37:27.87</time>
<name>3124</name>
</trkpt>
<trkpt lat="49.526765" lon="8.757283">
<ele>406.5</ele>
<speed>43.1</speed>
<course>275.2</course>
<desc>Speed 43.1 km/h Distance 107 km</desc>
<time>2010-08-28T17:37:28.88</time>
<name>3125</name>
</trkpt>
<trkpt lat="49.526780" lon="8.757028">
<ele>405.5</ele>
<speed>40.1</speed>
<course>273.0</course>
<desc>Speed 40.1 km/h Distance 107 km</desc>
<time>2010-08-28T17:37:30.87</time>
<name>3126</name>
</trkpt>
<trkpt lat="49.526785" lon="8.756883">
<ele>405.0</ele>
<speed>40.1</speed>
<course>266.6</course>
<desc>Speed 40.1 km/h Distance 107 km</desc>
<time>2010-08-28T17:37:31.88</time>
<name>3127</name>
</trkpt>
<trkpt lat="49.526775" lon="8.756625">
<ele>404.5</ele>
<speed>40.1</speed>
<course>268.4</course>
<desc>Speed 40.1 km/h Distance 107 km</desc>
<time>2010-08-28T17:37:33.88</time>
<name>3128</name>
</trkpt>
<trkpt lat="49.526742" lon="8.754757">
<ele>403.5</ele>
<speed>40.1</speed>
<course>273.6</course>
<desc>Speed 40.1 km/h Distance 107 km</desc>
<time>2010-08-28T17:37:41.87</time>
<name>3129</name>
</trkpt>
<trkpt lat="49.526777" lon="8.753908">
<ele>401.0</ele>
<speed>50.9</speed>
<course>251.1</course>
<desc>Speed 50.9 km/h Distance 107 km</desc>
<time>2010-08-28T17:37:45.87</time>
<name>3130</name>
</trkpt>
<trkpt lat="49.526662" lon="8.753390">
<ele>390.5</ele>
<speed>51.1</speed>
<course>246.2</course>
<desc>Speed 51.1 km/h Distance 107 km</desc>
<time>2010-08-28T17:37:48.86</time>
<name>3131</name>
</trkpt>
<trkpt lat="49.526612" lon="8.753215">
<ele>387.5</ele>
<speed>51.1</speed>
<course>288.8</course>
<desc>Speed 51.1 km/h Distance 107 km</desc>
<time>2010-08-28T17:37:49.86</time>
<name>3132</name>
</trkpt>
<trkpt lat="49.526927" lon="8.751790">
<ele>383.0</ele>
<speed>49.8</speed>
<course>270.0</course>
<desc>Speed 49.8 km/h Distance 108 km</desc>
<time>2010-08-28T17:37:55.86</time>
<name>3133</name>
</trkpt>
<trkpt lat="49.526927" lon="8.751382">
<ele>375.0</ele>
<speed>53.1</speed>
<course>277.9</course>
<desc>Speed 53.1 km/h Distance 108 km</desc>
<time>2010-08-28T17:37:57.85</time>
<name>3134</name>
</trkpt>
<trkpt lat="49.526953" lon="8.751087">
<ele>374.0</ele>
<speed>53.1</speed>
<course>283.7</course>
<desc>Speed 53.1 km/h Distance 108 km</desc>
<time>2010-08-28T17:37:59.85</time>
<name>3135</name>
</trkpt>
<trkpt lat="49.527013" lon="8.750707">
<ele>368.0</ele>
<speed>53.1</speed>
<course>271.7</course>
<desc>Speed 53.1 km/h Distance 108 km</desc>
<time>2010-08-28T17:38:03.85</time>
<name>3136</name>
</trkpt>
<trkpt lat="49.527025" lon="8.750105">
<ele>368.0</ele>
<speed>53.1</speed>
<course>278.5</course>
<desc>Speed 53.1 km/h Distance 108 km</desc>
<time>2010-08-28T17:38:07.85</time>
<name>3137</name>
</trkpt>
<trkpt lat="49.527090" lon="8.749432">
<ele>357.0</ele>
<speed>53.1</speed>
<course>292.9</course>
<desc>Speed 53.1 km/h Distance 108 km</desc>
<time>2010-08-28T17:38:10.84</time>
<name>3138</name>
</trkpt>
<trkpt lat="49.527187" lon="8.749078">
<ele>346.5</ele>
<speed>50.0</speed>
<course>267.5</course>
<desc>Speed 50.0 km/h Distance 108 km</desc>
<time>2010-08-28T17:38:12.85</time>
<name>3139</name>
</trkpt>
<trkpt lat="49.527173" lon="8.748605">
<ele>336.0</ele>
<speed>50.0</speed>
<course>264.4</course>
<desc>Speed 50.0 km/h Distance 108 km</desc>
<time>2010-08-28T17:38:14.84</time>
<name>3140</name>
</trkpt>
<trkpt lat="49.527155" lon="8.748317">
<ele>334.0</ele>
<speed>50.0</speed>
<course>270.6</course>
<desc>Speed 50.0 km/h Distance 108 km</desc>
<time>2010-08-28T17:38:16.85</time>
<name>3141</name>
</trkpt>
<trkpt lat="49.527158" lon="8.747842">
<ele>329.5</ele>
<speed>43.5</speed>
<course>273.8</course>
<desc>Speed 43.5 km/h Distance 108 km</desc>
<time>2010-08-28T17:38:19.84</time>
<name>3142</name>
</trkpt>
<trkpt lat="49.527177" lon="8.747417">
<ele>321.5</ele>
<speed>45.5</speed>
<course>275.7</course>
<desc>Speed 45.5 km/h Distance 108 km</desc>
<time>2010-08-28T17:38:21.84</time>
<name>3143</name>
</trkpt>
<trkpt lat="49.527187" lon="8.747263">
<ele>314.0</ele>
<speed>45.5</speed>
<course>269.1</course>
<desc>Speed 45.5 km/h Distance 108 km</desc>
<time>2010-08-28T17:38:22.84</time>
<name>3144</name>
</trkpt>
<trkpt lat="49.527183" lon="8.746922">
<ele>314.5</ele>
<speed>45.5</speed>
<course>263.1</course>
<desc>Speed 45.5 km/h Distance 108 km</desc>
<time>2010-08-28T17:38:24.84</time>
<name>3145</name>
</trkpt>
<trkpt lat="49.527160" lon="8.746625">
<ele>313.5</ele>
<speed>45.5</speed>
<course>298.3</course>
<desc>Speed 45.5 km/h Distance 108 km</desc>
<time>2010-08-28T17:38:27.84</time>
<name>3146</name>
</trkpt>
<trkpt lat="49.527245" lon="8.746382">
<ele>324.0</ele>
<speed>45.5</speed>
<course>291.3</course>
<desc>Speed 45.5 km/h Distance 108 km</desc>
<time>2010-08-28T17:38:30.84</time>
<name>3147</name>
</trkpt>
<trkpt lat="49.527320" lon="8.746085">
<ele>328.5</ele>
<speed>45.5</speed>
<course>318.3</course>
<desc>Speed 45.5 km/h Distance 108 km</desc>
<time>2010-08-28T17:38:35.83</time>
<name>3148</name>
</trkpt>
<trkpt lat="49.527682" lon="8.745588">
<ele>328.0</ele>
<speed>45.5</speed>
<course>309.9</course>
<desc>Speed 45.5 km/h Distance 108 km</desc>
<time>2010-08-28T17:38:39.83</time>
<name>3149</name>
</trkpt>
<trkpt lat="49.528132" lon="8.744760">
<ele>329.5</ele>
<speed>45.5</speed>
<course>317.1</course>
<desc>Speed 45.5 km/h Distance 108 km</desc>
<time>2010-08-28T17:38:43.82</time>
<name>3150</name>
</trkpt>
<trkpt lat="49.528205" lon="8.744655">
<ele>326.5</ele>
<speed>45.5</speed>
<course>345.8</course>
<desc>Speed 45.5 km/h Distance 108 km</desc>
<time>2010-08-28T17:38:44.82</time>
<name>3151</name>
</trkpt>
<trkpt lat="49.528648" lon="8.744482">
<ele>325.0</ele>
<speed>46.4</speed>
<course>347.4</course>
<desc>Speed 46.4 km/h Distance 108 km</desc>
<time>2010-08-28T17:38:47.82</time>
<name>3152</name>
</trkpt>
<trkpt lat="49.528755" lon="8.744445">
<ele>324.0</ele>
<speed>46.4</speed>
<course>343.3</course>
<desc>Speed 46.4 km/h Distance 108 km</desc>
<time>2010-08-28T17:38:48.82</time>
<name>3153</name>
</trkpt>
<trkpt lat="49.528953" lon="8.744353">
<ele>322.5</ele>
<speed>46.4</speed>
<course>301.2</course>
<desc>Speed 46.4 km/h Distance 108 km</desc>
<time>2010-08-28T17:38:52.79</time>
<name>3154</name>
</trkpt>
<trkpt lat="49.529825" lon="8.742138">
<ele>323.5</ele>
<speed>46.4</speed>
<course>249.9</course>
<desc>Speed 46.4 km/h Distance 108 km</desc>
<time>2010-08-28T17:38:57.81</time>
<name>3155</name>
</trkpt>
<trkpt lat="49.529628" lon="8.741312">
<ele>322.5</ele>
<speed>46.4</speed>
<course>314.8</course>
<desc>Speed 46.4 km/h Distance 108 km</desc>
<time>2010-08-28T17:38:59.81</time>
<name>3156</name>
</trkpt>
<trkpt lat="49.530142" lon="8.740515">
<ele>321.5</ele>
<speed>57.7</speed>
<course>303.0</course>
<desc>Speed 57.7 km/h Distance 109 km</desc>
<time>2010-08-28T17:39:03.81</time>
<name>3157</name>
</trkpt>
<trkpt lat="49.530222" lon="8.740325">
<ele>321.0</ele>
<speed>57.7</speed>
<course>301.3</course>
<desc>Speed 57.7 km/h Distance 109 km</desc>
<time>2010-08-28T17:39:04.81</time>
<name>3158</name>
</trkpt>
<trkpt lat="49.530612" lon="8.739338">
<ele>314.5</ele>
<speed>61.3</speed>
<course>281.4</course>
<desc>Speed 61.3 km/h Distance 109 km</desc>
<time>2010-08-28T17:39:08.81</time>
<name>3159</name>
</trkpt>
<trkpt lat="49.530645" lon="8.739083">
<ele>315.5</ele>
<speed>56.1</speed>
<course>281.0</course>
<desc>Speed 56.1 km/h Distance 109 km</desc>
<time>2010-08-28T17:39:09.81</time>
<name>3160</name>
</trkpt>
<trkpt lat="49.530668" lon="8.738898">
<ele>315.5</ele>
<speed>56.1</speed>
<course>278.6</course>
<desc>Speed 56.1 km/h Distance 109 km</desc>
<time>2010-08-28T17:39:10.81</time>
<name>3161</name>
</trkpt>
<trkpt lat="49.530712" lon="8.738458">
<ele>315.5</ele>
<speed>56.1</speed>
<course>262.4</course>
<desc>Speed 56.1 km/h Distance 109 km</desc>
<time>2010-08-28T17:39:13.81</time>
<name>3162</name>
</trkpt>
<trkpt lat="49.530670" lon="8.737978">
<ele>310.5</ele>
<speed>56.1</speed>
<course>259.2</course>
<desc>Speed 56.1 km/h Distance 109 km</desc>
<time>2010-08-28T17:39:18.82</time>
<name>3163</name>
</trkpt>
<trkpt lat="49.530587" lon="8.737307">
<ele>309.0</ele>
<speed>47.2</speed>
<course>264.7</course>
<desc>Speed 47.2 km/h Distance 109 km</desc>
<time>2010-08-28T17:39:22.80</time>
<name>3164</name>
</trkpt>
<trkpt lat="49.530523" lon="8.736255">
<ele>307.5</ele>
<speed>47.2</speed>
<course>269.0</course>
<desc>Speed 47.2 km/h Distance 109 km</desc>
<time>2010-08-28T17:39:26.79</time>
<name>3165</name>
</trkpt>
<trkpt lat="49.530520" lon="8.735967">
<ele>307.0</ele>
<speed>47.2</speed>
<course>266.8</course>
<desc>Speed 47.2 km/h Distance 109 km</desc>
<time>2010-08-28T17:39:28.79</time>
<name>3166</name>
</trkpt>
<trkpt lat="49.530513" lon="8.735783">
<ele>306.5</ele>
<speed>47.2</speed>
<course>277.8</course>
<desc>Speed 47.2 km/h Distance 109 km</desc>
<time>2010-08-28T17:39:29.79</time>
<name>3167</name>
</trkpt>
<trkpt lat="49.530555" lon="8.735312">
<ele>306.0</ele>
<speed>24.6</speed>
<course>292.7</course>
<desc>Speed 24.6 km/h Distance 109 km</desc>
<time>2010-08-28T17:39:33.79</time>
<name>3168</name>
</trkpt>
<trkpt lat="49.530603" lon="8.735133">
<ele>305.5</ele>
<speed>11.2</speed>
<course>302.9</course>
<desc>Speed 11.2 km/h Distance 109 km</desc>
<time>2010-08-28T17:39:35.78</time>
<name>3169</name>
</trkpt>
<trkpt lat="49.530625" lon="8.735082">
<ele>305.5</ele>
<speed>15.7</speed>
<course>292.9</course>
<desc>Speed 15.7 km/h Distance 109 km</desc>
<time>2010-08-28T17:39:36.78</time>
<name>3170</name>
</trkpt>
<trkpt lat="49.530663" lon="8.734942">
<ele>305.5</ele>
<speed>18.0</speed>
<course>302.7</course>
<desc>Speed 18.0 km/h Distance 109 km</desc>
<time>2010-08-28T17:39:38.78</time>
<name>3171</name>
</trkpt>
<trkpt lat="49.530680" lon="8.734902">
<ele>305.5</ele>
<speed>18.0</speed>
<course>289.2</course>
<desc>Speed 18.0 km/h Distance 109 km</desc>
<time>2010-08-28T17:39:39.78</time>
<name>3172</name>
</trkpt>
<trkpt lat="49.530692" lon="8.734850">
<ele>305.5</ele>
<speed>18.0</speed>
<course>283.9</course>
<desc>Speed 18.0 km/h Distance 109 km</desc>
<time>2010-08-28T17:39:40.78</time>
<name>3173</name>
</trkpt>
<trkpt lat="49.530698" lon="8.734808">
<ele>305.5</ele>
<speed>18.0</speed>
<course>279.9</course>
<desc>Speed 18.0 km/h Distance 109 km</desc>
<time>2010-08-28T17:39:41.77</time>
<name>3174</name>
</trkpt>
<trkpt lat="49.530742" lon="8.734425">
<ele>306.0</ele>
<speed>26.9</speed>
<course>264.8</course>
<desc>Speed 26.9 km/h Distance 109 km</desc>
<time>2010-08-28T17:39:44.78</time>
<name>3175</name>
</trkpt>
<trkpt lat="49.530737" lon="8.734340">
<ele>306.0</ele>
<speed>26.9</speed>
<course>282.4</course>
<desc>Speed 26.9 km/h Distance 109 km</desc>
<time>2010-08-28T17:39:45.77</time>
<name>3176</name>
</trkpt>
<trkpt lat="49.530762" lon="8.734165">
<ele>306.0</ele>
<speed>26.9</speed>
<course>274.6</course>
<desc>Speed 26.9 km/h Distance 109 km</desc>
<time>2010-08-28T17:39:47.77</time>
<name>3177</name>
</trkpt>
<trkpt lat="49.530770" lon="8.734005">
<ele>304.0</ele>
<speed>26.9</speed>
<course>280.4</course>
<desc>Speed 26.9 km/h Distance 109 km</desc>
<time>2010-08-28T17:39:49.78</time>
<name>3178</name>
</trkpt>
<trkpt lat="49.530803" lon="8.733725">
<ele>302.5</ele>
<speed>32.0</speed>
<course>272.8</course>
<desc>Speed 32.0 km/h Distance 109 km</desc>
<time>2010-08-28T17:39:51.78</time>
<name>3179</name>
</trkpt>
<trkpt lat="49.530807" lon="8.733622">
<ele>302.5</ele>
<speed>32.0</speed>
<course>269.5</course>
<desc>Speed 32.0 km/h Distance 109 km</desc>
<time>2010-08-28T17:39:52.77</time>
<name>3180</name>
</trkpt>
<trkpt lat="49.530805" lon="8.733333">
<ele>301.0</ele>
<speed>29.7</speed>
<course>275.7</course>
<desc>Speed 29.7 km/h Distance 109 km</desc>
<time>2010-08-28T17:39:54.77</time>
<name>3181</name>
</trkpt>
<trkpt lat="49.530812" lon="8.733230">
<ele>300.5</ele>
<speed>29.7</speed>
<course>264.4</course>
<desc>Speed 29.7 km/h Distance 109 km</desc>
<time>2010-08-28T17:39:55.77</time>
<name>3182</name>
</trkpt>
<trkpt lat="49.530780" lon="8.732730">
<ele>299.5</ele>
<speed>32.1</speed>
<course>258.5</course>
<desc>Speed 32.1 km/h Distance 109 km</desc>
<time>2010-08-28T17:39:58.77</time>
<name>3183</name>
</trkpt>
<trkpt lat="49.530765" lon="8.732617">
<ele>299.0</ele>
<speed>32.1</speed>
<course>259.6</course>
<desc>Speed 32.1 km/h Distance 109 km</desc>
<time>2010-08-28T17:39:59.78</time>
<name>3184</name>
</trkpt>
<trkpt lat="49.530745" lon="8.732448">
<ele>298.5</ele>
<speed>32.1</speed>
<course>274.1</course>
<desc>Speed 32.1 km/h Distance 109 km</desc>
<time>2010-08-28T17:40:01.77</time>
<name>3185</name>
</trkpt>
<trkpt lat="49.530768" lon="8.731948">
<ele>298.0</ele>
<speed>32.1</speed>
<course>282.5</course>
<desc>Speed 32.1 km/h Distance 109 km</desc>
<time>2010-08-28T17:40:05.76</time>
<name>3186</name>
</trkpt>
<trkpt lat="49.530855" lon="8.731347">
<ele>297.5</ele>
<speed>43.5</speed>
<course>302.0</course>
<desc>Speed 43.5 km/h Distance 109 km</desc>
<time>2010-08-28T17:40:08.76</time>
<name>3187</name>
</trkpt>
<trkpt lat="49.530908" lon="8.731215">
<ele>297.0</ele>
<speed>43.5</speed>
<course>300.5</course>
<desc>Speed 43.5 km/h Distance 109 km</desc>
<time>2010-08-28T17:40:09.76</time>
<name>3188</name>
</trkpt>
<trkpt lat="49.531003" lon="8.730967">
<ele>296.0</ele>
<speed>43.5</speed>
<course>304.1</course>
<desc>Speed 43.5 km/h Distance 109 km</desc>
<time>2010-08-28T17:40:12.76</time>
<name>3189</name>
</trkpt>
<trkpt lat="49.531180" lon="8.730565">
<ele>294.0</ele>
<speed>26.9</speed>
<course>294.2</course>
<desc>Speed 26.9 km/h Distance 109 km</desc>
<time>2010-08-28T17:40:15.76</time>
<name>3190</name>
</trkpt>
<trkpt lat="49.531212" lon="8.730457">
<ele>293.5</ele>
<speed>26.9</speed>
<course>294.5</course>
<desc>Speed 26.9 km/h Distance 109 km</desc>
<time>2010-08-28T17:40:17.76</time>
<name>3191</name>
</trkpt>
<trkpt lat="49.531233" lon="8.730383">
<ele>293.0</ele>
<speed>26.9</speed>
<course>307.6</course>
<desc>Speed 26.9 km/h Distance 109 km</desc>
<time>2010-08-28T17:40:20.86</time>
<name>3192</name>
</trkpt>
<trkpt lat="49.531282" lon="8.730287">
<ele>294.0</ele>
<speed>21.6</speed>
<course>311.9</course>
<desc>Speed 21.6 km/h Distance 109 km</desc>
<time>2010-08-28T17:40:22.75</time>
<name>3193</name>
</trkpt>
<trkpt lat="49.531323" lon="8.730215">
<ele>293.5</ele>
<speed>21.6</speed>
<course>288.0</course>
<desc>Speed 21.6 km/h Distance 109 km</desc>
<time>2010-08-28T17:40:23.75</time>
<name>3194</name>
</trkpt>
<trkpt lat="49.531337" lon="8.730152">
<ele>293.5</ele>
<speed>21.6</speed>
<course>308.0</course>
<desc>Speed 21.6 km/h Distance 109 km</desc>
<time>2010-08-28T17:40:24.75</time>
<name>3195</name>
</trkpt>
<trkpt lat="49.531398" lon="8.730030">
<ele>294.5</ele>
<speed>21.6</speed>
<course>300.2</course>
<desc>Speed 21.6 km/h Distance 109 km</desc>
<time>2010-08-28T17:40:26.75</time>
<name>3196</name>
</trkpt>
<trkpt lat="49.531422" lon="8.729968">
<ele>294.0</ele>
<speed>21.6</speed>
<course>302.7</course>
<desc>Speed 21.6 km/h Distance 109 km</desc>
<time>2010-08-28T17:40:27.75</time>
<name>3197</name>
</trkpt>
<trkpt lat="49.531447" lon="8.729908">
<ele>293.5</ele>
<speed>21.6</speed>
<course>317.2</course>
<desc>Speed 21.6 km/h Distance 109 km</desc>
<time>2010-08-28T17:40:29.75</time>
<name>3198</name>
</trkpt>
<trkpt lat="49.531953" lon="8.729187">
<ele>291.5</ele>
<speed>40.3</speed>
<course>325.8</course>
<desc>Speed 40.3 km/h Distance 109 km</desc>
<time>2010-08-28T17:40:34.74</time>
<name>3199</name>
</trkpt>
<trkpt lat="49.532132" lon="8.729000">
<ele>291.0</ele>
<speed>40.3</speed>
<course>308.5</course>
<desc>Speed 40.3 km/h Distance 109 km</desc>
<time>2010-08-28T17:40:36.75</time>
<name>3200</name>
</trkpt>
<trkpt lat="49.532395" lon="8.728490">
<ele>291.5</ele>
<speed>46.5</speed>
<course>313.6</course>
<desc>Speed 46.5 km/h Distance 109 km</desc>
<time>2010-08-28T17:40:39.75</time>
<name>3201</name>
</trkpt>
<trkpt lat="49.532478" lon="8.728355">
<ele>292.5</ele>
<speed>46.5</speed>
<course>315.9</course>
<desc>Speed 46.5 km/h Distance 109 km</desc>
<time>2010-08-28T17:40:40.75</time>
<name>3202</name>
</trkpt>
<trkpt lat="49.532620" lon="8.728143">
<ele>292.5</ele>
<speed>46.5</speed>
<course>319.8</course>
<desc>Speed 46.5 km/h Distance 110 km</desc>
<time>2010-08-28T17:40:43.75</time>
<name>3203</name>
</trkpt>
<trkpt lat="49.532768" lon="8.727950">
<ele>288.5</ele>
<speed>46.5</speed>
<course>289.0</course>
<desc>Speed 46.5 km/h Distance 110 km</desc>
<time>2010-08-28T17:40:47.74</time>
<name>3204</name>
</trkpt>
<trkpt lat="49.532843" lon="8.727615">
<ele>283.0</ele>
<speed>46.5</speed>
<course>286.7</course>
<desc>Speed 46.5 km/h Distance 110 km</desc>
<time>2010-08-28T17:40:51.74</time>
<name>3205</name>
</trkpt>
<trkpt lat="49.532900" lon="8.727323">
<ele>276.5</ele>
<speed>46.5</speed>
<course>287.0</course>
<desc>Speed 46.5 km/h Distance 110 km</desc>
<time>2010-08-28T17:40:55.74</time>
<name>3206</name>
</trkpt>
<trkpt lat="49.532958" lon="8.727030">
<ele>269.5</ele>
<speed>46.5</speed>
<course>296.3</course>
<desc>Speed 46.5 km/h Distance 110 km</desc>
<time>2010-08-28T17:40:59.73</time>
<name>3207</name>
</trkpt>
<trkpt lat="49.533055" lon="8.726728">
<ele>266.5</ele>
<speed>46.5</speed>
<course>304.3</course>
<desc>Speed 46.5 km/h Distance 110 km</desc>
<time>2010-08-28T17:41:03.73</time>
<name>3208</name>
</trkpt>
<trkpt lat="49.533192" lon="8.726420">
<ele>260.0</ele>
<speed>46.5</speed>
<course>289.8</course>
<desc>Speed 46.5 km/h Distance 110 km</desc>
<time>2010-08-28T17:41:05.72</time>
<name>3209</name>
</trkpt>
<trkpt lat="49.533862" lon="8.723552">
<ele>259.5</ele>
<speed>46.5</speed>
<course>290.6</course>
<desc>Speed 46.5 km/h Distance 110 km</desc>
<time>2010-08-28T17:41:13.72</time>
<name>3210</name>
</trkpt>
<trkpt lat="49.533948" lon="8.723197">
<ele>259.0</ele>
<speed>46.5</speed>
<course>304.8</course>
<desc>Speed 46.5 km/h Distance 110 km</desc>
<time>2010-08-28T17:41:15.71</time>
<name>3211</name>
</trkpt>
<trkpt lat="49.534308" lon="8.722400">
<ele>258.5</ele>
<speed>46.5</speed>
<course>252.1</course>
<desc>Speed 46.5 km/h Distance 110 km</desc>
<time>2010-08-28T17:41:19.72</time>
<name>3212</name>
</trkpt>
<trkpt lat="49.534235" lon="8.722050">
<ele>258.0</ele>
<speed>46.5</speed>
<course>304.1</course>
<desc>Speed 46.5 km/h Distance 110 km</desc>
<time>2010-08-28T17:41:23.71</time>
<name>3213</name>
</trkpt>
<trkpt lat="49.534338" lon="8.721815">
<ele>258.0</ele>
<speed>46.5</speed>
<course>308.2</course>
<desc>Speed 46.5 km/h Distance 110 km</desc>
<time>2010-08-28T17:41:27.71</time>
<name>3214</name>
</trkpt>
<trkpt lat="49.534953" lon="8.720610">
<ele>256.5</ele>
<speed>59.1</speed>
<course>291.5</course>
<desc>Speed 59.1 km/h Distance 110 km</desc>
<time>2010-08-28T17:41:32.70</time>
<name>3215</name>
</trkpt>
<trkpt lat="49.535115" lon="8.719977">
<ele>255.5</ele>
<speed>59.1</speed>
<course>327.4</course>
<desc>Speed 59.1 km/h Distance 110 km</desc>
<time>2010-08-28T17:41:35.70</time>
<name>3216</name>
</trkpt>
<trkpt lat="49.535347" lon="8.719748">
<ele>255.5</ele>
<speed>59.1</speed>
<course>310.2</course>
<desc>Speed 59.1 km/h Distance 110 km</desc>
<time>2010-08-28T17:41:40.70</time>
<name>3217</name>
</trkpt>
<trkpt lat="49.535823" lon="8.718880">
<ele>256.0</ele>
<speed>59.1</speed>
<course>270.6</course>
<desc>Speed 59.1 km/h Distance 110 km</desc>
<time>2010-08-28T17:41:44.69</time>
<name>3218</name>
</trkpt>
<trkpt lat="49.535827" lon="8.718400">
<ele>255.5</ele>
<speed>59.1</speed>
<course>293.1</course>
<desc>Speed 59.1 km/h Distance 110 km</desc>
<time>2010-08-28T17:41:49.69</time>
<name>3219</name>
</trkpt>
<trkpt lat="49.535967" lon="8.717893">
<ele>255.5</ele>
<speed>59.1</speed>
<course>293.7</course>
<desc>Speed 59.1 km/h Distance 110 km</desc>
<time>2010-08-28T17:41:54.69</time>
<name>3220</name>
</trkpt>
<trkpt lat="49.536092" lon="8.717455">
<ele>255.0</ele>
<speed>59.1</speed>
<course>305.7</course>
<desc>Speed 59.1 km/h Distance 110 km</desc>
<time>2010-08-28T17:41:59.68</time>
<name>3221</name>
</trkpt>
<trkpt lat="49.536232" lon="8.717155">
<ele>255.0</ele>
<speed>59.1</speed>
<course>282.8</course>
<desc>Speed 59.1 km/h Distance 110 km</desc>
<time>2010-08-28T17:42:05.68</time>
<name>3222</name>
</trkpt>
<trkpt lat="49.536308" lon="8.716635">
<ele>255.0</ele>
<speed>59.1</speed>
<course>309.3</course>
<desc>Speed 59.1 km/h Distance 110 km</desc>
<time>2010-08-28T17:42:07.68</time>
<name>3223</name>
</trkpt>
<trkpt lat="49.536848" lon="8.715620">
<ele>255.0</ele>
<speed>59.1</speed>
<course>301.6</course>
<desc>Speed 59.1 km/h Distance 111 km</desc>
<time>2010-08-28T17:42:09.68</time>
<name>3224</name>
</trkpt>
<trkpt lat="49.537362" lon="8.714333">
<ele>255.0</ele>
<speed>59.1</speed>
<course>316.9</course>
<desc>Speed 59.1 km/h Distance 111 km</desc>
<time>2010-08-28T17:42:14.68</time>
<name>3225</name>
</trkpt>
<trkpt lat="49.537625" lon="8.713953">
<ele>254.5</ele>
<speed>59.1</speed>
<course>315.6</course>
<desc>Speed 59.1 km/h Distance 111 km</desc>
<time>2010-08-28T17:42:16.68</time>
<name>3226</name>
</trkpt>
<trkpt lat="49.538133" lon="8.713187">
<ele>254.5</ele>
<speed>41.3</speed>
<course>309.9</course>
<desc>Speed 41.3 km/h Distance 111 km</desc>
<time>2010-08-28T17:42:20.67</time>
<name>3227</name>
</trkpt>
<trkpt lat="49.538397" lon="8.712702">
<ele>255.0</ele>
<speed>41.3</speed>
<course>273.4</course>
<desc>Speed 41.3 km/h Distance 111 km</desc>
<time>2010-08-28T17:42:23.67</time>
<name>3228</name>
</trkpt>
<trkpt lat="49.538405" lon="8.712483">
<ele>255.0</ele>
<speed>41.3</speed>
<course>304.8</course>
<desc>Speed 41.3 km/h Distance 111 km</desc>
<time>2010-08-28T17:42:25.66</time>
<name>3229</name>
</trkpt>
<trkpt lat="49.538503" lon="8.712265">
<ele>255.0</ele>
<speed>41.3</speed>
<course>304.1</course>
<desc>Speed 41.3 km/h Distance 111 km</desc>
<time>2010-08-28T17:42:27.67</time>
<name>3230</name>
</trkpt>
<trkpt lat="49.538625" lon="8.711988">
<ele>255.0</ele>
<speed>41.3</speed>
<course>307.2</course>
<desc>Speed 41.3 km/h Distance 111 km</desc>
<time>2010-08-28T17:42:30.67</time>
<name>3231</name>
</trkpt>
<trkpt lat="49.538782" lon="8.711670">
<ele>252.5</ele>
<speed>40.2</speed>
<course>323.8</course>
<desc>Speed 40.2 km/h Distance 111 km</desc>
<time>2010-08-28T17:42:33.67</time>
<name>3232</name>
</trkpt>
<trkpt lat="49.539302" lon="8.711083">
<ele>250.5</ele>
<speed>40.7</speed>
<course>325.5</course>
<desc>Speed 40.7 km/h Distance 111 km</desc>
<time>2010-08-28T17:42:37.66</time>
<name>3233</name>
</trkpt>
<trkpt lat="49.539497" lon="8.710877">
<ele>249.0</ele>
<speed>40.9</speed>
<course>333.0</course>
<desc>Speed 40.9 km/h Distance 111 km</desc>
<time>2010-08-28T17:42:39.66</time>
<name>3234</name>
</trkpt>
<trkpt lat="49.539582" lon="8.710810">
<ele>248.5</ele>
<speed>40.9</speed>
<course>316.0</course>
<desc>Speed 40.9 km/h Distance 111 km</desc>
<time>2010-08-28T17:42:40.66</time>
<name>3235</name>
</trkpt>
<trkpt lat="49.539777" lon="8.710520">
<ele>247.0</ele>
<speed>45.1</speed>
<course>309.0</course>
<desc>Speed 45.1 km/h Distance 111 km</desc>
<time>2010-08-28T17:42:42.66</time>
<name>3236</name>
</trkpt>
<trkpt lat="49.539960" lon="8.710172">
<ele>246.0</ele>
<speed>41.3</speed>
<course>302.4</course>
<desc>Speed 41.3 km/h Distance 111 km</desc>
<time>2010-08-28T17:42:44.66</time>
<name>3237</name>
</trkpt>
<trkpt lat="49.540203" lon="8.709580">
<ele>243.5</ele>
<speed>51.5</speed>
<course>295.9</course>
<desc>Speed 51.5 km/h Distance 111 km</desc>
<time>2010-08-28T17:42:47.65</time>
<name>3238</name>
</trkpt>
<trkpt lat="49.540303" lon="8.709263">
<ele>242.0</ele>
<speed>51.5</speed>
<course>294.8</course>
<desc>Speed 51.5 km/h Distance 111 km</desc>
<time>2010-08-28T17:42:49.65</time>
<name>3239</name>
</trkpt>
<trkpt lat="49.540410" lon="8.708908">
<ele>241.5</ele>
<speed>51.5</speed>
<course>298.1</course>
<desc>Speed 51.5 km/h Distance 111 km</desc>
<time>2010-08-28T17:42:53.65</time>
<name>3240</name>
</trkpt>
<trkpt lat="49.540560" lon="8.708475">
<ele>241.0</ele>
<speed>46.5</speed>
<course>283.2</course>
<desc>Speed 46.5 km/h Distance 111 km</desc>
<time>2010-08-28T17:42:57.65</time>
<name>3241</name>
</trkpt>
<trkpt lat="49.540587" lon="8.708300">
<ele>241.0</ele>
<speed>46.5</speed>
<course>275.1</course>
<desc>Speed 46.5 km/h Distance 111 km</desc>
<time>2010-08-28T17:42:58.65</time>
<name>3242</name>
</trkpt>
<trkpt lat="49.540602" lon="8.708043">
<ele>241.0</ele>
<speed>46.5</speed>
<course>279.7</course>
<desc>Speed 46.5 km/h Distance 111 km</desc>
<time>2010-08-28T17:43:00.64</time>
<name>3243</name>
</trkpt>
<trkpt lat="49.540638" lon="8.707713">
<ele>241.0</ele>
<speed>46.5</speed>
<course>305.8</course>
<desc>Speed 46.5 km/h Distance 111 km</desc>
<time>2010-08-28T17:43:03.64</time>
<name>3244</name>
</trkpt>
<trkpt lat="49.540737" lon="8.707503">
<ele>241.0</ele>
<speed>46.5</speed>
<course>310.6</course>
<desc>Speed 46.5 km/h Distance 111 km</desc>
<time>2010-08-28T17:43:05.64</time>
<name>3245</name>
</trkpt>
<trkpt lat="49.540867" lon="8.707270">
<ele>241.5</ele>
<speed>46.5</speed>
<course>304.2</course>
<desc>Speed 46.5 km/h Distance 111 km</desc>
<time>2010-08-28T17:43:08.65</time>
<name>3246</name>
</trkpt>
<trkpt lat="49.540985" lon="8.707002">
<ele>241.0</ele>
<speed>46.5</speed>
<course>296.0</course>
<desc>Speed 46.5 km/h Distance 111 km</desc>
<time>2010-08-28T17:43:12.64</time>
<name>3247</name>
</trkpt>
<trkpt lat="49.541645" lon="8.704912">
<ele>241.0</ele>
<speed>46.5</speed>
<course>277.5</course>
<desc>Speed 46.5 km/h Distance 112 km</desc>
<time>2010-08-28T17:43:19.65</time>
<name>3248</name>
</trkpt>
<trkpt lat="49.541758" lon="8.703585">
<ele>240.5</ele>
<speed>63.4</speed>
<course>266.3</course>
<desc>Speed 63.4 km/h Distance 112 km</desc>
<time>2010-08-28T17:43:24.65</time>
<name>3249</name>
</trkpt>
<trkpt lat="49.541740" lon="8.703150">
<ele>239.0</ele>
<speed>57.9</speed>
<course>259.2</course>
<desc>Speed 57.9 km/h Distance 112 km</desc>
<time>2010-08-28T17:43:26.64</time>
<name>3250</name>
</trkpt>
<trkpt lat="49.541673" lon="8.702610">
<ele>238.5</ele>
<speed>65.1</speed>
<course>253.5</course>
<desc>Speed 65.1 km/h Distance 112 km</desc>
<time>2010-08-28T17:43:28.64</time>
<name>3251</name>
</trkpt>
<trkpt lat="49.541570" lon="8.702072">
<ele>237.0</ele>
<speed>66.9</speed>
<course>245.6</course>
<desc>Speed 66.9 km/h Distance 112 km</desc>
<time>2010-08-28T17:43:30.64</time>
<name>3252</name>
</trkpt>
<trkpt lat="49.541392" lon="8.701465">
<ele>237.5</ele>
<speed>69.0</speed>
<course>238.1</course>
<desc>Speed 69.0 km/h Distance 112 km</desc>
<time>2010-08-28T17:43:33.64</time>
<name>3253</name>
</trkpt>
<trkpt lat="49.541128" lon="8.700813">
<ele>235.5</ele>
<speed>69.0</speed>
<course>266.9</course>
<desc>Speed 69.0 km/h Distance 112 km</desc>
<time>2010-08-28T17:43:37.63</time>
<name>3254</name>
</trkpt>
<trkpt lat="49.541103" lon="8.700108">
<ele>229.5</ele>
<speed>55.3</speed>
<course>272.3</course>
<desc>Speed 55.3 km/h Distance 112 km</desc>
<time>2010-08-28T17:43:41.63</time>
<name>3255</name>
</trkpt>
<trkpt lat="49.541123" lon="8.699337">
<ele>214.0</ele>
<speed>59.2</speed>
<course>256.3</course>
<desc>Speed 59.2 km/h Distance 112 km</desc>
<time>2010-08-28T17:43:44.62</time>
<name>3256</name>
</trkpt>
<trkpt lat="49.541048" lon="8.698862">
<ele>207.5</ele>
<speed>59.2</speed>
<course>253.9</course>
<desc>Speed 59.2 km/h Distance 112 km</desc>
<time>2010-08-28T17:43:46.62</time>
<name>3257</name>
</trkpt>
<trkpt lat="49.540958" lon="8.698382">
<ele>203.0</ele>
<speed>59.2</speed>
<course>295.4</course>
<desc>Speed 59.2 km/h Distance 112 km</desc>
<time>2010-08-28T17:43:50.61</time>
<name>3258</name>
</trkpt>
<trkpt lat="49.541128" lon="8.697830">
<ele>201.5</ele>
<speed>46.5</speed>
<course>298.9</course>
<desc>Speed 46.5 km/h Distance 112 km</desc>
<time>2010-08-28T17:43:54.61</time>
<name>3259</name>
</trkpt>
<trkpt lat="49.541183" lon="8.697677">
<ele>197.5</ele>
<speed>46.5</speed>
<course>306.9</course>
<desc>Speed 46.5 km/h Distance 112 km</desc>
<time>2010-08-28T17:43:55.60</time>
<name>3260</name>
</trkpt>
<trkpt lat="49.541243" lon="8.697553">
<ele>194.0</ele>
<speed>46.5</speed>
<course>297.4</course>
<desc>Speed 46.5 km/h Distance 112 km</desc>
<time>2010-08-28T17:43:56.60</time>
<name>3261</name>
</trkpt>
<trkpt lat="49.541363" lon="8.697197">
<ele>191.5</ele>
<speed>46.5</speed>
<course>282.2</course>
<desc>Speed 46.5 km/h Distance 112 km</desc>
<time>2010-08-28T17:43:58.60</time>
<name>3262</name>
</trkpt>
<trkpt lat="49.541408" lon="8.696877">
<ele>195.0</ele>
<speed>46.5</speed>
<course>267.3</course>
<desc>Speed 46.5 km/h Distance 112 km</desc>
<time>2010-08-28T17:44:01.60</time>
<name>3263</name>
</trkpt>
<trkpt lat="49.541382" lon="8.695992">
<ele>192.5</ele>
<speed>46.5</speed>
<course>295.2</course>
<desc>Speed 46.5 km/h Distance 112 km</desc>
<time>2010-08-28T17:44:06.59</time>
<name>3264</name>
</trkpt>
<trkpt lat="49.541718" lon="8.694887">
<ele>197.0</ele>
<speed>46.5</speed>
<course>271.7</course>
<desc>Speed 46.5 km/h Distance 112 km</desc>
<time>2010-08-28T17:44:08.60</time>
<name>3265</name>
</trkpt>
<trkpt lat="49.541737" lon="8.693932">
<ele>195.5</ele>
<speed>46.5</speed>
<course>254.8</course>
<desc>Speed 46.5 km/h Distance 112 km</desc>
<time>2010-08-28T17:44:12.59</time>
<name>3266</name>
</trkpt>
<trkpt lat="49.541507" lon="8.692627">
<ele>203.0</ele>
<speed>54.2</speed>
<course>269.2</course>
<desc>Speed 54.2 km/h Distance 112 km</desc>
<time>2010-08-28T17:44:17.58</time>
<name>3267</name>
</trkpt>
<trkpt lat="49.541503" lon="8.692237">
<ele>201.0</ele>
<speed>51.1</speed>
<course>264.6</course>
<desc>Speed 51.1 km/h Distance 112 km</desc>
<time>2010-08-28T17:44:19.60</time>
<name>3268</name>
</trkpt>
<trkpt lat="49.541453" lon="8.691418">
<ele>196.0</ele>
<speed>52.6</speed>
<course>266.0</course>
<desc>Speed 52.6 km/h Distance 113 km</desc>
<time>2010-08-28T17:44:22.58</time>
<name>3269</name>
</trkpt>
<trkpt lat="49.541432" lon="8.690947">
<ele>191.0</ele>
<speed>52.2</speed>
<course>258.4</course>
<desc>Speed 52.2 km/h Distance 113 km</desc>
<time>2010-08-28T17:44:24.57</time>
<name>3270</name>
</trkpt>
<trkpt lat="49.541368" lon="8.690470">
<ele>191.0</ele>
<speed>52.4</speed>
<course>261.5</course>
<desc>Speed 52.4 km/h Distance 113 km</desc>
<time>2010-08-28T17:44:26.67</time>
<name>3271</name>
</trkpt>
<trkpt lat="49.541352" lon="8.690298">
<ele>191.0</ele>
<speed>52.4</speed>
<course>258.7</course>
<desc>Speed 52.4 km/h Distance 113 km</desc>
<time>2010-08-28T17:44:27.57</time>
<name>3272</name>
</trkpt>
<trkpt lat="49.541312" lon="8.689990">
<ele>192.5</ele>
<speed>52.4</speed>
<course>257.0</course>
<desc>Speed 52.4 km/h Distance 113 km</desc>
<time>2010-08-28T17:44:29.57</time>
<name>3273</name>
</trkpt>
<trkpt lat="49.541240" lon="8.689513">
<ele>200.5</ele>
<speed>52.4</speed>
<course>286.5</course>
<desc>Speed 52.4 km/h Distance 113 km</desc>
<time>2010-08-28T17:44:33.56</time>
<name>3274</name>
</trkpt>
<trkpt lat="49.541335" lon="8.689018">
<ele>200.0</ele>
<speed>51.4</speed>
<course>265.0</course>
<desc>Speed 51.4 km/h Distance 113 km</desc>
<time>2010-08-28T17:44:36.57</time>
<name>3275</name>
</trkpt>
<trkpt lat="49.541268" lon="8.687840">
<ele>207.0</ele>
<speed>53.3</speed>
<course>271.4</course>
<desc>Speed 53.3 km/h Distance 113 km</desc>
<time>2010-08-28T17:44:40.57</time>
<name>3276</name>
</trkpt>
<trkpt lat="49.541272" lon="8.687633">
<ele>206.5</ele>
<speed>53.3</speed>
<course>290.4</course>
<desc>Speed 53.3 km/h Distance 113 km</desc>
<time>2010-08-28T17:44:41.57</time>
<name>3277</name>
</trkpt>
<trkpt lat="49.541318" lon="8.687440">
<ele>198.5</ele>
<speed>53.3</speed>
<course>269.1</course>
<desc>Speed 53.3 km/h Distance 113 km</desc>
<time>2010-08-28T17:44:42.57</time>
<name>3278</name>
</trkpt>
<trkpt lat="49.541313" lon="8.686925">
<ele>192.5</ele>
<speed>55.1</speed>
<course>264.9</course>
<desc>Speed 55.1 km/h Distance 113 km</desc>
<time>2010-08-28T17:44:44.57</time>
<name>3279</name>
</trkpt>
<trkpt lat="49.541300" lon="8.686697">
<ele>193.0</ele>
<speed>53.9</speed>
<course>272.8</course>
<desc>Speed 53.9 km/h Distance 113 km</desc>
<time>2010-08-28T17:44:45.56</time>
<name>3280</name>
</trkpt>
<trkpt lat="49.541315" lon="8.686222">
<ele>191.0</ele>
<speed>61.5</speed>
<course>265.5</course>
<desc>Speed 61.5 km/h Distance 113 km</desc>
<time>2010-08-28T17:44:47.56</time>
<name>3281</name>
</trkpt>
<trkpt lat="49.541285" lon="8.685638">
<ele>187.0</ele>
<speed>52.5</speed>
<course>262.2</course>
<desc>Speed 52.5 km/h Distance 113 km</desc>
<time>2010-08-28T17:44:50.55</time>
<name>3282</name>
</trkpt>
<trkpt lat="49.541267" lon="8.685433">
<ele>185.5</ele>
<speed>52.5</speed>
<course>267.4</course>
<desc>Speed 52.5 km/h Distance 113 km</desc>
<time>2010-08-28T17:44:51.56</time>
<name>3283</name>
</trkpt>
<trkpt lat="49.541255" lon="8.685030">
<ele>185.0</ele>
<speed>52.5</speed>
<course>270.4</course>
<desc>Speed 52.5 km/h Distance 113 km</desc>
<time>2010-08-28T17:44:54.56</time>
<name>3284</name>
</trkpt>
<trkpt lat="49.541257" lon="8.684612">
<ele>185.5</ele>
<speed>52.5</speed>
<course>291.4</course>
<desc>Speed 52.5 km/h Distance 113 km</desc>
<time>2010-08-28T17:44:59.55</time>
<name>3285</name>
</trkpt>
<trkpt lat="49.541343" lon="8.684270">
<ele>187.0</ele>
<speed>52.5</speed>
<course>299.0</course>
<desc>Speed 52.5 km/h Distance 113 km</desc>
<time>2010-08-28T17:45:04.55</time>
<name>3286</name>
</trkpt>
<trkpt lat="49.541478" lon="8.683895">
<ele>189.5</ele>
<speed>52.5</speed>
<course>288.9</course>
<desc>Speed 52.5 km/h Distance 113 km</desc>
<time>2010-08-28T17:45:10.54</time>
<name>3287</name>
</trkpt>
<trkpt lat="49.541522" lon="8.683700">
<ele>190.0</ele>
<speed>3.0</speed>
<course>280.5</course>
<desc>Speed 3.0 km/h Distance 113 km</desc>
<time>2010-08-28T17:45:15.54</time>
<name>3288</name>
</trkpt>
<trkpt lat="49.541532" lon="8.683617">
<ele>190.0</ele>
<speed>0.4</speed>
<course>327.0</course>
<desc>Speed 0.4 km/h Distance 113 km</desc>
<time>2010-08-28T17:45:17.54</time>
<name>3289</name>
</trkpt>
<trkpt lat="49.541550" lon="8.683598">
<ele>190.0</ele>
<speed>7.6</speed>
<course>275.9</course>
<desc>Speed 7.6 km/h Distance 113 km</desc>
<time>2010-08-28T17:45:19.55</time>
<name>3290</name>
</trkpt>
<trkpt lat="49.541553" lon="8.683548">
<ele>190.0</ele>
<speed>2.1</speed>
<course>245.5</course>
<desc>Speed 2.1 km/h Distance 113 km</desc>
<time>2010-08-28T17:45:20.89</time>
<name>3291</name>
</trkpt>
<trkpt lat="49.541540" lon="8.683503">
<ele>190.5</ele>
<speed>11.6</speed>
<course>232.4</course>
<desc>Speed 11.6 km/h Distance 113 km</desc>
<time>2010-08-28T17:45:22.55</time>
<name>3292</name>
</trkpt>
<trkpt lat="49.541530" lon="8.683483">
<ele>190.5</ele>
<speed>11.6</speed>
<course>260.1</course>
<desc>Speed 11.6 km/h Distance 113 km</desc>
<time>2010-08-28T17:45:23.55</time>
<name>3293</name>
</trkpt>
<trkpt lat="49.541520" lon="8.683395">
<ele>190.5</ele>
<speed>0.8</speed>
<course>267.0</course>
<desc>Speed 0.8 km/h Distance 113 km</desc>
<time>2010-08-28T17:45:25.55</time>
<name>3294</name>
</trkpt>
<trkpt lat="49.541518" lon="8.683347">
<ele>190.5</ele>
<speed>4.4</speed>
<course>265.9</course>
<desc>Speed 4.4 km/h Distance 113 km</desc>
<time>2010-08-28T17:45:27.11</time>
<name>3295</name>
</trkpt>
<trkpt lat="49.541515" lon="8.683275">
<ele>190.5</ele>
<speed>0.1</speed>
<course>271.5</course>
<desc>Speed 0.1 km/h Distance 113 km</desc>
<time>2010-08-28T17:45:28.54</time>
<name>3296</name>
</trkpt>
<trkpt lat="49.541517" lon="8.683175">
<ele>190.0</ele>
<speed>6.1</speed>
<course>276.8</course>
<desc>Speed 6.1 km/h Distance 113 km</desc>
<time>2010-08-28T17:45:30.54</time>
<name>3297</name>
</trkpt>
<trkpt lat="49.541518" lon="8.683153">
<ele>190.0</ele>
<speed>0.2</speed>
<course>232.4</course>
<desc>Speed 0.2 km/h Distance 113 km</desc>
<time>2010-08-28T17:45:31.54</time>
<name>3298</name>
</trkpt>
<trkpt lat="49.541515" lon="8.683147">
<ele>190.0</ele>
<speed>0.5</speed>
<course>203.8</course>
<desc>Speed 0.5 km/h Distance 113 km</desc>
<time>2010-08-28T17:45:32.54</time>
<name>3299</name>
</trkpt>
<trkpt lat="49.541510" lon="8.683143">
<ele>190.0</ele>
<speed>0.4</speed>
<course>260.3</course>
<desc>Speed 0.4 km/h Distance 113 km</desc>
<time>2010-08-28T17:45:33.53</time>
<name>3300</name>
</trkpt>
<trkpt lat="49.541508" lon="8.683128">
<ele>190.0</ele>
<speed>0.5</speed>
<course>280.9</course>
<desc>Speed 0.5 km/h Distance 113 km</desc>
<time>2010-08-28T17:45:34.53</time>
<name>3301</name>
</trkpt>
<trkpt lat="49.541510" lon="8.683115">
<ele>189.5</ele>
<speed>0.6</speed>
<course>291.6</course>
<desc>Speed 0.6 km/h Distance 113 km</desc>
<time>2010-08-28T17:45:35.54</time>
<name>3302</name>
</trkpt>
<trkpt lat="49.541512" lon="8.683108">
<ele>189.5</ele>
<speed>0.6</speed>
<course>284.6</course>
<desc>Speed 0.6 km/h Distance 113 km</desc>
<time>2010-08-28T17:45:36.53</time>
<name>3303</name>
</trkpt>
<trkpt lat="49.541513" lon="8.683098">
<ele>189.5</ele>
<speed>0.6</speed>
<course>277.6</course>
<desc>Speed 0.6 km/h Distance 113 km</desc>
<time>2010-08-28T17:45:37.54</time>
<name>3304</name>
</trkpt>
<trkpt lat="49.541517" lon="8.683060">
<ele>188.5</ele>
<speed>0.7</speed>
<course>301.8</course>
<desc>Speed 0.7 km/h Distance 113 km</desc>
<time>2010-08-28T17:45:39.54</time>
<name>3305</name>
</trkpt>
<trkpt lat="49.541520" lon="8.683052">
<ele>188.0</ele>
<speed>0.7</speed>
<course>323.6</course>
<desc>Speed 0.7 km/h Distance 113 km</desc>
<time>2010-08-28T17:45:40.53</time>
<name>3306</name>
</trkpt>
<trkpt lat="49.541532" lon="8.683038">
<ele>186.5</ele>
<speed>2.3</speed>
<course>337.8</course>
<desc>Speed 2.3 km/h Distance 113 km</desc>
<time>2010-08-28T17:45:41.53</time>
<name>3307</name>
</trkpt>
<trkpt lat="49.541537" lon="8.683035">
<ele>186.5</ele>
<speed>1.5</speed>
<course>327.0</course>
<desc>Speed 1.5 km/h Distance 113 km</desc>
<time>2010-08-28T17:45:42.53</time>
<name>3308</name>
</trkpt>
<trkpt lat="49.541547" lon="8.683025">
<ele>186.0</ele>
<speed>4.9</speed>
<course>317.7</course>
<desc>Speed 4.9 km/h Distance 113 km</desc>
<time>2010-08-28T17:45:43.53</time>
<name>3309</name>
</trkpt>
<trkpt lat="49.541555" lon="8.683013">
<ele>186.0</ele>
<speed>4.9</speed>
<course>319.1</course>
<desc>Speed 4.9 km/h Distance 113 km</desc>
<time>2010-08-28T17:45:44.53</time>
<name>3310</name>
</trkpt>
<trkpt lat="49.541565" lon="8.683000">
<ele>186.0</ele>
<speed>4.9</speed>
<course>307.6</course>
<desc>Speed 4.9 km/h Distance 113 km</desc>
<time>2010-08-28T17:45:45.52</time>
<name>3311</name>
</trkpt>
<trkpt lat="49.541570" lon="8.682990">
<ele>186.0</ele>
<speed>4.9</speed>
<course>270.0</course>
<desc>Speed 4.9 km/h Distance 113 km</desc>
<time>2010-08-28T17:45:46.52</time>
<name>3312</name>
</trkpt>
<trkpt lat="49.541570" lon="8.682968">
<ele>187.0</ele>
<speed>4.9</speed>
<course>284.6</course>
<desc>Speed 4.9 km/h Distance 113 km</desc>
<time>2010-08-28T17:45:47.52</time>
<name>3313</name>
</trkpt>
<trkpt lat="49.541572" lon="8.682958">
<ele>187.5</ele>
<speed>4.9</speed>
<course>290.9</course>
<desc>Speed 4.9 km/h Distance 113 km</desc>
<time>2010-08-28T17:45:48.50</time>
<name>3314</name>
</trkpt>
<trkpt lat="49.541573" lon="8.682952">
<ele>188.0</ele>
<speed>4.9</speed>
<course>306.3</course>
<desc>Speed 4.9 km/h Distance 113 km</desc>
<time>2010-08-28T17:45:49.50</time>
<name>3315</name>
</trkpt>
<trkpt lat="49.541762" lon="8.682557">
<ele>189.0</ele>
<speed>33.6</speed>
<course>307.6</course>
<desc>Speed 33.6 km/h Distance 113 km</desc>
<time>2010-08-28T17:45:53.52</time>
<name>3316</name>
</trkpt>
<trkpt lat="49.541822" lon="8.682437">
<ele>189.5</ele>
<speed>33.6</speed>
<course>312.2</course>
<desc>Speed 33.6 km/h Distance 113 km</desc>
<time>2010-08-28T17:45:56.51</time>
<name>3317</name>
</trkpt>
<trkpt lat="49.541922" lon="8.682267">
<ele>191.0</ele>
<speed>33.6</speed>
<course>312.4</course>
<desc>Speed 33.6 km/h Distance 113 km</desc>
<time>2010-08-28T17:45:59.51</time>
<name>3318</name>
</trkpt>
<trkpt lat="49.541997" lon="8.682140">
<ele>189.5</ele>
<speed>33.6</speed>
<course>310.3</course>
<desc>Speed 33.6 km/h Distance 113 km</desc>
<time>2010-08-28T17:46:01.51</time>
<name>3319</name>
</trkpt>
<trkpt lat="49.542070" lon="8.682007">
<ele>187.5</ele>
<speed>33.6</speed>
<course>304.0</course>
<desc>Speed 33.6 km/h Distance 113 km</desc>
<time>2010-08-28T17:46:04.51</time>
<name>3320</name>
</trkpt>
<trkpt lat="49.542117" lon="8.681900">
<ele>186.5</ele>
<speed>33.6</speed>
<course>300.4</course>
<desc>Speed 33.6 km/h Distance 113 km</desc>
<time>2010-08-28T17:46:08.50</time>
<name>3321</name>
</trkpt>
<trkpt lat="49.542180" lon="8.681733">
<ele>184.5</ele>
<speed>33.6</speed>
<course>331.6</course>
<desc>Speed 33.6 km/h Distance 113 km</desc>
<time>2010-08-28T17:46:12.50</time>
<name>3322</name>
</trkpt>
<trkpt lat="49.542360" lon="8.681583">
<ele>184.5</ele>
<speed>33.6</speed>
<course>321.1</course>
<desc>Speed 33.6 km/h Distance 113 km</desc>
<time>2010-08-28T17:46:14.49</time>
<name>3323</name>
</trkpt>
<trkpt lat="49.542470" lon="8.681447">
<ele>184.0</ele>
<speed>33.6</speed>
<course>305.0</course>
<desc>Speed 33.6 km/h Distance 113 km</desc>
<time>2010-08-28T17:46:18.48</time>
<name>3324</name>
</trkpt>
<trkpt lat="49.542925" lon="8.680447">
<ele>184.5</ele>
<speed>27.5</speed>
<course>288.0</course>
<desc>Speed 27.5 km/h Distance 113 km</desc>
<time>2010-08-28T17:46:23.48</time>
<name>3325</name>
</trkpt>
<trkpt lat="49.542950" lon="8.680328">
<ele>184.5</ele>
<speed>27.5</speed>
<course>308.6</course>
<desc>Speed 27.5 km/h Distance 113 km</desc>
<time>2010-08-28T17:46:24.48</time>
<name>3326</name>
</trkpt>
<trkpt lat="49.542998" lon="8.680235">
<ele>184.5</ele>
<speed>27.5</speed>
<course>317.4</course>
<desc>Speed 27.5 km/h Distance 113 km</desc>
<time>2010-08-28T17:46:26.48</time>
<name>3327</name>
</trkpt>
<trkpt lat="49.543333" lon="8.679760">
<ele>184.5</ele>
<speed>27.5</speed>
<course>310.6</course>
<desc>Speed 27.5 km/h Distance 113 km</desc>
<time>2010-08-28T17:46:29.47</time>
<name>3328</name>
</trkpt>
<trkpt lat="49.543627" lon="8.679232">
<ele>184.0</ele>
<speed>27.5</speed>
<course>280.8</course>
<desc>Speed 27.5 km/h Distance 114 km</desc>
<time>2010-08-28T17:46:31.47</time>
<name>3329</name>
</trkpt>
<trkpt lat="49.543740" lon="8.678313">
<ele>184.0</ele>
<speed>33.5</speed>
<course>298.7</course>
<desc>Speed 33.5 km/h Distance 114 km</desc>
<time>2010-08-28T17:46:33.48</time>
<name>3330</name>
</trkpt>
<trkpt lat="49.543832" lon="8.678055">
<ele>184.0</ele>
<speed>33.5</speed>
<course>305.6</course>
<desc>Speed 33.5 km/h Distance 114 km</desc>
<time>2010-08-28T17:46:35.47</time>
<name>3331</name>
</trkpt>
<trkpt lat="49.544043" lon="8.677600">
<ele>184.0</ele>
<speed>33.5</speed>
<course>277.7</course>
<desc>Speed 33.5 km/h Distance 114 km</desc>
<time>2010-08-28T17:46:38.48</time>
<name>3332</name>
</trkpt>
<trkpt lat="49.544062" lon="8.677392">
<ele>184.0</ele>
<speed>33.5</speed>
<course>276.8</course>
<desc>Speed 33.5 km/h Distance 114 km</desc>
<time>2010-08-28T17:46:42.47</time>
<name>3333</name>
</trkpt>
<trkpt lat="49.544072" lon="8.677262">
<ele>184.5</ele>
<speed>33.5</speed>
<course>285.8</course>
<desc>Speed 33.5 km/h Distance 114 km</desc>
<time>2010-08-28T17:46:43.46</time>
<name>3334</name>
</trkpt>
<trkpt lat="49.544098" lon="8.677117">
<ele>184.5</ele>
<speed>33.5</speed>
<course>259.3</course>
<desc>Speed 33.5 km/h Distance 114 km</desc>
<time>2010-08-28T17:46:46.46</time>
<name>3335</name>
</trkpt>
<trkpt lat="49.544078" lon="8.676953">
<ele>184.0</ele>
<speed>33.5</speed>
<course>282.0</course>
<desc>Speed 33.5 km/h Distance 114 km</desc>
<time>2010-08-28T17:46:48.45</time>
<name>3336</name>
</trkpt>
<trkpt lat="49.544105" lon="8.676760">
<ele>183.5</ele>
<speed>33.5</speed>
<course>265.4</course>
<desc>Speed 33.5 km/h Distance 114 km</desc>
<time>2010-08-28T17:46:50.45</time>
<name>3337</name>
</trkpt>
<trkpt lat="49.544097" lon="8.676602">
<ele>183.5</ele>
<speed>33.5</speed>
<course>286.5</course>
<desc>Speed 33.5 km/h Distance 114 km</desc>
<time>2010-08-28T17:46:53.45</time>
<name>3338</name>
</trkpt>
<trkpt lat="49.544120" lon="8.676480">
<ele>183.0</ele>
<speed>33.5</speed>
<course>275.4</course>
<desc>Speed 33.5 km/h Distance 114 km</desc>
<time>2010-08-28T17:46:54.45</time>
<name>3339</name>
</trkpt>
<trkpt lat="49.544128" lon="8.676343">
<ele>183.0</ele>
<speed>33.5</speed>
<course>237.4</course>
<desc>Speed 33.5 km/h Distance 114 km</desc>
<time>2010-08-28T17:46:57.45</time>
<name>3340</name>
</trkpt>
<trkpt lat="49.543982" lon="8.675990">
<ele>183.0</ele>
<speed>33.5</speed>
<course>266.5</course>
<desc>Speed 33.5 km/h Distance 114 km</desc>
<time>2010-08-28T17:46:59.44</time>
<name>3341</name>
</trkpt>
<trkpt lat="49.543947" lon="8.675100">
<ele>182.5</ele>
<speed>33.5</speed>
<course>258.9</course>
<desc>Speed 33.5 km/h Distance 114 km</desc>
<time>2010-08-28T17:47:03.44</time>
<name>3342</name>
</trkpt>
<trkpt lat="49.543932" lon="8.674982">
<ele>182.5</ele>
<speed>33.5</speed>
<course>291.4</course>
<desc>Speed 33.5 km/h Distance 114 km</desc>
<time>2010-08-28T17:47:04.44</time>
<name>3343</name>
</trkpt>
<trkpt lat="49.544212" lon="8.673882">
<ele>182.5</ele>
<speed>36.2</speed>
<course>320.6</course>
<desc>Speed 36.2 km/h Distance 114 km</desc>
<time>2010-08-28T17:47:09.44</time>
<name>3344</name>
</trkpt>
<trkpt lat="49.544357" lon="8.673698">
<ele>183.0</ele>
<speed>36.2</speed>
<course>331.5</course>
<desc>Speed 36.2 km/h Distance 114 km</desc>
<time>2010-08-28T17:47:11.44</time>
<name>3345</name>
</trkpt>
<trkpt lat="49.544480" lon="8.673595">
<ele>182.5</ele>
<speed>36.2</speed>
<course>12.0</course>
<desc>Speed 36.2 km/h Distance 114 km</desc>
<time>2010-08-28T17:47:14.44</time>
<name>3346</name>
</trkpt>
<trkpt lat="49.544582" lon="8.673628">
<ele>182.5</ele>
<speed>36.2</speed>
<course>4.4</course>
<desc>Speed 36.2 km/h Distance 114 km</desc>
<time>2010-08-28T17:47:15.43</time>
<name>3347</name>
</trkpt>
<trkpt lat="49.544695" lon="8.673642">
<ele>182.5</ele>
<speed>36.2</speed>
<course>25.6</course>
<desc>Speed 36.2 km/h Distance 114 km</desc>
<time>2010-08-28T17:47:18.44</time>
<name>3348</name>
</trkpt>
<trkpt lat="49.544790" lon="8.673712">
<ele>182.5</ele>
<speed>36.2</speed>
<course>37.0</course>
<desc>Speed 36.2 km/h Distance 114 km</desc>
<time>2010-08-28T17:47:22.43</time>
<name>3349</name>
</trkpt>
<trkpt lat="49.544905" lon="8.673845">
<ele>182.5</ele>
<speed>36.2</speed>
<course>33.2</course>
<desc>Speed 36.2 km/h Distance 114 km</desc>
<time>2010-08-28T17:47:24.43</time>
<name>3350</name>
</trkpt>
<trkpt lat="49.545397" lon="8.674342">
<ele>182.0</ele>
<speed>40.5</speed>
<course>17.6</course>
<desc>Speed 40.5 km/h Distance 114 km</desc>
<time>2010-08-28T17:47:28.43</time>
<name>3351</name>
</trkpt>
<trkpt lat="49.545530" lon="8.674407">
<ele>182.0</ele>
<speed>40.5</speed>
<course>3.8</course>
<desc>Speed 40.5 km/h Distance 114 km</desc>
<time>2010-08-28T17:47:30.42</time>
<name>3352</name>
</trkpt>
<trkpt lat="49.545773" lon="8.674432">
<ele>182.0</ele>
<speed>37.9</speed>
<course>357.1</course>
<desc>Speed 37.9 km/h Distance 114 km</desc>
<time>2010-08-28T17:47:33.43</time>
<name>3353</name>
</trkpt>
<trkpt lat="49.546008" lon="8.674413">
<ele>182.0</ele>
<speed>37.9</speed>
<course>355.7</course>
<desc>Speed 37.9 km/h Distance 114 km</desc>
<time>2010-08-28T17:47:35.42</time>
<name>3354</name>
</trkpt>
<trkpt lat="49.546660" lon="8.674338">
<ele>182.5</ele>
<speed>39.3</speed>
<course>357.3</course>
<desc>Speed 39.3 km/h Distance 114 km</desc>
<time>2010-08-28T17:47:39.43</time>
<name>3355</name>
</trkpt>
<trkpt lat="49.546910" lon="8.674320">
<ele>182.5</ele>
<speed>35.2</speed>
<course>328.8</course>
<desc>Speed 35.2 km/h Distance 114 km</desc>
<time>2010-08-28T17:47:41.42</time>
<name>3356</name>
</trkpt>
<trkpt lat="49.546983" lon="8.674252">
<ele>182.5</ele>
<speed>32.7</speed>
<course>341.7</course>
<desc>Speed 32.7 km/h Distance 114 km</desc>
<time>2010-08-28T17:47:42.42</time>
<name>3357</name>
</trkpt>
<trkpt lat="49.547068" lon="8.674208">
<ele>182.5</ele>
<speed>32.5</speed>
<course>332.9</course>
<desc>Speed 32.5 km/h Distance 114 km</desc>
<time>2010-08-28T17:47:43.42</time>
<name>3358</name>
</trkpt>
<trkpt lat="49.547132" lon="8.674158">
<ele>182.5</ele>
<speed>32.5</speed>
<course>354.0</course>
<desc>Speed 32.5 km/h Distance 114 km</desc>
<time>2010-08-28T17:47:44.42</time>
<name>3359</name>
</trkpt>
<trkpt lat="49.547317" lon="8.674128">
<ele>182.5</ele>
<speed>35.7</speed>
<course>349.3</course>
<desc>Speed 35.7 km/h Distance 114 km</desc>
<time>2010-08-28T17:47:46.42</time>
<name>3360</name>
</trkpt>
<trkpt lat="49.547425" lon="8.674097">
<ele>182.5</ele>
<speed>35.7</speed>
<course>24.1</course>
<desc>Speed 35.7 km/h Distance 114 km</desc>
<time>2010-08-28T17:47:48.42</time>
<name>3361</name>
</trkpt>
<trkpt lat="49.548023" lon="8.674510">
<ele>183.0</ele>
<speed>35.7</speed>
<course>339.4</course>
<desc>Speed 35.7 km/h Distance 114 km</desc>
<time>2010-08-28T17:48:04.41</time>
<name>3362</name>
</trkpt>
<trkpt lat="49.549013" lon="8.673937">
<ele>183.0</ele>
<speed>11.7</speed>
<course>338.7</course>
<desc>Speed 11.7 km/h Distance 115 km</desc>
<time>2010-08-28T17:48:06.40</time>
<name>3363</name>
</trkpt>
<trkpt lat="49.549388" lon="8.673712">
<ele>183.0</ele>
<speed>24.1</speed>
<course>345.4</course>
<desc>Speed 24.1 km/h Distance 115 km</desc>
<time>2010-08-28T17:48:10.41</time>
<name>3364</name>
</trkpt>
<trkpt lat="49.549447" lon="8.673688">
<ele>182.5</ele>
<speed>24.1</speed>
<course>346.7</course>
<desc>Speed 24.1 km/h Distance 115 km</desc>
<time>2010-08-28T17:48:11.40</time>
<name>3365</name>
</trkpt>
<trkpt lat="49.549515" lon="8.673663">
<ele>182.5</ele>
<speed>24.1</speed>
<course>354.5</course>
<desc>Speed 24.1 km/h Distance 115 km</desc>
<time>2010-08-28T17:48:12.40</time>
<name>3366</name>
</trkpt>
<trkpt lat="49.549560" lon="8.673657">
<ele>182.0</ele>
<speed>24.1</speed>
<course>356.7</course>
<desc>Speed 24.1 km/h Distance 115 km</desc>
<time>2010-08-28T17:48:13.40</time>
<name>3367</name>
</trkpt>
<trkpt lat="49.549637" lon="8.673650">
<ele>182.0</ele>
<speed>20.2</speed>
<course>1.6</course>
<desc>Speed 20.2 km/h Distance 115 km</desc>
<time>2010-08-28T17:48:14.40</time>
<name>3368</name>
</trkpt>
<trkpt lat="49.549683" lon="8.673652">
<ele>182.0</ele>
<speed>20.2</speed>
<course>4.5</course>
<desc>Speed 20.2 km/h Distance 115 km</desc>
<time>2010-08-28T17:48:15.40</time>
<name>3369</name>
</trkpt>
<trkpt lat="49.549752" lon="8.673660">
<ele>181.5</ele>
<speed>20.2</speed>
<course>18.7</course>
<desc>Speed 20.2 km/h Distance 115 km</desc>
<time>2010-08-28T17:48:16.40</time>
<name>3370</name>
</trkpt>
<trkpt lat="49.549787" lon="8.673678">
<ele>181.0</ele>
<speed>20.2</speed>
<course>39.2</course>
<desc>Speed 20.2 km/h Distance 115 km</desc>
<time>2010-08-28T17:48:17.40</time>
<name>3371</name>
</trkpt>
<trkpt lat="49.549995" lon="8.673940">
<ele>181.5</ele>
<speed>34.4</speed>
<course>39.4</course>
<desc>Speed 34.4 km/h Distance 115 km</desc>
<time>2010-08-28T17:48:20.40</time>
<name>3372</name>
</trkpt>
<trkpt lat="49.550448" lon="8.674513">
<ele>179.0</ele>
<speed>46.2</speed>
<course>52.9</course>
<desc>Speed 46.2 km/h Distance 115 km</desc>
<time>2010-08-28T17:48:24.40</time>
<name>3373</name>
</trkpt>
<trkpt lat="49.550610" lon="8.674843">
<ele>178.0</ele>
<speed>42.0</speed>
<course>45.9</course>
<desc>Speed 42.0 km/h Distance 115 km</desc>
<time>2010-08-28T17:48:26.39</time>
<name>3374</name>
</trkpt>
<trkpt lat="49.550712" lon="8.675005">
<ele>177.5</ele>
<speed>42.0</speed>
<course>27.9</course>
<desc>Speed 42.0 km/h Distance 115 km</desc>
<time>2010-08-28T17:48:28.40</time>
<name>3375</name>
</trkpt>
<trkpt lat="49.550873" lon="8.675137">
<ele>178.0</ele>
<speed>48.7</speed>
<course>20.8</course>
<desc>Speed 48.7 km/h Distance 115 km</desc>
<time>2010-08-28T17:48:30.39</time>
<name>3376</name>
</trkpt>
<trkpt lat="49.550970" lon="8.675193">
<ele>177.5</ele>
<speed>48.7</speed>
<course>20.5</course>
<desc>Speed 48.7 km/h Distance 115 km</desc>
<time>2010-08-28T17:48:31.39</time>
<name>3377</name>
</trkpt>
<trkpt lat="49.551187" lon="8.675318">
<ele>176.5</ele>
<speed>54.8</speed>
<course>10.8</course>
<desc>Speed 54.8 km/h Distance 115 km</desc>
<time>2010-08-28T17:48:33.39</time>
<name>3378</name>
</trkpt>
<trkpt lat="49.551312" lon="8.675355">
<ele>174.5</ele>
<speed>54.8</speed>
<course>9.4</course>
<desc>Speed 54.8 km/h Distance 115 km</desc>
<time>2010-08-28T17:48:34.39</time>
<name>3379</name>
</trkpt>
<trkpt lat="49.551770" lon="8.675472">
<ele>169.5</ele>
<speed>53.9</speed>
<course>9.4</course>
<desc>Speed 53.9 km/h Distance 115 km</desc>
<time>2010-08-28T17:48:37.39</time>
<name>3380</name>
</trkpt>
<trkpt lat="49.552077" lon="8.675550">
<ele>168.5</ele>
<speed>53.9</speed>
<course>26.4</course>
<desc>Speed 53.9 km/h Distance 115 km</desc>
<time>2010-08-28T17:48:41.38</time>
<name>3381</name>
</trkpt>
<trkpt lat="49.552325" lon="8.675740">
<ele>168.0</ele>
<speed>51.6</speed>
<course>20.3</course>
<desc>Speed 51.6 km/h Distance 115 km</desc>
<time>2010-08-28T17:48:44.39</time>
<name>3382</name>
</trkpt>
<trkpt lat="49.552550" lon="8.675868">
<ele>169.5</ele>
<speed>42.4</speed>
<course>1.7</course>
<desc>Speed 42.4 km/h Distance 115 km</desc>
<time>2010-08-28T17:48:46.39</time>
<name>3383</name>
</trkpt>
<trkpt lat="49.552950" lon="8.675887">
<ele>167.0</ele>
<speed>51.5</speed>
<course>345.5</course>
<desc>Speed 51.5 km/h Distance 115 km</desc>
<time>2010-08-28T17:48:49.38</time>
<name>3384</name>
</trkpt>
<trkpt lat="49.553072" lon="8.675838">
<ele>167.0</ele>
<speed>49.0</speed>
<course>344.1</course>
<desc>Speed 49.0 km/h Distance 115 km</desc>
<time>2010-08-28T17:48:50.38</time>
<name>3385</name>
</trkpt>
<trkpt lat="49.553247" lon="8.675762">
<ele>167.0</ele>
<speed>49.0</speed>
<course>345.1</course>
<desc>Speed 49.0 km/h Distance 115 km</desc>
<time>2010-08-28T17:48:52.38</time>
<name>3386</name>
</trkpt>
<trkpt lat="49.553548" lon="8.675638">
<ele>166.5</ele>
<speed>35.2</speed>
<course>347.0</course>
<desc>Speed 35.2 km/h Distance 115 km</desc>
<time>2010-08-28T17:48:55.38</time>
<name>3387</name>
</trkpt>
<trkpt lat="49.553652" lon="8.675602">
<ele>167.0</ele>
<speed>28.0</speed>
<course>342.4</course>
<desc>Speed 28.0 km/h Distance 115 km</desc>
<time>2010-08-28T17:48:56.38</time>
<name>3388</name>
</trkpt>
<trkpt lat="49.553717" lon="8.675570">
<ele>167.5</ele>
<speed>28.0</speed>
<course>331.9</course>
<desc>Speed 28.0 km/h Distance 115 km</desc>
<time>2010-08-28T17:48:57.38</time>
<name>3389</name>
</trkpt>
<trkpt lat="49.553812" lon="8.675492">
<ele>166.5</ele>
<speed>28.0</speed>
<course>347.0</course>
<desc>Speed 28.0 km/h Distance 115 km</desc>
<time>2010-08-28T17:48:59.38</time>
<name>3390</name>
</trkpt>
<trkpt lat="49.553943" lon="8.675445">
<ele>168.5</ele>
<speed>1.3</speed>
<course>334.6</course>
<desc>Speed 1.3 km/h Distance 115 km</desc>
<time>2010-08-28T17:49:03.37</time>
<name>3391</name>
</trkpt>
<trkpt lat="49.553948" lon="8.675442">
<ele>167.5</ele>
<speed>0.5</speed>
<course>296.6</course>
<desc>Speed 0.5 km/h Distance 115 km</desc>
<time>2010-08-28T17:49:04.37</time>
<name>3392</name>
</trkpt>
<trkpt lat="49.553950" lon="8.675437">
<ele>167.5</ele>
<speed>0.6</speed>
<course>287.1</course>
<desc>Speed 0.6 km/h Distance 115 km</desc>
<time>2010-08-28T17:49:05.37</time>
<name>3393</name>
</trkpt>
<trkpt lat="49.553952" lon="8.675428">
<ele>167.0</ele>
<speed>0.3</speed>
<course>303.6</course>
<desc>Speed 0.3 km/h Distance 115 km</desc>
<time>2010-08-28T17:49:06.37</time>
<name>3394</name>
</trkpt>
<trkpt lat="49.553957" lon="8.675417">
<ele>166.0</ele>
<speed>0.1</speed>
<course>270.0</course>
<desc>Speed 0.1 km/h Distance 115 km</desc>
<time>2010-08-28T17:49:07.37</time>
<name>3395</name>
</trkpt>
<trkpt lat="49.553957" lon="8.675413">
<ele>166.0</ele>
<speed>0.0</speed>
<course>308.1</course>
<desc>Speed 0.0 km/h Distance 115 km</desc>
<time>2010-08-28T17:49:08.37</time>
<name>3396</name>
</trkpt>
<trkpt lat="49.553958" lon="8.675410">
<ele>166.0</ele>
<speed>0.1</speed>
<course>322.8</course>
<desc>Speed 0.1 km/h Distance 115 km</desc>
<time>2010-08-28T17:49:09.37</time>
<name>3397</name>
</trkpt>
<trkpt lat="49.553960" lon="8.675408">
<ele>166.0</ele>
<speed>0.6</speed>
<course>305.1</course>
<desc>Speed 0.6 km/h Distance 115 km</desc>
<time>2010-08-28T17:49:10.37</time>
<name>3398</name>
</trkpt>
<trkpt lat="49.553995" lon="8.675332">
<ele>165.5</ele>
<speed>12.0</speed>
<course>347.0</course>
<desc>Speed 12.0 km/h Distance 115 km</desc>
<time>2010-08-28T17:49:12.37</time>
<name>3399</name>
</trkpt>
<trkpt lat="49.554205" lon="8.675257">
<ele>164.0</ele>
<speed>26.8</speed>
<course>332.4</course>
<desc>Speed 26.8 km/h Distance 115 km</desc>
<time>2010-08-28T17:49:15.37</time>
<name>3400</name>
</trkpt>
<trkpt lat="49.554265" lon="8.675208">
<ele>163.0</ele>
<speed>26.1</speed>
<course>331.9</course>
<desc>Speed 26.1 km/h Distance 115 km</desc>
<time>2010-08-28T17:49:16.37</time>
<name>3401</name>
</trkpt>
<trkpt lat="49.554312" lon="8.675170">
<ele>163.0</ele>
<speed>26.1</speed>
<course>324.7</course>
<desc>Speed 26.1 km/h Distance 115 km</desc>
<time>2010-08-28T17:49:17.37</time>
<name>3402</name>
</trkpt>
<trkpt lat="49.554367" lon="8.675110">
<ele>163.0</ele>
<speed>26.1</speed>
<course>333.4</course>
<desc>Speed 26.1 km/h Distance 115 km</desc>
<time>2010-08-28T17:49:19.38</time>
<name>3403</name>
</trkpt>
<trkpt lat="49.554425" lon="8.675065">
<ele>163.0</ele>
<speed>26.1</speed>
<course>295.1</course>
<desc>Speed 26.1 km/h Distance 115 km</desc>
<time>2010-08-28T17:49:22.37</time>
<name>3404</name>
</trkpt>
<trkpt lat="49.554453" lon="8.674972">
<ele>162.5</ele>
<speed>26.1</speed>
<course>266.8</course>
<desc>Speed 26.1 km/h Distance 115 km</desc>
<time>2010-08-28T17:49:25.37</time>
<name>3405</name>
</trkpt>
<trkpt lat="49.554450" lon="8.674880">
<ele>161.0</ele>
<speed>26.1</speed>
<course>299.8</course>
<desc>Speed 26.1 km/h Distance 115 km</desc>
<time>2010-08-28T17:49:27.36</time>
<name>3406</name>
</trkpt>
<trkpt lat="49.554477" lon="8.674808">
<ele>160.0</ele>
<speed>26.1</speed>
<course>300.6</course>
<desc>Speed 26.1 km/h Distance 115 km</desc>
<time>2010-08-28T17:49:30.36</time>
<name>3407</name>
</trkpt>
<trkpt lat="49.554507" lon="8.674730">
<ele>158.0</ele>
<speed>26.1</speed>
<course>313.9</course>
<desc>Speed 26.1 km/h Distance 115 km</desc>
<time>2010-08-28T17:49:32.37</time>
<name>3408</name>
</trkpt>
<trkpt lat="49.554557" lon="8.674650">
<ele>156.5</ele>
<speed>26.1</speed>
<course>306.8</course>
<desc>Speed 26.1 km/h Distance 115 km</desc>
<time>2010-08-28T17:49:35.36</time>
<name>3409</name>
</trkpt>
<trkpt lat="49.554610" lon="8.674540">
<ele>156.5</ele>
<speed>0.9</speed>
<course>296.1</course>
<desc>Speed 0.9 km/h Distance 115 km</desc>
<time>2010-08-28T17:49:39.36</time>
<name>3410</name>
</trkpt>
<trkpt lat="49.554667" lon="8.674362">
<ele>156.0</ele>
<speed>11.6</speed>
<course>321.0</course>
<desc>Speed 11.6 km/h Distance 115 km</desc>
<time>2010-08-28T17:49:42.36</time>
<name>3411</name>
</trkpt>
<trkpt lat="49.554680" lon="8.674345">
<ele>156.5</ele>
<speed>11.6</speed>
<course>330.5</course>
<desc>Speed 11.6 km/h Distance 115 km</desc>
<time>2010-08-28T17:49:43.36</time>
<name>3412</name>
</trkpt>
<trkpt lat="49.554693" lon="8.674333">
<ele>156.5</ele>
<speed>11.6</speed>
<course>282.0</course>
<desc>Speed 11.6 km/h Distance 115 km</desc>
<time>2010-08-28T17:49:44.36</time>
<name>3413</name>
</trkpt>
<trkpt lat="49.554732" lon="8.674055">
<ele>157.5</ele>
<speed>22.0</speed>
<course>288.9</course>
<desc>Speed 22.0 km/h Distance 115 km</desc>
<time>2010-08-28T17:49:47.36</time>
<name>3414</name>
</trkpt>
<trkpt lat="49.554772" lon="8.673875">
<ele>161.5</ele>
<speed>22.0</speed>
<course>288.8</course>
<desc>Speed 22.0 km/h Distance 115 km</desc>
<time>2010-08-28T17:49:49.35</time>
<name>3415</name>
</trkpt>
<trkpt lat="49.554817" lon="8.673672">
<ele>164.5</ele>
<speed>22.0</speed>
<course>286.5</course>
<desc>Speed 22.0 km/h Distance 115 km</desc>
<time>2010-08-28T17:49:51.35</time>
<name>3416</name>
</trkpt>
<trkpt lat="49.554833" lon="8.673585">
<ele>163.5</ele>
<speed>22.0</speed>
<course>265.4</course>
<desc>Speed 22.0 km/h Distance 115 km</desc>
<time>2010-08-28T17:49:52.35</time>
<name>3417</name>
</trkpt>
<trkpt lat="49.554775" lon="8.672458">
<ele>163.0</ele>
<speed>22.0</speed>
<course>280.9</course>
<desc>Speed 22.0 km/h Distance 115 km</desc>
<time>2010-08-28T17:49:58.35</time>
<name>3418</name>
</trkpt>
<trkpt lat="49.554892" lon="8.671520">
<ele>164.5</ele>
<speed>22.0</speed>
<course>271.6</course>
<desc>Speed 22.0 km/h Distance 115 km</desc>
<time>2010-08-28T17:50:03.34</time>
<name>3419</name>
</trkpt>
<trkpt lat="49.554913" lon="8.670333">
<ele>168.0</ele>
<speed>37.6</speed>
<course>278.6</course>
<desc>Speed 37.6 km/h Distance 116 km</desc>
<time>2010-08-28T17:50:08.35</time>
<name>3420</name>
</trkpt>
<trkpt lat="49.554933" lon="8.670128">
<ele>167.5</ele>
<speed>25.0</speed>
<course>292.9</course>
<desc>Speed 25.0 km/h Distance 116 km</desc>
<time>2010-08-28T17:50:10.34</time>
<name>3421</name>
</trkpt>
<trkpt lat="49.554962" lon="8.670025">
<ele>166.5</ele>
<speed>27.1</speed>
<course>276.6</course>
<desc>Speed 27.1 km/h Distance 116 km</desc>
<time>2010-08-28T17:50:11.35</time>
<name>3422</name>
</trkpt>
<trkpt lat="49.554968" lon="8.669937">
<ele>165.5</ele>
<speed>20.7</speed>
<course>302.5</course>
<desc>Speed 20.7 km/h Distance 116 km</desc>
<time>2010-08-28T17:50:12.34</time>
<name>3423</name>
</trkpt>
<trkpt lat="49.554988" lon="8.669888">
<ele>164.5</ele>
<speed>16.0</speed>
<course>340.4</course>
<desc>Speed 16.0 km/h Distance 116 km</desc>
<time>2010-08-28T17:50:13.34</time>
<name>3424</name>
</trkpt>
<trkpt lat="49.555128" lon="8.669812">
<ele>165.0</ele>
<speed>27.8</speed>
<course>341.6</course>
<desc>Speed 27.8 km/h Distance 116 km</desc>
<time>2010-08-28T17:50:15.34</time>
<name>3425</name>
</trkpt>
<trkpt lat="49.555203" lon="8.669773">
<ele>166.5</ele>
<speed>28.7</speed>
<course>1.8</course>
<desc>Speed 28.7 km/h Distance 116 km</desc>
<time>2010-08-28T17:50:16.34</time>
<name>3426</name>
</trkpt>
<trkpt lat="49.555273" lon="8.669777">
<ele>167.0</ele>
<speed>25.7</speed>
<course>9.8</course>
<desc>Speed 25.7 km/h Distance 116 km</desc>
<time>2010-08-28T17:50:17.34</time>
<name>3427</name>
</trkpt>
<trkpt lat="49.555348" lon="8.669797">
<ele>167.5</ele>
<speed>26.6</speed>
<course>3.5</course>
<desc>Speed 26.6 km/h Distance 116 km</desc>
<time>2010-08-28T17:50:18.34</time>
<name>3428</name>
</trkpt>
<trkpt lat="49.555420" lon="8.669803">
<ele>167.0</ele>
<speed>27.7</speed>
<course>1.9</course>
<desc>Speed 27.7 km/h Distance 116 km</desc>
<time>2010-08-28T17:50:19.35</time>
<name>3429</name>
</trkpt>
<trkpt lat="49.555487" lon="8.669807">
<ele>167.0</ele>
<speed>26.9</speed>
<course>0.5</course>
<desc>Speed 26.9 km/h Distance 116 km</desc>
<time>2010-08-28T17:50:20.86</time>
<name>3430</name>
</trkpt>
<trkpt lat="49.555618" lon="8.669808">
<ele>167.0</ele>
<speed>29.8</speed>
<course>1.5</course>
<desc>Speed 29.8 km/h Distance 116 km</desc>
<time>2010-08-28T17:50:22.32</time>
<name>3431</name>
</trkpt>
<trkpt lat="49.555703" lon="8.669812">
<ele>167.0</ele>
<speed>29.8</speed>
<course>350.8</course>
<desc>Speed 29.8 km/h Distance 116 km</desc>
<time>2010-08-28T17:50:24.31</time>
<name>3432</name>
</trkpt>
<trkpt lat="49.555790" lon="8.669790">
<ele>162.5</ele>
<speed>11.9</speed>
<course>44.3</course>
<desc>Speed 11.9 km/h Distance 116 km</desc>
<time>2010-08-28T17:50:27.31</time>
<name>3433</name>
</trkpt>
<trkpt lat="49.555800" lon="8.669805">
<ele>162.0</ele>
<speed>3.9</speed>
<course>132.9</course>
<desc>Speed 3.9 km/h Distance 116 km</desc>
<time>2010-08-28T17:50:29.31</time>
<name>3434</name>
</trkpt>
<trkpt lat="49.555795" lon="8.669813">
<ele>162.0</ele>
<speed>3.9</speed>
<course>347.4</course>
<desc>Speed 3.9 km/h Distance 116 km</desc>
<time>2010-08-28T17:50:30.31</time>
<name>3435</name>
</trkpt>
<trkpt lat="49.555798" lon="8.669812">
<ele>162.0</ele>
<speed>2.1</speed>
<course>29.8</course>
<desc>Speed 2.1 km/h Distance 116 km</desc>
<time>2010-08-28T17:50:31.31</time>
<name>3436</name>
</trkpt>
<trkpt lat="49.555827" lon="8.669837">
<ele>158.5</ele>
<speed>1.8</speed>
<course>9.2</course>
<desc>Speed 1.8 km/h Distance 116 km</desc>
<time>2010-08-28T17:50:33.31</time>
<name>3437</name>
</trkpt>
<trkpt lat="49.555847" lon="8.669842">
<ele>158.5</ele>
<speed>7.1</speed>
<course>343.6</course>
<desc>Speed 7.1 km/h Distance 116 km</desc>
<time>2010-08-28T17:50:34.31</time>
<name>3438</name>
</trkpt>
<trkpt lat="49.555865" lon="8.669833">
<ele>158.0</ele>
<speed>9.1</speed>
<course>359.4</course>
<desc>Speed 9.1 km/h Distance 116 km</desc>
<time>2010-08-28T17:50:35.31</time>
<name>3439</name>
</trkpt>
<trkpt lat="49.555948" lon="8.669832">
<ele>158.0</ele>
<speed>17.0</speed>
<course>356.8</course>
<desc>Speed 17.0 km/h Distance 116 km</desc>
<time>2010-08-28T17:50:37.31</time>
<name>3440</name>
</trkpt>
<trkpt lat="49.555987" lon="8.669828">
<ele>158.0</ele>
<speed>17.0</speed>
<course>355.8</course>
<desc>Speed 17.0 km/h Distance 116 km</desc>
<time>2010-08-28T17:50:38.31</time>
<name>3441</name>
</trkpt>
<trkpt lat="49.556018" lon="8.669825">
<ele>158.0</ele>
<speed>17.0</speed>
<course>354.2</course>
<desc>Speed 17.0 km/h Distance 116 km</desc>
<time>2010-08-28T17:50:39.30</time>
<name>3442</name>
</trkpt>
<trkpt lat="49.556050" lon="8.669820">
<ele>158.0</ele>
<speed>17.0</speed>
<course>347.8</course>
<desc>Speed 17.0 km/h Distance 116 km</desc>
<time>2010-08-28T17:50:40.31</time>
<name>3443</name>
</trkpt>
<trkpt lat="49.556080" lon="8.669810">
<ele>157.5</ele>
<speed>17.0</speed>
<course>352.2</course>
<desc>Speed 17.0 km/h Distance 116 km</desc>
<time>2010-08-28T17:50:41.30</time>
<name>3444</name>
</trkpt>
<trkpt lat="49.556120" lon="8.669802">
<ele>157.0</ele>
<speed>17.0</speed>
<course>8.0</course>
<desc>Speed 17.0 km/h Distance 116 km</desc>
<time>2010-08-28T17:50:43.30</time>
<name>3445</name>
</trkpt>
<trkpt lat="49.556520" lon="8.669888">
<ele>154.0</ele>
<speed>39.7</speed>
<course>359.1</course>
<desc>Speed 39.7 km/h Distance 116 km</desc>
<time>2010-08-28T17:50:47.30</time>
<name>3446</name>
</trkpt>
<trkpt lat="49.556783" lon="8.669882">
<ele>153.0</ele>
<speed>40.6</speed>
<course>358.8</course>
<desc>Speed 40.6 km/h Distance 116 km</desc>
<time>2010-08-28T17:50:49.30</time>
<name>3447</name>
</trkpt>
<trkpt lat="49.557040" lon="8.669873">
<ele>153.0</ele>
<speed>45.0</speed>
<course>357.0</course>
<desc>Speed 45.0 km/h Distance 116 km</desc>
<time>2010-08-28T17:50:51.29</time>
<name>3448</name>
</trkpt>
<trkpt lat="49.557142" lon="8.669865">
<ele>152.5</ele>
<speed>45.0</speed>
<course>0.0</course>
<desc>Speed 45.0 km/h Distance 116 km</desc>
<time>2010-08-28T17:50:52.30</time>
<name>3449</name>
</trkpt>
<trkpt lat="49.557348" lon="8.669865">
<ele>154.0</ele>
<speed>45.0</speed>
<course>0.2</course>
<desc>Speed 45.0 km/h Distance 116 km</desc>
<time>2010-08-28T17:50:55.29</time>
<name>3450</name>
</trkpt>
<trkpt lat="49.557537" lon="8.669865">
<ele>150.5</ele>
<speed>45.0</speed>
<course>1.3</course>
<desc>Speed 45.0 km/h Distance 116 km</desc>
<time>2010-08-28T17:50:59.29</time>
<name>3451</name>
</trkpt>
<trkpt lat="49.558005" lon="8.669882">
<ele>155.0</ele>
<speed>25.5</speed>
<course>356.7</course>
<desc>Speed 25.5 km/h Distance 116 km</desc>
<time>2010-08-28T17:51:02.29</time>
<name>3452</name>
</trkpt>
<trkpt lat="49.558157" lon="8.669868">
<ele>155.5</ele>
<speed>23.3</speed>
<course>347.3</course>
<desc>Speed 23.3 km/h Distance 116 km</desc>
<time>2010-08-28T17:51:04.29</time>
<name>3453</name>
</trkpt>
<trkpt lat="49.558228" lon="8.669843">
<ele>156.0</ele>
<speed>24.9</speed>
<course>345.1</course>
<desc>Speed 24.9 km/h Distance 116 km</desc>
<time>2010-08-28T17:51:05.29</time>
<name>3454</name>
</trkpt>
<trkpt lat="49.558293" lon="8.669817">
<ele>156.0</ele>
<speed>24.9</speed>
<course>342.5</course>
<desc>Speed 24.9 km/h Distance 116 km</desc>
<time>2010-08-28T17:51:06.28</time>
<name>3455</name>
</trkpt>
<trkpt lat="49.558358" lon="8.669785">
<ele>156.5</ele>
<speed>26.0</speed>
<course>337.1</course>
<desc>Speed 26.0 km/h Distance 116 km</desc>
<time>2010-08-28T17:51:07.29</time>
<name>3456</name>
</trkpt>
<trkpt lat="49.558425" lon="8.669742">
<ele>156.0</ele>
<speed>25.8</speed>
<course>328.9</course>
<desc>Speed 25.8 km/h Distance 116 km</desc>
<time>2010-08-28T17:51:08.28</time>
<name>3457</name>
</trkpt>
<trkpt lat="49.558495" lon="8.669677">
<ele>156.0</ele>
<speed>29.1</speed>
<course>337.1</course>
<desc>Speed 29.1 km/h Distance 116 km</desc>
<time>2010-08-28T17:51:09.28</time>
<name>3458</name>
</trkpt>
<trkpt lat="49.558572" lon="8.669627">
<ele>156.5</ele>
<speed>29.3</speed>
<course>327.7</course>
<desc>Speed 29.3 km/h Distance 116 km</desc>
<time>2010-08-28T17:51:10.28</time>
<name>3459</name>
</trkpt>
<trkpt lat="49.558642" lon="8.669558">
<ele>156.5</ele>
<speed>31.8</speed>
<course>342.3</course>
<desc>Speed 31.8 km/h Distance 116 km</desc>
<time>2010-08-28T17:51:11.28</time>
<name>3460</name>
</trkpt>
<trkpt lat="49.558730" lon="8.669515">
<ele>156.5</ele>
<speed>32.1</speed>
<course>334.2</course>
<desc>Speed 32.1 km/h Distance 116 km</desc>
<time>2010-08-28T17:51:12.28</time>
<name>3461</name>
</trkpt>
<trkpt lat="49.558802" lon="8.669462">
<ele>156.5</ele>
<speed>32.3</speed>
<course>337.4</course>
<desc>Speed 32.3 km/h Distance 116 km</desc>
<time>2010-08-28T17:51:13.28</time>
<name>3462</name>
</trkpt>
<trkpt lat="49.558988" lon="8.669342">
<ele>157.0</ele>
<speed>42.7</speed>
<course>337.8</course>
<desc>Speed 42.7 km/h Distance 116 km</desc>
<time>2010-08-28T17:51:15.28</time>
<name>3463</name>
</trkpt>
<trkpt lat="49.559132" lon="8.669252">
<ele>157.5</ele>
<speed>42.7</speed>
<course>334.1</course>
<desc>Speed 42.7 km/h Distance 116 km</desc>
<time>2010-08-28T17:51:17.28</time>
<name>3464</name>
</trkpt>
<trkpt lat="49.559312" lon="8.669117">
<ele>158.0</ele>
<speed>42.7</speed>
<course>315.1</course>
<desc>Speed 42.7 km/h Distance 116 km</desc>
<time>2010-08-28T17:51:21.28</time>
<name>3465</name>
</trkpt>
<trkpt lat="49.559448" lon="8.668907">
<ele>159.0</ele>
<speed>42.7</speed>
<course>344.5</course>
<desc>Speed 42.7 km/h Distance 116 km</desc>
<time>2010-08-28T17:51:24.28</time>
<name>3466</name>
</trkpt>
<trkpt lat="49.559663" lon="8.668815">
<ele>158.5</ele>
<speed>42.7</speed>
<course>297.4</course>
<desc>Speed 42.7 km/h Distance 116 km</desc>
<time>2010-08-28T17:51:28.27</time>
<name>3467</name>
</trkpt>
<trkpt lat="49.559740" lon="8.668587">
<ele>158.5</ele>
<speed>42.7</speed>
<course>343.8</course>
<desc>Speed 42.7 km/h Distance 116 km</desc>
<time>2010-08-28T17:51:31.27</time>
<name>3468</name>
</trkpt>
<trkpt lat="49.559997" lon="8.668472">
<ele>157.5</ele>
<speed>42.7</speed>
<course>327.6</course>
<desc>Speed 42.7 km/h Distance 116 km</desc>
<time>2010-08-28T17:51:33.27</time>
<name>3469</name>
</trkpt>
<trkpt lat="49.560398" lon="8.668078">
<ele>157.5</ele>
<speed>43.5</speed>
<course>307.6</course>
<desc>Speed 43.5 km/h Distance 116 km</desc>
<time>2010-08-28T17:51:36.27</time>
<name>3470</name>
</trkpt>
<trkpt lat="49.560488" lon="8.667898">
<ele>157.5</ele>
<speed>43.5</speed>
<course>308.8</course>
<desc>Speed 43.5 km/h Distance 116 km</desc>
<time>2010-08-28T17:51:38.26</time>
<name>3471</name>
</trkpt>
<trkpt lat="49.560635" lon="8.667617">
<ele>157.5</ele>
<speed>43.5</speed>
<course>317.3</course>
<desc>Speed 43.5 km/h Distance 116 km</desc>
<time>2010-08-28T17:51:42.26</time>
<name>3472</name>
</trkpt>
<trkpt lat="49.560832" lon="8.667337">
<ele>158.5</ele>
<speed>43.5</speed>
<course>325.5</course>
<desc>Speed 43.5 km/h Distance 116 km</desc>
<time>2010-08-28T17:51:44.26</time>
<name>3473</name>
</trkpt>
<trkpt lat="49.561872" lon="8.666233">
<ele>166.0</ele>
<speed>56.6</speed>
<course>329.1</course>
<desc>Speed 56.6 km/h Distance 116 km</desc>
<time>2010-08-28T17:51:49.26</time>
<name>3474</name>
</trkpt>
<trkpt lat="49.562155" lon="8.665972">
<ele>166.0</ele>
<speed>49.4</speed>
<course>331.7</course>
<desc>Speed 49.4 km/h Distance 116 km</desc>
<time>2010-08-28T17:51:51.26</time>
<name>3475</name>
</trkpt>
<trkpt lat="49.562992" lon="8.665277">
<ele>167.0</ele>
<speed>53.3</speed>
<course>335.5</course>
<desc>Speed 53.3 km/h Distance 117 km</desc>
<time>2010-08-28T17:51:56.26</time>
<name>3476</name>
</trkpt>
<trkpt lat="49.563283" lon="8.665072">
<ele>166.0</ele>
<speed>53.0</speed>
<course>335.8</course>
<desc>Speed 53.0 km/h Distance 117 km</desc>
<time>2010-08-28T17:51:58.26</time>
<name>3477</name>
</trkpt>
<trkpt lat="49.563533" lon="8.664898">
<ele>166.5</ele>
<speed>50.6</speed>
<course>327.0</course>
<desc>Speed 50.6 km/h Distance 117 km</desc>
<time>2010-08-28T17:52:00.26</time>
<name>3478</name>
</trkpt>
<trkpt lat="49.563653" lon="8.664778">
<ele>165.5</ele>
<speed>50.2</speed>
<course>334.3</course>
<desc>Speed 50.2 km/h Distance 117 km</desc>
<time>2010-08-28T17:52:01.26</time>
<name>3479</name>
</trkpt>
<trkpt lat="49.563777" lon="8.664687">
<ele>165.5</ele>
<speed>50.0</speed>
<course>342.3</course>
<desc>Speed 50.0 km/h Distance 117 km</desc>
<time>2010-08-28T17:52:02.26</time>
<name>3480</name>
</trkpt>
<trkpt lat="49.564228" lon="8.664465">
<ele>165.5</ele>
<speed>49.0</speed>
<course>345.5</course>
<desc>Speed 49.0 km/h Distance 117 km</desc>
<time>2010-08-28T17:52:05.26</time>
<name>3481</name>
</trkpt>
<trkpt lat="49.564362" lon="8.664412">
<ele>166.0</ele>
<speed>50.0</speed>
<course>344.9</course>
<desc>Speed 50.0 km/h Distance 117 km</desc>
<time>2010-08-28T17:52:06.26</time>
<name>3482</name>
</trkpt>
<trkpt lat="49.564482" lon="8.664362">
<ele>166.0</ele>
<speed>47.7</speed>
<course>350.2</course>
<desc>Speed 47.7 km/h Distance 117 km</desc>
<time>2010-08-28T17:52:07.26</time>
<name>3483</name>
</trkpt>
<trkpt lat="49.564700" lon="8.664303">
<ele>166.0</ele>
<speed>47.0</speed>
<course>356.0</course>
<desc>Speed 47.0 km/h Distance 117 km</desc>
<time>2010-08-28T17:52:09.26</time>
<name>3484</name>
</trkpt>
<trkpt lat="49.564825" lon="8.664290">
<ele>166.0</ele>
<speed>46.7</speed>
<course>349.2</course>
<desc>Speed 46.7 km/h Distance 117 km</desc>
<time>2010-08-28T17:52:10.25</time>
<name>3485</name>
</trkpt>
<trkpt lat="49.565118" lon="8.664203">
<ele>166.5</ele>
<speed>50.1</speed>
<course>347.8</course>
<desc>Speed 50.1 km/h Distance 117 km</desc>
<time>2010-08-28T17:52:12.25</time>
<name>3486</name>
</trkpt>
<trkpt lat="49.565233" lon="8.664165">
<ele>166.0</ele>
<speed>44.8</speed>
<course>343.3</course>
<desc>Speed 44.8 km/h Distance 117 km</desc>
<time>2010-08-28T17:52:13.25</time>
<name>3487</name>
</trkpt>
<trkpt lat="49.565348" lon="8.664112">
<ele>164.5</ele>
<speed>44.7</speed>
<course>343.5</course>
<desc>Speed 44.7 km/h Distance 117 km</desc>
<time>2010-08-28T17:52:14.25</time>
<name>3488</name>
</trkpt>
<trkpt lat="49.565447" lon="8.664067">
<ele>163.5</ele>
<speed>44.7</speed>
<course>349.0</course>
<desc>Speed 44.7 km/h Distance 117 km</desc>
<time>2010-08-28T17:52:15.25</time>
<name>3489</name>
</trkpt>
<trkpt lat="49.565563" lon="8.664032">
<ele>163.0</ele>
<speed>49.0</speed>
<course>349.6</course>
<desc>Speed 49.0 km/h Distance 117 km</desc>
<time>2010-08-28T17:52:16.25</time>
<name>3490</name>
</trkpt>
<trkpt lat="49.565693" lon="8.663995">
<ele>161.5</ele>
<speed>49.0</speed>
<course>350.2</course>
<desc>Speed 49.0 km/h Distance 117 km</desc>
<time>2010-08-28T17:52:17.24</time>
<name>3491</name>
</trkpt>
<trkpt lat="49.565943" lon="8.663928">
<ele>160.0</ele>
<speed>55.7</speed>
<course>354.5</course>
<desc>Speed 55.7 km/h Distance 117 km</desc>
<time>2010-08-28T17:52:19.26</time>
<name>3492</name>
</trkpt>
<trkpt lat="49.566090" lon="8.663907">
<ele>158.0</ele>
<speed>55.7</speed>
<course>358.1</course>
<desc>Speed 55.7 km/h Distance 117 km</desc>
<time>2010-08-28T17:52:20.24</time>
<name>3493</name>
</trkpt>
<trkpt lat="49.566477" lon="8.663887">
<ele>158.0</ele>
<speed>52.3</speed>
<course>348.9</course>
<desc>Speed 52.3 km/h Distance 117 km</desc>
<time>2010-08-28T17:52:23.25</time>
<name>3494</name>
</trkpt>
<trkpt lat="49.566598" lon="8.663850">
<ele>156.0</ele>
<speed>49.0</speed>
<course>354.9</course>
<desc>Speed 49.0 km/h Distance 117 km</desc>
<time>2010-08-28T17:52:24.25</time>
<name>3495</name>
</trkpt>
<trkpt lat="49.566890" lon="8.663810">
<ele>151.5</ele>
<speed>44.9</speed>
<course>1.2</course>
<desc>Speed 44.9 km/h Distance 117 km</desc>
<time>2010-08-28T17:52:26.25</time>
<name>3496</name>
</trkpt>
<trkpt lat="49.567153" lon="8.663818">
<ele>149.5</ele>
<speed>45.9</speed>
<course>354.4</course>
<desc>Speed 45.9 km/h Distance 117 km</desc>
<time>2010-08-28T17:52:28.24</time>
<name>3497</name>
</trkpt>
<trkpt lat="49.567275" lon="8.663800">
<ele>149.0</ele>
<speed>45.9</speed>
<course>355.1</course>
<desc>Speed 45.9 km/h Distance 117 km</desc>
<time>2010-08-28T17:52:29.24</time>
<name>3498</name>
</trkpt>
<trkpt lat="49.567515" lon="8.663768">
<ele>150.0</ele>
<speed>51.2</speed>
<course>351.0</course>
<desc>Speed 51.2 km/h Distance 117 km</desc>
<time>2010-08-28T17:52:31.24</time>
<name>3499</name>
</trkpt>
<trkpt lat="49.567645" lon="8.663737">
<ele>149.0</ele>
<speed>52.6</speed>
<course>353.3</course>
<desc>Speed 52.6 km/h Distance 117 km</desc>
<time>2010-08-28T17:52:32.24</time>
<name>3500</name>
</trkpt>
<trkpt lat="49.567765" lon="8.663715">
<ele>150.5</ele>
<speed>52.6</speed>
<course>352.9</course>
<desc>Speed 52.6 km/h Distance 117 km</desc>
<time>2010-08-28T17:52:33.24</time>
<name>3501</name>
</trkpt>
<trkpt lat="49.567878" lon="8.663693">
<ele>151.5</ele>
<speed>52.6</speed>
<course>354.6</course>
<desc>Speed 52.6 km/h Distance 117 km</desc>
<time>2010-08-28T17:52:34.24</time>
<name>3502</name>
</trkpt>
<trkpt lat="49.568202" lon="8.663647">
<ele>153.5</ele>
<speed>57.6</speed>
<course>354.8</course>
<desc>Speed 57.6 km/h Distance 117 km</desc>
<time>2010-08-28T17:52:37.24</time>
<name>3503</name>
</trkpt>
<trkpt lat="49.568628" lon="8.663587">
<ele>154.0</ele>
<speed>24.7</speed>
<course>355.8</course>
<desc>Speed 24.7 km/h Distance 117 km</desc>
<time>2010-08-28T17:52:42.23</time>
<name>3504</name>
</trkpt>
<trkpt lat="49.568702" lon="8.663578">
<ele>153.5</ele>
<speed>27.9</speed>
<course>0.9</course>
<desc>Speed 27.9 km/h Distance 117 km</desc>
<time>2010-08-28T17:52:43.23</time>
<name>3505</name>
</trkpt>
<trkpt lat="49.568910" lon="8.663583">
<ele>154.0</ele>
<speed>37.5</speed>
<course>5.1</course>
<desc>Speed 37.5 km/h Distance 117 km</desc>
<time>2010-08-28T17:52:45.24</time>
<name>3506</name>
</trkpt>
<trkpt lat="49.569055" lon="8.663603">
<ele>153.5</ele>
<speed>37.5</speed>
<course>358.0</course>
<desc>Speed 37.5 km/h Distance 117 km</desc>
<time>2010-08-28T17:52:47.23</time>
<name>3507</name>
</trkpt>
<trkpt lat="49.569307" lon="8.663590">
<ele>154.0</ele>
<speed>47.2</speed>
<course>351.5</course>
<desc>Speed 47.2 km/h Distance 117 km</desc>
<time>2010-08-28T17:52:49.23</time>
<name>3508</name>
</trkpt>
<trkpt lat="49.569473" lon="8.663552">
<ele>152.5</ele>
<speed>47.2</speed>
<course>349.8</course>
<desc>Speed 47.2 km/h Distance 117 km</desc>
<time>2010-08-28T17:52:51.22</time>
<name>3509</name>
</trkpt>
<trkpt lat="49.569678" lon="8.663495">
<ele>149.5</ele>
<speed>47.2</speed>
<course>358.3</course>
<desc>Speed 47.2 km/h Distance 117 km</desc>
<time>2010-08-28T17:52:54.21</time>
<name>3510</name>
</trkpt>
<trkpt lat="49.570128" lon="8.663475">
<ele>148.0</ele>
<speed>9.9</speed>
<course>353.3</course>
<desc>Speed 9.9 km/h Distance 117 km</desc>
<time>2010-08-28T17:52:59.22</time>
<name>3511</name>
</trkpt>
<trkpt lat="49.570165" lon="8.663468">
<ele>148.0</ele>
<speed>9.9</speed>
<course>342.1</course>
<desc>Speed 9.9 km/h Distance 117 km</desc>
<time>2010-08-28T17:53:00.22</time>
<name>3512</name>
</trkpt>
<trkpt lat="49.570188" lon="8.663457">
<ele>148.0</ele>
<speed>9.9</speed>
<course>15.3</course>
<desc>Speed 9.9 km/h Distance 117 km</desc>
<time>2010-08-28T17:53:01.21</time>
<name>3513</name>
</trkpt>
<trkpt lat="49.570220" lon="8.663470">
<ele>148.5</ele>
<speed>7.5</speed>
<course>349.6</course>
<desc>Speed 7.5 km/h Distance 117 km</desc>
<time>2010-08-28T17:53:02.21</time>
<name>3514</name>
</trkpt>
<trkpt lat="49.570232" lon="8.663467">
<ele>149.0</ele>
<speed>1.8</speed>
<course>341.9</course>
<desc>Speed 1.8 km/h Distance 117 km</desc>
<time>2010-08-28T17:53:03.22</time>
<name>3515</name>
</trkpt>
<trkpt lat="49.570245" lon="8.663460">
<ele>149.0</ele>
<speed>1.8</speed>
<course>14.9</course>
<desc>Speed 1.8 km/h Distance 117 km</desc>
<time>2010-08-28T17:53:04.21</time>
<name>3516</name>
</trkpt>
<trkpt lat="49.570262" lon="8.663467">
<ele>150.0</ele>
<speed>2.9</speed>
<course>90.0</course>
<desc>Speed 2.9 km/h Distance 117 km</desc>
<time>2010-08-28T17:53:05.22</time>
<name>3517</name>
</trkpt>
<trkpt lat="49.570262" lon="8.663473">
<ele>150.0</ele>
<speed>2.9</speed>
<course>90.0</course>
<desc>Speed 2.9 km/h Distance 117 km</desc>
<time>2010-08-28T17:53:06.21</time>
<name>3518</name>
</trkpt>
<trkpt lat="49.570262" lon="8.663480">
<ele>150.0</ele>
<speed>2.9</speed>
<course>33.7</course>
<desc>Speed 2.9 km/h Distance 117 km</desc>
<time>2010-08-28T17:53:07.22</time>
<name>3519</name>
</trkpt>
<trkpt lat="49.570265" lon="8.663483">
<ele>150.5</ele>
<speed>2.9</speed>
<course>354.4</course>
<desc>Speed 2.9 km/h Distance 117 km</desc>
<time>2010-08-28T17:53:08.21</time>
<name>3520</name>
</trkpt>
<trkpt lat="49.570288" lon="8.663480">
<ele>150.0</ele>
<speed>4.2</speed>
<course>48.7</course>
<desc>Speed 4.2 km/h Distance 117 km</desc>
<time>2010-08-28T17:53:09.21</time>
<name>3521</name>
</trkpt>
<trkpt lat="49.570295" lon="8.663492">
<ele>149.5</ele>
<speed>4.2</speed>
<course>21.5</course>
<desc>Speed 4.2 km/h Distance 117 km</desc>
<time>2010-08-28T17:53:10.21</time>
<name>3522</name>
</trkpt>
<trkpt lat="49.570303" lon="8.663497">
<ele>150.0</ele>
<speed>4.2</speed>
<course>305.0</course>
<desc>Speed 4.2 km/h Distance 117 km</desc>
<time>2010-08-28T17:53:11.21</time>
<name>3523</name>
</trkpt>
<trkpt lat="49.570312" lon="8.663478">
<ele>149.5</ele>
<speed>2.6</speed>
<course>309.3</course>
<desc>Speed 2.6 km/h Distance 117 km</desc>
<time>2010-08-28T17:53:12.21</time>
<name>3524</name>
</trkpt>
<trkpt lat="49.570327" lon="8.663450">
<ele>149.0</ele>
<speed>5.0</speed>
<course>349.8</course>
<desc>Speed 5.0 km/h Distance 117 km</desc>
<time>2010-08-28T17:53:13.22</time>
<name>3525</name>
</trkpt>
<trkpt lat="49.570345" lon="8.663445">
<ele>149.0</ele>
<speed>5.0</speed>
<course>19.0</course>
<desc>Speed 5.0 km/h Distance 117 km</desc>
<time>2010-08-28T17:53:14.21</time>
<name>3526</name>
</trkpt>
<trkpt lat="49.570373" lon="8.663460">
<ele>149.0</ele>
<speed>5.0</speed>
<course>351.7</course>
<desc>Speed 5.0 km/h Distance 117 km</desc>
<time>2010-08-28T17:53:15.21</time>
<name>3527</name>
</trkpt>
<trkpt lat="49.571215" lon="8.663272">
<ele>154.0</ele>
<speed>69.0</speed>
<course>335.7</course>
<desc>Speed 69.0 km/h Distance 118 km</desc>
<time>2010-08-28T17:53:21.21</time>
<name>3528</name>
</trkpt>
<trkpt lat="49.571693" lon="8.662938">
<ele>152.5</ele>
<speed>41.5</speed>
<course>328.4</course>
<desc>Speed 41.5 km/h Distance 118 km</desc>
<time>2010-08-28T17:53:25.21</time>
<name>3529</name>
</trkpt>
<trkpt lat="49.571790" lon="8.662847">
<ele>152.0</ele>
<speed>40.2</speed>
<course>339.3</course>
<desc>Speed 40.2 km/h Distance 118 km</desc>
<time>2010-08-28T17:53:26.21</time>
<name>3530</name>
</trkpt>
<trkpt lat="49.571990" lon="8.662730">
<ele>150.5</ele>
<speed>47.8</speed>
<course>342.7</course>
<desc>Speed 47.8 km/h Distance 118 km</desc>
<time>2010-08-28T17:53:28.21</time>
<name>3531</name>
</trkpt>
<trkpt lat="49.572153" lon="8.662652">
<ele>150.0</ele>
<speed>47.8</speed>
<course>8.5</course>
<desc>Speed 47.8 km/h Distance 118 km</desc>
<time>2010-08-28T17:53:30.20</time>
<name>3532</name>
</trkpt>
<trkpt lat="49.572357" lon="8.662698">
<ele>152.5</ele>
<speed>43.1</speed>
<course>9.3</course>
<desc>Speed 43.1 km/h Distance 118 km</desc>
<time>2010-08-28T17:53:33.20</time>
<name>3533</name>
</trkpt>
<trkpt lat="49.572602" lon="8.662760">
<ele>152.5</ele>
<speed>44.6</speed>
<course>9.9</course>
<desc>Speed 44.6 km/h Distance 118 km</desc>
<time>2010-08-28T17:53:35.20</time>
<name>3534</name>
</trkpt>
<trkpt lat="49.572695" lon="8.662785">
<ele>152.0</ele>
<speed>44.6</speed>
<course>356.5</course>
<desc>Speed 44.6 km/h Distance 118 km</desc>
<time>2010-08-28T17:53:36.19</time>
<name>3535</name>
</trkpt>
<trkpt lat="49.573397" lon="8.662718">
<ele>152.0</ele>
<speed>72.9</speed>
<course>354.0</course>
<desc>Speed 72.9 km/h Distance 118 km</desc>
<time>2010-08-28T17:53:40.19</time>
<name>3536</name>
</trkpt>
<trkpt lat="49.574073" lon="8.662608">
<ele>153.0</ele>
<speed>75.8</speed>
<course>353.7</course>
<desc>Speed 75.8 km/h Distance 118 km</desc>
<time>2010-08-28T17:53:43.19</time>
<name>3537</name>
</trkpt>
<trkpt lat="49.574268" lon="8.662575">
<ele>153.0</ele>
<speed>71.7</speed>
<course>354.3</course>
<desc>Speed 71.7 km/h Distance 118 km</desc>
<time>2010-08-28T17:53:44.19</time>
<name>3538</name>
</trkpt>
<trkpt lat="49.574452" lon="8.662547">
<ele>153.5</ele>
<speed>65.5</speed>
<course>355.5</course>
<desc>Speed 65.5 km/h Distance 118 km</desc>
<time>2010-08-28T17:53:45.19</time>
<name>3539</name>
</trkpt>
<trkpt lat="49.574795" lon="8.662505">
<ele>156.5</ele>
<speed>57.8</speed>
<course>348.7</course>
<desc>Speed 57.8 km/h Distance 118 km</desc>
<time>2010-08-28T17:53:47.19</time>
<name>3540</name>
</trkpt>
<trkpt lat="49.574942" lon="8.662460">
<ele>156.5</ele>
<speed>58.4</speed>
<course>346.0</course>
<desc>Speed 58.4 km/h Distance 118 km</desc>
<time>2010-08-28T17:53:48.18</time>
<name>3541</name>
</trkpt>
<trkpt lat="49.575085" lon="8.662405">
<ele>156.5</ele>
<speed>56.8</speed>
<course>345.0</course>
<desc>Speed 56.8 km/h Distance 118 km</desc>
<time>2010-08-28T17:53:49.18</time>
<name>3542</name>
</trkpt>
<trkpt lat="49.575222" lon="8.662348">
<ele>156.5</ele>
<speed>54.5</speed>
<course>336.6</course>
<desc>Speed 54.5 km/h Distance 118 km</desc>
<time>2010-08-28T17:53:50.18</time>
<name>3543</name>
</trkpt>
<trkpt lat="49.575538" lon="8.662137">
<ele>157.0</ele>
<speed>30.1</speed>
<course>335.5</course>
<desc>Speed 30.1 km/h Distance 118 km</desc>
<time>2010-08-28T17:53:54.19</time>
<name>3544</name>
</trkpt>
<trkpt lat="49.575628" lon="8.662073">
<ele>157.0</ele>
<speed>30.1</speed>
<course>338.6</course>
<desc>Speed 30.1 km/h Distance 118 km</desc>
<time>2010-08-28T17:53:57.18</time>
<name>3545</name>
</trkpt>
<trkpt lat="49.575683" lon="8.662040">
<ele>156.5</ele>
<speed>30.1</speed>
<course>69.6</course>
<desc>Speed 30.1 km/h Distance 118 km</desc>
<time>2010-08-28T17:54:01.18</time>
<name>3546</name>
</trkpt>
<trkpt lat="49.575695" lon="8.662088">
<ele>155.5</ele>
<speed>30.1</speed>
<course>82.9</course>
<desc>Speed 30.1 km/h Distance 118 km</desc>
<time>2010-08-28T17:54:05.17</time>
<name>3547</name>
</trkpt>
<trkpt lat="49.575700" lon="8.662150">
<ele>154.0</ele>
<speed>30.1</speed>
<course>3.2</course>
<desc>Speed 30.1 km/h Distance 118 km</desc>
<time>2010-08-28T17:54:09.17</time>
<name>3548</name>
</trkpt>
<trkpt lat="49.575758" lon="8.662155">
<ele>154.0</ele>
<speed>30.1</speed>
<course>109.6</course>
<desc>Speed 30.1 km/h Distance 118 km</desc>
<time>2010-08-28T17:54:13.17</time>
<name>3549</name>
</trkpt>
<trkpt lat="49.575753" lon="8.662177">
<ele>154.5</ele>
<speed>30.1</speed>
<course>166.4</course>
<desc>Speed 30.1 km/h Distance 118 km</desc>
<time>2010-08-28T17:54:17.17</time>
<name>3550</name>
</trkpt>
<trkpt lat="49.575727" lon="8.662187">
<ele>155.0</ele>
<speed>30.1</speed>
<course>270.0</course>
<desc>Speed 30.1 km/h Distance 118 km</desc>
<time>2010-08-28T17:54:21.17</time>
<name>3551</name>
</trkpt>
<trkpt lat="49.575727" lon="8.662172">
<ele>155.5</ele>
<speed>30.1</speed>
<course>151.7</course>
<desc>Speed 30.1 km/h Distance 118 km</desc>
<time>2010-08-28T17:54:26.16</time>
<name>3552</name>
</trkpt>
<trkpt lat="49.575707" lon="8.662188">
<ele>156.0</ele>
<speed>2.6</speed>
<course>152.0</course>
<desc>Speed 2.6 km/h Distance 118 km</desc>
<time>2010-08-28T17:54:30.16</time>
<name>3553</name>
</trkpt>
<trkpt lat="49.575697" lon="8.662197">
<ele>156.0</ele>
<speed>2.6</speed>
<course>153.0</course>
<desc>Speed 2.6 km/h Distance 118 km</desc>
<time>2010-08-28T17:54:31.16</time>
<name>3554</name>
</trkpt>
<trkpt lat="49.575688" lon="8.662203">
<ele>156.0</ele>
<speed>2.6</speed>
<course>72.9</course>
<desc>Speed 2.6 km/h Distance 118 km</desc>
<time>2010-08-28T17:54:32.16</time>
<name>3555</name>
</trkpt>
<trkpt lat="49.575690" lon="8.662212">
<ele>156.0</ele>
<speed>1.4</speed>
<course>90.0</course>
<desc>Speed 1.4 km/h Distance 118 km</desc>
<time>2010-08-28T17:54:33.16</time>
<name>3556</name>
</trkpt>
<trkpt lat="49.575690" lon="8.662218">
<ele>156.0</ele>
<speed>1.4</speed>
<course>90.0</course>
<desc>Speed 1.4 km/h Distance 118 km</desc>
<time>2010-08-28T17:54:34.16</time>
<name>3557</name>
</trkpt>
<trkpt lat="49.575690" lon="8.662222">
<ele>156.0</ele>
<speed>1.4</speed>
<course>84.1</course>
<desc>Speed 1.4 km/h Distance 118 km</desc>
<time>2010-08-28T17:54:35.16</time>
<name>3558</name>
</trkpt>
<trkpt lat="49.575692" lon="8.662247">
<ele>156.5</ele>
<speed>1.1</speed>
<course>95.9</course>
<desc>Speed 1.1 km/h Distance 118 km</desc>
<time>2010-08-28T17:54:36.16</time>
<name>3559</name>
</trkpt>
<trkpt lat="49.575690" lon="8.662272">
<ele>156.5</ele>
<speed>1.1</speed>
<course>142.8</course>
<desc>Speed 1.1 km/h Distance 118 km</desc>
<time>2010-08-28T17:54:37.16</time>
<name>3560</name>
</trkpt>
<trkpt lat="49.575688" lon="8.662273">
<ele>156.5</ele>
<speed>1.1</speed>
<course>213.2</course>
<desc>Speed 1.1 km/h Distance 118 km</desc>
<time>2010-08-28T17:54:38.16</time>
<name>3561</name>
</trkpt>
<trkpt lat="49.575683" lon="8.662268">
<ele>156.5</ele>
<speed>2.8</speed>
<course>29.0</course>
<desc>Speed 2.8 km/h Distance 118 km</desc>
<time>2010-08-28T17:54:39.16</time>
<name>3562</name>
</trkpt>
<trkpt lat="49.575695" lon="8.662278">
<ele>156.5</ele>
<speed>4.5</speed>
<course>145.9</course>
<desc>Speed 4.5 km/h Distance 118 km</desc>
<time>2010-08-28T17:54:40.16</time>
<name>3563</name>
</trkpt>
<trkpt lat="49.575690" lon="8.662283">
<ele>156.5</ele>
<speed>0.8</speed>
<course>164.3</course>
<desc>Speed 0.8 km/h Distance 118 km</desc>
<time>2010-08-28T17:54:41.16</time>
<name>3564</name>
</trkpt>
<trkpt lat="49.575685" lon="8.662285">
<ele>156.5</ele>
<speed>0.8</speed>
<course>167.4</course>
<desc>Speed 0.8 km/h Distance 118 km</desc>
<time>2010-08-28T17:54:42.16</time>
<name>3565</name>
</trkpt>
<trkpt lat="49.575683" lon="8.662285">
<ele>156.5</ele>
<speed>0.8</speed>
<course>26.4</course>
<desc>Speed 0.8 km/h Distance 118 km</desc>
<time>2010-08-28T17:54:43.16</time>
<name>3566</name>
</trkpt>
<trkpt lat="49.575690" lon="8.662290">
<ele>156.5</ele>
<speed>1.8</speed>
<course>90.0</course>
<desc>Speed 1.8 km/h Distance 118 km</desc>
<time>2010-08-28T17:54:44.16</time>
<name>3567</name>
</trkpt>
<trkpt lat="49.575690" lon="8.662297">
<ele>156.5</ele>
<speed>0.7</speed>
<course>72.9</course>
<desc>Speed 0.7 km/h Distance 118 km</desc>
<time>2010-08-28T17:54:45.15</time>
<name>3568</name>
</trkpt>
<trkpt lat="49.575692" lon="8.662305">
<ele>156.5</ele>
<speed>1.7</speed>
<course>327.1</course>
<desc>Speed 1.7 km/h Distance 118 km</desc>
<time>2010-08-28T17:54:46.15</time>
<name>3569</name>
</trkpt>
<trkpt lat="49.575700" lon="8.662297">
<ele>156.5</ele>
<speed>3.6</speed>
<course>156.6</course>
<desc>Speed 3.6 km/h Distance 118 km</desc>
<time>2010-08-28T17:54:47.15</time>
<name>3570</name>
</trkpt>
<trkpt lat="49.575690" lon="8.662303">
<ele>156.5</ele>
<speed>3.7</speed>
<course>117.0</course>
<desc>Speed 3.7 km/h Distance 118 km</desc>
<time>2010-08-28T17:54:48.15</time>
<name>3571</name>
</trkpt>
<trkpt lat="49.575687" lon="8.662313">
<ele>156.5</ele>
<speed>4.2</speed>
<course>131.3</course>
<desc>Speed 4.2 km/h Distance 118 km</desc>
<time>2010-08-28T17:54:49.15</time>
<name>3572</name>
</trkpt>
<trkpt lat="49.575680" lon="8.662325">
<ele>156.5</ele>
<speed>5.8</speed>
<course>131.3</course>
<desc>Speed 5.8 km/h Distance 118 km</desc>
<time>2010-08-28T17:54:50.15</time>
<name>3573</name>
</trkpt>
<trkpt lat="49.575680" lon="8.662325">
<ele>156.5</ele>
<speed>2.2</speed>
<course>341.2</course>
<desc>Speed 2.2 km/h Distance 118 km</desc>
<time>2010-08-28T17:54:51.15</time>
<name>3574</name>
</trkpt>
<trkpt lat="49.575687" lon="8.662322">
<ele>156.5</ele>
<speed>0.5</speed>
<course>53.9</course>
<desc>Speed 0.5 km/h Distance 118 km</desc>
<time>2010-08-28T17:54:52.15</time>
<name>3575</name>
</trkpt>
<trkpt lat="49.575688" lon="8.662325">
<ele>156.5</ele>
<speed>1.5</speed>
<course>12.6</course>
<desc>Speed 1.5 km/h Distance 118 km</desc>
<time>2010-08-28T17:54:53.15</time>
<name>3576</name>
</trkpt>
<trkpt lat="49.575692" lon="8.662325">
<ele>156.5</ele>
<speed>1.6</speed>
<course>350.5</course>
<desc>Speed 1.6 km/h Distance 118 km</desc>
<time>2010-08-28T17:54:54.15</time>
<name>3577</name>
</trkpt>
<trkpt lat="49.575703" lon="8.662322">
<ele>156.5</ele>
<speed>2.2</speed>
<course>347.4</course>
<desc>Speed 2.2 km/h Distance 118 km</desc>
<time>2010-08-28T17:54:55.15</time>
<name>3578</name>
</trkpt>
<trkpt lat="49.575708" lon="8.662320">
<ele>156.5</ele>
<speed>2.2</speed>
<course>347.4</course>
<desc>Speed 2.2 km/h Distance 118 km</desc>
<time>2010-08-28T17:54:56.15</time>
<name>3579</name>
</trkpt>
<trkpt lat="49.575713" lon="8.662318">
<ele>156.5</ele>
<speed>2.2</speed>
<course>330.8</course>
<desc>Speed 2.2 km/h Distance 118 km</desc>
<time>2010-08-28T17:54:57.15</time>
<name>3580</name>
</trkpt>
<trkpt lat="49.575715" lon="8.662317">
<ele>156.5</ele>
<speed>2.2</speed>
<course>146.3</course>
<desc>Speed 2.2 km/h Distance 118 km</desc>
<time>2010-08-28T17:54:58.15</time>
<name>3581</name>
</trkpt>
<trkpt lat="49.575712" lon="8.662320">
<ele>156.5</ele>
<speed>0.9</speed>
<course>167.4</course>
<desc>Speed 0.9 km/h Distance 118 km</desc>
<time>2010-08-28T17:54:59.15</time>
<name>3582</name>
</trkpt>
<trkpt lat="49.575707" lon="8.662322">
<ele>156.5</ele>
<speed>0.9</speed>
<course>183.8</course>
<desc>Speed 0.9 km/h Distance 118 km</desc>
<time>2010-08-28T17:55:00.14</time>
<name>3583</name>
</trkpt>
<trkpt lat="49.575692" lon="8.662320">
<ele>156.5</ele>
<speed>2.1</speed>
<course>251.1</course>
<desc>Speed 2.1 km/h Distance 118 km</desc>
<time>2010-08-28T17:55:01.15</time>
<name>3584</name>
</trkpt>
<trkpt lat="49.575688" lon="8.662305">
<ele>156.5</ele>
<speed>4.2</speed>
<course>243.0</course>
<desc>Speed 4.2 km/h Distance 118 km</desc>
<time>2010-08-28T17:55:02.14</time>
<name>3585</name>
</trkpt>
<trkpt lat="49.575685" lon="8.662295">
<ele>156.5</ele>
<speed>4.2</speed>
<course>252.9</course>
<desc>Speed 4.2 km/h Distance 118 km</desc>
<time>2010-08-28T17:55:03.14</time>
<name>3586</name>
</trkpt>
<trkpt lat="49.575682" lon="8.662278">
<ele>157.0</ele>
<speed>4.7</speed>
<course>232.1</course>
<desc>Speed 4.7 km/h Distance 118 km</desc>
<time>2010-08-28T17:55:04.14</time>
<name>3587</name>
</trkpt>
<trkpt lat="49.575677" lon="8.662268">
<ele>156.5</ele>
<speed>4.2</speed>
<course>178.8</course>
<desc>Speed 4.2 km/h Distance 118 km</desc>
<time>2010-08-28T17:55:05.14</time>
<name>3588</name>
</trkpt>
<trkpt lat="49.575663" lon="8.662270">
<ele>156.5</ele>
<speed>4.9</speed>
<course>113.7</course>
<desc>Speed 4.9 km/h Distance 118 km</desc>
<time>2010-08-28T17:55:06.14</time>
<name>3589</name>
</trkpt>
<trkpt lat="49.575660" lon="8.662282">
<ele>156.5</ele>
<speed>2.7</speed>
<course>146.8</course>
<desc>Speed 2.7 km/h Distance 118 km</desc>
<time>2010-08-28T17:55:07.14</time>
<name>3590</name>
</trkpt>
<trkpt lat="49.575652" lon="8.662290">
<ele>156.5</ele>
<speed>4.1</speed>
<course>142.1</course>
<desc>Speed 4.1 km/h Distance 118 km</desc>
<time>2010-08-28T17:55:08.14</time>
<name>3591</name>
</trkpt>
<trkpt lat="49.575643" lon="8.662300">
<ele>156.0</ele>
<speed>4.1</speed>
<course>172.6</course>
<desc>Speed 4.1 km/h Distance 118 km</desc>
<time>2010-08-28T17:55:09.14</time>
<name>3592</name>
</trkpt>
<trkpt lat="49.575637" lon="8.662300">
<ele>156.0</ele>
<speed>4.1</speed>
<course>213.2</course>
<desc>Speed 4.1 km/h Distance 118 km</desc>
<time>2010-08-28T17:55:10.14</time>
<name>3593</name>
</trkpt>
<trkpt lat="49.575628" lon="8.662292">
<ele>155.5</ele>
<speed>4.1</speed>
<course>212.9</course>
<desc>Speed 4.1 km/h Distance 118 km</desc>
<time>2010-08-28T17:55:11.14</time>
<name>3594</name>
</trkpt>
<trkpt lat="49.575613" lon="8.662277">
<ele>155.5</ele>
<speed>5.7</speed>
<course>212.8</course>
<desc>Speed 5.7 km/h Distance 118 km</desc>
<time>2010-08-28T17:55:12.13</time>
<name>3595</name>
</trkpt>
<trkpt lat="49.575603" lon="8.662267">
<ele>155.5</ele>
<speed>5.7</speed>
<course>202.2</course>
<desc>Speed 5.7 km/h Distance 118 km</desc>
<time>2010-08-28T17:55:13.14</time>
<name>3596</name>
</trkpt>
<trkpt lat="49.575598" lon="8.662263">
<ele>155.0</ele>
<speed>5.7</speed>
<course>260.3</course>
<desc>Speed 5.7 km/h Distance 118 km</desc>
<time>2010-08-28T17:55:14.13</time>
<name>3597</name>
</trkpt>
<trkpt lat="49.575587" lon="8.662158">
<ele>156.5</ele>
<speed>3.6</speed>
<course>305.8</course>
<desc>Speed 3.6 km/h Distance 118 km</desc>
<time>2010-08-28T17:55:16.13</time>
<name>3598</name>
</trkpt>
<trkpt lat="49.575598" lon="8.662133">
<ele>156.5</ele>
<speed>3.6</speed>
<course>301.4</course>
<desc>Speed 3.6 km/h Distance 118 km</desc>
<time>2010-08-28T17:55:17.13</time>
<name>3599</name>
</trkpt>
<trkpt lat="49.575602" lon="8.662125">
<ele>156.5</ele>
<speed>3.6</speed>
<course>270.0</course>
<desc>Speed 3.6 km/h Distance 118 km</desc>
<time>2010-08-28T17:55:18.14</time>
<name>3600</name>
</trkpt>
<trkpt lat="49.575602" lon="8.662122">
<ele>157.0</ele>
<speed>3.6</speed>
<course>37.2</course>
<desc>Speed 3.6 km/h Distance 118 km</desc>
<time>2010-08-28T17:55:19.15</time>
<name>3601</name>
</trkpt>
<trkpt lat="49.575603" lon="8.662123">
<ele>156.5</ele>
<speed>3.6</speed>
<course>90.0</course>
<desc>Speed 3.6 km/h Distance 118 km</desc>
<time>2010-08-28T17:55:20.88</time>
<name>3602</name>
</trkpt>
<trkpt lat="49.575603" lon="8.662125">
<ele>156.5</ele>
<speed>3.6</speed>
<course>0.0</course>
<desc>Speed 3.6 km/h Distance 118 km</desc>
<time>2010-08-28T17:55:22.13</time>
<name>3603</name>
</trkpt>
<trkpt lat="49.575605" lon="8.662125">
<ele>156.5</ele>
<speed>3.6</speed>
<course>51.9</course>
<desc>Speed 3.6 km/h Distance 118 km</desc>
<time>2010-08-28T17:55:23.12</time>
<name>3604</name>
</trkpt>
<trkpt lat="49.575607" lon="8.662128">
<ele>156.5</ele>
<speed>3.6</speed>
<course>37.2</course>
<desc>Speed 3.6 km/h Distance 118 km</desc>
<time>2010-08-28T17:55:24.12</time>
<name>3605</name>
</trkpt>
<trkpt lat="49.575608" lon="8.662130">
<ele>156.5</ele>
<speed>3.6</speed>
<course>33.7</course>
<desc>Speed 3.6 km/h Distance 118 km</desc>
<time>2010-08-28T17:55:25.13</time>
<name>3606</name>
</trkpt>
<trkpt lat="49.575612" lon="8.662133">
<ele>156.5</ele>
<speed>3.6</speed>
<course>125.0</course>
<desc>Speed 3.6 km/h Distance 118 km</desc>
<time>2010-08-28T17:55:26.13</time>
<name>3607</name>
</trkpt>
<trkpt lat="49.575603" lon="8.662152">
<ele>156.5</ele>
<speed>3.6</speed>
<course>110.9</course>
<desc>Speed 3.6 km/h Distance 118 km</desc>
<time>2010-08-28T17:55:27.14</time>
<name>3608</name>
</trkpt>
<trkpt lat="49.575602" lon="8.662158">
<ele>156.5</ele>
<speed>3.6</speed>
<course>126.1</course>
<desc>Speed 3.6 km/h Distance 118 km</desc>
<time>2010-08-28T17:55:28.14</time>
<name>3609</name>
</trkpt>
<trkpt lat="49.575600" lon="8.662162">
<ele>156.5</ele>
<speed>3.6</speed>
<course>128.1</course>
<desc>Speed 3.6 km/h Distance 118 km</desc>
<time>2010-08-28T17:55:29.14</time>
<name>3610</name>
</trkpt>
<trkpt lat="49.575598" lon="8.662165">
<ele>156.5</ele>
<speed>3.6</speed>
<course>38.7</course>
<desc>Speed 3.6 km/h Distance 118 km</desc>
<time>2010-08-28T17:55:30.12</time>
<name>3611</name>
</trkpt>
<trkpt lat="49.575953" lon="8.662603">
<ele>157.0</ele>
<speed>3.6</speed>
<course>74.9</course>
<desc>Speed 3.6 km/h Distance 118 km</desc>
<time>2010-08-28T17:55:44.13</time>
<name>3612</name>
</trkpt>
<trkpt lat="49.575982" lon="8.662765">
<ele>157.0</ele>
<speed>3.6</speed>
<course>248.9</course>
<desc>Speed 3.6 km/h Distance 118 km</desc>
<time>2010-08-28T17:55:47.13</time>
<name>3613</name>
</trkpt>
<trkpt lat="49.575978" lon="8.662752">
<ele>157.0</ele>
<speed>3.6</speed>
<course>270.0</course>
<desc>Speed 3.6 km/h Distance 118 km</desc>
<time>2010-08-28T17:55:48.13</time>
<name>3614</name>
</trkpt>
<trkpt lat="49.575978" lon="8.662748">
<ele>157.0</ele>
<speed>3.6</speed>
<course>217.2</course>
<desc>Speed 3.6 km/h Distance 118 km</desc>
<time>2010-08-28T17:55:49.13</time>
<name>3615</name>
</trkpt>
<trkpt lat="49.575977" lon="8.662747">
<ele>157.0</ele>
<speed>3.6</speed>
<course>12.6</course>
<desc>Speed 3.6 km/h Distance 118 km</desc>
<time>2010-08-28T17:55:50.13</time>
<name>3616</name>
</trkpt>
<trkpt lat="49.575978" lon="8.662747">
<ele>157.0</ele>
<speed>3.6</speed>
<course>12.6</course>
<desc>Speed 3.6 km/h Distance 118 km</desc>
<time>2010-08-28T17:55:51.11</time>
<name>3617</name>
</trkpt>
<trkpt lat="49.575978" lon="8.662747">
<ele>157.0</ele>
<speed>3.6</speed>
<course>112.4</course>
<desc>Speed 3.6 km/h Distance 118 km</desc>
<time>2010-08-28T17:55:52.11</time>
<name>3618</name>
</trkpt>
<trkpt lat="49.575940" lon="8.662890">
<ele>157.0</ele>
<speed>3.6</speed>
<course>96.6</course>
<desc>Speed 3.6 km/h Distance 118 km</desc>
<time>2010-08-28T17:55:55.11</time>
<name>3619</name>
</trkpt>
<trkpt lat="49.575933" lon="8.662978">
<ele>157.0</ele>
<speed>3.6</speed>
<course>104.6</course>
<desc>Speed 3.6 km/h Distance 118 km</desc>
<time>2010-08-28T17:55:57.12</time>
<name>3620</name>
</trkpt>
<trkpt lat="49.575932" lon="8.662988">
<ele>157.0</ele>
<speed>3.6</speed>
<course>150.2</course>
<desc>Speed 3.6 km/h Distance 118 km</desc>
<time>2010-08-28T17:55:58.11</time>
<name>3621</name>
</trkpt>
<trkpt lat="49.575917" lon="8.663002">
<ele>157.0</ele>
<speed>3.6</speed>
<course>147.4</course>
<desc>Speed 3.6 km/h Distance 118 km</desc>
<time>2010-08-28T17:55:59.12</time>
<name>3622</name>
</trkpt>
<trkpt lat="49.575910" lon="8.663008">
<ele>157.0</ele>
<speed>3.6</speed>
<course>301.9</course>
<desc>Speed 3.6 km/h Distance 118 km</desc>
<time>2010-08-28T17:56:00.23</time>
<name>3623</name>
</trkpt>
<trkpt lat="49.576037" lon="8.662695">
<ele>157.0</ele>
<speed>3.6</speed>
<course>301.9</course>
<desc>Speed 3.6 km/h Distance 118 km</desc>
<time>2010-08-28T17:56:03.10</time>
<name>3624</name>
</trkpt>
</trkseg>
</trk>
</gpx>
